<?xml version="1.0" encoding="UTF-8" standalone="no" ?>
<gpx xmlns="http://www.topografix.com/GPX/1/1" xmlns:xsi="http://www.w3.org/2001/XMLSchema-instance" xsi:schemaLocation="http://www.topografix.com/GPX/1/1 http://www.topografix.com/GPX/1/1/gpx.xsd" version="1.1" creator="VisuGPX - https://www.visugpx.com">
  <metadata>
    <name>2016-09-08 Bike ride-Dombes O-Medium</name>
    <desc><![CDATA[2016-09-08 Bike ride-Dombes O-Medium]]></desc>
  </metadata>
  <wpt lat="45.92452" lon="4.73716">
    <ele>174</ele>
    <name><![CDATA[2016-09-08 10:39 (Start)]]></name>
  </wpt>
  <wpt lat="45.92465" lon="4.7371">
    <ele>174</ele>
    <name><![CDATA[2016-09-08 10:39 (End)]]></name>
    <desc><![CDATA[Created by Google My Tracks on Android  Name: 2016-09-08 10:39 Activity type: biking Description: - Total distance: 56.72 km (35.2 mi) Total time: 2:46:46 Moving time: 2:43:03 Average speed: 20.41 km/h (12.7 mi/h) Average moving speed: 20.87 km/h (13.0 mi/h) Max speed: 46.58 km/h (28.9 mi/h) Average pace: 2:56 min/km (4:44 min/mi) Average moving pace: 2:52 min/km (4:38 min/mi) Fastest pace: 1:17 min/km (2:04 min/mi) Max elevation: 323 m (1059 ft) Min elevation: 163 m (535 ft) Elevation gain: 757 m (2482 ft) Max grade: 13 % Min grade: -38 % Recorded: 08/09/2016 10:39]]></desc>
  </wpt>
  <trk>
    <name><![CDATA[2016-09-08 10:39]]></name>
    <trkseg>
      <trkpt lat="45.92452" lon="4.73716">
        <ele>174</ele>
        <time>2016-09-08T08:39:48.386Z</time>
      </trkpt>
      <trkpt lat="45.9246" lon="4.73714">
        <ele>174</ele>
        <time>2016-09-08T08:41:17Z</time>
      </trkpt>
      <trkpt lat="45.92462" lon="4.73713">
        <ele>174</ele>
        <time>2016-09-08T08:41:18Z</time>
      </trkpt>
      <trkpt lat="45.92465" lon="4.73701">
        <ele>174</ele>
        <time>2016-09-08T08:41:23Z</time>
      </trkpt>
      <trkpt lat="45.92465" lon="4.73699">
        <ele>174</ele>
        <time>2016-09-08T08:41:24Z</time>
      </trkpt>
      <trkpt lat="45.92467" lon="4.73689">
        <ele>174</ele>
        <time>2016-09-08T08:41:27Z</time>
      </trkpt>
      <trkpt lat="45.92468" lon="4.73684">
        <ele>174</ele>
        <time>2016-09-08T08:41:28Z</time>
      </trkpt>
      <trkpt lat="45.92469" lon="4.73675">
        <ele>174</ele>
        <time>2016-09-08T08:41:30Z</time>
      </trkpt>
      <trkpt lat="45.9247" lon="4.7367">
        <ele>174</ele>
        <time>2016-09-08T08:41:31Z</time>
      </trkpt>
      <trkpt lat="45.92471" lon="4.7366">
        <ele>174</ele>
        <time>2016-09-08T08:41:33Z</time>
      </trkpt>
      <trkpt lat="45.92473" lon="4.73655">
        <ele>174</ele>
        <time>2016-09-08T08:41:34Z</time>
      </trkpt>
      <trkpt lat="45.9248" lon="4.73647">
        <ele>174</ele>
        <time>2016-09-08T08:41:37Z</time>
      </trkpt>
      <trkpt lat="45.92482" lon="4.73647">
        <ele>174</ele>
        <time>2016-09-08T08:41:38Z</time>
      </trkpt>
      <trkpt lat="45.92489" lon="4.73647">
        <ele>174</ele>
        <time>2016-09-08T08:41:40Z</time>
      </trkpt>
      <trkpt lat="45.92493" lon="4.73647">
        <ele>174</ele>
        <time>2016-09-08T08:41:41Z</time>
      </trkpt>
      <trkpt lat="45.92501" lon="4.73646">
        <ele>174</ele>
        <time>2016-09-08T08:41:43Z</time>
      </trkpt>
      <trkpt lat="45.92505" lon="4.73646">
        <ele>174</ele>
        <time>2016-09-08T08:41:44Z</time>
      </trkpt>
      <trkpt lat="45.92509" lon="4.73646">
        <ele>174</ele>
        <time>2016-09-08T08:41:45Z</time>
      </trkpt>
      <trkpt lat="45.92514" lon="4.73646">
        <ele>174</ele>
        <time>2016-09-08T08:41:46Z</time>
      </trkpt>
      <trkpt lat="45.92519" lon="4.73646">
        <ele>174</ele>
        <time>2016-09-08T08:41:47Z</time>
      </trkpt>
      <trkpt lat="45.92523" lon="4.73646">
        <ele>173</ele>
        <time>2016-09-08T08:41:48Z</time>
      </trkpt>
      <trkpt lat="45.92528" lon="4.73646">
        <ele>173</ele>
        <time>2016-09-08T08:41:49Z</time>
      </trkpt>
      <trkpt lat="45.92533" lon="4.73646">
        <ele>173</ele>
        <time>2016-09-08T08:41:50Z</time>
      </trkpt>
      <trkpt lat="45.92541" lon="4.73643">
        <ele>173</ele>
        <time>2016-09-08T08:41:52Z</time>
      </trkpt>
      <trkpt lat="45.92545" lon="4.73642">
        <ele>173</ele>
        <time>2016-09-08T08:41:53Z</time>
      </trkpt>
      <trkpt lat="45.92553" lon="4.73639">
        <ele>173</ele>
        <time>2016-09-08T08:41:55Z</time>
      </trkpt>
      <trkpt lat="45.92558" lon="4.73638">
        <ele>173</ele>
        <time>2016-09-08T08:41:56Z</time>
      </trkpt>
      <trkpt lat="45.92563" lon="4.73637">
        <ele>173</ele>
        <time>2016-09-08T08:41:57Z</time>
      </trkpt>
      <trkpt lat="45.92568" lon="4.73635">
        <ele>173</ele>
        <time>2016-09-08T08:41:58Z</time>
      </trkpt>
      <trkpt lat="45.92577" lon="4.73633">
        <ele>173</ele>
        <time>2016-09-08T08:42:00Z</time>
      </trkpt>
      <trkpt lat="45.92582" lon="4.73632">
        <ele>173</ele>
        <time>2016-09-08T08:42:01Z</time>
      </trkpt>
      <trkpt lat="45.92587" lon="4.73632">
        <ele>172</ele>
        <time>2016-09-08T08:42:02Z</time>
      </trkpt>
      <trkpt lat="45.92591" lon="4.73632">
        <ele>172</ele>
        <time>2016-09-08T08:42:03Z</time>
      </trkpt>
      <trkpt lat="45.92597" lon="4.73632">
        <ele>172</ele>
        <time>2016-09-08T08:42:04Z</time>
      </trkpt>
      <trkpt lat="45.92601" lon="4.73632">
        <ele>172</ele>
        <time>2016-09-08T08:42:05Z</time>
      </trkpt>
      <trkpt lat="45.92606" lon="4.73632">
        <ele>173</ele>
        <time>2016-09-08T08:42:06Z</time>
      </trkpt>
      <trkpt lat="45.92613" lon="4.73633">
        <ele>173</ele>
        <time>2016-09-08T08:42:07Z</time>
      </trkpt>
      <trkpt lat="45.92617" lon="4.73637">
        <ele>173</ele>
        <time>2016-09-08T08:42:08Z</time>
      </trkpt>
      <trkpt lat="45.92621" lon="4.73641">
        <ele>173</ele>
        <time>2016-09-08T08:42:09Z</time>
      </trkpt>
      <trkpt lat="45.92624" lon="4.73647">
        <ele>173</ele>
        <time>2016-09-08T08:42:10Z</time>
      </trkpt>
      <trkpt lat="45.92627" lon="4.73652">
        <ele>173</ele>
        <time>2016-09-08T08:42:11Z</time>
      </trkpt>
      <trkpt lat="45.9263" lon="4.73657">
        <ele>173</ele>
        <time>2016-09-08T08:42:12Z</time>
      </trkpt>
      <trkpt lat="45.92634" lon="4.73663">
        <ele>173</ele>
        <time>2016-09-08T08:42:13Z</time>
      </trkpt>
      <trkpt lat="45.92637" lon="4.73669">
        <ele>173</ele>
        <time>2016-09-08T08:42:14Z</time>
      </trkpt>
      <trkpt lat="45.92641" lon="4.73675">
        <ele>173</ele>
        <time>2016-09-08T08:42:15Z</time>
      </trkpt>
      <trkpt lat="45.92645" lon="4.7368">
        <ele>173</ele>
        <time>2016-09-08T08:42:16Z</time>
      </trkpt>
      <trkpt lat="45.92649" lon="4.73685">
        <ele>173</ele>
        <time>2016-09-08T08:42:17Z</time>
      </trkpt>
      <trkpt lat="45.92654" lon="4.7369">
        <ele>173</ele>
        <time>2016-09-08T08:42:18Z</time>
      </trkpt>
      <trkpt lat="45.92659" lon="4.73694">
        <ele>173</ele>
        <time>2016-09-08T08:42:19Z</time>
      </trkpt>
      <trkpt lat="45.92664" lon="4.73698">
        <ele>173</ele>
        <time>2016-09-08T08:42:20Z</time>
      </trkpt>
      <trkpt lat="45.9267" lon="4.73701">
        <ele>174</ele>
        <time>2016-09-08T08:42:21Z</time>
      </trkpt>
      <trkpt lat="45.92675" lon="4.73704">
        <ele>174</ele>
        <time>2016-09-08T08:42:22Z</time>
      </trkpt>
      <trkpt lat="45.92681" lon="4.73706">
        <ele>173</ele>
        <time>2016-09-08T08:42:23Z</time>
      </trkpt>
      <trkpt lat="45.92687" lon="4.73708">
        <ele>173</ele>
        <time>2016-09-08T08:42:24Z</time>
      </trkpt>
      <trkpt lat="45.92692" lon="4.7371">
        <ele>173</ele>
        <time>2016-09-08T08:42:25Z</time>
      </trkpt>
      <trkpt lat="45.92698" lon="4.73713">
        <ele>173</ele>
        <time>2016-09-08T08:42:26Z</time>
      </trkpt>
      <trkpt lat="45.92704" lon="4.73715">
        <ele>173</ele>
        <time>2016-09-08T08:42:27Z</time>
      </trkpt>
      <trkpt lat="45.92711" lon="4.73717">
        <ele>173</ele>
        <time>2016-09-08T08:42:28Z</time>
      </trkpt>
      <trkpt lat="45.92716" lon="4.73719">
        <ele>173</ele>
        <time>2016-09-08T08:42:29Z</time>
      </trkpt>
      <trkpt lat="45.92722" lon="4.7372">
        <ele>173</ele>
        <time>2016-09-08T08:42:30Z</time>
      </trkpt>
      <trkpt lat="45.92727" lon="4.73721">
        <ele>173</ele>
        <time>2016-09-08T08:42:31Z</time>
      </trkpt>
      <trkpt lat="45.92732" lon="4.73722">
        <ele>173</ele>
        <time>2016-09-08T08:42:32Z</time>
      </trkpt>
      <trkpt lat="45.92737" lon="4.73723">
        <ele>173</ele>
        <time>2016-09-08T08:42:33Z</time>
      </trkpt>
      <trkpt lat="45.92742" lon="4.73724">
        <ele>173</ele>
        <time>2016-09-08T08:42:34Z</time>
      </trkpt>
      <trkpt lat="45.92746" lon="4.73725">
        <ele>173</ele>
        <time>2016-09-08T08:42:35Z</time>
      </trkpt>
      <trkpt lat="45.92754" lon="4.73728">
        <ele>172</ele>
        <time>2016-09-08T08:42:37Z</time>
      </trkpt>
      <trkpt lat="45.92759" lon="4.73729">
        <ele>172</ele>
        <time>2016-09-08T08:42:38Z</time>
      </trkpt>
      <trkpt lat="45.92767" lon="4.73734">
        <ele>172</ele>
        <time>2016-09-08T08:42:40Z</time>
      </trkpt>
      <trkpt lat="45.92771" lon="4.73735">
        <ele>172</ele>
        <time>2016-09-08T08:42:41Z</time>
      </trkpt>
      <trkpt lat="45.92779" lon="4.7374">
        <ele>172</ele>
        <time>2016-09-08T08:42:44Z</time>
      </trkpt>
      <trkpt lat="45.9278" lon="4.73744">
        <ele>172</ele>
        <time>2016-09-08T08:42:45Z</time>
      </trkpt>
      <trkpt lat="45.92784" lon="4.73754">
        <ele>173</ele>
        <time>2016-09-08T08:42:47Z</time>
      </trkpt>
      <trkpt lat="45.92787" lon="4.73758">
        <ele>173</ele>
        <time>2016-09-08T08:42:48Z</time>
      </trkpt>
      <trkpt lat="45.92791" lon="4.73762">
        <ele>173</ele>
        <time>2016-09-08T08:42:49Z</time>
      </trkpt>
      <trkpt lat="45.92795" lon="4.73764">
        <ele>173</ele>
        <time>2016-09-08T08:42:50Z</time>
      </trkpt>
      <trkpt lat="45.928" lon="4.73767">
        <ele>173</ele>
        <time>2016-09-08T08:42:51Z</time>
      </trkpt>
      <trkpt lat="45.92804" lon="4.73769">
        <ele>173</ele>
        <time>2016-09-08T08:42:52Z</time>
      </trkpt>
      <trkpt lat="45.92809" lon="4.73771">
        <ele>173</ele>
        <time>2016-09-08T08:42:53Z</time>
      </trkpt>
      <trkpt lat="45.92815" lon="4.73774">
        <ele>173</ele>
        <time>2016-09-08T08:42:54Z</time>
      </trkpt>
      <trkpt lat="45.9282" lon="4.73777">
        <ele>173</ele>
        <time>2016-09-08T08:42:55Z</time>
      </trkpt>
      <trkpt lat="45.92826" lon="4.7378">
        <ele>173</ele>
        <time>2016-09-08T08:42:56Z</time>
      </trkpt>
      <trkpt lat="45.92831" lon="4.73787">
        <ele>173</ele>
        <time>2016-09-08T08:42:57Z</time>
      </trkpt>
      <trkpt lat="45.92836" lon="4.73792">
        <ele>173</ele>
        <time>2016-09-08T08:42:58Z</time>
      </trkpt>
      <trkpt lat="45.92841" lon="4.73795">
        <ele>173</ele>
        <time>2016-09-08T08:42:59Z</time>
      </trkpt>
      <trkpt lat="45.92845" lon="4.73799">
        <ele>173</ele>
        <time>2016-09-08T08:43:00Z</time>
      </trkpt>
      <trkpt lat="45.92849" lon="4.73804">
        <ele>173</ele>
        <time>2016-09-08T08:43:01Z</time>
      </trkpt>
      <trkpt lat="45.92853" lon="4.7381">
        <ele>173</ele>
        <time>2016-09-08T08:43:02Z</time>
      </trkpt>
      <trkpt lat="45.92855" lon="4.73817">
        <ele>173</ele>
        <time>2016-09-08T08:43:03Z</time>
      </trkpt>
      <trkpt lat="45.92857" lon="4.73824">
        <ele>173</ele>
        <time>2016-09-08T08:43:04Z</time>
      </trkpt>
      <trkpt lat="45.92859" lon="4.73832">
        <ele>173</ele>
        <time>2016-09-08T08:43:05Z</time>
      </trkpt>
      <trkpt lat="45.92862" lon="4.73839">
        <ele>173</ele>
        <time>2016-09-08T08:43:06Z</time>
      </trkpt>
      <trkpt lat="45.92864" lon="4.73846">
        <ele>173</ele>
        <time>2016-09-08T08:43:07Z</time>
      </trkpt>
      <trkpt lat="45.92866" lon="4.73853">
        <ele>173</ele>
        <time>2016-09-08T08:43:08Z</time>
      </trkpt>
      <trkpt lat="45.92868" lon="4.7386">
        <ele>173</ele>
        <time>2016-09-08T08:43:09Z</time>
      </trkpt>
      <trkpt lat="45.92872" lon="4.73869">
        <ele>173</ele>
        <time>2016-09-08T08:43:10Z</time>
      </trkpt>
      <trkpt lat="45.92874" lon="4.73877">
        <ele>173</ele>
        <time>2016-09-08T08:43:11Z</time>
      </trkpt>
      <trkpt lat="45.92876" lon="4.73885">
        <ele>173</ele>
        <time>2016-09-08T08:43:12Z</time>
      </trkpt>
      <trkpt lat="45.92876" lon="4.73894">
        <ele>173</ele>
        <time>2016-09-08T08:43:13Z</time>
      </trkpt>
      <trkpt lat="45.92875" lon="4.73903">
        <ele>173</ele>
        <time>2016-09-08T08:43:14Z</time>
      </trkpt>
      <trkpt lat="45.92875" lon="4.73912">
        <ele>173</ele>
        <time>2016-09-08T08:43:15Z</time>
      </trkpt>
      <trkpt lat="45.92875" lon="4.7392">
        <ele>172</ele>
        <time>2016-09-08T08:43:16Z</time>
      </trkpt>
      <trkpt lat="45.92875" lon="4.73929">
        <ele>173</ele>
        <time>2016-09-08T08:43:17Z</time>
      </trkpt>
      <trkpt lat="45.92876" lon="4.73937">
        <ele>172</ele>
        <time>2016-09-08T08:43:18Z</time>
      </trkpt>
      <trkpt lat="45.92877" lon="4.73945">
        <ele>172</ele>
        <time>2016-09-08T08:43:19Z</time>
      </trkpt>
      <trkpt lat="45.92877" lon="4.73953">
        <ele>172</ele>
        <time>2016-09-08T08:43:20Z</time>
      </trkpt>
      <trkpt lat="45.92878" lon="4.7396">
        <ele>172</ele>
        <time>2016-09-08T08:43:21Z</time>
      </trkpt>
      <trkpt lat="45.92878" lon="4.73968">
        <ele>172</ele>
        <time>2016-09-08T08:43:22Z</time>
      </trkpt>
      <trkpt lat="45.92878" lon="4.73976">
        <ele>172</ele>
        <time>2016-09-08T08:43:23Z</time>
      </trkpt>
      <trkpt lat="45.92878" lon="4.73983">
        <ele>172</ele>
        <time>2016-09-08T08:43:24Z</time>
      </trkpt>
      <trkpt lat="45.92877" lon="4.73989">
        <ele>172</ele>
        <time>2016-09-08T08:43:25Z</time>
      </trkpt>
      <trkpt lat="45.92876" lon="4.73997">
        <ele>172</ele>
        <time>2016-09-08T08:43:26Z</time>
      </trkpt>
      <trkpt lat="45.92876" lon="4.74004">
        <ele>172</ele>
        <time>2016-09-08T08:43:27Z</time>
      </trkpt>
      <trkpt lat="45.92874" lon="4.74011">
        <ele>172</ele>
        <time>2016-09-08T08:43:28Z</time>
      </trkpt>
      <trkpt lat="45.92873" lon="4.74019">
        <ele>172</ele>
        <time>2016-09-08T08:43:29Z</time>
      </trkpt>
      <trkpt lat="45.92871" lon="4.74027">
        <ele>172</ele>
        <time>2016-09-08T08:43:30Z</time>
      </trkpt>
      <trkpt lat="45.92869" lon="4.74034">
        <ele>172</ele>
        <time>2016-09-08T08:43:31Z</time>
      </trkpt>
      <trkpt lat="45.92866" lon="4.74041">
        <ele>172</ele>
        <time>2016-09-08T08:43:32Z</time>
      </trkpt>
      <trkpt lat="45.92862" lon="4.74047">
        <ele>172</ele>
        <time>2016-09-08T08:43:33Z</time>
      </trkpt>
      <trkpt lat="45.92857" lon="4.74053">
        <ele>172</ele>
        <time>2016-09-08T08:43:34Z</time>
      </trkpt>
      <trkpt lat="45.92852" lon="4.74058">
        <ele>172</ele>
        <time>2016-09-08T08:43:35Z</time>
      </trkpt>
      <trkpt lat="45.92848" lon="4.74063">
        <ele>172</ele>
        <time>2016-09-08T08:43:36Z</time>
      </trkpt>
      <trkpt lat="45.92842" lon="4.74069">
        <ele>172</ele>
        <time>2016-09-08T08:43:37Z</time>
      </trkpt>
      <trkpt lat="45.92837" lon="4.74075">
        <ele>171</ele>
        <time>2016-09-08T08:43:38Z</time>
      </trkpt>
      <trkpt lat="45.92833" lon="4.74081">
        <ele>171</ele>
        <time>2016-09-08T08:43:39Z</time>
      </trkpt>
      <trkpt lat="45.92828" lon="4.74087">
        <ele>171</ele>
        <time>2016-09-08T08:43:40Z</time>
      </trkpt>
      <trkpt lat="45.92824" lon="4.74093">
        <ele>171</ele>
        <time>2016-09-08T08:43:41Z</time>
      </trkpt>
      <trkpt lat="45.92819" lon="4.74098">
        <ele>171</ele>
        <time>2016-09-08T08:43:42Z</time>
      </trkpt>
      <trkpt lat="45.92814" lon="4.74103">
        <ele>172</ele>
        <time>2016-09-08T08:43:43Z</time>
      </trkpt>
      <trkpt lat="45.9281" lon="4.74107">
        <ele>172</ele>
        <time>2016-09-08T08:43:44Z</time>
      </trkpt>
      <trkpt lat="45.92805" lon="4.74111">
        <ele>172</ele>
        <time>2016-09-08T08:43:45Z</time>
      </trkpt>
      <trkpt lat="45.92801" lon="4.74116">
        <ele>172</ele>
        <time>2016-09-08T08:43:46Z</time>
      </trkpt>
      <trkpt lat="45.92796" lon="4.74121">
        <ele>172</ele>
        <time>2016-09-08T08:43:47Z</time>
      </trkpt>
      <trkpt lat="45.92792" lon="4.74126">
        <ele>172</ele>
        <time>2016-09-08T08:43:48Z</time>
      </trkpt>
      <trkpt lat="45.92787" lon="4.74131">
        <ele>172</ele>
        <time>2016-09-08T08:43:49Z</time>
      </trkpt>
      <trkpt lat="45.92783" lon="4.74136">
        <ele>172</ele>
        <time>2016-09-08T08:43:50Z</time>
      </trkpt>
      <trkpt lat="45.92778" lon="4.74141">
        <ele>172</ele>
        <time>2016-09-08T08:43:51Z</time>
      </trkpt>
      <trkpt lat="45.92774" lon="4.74146">
        <ele>172</ele>
        <time>2016-09-08T08:43:52Z</time>
      </trkpt>
      <trkpt lat="45.92769" lon="4.74152">
        <ele>172</ele>
        <time>2016-09-08T08:43:53Z</time>
      </trkpt>
      <trkpt lat="45.92765" lon="4.74157">
        <ele>172</ele>
        <time>2016-09-08T08:43:54Z</time>
      </trkpt>
      <trkpt lat="45.9276" lon="4.74162">
        <ele>172</ele>
        <time>2016-09-08T08:43:55Z</time>
      </trkpt>
      <trkpt lat="45.92756" lon="4.74167">
        <ele>172</ele>
        <time>2016-09-08T08:43:56Z</time>
      </trkpt>
      <trkpt lat="45.92751" lon="4.74172">
        <ele>172</ele>
        <time>2016-09-08T08:43:57Z</time>
      </trkpt>
      <trkpt lat="45.92747" lon="4.74177">
        <ele>172</ele>
        <time>2016-09-08T08:43:58Z</time>
      </trkpt>
      <trkpt lat="45.92742" lon="4.74181">
        <ele>172</ele>
        <time>2016-09-08T08:43:59Z</time>
      </trkpt>
      <trkpt lat="45.92738" lon="4.74186">
        <ele>172</ele>
        <time>2016-09-08T08:44:00Z</time>
      </trkpt>
      <trkpt lat="45.92732" lon="4.74194">
        <ele>171</ele>
        <time>2016-09-08T08:44:02Z</time>
      </trkpt>
      <trkpt lat="45.92729" lon="4.74199">
        <ele>171</ele>
        <time>2016-09-08T08:44:03Z</time>
      </trkpt>
      <trkpt lat="45.92725" lon="4.74205">
        <ele>171</ele>
        <time>2016-09-08T08:44:04Z</time>
      </trkpt>
      <trkpt lat="45.92721" lon="4.74211">
        <ele>171</ele>
        <time>2016-09-08T08:44:05Z</time>
      </trkpt>
      <trkpt lat="45.92717" lon="4.74217">
        <ele>171</ele>
        <time>2016-09-08T08:44:06Z</time>
      </trkpt>
      <trkpt lat="45.92713" lon="4.74223">
        <ele>171</ele>
        <time>2016-09-08T08:44:07Z</time>
      </trkpt>
      <trkpt lat="45.92709" lon="4.74229">
        <ele>171</ele>
        <time>2016-09-08T08:44:08Z</time>
      </trkpt>
      <trkpt lat="45.92705" lon="4.74236">
        <ele>171</ele>
        <time>2016-09-08T08:44:09Z</time>
      </trkpt>
      <trkpt lat="45.92701" lon="4.74242">
        <ele>171</ele>
        <time>2016-09-08T08:44:10Z</time>
      </trkpt>
      <trkpt lat="45.92697" lon="4.74248">
        <ele>171</ele>
        <time>2016-09-08T08:44:11Z</time>
      </trkpt>
      <trkpt lat="45.92694" lon="4.74254">
        <ele>171</ele>
        <time>2016-09-08T08:44:12Z</time>
      </trkpt>
      <trkpt lat="45.9269" lon="4.74261">
        <ele>171</ele>
        <time>2016-09-08T08:44:13Z</time>
      </trkpt>
      <trkpt lat="45.92687" lon="4.74267">
        <ele>171</ele>
        <time>2016-09-08T08:44:14Z</time>
      </trkpt>
      <trkpt lat="45.92683" lon="4.74274">
        <ele>171</ele>
        <time>2016-09-08T08:44:15Z</time>
      </trkpt>
      <trkpt lat="45.9268" lon="4.7428">
        <ele>171</ele>
        <time>2016-09-08T08:44:16Z</time>
      </trkpt>
      <trkpt lat="45.92676" lon="4.74286">
        <ele>171</ele>
        <time>2016-09-08T08:44:17Z</time>
      </trkpt>
      <trkpt lat="45.92673" lon="4.74293">
        <ele>171</ele>
        <time>2016-09-08T08:44:18Z</time>
      </trkpt>
      <trkpt lat="45.92669" lon="4.74299">
        <ele>171</ele>
        <time>2016-09-08T08:44:19Z</time>
      </trkpt>
      <trkpt lat="45.92666" lon="4.74306">
        <ele>171</ele>
        <time>2016-09-08T08:44:20Z</time>
      </trkpt>
      <trkpt lat="45.92662" lon="4.74312">
        <ele>171</ele>
        <time>2016-09-08T08:44:21Z</time>
      </trkpt>
      <trkpt lat="45.92658" lon="4.74319">
        <ele>171</ele>
        <time>2016-09-08T08:44:22Z</time>
      </trkpt>
      <trkpt lat="45.92655" lon="4.74325">
        <ele>171</ele>
        <time>2016-09-08T08:44:23Z</time>
      </trkpt>
      <trkpt lat="45.92651" lon="4.74332">
        <ele>171</ele>
        <time>2016-09-08T08:44:24Z</time>
      </trkpt>
      <trkpt lat="45.92648" lon="4.74338">
        <ele>171</ele>
        <time>2016-09-08T08:44:25Z</time>
      </trkpt>
      <trkpt lat="45.92644" lon="4.74345">
        <ele>171</ele>
        <time>2016-09-08T08:44:26Z</time>
      </trkpt>
      <trkpt lat="45.9264" lon="4.74351">
        <ele>171</ele>
        <time>2016-09-08T08:44:27Z</time>
      </trkpt>
      <trkpt lat="45.92636" lon="4.74358">
        <ele>171</ele>
        <time>2016-09-08T08:44:28Z</time>
      </trkpt>
      <trkpt lat="45.92632" lon="4.74365">
        <ele>171</ele>
        <time>2016-09-08T08:44:29Z</time>
      </trkpt>
      <trkpt lat="45.92629" lon="4.74371">
        <ele>171</ele>
        <time>2016-09-08T08:44:30Z</time>
      </trkpt>
      <trkpt lat="45.92625" lon="4.74378">
        <ele>170</ele>
        <time>2016-09-08T08:44:31Z</time>
      </trkpt>
      <trkpt lat="45.92621" lon="4.74385">
        <ele>170</ele>
        <time>2016-09-08T08:44:32Z</time>
      </trkpt>
      <trkpt lat="45.92617" lon="4.74392">
        <ele>170</ele>
        <time>2016-09-08T08:44:33Z</time>
      </trkpt>
      <trkpt lat="45.92614" lon="4.74399">
        <ele>170</ele>
        <time>2016-09-08T08:44:34Z</time>
      </trkpt>
      <trkpt lat="45.9261" lon="4.74407">
        <ele>170</ele>
        <time>2016-09-08T08:44:35Z</time>
      </trkpt>
      <trkpt lat="45.92606" lon="4.74413">
        <ele>170</ele>
        <time>2016-09-08T08:44:36Z</time>
      </trkpt>
      <trkpt lat="45.92602" lon="4.7442">
        <ele>170</ele>
        <time>2016-09-08T08:44:37Z</time>
      </trkpt>
      <trkpt lat="45.92598" lon="4.74426">
        <ele>170</ele>
        <time>2016-09-08T08:44:38Z</time>
      </trkpt>
      <trkpt lat="45.92594" lon="4.74432">
        <ele>170</ele>
        <time>2016-09-08T08:44:39Z</time>
      </trkpt>
      <trkpt lat="45.9259" lon="4.74439">
        <ele>170</ele>
        <time>2016-09-08T08:44:40Z</time>
      </trkpt>
      <trkpt lat="45.92587" lon="4.74445">
        <ele>170</ele>
        <time>2016-09-08T08:44:41Z</time>
      </trkpt>
      <trkpt lat="45.92584" lon="4.74452">
        <ele>170</ele>
        <time>2016-09-08T08:44:42Z</time>
      </trkpt>
      <trkpt lat="45.9258" lon="4.74459">
        <ele>170</ele>
        <time>2016-09-08T08:44:43Z</time>
      </trkpt>
      <trkpt lat="45.92577" lon="4.74466">
        <ele>170</ele>
        <time>2016-09-08T08:44:44Z</time>
      </trkpt>
      <trkpt lat="45.92573" lon="4.74473">
        <ele>170</ele>
        <time>2016-09-08T08:44:45Z</time>
      </trkpt>
      <trkpt lat="45.92569" lon="4.74479">
        <ele>170</ele>
        <time>2016-09-08T08:44:46Z</time>
      </trkpt>
      <trkpt lat="45.92565" lon="4.74486">
        <ele>170</ele>
        <time>2016-09-08T08:44:47Z</time>
      </trkpt>
      <trkpt lat="45.92561" lon="4.74493">
        <ele>170</ele>
        <time>2016-09-08T08:44:48Z</time>
      </trkpt>
      <trkpt lat="45.92557" lon="4.745">
        <ele>170</ele>
        <time>2016-09-08T08:44:49Z</time>
      </trkpt>
      <trkpt lat="45.92553" lon="4.74507">
        <ele>170</ele>
        <time>2016-09-08T08:44:50Z</time>
      </trkpt>
      <trkpt lat="45.92549" lon="4.74513">
        <ele>170</ele>
        <time>2016-09-08T08:44:51Z</time>
      </trkpt>
      <trkpt lat="45.92546" lon="4.7452">
        <ele>170</ele>
        <time>2016-09-08T08:44:52Z</time>
      </trkpt>
      <trkpt lat="45.92541" lon="4.74527">
        <ele>171</ele>
        <time>2016-09-08T08:44:53Z</time>
      </trkpt>
      <trkpt lat="45.92537" lon="4.74535">
        <ele>171</ele>
        <time>2016-09-08T08:44:54Z</time>
      </trkpt>
      <trkpt lat="45.92533" lon="4.74541">
        <ele>171</ele>
        <time>2016-09-08T08:44:55Z</time>
      </trkpt>
      <trkpt lat="45.92528" lon="4.74548">
        <ele>171</ele>
        <time>2016-09-08T08:44:56Z</time>
      </trkpt>
      <trkpt lat="45.92524" lon="4.74555">
        <ele>171</ele>
        <time>2016-09-08T08:44:57Z</time>
      </trkpt>
      <trkpt lat="45.92519" lon="4.74561">
        <ele>171</ele>
        <time>2016-09-08T08:44:58Z</time>
      </trkpt>
      <trkpt lat="45.92515" lon="4.74567">
        <ele>171</ele>
        <time>2016-09-08T08:44:59Z</time>
      </trkpt>
      <trkpt lat="45.9251" lon="4.74572">
        <ele>171</ele>
        <time>2016-09-08T08:45:00Z</time>
      </trkpt>
      <trkpt lat="45.92506" lon="4.74578">
        <ele>171</ele>
        <time>2016-09-08T08:45:01Z</time>
      </trkpt>
      <trkpt lat="45.92501" lon="4.74583">
        <ele>171</ele>
        <time>2016-09-08T08:45:02Z</time>
      </trkpt>
      <trkpt lat="45.92497" lon="4.74588">
        <ele>171</ele>
        <time>2016-09-08T08:45:03Z</time>
      </trkpt>
      <trkpt lat="45.92493" lon="4.74593">
        <ele>171</ele>
        <time>2016-09-08T08:45:04Z</time>
      </trkpt>
      <trkpt lat="45.92489" lon="4.74599">
        <ele>171</ele>
        <time>2016-09-08T08:45:05Z</time>
      </trkpt>
      <trkpt lat="45.92485" lon="4.74605">
        <ele>171</ele>
        <time>2016-09-08T08:45:06Z</time>
      </trkpt>
      <trkpt lat="45.9248" lon="4.74611">
        <ele>171</ele>
        <time>2016-09-08T08:45:07Z</time>
      </trkpt>
      <trkpt lat="45.92476" lon="4.74617">
        <ele>171</ele>
        <time>2016-09-08T08:45:08Z</time>
      </trkpt>
      <trkpt lat="45.92471" lon="4.74623">
        <ele>171</ele>
        <time>2016-09-08T08:45:09Z</time>
      </trkpt>
      <trkpt lat="45.92467" lon="4.74629">
        <ele>171</ele>
        <time>2016-09-08T08:45:10Z</time>
      </trkpt>
      <trkpt lat="45.92463" lon="4.74635">
        <ele>171</ele>
        <time>2016-09-08T08:45:11Z</time>
      </trkpt>
      <trkpt lat="45.92459" lon="4.74642">
        <ele>171</ele>
        <time>2016-09-08T08:45:12Z</time>
      </trkpt>
      <trkpt lat="45.92454" lon="4.74648">
        <ele>171</ele>
        <time>2016-09-08T08:45:13Z</time>
      </trkpt>
      <trkpt lat="45.9245" lon="4.74654">
        <ele>171</ele>
        <time>2016-09-08T08:45:14Z</time>
      </trkpt>
      <trkpt lat="45.92446" lon="4.74661">
        <ele>171</ele>
        <time>2016-09-08T08:45:15Z</time>
      </trkpt>
      <trkpt lat="45.92442" lon="4.74668">
        <ele>171</ele>
        <time>2016-09-08T08:45:16Z</time>
      </trkpt>
      <trkpt lat="45.92439" lon="4.74674">
        <ele>171</ele>
        <time>2016-09-08T08:45:17Z</time>
      </trkpt>
      <trkpt lat="45.92435" lon="4.74681">
        <ele>171</ele>
        <time>2016-09-08T08:45:18Z</time>
      </trkpt>
      <trkpt lat="45.92432" lon="4.74689">
        <ele>171</ele>
        <time>2016-09-08T08:45:19Z</time>
      </trkpt>
      <trkpt lat="45.92429" lon="4.74696">
        <ele>171</ele>
        <time>2016-09-08T08:45:20Z</time>
      </trkpt>
      <trkpt lat="45.92427" lon="4.74704">
        <ele>171</ele>
        <time>2016-09-08T08:45:21Z</time>
      </trkpt>
      <trkpt lat="45.92424" lon="4.74712">
        <ele>171</ele>
        <time>2016-09-08T08:45:22Z</time>
      </trkpt>
      <trkpt lat="45.92422" lon="4.7472">
        <ele>171</ele>
        <time>2016-09-08T08:45:23Z</time>
      </trkpt>
      <trkpt lat="45.92419" lon="4.74729">
        <ele>171</ele>
        <time>2016-09-08T08:45:24Z</time>
      </trkpt>
      <trkpt lat="45.92416" lon="4.74738">
        <ele>172</ele>
        <time>2016-09-08T08:45:25Z</time>
      </trkpt>
      <trkpt lat="45.92414" lon="4.74747">
        <ele>172</ele>
        <time>2016-09-08T08:45:26Z</time>
      </trkpt>
      <trkpt lat="45.92411" lon="4.74755">
        <ele>172</ele>
        <time>2016-09-08T08:45:27Z</time>
      </trkpt>
      <trkpt lat="45.92409" lon="4.74764">
        <ele>172</ele>
        <time>2016-09-08T08:45:28Z</time>
      </trkpt>
      <trkpt lat="45.92407" lon="4.74773">
        <ele>171</ele>
        <time>2016-09-08T08:45:29Z</time>
      </trkpt>
      <trkpt lat="45.92405" lon="4.74782">
        <ele>171</ele>
        <time>2016-09-08T08:45:30Z</time>
      </trkpt>
      <trkpt lat="45.92403" lon="4.74791">
        <ele>171</ele>
        <time>2016-09-08T08:45:31Z</time>
      </trkpt>
      <trkpt lat="45.92402" lon="4.74801">
        <ele>171</ele>
        <time>2016-09-08T08:45:32Z</time>
      </trkpt>
      <trkpt lat="45.92401" lon="4.74812">
        <ele>171</ele>
        <time>2016-09-08T08:45:33Z</time>
      </trkpt>
      <trkpt lat="45.92399" lon="4.74822">
        <ele>171</ele>
        <time>2016-09-08T08:45:34Z</time>
      </trkpt>
      <trkpt lat="45.92397" lon="4.74831">
        <ele>171</ele>
        <time>2016-09-08T08:45:35Z</time>
      </trkpt>
      <trkpt lat="45.92395" lon="4.7484">
        <ele>171</ele>
        <time>2016-09-08T08:45:36Z</time>
      </trkpt>
      <trkpt lat="45.92392" lon="4.7485">
        <ele>171</ele>
        <time>2016-09-08T08:45:37Z</time>
      </trkpt>
      <trkpt lat="45.92389" lon="4.74858">
        <ele>171</ele>
        <time>2016-09-08T08:45:38Z</time>
      </trkpt>
      <trkpt lat="45.92386" lon="4.74866">
        <ele>171</ele>
        <time>2016-09-08T08:45:39Z</time>
      </trkpt>
      <trkpt lat="45.92383" lon="4.74875">
        <ele>171</ele>
        <time>2016-09-08T08:45:40Z</time>
      </trkpt>
      <trkpt lat="45.9238" lon="4.74883">
        <ele>171</ele>
        <time>2016-09-08T08:45:41Z</time>
      </trkpt>
      <trkpt lat="45.92376" lon="4.74892">
        <ele>171</ele>
        <time>2016-09-08T08:45:42Z</time>
      </trkpt>
      <trkpt lat="45.92373" lon="4.749">
        <ele>171</ele>
        <time>2016-09-08T08:45:43Z</time>
      </trkpt>
      <trkpt lat="45.9237" lon="4.74909">
        <ele>171</ele>
        <time>2016-09-08T08:45:44Z</time>
      </trkpt>
      <trkpt lat="45.92367" lon="4.74917">
        <ele>170</ele>
        <time>2016-09-08T08:45:45Z</time>
      </trkpt>
      <trkpt lat="45.92363" lon="4.74926">
        <ele>170</ele>
        <time>2016-09-08T08:45:46Z</time>
      </trkpt>
      <trkpt lat="45.9236" lon="4.74934">
        <ele>170</ele>
        <time>2016-09-08T08:45:47Z</time>
      </trkpt>
      <trkpt lat="45.92357" lon="4.74942">
        <ele>170</ele>
        <time>2016-09-08T08:45:48Z</time>
      </trkpt>
      <trkpt lat="45.92353" lon="4.7495">
        <ele>170</ele>
        <time>2016-09-08T08:45:49Z</time>
      </trkpt>
      <trkpt lat="45.9235" lon="4.74958">
        <ele>170</ele>
        <time>2016-09-08T08:45:50Z</time>
      </trkpt>
      <trkpt lat="45.92347" lon="4.74965">
        <ele>170</ele>
        <time>2016-09-08T08:45:51Z</time>
      </trkpt>
      <trkpt lat="45.92344" lon="4.74973">
        <ele>170</ele>
        <time>2016-09-08T08:45:52Z</time>
      </trkpt>
      <trkpt lat="45.92342" lon="4.7498">
        <ele>170</ele>
        <time>2016-09-08T08:45:53Z</time>
      </trkpt>
      <trkpt lat="45.92339" lon="4.74988">
        <ele>170</ele>
        <time>2016-09-08T08:45:54Z</time>
      </trkpt>
      <trkpt lat="45.92336" lon="4.74996">
        <ele>170</ele>
        <time>2016-09-08T08:45:55Z</time>
      </trkpt>
      <trkpt lat="45.92332" lon="4.75003">
        <ele>170</ele>
        <time>2016-09-08T08:45:56Z</time>
      </trkpt>
      <trkpt lat="45.92328" lon="4.75011">
        <ele>171</ele>
        <time>2016-09-08T08:45:57Z</time>
      </trkpt>
      <trkpt lat="45.92325" lon="4.75018">
        <ele>171</ele>
        <time>2016-09-08T08:45:58Z</time>
      </trkpt>
      <trkpt lat="45.92321" lon="4.75025">
        <ele>171</ele>
        <time>2016-09-08T08:45:59Z</time>
      </trkpt>
      <trkpt lat="45.92317" lon="4.75032">
        <ele>171</ele>
        <time>2016-09-08T08:46:00Z</time>
      </trkpt>
      <trkpt lat="45.92313" lon="4.75038">
        <ele>172</ele>
        <time>2016-09-08T08:46:01Z</time>
      </trkpt>
      <trkpt lat="45.92309" lon="4.75044">
        <ele>172</ele>
        <time>2016-09-08T08:46:02Z</time>
      </trkpt>
      <trkpt lat="45.92304" lon="4.7505">
        <ele>172</ele>
        <time>2016-09-08T08:46:03Z</time>
      </trkpt>
      <trkpt lat="45.923" lon="4.75055">
        <ele>172</ele>
        <time>2016-09-08T08:46:04Z</time>
      </trkpt>
      <trkpt lat="45.92295" lon="4.7506">
        <ele>172</ele>
        <time>2016-09-08T08:46:05Z</time>
      </trkpt>
      <trkpt lat="45.9229" lon="4.75066">
        <ele>172</ele>
        <time>2016-09-08T08:46:06Z</time>
      </trkpt>
      <trkpt lat="45.92285" lon="4.75071">
        <ele>172</ele>
        <time>2016-09-08T08:46:07Z</time>
      </trkpt>
      <trkpt lat="45.9228" lon="4.75076">
        <ele>172</ele>
        <time>2016-09-08T08:46:08Z</time>
      </trkpt>
      <trkpt lat="45.92275" lon="4.75081">
        <ele>172</ele>
        <time>2016-09-08T08:46:09Z</time>
      </trkpt>
      <trkpt lat="45.92269" lon="4.75087">
        <ele>173</ele>
        <time>2016-09-08T08:46:10Z</time>
      </trkpt>
      <trkpt lat="45.92264" lon="4.75092">
        <ele>173</ele>
        <time>2016-09-08T08:46:11Z</time>
      </trkpt>
      <trkpt lat="45.92259" lon="4.75097">
        <ele>173</ele>
        <time>2016-09-08T08:46:12Z</time>
      </trkpt>
      <trkpt lat="45.92254" lon="4.75103">
        <ele>173</ele>
        <time>2016-09-08T08:46:13Z</time>
      </trkpt>
      <trkpt lat="45.9225" lon="4.75109">
        <ele>174</ele>
        <time>2016-09-08T08:46:14Z</time>
      </trkpt>
      <trkpt lat="45.92246" lon="4.75115">
        <ele>174</ele>
        <time>2016-09-08T08:46:15Z</time>
      </trkpt>
      <trkpt lat="45.92242" lon="4.75121">
        <ele>174</ele>
        <time>2016-09-08T08:46:16Z</time>
      </trkpt>
      <trkpt lat="45.92237" lon="4.75127">
        <ele>174</ele>
        <time>2016-09-08T08:46:17Z</time>
      </trkpt>
      <trkpt lat="45.92233" lon="4.75133">
        <ele>174</ele>
        <time>2016-09-08T08:46:18Z</time>
      </trkpt>
      <trkpt lat="45.9223" lon="4.7514">
        <ele>174</ele>
        <time>2016-09-08T08:46:19Z</time>
      </trkpt>
      <trkpt lat="45.92227" lon="4.75147">
        <ele>174</ele>
        <time>2016-09-08T08:46:20Z</time>
      </trkpt>
      <trkpt lat="45.92224" lon="4.75155">
        <ele>174</ele>
        <time>2016-09-08T08:46:21Z</time>
      </trkpt>
      <trkpt lat="45.92221" lon="4.75163">
        <ele>174</ele>
        <time>2016-09-08T08:46:22Z</time>
      </trkpt>
      <trkpt lat="45.92219" lon="4.75171">
        <ele>175</ele>
        <time>2016-09-08T08:46:23Z</time>
      </trkpt>
      <trkpt lat="45.92216" lon="4.75179">
        <ele>175</ele>
        <time>2016-09-08T08:46:24Z</time>
      </trkpt>
      <trkpt lat="45.92214" lon="4.75186">
        <ele>175</ele>
        <time>2016-09-08T08:46:25Z</time>
      </trkpt>
      <trkpt lat="45.92213" lon="4.75194">
        <ele>175</ele>
        <time>2016-09-08T08:46:26Z</time>
      </trkpt>
      <trkpt lat="45.92212" lon="4.75203">
        <ele>175</ele>
        <time>2016-09-08T08:46:27Z</time>
      </trkpt>
      <trkpt lat="45.92211" lon="4.75211">
        <ele>175</ele>
        <time>2016-09-08T08:46:28Z</time>
      </trkpt>
      <trkpt lat="45.92211" lon="4.7522">
        <ele>175</ele>
        <time>2016-09-08T08:46:29Z</time>
      </trkpt>
      <trkpt lat="45.92211" lon="4.75228">
        <ele>175</ele>
        <time>2016-09-08T08:46:30Z</time>
      </trkpt>
      <trkpt lat="45.92211" lon="4.75235">
        <ele>175</ele>
        <time>2016-09-08T08:46:31Z</time>
      </trkpt>
      <trkpt lat="45.92211" lon="4.75243">
        <ele>175</ele>
        <time>2016-09-08T08:46:32Z</time>
      </trkpt>
      <trkpt lat="45.9221" lon="4.75251">
        <ele>175</ele>
        <time>2016-09-08T08:46:33Z</time>
      </trkpt>
      <trkpt lat="45.9221" lon="4.75259">
        <ele>175</ele>
        <time>2016-09-08T08:46:34Z</time>
      </trkpt>
      <trkpt lat="45.92208" lon="4.75268">
        <ele>176</ele>
        <time>2016-09-08T08:46:35Z</time>
      </trkpt>
      <trkpt lat="45.92207" lon="4.75277">
        <ele>176</ele>
        <time>2016-09-08T08:46:36Z</time>
      </trkpt>
      <trkpt lat="45.92208" lon="4.75286">
        <ele>176</ele>
        <time>2016-09-08T08:46:37Z</time>
      </trkpt>
      <trkpt lat="45.92207" lon="4.75294">
        <ele>176</ele>
        <time>2016-09-08T08:46:38Z</time>
      </trkpt>
      <trkpt lat="45.92207" lon="4.75302">
        <ele>176</ele>
        <time>2016-09-08T08:46:39Z</time>
      </trkpt>
      <trkpt lat="45.92206" lon="4.7531">
        <ele>176</ele>
        <time>2016-09-08T08:46:40Z</time>
      </trkpt>
      <trkpt lat="45.92205" lon="4.75317">
        <ele>176</ele>
        <time>2016-09-08T08:46:41Z</time>
      </trkpt>
      <trkpt lat="45.92204" lon="4.75324">
        <ele>176</ele>
        <time>2016-09-08T08:46:42Z</time>
      </trkpt>
      <trkpt lat="45.92203" lon="4.75332">
        <ele>176</ele>
        <time>2016-09-08T08:46:43Z</time>
      </trkpt>
      <trkpt lat="45.92202" lon="4.75339">
        <ele>177</ele>
        <time>2016-09-08T08:46:44Z</time>
      </trkpt>
      <trkpt lat="45.922" lon="4.75346">
        <ele>177</ele>
        <time>2016-09-08T08:46:45Z</time>
      </trkpt>
      <trkpt lat="45.92198" lon="4.75354">
        <ele>177</ele>
        <time>2016-09-08T08:46:46Z</time>
      </trkpt>
      <trkpt lat="45.92196" lon="4.75361">
        <ele>177</ele>
        <time>2016-09-08T08:46:47Z</time>
      </trkpt>
      <trkpt lat="45.92194" lon="4.75368">
        <ele>177</ele>
        <time>2016-09-08T08:46:48Z</time>
      </trkpt>
      <trkpt lat="45.92191" lon="4.75376">
        <ele>177</ele>
        <time>2016-09-08T08:46:49Z</time>
      </trkpt>
      <trkpt lat="45.92188" lon="4.75383">
        <ele>177</ele>
        <time>2016-09-08T08:46:50Z</time>
      </trkpt>
      <trkpt lat="45.92186" lon="4.7539">
        <ele>177</ele>
        <time>2016-09-08T08:46:51Z</time>
      </trkpt>
      <trkpt lat="45.92183" lon="4.75398">
        <ele>177</ele>
        <time>2016-09-08T08:46:52Z</time>
      </trkpt>
      <trkpt lat="45.9218" lon="4.75405">
        <ele>177</ele>
        <time>2016-09-08T08:46:53Z</time>
      </trkpt>
      <trkpt lat="45.92178" lon="4.75413">
        <ele>177</ele>
        <time>2016-09-08T08:46:54Z</time>
      </trkpt>
      <trkpt lat="45.92175" lon="4.75421">
        <ele>177</ele>
        <time>2016-09-08T08:46:55Z</time>
      </trkpt>
      <trkpt lat="45.92171" lon="4.75428">
        <ele>177</ele>
        <time>2016-09-08T08:46:56Z</time>
      </trkpt>
      <trkpt lat="45.92169" lon="4.75436">
        <ele>177</ele>
        <time>2016-09-08T08:46:57Z</time>
      </trkpt>
      <trkpt lat="45.92166" lon="4.75444">
        <ele>177</ele>
        <time>2016-09-08T08:46:58Z</time>
      </trkpt>
      <trkpt lat="45.92163" lon="4.75452">
        <ele>176</ele>
        <time>2016-09-08T08:46:59Z</time>
      </trkpt>
      <trkpt lat="45.92159" lon="4.75459">
        <ele>176</ele>
        <time>2016-09-08T08:47:00Z</time>
      </trkpt>
      <trkpt lat="45.92156" lon="4.75466">
        <ele>176</ele>
        <time>2016-09-08T08:47:01Z</time>
      </trkpt>
      <trkpt lat="45.92153" lon="4.75474">
        <ele>176</ele>
        <time>2016-09-08T08:47:02Z</time>
      </trkpt>
      <trkpt lat="45.9215" lon="4.7548">
        <ele>176</ele>
        <time>2016-09-08T08:47:03Z</time>
      </trkpt>
      <trkpt lat="45.92146" lon="4.75487">
        <ele>176</ele>
        <time>2016-09-08T08:47:04Z</time>
      </trkpt>
      <trkpt lat="45.92143" lon="4.75493">
        <ele>176</ele>
        <time>2016-09-08T08:47:05Z</time>
      </trkpt>
      <trkpt lat="45.9214" lon="4.75501">
        <ele>174</ele>
        <time>2016-09-08T08:47:06Z</time>
      </trkpt>
      <trkpt lat="45.92138" lon="4.75507">
        <ele>174</ele>
        <time>2016-09-08T08:47:07Z</time>
      </trkpt>
      <trkpt lat="45.92135" lon="4.75513">
        <ele>174</ele>
        <time>2016-09-08T08:47:08Z</time>
      </trkpt>
      <trkpt lat="45.92131" lon="4.7552">
        <ele>174</ele>
        <time>2016-09-08T08:47:09Z</time>
      </trkpt>
      <trkpt lat="45.92127" lon="4.75527">
        <ele>174</ele>
        <time>2016-09-08T08:47:10Z</time>
      </trkpt>
      <trkpt lat="45.92123" lon="4.75534">
        <ele>174</ele>
        <time>2016-09-08T08:47:11Z</time>
      </trkpt>
      <trkpt lat="45.9212" lon="4.75541">
        <ele>174</ele>
        <time>2016-09-08T08:47:12Z</time>
      </trkpt>
      <trkpt lat="45.92116" lon="4.75548">
        <ele>174</ele>
        <time>2016-09-08T08:47:13Z</time>
      </trkpt>
      <trkpt lat="45.92112" lon="4.75556">
        <ele>174</ele>
        <time>2016-09-08T08:47:14Z</time>
      </trkpt>
      <trkpt lat="45.92108" lon="4.75563">
        <ele>174</ele>
        <time>2016-09-08T08:47:15Z</time>
      </trkpt>
      <trkpt lat="45.92104" lon="4.7557">
        <ele>174</ele>
        <time>2016-09-08T08:47:16Z</time>
      </trkpt>
      <trkpt lat="45.92101" lon="4.75577">
        <ele>174</ele>
        <time>2016-09-08T08:47:17Z</time>
      </trkpt>
      <trkpt lat="45.92097" lon="4.75584">
        <ele>174</ele>
        <time>2016-09-08T08:47:18Z</time>
      </trkpt>
      <trkpt lat="45.92092" lon="4.75591">
        <ele>174</ele>
        <time>2016-09-08T08:47:19Z</time>
      </trkpt>
      <trkpt lat="45.92088" lon="4.75598">
        <ele>174</ele>
        <time>2016-09-08T08:47:20Z</time>
      </trkpt>
      <trkpt lat="45.92084" lon="4.75605">
        <ele>174</ele>
        <time>2016-09-08T08:47:21Z</time>
      </trkpt>
      <trkpt lat="45.92079" lon="4.75613">
        <ele>175</ele>
        <time>2016-09-08T08:47:22Z</time>
      </trkpt>
      <trkpt lat="45.92075" lon="4.7562">
        <ele>175</ele>
        <time>2016-09-08T08:47:23Z</time>
      </trkpt>
      <trkpt lat="45.92071" lon="4.75627">
        <ele>175</ele>
        <time>2016-09-08T08:47:24Z</time>
      </trkpt>
      <trkpt lat="45.92067" lon="4.75635">
        <ele>175</ele>
        <time>2016-09-08T08:47:25Z</time>
      </trkpt>
      <trkpt lat="45.92063" lon="4.75642">
        <ele>175</ele>
        <time>2016-09-08T08:47:26Z</time>
      </trkpt>
      <trkpt lat="45.92059" lon="4.7565">
        <ele>175</ele>
        <time>2016-09-08T08:47:27Z</time>
      </trkpt>
      <trkpt lat="45.92055" lon="4.75658">
        <ele>175</ele>
        <time>2016-09-08T08:47:28Z</time>
      </trkpt>
      <trkpt lat="45.9205" lon="4.75666">
        <ele>175</ele>
        <time>2016-09-08T08:47:29Z</time>
      </trkpt>
      <trkpt lat="45.92046" lon="4.75673">
        <ele>175</ele>
        <time>2016-09-08T08:47:30Z</time>
      </trkpt>
      <trkpt lat="45.92043" lon="4.7568">
        <ele>175</ele>
        <time>2016-09-08T08:47:31Z</time>
      </trkpt>
      <trkpt lat="45.92039" lon="4.75687">
        <ele>175</ele>
        <time>2016-09-08T08:47:32Z</time>
      </trkpt>
      <trkpt lat="45.92035" lon="4.75694">
        <ele>175</ele>
        <time>2016-09-08T08:47:33Z</time>
      </trkpt>
      <trkpt lat="45.92032" lon="4.757">
        <ele>175</ele>
        <time>2016-09-08T08:47:34Z</time>
      </trkpt>
      <trkpt lat="45.92028" lon="4.75707">
        <ele>175</ele>
        <time>2016-09-08T08:47:35Z</time>
      </trkpt>
      <trkpt lat="45.92024" lon="4.75713">
        <ele>175</ele>
        <time>2016-09-08T08:47:36Z</time>
      </trkpt>
      <trkpt lat="45.92021" lon="4.75719">
        <ele>175</ele>
        <time>2016-09-08T08:47:37Z</time>
      </trkpt>
      <trkpt lat="45.92017" lon="4.75725">
        <ele>175</ele>
        <time>2016-09-08T08:47:38Z</time>
      </trkpt>
      <trkpt lat="45.92013" lon="4.75731">
        <ele>175</ele>
        <time>2016-09-08T08:47:39Z</time>
      </trkpt>
      <trkpt lat="45.92009" lon="4.75738">
        <ele>174</ele>
        <time>2016-09-08T08:47:40Z</time>
      </trkpt>
      <trkpt lat="45.92005" lon="4.75744">
        <ele>174</ele>
        <time>2016-09-08T08:47:41Z</time>
      </trkpt>
      <trkpt lat="45.92001" lon="4.75751">
        <ele>174</ele>
        <time>2016-09-08T08:47:42Z</time>
      </trkpt>
      <trkpt lat="45.91997" lon="4.75757">
        <ele>174</ele>
        <time>2016-09-08T08:47:43Z</time>
      </trkpt>
      <trkpt lat="45.91993" lon="4.75763">
        <ele>174</ele>
        <time>2016-09-08T08:47:44Z</time>
      </trkpt>
      <trkpt lat="45.91989" lon="4.7577">
        <ele>174</ele>
        <time>2016-09-08T08:47:45Z</time>
      </trkpt>
      <trkpt lat="45.91986" lon="4.75778">
        <ele>174</ele>
        <time>2016-09-08T08:47:46Z</time>
      </trkpt>
      <trkpt lat="45.91982" lon="4.75785">
        <ele>173</ele>
        <time>2016-09-08T08:47:47Z</time>
      </trkpt>
      <trkpt lat="45.91979" lon="4.75792">
        <ele>173</ele>
        <time>2016-09-08T08:47:48Z</time>
      </trkpt>
      <trkpt lat="45.91975" lon="4.75799">
        <ele>173</ele>
        <time>2016-09-08T08:47:49Z</time>
      </trkpt>
      <trkpt lat="45.91971" lon="4.75806">
        <ele>173</ele>
        <time>2016-09-08T08:47:50Z</time>
      </trkpt>
      <trkpt lat="45.91968" lon="4.75813">
        <ele>173</ele>
        <time>2016-09-08T08:47:51Z</time>
      </trkpt>
      <trkpt lat="45.91964" lon="4.7582">
        <ele>173</ele>
        <time>2016-09-08T08:47:52Z</time>
      </trkpt>
      <trkpt lat="45.9196" lon="4.75827">
        <ele>173</ele>
        <time>2016-09-08T08:47:53Z</time>
      </trkpt>
      <trkpt lat="45.91956" lon="4.75833">
        <ele>173</ele>
        <time>2016-09-08T08:47:54Z</time>
      </trkpt>
      <trkpt lat="45.91952" lon="4.75841">
        <ele>172</ele>
        <time>2016-09-08T08:47:55Z</time>
      </trkpt>
      <trkpt lat="45.91948" lon="4.75848">
        <ele>172</ele>
        <time>2016-09-08T08:47:56Z</time>
      </trkpt>
      <trkpt lat="45.91944" lon="4.75855">
        <ele>172</ele>
        <time>2016-09-08T08:47:57Z</time>
      </trkpt>
      <trkpt lat="45.91941" lon="4.75862">
        <ele>172</ele>
        <time>2016-09-08T08:47:58Z</time>
      </trkpt>
      <trkpt lat="45.91937" lon="4.75869">
        <ele>172</ele>
        <time>2016-09-08T08:47:59Z</time>
      </trkpt>
      <trkpt lat="45.91934" lon="4.75875">
        <ele>172</ele>
        <time>2016-09-08T08:48:00Z</time>
      </trkpt>
      <trkpt lat="45.91931" lon="4.75882">
        <ele>172</ele>
        <time>2016-09-08T08:48:01Z</time>
      </trkpt>
      <trkpt lat="45.91928" lon="4.7589">
        <ele>172</ele>
        <time>2016-09-08T08:48:02Z</time>
      </trkpt>
      <trkpt lat="45.91926" lon="4.75897">
        <ele>172</ele>
        <time>2016-09-08T08:48:03Z</time>
      </trkpt>
      <trkpt lat="45.91923" lon="4.75904">
        <ele>172</ele>
        <time>2016-09-08T08:48:04Z</time>
      </trkpt>
      <trkpt lat="45.91921" lon="4.75911">
        <ele>172</ele>
        <time>2016-09-08T08:48:05Z</time>
      </trkpt>
      <trkpt lat="45.91918" lon="4.75919">
        <ele>172</ele>
        <time>2016-09-08T08:48:06Z</time>
      </trkpt>
      <trkpt lat="45.91916" lon="4.75926">
        <ele>173</ele>
        <time>2016-09-08T08:48:07Z</time>
      </trkpt>
      <trkpt lat="45.91915" lon="4.75934">
        <ele>173</ele>
        <time>2016-09-08T08:48:08Z</time>
      </trkpt>
      <trkpt lat="45.91913" lon="4.75942">
        <ele>173</ele>
        <time>2016-09-08T08:48:09Z</time>
      </trkpt>
      <trkpt lat="45.91911" lon="4.75949">
        <ele>173</ele>
        <time>2016-09-08T08:48:10Z</time>
      </trkpt>
      <trkpt lat="45.91909" lon="4.75956">
        <ele>173</ele>
        <time>2016-09-08T08:48:11Z</time>
      </trkpt>
      <trkpt lat="45.91907" lon="4.75964">
        <ele>173</ele>
        <time>2016-09-08T08:48:12Z</time>
      </trkpt>
      <trkpt lat="45.91905" lon="4.75972">
        <ele>173</ele>
        <time>2016-09-08T08:48:13Z</time>
      </trkpt>
      <trkpt lat="45.91903" lon="4.75981">
        <ele>173</ele>
        <time>2016-09-08T08:48:14Z</time>
      </trkpt>
      <trkpt lat="45.919" lon="4.75989">
        <ele>173</ele>
        <time>2016-09-08T08:48:15Z</time>
      </trkpt>
      <trkpt lat="45.91899" lon="4.75997">
        <ele>173</ele>
        <time>2016-09-08T08:48:16Z</time>
      </trkpt>
      <trkpt lat="45.91897" lon="4.76005">
        <ele>173</ele>
        <time>2016-09-08T08:48:17Z</time>
      </trkpt>
      <trkpt lat="45.91895" lon="4.76013">
        <ele>173</ele>
        <time>2016-09-08T08:48:18Z</time>
      </trkpt>
      <trkpt lat="45.91893" lon="4.76021">
        <ele>173</ele>
        <time>2016-09-08T08:48:19Z</time>
      </trkpt>
      <trkpt lat="45.91891" lon="4.76029">
        <ele>173</ele>
        <time>2016-09-08T08:48:20Z</time>
      </trkpt>
      <trkpt lat="45.91889" lon="4.76037">
        <ele>173</ele>
        <time>2016-09-08T08:48:21Z</time>
      </trkpt>
      <trkpt lat="45.91887" lon="4.76044">
        <ele>173</ele>
        <time>2016-09-08T08:48:22Z</time>
      </trkpt>
      <trkpt lat="45.91885" lon="4.76052">
        <ele>173</ele>
        <time>2016-09-08T08:48:23Z</time>
      </trkpt>
      <trkpt lat="45.91882" lon="4.76061">
        <ele>173</ele>
        <time>2016-09-08T08:48:24Z</time>
      </trkpt>
      <trkpt lat="45.9188" lon="4.76069">
        <ele>173</ele>
        <time>2016-09-08T08:48:25Z</time>
      </trkpt>
      <trkpt lat="45.91878" lon="4.76077">
        <ele>173</ele>
        <time>2016-09-08T08:48:26Z</time>
      </trkpt>
      <trkpt lat="45.91876" lon="4.76085">
        <ele>173</ele>
        <time>2016-09-08T08:48:27Z</time>
      </trkpt>
      <trkpt lat="45.91874" lon="4.76093">
        <ele>173</ele>
        <time>2016-09-08T08:48:28Z</time>
      </trkpt>
      <trkpt lat="45.91872" lon="4.76102">
        <ele>173</ele>
        <time>2016-09-08T08:48:29Z</time>
      </trkpt>
      <trkpt lat="45.91869" lon="4.7611">
        <ele>173</ele>
        <time>2016-09-08T08:48:30Z</time>
      </trkpt>
      <trkpt lat="45.91867" lon="4.76119">
        <ele>173</ele>
        <time>2016-09-08T08:48:31Z</time>
      </trkpt>
      <trkpt lat="45.91865" lon="4.76128">
        <ele>173</ele>
        <time>2016-09-08T08:48:32Z</time>
      </trkpt>
      <trkpt lat="45.91863" lon="4.76137">
        <ele>173</ele>
        <time>2016-09-08T08:48:33Z</time>
      </trkpt>
      <trkpt lat="45.91861" lon="4.76145">
        <ele>173</ele>
        <time>2016-09-08T08:48:34Z</time>
      </trkpt>
      <trkpt lat="45.91858" lon="4.76155">
        <ele>173</ele>
        <time>2016-09-08T08:48:35Z</time>
      </trkpt>
      <trkpt lat="45.91856" lon="4.76164">
        <ele>173</ele>
        <time>2016-09-08T08:48:36Z</time>
      </trkpt>
      <trkpt lat="45.91854" lon="4.76173">
        <ele>172</ele>
        <time>2016-09-08T08:48:37Z</time>
      </trkpt>
      <trkpt lat="45.91852" lon="4.76182">
        <ele>172</ele>
        <time>2016-09-08T08:48:38Z</time>
      </trkpt>
      <trkpt lat="45.91849" lon="4.76192">
        <ele>172</ele>
        <time>2016-09-08T08:48:39Z</time>
      </trkpt>
      <trkpt lat="45.91847" lon="4.76201">
        <ele>172</ele>
        <time>2016-09-08T08:48:40Z</time>
      </trkpt>
      <trkpt lat="45.91844" lon="4.7621">
        <ele>172</ele>
        <time>2016-09-08T08:48:41Z</time>
      </trkpt>
      <trkpt lat="45.91842" lon="4.76219">
        <ele>172</ele>
        <time>2016-09-08T08:48:42Z</time>
      </trkpt>
      <trkpt lat="45.91839" lon="4.76228">
        <ele>172</ele>
        <time>2016-09-08T08:48:43Z</time>
      </trkpt>
      <trkpt lat="45.91837" lon="4.76237">
        <ele>173</ele>
        <time>2016-09-08T08:48:44Z</time>
      </trkpt>
      <trkpt lat="45.91834" lon="4.76246">
        <ele>173</ele>
        <time>2016-09-08T08:48:45Z</time>
      </trkpt>
      <trkpt lat="45.91832" lon="4.76254">
        <ele>173</ele>
        <time>2016-09-08T08:48:46Z</time>
      </trkpt>
      <trkpt lat="45.91829" lon="4.76263">
        <ele>174</ele>
        <time>2016-09-08T08:48:47Z</time>
      </trkpt>
      <trkpt lat="45.91827" lon="4.76272">
        <ele>174</ele>
        <time>2016-09-08T08:48:48Z</time>
      </trkpt>
      <trkpt lat="45.91824" lon="4.76281">
        <ele>174</ele>
        <time>2016-09-08T08:48:49Z</time>
      </trkpt>
      <trkpt lat="45.91822" lon="4.7629">
        <ele>174</ele>
        <time>2016-09-08T08:48:50Z</time>
      </trkpt>
      <trkpt lat="45.91819" lon="4.76299">
        <ele>174</ele>
        <time>2016-09-08T08:48:51Z</time>
      </trkpt>
      <trkpt lat="45.91817" lon="4.76308">
        <ele>174</ele>
        <time>2016-09-08T08:48:52Z</time>
      </trkpt>
      <trkpt lat="45.91815" lon="4.76317">
        <ele>174</ele>
        <time>2016-09-08T08:48:53Z</time>
      </trkpt>
      <trkpt lat="45.91813" lon="4.76325">
        <ele>174</ele>
        <time>2016-09-08T08:48:54Z</time>
      </trkpt>
      <trkpt lat="45.91811" lon="4.76335">
        <ele>174</ele>
        <time>2016-09-08T08:48:55Z</time>
      </trkpt>
      <trkpt lat="45.9181" lon="4.76344">
        <ele>174</ele>
        <time>2016-09-08T08:48:56Z</time>
      </trkpt>
      <trkpt lat="45.91809" lon="4.76354">
        <ele>174</ele>
        <time>2016-09-08T08:48:57Z</time>
      </trkpt>
      <trkpt lat="45.91808" lon="4.76364">
        <ele>174</ele>
        <time>2016-09-08T08:48:58Z</time>
      </trkpt>
      <trkpt lat="45.91807" lon="4.76374">
        <ele>174</ele>
        <time>2016-09-08T08:48:59Z</time>
      </trkpt>
      <trkpt lat="45.91806" lon="4.76383">
        <ele>174</ele>
        <time>2016-09-08T08:49:00Z</time>
      </trkpt>
      <trkpt lat="45.91806" lon="4.76393">
        <ele>174</ele>
        <time>2016-09-08T08:49:01Z</time>
      </trkpt>
      <trkpt lat="45.91805" lon="4.76402">
        <ele>174</ele>
        <time>2016-09-08T08:49:02Z</time>
      </trkpt>
      <trkpt lat="45.91804" lon="4.76411">
        <ele>173</ele>
        <time>2016-09-08T08:49:03Z</time>
      </trkpt>
      <trkpt lat="45.91803" lon="4.76421">
        <ele>173</ele>
        <time>2016-09-08T08:49:04Z</time>
      </trkpt>
      <trkpt lat="45.91803" lon="4.76429">
        <ele>173</ele>
        <time>2016-09-08T08:49:05Z</time>
      </trkpt>
      <trkpt lat="45.91802" lon="4.76438">
        <ele>173</ele>
        <time>2016-09-08T08:49:06Z</time>
      </trkpt>
      <trkpt lat="45.91802" lon="4.76447">
        <ele>173</ele>
        <time>2016-09-08T08:49:07Z</time>
      </trkpt>
      <trkpt lat="45.91801" lon="4.76456">
        <ele>173</ele>
        <time>2016-09-08T08:49:08Z</time>
      </trkpt>
      <trkpt lat="45.918" lon="4.76466">
        <ele>173</ele>
        <time>2016-09-08T08:49:09Z</time>
      </trkpt>
      <trkpt lat="45.918" lon="4.76475">
        <ele>173</ele>
        <time>2016-09-08T08:49:10Z</time>
      </trkpt>
      <trkpt lat="45.91799" lon="4.76485">
        <ele>173</ele>
        <time>2016-09-08T08:49:11Z</time>
      </trkpt>
      <trkpt lat="45.91798" lon="4.76494">
        <ele>173</ele>
        <time>2016-09-08T08:49:12Z</time>
      </trkpt>
      <trkpt lat="45.91798" lon="4.76503">
        <ele>173</ele>
        <time>2016-09-08T08:49:13Z</time>
      </trkpt>
      <trkpt lat="45.91797" lon="4.76513">
        <ele>173</ele>
        <time>2016-09-08T08:49:14Z</time>
      </trkpt>
      <trkpt lat="45.91797" lon="4.76522">
        <ele>173</ele>
        <time>2016-09-08T08:49:15Z</time>
      </trkpt>
      <trkpt lat="45.91796" lon="4.76532">
        <ele>173</ele>
        <time>2016-09-08T08:49:16Z</time>
      </trkpt>
      <trkpt lat="45.91795" lon="4.76542">
        <ele>173</ele>
        <time>2016-09-08T08:49:17Z</time>
      </trkpt>
      <trkpt lat="45.91794" lon="4.76551">
        <ele>173</ele>
        <time>2016-09-08T08:49:18Z</time>
      </trkpt>
      <trkpt lat="45.91794" lon="4.76561">
        <ele>173</ele>
        <time>2016-09-08T08:49:19Z</time>
      </trkpt>
      <trkpt lat="45.91793" lon="4.7657">
        <ele>173</ele>
        <time>2016-09-08T08:49:20Z</time>
      </trkpt>
      <trkpt lat="45.91792" lon="4.76579">
        <ele>173</ele>
        <time>2016-09-08T08:49:21Z</time>
      </trkpt>
      <trkpt lat="45.91792" lon="4.76589">
        <ele>173</ele>
        <time>2016-09-08T08:49:22Z</time>
      </trkpt>
      <trkpt lat="45.91791" lon="4.76599">
        <ele>173</ele>
        <time>2016-09-08T08:49:23Z</time>
      </trkpt>
      <trkpt lat="45.9179" lon="4.76609">
        <ele>173</ele>
        <time>2016-09-08T08:49:24Z</time>
      </trkpt>
      <trkpt lat="45.91789" lon="4.76619">
        <ele>173</ele>
        <time>2016-09-08T08:49:25Z</time>
      </trkpt>
      <trkpt lat="45.91788" lon="4.76629">
        <ele>173</ele>
        <time>2016-09-08T08:49:26Z</time>
      </trkpt>
      <trkpt lat="45.91786" lon="4.76639">
        <ele>173</ele>
        <time>2016-09-08T08:49:27Z</time>
      </trkpt>
      <trkpt lat="45.91785" lon="4.76649">
        <ele>173</ele>
        <time>2016-09-08T08:49:28Z</time>
      </trkpt>
      <trkpt lat="45.91783" lon="4.7666">
        <ele>173</ele>
        <time>2016-09-08T08:49:29Z</time>
      </trkpt>
      <trkpt lat="45.91782" lon="4.7667">
        <ele>172</ele>
        <time>2016-09-08T08:49:30Z</time>
      </trkpt>
      <trkpt lat="45.91781" lon="4.7668">
        <ele>172</ele>
        <time>2016-09-08T08:49:31Z</time>
      </trkpt>
      <trkpt lat="45.9178" lon="4.76691">
        <ele>172</ele>
        <time>2016-09-08T08:49:32Z</time>
      </trkpt>
      <trkpt lat="45.91779" lon="4.76701">
        <ele>172</ele>
        <time>2016-09-08T08:49:33Z</time>
      </trkpt>
      <trkpt lat="45.91777" lon="4.76712">
        <ele>172</ele>
        <time>2016-09-08T08:49:34Z</time>
      </trkpt>
      <trkpt lat="45.91776" lon="4.76722">
        <ele>172</ele>
        <time>2016-09-08T08:49:35Z</time>
      </trkpt>
      <trkpt lat="45.91776" lon="4.76732">
        <ele>172</ele>
        <time>2016-09-08T08:49:36Z</time>
      </trkpt>
      <trkpt lat="45.91775" lon="4.76743">
        <ele>172</ele>
        <time>2016-09-08T08:49:37Z</time>
      </trkpt>
      <trkpt lat="45.91775" lon="4.76753">
        <ele>171</ele>
        <time>2016-09-08T08:49:38Z</time>
      </trkpt>
      <trkpt lat="45.91775" lon="4.76763">
        <ele>171</ele>
        <time>2016-09-08T08:49:39Z</time>
      </trkpt>
      <trkpt lat="45.91774" lon="4.76773">
        <ele>171</ele>
        <time>2016-09-08T08:49:40Z</time>
      </trkpt>
      <trkpt lat="45.91774" lon="4.76783">
        <ele>171</ele>
        <time>2016-09-08T08:49:41Z</time>
      </trkpt>
      <trkpt lat="45.91774" lon="4.76794">
        <ele>171</ele>
        <time>2016-09-08T08:49:42Z</time>
      </trkpt>
      <trkpt lat="45.91775" lon="4.76804">
        <ele>171</ele>
        <time>2016-09-08T08:49:43Z</time>
      </trkpt>
      <trkpt lat="45.91774" lon="4.76815">
        <ele>171</ele>
        <time>2016-09-08T08:49:44Z</time>
      </trkpt>
      <trkpt lat="45.91774" lon="4.76825">
        <ele>171</ele>
        <time>2016-09-08T08:49:45Z</time>
      </trkpt>
      <trkpt lat="45.91774" lon="4.76836">
        <ele>171</ele>
        <time>2016-09-08T08:49:46Z</time>
      </trkpt>
      <trkpt lat="45.91774" lon="4.76847">
        <ele>171</ele>
        <time>2016-09-08T08:49:47Z</time>
      </trkpt>
      <trkpt lat="45.91774" lon="4.76859">
        <ele>170</ele>
        <time>2016-09-08T08:49:48Z</time>
      </trkpt>
      <trkpt lat="45.91774" lon="4.76869">
        <ele>170</ele>
        <time>2016-09-08T08:49:49Z</time>
      </trkpt>
      <trkpt lat="45.91774" lon="4.7688">
        <ele>170</ele>
        <time>2016-09-08T08:49:50Z</time>
      </trkpt>
      <trkpt lat="45.91773" lon="4.76891">
        <ele>170</ele>
        <time>2016-09-08T08:49:51Z</time>
      </trkpt>
      <trkpt lat="45.91772" lon="4.76902">
        <ele>170</ele>
        <time>2016-09-08T08:49:52Z</time>
      </trkpt>
      <trkpt lat="45.91772" lon="4.76913">
        <ele>170</ele>
        <time>2016-09-08T08:49:53Z</time>
      </trkpt>
      <trkpt lat="45.9177" lon="4.76924">
        <ele>170</ele>
        <time>2016-09-08T08:49:54Z</time>
      </trkpt>
      <trkpt lat="45.91769" lon="4.76935">
        <ele>170</ele>
        <time>2016-09-08T08:49:55Z</time>
      </trkpt>
      <trkpt lat="45.91769" lon="4.76945">
        <ele>169</ele>
        <time>2016-09-08T08:49:56Z</time>
      </trkpt>
      <trkpt lat="45.91767" lon="4.76956">
        <ele>169</ele>
        <time>2016-09-08T08:49:57Z</time>
      </trkpt>
      <trkpt lat="45.91766" lon="4.76967">
        <ele>169</ele>
        <time>2016-09-08T08:49:58Z</time>
      </trkpt>
      <trkpt lat="45.91765" lon="4.76977">
        <ele>169</ele>
        <time>2016-09-08T08:49:59Z</time>
      </trkpt>
      <trkpt lat="45.91763" lon="4.76988">
        <ele>169</ele>
        <time>2016-09-08T08:50:00Z</time>
      </trkpt>
      <trkpt lat="45.91762" lon="4.76999">
        <ele>169</ele>
        <time>2016-09-08T08:50:01Z</time>
      </trkpt>
      <trkpt lat="45.91761" lon="4.77009">
        <ele>169</ele>
        <time>2016-09-08T08:50:02Z</time>
      </trkpt>
      <trkpt lat="45.91759" lon="4.77019">
        <ele>169</ele>
        <time>2016-09-08T08:50:03Z</time>
      </trkpt>
      <trkpt lat="45.91758" lon="4.77029">
        <ele>169</ele>
        <time>2016-09-08T08:50:04Z</time>
      </trkpt>
      <trkpt lat="45.91756" lon="4.77039">
        <ele>169</ele>
        <time>2016-09-08T08:50:05Z</time>
      </trkpt>
      <trkpt lat="45.91754" lon="4.77049">
        <ele>169</ele>
        <time>2016-09-08T08:50:06Z</time>
      </trkpt>
      <trkpt lat="45.91753" lon="4.77059">
        <ele>169</ele>
        <time>2016-09-08T08:50:07Z</time>
      </trkpt>
      <trkpt lat="45.91751" lon="4.77069">
        <ele>169</ele>
        <time>2016-09-08T08:50:08Z</time>
      </trkpt>
      <trkpt lat="45.9175" lon="4.77079">
        <ele>169</ele>
        <time>2016-09-08T08:50:09Z</time>
      </trkpt>
      <trkpt lat="45.91748" lon="4.77089">
        <ele>169</ele>
        <time>2016-09-08T08:50:10Z</time>
      </trkpt>
      <trkpt lat="45.91747" lon="4.77099">
        <ele>170</ele>
        <time>2016-09-08T08:50:11Z</time>
      </trkpt>
      <trkpt lat="45.91745" lon="4.77109">
        <ele>170</ele>
        <time>2016-09-08T08:50:12Z</time>
      </trkpt>
      <trkpt lat="45.91744" lon="4.7712">
        <ele>170</ele>
        <time>2016-09-08T08:50:13Z</time>
      </trkpt>
      <trkpt lat="45.91743" lon="4.7713">
        <ele>170</ele>
        <time>2016-09-08T08:50:14Z</time>
      </trkpt>
      <trkpt lat="45.91741" lon="4.77141">
        <ele>170</ele>
        <time>2016-09-08T08:50:15Z</time>
      </trkpt>
      <trkpt lat="45.9174" lon="4.77151">
        <ele>170</ele>
        <time>2016-09-08T08:50:16Z</time>
      </trkpt>
      <trkpt lat="45.91738" lon="4.77161">
        <ele>170</ele>
        <time>2016-09-08T08:50:17Z</time>
      </trkpt>
      <trkpt lat="45.91737" lon="4.77171">
        <ele>170</ele>
        <time>2016-09-08T08:50:18Z</time>
      </trkpt>
      <trkpt lat="45.91735" lon="4.77182">
        <ele>170</ele>
        <time>2016-09-08T08:50:19Z</time>
      </trkpt>
      <trkpt lat="45.91733" lon="4.77192">
        <ele>170</ele>
        <time>2016-09-08T08:50:20Z</time>
      </trkpt>
      <trkpt lat="45.91732" lon="4.77202">
        <ele>170</ele>
        <time>2016-09-08T08:50:21Z</time>
      </trkpt>
      <trkpt lat="45.9173" lon="4.77212">
        <ele>170</ele>
        <time>2016-09-08T08:50:22Z</time>
      </trkpt>
      <trkpt lat="45.91729" lon="4.77221">
        <ele>170</ele>
        <time>2016-09-08T08:50:23Z</time>
      </trkpt>
      <trkpt lat="45.91727" lon="4.77231">
        <ele>170</ele>
        <time>2016-09-08T08:50:24Z</time>
      </trkpt>
      <trkpt lat="45.91726" lon="4.7724">
        <ele>170</ele>
        <time>2016-09-08T08:50:25Z</time>
      </trkpt>
      <trkpt lat="45.91725" lon="4.77249">
        <ele>169</ele>
        <time>2016-09-08T08:50:26Z</time>
      </trkpt>
      <trkpt lat="45.91723" lon="4.77258">
        <ele>170</ele>
        <time>2016-09-08T08:50:27Z</time>
      </trkpt>
      <trkpt lat="45.91722" lon="4.77267">
        <ele>170</ele>
        <time>2016-09-08T08:50:28Z</time>
      </trkpt>
      <trkpt lat="45.9172" lon="4.77277">
        <ele>170</ele>
        <time>2016-09-08T08:50:29Z</time>
      </trkpt>
      <trkpt lat="45.91718" lon="4.77286">
        <ele>170</ele>
        <time>2016-09-08T08:50:30Z</time>
      </trkpt>
      <trkpt lat="45.91716" lon="4.77295">
        <ele>170</ele>
        <time>2016-09-08T08:50:31Z</time>
      </trkpt>
      <trkpt lat="45.91715" lon="4.77304">
        <ele>170</ele>
        <time>2016-09-08T08:50:32Z</time>
      </trkpt>
      <trkpt lat="45.91714" lon="4.77313">
        <ele>170</ele>
        <time>2016-09-08T08:50:33Z</time>
      </trkpt>
      <trkpt lat="45.91712" lon="4.77322">
        <ele>170</ele>
        <time>2016-09-08T08:50:34Z</time>
      </trkpt>
      <trkpt lat="45.91711" lon="4.77331">
        <ele>170</ele>
        <time>2016-09-08T08:50:35Z</time>
      </trkpt>
      <trkpt lat="45.9171" lon="4.77341">
        <ele>171</ele>
        <time>2016-09-08T08:50:36Z</time>
      </trkpt>
      <trkpt lat="45.91708" lon="4.77351">
        <ele>171</ele>
        <time>2016-09-08T08:50:37Z</time>
      </trkpt>
      <trkpt lat="45.91706" lon="4.77361">
        <ele>171</ele>
        <time>2016-09-08T08:50:38Z</time>
      </trkpt>
      <trkpt lat="45.91705" lon="4.7737">
        <ele>171</ele>
        <time>2016-09-08T08:50:39Z</time>
      </trkpt>
      <trkpt lat="45.91703" lon="4.7738">
        <ele>171</ele>
        <time>2016-09-08T08:50:40Z</time>
      </trkpt>
      <trkpt lat="45.91701" lon="4.7739">
        <ele>171</ele>
        <time>2016-09-08T08:50:41Z</time>
      </trkpt>
      <trkpt lat="45.91699" lon="4.77399">
        <ele>171</ele>
        <time>2016-09-08T08:50:42Z</time>
      </trkpt>
      <trkpt lat="45.91697" lon="4.77409">
        <ele>171</ele>
        <time>2016-09-08T08:50:43Z</time>
      </trkpt>
      <trkpt lat="45.91696" lon="4.77419">
        <ele>171</ele>
        <time>2016-09-08T08:50:44Z</time>
      </trkpt>
      <trkpt lat="45.91694" lon="4.77429">
        <ele>171</ele>
        <time>2016-09-08T08:50:45Z</time>
      </trkpt>
      <trkpt lat="45.91693" lon="4.77438">
        <ele>171</ele>
        <time>2016-09-08T08:50:46Z</time>
      </trkpt>
      <trkpt lat="45.91693" lon="4.77447">
        <ele>171</ele>
        <time>2016-09-08T08:50:47Z</time>
      </trkpt>
      <trkpt lat="45.91692" lon="4.77455">
        <ele>171</ele>
        <time>2016-09-08T08:50:48Z</time>
      </trkpt>
      <trkpt lat="45.91691" lon="4.77463">
        <ele>171</ele>
        <time>2016-09-08T08:50:49Z</time>
      </trkpt>
      <trkpt lat="45.91689" lon="4.77471">
        <ele>170</ele>
        <time>2016-09-08T08:50:50Z</time>
      </trkpt>
      <trkpt lat="45.91687" lon="4.77479">
        <ele>170</ele>
        <time>2016-09-08T08:50:51Z</time>
      </trkpt>
      <trkpt lat="45.91686" lon="4.77488">
        <ele>170</ele>
        <time>2016-09-08T08:50:52Z</time>
      </trkpt>
      <trkpt lat="45.91686" lon="4.77497">
        <ele>170</ele>
        <time>2016-09-08T08:50:53Z</time>
      </trkpt>
      <trkpt lat="45.91685" lon="4.77506">
        <ele>170</ele>
        <time>2016-09-08T08:50:54Z</time>
      </trkpt>
      <trkpt lat="45.91685" lon="4.77515">
        <ele>170</ele>
        <time>2016-09-08T08:50:55Z</time>
      </trkpt>
      <trkpt lat="45.91685" lon="4.77524">
        <ele>169</ele>
        <time>2016-09-08T08:50:56Z</time>
      </trkpt>
      <trkpt lat="45.91684" lon="4.77533">
        <ele>169</ele>
        <time>2016-09-08T08:50:57Z</time>
      </trkpt>
      <trkpt lat="45.91682" lon="4.77542">
        <ele>169</ele>
        <time>2016-09-08T08:50:58Z</time>
      </trkpt>
      <trkpt lat="45.9168" lon="4.77551">
        <ele>169</ele>
        <time>2016-09-08T08:50:59Z</time>
      </trkpt>
      <trkpt lat="45.91677" lon="4.7756">
        <ele>169</ele>
        <time>2016-09-08T08:51:00Z</time>
      </trkpt>
      <trkpt lat="45.91675" lon="4.7757">
        <ele>169</ele>
        <time>2016-09-08T08:51:01Z</time>
      </trkpt>
      <trkpt lat="45.91673" lon="4.77579">
        <ele>169</ele>
        <time>2016-09-08T08:51:02Z</time>
      </trkpt>
      <trkpt lat="45.91672" lon="4.77589">
        <ele>169</ele>
        <time>2016-09-08T08:51:03Z</time>
      </trkpt>
      <trkpt lat="45.9167" lon="4.77599">
        <ele>169</ele>
        <time>2016-09-08T08:51:04Z</time>
      </trkpt>
      <trkpt lat="45.91668" lon="4.77609">
        <ele>169</ele>
        <time>2016-09-08T08:51:05Z</time>
      </trkpt>
      <trkpt lat="45.91666" lon="4.77619">
        <ele>170</ele>
        <time>2016-09-08T08:51:06Z</time>
      </trkpt>
      <trkpt lat="45.91665" lon="4.77629">
        <ele>170</ele>
        <time>2016-09-08T08:51:07Z</time>
      </trkpt>
      <trkpt lat="45.91662" lon="4.77639">
        <ele>170</ele>
        <time>2016-09-08T08:51:08Z</time>
      </trkpt>
      <trkpt lat="45.9166" lon="4.77648">
        <ele>170</ele>
        <time>2016-09-08T08:51:09Z</time>
      </trkpt>
      <trkpt lat="45.91657" lon="4.77657">
        <ele>170</ele>
        <time>2016-09-08T08:51:10Z</time>
      </trkpt>
      <trkpt lat="45.91655" lon="4.77666">
        <ele>170</ele>
        <time>2016-09-08T08:51:11Z</time>
      </trkpt>
      <trkpt lat="45.91652" lon="4.77675">
        <ele>170</ele>
        <time>2016-09-08T08:51:12Z</time>
      </trkpt>
      <trkpt lat="45.91651" lon="4.77684">
        <ele>170</ele>
        <time>2016-09-08T08:51:13Z</time>
      </trkpt>
      <trkpt lat="45.91648" lon="4.77693">
        <ele>170</ele>
        <time>2016-09-08T08:51:14Z</time>
      </trkpt>
      <trkpt lat="45.91646" lon="4.77702">
        <ele>170</ele>
        <time>2016-09-08T08:51:15Z</time>
      </trkpt>
      <trkpt lat="45.91644" lon="4.77712">
        <ele>170</ele>
        <time>2016-09-08T08:51:16Z</time>
      </trkpt>
      <trkpt lat="45.91642" lon="4.77721">
        <ele>170</ele>
        <time>2016-09-08T08:51:17Z</time>
      </trkpt>
      <trkpt lat="45.9164" lon="4.77729">
        <ele>170</ele>
        <time>2016-09-08T08:51:18Z</time>
      </trkpt>
      <trkpt lat="45.91638" lon="4.77737">
        <ele>170</ele>
        <time>2016-09-08T08:51:19Z</time>
      </trkpt>
      <trkpt lat="45.91636" lon="4.77745">
        <ele>170</ele>
        <time>2016-09-08T08:51:20Z</time>
      </trkpt>
      <trkpt lat="45.91634" lon="4.77754">
        <ele>171</ele>
        <time>2016-09-08T08:51:21Z</time>
      </trkpt>
      <trkpt lat="45.91631" lon="4.77762">
        <ele>171</ele>
        <time>2016-09-08T08:51:22Z</time>
      </trkpt>
      <trkpt lat="45.91629" lon="4.7777">
        <ele>171</ele>
        <time>2016-09-08T08:51:23Z</time>
      </trkpt>
      <trkpt lat="45.91626" lon="4.77779">
        <ele>172</ele>
        <time>2016-09-08T08:51:24Z</time>
      </trkpt>
      <trkpt lat="45.91623" lon="4.77787">
        <ele>172</ele>
        <time>2016-09-08T08:51:25Z</time>
      </trkpt>
      <trkpt lat="45.9162" lon="4.77795">
        <ele>172</ele>
        <time>2016-09-08T08:51:26Z</time>
      </trkpt>
      <trkpt lat="45.91617" lon="4.77804">
        <ele>172</ele>
        <time>2016-09-08T08:51:27Z</time>
      </trkpt>
      <trkpt lat="45.91613" lon="4.77812">
        <ele>173</ele>
        <time>2016-09-08T08:51:28Z</time>
      </trkpt>
      <trkpt lat="45.9161" lon="4.7782">
        <ele>173</ele>
        <time>2016-09-08T08:51:29Z</time>
      </trkpt>
      <trkpt lat="45.91607" lon="4.77828">
        <ele>173</ele>
        <time>2016-09-08T08:51:30Z</time>
      </trkpt>
      <trkpt lat="45.91603" lon="4.77836">
        <ele>174</ele>
        <time>2016-09-08T08:51:31Z</time>
      </trkpt>
      <trkpt lat="45.91599" lon="4.77844">
        <ele>174</ele>
        <time>2016-09-08T08:51:32Z</time>
      </trkpt>
      <trkpt lat="45.91594" lon="4.77852">
        <ele>174</ele>
        <time>2016-09-08T08:51:33Z</time>
      </trkpt>
      <trkpt lat="45.91591" lon="4.7786">
        <ele>173</ele>
        <time>2016-09-08T08:51:34Z</time>
      </trkpt>
      <trkpt lat="45.91588" lon="4.77868">
        <ele>173</ele>
        <time>2016-09-08T08:51:35Z</time>
      </trkpt>
      <trkpt lat="45.91585" lon="4.77876">
        <ele>173</ele>
        <time>2016-09-08T08:51:36Z</time>
      </trkpt>
      <trkpt lat="45.91581" lon="4.77885">
        <ele>176</ele>
        <time>2016-09-08T08:51:37Z</time>
      </trkpt>
      <trkpt lat="45.91577" lon="4.77893">
        <ele>176</ele>
        <time>2016-09-08T08:51:38Z</time>
      </trkpt>
      <trkpt lat="45.91574" lon="4.77901">
        <ele>175</ele>
        <time>2016-09-08T08:51:39Z</time>
      </trkpt>
      <trkpt lat="45.91571" lon="4.77908">
        <ele>175</ele>
        <time>2016-09-08T08:51:40Z</time>
      </trkpt>
      <trkpt lat="45.91567" lon="4.77916">
        <ele>175</ele>
        <time>2016-09-08T08:51:41Z</time>
      </trkpt>
      <trkpt lat="45.91564" lon="4.77924">
        <ele>175</ele>
        <time>2016-09-08T08:51:42Z</time>
      </trkpt>
      <trkpt lat="45.9156" lon="4.77932">
        <ele>175</ele>
        <time>2016-09-08T08:51:43Z</time>
      </trkpt>
      <trkpt lat="45.91557" lon="4.7794">
        <ele>175</ele>
        <time>2016-09-08T08:51:44Z</time>
      </trkpt>
      <trkpt lat="45.91554" lon="4.77948">
        <ele>175</ele>
        <time>2016-09-08T08:51:45Z</time>
      </trkpt>
      <trkpt lat="45.9155" lon="4.77956">
        <ele>175</ele>
        <time>2016-09-08T08:51:46Z</time>
      </trkpt>
      <trkpt lat="45.91546" lon="4.77965">
        <ele>175</ele>
        <time>2016-09-08T08:51:47Z</time>
      </trkpt>
      <trkpt lat="45.91542" lon="4.77972">
        <ele>176</ele>
        <time>2016-09-08T08:51:48Z</time>
      </trkpt>
      <trkpt lat="45.91539" lon="4.7798">
        <ele>176</ele>
        <time>2016-09-08T08:51:49Z</time>
      </trkpt>
      <trkpt lat="45.91535" lon="4.77987">
        <ele>176</ele>
        <time>2016-09-08T08:51:50Z</time>
      </trkpt>
      <trkpt lat="45.91531" lon="4.77995">
        <ele>176</ele>
        <time>2016-09-08T08:51:51Z</time>
      </trkpt>
      <trkpt lat="45.91528" lon="4.78003">
        <ele>175</ele>
        <time>2016-09-08T08:51:52Z</time>
      </trkpt>
      <trkpt lat="45.91524" lon="4.78011">
        <ele>175</ele>
        <time>2016-09-08T08:51:53Z</time>
      </trkpt>
      <trkpt lat="45.91521" lon="4.78019">
        <ele>175</ele>
        <time>2016-09-08T08:51:54Z</time>
      </trkpt>
      <trkpt lat="45.91517" lon="4.78026">
        <ele>175</ele>
        <time>2016-09-08T08:51:55Z</time>
      </trkpt>
      <trkpt lat="45.91514" lon="4.78034">
        <ele>175</ele>
        <time>2016-09-08T08:51:56Z</time>
      </trkpt>
      <trkpt lat="45.91511" lon="4.78041">
        <ele>175</ele>
        <time>2016-09-08T08:51:57Z</time>
      </trkpt>
      <trkpt lat="45.91508" lon="4.7805">
        <ele>175</ele>
        <time>2016-09-08T08:51:58Z</time>
      </trkpt>
      <trkpt lat="45.91504" lon="4.78058">
        <ele>175</ele>
        <time>2016-09-08T08:51:59Z</time>
      </trkpt>
      <trkpt lat="45.91501" lon="4.78066">
        <ele>176</ele>
        <time>2016-09-08T08:52:00Z</time>
      </trkpt>
      <trkpt lat="45.91497" lon="4.78073">
        <ele>177</ele>
        <time>2016-09-08T08:52:01Z</time>
      </trkpt>
      <trkpt lat="45.91494" lon="4.78081">
        <ele>177</ele>
        <time>2016-09-08T08:52:02Z</time>
      </trkpt>
      <trkpt lat="45.91491" lon="4.78089">
        <ele>177</ele>
        <time>2016-09-08T08:52:03Z</time>
      </trkpt>
      <trkpt lat="45.91487" lon="4.78097">
        <ele>177</ele>
        <time>2016-09-08T08:52:04Z</time>
      </trkpt>
      <trkpt lat="45.91484" lon="4.78104">
        <ele>177</ele>
        <time>2016-09-08T08:52:05Z</time>
      </trkpt>
      <trkpt lat="45.9148" lon="4.78111">
        <ele>177</ele>
        <time>2016-09-08T08:52:06Z</time>
      </trkpt>
      <trkpt lat="45.91477" lon="4.78118">
        <ele>177</ele>
        <time>2016-09-08T08:52:07Z</time>
      </trkpt>
      <trkpt lat="45.91473" lon="4.78125">
        <ele>177</ele>
        <time>2016-09-08T08:52:08Z</time>
      </trkpt>
      <trkpt lat="45.9147" lon="4.78133">
        <ele>177</ele>
        <time>2016-09-08T08:52:09Z</time>
      </trkpt>
      <trkpt lat="45.91465" lon="4.78139">
        <ele>177</ele>
        <time>2016-09-08T08:52:10Z</time>
      </trkpt>
      <trkpt lat="45.91461" lon="4.78146">
        <ele>177</ele>
        <time>2016-09-08T08:52:11Z</time>
      </trkpt>
      <trkpt lat="45.91458" lon="4.78154">
        <ele>177</ele>
        <time>2016-09-08T08:52:12Z</time>
      </trkpt>
      <trkpt lat="45.91455" lon="4.78161">
        <ele>177</ele>
        <time>2016-09-08T08:52:13Z</time>
      </trkpt>
      <trkpt lat="45.91451" lon="4.78168">
        <ele>177</ele>
        <time>2016-09-08T08:52:14Z</time>
      </trkpt>
      <trkpt lat="45.91448" lon="4.78175">
        <ele>177</ele>
        <time>2016-09-08T08:52:15Z</time>
      </trkpt>
      <trkpt lat="45.91446" lon="4.78183">
        <ele>177</ele>
        <time>2016-09-08T08:52:16Z</time>
      </trkpt>
      <trkpt lat="45.91442" lon="4.78191">
        <ele>177</ele>
        <time>2016-09-08T08:52:17Z</time>
      </trkpt>
      <trkpt lat="45.91439" lon="4.78198">
        <ele>177</ele>
        <time>2016-09-08T08:52:18Z</time>
      </trkpt>
      <trkpt lat="45.91436" lon="4.78205">
        <ele>177</ele>
        <time>2016-09-08T08:52:19Z</time>
      </trkpt>
      <trkpt lat="45.91433" lon="4.78212">
        <ele>177</ele>
        <time>2016-09-08T08:52:20Z</time>
      </trkpt>
      <trkpt lat="45.91429" lon="4.78219">
        <ele>177</ele>
        <time>2016-09-08T08:52:21Z</time>
      </trkpt>
      <trkpt lat="45.91426" lon="4.78227">
        <ele>177</ele>
        <time>2016-09-08T08:52:22Z</time>
      </trkpt>
      <trkpt lat="45.91424" lon="4.78234">
        <ele>177</ele>
        <time>2016-09-08T08:52:23Z</time>
      </trkpt>
      <trkpt lat="45.91421" lon="4.78242">
        <ele>177</ele>
        <time>2016-09-08T08:52:24Z</time>
      </trkpt>
      <trkpt lat="45.91418" lon="4.78249">
        <ele>177</ele>
        <time>2016-09-08T08:52:25Z</time>
      </trkpt>
      <trkpt lat="45.91416" lon="4.78256">
        <ele>177</ele>
        <time>2016-09-08T08:52:26Z</time>
      </trkpt>
      <trkpt lat="45.91413" lon="4.78263">
        <ele>177</ele>
        <time>2016-09-08T08:52:27Z</time>
      </trkpt>
      <trkpt lat="45.91409" lon="4.78271">
        <ele>177</ele>
        <time>2016-09-08T08:52:28Z</time>
      </trkpt>
      <trkpt lat="45.91406" lon="4.78279">
        <ele>177</ele>
        <time>2016-09-08T08:52:29Z</time>
      </trkpt>
      <trkpt lat="45.91402" lon="4.78286">
        <ele>177</ele>
        <time>2016-09-08T08:52:30Z</time>
      </trkpt>
      <trkpt lat="45.91399" lon="4.78294">
        <ele>177</ele>
        <time>2016-09-08T08:52:31Z</time>
      </trkpt>
      <trkpt lat="45.91395" lon="4.78301">
        <ele>177</ele>
        <time>2016-09-08T08:52:32Z</time>
      </trkpt>
      <trkpt lat="45.91391" lon="4.78309">
        <ele>177</ele>
        <time>2016-09-08T08:52:33Z</time>
      </trkpt>
      <trkpt lat="45.91388" lon="4.78316">
        <ele>177</ele>
        <time>2016-09-08T08:52:34Z</time>
      </trkpt>
      <trkpt lat="45.91385" lon="4.78324">
        <ele>177</ele>
        <time>2016-09-08T08:52:35Z</time>
      </trkpt>
      <trkpt lat="45.91382" lon="4.78331">
        <ele>177</ele>
        <time>2016-09-08T08:52:36Z</time>
      </trkpt>
      <trkpt lat="45.91378" lon="4.78337">
        <ele>177</ele>
        <time>2016-09-08T08:52:37Z</time>
      </trkpt>
      <trkpt lat="45.91375" lon="4.78344">
        <ele>177</ele>
        <time>2016-09-08T08:52:38Z</time>
      </trkpt>
      <trkpt lat="45.91372" lon="4.78351">
        <ele>177</ele>
        <time>2016-09-08T08:52:39Z</time>
      </trkpt>
      <trkpt lat="45.91368" lon="4.78358">
        <ele>177</ele>
        <time>2016-09-08T08:52:40Z</time>
      </trkpt>
      <trkpt lat="45.91365" lon="4.78365">
        <ele>177</ele>
        <time>2016-09-08T08:52:41Z</time>
      </trkpt>
      <trkpt lat="45.91362" lon="4.78371">
        <ele>177</ele>
        <time>2016-09-08T08:52:42Z</time>
      </trkpt>
      <trkpt lat="45.91358" lon="4.78378">
        <ele>177</ele>
        <time>2016-09-08T08:52:43Z</time>
      </trkpt>
      <trkpt lat="45.91355" lon="4.78385">
        <ele>177</ele>
        <time>2016-09-08T08:52:44Z</time>
      </trkpt>
      <trkpt lat="45.91352" lon="4.78391">
        <ele>176</ele>
        <time>2016-09-08T08:52:45Z</time>
      </trkpt>
      <trkpt lat="45.91348" lon="4.78398">
        <ele>176</ele>
        <time>2016-09-08T08:52:46Z</time>
      </trkpt>
      <trkpt lat="45.91345" lon="4.78404">
        <ele>176</ele>
        <time>2016-09-08T08:52:47Z</time>
      </trkpt>
      <trkpt lat="45.91343" lon="4.7841">
        <ele>176</ele>
        <time>2016-09-08T08:52:48Z</time>
      </trkpt>
      <trkpt lat="45.9134" lon="4.78417">
        <ele>176</ele>
        <time>2016-09-08T08:52:49Z</time>
      </trkpt>
      <trkpt lat="45.91337" lon="4.78423">
        <ele>176</ele>
        <time>2016-09-08T08:52:50Z</time>
      </trkpt>
      <trkpt lat="45.91334" lon="4.78429">
        <ele>176</ele>
        <time>2016-09-08T08:52:51Z</time>
      </trkpt>
      <trkpt lat="45.91331" lon="4.78436">
        <ele>176</ele>
        <time>2016-09-08T08:52:52Z</time>
      </trkpt>
      <trkpt lat="45.91328" lon="4.78443">
        <ele>176</ele>
        <time>2016-09-08T08:52:53Z</time>
      </trkpt>
      <trkpt lat="45.91325" lon="4.7845">
        <ele>176</ele>
        <time>2016-09-08T08:52:54Z</time>
      </trkpt>
      <trkpt lat="45.91322" lon="4.78456">
        <ele>176</ele>
        <time>2016-09-08T08:52:55Z</time>
      </trkpt>
      <trkpt lat="45.91319" lon="4.78463">
        <ele>176</ele>
        <time>2016-09-08T08:52:56Z</time>
      </trkpt>
      <trkpt lat="45.91316" lon="4.78469">
        <ele>176</ele>
        <time>2016-09-08T08:52:57Z</time>
      </trkpt>
      <trkpt lat="45.91313" lon="4.78476">
        <ele>176</ele>
        <time>2016-09-08T08:52:58Z</time>
      </trkpt>
      <trkpt lat="45.9131" lon="4.78482">
        <ele>176</ele>
        <time>2016-09-08T08:52:59Z</time>
      </trkpt>
      <trkpt lat="45.91307" lon="4.78489">
        <ele>176</ele>
        <time>2016-09-08T08:53:00Z</time>
      </trkpt>
      <trkpt lat="45.91304" lon="4.78495">
        <ele>176</ele>
        <time>2016-09-08T08:53:01Z</time>
      </trkpt>
      <trkpt lat="45.913" lon="4.78502">
        <ele>175</ele>
        <time>2016-09-08T08:53:02Z</time>
      </trkpt>
      <trkpt lat="45.91296" lon="4.78509">
        <ele>175</ele>
        <time>2016-09-08T08:53:03Z</time>
      </trkpt>
      <trkpt lat="45.91293" lon="4.78516">
        <ele>175</ele>
        <time>2016-09-08T08:53:04Z</time>
      </trkpt>
      <trkpt lat="45.9129" lon="4.78523">
        <ele>176</ele>
        <time>2016-09-08T08:53:05Z</time>
      </trkpt>
      <trkpt lat="45.91287" lon="4.78531">
        <ele>176</ele>
        <time>2016-09-08T08:53:06Z</time>
      </trkpt>
      <trkpt lat="45.91284" lon="4.78538">
        <ele>176</ele>
        <time>2016-09-08T08:53:07Z</time>
      </trkpt>
      <trkpt lat="45.91281" lon="4.78545">
        <ele>176</ele>
        <time>2016-09-08T08:53:08Z</time>
      </trkpt>
      <trkpt lat="45.91277" lon="4.78553">
        <ele>176</ele>
        <time>2016-09-08T08:53:09Z</time>
      </trkpt>
      <trkpt lat="45.91274" lon="4.7856">
        <ele>176</ele>
        <time>2016-09-08T08:53:10Z</time>
      </trkpt>
      <trkpt lat="45.91271" lon="4.78567">
        <ele>176</ele>
        <time>2016-09-08T08:53:11Z</time>
      </trkpt>
      <trkpt lat="45.91267" lon="4.78575">
        <ele>176</ele>
        <time>2016-09-08T08:53:12Z</time>
      </trkpt>
      <trkpt lat="45.91264" lon="4.78583">
        <ele>176</ele>
        <time>2016-09-08T08:53:13Z</time>
      </trkpt>
      <trkpt lat="45.91261" lon="4.7859">
        <ele>176</ele>
        <time>2016-09-08T08:53:14Z</time>
      </trkpt>
      <trkpt lat="45.91257" lon="4.78598">
        <ele>176</ele>
        <time>2016-09-08T08:53:15Z</time>
      </trkpt>
      <trkpt lat="45.91253" lon="4.78605">
        <ele>176</ele>
        <time>2016-09-08T08:53:16Z</time>
      </trkpt>
      <trkpt lat="45.91249" lon="4.78613">
        <ele>177</ele>
        <time>2016-09-08T08:53:17Z</time>
      </trkpt>
      <trkpt lat="45.91246" lon="4.7862">
        <ele>177</ele>
        <time>2016-09-08T08:53:18Z</time>
      </trkpt>
      <trkpt lat="45.91242" lon="4.78628">
        <ele>177</ele>
        <time>2016-09-08T08:53:19Z</time>
      </trkpt>
      <trkpt lat="45.91239" lon="4.78636">
        <ele>177</ele>
        <time>2016-09-08T08:53:20Z</time>
      </trkpt>
      <trkpt lat="45.91235" lon="4.78643">
        <ele>177</ele>
        <time>2016-09-08T08:53:21Z</time>
      </trkpt>
      <trkpt lat="45.91231" lon="4.7865">
        <ele>177</ele>
        <time>2016-09-08T08:53:22Z</time>
      </trkpt>
      <trkpt lat="45.91228" lon="4.78657">
        <ele>177</ele>
        <time>2016-09-08T08:53:23Z</time>
      </trkpt>
      <trkpt lat="45.91224" lon="4.78664">
        <ele>177</ele>
        <time>2016-09-08T08:53:24Z</time>
      </trkpt>
      <trkpt lat="45.91221" lon="4.78671">
        <ele>177</ele>
        <time>2016-09-08T08:53:25Z</time>
      </trkpt>
      <trkpt lat="45.91217" lon="4.78679">
        <ele>177</ele>
        <time>2016-09-08T08:53:26Z</time>
      </trkpt>
      <trkpt lat="45.91214" lon="4.78686">
        <ele>177</ele>
        <time>2016-09-08T08:53:27Z</time>
      </trkpt>
      <trkpt lat="45.9121" lon="4.78694">
        <ele>177</ele>
        <time>2016-09-08T08:53:28Z</time>
      </trkpt>
      <trkpt lat="45.91207" lon="4.78702">
        <ele>177</ele>
        <time>2016-09-08T08:53:29Z</time>
      </trkpt>
      <trkpt lat="45.91204" lon="4.78709">
        <ele>177</ele>
        <time>2016-09-08T08:53:30Z</time>
      </trkpt>
      <trkpt lat="45.912" lon="4.78717">
        <ele>177</ele>
        <time>2016-09-08T08:53:31Z</time>
      </trkpt>
      <trkpt lat="45.91196" lon="4.78725">
        <ele>177</ele>
        <time>2016-09-08T08:53:32Z</time>
      </trkpt>
      <trkpt lat="45.91193" lon="4.78732">
        <ele>177</ele>
        <time>2016-09-08T08:53:33Z</time>
      </trkpt>
      <trkpt lat="45.91189" lon="4.7874">
        <ele>177</ele>
        <time>2016-09-08T08:53:34Z</time>
      </trkpt>
      <trkpt lat="45.91185" lon="4.78747">
        <ele>177</ele>
        <time>2016-09-08T08:53:35Z</time>
      </trkpt>
      <trkpt lat="45.91181" lon="4.78755">
        <ele>177</ele>
        <time>2016-09-08T08:53:36Z</time>
      </trkpt>
      <trkpt lat="45.91177" lon="4.78763">
        <ele>177</ele>
        <time>2016-09-08T08:53:37Z</time>
      </trkpt>
      <trkpt lat="45.91173" lon="4.7877">
        <ele>177</ele>
        <time>2016-09-08T08:53:38Z</time>
      </trkpt>
      <trkpt lat="45.91169" lon="4.78778">
        <ele>177</ele>
        <time>2016-09-08T08:53:39Z</time>
      </trkpt>
      <trkpt lat="45.91165" lon="4.78785">
        <ele>177</ele>
        <time>2016-09-08T08:53:40Z</time>
      </trkpt>
      <trkpt lat="45.91161" lon="4.78792">
        <ele>177</ele>
        <time>2016-09-08T08:53:41Z</time>
      </trkpt>
      <trkpt lat="45.91157" lon="4.78798">
        <ele>177</ele>
        <time>2016-09-08T08:53:42Z</time>
      </trkpt>
      <trkpt lat="45.91153" lon="4.78805">
        <ele>176</ele>
        <time>2016-09-08T08:53:43Z</time>
      </trkpt>
      <trkpt lat="45.9115" lon="4.78811">
        <ele>176</ele>
        <time>2016-09-08T08:53:44Z</time>
      </trkpt>
      <trkpt lat="45.91146" lon="4.78818">
        <ele>176</ele>
        <time>2016-09-08T08:53:45Z</time>
      </trkpt>
      <trkpt lat="45.91142" lon="4.78825">
        <ele>176</ele>
        <time>2016-09-08T08:53:46Z</time>
      </trkpt>
      <trkpt lat="45.91139" lon="4.78831">
        <ele>176</ele>
        <time>2016-09-08T08:53:47Z</time>
      </trkpt>
      <trkpt lat="45.91135" lon="4.78837">
        <ele>176</ele>
        <time>2016-09-08T08:53:48Z</time>
      </trkpt>
      <trkpt lat="45.91133" lon="4.78846">
        <ele>176</ele>
        <time>2016-09-08T08:53:49Z</time>
      </trkpt>
      <trkpt lat="45.9113" lon="4.78852">
        <ele>176</ele>
        <time>2016-09-08T08:53:50Z</time>
      </trkpt>
      <trkpt lat="45.91126" lon="4.78858">
        <ele>176</ele>
        <time>2016-09-08T08:53:51Z</time>
      </trkpt>
      <trkpt lat="45.91123" lon="4.78864">
        <ele>176</ele>
        <time>2016-09-08T08:53:52Z</time>
      </trkpt>
      <trkpt lat="45.91119" lon="4.78871">
        <ele>176</ele>
        <time>2016-09-08T08:53:53Z</time>
      </trkpt>
      <trkpt lat="45.91115" lon="4.78877">
        <ele>176</ele>
        <time>2016-09-08T08:53:54Z</time>
      </trkpt>
      <trkpt lat="45.91111" lon="4.78883">
        <ele>176</ele>
        <time>2016-09-08T08:53:55Z</time>
      </trkpt>
      <trkpt lat="45.91108" lon="4.7889">
        <ele>176</ele>
        <time>2016-09-08T08:53:56Z</time>
      </trkpt>
      <trkpt lat="45.91104" lon="4.78896">
        <ele>176</ele>
        <time>2016-09-08T08:53:57Z</time>
      </trkpt>
      <trkpt lat="45.911" lon="4.78902">
        <ele>177</ele>
        <time>2016-09-08T08:53:58Z</time>
      </trkpt>
      <trkpt lat="45.91097" lon="4.78909">
        <ele>177</ele>
        <time>2016-09-08T08:53:59Z</time>
      </trkpt>
      <trkpt lat="45.91093" lon="4.78915">
        <ele>177</ele>
        <time>2016-09-08T08:54:00Z</time>
      </trkpt>
      <trkpt lat="45.91089" lon="4.78922">
        <ele>177</ele>
        <time>2016-09-08T08:54:01Z</time>
      </trkpt>
      <trkpt lat="45.91085" lon="4.78928">
        <ele>177</ele>
        <time>2016-09-08T08:54:02Z</time>
      </trkpt>
      <trkpt lat="45.91082" lon="4.78935">
        <ele>177</ele>
        <time>2016-09-08T08:54:03Z</time>
      </trkpt>
      <trkpt lat="45.91078" lon="4.78941">
        <ele>177</ele>
        <time>2016-09-08T08:54:04Z</time>
      </trkpt>
      <trkpt lat="45.91075" lon="4.78948">
        <ele>177</ele>
        <time>2016-09-08T08:54:05Z</time>
      </trkpt>
      <trkpt lat="45.91071" lon="4.78954">
        <ele>177</ele>
        <time>2016-09-08T08:54:06Z</time>
      </trkpt>
      <trkpt lat="45.91067" lon="4.7896">
        <ele>177</ele>
        <time>2016-09-08T08:54:07Z</time>
      </trkpt>
      <trkpt lat="45.91064" lon="4.78966">
        <ele>177</ele>
        <time>2016-09-08T08:54:08Z</time>
      </trkpt>
      <trkpt lat="45.9106" lon="4.78972">
        <ele>177</ele>
        <time>2016-09-08T08:54:09Z</time>
      </trkpt>
      <trkpt lat="45.91057" lon="4.78978">
        <ele>177</ele>
        <time>2016-09-08T08:54:10Z</time>
      </trkpt>
      <trkpt lat="45.91053" lon="4.78985">
        <ele>177</ele>
        <time>2016-09-08T08:54:11Z</time>
      </trkpt>
      <trkpt lat="45.91049" lon="4.78991">
        <ele>177</ele>
        <time>2016-09-08T08:54:12Z</time>
      </trkpt>
      <trkpt lat="45.91046" lon="4.78997">
        <ele>177</ele>
        <time>2016-09-08T08:54:13Z</time>
      </trkpt>
      <trkpt lat="45.91042" lon="4.79004">
        <ele>177</ele>
        <time>2016-09-08T08:54:14Z</time>
      </trkpt>
      <trkpt lat="45.91039" lon="4.79011">
        <ele>177</ele>
        <time>2016-09-08T08:54:15Z</time>
      </trkpt>
      <trkpt lat="45.91035" lon="4.79018">
        <ele>176</ele>
        <time>2016-09-08T08:54:16Z</time>
      </trkpt>
      <trkpt lat="45.91032" lon="4.79025">
        <ele>176</ele>
        <time>2016-09-08T08:54:17Z</time>
      </trkpt>
      <trkpt lat="45.91029" lon="4.79032">
        <ele>176</ele>
        <time>2016-09-08T08:54:18Z</time>
      </trkpt>
      <trkpt lat="45.91025" lon="4.79038">
        <ele>176</ele>
        <time>2016-09-08T08:54:19Z</time>
      </trkpt>
      <trkpt lat="45.91021" lon="4.79045">
        <ele>176</ele>
        <time>2016-09-08T08:54:20Z</time>
      </trkpt>
      <trkpt lat="45.91018" lon="4.79052">
        <ele>176</ele>
        <time>2016-09-08T08:54:21Z</time>
      </trkpt>
      <trkpt lat="45.91014" lon="4.79059">
        <ele>176</ele>
        <time>2016-09-08T08:54:22Z</time>
      </trkpt>
      <trkpt lat="45.91011" lon="4.79065">
        <ele>177</ele>
        <time>2016-09-08T08:54:23Z</time>
      </trkpt>
      <trkpt lat="45.91008" lon="4.79072">
        <ele>177</ele>
        <time>2016-09-08T08:54:24Z</time>
      </trkpt>
      <trkpt lat="45.91005" lon="4.79079">
        <ele>177</ele>
        <time>2016-09-08T08:54:25Z</time>
      </trkpt>
      <trkpt lat="45.91002" lon="4.79085">
        <ele>177</ele>
        <time>2016-09-08T08:54:26Z</time>
      </trkpt>
      <trkpt lat="45.90998" lon="4.79092">
        <ele>177</ele>
        <time>2016-09-08T08:54:27Z</time>
      </trkpt>
      <trkpt lat="45.90994" lon="4.79098">
        <ele>177</ele>
        <time>2016-09-08T08:54:28Z</time>
      </trkpt>
      <trkpt lat="45.90991" lon="4.79104">
        <ele>177</ele>
        <time>2016-09-08T08:54:29Z</time>
      </trkpt>
      <trkpt lat="45.90987" lon="4.7911">
        <ele>177</ele>
        <time>2016-09-08T08:54:30Z</time>
      </trkpt>
      <trkpt lat="45.90983" lon="4.79117">
        <ele>177</ele>
        <time>2016-09-08T08:54:31Z</time>
      </trkpt>
      <trkpt lat="45.90979" lon="4.79124">
        <ele>177</ele>
        <time>2016-09-08T08:54:32Z</time>
      </trkpt>
      <trkpt lat="45.90976" lon="4.7913">
        <ele>177</ele>
        <time>2016-09-08T08:54:33Z</time>
      </trkpt>
      <trkpt lat="45.90973" lon="4.79136">
        <ele>177</ele>
        <time>2016-09-08T08:54:34Z</time>
      </trkpt>
      <trkpt lat="45.9097" lon="4.79142">
        <ele>177</ele>
        <time>2016-09-08T08:54:35Z</time>
      </trkpt>
      <trkpt lat="45.90966" lon="4.79149">
        <ele>177</ele>
        <time>2016-09-08T08:54:36Z</time>
      </trkpt>
      <trkpt lat="45.90963" lon="4.79155">
        <ele>177</ele>
        <time>2016-09-08T08:54:37Z</time>
      </trkpt>
      <trkpt lat="45.90959" lon="4.79161">
        <ele>177</ele>
        <time>2016-09-08T08:54:38Z</time>
      </trkpt>
      <trkpt lat="45.90956" lon="4.79167">
        <ele>177</ele>
        <time>2016-09-08T08:54:39Z</time>
      </trkpt>
      <trkpt lat="45.90952" lon="4.79174">
        <ele>177</ele>
        <time>2016-09-08T08:54:40Z</time>
      </trkpt>
      <trkpt lat="45.90949" lon="4.7918">
        <ele>177</ele>
        <time>2016-09-08T08:54:41Z</time>
      </trkpt>
      <trkpt lat="45.90945" lon="4.79186">
        <ele>176</ele>
        <time>2016-09-08T08:54:42Z</time>
      </trkpt>
      <trkpt lat="45.90942" lon="4.79192">
        <ele>176</ele>
        <time>2016-09-08T08:54:43Z</time>
      </trkpt>
      <trkpt lat="45.90939" lon="4.79198">
        <ele>176</ele>
        <time>2016-09-08T08:54:44Z</time>
      </trkpt>
      <trkpt lat="45.90935" lon="4.79205">
        <ele>176</ele>
        <time>2016-09-08T08:54:45Z</time>
      </trkpt>
      <trkpt lat="45.90931" lon="4.79211">
        <ele>176</ele>
        <time>2016-09-08T08:54:46Z</time>
      </trkpt>
      <trkpt lat="45.90928" lon="4.79217">
        <ele>176</ele>
        <time>2016-09-08T08:54:47Z</time>
      </trkpt>
      <trkpt lat="45.90924" lon="4.79223">
        <ele>176</ele>
        <time>2016-09-08T08:54:48Z</time>
      </trkpt>
      <trkpt lat="45.90921" lon="4.79229">
        <ele>176</ele>
        <time>2016-09-08T08:54:49Z</time>
      </trkpt>
      <trkpt lat="45.90917" lon="4.79236">
        <ele>176</ele>
        <time>2016-09-08T08:54:50Z</time>
      </trkpt>
      <trkpt lat="45.90913" lon="4.79242">
        <ele>176</ele>
        <time>2016-09-08T08:54:51Z</time>
      </trkpt>
      <trkpt lat="45.9091" lon="4.79248">
        <ele>176</ele>
        <time>2016-09-08T08:54:52Z</time>
      </trkpt>
      <trkpt lat="45.90906" lon="4.79254">
        <ele>176</ele>
        <time>2016-09-08T08:54:53Z</time>
      </trkpt>
      <trkpt lat="45.90903" lon="4.7926">
        <ele>176</ele>
        <time>2016-09-08T08:54:54Z</time>
      </trkpt>
      <trkpt lat="45.90899" lon="4.79267">
        <ele>176</ele>
        <time>2016-09-08T08:54:55Z</time>
      </trkpt>
      <trkpt lat="45.90896" lon="4.79273">
        <ele>176</ele>
        <time>2016-09-08T08:54:56Z</time>
      </trkpt>
      <trkpt lat="45.90892" lon="4.79279">
        <ele>176</ele>
        <time>2016-09-08T08:54:57Z</time>
      </trkpt>
      <trkpt lat="45.90889" lon="4.79284">
        <ele>176</ele>
        <time>2016-09-08T08:54:58Z</time>
      </trkpt>
      <trkpt lat="45.90885" lon="4.7929">
        <ele>176</ele>
        <time>2016-09-08T08:54:59Z</time>
      </trkpt>
      <trkpt lat="45.90881" lon="4.79296">
        <ele>176</ele>
        <time>2016-09-08T08:55:00Z</time>
      </trkpt>
      <trkpt lat="45.90876" lon="4.79302">
        <ele>176</ele>
        <time>2016-09-08T08:55:01Z</time>
      </trkpt>
      <trkpt lat="45.90872" lon="4.79308">
        <ele>176</ele>
        <time>2016-09-08T08:55:02Z</time>
      </trkpt>
      <trkpt lat="45.90868" lon="4.79314">
        <ele>176</ele>
        <time>2016-09-08T08:55:03Z</time>
      </trkpt>
      <trkpt lat="45.90864" lon="4.79321">
        <ele>176</ele>
        <time>2016-09-08T08:55:04Z</time>
      </trkpt>
      <trkpt lat="45.90859" lon="4.79327">
        <ele>176</ele>
        <time>2016-09-08T08:55:05Z</time>
      </trkpt>
      <trkpt lat="45.90854" lon="4.79334">
        <ele>175</ele>
        <time>2016-09-08T08:55:06Z</time>
      </trkpt>
      <trkpt lat="45.9085" lon="4.7934">
        <ele>175</ele>
        <time>2016-09-08T08:55:07Z</time>
      </trkpt>
      <trkpt lat="45.90845" lon="4.79346">
        <ele>175</ele>
        <time>2016-09-08T08:55:08Z</time>
      </trkpt>
      <trkpt lat="45.9084" lon="4.79352">
        <ele>175</ele>
        <time>2016-09-08T08:55:09Z</time>
      </trkpt>
      <trkpt lat="45.90836" lon="4.79358">
        <ele>175</ele>
        <time>2016-09-08T08:55:10Z</time>
      </trkpt>
      <trkpt lat="45.90832" lon="4.79364">
        <ele>175</ele>
        <time>2016-09-08T08:55:11Z</time>
      </trkpt>
      <trkpt lat="45.90828" lon="4.79369">
        <ele>175</ele>
        <time>2016-09-08T08:55:12Z</time>
      </trkpt>
      <trkpt lat="45.90823" lon="4.79375">
        <ele>175</ele>
        <time>2016-09-08T08:55:13Z</time>
      </trkpt>
      <trkpt lat="45.90819" lon="4.7938">
        <ele>175</ele>
        <time>2016-09-08T08:55:14Z</time>
      </trkpt>
      <trkpt lat="45.90814" lon="4.79385">
        <ele>175</ele>
        <time>2016-09-08T08:55:15Z</time>
      </trkpt>
      <trkpt lat="45.90809" lon="4.7939">
        <ele>175</ele>
        <time>2016-09-08T08:55:16Z</time>
      </trkpt>
      <trkpt lat="45.90804" lon="4.79394">
        <ele>175</ele>
        <time>2016-09-08T08:55:17Z</time>
      </trkpt>
      <trkpt lat="45.90799" lon="4.79399">
        <ele>175</ele>
        <time>2016-09-08T08:55:18Z</time>
      </trkpt>
      <trkpt lat="45.90794" lon="4.79403">
        <ele>175</ele>
        <time>2016-09-08T08:55:19Z</time>
      </trkpt>
      <trkpt lat="45.90789" lon="4.79407">
        <ele>175</ele>
        <time>2016-09-08T08:55:20Z</time>
      </trkpt>
      <trkpt lat="45.90784" lon="4.79411">
        <ele>175</ele>
        <time>2016-09-08T08:55:21Z</time>
      </trkpt>
      <trkpt lat="45.90778" lon="4.79416">
        <ele>175</ele>
        <time>2016-09-08T08:55:22Z</time>
      </trkpt>
      <trkpt lat="45.90773" lon="4.7942">
        <ele>174</ele>
        <time>2016-09-08T08:55:23Z</time>
      </trkpt>
      <trkpt lat="45.90768" lon="4.79424">
        <ele>174</ele>
        <time>2016-09-08T08:55:24Z</time>
      </trkpt>
      <trkpt lat="45.90762" lon="4.79428">
        <ele>174</ele>
        <time>2016-09-08T08:55:25Z</time>
      </trkpt>
      <trkpt lat="45.90757" lon="4.79431">
        <ele>174</ele>
        <time>2016-09-08T08:55:26Z</time>
      </trkpt>
      <trkpt lat="45.90751" lon="4.79435">
        <ele>174</ele>
        <time>2016-09-08T08:55:27Z</time>
      </trkpt>
      <trkpt lat="45.90746" lon="4.79439">
        <ele>175</ele>
        <time>2016-09-08T08:55:28Z</time>
      </trkpt>
      <trkpt lat="45.9074" lon="4.79442">
        <ele>175</ele>
        <time>2016-09-08T08:55:29Z</time>
      </trkpt>
      <trkpt lat="45.90734" lon="4.79446">
        <ele>175</ele>
        <time>2016-09-08T08:55:30Z</time>
      </trkpt>
      <trkpt lat="45.90729" lon="4.7945">
        <ele>174</ele>
        <time>2016-09-08T08:55:31Z</time>
      </trkpt>
      <trkpt lat="45.90724" lon="4.79454">
        <ele>174</ele>
        <time>2016-09-08T08:55:32Z</time>
      </trkpt>
      <trkpt lat="45.90718" lon="4.79458">
        <ele>174</ele>
        <time>2016-09-08T08:55:33Z</time>
      </trkpt>
      <trkpt lat="45.90712" lon="4.79461">
        <ele>174</ele>
        <time>2016-09-08T08:55:34Z</time>
      </trkpt>
      <trkpt lat="45.90706" lon="4.79464">
        <ele>174</ele>
        <time>2016-09-08T08:55:35Z</time>
      </trkpt>
      <trkpt lat="45.907" lon="4.79467">
        <ele>174</ele>
        <time>2016-09-08T08:55:36Z</time>
      </trkpt>
      <trkpt lat="45.90694" lon="4.7947">
        <ele>174</ele>
        <time>2016-09-08T08:55:37Z</time>
      </trkpt>
      <trkpt lat="45.90689" lon="4.79473">
        <ele>174</ele>
        <time>2016-09-08T08:55:38Z</time>
      </trkpt>
      <trkpt lat="45.90683" lon="4.79476">
        <ele>174</ele>
        <time>2016-09-08T08:55:39Z</time>
      </trkpt>
      <trkpt lat="45.90678" lon="4.79479">
        <ele>174</ele>
        <time>2016-09-08T08:55:40Z</time>
      </trkpt>
      <trkpt lat="45.90672" lon="4.79482">
        <ele>174</ele>
        <time>2016-09-08T08:55:41Z</time>
      </trkpt>
      <trkpt lat="45.90667" lon="4.79485">
        <ele>174</ele>
        <time>2016-09-08T08:55:42Z</time>
      </trkpt>
      <trkpt lat="45.90662" lon="4.79488">
        <ele>175</ele>
        <time>2016-09-08T08:55:43Z</time>
      </trkpt>
      <trkpt lat="45.90656" lon="4.79491">
        <ele>175</ele>
        <time>2016-09-08T08:55:44Z</time>
      </trkpt>
      <trkpt lat="45.90651" lon="4.79494">
        <ele>175</ele>
        <time>2016-09-08T08:55:45Z</time>
      </trkpt>
      <trkpt lat="45.90645" lon="4.79497">
        <ele>176</ele>
        <time>2016-09-08T08:55:46Z</time>
      </trkpt>
      <trkpt lat="45.9064" lon="4.795">
        <ele>176</ele>
        <time>2016-09-08T08:55:47Z</time>
      </trkpt>
      <trkpt lat="45.90634" lon="4.79502">
        <ele>174</ele>
        <time>2016-09-08T08:55:48Z</time>
      </trkpt>
      <trkpt lat="45.90629" lon="4.79505">
        <ele>174</ele>
        <time>2016-09-08T08:55:49Z</time>
      </trkpt>
      <trkpt lat="45.90623" lon="4.79509">
        <ele>174</ele>
        <time>2016-09-08T08:55:50Z</time>
      </trkpt>
      <trkpt lat="45.90618" lon="4.79512">
        <ele>174</ele>
        <time>2016-09-08T08:55:51Z</time>
      </trkpt>
      <trkpt lat="45.90612" lon="4.79516">
        <ele>175</ele>
        <time>2016-09-08T08:55:52Z</time>
      </trkpt>
      <trkpt lat="45.90607" lon="4.79519">
        <ele>175</ele>
        <time>2016-09-08T08:55:53Z</time>
      </trkpt>
      <trkpt lat="45.90601" lon="4.79523">
        <ele>175</ele>
        <time>2016-09-08T08:55:54Z</time>
      </trkpt>
      <trkpt lat="45.90596" lon="4.79526">
        <ele>175</ele>
        <time>2016-09-08T08:55:55Z</time>
      </trkpt>
      <trkpt lat="45.9059" lon="4.7953">
        <ele>175</ele>
        <time>2016-09-08T08:55:56Z</time>
      </trkpt>
      <trkpt lat="45.90585" lon="4.79534">
        <ele>175</ele>
        <time>2016-09-08T08:55:57Z</time>
      </trkpt>
      <trkpt lat="45.90579" lon="4.79538">
        <ele>177</ele>
        <time>2016-09-08T08:55:58Z</time>
      </trkpt>
      <trkpt lat="45.90574" lon="4.79542">
        <ele>176</ele>
        <time>2016-09-08T08:55:59Z</time>
      </trkpt>
      <trkpt lat="45.90569" lon="4.79546">
        <ele>176</ele>
        <time>2016-09-08T08:56:00Z</time>
      </trkpt>
      <trkpt lat="45.90563" lon="4.79551">
        <ele>176</ele>
        <time>2016-09-08T08:56:01Z</time>
      </trkpt>
      <trkpt lat="45.90558" lon="4.79555">
        <ele>176</ele>
        <time>2016-09-08T08:56:02Z</time>
      </trkpt>
      <trkpt lat="45.90553" lon="4.79559">
        <ele>176</ele>
        <time>2016-09-08T08:56:03Z</time>
      </trkpt>
      <trkpt lat="45.90548" lon="4.79563">
        <ele>176</ele>
        <time>2016-09-08T08:56:04Z</time>
      </trkpt>
      <trkpt lat="45.90542" lon="4.79567">
        <ele>176</ele>
        <time>2016-09-08T08:56:05Z</time>
      </trkpt>
      <trkpt lat="45.90537" lon="4.79571">
        <ele>176</ele>
        <time>2016-09-08T08:56:06Z</time>
      </trkpt>
      <trkpt lat="45.90532" lon="4.79576">
        <ele>177</ele>
        <time>2016-09-08T08:56:07Z</time>
      </trkpt>
      <trkpt lat="45.90527" lon="4.7958">
        <ele>177</ele>
        <time>2016-09-08T08:56:08Z</time>
      </trkpt>
      <trkpt lat="45.90522" lon="4.79584">
        <ele>174</ele>
        <time>2016-09-08T08:56:09Z</time>
      </trkpt>
      <trkpt lat="45.90517" lon="4.79588">
        <ele>175</ele>
        <time>2016-09-08T08:56:10Z</time>
      </trkpt>
      <trkpt lat="45.90512" lon="4.79592">
        <ele>175</ele>
        <time>2016-09-08T08:56:11Z</time>
      </trkpt>
      <trkpt lat="45.90507" lon="4.79596">
        <ele>175</ele>
        <time>2016-09-08T08:56:12Z</time>
      </trkpt>
      <trkpt lat="45.90502" lon="4.79601">
        <ele>175</ele>
        <time>2016-09-08T08:56:13Z</time>
      </trkpt>
      <trkpt lat="45.90497" lon="4.79605">
        <ele>176</ele>
        <time>2016-09-08T08:56:14Z</time>
      </trkpt>
      <trkpt lat="45.90492" lon="4.7961">
        <ele>176</ele>
        <time>2016-09-08T08:56:15Z</time>
      </trkpt>
      <trkpt lat="45.90488" lon="4.79615">
        <ele>176</ele>
        <time>2016-09-08T08:56:16Z</time>
      </trkpt>
      <trkpt lat="45.90483" lon="4.79619">
        <ele>176</ele>
        <time>2016-09-08T08:56:17Z</time>
      </trkpt>
      <trkpt lat="45.90479" lon="4.79624">
        <ele>176</ele>
        <time>2016-09-08T08:56:18Z</time>
      </trkpt>
      <trkpt lat="45.90474" lon="4.79629">
        <ele>176</ele>
        <time>2016-09-08T08:56:19Z</time>
      </trkpt>
      <trkpt lat="45.90469" lon="4.79634">
        <ele>176</ele>
        <time>2016-09-08T08:56:20Z</time>
      </trkpt>
      <trkpt lat="45.90465" lon="4.79639">
        <ele>176</ele>
        <time>2016-09-08T08:56:21Z</time>
      </trkpt>
      <trkpt lat="45.9046" lon="4.79644">
        <ele>176</ele>
        <time>2016-09-08T08:56:22Z</time>
      </trkpt>
      <trkpt lat="45.90456" lon="4.79649">
        <ele>176</ele>
        <time>2016-09-08T08:56:23Z</time>
      </trkpt>
      <trkpt lat="45.90451" lon="4.79655">
        <ele>176</ele>
        <time>2016-09-08T08:56:24Z</time>
      </trkpt>
      <trkpt lat="45.90446" lon="4.79661">
        <ele>176</ele>
        <time>2016-09-08T08:56:25Z</time>
      </trkpt>
      <trkpt lat="45.90442" lon="4.79668">
        <ele>174</ele>
        <time>2016-09-08T08:56:26Z</time>
      </trkpt>
      <trkpt lat="45.90437" lon="4.79673">
        <ele>174</ele>
        <time>2016-09-08T08:56:27Z</time>
      </trkpt>
      <trkpt lat="45.90433" lon="4.79679">
        <ele>174</ele>
        <time>2016-09-08T08:56:28Z</time>
      </trkpt>
      <trkpt lat="45.90428" lon="4.79684">
        <ele>174</ele>
        <time>2016-09-08T08:56:29Z</time>
      </trkpt>
      <trkpt lat="45.90424" lon="4.7969">
        <ele>174</ele>
        <time>2016-09-08T08:56:30Z</time>
      </trkpt>
      <trkpt lat="45.90419" lon="4.79695">
        <ele>173</ele>
        <time>2016-09-08T08:56:31Z</time>
      </trkpt>
      <trkpt lat="45.90415" lon="4.79701">
        <ele>176</ele>
        <time>2016-09-08T08:56:32Z</time>
      </trkpt>
      <trkpt lat="45.9041" lon="4.79706">
        <ele>176</ele>
        <time>2016-09-08T08:56:33Z</time>
      </trkpt>
      <trkpt lat="45.90406" lon="4.79712">
        <ele>176</ele>
        <time>2016-09-08T08:56:34Z</time>
      </trkpt>
      <trkpt lat="45.90402" lon="4.79718">
        <ele>176</ele>
        <time>2016-09-08T08:56:35Z</time>
      </trkpt>
      <trkpt lat="45.90398" lon="4.79724">
        <ele>176</ele>
        <time>2016-09-08T08:56:36Z</time>
      </trkpt>
      <trkpt lat="45.90394" lon="4.7973">
        <ele>176</ele>
        <time>2016-09-08T08:56:37Z</time>
      </trkpt>
      <trkpt lat="45.90389" lon="4.79735">
        <ele>176</ele>
        <time>2016-09-08T08:56:38Z</time>
      </trkpt>
      <trkpt lat="45.90385" lon="4.7974">
        <ele>176</ele>
        <time>2016-09-08T08:56:39Z</time>
      </trkpt>
      <trkpt lat="45.90381" lon="4.79745">
        <ele>176</ele>
        <time>2016-09-08T08:56:40Z</time>
      </trkpt>
      <trkpt lat="45.90376" lon="4.79751">
        <ele>173</ele>
        <time>2016-09-08T08:56:41Z</time>
      </trkpt>
      <trkpt lat="45.90372" lon="4.79756">
        <ele>173</ele>
        <time>2016-09-08T08:56:42Z</time>
      </trkpt>
      <trkpt lat="45.90368" lon="4.79762">
        <ele>173</ele>
        <time>2016-09-08T08:56:43Z</time>
      </trkpt>
      <trkpt lat="45.90364" lon="4.79768">
        <ele>173</ele>
        <time>2016-09-08T08:56:44Z</time>
      </trkpt>
      <trkpt lat="45.9036" lon="4.79773">
        <ele>173</ele>
        <time>2016-09-08T08:56:45Z</time>
      </trkpt>
      <trkpt lat="45.90355" lon="4.79779">
        <ele>173</ele>
        <time>2016-09-08T08:56:46Z</time>
      </trkpt>
      <trkpt lat="45.90351" lon="4.79784">
        <ele>173</ele>
        <time>2016-09-08T08:56:47Z</time>
      </trkpt>
      <trkpt lat="45.90347" lon="4.79789">
        <ele>173</ele>
        <time>2016-09-08T08:56:48Z</time>
      </trkpt>
      <trkpt lat="45.90342" lon="4.79795">
        <ele>173</ele>
        <time>2016-09-08T08:56:49Z</time>
      </trkpt>
      <trkpt lat="45.90338" lon="4.79801">
        <ele>172</ele>
        <time>2016-09-08T08:56:50Z</time>
      </trkpt>
      <trkpt lat="45.90334" lon="4.79807">
        <ele>172</ele>
        <time>2016-09-08T08:56:51Z</time>
      </trkpt>
      <trkpt lat="45.90329" lon="4.79812">
        <ele>175</ele>
        <time>2016-09-08T08:56:52Z</time>
      </trkpt>
      <trkpt lat="45.90325" lon="4.79818">
        <ele>174</ele>
        <time>2016-09-08T08:56:53Z</time>
      </trkpt>
      <trkpt lat="45.9032" lon="4.79823">
        <ele>174</ele>
        <time>2016-09-08T08:56:54Z</time>
      </trkpt>
      <trkpt lat="45.90316" lon="4.7983">
        <ele>174</ele>
        <time>2016-09-08T08:56:55Z</time>
      </trkpt>
      <trkpt lat="45.90311" lon="4.79836">
        <ele>172</ele>
        <time>2016-09-08T08:56:56Z</time>
      </trkpt>
      <trkpt lat="45.90307" lon="4.79842">
        <ele>172</ele>
        <time>2016-09-08T08:56:57Z</time>
      </trkpt>
      <trkpt lat="45.90302" lon="4.79847">
        <ele>172</ele>
        <time>2016-09-08T08:56:58Z</time>
      </trkpt>
      <trkpt lat="45.90298" lon="4.79853">
        <ele>173</ele>
        <time>2016-09-08T08:56:59Z</time>
      </trkpt>
      <trkpt lat="45.90293" lon="4.79858">
        <ele>173</ele>
        <time>2016-09-08T08:57:00Z</time>
      </trkpt>
      <trkpt lat="45.90288" lon="4.79863">
        <ele>173</ele>
        <time>2016-09-08T08:57:01Z</time>
      </trkpt>
      <trkpt lat="45.90284" lon="4.79869">
        <ele>173</ele>
        <time>2016-09-08T08:57:02Z</time>
      </trkpt>
      <trkpt lat="45.90279" lon="4.79874">
        <ele>173</ele>
        <time>2016-09-08T08:57:03Z</time>
      </trkpt>
      <trkpt lat="45.90274" lon="4.79878">
        <ele>173</ele>
        <time>2016-09-08T08:57:04Z</time>
      </trkpt>
      <trkpt lat="45.90269" lon="4.79883">
        <ele>173</ele>
        <time>2016-09-08T08:57:05Z</time>
      </trkpt>
      <trkpt lat="45.90264" lon="4.79888">
        <ele>173</ele>
        <time>2016-09-08T08:57:06Z</time>
      </trkpt>
      <trkpt lat="45.90259" lon="4.79892">
        <ele>173</ele>
        <time>2016-09-08T08:57:07Z</time>
      </trkpt>
      <trkpt lat="45.90254" lon="4.79897">
        <ele>173</ele>
        <time>2016-09-08T08:57:08Z</time>
      </trkpt>
      <trkpt lat="45.90249" lon="4.79901">
        <ele>175</ele>
        <time>2016-09-08T08:57:09Z</time>
      </trkpt>
      <trkpt lat="45.90244" lon="4.79905">
        <ele>175</ele>
        <time>2016-09-08T08:57:10Z</time>
      </trkpt>
      <trkpt lat="45.90239" lon="4.79909">
        <ele>175</ele>
        <time>2016-09-08T08:57:11Z</time>
      </trkpt>
      <trkpt lat="45.90233" lon="4.79913">
        <ele>175</ele>
        <time>2016-09-08T08:57:12Z</time>
      </trkpt>
      <trkpt lat="45.90228" lon="4.79916">
        <ele>176</ele>
        <time>2016-09-08T08:57:13Z</time>
      </trkpt>
      <trkpt lat="45.90222" lon="4.79919">
        <ele>172</ele>
        <time>2016-09-08T08:57:14Z</time>
      </trkpt>
      <trkpt lat="45.90216" lon="4.79922">
        <ele>173</ele>
        <time>2016-09-08T08:57:15Z</time>
      </trkpt>
      <trkpt lat="45.9021" lon="4.79926">
        <ele>173</ele>
        <time>2016-09-08T08:57:16Z</time>
      </trkpt>
      <trkpt lat="45.90204" lon="4.79929">
        <ele>173</ele>
        <time>2016-09-08T08:57:17Z</time>
      </trkpt>
      <trkpt lat="45.90198" lon="4.79932">
        <ele>173</ele>
        <time>2016-09-08T08:57:18Z</time>
      </trkpt>
      <trkpt lat="45.90192" lon="4.79934">
        <ele>173</ele>
        <time>2016-09-08T08:57:19Z</time>
      </trkpt>
      <trkpt lat="45.90186" lon="4.79937">
        <ele>174</ele>
        <time>2016-09-08T08:57:20Z</time>
      </trkpt>
      <trkpt lat="45.9018" lon="4.7994">
        <ele>174</ele>
        <time>2016-09-08T08:57:21Z</time>
      </trkpt>
      <trkpt lat="45.90174" lon="4.79942">
        <ele>174</ele>
        <time>2016-09-08T08:57:22Z</time>
      </trkpt>
      <trkpt lat="45.90168" lon="4.79944">
        <ele>174</ele>
        <time>2016-09-08T08:57:23Z</time>
      </trkpt>
      <trkpt lat="45.90162" lon="4.79947">
        <ele>175</ele>
        <time>2016-09-08T08:57:24Z</time>
      </trkpt>
      <trkpt lat="45.90156" lon="4.7995">
        <ele>175</ele>
        <time>2016-09-08T08:57:25Z</time>
      </trkpt>
      <trkpt lat="45.9015" lon="4.79952">
        <ele>175</ele>
        <time>2016-09-08T08:57:26Z</time>
      </trkpt>
      <trkpt lat="45.90144" lon="4.79954">
        <ele>175</ele>
        <time>2016-09-08T08:57:27Z</time>
      </trkpt>
      <trkpt lat="45.90138" lon="4.79957">
        <ele>175</ele>
        <time>2016-09-08T08:57:28Z</time>
      </trkpt>
      <trkpt lat="45.90132" lon="4.79959">
        <ele>175</ele>
        <time>2016-09-08T08:57:29Z</time>
      </trkpt>
      <trkpt lat="45.90126" lon="4.79961">
        <ele>175</ele>
        <time>2016-09-08T08:57:30Z</time>
      </trkpt>
      <trkpt lat="45.9012" lon="4.79963">
        <ele>175</ele>
        <time>2016-09-08T08:57:31Z</time>
      </trkpt>
      <trkpt lat="45.90114" lon="4.79966">
        <ele>175</ele>
        <time>2016-09-08T08:57:32Z</time>
      </trkpt>
      <trkpt lat="45.90108" lon="4.79968">
        <ele>175</ele>
        <time>2016-09-08T08:57:33Z</time>
      </trkpt>
      <trkpt lat="45.90102" lon="4.79971">
        <ele>174</ele>
        <time>2016-09-08T08:57:34Z</time>
      </trkpt>
      <trkpt lat="45.90096" lon="4.79973">
        <ele>174</ele>
        <time>2016-09-08T08:57:35Z</time>
      </trkpt>
      <trkpt lat="45.9009" lon="4.79975">
        <ele>174</ele>
        <time>2016-09-08T08:57:36Z</time>
      </trkpt>
      <trkpt lat="45.90084" lon="4.79978">
        <ele>174</ele>
        <time>2016-09-08T08:57:37Z</time>
      </trkpt>
      <trkpt lat="45.90078" lon="4.7998">
        <ele>175</ele>
        <time>2016-09-08T08:57:38Z</time>
      </trkpt>
      <trkpt lat="45.90072" lon="4.79983">
        <ele>175</ele>
        <time>2016-09-08T08:57:39Z</time>
      </trkpt>
      <trkpt lat="45.90065" lon="4.79985">
        <ele>175</ele>
        <time>2016-09-08T08:57:40Z</time>
      </trkpt>
      <trkpt lat="45.90059" lon="4.79988">
        <ele>175</ele>
        <time>2016-09-08T08:57:41Z</time>
      </trkpt>
      <trkpt lat="45.90053" lon="4.7999">
        <ele>175</ele>
        <time>2016-09-08T08:57:42Z</time>
      </trkpt>
      <trkpt lat="45.90047" lon="4.79992">
        <ele>175</ele>
        <time>2016-09-08T08:57:43Z</time>
      </trkpt>
      <trkpt lat="45.9004" lon="4.79995">
        <ele>175</ele>
        <time>2016-09-08T08:57:44Z</time>
      </trkpt>
      <trkpt lat="45.90034" lon="4.79998">
        <ele>175</ele>
        <time>2016-09-08T08:57:45Z</time>
      </trkpt>
      <trkpt lat="45.90027" lon="4.8">
        <ele>175</ele>
        <time>2016-09-08T08:57:46Z</time>
      </trkpt>
      <trkpt lat="45.90022" lon="4.80003">
        <ele>171</ele>
        <time>2016-09-08T08:57:47Z</time>
      </trkpt>
      <trkpt lat="45.90016" lon="4.80006">
        <ele>171</ele>
        <time>2016-09-08T08:57:48Z</time>
      </trkpt>
      <trkpt lat="45.9001" lon="4.8001">
        <ele>171</ele>
        <time>2016-09-08T08:57:49Z</time>
      </trkpt>
      <trkpt lat="45.90004" lon="4.80013">
        <ele>171</ele>
        <time>2016-09-08T08:57:50Z</time>
      </trkpt>
      <trkpt lat="45.89999" lon="4.80015">
        <ele>171</ele>
        <time>2016-09-08T08:57:51Z</time>
      </trkpt>
      <trkpt lat="45.89993" lon="4.80018">
        <ele>171</ele>
        <time>2016-09-08T08:57:52Z</time>
      </trkpt>
      <trkpt lat="45.89987" lon="4.8002">
        <ele>171</ele>
        <time>2016-09-08T08:57:53Z</time>
      </trkpt>
      <trkpt lat="45.89981" lon="4.80023">
        <ele>171</ele>
        <time>2016-09-08T08:57:54Z</time>
      </trkpt>
      <trkpt lat="45.89975" lon="4.80026">
        <ele>171</ele>
        <time>2016-09-08T08:57:55Z</time>
      </trkpt>
      <trkpt lat="45.89969" lon="4.80029">
        <ele>170</ele>
        <time>2016-09-08T08:57:56Z</time>
      </trkpt>
      <trkpt lat="45.89962" lon="4.80032">
        <ele>170</ele>
        <time>2016-09-08T08:57:57Z</time>
      </trkpt>
      <trkpt lat="45.89956" lon="4.80035">
        <ele>170</ele>
        <time>2016-09-08T08:57:58Z</time>
      </trkpt>
      <trkpt lat="45.8995" lon="4.80038">
        <ele>170</ele>
        <time>2016-09-08T08:57:59Z</time>
      </trkpt>
      <trkpt lat="45.89944" lon="4.8004">
        <ele>170</ele>
        <time>2016-09-08T08:58:00Z</time>
      </trkpt>
      <trkpt lat="45.89938" lon="4.80043">
        <ele>170</ele>
        <time>2016-09-08T08:58:01Z</time>
      </trkpt>
      <trkpt lat="45.89932" lon="4.80046">
        <ele>170</ele>
        <time>2016-09-08T08:58:02Z</time>
      </trkpt>
      <trkpt lat="45.89926" lon="4.80048">
        <ele>170</ele>
        <time>2016-09-08T08:58:03Z</time>
      </trkpt>
      <trkpt lat="45.8992" lon="4.80051">
        <ele>170</ele>
        <time>2016-09-08T08:58:04Z</time>
      </trkpt>
      <trkpt lat="45.89914" lon="4.80053">
        <ele>171</ele>
        <time>2016-09-08T08:58:05Z</time>
      </trkpt>
      <trkpt lat="45.89909" lon="4.80055">
        <ele>170</ele>
        <time>2016-09-08T08:58:06Z</time>
      </trkpt>
      <trkpt lat="45.89904" lon="4.80058">
        <ele>170</ele>
        <time>2016-09-08T08:58:07Z</time>
      </trkpt>
      <trkpt lat="45.89898" lon="4.8006">
        <ele>170</ele>
        <time>2016-09-08T08:58:08Z</time>
      </trkpt>
      <trkpt lat="45.89893" lon="4.80062">
        <ele>170</ele>
        <time>2016-09-08T08:58:09Z</time>
      </trkpt>
      <trkpt lat="45.89887" lon="4.80064">
        <ele>170</ele>
        <time>2016-09-08T08:58:10Z</time>
      </trkpt>
      <trkpt lat="45.89881" lon="4.80067">
        <ele>170</ele>
        <time>2016-09-08T08:58:11Z</time>
      </trkpt>
      <trkpt lat="45.89875" lon="4.80069">
        <ele>170</ele>
        <time>2016-09-08T08:58:12Z</time>
      </trkpt>
      <trkpt lat="45.89869" lon="4.8007">
        <ele>170</ele>
        <time>2016-09-08T08:58:13Z</time>
      </trkpt>
      <trkpt lat="45.89864" lon="4.80072">
        <ele>170</ele>
        <time>2016-09-08T08:58:14Z</time>
      </trkpt>
      <trkpt lat="45.89858" lon="4.80075">
        <ele>170</ele>
        <time>2016-09-08T08:58:15Z</time>
      </trkpt>
      <trkpt lat="45.89852" lon="4.80077">
        <ele>170</ele>
        <time>2016-09-08T08:58:16Z</time>
      </trkpt>
      <trkpt lat="45.89846" lon="4.80079">
        <ele>170</ele>
        <time>2016-09-08T08:58:17Z</time>
      </trkpt>
      <trkpt lat="45.8984" lon="4.80082">
        <ele>170</ele>
        <time>2016-09-08T08:58:18Z</time>
      </trkpt>
      <trkpt lat="45.89834" lon="4.80084">
        <ele>170</ele>
        <time>2016-09-08T08:58:19Z</time>
      </trkpt>
      <trkpt lat="45.89828" lon="4.80086">
        <ele>170</ele>
        <time>2016-09-08T08:58:20Z</time>
      </trkpt>
      <trkpt lat="45.89822" lon="4.80088">
        <ele>170</ele>
        <time>2016-09-08T08:58:21Z</time>
      </trkpt>
      <trkpt lat="45.89816" lon="4.80091">
        <ele>169</ele>
        <time>2016-09-08T08:58:22Z</time>
      </trkpt>
      <trkpt lat="45.8981" lon="4.80093">
        <ele>169</ele>
        <time>2016-09-08T08:58:23Z</time>
      </trkpt>
      <trkpt lat="45.89804" lon="4.80096">
        <ele>169</ele>
        <time>2016-09-08T08:58:24Z</time>
      </trkpt>
      <trkpt lat="45.89798" lon="4.80098">
        <ele>169</ele>
        <time>2016-09-08T08:58:25Z</time>
      </trkpt>
      <trkpt lat="45.89792" lon="4.80101">
        <ele>169</ele>
        <time>2016-09-08T08:58:26Z</time>
      </trkpt>
      <trkpt lat="45.89786" lon="4.80103">
        <ele>169</ele>
        <time>2016-09-08T08:58:27Z</time>
      </trkpt>
      <trkpt lat="45.8978" lon="4.80104">
        <ele>169</ele>
        <time>2016-09-08T08:58:28Z</time>
      </trkpt>
      <trkpt lat="45.89775" lon="4.80107">
        <ele>169</ele>
        <time>2016-09-08T08:58:29Z</time>
      </trkpt>
      <trkpt lat="45.89769" lon="4.8011">
        <ele>169</ele>
        <time>2016-09-08T08:58:30Z</time>
      </trkpt>
      <trkpt lat="45.89764" lon="4.80113">
        <ele>169</ele>
        <time>2016-09-08T08:58:31Z</time>
      </trkpt>
      <trkpt lat="45.89758" lon="4.80115">
        <ele>169</ele>
        <time>2016-09-08T08:58:32Z</time>
      </trkpt>
      <trkpt lat="45.89753" lon="4.80117">
        <ele>169</ele>
        <time>2016-09-08T08:58:33Z</time>
      </trkpt>
      <trkpt lat="45.89747" lon="4.80119">
        <ele>170</ele>
        <time>2016-09-08T08:58:34Z</time>
      </trkpt>
      <trkpt lat="45.89741" lon="4.80121">
        <ele>170</ele>
        <time>2016-09-08T08:58:35Z</time>
      </trkpt>
      <trkpt lat="45.89736" lon="4.80124">
        <ele>171</ele>
        <time>2016-09-08T08:58:36Z</time>
      </trkpt>
      <trkpt lat="45.8973" lon="4.80126">
        <ele>171</ele>
        <time>2016-09-08T08:58:37Z</time>
      </trkpt>
      <trkpt lat="45.89724" lon="4.80128">
        <ele>171</ele>
        <time>2016-09-08T08:58:38Z</time>
      </trkpt>
      <trkpt lat="45.89719" lon="4.80131">
        <ele>171</ele>
        <time>2016-09-08T08:58:39Z</time>
      </trkpt>
      <trkpt lat="45.89713" lon="4.80134">
        <ele>171</ele>
        <time>2016-09-08T08:58:40Z</time>
      </trkpt>
      <trkpt lat="45.89708" lon="4.80137">
        <ele>171</ele>
        <time>2016-09-08T08:58:41Z</time>
      </trkpt>
      <trkpt lat="45.89702" lon="4.80139">
        <ele>171</ele>
        <time>2016-09-08T08:58:42Z</time>
      </trkpt>
      <trkpt lat="45.89698" lon="4.80141">
        <ele>171</ele>
        <time>2016-09-08T08:58:43Z</time>
      </trkpt>
      <trkpt lat="45.89693" lon="4.80144">
        <ele>172</ele>
        <time>2016-09-08T08:58:44Z</time>
      </trkpt>
      <trkpt lat="45.89688" lon="4.80147">
        <ele>172</ele>
        <time>2016-09-08T08:58:45Z</time>
      </trkpt>
      <trkpt lat="45.89682" lon="4.8015">
        <ele>172</ele>
        <time>2016-09-08T08:58:46Z</time>
      </trkpt>
      <trkpt lat="45.89677" lon="4.80153">
        <ele>172</ele>
        <time>2016-09-08T08:58:47Z</time>
      </trkpt>
      <trkpt lat="45.89672" lon="4.80155">
        <ele>172</ele>
        <time>2016-09-08T08:58:48Z</time>
      </trkpt>
      <trkpt lat="45.89666" lon="4.80157">
        <ele>173</ele>
        <time>2016-09-08T08:58:49Z</time>
      </trkpt>
      <trkpt lat="45.8966" lon="4.80159">
        <ele>173</ele>
        <time>2016-09-08T08:58:50Z</time>
      </trkpt>
      <trkpt lat="45.89654" lon="4.80161">
        <ele>173</ele>
        <time>2016-09-08T08:58:51Z</time>
      </trkpt>
      <trkpt lat="45.89647" lon="4.80163">
        <ele>173</ele>
        <time>2016-09-08T08:58:52Z</time>
      </trkpt>
      <trkpt lat="45.89641" lon="4.80164">
        <ele>173</ele>
        <time>2016-09-08T08:58:53Z</time>
      </trkpt>
      <trkpt lat="45.89635" lon="4.80167">
        <ele>173</ele>
        <time>2016-09-08T08:58:54Z</time>
      </trkpt>
      <trkpt lat="45.89628" lon="4.80169">
        <ele>172</ele>
        <time>2016-09-08T08:58:55Z</time>
      </trkpt>
      <trkpt lat="45.89622" lon="4.80171">
        <ele>172</ele>
        <time>2016-09-08T08:58:56Z</time>
      </trkpt>
      <trkpt lat="45.89616" lon="4.80173">
        <ele>172</ele>
        <time>2016-09-08T08:58:57Z</time>
      </trkpt>
      <trkpt lat="45.8961" lon="4.80175">
        <ele>172</ele>
        <time>2016-09-08T08:58:58Z</time>
      </trkpt>
      <trkpt lat="45.89604" lon="4.80177">
        <ele>172</ele>
        <time>2016-09-08T08:58:59Z</time>
      </trkpt>
      <trkpt lat="45.89598" lon="4.80181">
        <ele>172</ele>
        <time>2016-09-08T08:59:00Z</time>
      </trkpt>
      <trkpt lat="45.89593" lon="4.80186">
        <ele>172</ele>
        <time>2016-09-08T08:59:01Z</time>
      </trkpt>
      <trkpt lat="45.89587" lon="4.80189">
        <ele>172</ele>
        <time>2016-09-08T08:59:02Z</time>
      </trkpt>
      <trkpt lat="45.89581" lon="4.80192">
        <ele>173</ele>
        <time>2016-09-08T08:59:03Z</time>
      </trkpt>
      <trkpt lat="45.89575" lon="4.80195">
        <ele>173</ele>
        <time>2016-09-08T08:59:04Z</time>
      </trkpt>
      <trkpt lat="45.8957" lon="4.80198">
        <ele>173</ele>
        <time>2016-09-08T08:59:05Z</time>
      </trkpt>
      <trkpt lat="45.89564" lon="4.80202">
        <ele>173</ele>
        <time>2016-09-08T08:59:06Z</time>
      </trkpt>
      <trkpt lat="45.89559" lon="4.80205">
        <ele>173</ele>
        <time>2016-09-08T08:59:07Z</time>
      </trkpt>
      <trkpt lat="45.89552" lon="4.80208">
        <ele>173</ele>
        <time>2016-09-08T08:59:08Z</time>
      </trkpt>
      <trkpt lat="45.89546" lon="4.8021">
        <ele>173</ele>
        <time>2016-09-08T08:59:09Z</time>
      </trkpt>
      <trkpt lat="45.89539" lon="4.80213">
        <ele>173</ele>
        <time>2016-09-08T08:59:10Z</time>
      </trkpt>
      <trkpt lat="45.89534" lon="4.80215">
        <ele>173</ele>
        <time>2016-09-08T08:59:11Z</time>
      </trkpt>
      <trkpt lat="45.89528" lon="4.80218">
        <ele>173</ele>
        <time>2016-09-08T08:59:12Z</time>
      </trkpt>
      <trkpt lat="45.89522" lon="4.80221">
        <ele>173</ele>
        <time>2016-09-08T08:59:13Z</time>
      </trkpt>
      <trkpt lat="45.89517" lon="4.80223">
        <ele>173</ele>
        <time>2016-09-08T08:59:14Z</time>
      </trkpt>
      <trkpt lat="45.89511" lon="4.80225">
        <ele>173</ele>
        <time>2016-09-08T08:59:15Z</time>
      </trkpt>
      <trkpt lat="45.89505" lon="4.80228">
        <ele>173</ele>
        <time>2016-09-08T08:59:16Z</time>
      </trkpt>
      <trkpt lat="45.89501" lon="4.8023">
        <ele>173</ele>
        <time>2016-09-08T08:59:17Z</time>
      </trkpt>
      <trkpt lat="45.89495" lon="4.80232">
        <ele>175</ele>
        <time>2016-09-08T08:59:18Z</time>
      </trkpt>
      <trkpt lat="45.8949" lon="4.80235">
        <ele>175</ele>
        <time>2016-09-08T08:59:19Z</time>
      </trkpt>
      <trkpt lat="45.89485" lon="4.80237">
        <ele>175</ele>
        <time>2016-09-08T08:59:20Z</time>
      </trkpt>
      <trkpt lat="45.8948" lon="4.80239">
        <ele>175</ele>
        <time>2016-09-08T08:59:21Z</time>
      </trkpt>
      <trkpt lat="45.89475" lon="4.80241">
        <ele>176</ele>
        <time>2016-09-08T08:59:22Z</time>
      </trkpt>
      <trkpt lat="45.89469" lon="4.80243">
        <ele>176</ele>
        <time>2016-09-08T08:59:23Z</time>
      </trkpt>
      <trkpt lat="45.89464" lon="4.80245">
        <ele>176</ele>
        <time>2016-09-08T08:59:24Z</time>
      </trkpt>
      <trkpt lat="45.89458" lon="4.80247">
        <ele>177</ele>
        <time>2016-09-08T08:59:25Z</time>
      </trkpt>
      <trkpt lat="45.89453" lon="4.80249">
        <ele>177</ele>
        <time>2016-09-08T08:59:26Z</time>
      </trkpt>
      <trkpt lat="45.89448" lon="4.80251">
        <ele>175</ele>
        <time>2016-09-08T08:59:27Z</time>
      </trkpt>
      <trkpt lat="45.89442" lon="4.80253">
        <ele>175</ele>
        <time>2016-09-08T08:59:28Z</time>
      </trkpt>
      <trkpt lat="45.89437" lon="4.80256">
        <ele>176</ele>
        <time>2016-09-08T08:59:29Z</time>
      </trkpt>
      <trkpt lat="45.8943" lon="4.80259">
        <ele>176</ele>
        <time>2016-09-08T08:59:30Z</time>
      </trkpt>
      <trkpt lat="45.89424" lon="4.80263">
        <ele>176</ele>
        <time>2016-09-08T08:59:31Z</time>
      </trkpt>
      <trkpt lat="45.89418" lon="4.80266">
        <ele>176</ele>
        <time>2016-09-08T08:59:32Z</time>
      </trkpt>
      <trkpt lat="45.89413" lon="4.80269">
        <ele>177</ele>
        <time>2016-09-08T08:59:33Z</time>
      </trkpt>
      <trkpt lat="45.89407" lon="4.80273">
        <ele>177</ele>
        <time>2016-09-08T08:59:34Z</time>
      </trkpt>
      <trkpt lat="45.89401" lon="4.80277">
        <ele>177</ele>
        <time>2016-09-08T08:59:35Z</time>
      </trkpt>
      <trkpt lat="45.89395" lon="4.8028">
        <ele>177</ele>
        <time>2016-09-08T08:59:36Z</time>
      </trkpt>
      <trkpt lat="45.8939" lon="4.80284">
        <ele>177</ele>
        <time>2016-09-08T08:59:37Z</time>
      </trkpt>
      <trkpt lat="45.89384" lon="4.80288">
        <ele>177</ele>
        <time>2016-09-08T08:59:38Z</time>
      </trkpt>
      <trkpt lat="45.89379" lon="4.80291">
        <ele>176</ele>
        <time>2016-09-08T08:59:39Z</time>
      </trkpt>
      <trkpt lat="45.89373" lon="4.80295">
        <ele>176</ele>
        <time>2016-09-08T08:59:40Z</time>
      </trkpt>
      <trkpt lat="45.89368" lon="4.80298">
        <ele>176</ele>
        <time>2016-09-08T08:59:41Z</time>
      </trkpt>
      <trkpt lat="45.89363" lon="4.80302">
        <ele>176</ele>
        <time>2016-09-08T08:59:42Z</time>
      </trkpt>
      <trkpt lat="45.89358" lon="4.80306">
        <ele>176</ele>
        <time>2016-09-08T08:59:43Z</time>
      </trkpt>
      <trkpt lat="45.89353" lon="4.8031">
        <ele>176</ele>
        <time>2016-09-08T08:59:44Z</time>
      </trkpt>
      <trkpt lat="45.89347" lon="4.80314">
        <ele>176</ele>
        <time>2016-09-08T08:59:45Z</time>
      </trkpt>
      <trkpt lat="45.89342" lon="4.80318">
        <ele>176</ele>
        <time>2016-09-08T08:59:46Z</time>
      </trkpt>
      <trkpt lat="45.89337" lon="4.80323">
        <ele>176</ele>
        <time>2016-09-08T08:59:47Z</time>
      </trkpt>
      <trkpt lat="45.89332" lon="4.80327">
        <ele>176</ele>
        <time>2016-09-08T08:59:48Z</time>
      </trkpt>
      <trkpt lat="45.89326" lon="4.80332">
        <ele>176</ele>
        <time>2016-09-08T08:59:49Z</time>
      </trkpt>
      <trkpt lat="45.89321" lon="4.80336">
        <ele>175</ele>
        <time>2016-09-08T08:59:50Z</time>
      </trkpt>
      <trkpt lat="45.89315" lon="4.80341">
        <ele>175</ele>
        <time>2016-09-08T08:59:51Z</time>
      </trkpt>
      <trkpt lat="45.8931" lon="4.80346">
        <ele>175</ele>
        <time>2016-09-08T08:59:52Z</time>
      </trkpt>
      <trkpt lat="45.89304" lon="4.8035">
        <ele>175</ele>
        <time>2016-09-08T08:59:53Z</time>
      </trkpt>
      <trkpt lat="45.893" lon="4.80355">
        <ele>175</ele>
        <time>2016-09-08T08:59:54Z</time>
      </trkpt>
      <trkpt lat="45.89294" lon="4.80359">
        <ele>175</ele>
        <time>2016-09-08T08:59:55Z</time>
      </trkpt>
      <trkpt lat="45.89289" lon="4.80364">
        <ele>175</ele>
        <time>2016-09-08T08:59:56Z</time>
      </trkpt>
      <trkpt lat="45.89284" lon="4.80368">
        <ele>175</ele>
        <time>2016-09-08T08:59:57Z</time>
      </trkpt>
      <trkpt lat="45.89279" lon="4.80372">
        <ele>175</ele>
        <time>2016-09-08T08:59:58Z</time>
      </trkpt>
      <trkpt lat="45.89274" lon="4.80377">
        <ele>175</ele>
        <time>2016-09-08T08:59:59Z</time>
      </trkpt>
      <trkpt lat="45.89269" lon="4.80382">
        <ele>174</ele>
        <time>2016-09-08T09:00:00Z</time>
      </trkpt>
      <trkpt lat="45.89264" lon="4.80387">
        <ele>174</ele>
        <time>2016-09-08T09:00:01Z</time>
      </trkpt>
      <trkpt lat="45.89259" lon="4.80392">
        <ele>174</ele>
        <time>2016-09-08T09:00:02Z</time>
      </trkpt>
      <trkpt lat="45.89255" lon="4.80397">
        <ele>174</ele>
        <time>2016-09-08T09:00:03Z</time>
      </trkpt>
      <trkpt lat="45.8925" lon="4.80402">
        <ele>175</ele>
        <time>2016-09-08T09:00:04Z</time>
      </trkpt>
      <trkpt lat="45.89245" lon="4.80407">
        <ele>175</ele>
        <time>2016-09-08T09:00:05Z</time>
      </trkpt>
      <trkpt lat="45.89241" lon="4.80412">
        <ele>175</ele>
        <time>2016-09-08T09:00:06Z</time>
      </trkpt>
      <trkpt lat="45.89236" lon="4.80416">
        <ele>175</ele>
        <time>2016-09-08T09:00:07Z</time>
      </trkpt>
      <trkpt lat="45.89231" lon="4.8042">
        <ele>173</ele>
        <time>2016-09-08T09:00:08Z</time>
      </trkpt>
      <trkpt lat="45.89227" lon="4.80425">
        <ele>174</ele>
        <time>2016-09-08T09:00:09Z</time>
      </trkpt>
      <trkpt lat="45.89222" lon="4.8043">
        <ele>174</ele>
        <time>2016-09-08T09:00:10Z</time>
      </trkpt>
      <trkpt lat="45.89217" lon="4.80435">
        <ele>174</ele>
        <time>2016-09-08T09:00:11Z</time>
      </trkpt>
      <trkpt lat="45.89213" lon="4.80439">
        <ele>174</ele>
        <time>2016-09-08T09:00:12Z</time>
      </trkpt>
      <trkpt lat="45.89208" lon="4.80444">
        <ele>174</ele>
        <time>2016-09-08T09:00:13Z</time>
      </trkpt>
      <trkpt lat="45.89203" lon="4.80449">
        <ele>174</ele>
        <time>2016-09-08T09:00:14Z</time>
      </trkpt>
      <trkpt lat="45.89197" lon="4.80453">
        <ele>174</ele>
        <time>2016-09-08T09:00:15Z</time>
      </trkpt>
      <trkpt lat="45.89192" lon="4.80458">
        <ele>174</ele>
        <time>2016-09-08T09:00:16Z</time>
      </trkpt>
      <trkpt lat="45.89187" lon="4.80463">
        <ele>174</ele>
        <time>2016-09-08T09:00:17Z</time>
      </trkpt>
      <trkpt lat="45.89182" lon="4.80467">
        <ele>174</ele>
        <time>2016-09-08T09:00:18Z</time>
      </trkpt>
      <trkpt lat="45.89177" lon="4.80472">
        <ele>174</ele>
        <time>2016-09-08T09:00:19Z</time>
      </trkpt>
      <trkpt lat="45.89171" lon="4.80476">
        <ele>174</ele>
        <time>2016-09-08T09:00:20Z</time>
      </trkpt>
      <trkpt lat="45.89166" lon="4.8048">
        <ele>175</ele>
        <time>2016-09-08T09:00:21Z</time>
      </trkpt>
      <trkpt lat="45.8916" lon="4.80484">
        <ele>175</ele>
        <time>2016-09-08T09:00:22Z</time>
      </trkpt>
      <trkpt lat="45.89155" lon="4.80488">
        <ele>175</ele>
        <time>2016-09-08T09:00:23Z</time>
      </trkpt>
      <trkpt lat="45.89149" lon="4.80491">
        <ele>175</ele>
        <time>2016-09-08T09:00:24Z</time>
      </trkpt>
      <trkpt lat="45.89144" lon="4.80494">
        <ele>176</ele>
        <time>2016-09-08T09:00:25Z</time>
      </trkpt>
      <trkpt lat="45.89138" lon="4.80497">
        <ele>176</ele>
        <time>2016-09-08T09:00:26Z</time>
      </trkpt>
      <trkpt lat="45.89132" lon="4.805">
        <ele>176</ele>
        <time>2016-09-08T09:00:27Z</time>
      </trkpt>
      <trkpt lat="45.89127" lon="4.80502">
        <ele>173</ele>
        <time>2016-09-08T09:00:28Z</time>
      </trkpt>
      <trkpt lat="45.89121" lon="4.80505">
        <ele>173</ele>
        <time>2016-09-08T09:00:29Z</time>
      </trkpt>
      <trkpt lat="45.89115" lon="4.80508">
        <ele>173</ele>
        <time>2016-09-08T09:00:30Z</time>
      </trkpt>
      <trkpt lat="45.89109" lon="4.8051">
        <ele>173</ele>
        <time>2016-09-08T09:00:31Z</time>
      </trkpt>
      <trkpt lat="45.89103" lon="4.80513">
        <ele>174</ele>
        <time>2016-09-08T09:00:32Z</time>
      </trkpt>
      <trkpt lat="45.89096" lon="4.80515">
        <ele>174</ele>
        <time>2016-09-08T09:00:33Z</time>
      </trkpt>
      <trkpt lat="45.8909" lon="4.80517">
        <ele>174</ele>
        <time>2016-09-08T09:00:34Z</time>
      </trkpt>
      <trkpt lat="45.89084" lon="4.80519">
        <ele>174</ele>
        <time>2016-09-08T09:00:35Z</time>
      </trkpt>
      <trkpt lat="45.89079" lon="4.80521">
        <ele>174</ele>
        <time>2016-09-08T09:00:36Z</time>
      </trkpt>
      <trkpt lat="45.89073" lon="4.80523">
        <ele>174</ele>
        <time>2016-09-08T09:00:37Z</time>
      </trkpt>
      <trkpt lat="45.89068" lon="4.80524">
        <ele>174</ele>
        <time>2016-09-08T09:00:38Z</time>
      </trkpt>
      <trkpt lat="45.89063" lon="4.80526">
        <ele>174</ele>
        <time>2016-09-08T09:00:39Z</time>
      </trkpt>
      <trkpt lat="45.89057" lon="4.80527">
        <ele>174</ele>
        <time>2016-09-08T09:00:40Z</time>
      </trkpt>
      <trkpt lat="45.89051" lon="4.80529">
        <ele>173</ele>
        <time>2016-09-08T09:00:41Z</time>
      </trkpt>
      <trkpt lat="45.89046" lon="4.80531">
        <ele>173</ele>
        <time>2016-09-08T09:00:42Z</time>
      </trkpt>
      <trkpt lat="45.8904" lon="4.80533">
        <ele>173</ele>
        <time>2016-09-08T09:00:43Z</time>
      </trkpt>
      <trkpt lat="45.89035" lon="4.80535">
        <ele>173</ele>
        <time>2016-09-08T09:00:44Z</time>
      </trkpt>
      <trkpt lat="45.89029" lon="4.80538">
        <ele>173</ele>
        <time>2016-09-08T09:00:45Z</time>
      </trkpt>
      <trkpt lat="45.89023" lon="4.8054">
        <ele>173</ele>
        <time>2016-09-08T09:00:46Z</time>
      </trkpt>
      <trkpt lat="45.89018" lon="4.80542">
        <ele>173</ele>
        <time>2016-09-08T09:00:47Z</time>
      </trkpt>
      <trkpt lat="45.89012" lon="4.80545">
        <ele>173</ele>
        <time>2016-09-08T09:00:48Z</time>
      </trkpt>
      <trkpt lat="45.89006" lon="4.80547">
        <ele>173</ele>
        <time>2016-09-08T09:00:49Z</time>
      </trkpt>
      <trkpt lat="45.89" lon="4.80548">
        <ele>173</ele>
        <time>2016-09-08T09:00:50Z</time>
      </trkpt>
      <trkpt lat="45.88995" lon="4.8055">
        <ele>173</ele>
        <time>2016-09-08T09:00:51Z</time>
      </trkpt>
      <trkpt lat="45.88989" lon="4.80551">
        <ele>173</ele>
        <time>2016-09-08T09:00:52Z</time>
      </trkpt>
      <trkpt lat="45.88984" lon="4.80552">
        <ele>173</ele>
        <time>2016-09-08T09:00:53Z</time>
      </trkpt>
      <trkpt lat="45.88978" lon="4.80554">
        <ele>173</ele>
        <time>2016-09-08T09:00:54Z</time>
      </trkpt>
      <trkpt lat="45.88972" lon="4.80555">
        <ele>173</ele>
        <time>2016-09-08T09:00:55Z</time>
      </trkpt>
      <trkpt lat="45.88967" lon="4.80556">
        <ele>173</ele>
        <time>2016-09-08T09:00:56Z</time>
      </trkpt>
      <trkpt lat="45.88962" lon="4.80558">
        <ele>173</ele>
        <time>2016-09-08T09:00:57Z</time>
      </trkpt>
      <trkpt lat="45.88956" lon="4.80558">
        <ele>173</ele>
        <time>2016-09-08T09:00:58Z</time>
      </trkpt>
      <trkpt lat="45.8895" lon="4.80558">
        <ele>173</ele>
        <time>2016-09-08T09:00:59Z</time>
      </trkpt>
      <trkpt lat="45.88945" lon="4.80558">
        <ele>173</ele>
        <time>2016-09-08T09:01:00Z</time>
      </trkpt>
      <trkpt lat="45.8894" lon="4.8056">
        <ele>173</ele>
        <time>2016-09-08T09:01:01Z</time>
      </trkpt>
      <trkpt lat="45.88935" lon="4.80562">
        <ele>172</ele>
        <time>2016-09-08T09:01:02Z</time>
      </trkpt>
      <trkpt lat="45.88931" lon="4.80569">
        <ele>172</ele>
        <time>2016-09-08T09:01:03Z</time>
      </trkpt>
      <trkpt lat="45.88927" lon="4.80575">
        <ele>172</ele>
        <time>2016-09-08T09:01:04Z</time>
      </trkpt>
      <trkpt lat="45.88923" lon="4.80579">
        <ele>172</ele>
        <time>2016-09-08T09:01:05Z</time>
      </trkpt>
      <trkpt lat="45.88918" lon="4.80583">
        <ele>171</ele>
        <time>2016-09-08T09:01:06Z</time>
      </trkpt>
      <trkpt lat="45.88914" lon="4.80587">
        <ele>171</ele>
        <time>2016-09-08T09:01:07Z</time>
      </trkpt>
      <trkpt lat="45.88909" lon="4.80591">
        <ele>171</ele>
        <time>2016-09-08T09:01:08Z</time>
      </trkpt>
      <trkpt lat="45.88904" lon="4.80596">
        <ele>172</ele>
        <time>2016-09-08T09:01:09Z</time>
      </trkpt>
      <trkpt lat="45.88899" lon="4.806">
        <ele>172</ele>
        <time>2016-09-08T09:01:10Z</time>
      </trkpt>
      <trkpt lat="45.88893" lon="4.80603">
        <ele>172</ele>
        <time>2016-09-08T09:01:11Z</time>
      </trkpt>
      <trkpt lat="45.88888" lon="4.80607">
        <ele>172</ele>
        <time>2016-09-08T09:01:12Z</time>
      </trkpt>
      <trkpt lat="45.88882" lon="4.8061">
        <ele>172</ele>
        <time>2016-09-08T09:01:13Z</time>
      </trkpt>
      <trkpt lat="45.88877" lon="4.80614">
        <ele>172</ele>
        <time>2016-09-08T09:01:14Z</time>
      </trkpt>
      <trkpt lat="45.88871" lon="4.80618">
        <ele>172</ele>
        <time>2016-09-08T09:01:15Z</time>
      </trkpt>
      <trkpt lat="45.88866" lon="4.80622">
        <ele>173</ele>
        <time>2016-09-08T09:01:16Z</time>
      </trkpt>
      <trkpt lat="45.88861" lon="4.80626">
        <ele>173</ele>
        <time>2016-09-08T09:01:17Z</time>
      </trkpt>
      <trkpt lat="45.88856" lon="4.80631">
        <ele>173</ele>
        <time>2016-09-08T09:01:18Z</time>
      </trkpt>
      <trkpt lat="45.8885" lon="4.80636">
        <ele>173</ele>
        <time>2016-09-08T09:01:19Z</time>
      </trkpt>
      <trkpt lat="45.88845" lon="4.8064">
        <ele>173</ele>
        <time>2016-09-08T09:01:20Z</time>
      </trkpt>
      <trkpt lat="45.8884" lon="4.80645">
        <ele>173</ele>
        <time>2016-09-08T09:01:21Z</time>
      </trkpt>
      <trkpt lat="45.88835" lon="4.80649">
        <ele>173</ele>
        <time>2016-09-08T09:01:22Z</time>
      </trkpt>
      <trkpt lat="45.8883" lon="4.80654">
        <ele>174</ele>
        <time>2016-09-08T09:01:23Z</time>
      </trkpt>
      <trkpt lat="45.88825" lon="4.80658">
        <ele>174</ele>
        <time>2016-09-08T09:01:24Z</time>
      </trkpt>
      <trkpt lat="45.8882" lon="4.80663">
        <ele>174</ele>
        <time>2016-09-08T09:01:25Z</time>
      </trkpt>
      <trkpt lat="45.88815" lon="4.80667">
        <ele>172</ele>
        <time>2016-09-08T09:01:26Z</time>
      </trkpt>
      <trkpt lat="45.88811" lon="4.80672">
        <ele>172</ele>
        <time>2016-09-08T09:01:27Z</time>
      </trkpt>
      <trkpt lat="45.88806" lon="4.80677">
        <ele>172</ele>
        <time>2016-09-08T09:01:28Z</time>
      </trkpt>
      <trkpt lat="45.88802" lon="4.80683">
        <ele>172</ele>
        <time>2016-09-08T09:01:29Z</time>
      </trkpt>
      <trkpt lat="45.88797" lon="4.80688">
        <ele>172</ele>
        <time>2016-09-08T09:01:30Z</time>
      </trkpt>
      <trkpt lat="45.88792" lon="4.80693">
        <ele>172</ele>
        <time>2016-09-08T09:01:31Z</time>
      </trkpt>
      <trkpt lat="45.88788" lon="4.80698">
        <ele>172</ele>
        <time>2016-09-08T09:01:32Z</time>
      </trkpt>
      <trkpt lat="45.88783" lon="4.80703">
        <ele>172</ele>
        <time>2016-09-08T09:01:33Z</time>
      </trkpt>
      <trkpt lat="45.88778" lon="4.80708">
        <ele>172</ele>
        <time>2016-09-08T09:01:34Z</time>
      </trkpt>
      <trkpt lat="45.88774" lon="4.80714">
        <ele>172</ele>
        <time>2016-09-08T09:01:35Z</time>
      </trkpt>
      <trkpt lat="45.88769" lon="4.80719">
        <ele>171</ele>
        <time>2016-09-08T09:01:36Z</time>
      </trkpt>
      <trkpt lat="45.88765" lon="4.80724">
        <ele>171</ele>
        <time>2016-09-08T09:01:37Z</time>
      </trkpt>
      <trkpt lat="45.8876" lon="4.80729">
        <ele>171</ele>
        <time>2016-09-08T09:01:38Z</time>
      </trkpt>
      <trkpt lat="45.88755" lon="4.80734">
        <ele>170</ele>
        <time>2016-09-08T09:01:39Z</time>
      </trkpt>
      <trkpt lat="45.8875" lon="4.80738">
        <ele>170</ele>
        <time>2016-09-08T09:01:40Z</time>
      </trkpt>
      <trkpt lat="45.88745" lon="4.80744">
        <ele>170</ele>
        <time>2016-09-08T09:01:41Z</time>
      </trkpt>
      <trkpt lat="45.88741" lon="4.80748">
        <ele>171</ele>
        <time>2016-09-08T09:01:42Z</time>
      </trkpt>
      <trkpt lat="45.88736" lon="4.80753">
        <ele>170</ele>
        <time>2016-09-08T09:01:43Z</time>
      </trkpt>
      <trkpt lat="45.88731" lon="4.80759">
        <ele>170</ele>
        <time>2016-09-08T09:01:44Z</time>
      </trkpt>
      <trkpt lat="45.88726" lon="4.80764">
        <ele>170</ele>
        <time>2016-09-08T09:01:45Z</time>
      </trkpt>
      <trkpt lat="45.88722" lon="4.80768">
        <ele>170</ele>
        <time>2016-09-08T09:01:46Z</time>
      </trkpt>
      <trkpt lat="45.88718" lon="4.80774">
        <ele>170</ele>
        <time>2016-09-08T09:01:47Z</time>
      </trkpt>
      <trkpt lat="45.88713" lon="4.80779">
        <ele>170</ele>
        <time>2016-09-08T09:01:48Z</time>
      </trkpt>
      <trkpt lat="45.88709" lon="4.80783">
        <ele>171</ele>
        <time>2016-09-08T09:01:49Z</time>
      </trkpt>
      <trkpt lat="45.88704" lon="4.80788">
        <ele>171</ele>
        <time>2016-09-08T09:01:50Z</time>
      </trkpt>
      <trkpt lat="45.88699" lon="4.80793">
        <ele>171</ele>
        <time>2016-09-08T09:01:51Z</time>
      </trkpt>
      <trkpt lat="45.88695" lon="4.80798">
        <ele>171</ele>
        <time>2016-09-08T09:01:52Z</time>
      </trkpt>
      <trkpt lat="45.8869" lon="4.80804">
        <ele>171</ele>
        <time>2016-09-08T09:01:53Z</time>
      </trkpt>
      <trkpt lat="45.88685" lon="4.80809">
        <ele>171</ele>
        <time>2016-09-08T09:01:54Z</time>
      </trkpt>
      <trkpt lat="45.88681" lon="4.80814">
        <ele>171</ele>
        <time>2016-09-08T09:01:55Z</time>
      </trkpt>
      <trkpt lat="45.88676" lon="4.8082">
        <ele>171</ele>
        <time>2016-09-08T09:01:56Z</time>
      </trkpt>
      <trkpt lat="45.88671" lon="4.80826">
        <ele>171</ele>
        <time>2016-09-08T09:01:57Z</time>
      </trkpt>
      <trkpt lat="45.88666" lon="4.80831">
        <ele>171</ele>
        <time>2016-09-08T09:01:58Z</time>
      </trkpt>
      <trkpt lat="45.88661" lon="4.80836">
        <ele>171</ele>
        <time>2016-09-08T09:01:59Z</time>
      </trkpt>
      <trkpt lat="45.88656" lon="4.80841">
        <ele>171</ele>
        <time>2016-09-08T09:02:00Z</time>
      </trkpt>
      <trkpt lat="45.88652" lon="4.80845">
        <ele>171</ele>
        <time>2016-09-08T09:02:01Z</time>
      </trkpt>
      <trkpt lat="45.88647" lon="4.80851">
        <ele>171</ele>
        <time>2016-09-08T09:02:02Z</time>
      </trkpt>
      <trkpt lat="45.88643" lon="4.80856">
        <ele>171</ele>
        <time>2016-09-08T09:02:03Z</time>
      </trkpt>
      <trkpt lat="45.88638" lon="4.80861">
        <ele>171</ele>
        <time>2016-09-08T09:02:04Z</time>
      </trkpt>
      <trkpt lat="45.88634" lon="4.80866">
        <ele>171</ele>
        <time>2016-09-08T09:02:05Z</time>
      </trkpt>
      <trkpt lat="45.88629" lon="4.80872">
        <ele>171</ele>
        <time>2016-09-08T09:02:06Z</time>
      </trkpt>
      <trkpt lat="45.88624" lon="4.80877">
        <ele>171</ele>
        <time>2016-09-08T09:02:07Z</time>
      </trkpt>
      <trkpt lat="45.88619" lon="4.80883">
        <ele>171</ele>
        <time>2016-09-08T09:02:08Z</time>
      </trkpt>
      <trkpt lat="45.88614" lon="4.80888">
        <ele>171</ele>
        <time>2016-09-08T09:02:09Z</time>
      </trkpt>
      <trkpt lat="45.88609" lon="4.80893">
        <ele>170</ele>
        <time>2016-09-08T09:02:10Z</time>
      </trkpt>
      <trkpt lat="45.88604" lon="4.80899">
        <ele>170</ele>
        <time>2016-09-08T09:02:11Z</time>
      </trkpt>
      <trkpt lat="45.88599" lon="4.80904">
        <ele>170</ele>
        <time>2016-09-08T09:02:12Z</time>
      </trkpt>
      <trkpt lat="45.88594" lon="4.8091">
        <ele>169</ele>
        <time>2016-09-08T09:02:13Z</time>
      </trkpt>
      <trkpt lat="45.8859" lon="4.80916">
        <ele>169</ele>
        <time>2016-09-08T09:02:14Z</time>
      </trkpt>
      <trkpt lat="45.88585" lon="4.80921">
        <ele>168</ele>
        <time>2016-09-08T09:02:15Z</time>
      </trkpt>
      <trkpt lat="45.8858" lon="4.80926">
        <ele>168</ele>
        <time>2016-09-08T09:02:16Z</time>
      </trkpt>
      <trkpt lat="45.88575" lon="4.80932">
        <ele>169</ele>
        <time>2016-09-08T09:02:17Z</time>
      </trkpt>
      <trkpt lat="45.88571" lon="4.80937">
        <ele>169</ele>
        <time>2016-09-08T09:02:18Z</time>
      </trkpt>
      <trkpt lat="45.88566" lon="4.80943">
        <ele>169</ele>
        <time>2016-09-08T09:02:19Z</time>
      </trkpt>
      <trkpt lat="45.88561" lon="4.80949">
        <ele>169</ele>
        <time>2016-09-08T09:02:20Z</time>
      </trkpt>
      <trkpt lat="45.88557" lon="4.80955">
        <ele>169</ele>
        <time>2016-09-08T09:02:21Z</time>
      </trkpt>
      <trkpt lat="45.88552" lon="4.8096">
        <ele>169</ele>
        <time>2016-09-08T09:02:22Z</time>
      </trkpt>
      <trkpt lat="45.88547" lon="4.80966">
        <ele>169</ele>
        <time>2016-09-08T09:02:23Z</time>
      </trkpt>
      <trkpt lat="45.88542" lon="4.80972">
        <ele>169</ele>
        <time>2016-09-08T09:02:24Z</time>
      </trkpt>
      <trkpt lat="45.88538" lon="4.80978">
        <ele>169</ele>
        <time>2016-09-08T09:02:25Z</time>
      </trkpt>
      <trkpt lat="45.88533" lon="4.80984">
        <ele>169</ele>
        <time>2016-09-08T09:02:26Z</time>
      </trkpt>
      <trkpt lat="45.88528" lon="4.8099">
        <ele>169</ele>
        <time>2016-09-08T09:02:27Z</time>
      </trkpt>
      <trkpt lat="45.88523" lon="4.80996">
        <ele>169</ele>
        <time>2016-09-08T09:02:28Z</time>
      </trkpt>
      <trkpt lat="45.88519" lon="4.81002">
        <ele>169</ele>
        <time>2016-09-08T09:02:29Z</time>
      </trkpt>
      <trkpt lat="45.88514" lon="4.81009">
        <ele>169</ele>
        <time>2016-09-08T09:02:30Z</time>
      </trkpt>
      <trkpt lat="45.8851" lon="4.81015">
        <ele>169</ele>
        <time>2016-09-08T09:02:31Z</time>
      </trkpt>
      <trkpt lat="45.88505" lon="4.81021">
        <ele>169</ele>
        <time>2016-09-08T09:02:32Z</time>
      </trkpt>
      <trkpt lat="45.88501" lon="4.81027">
        <ele>169</ele>
        <time>2016-09-08T09:02:33Z</time>
      </trkpt>
      <trkpt lat="45.88496" lon="4.81032">
        <ele>168</ele>
        <time>2016-09-08T09:02:34Z</time>
      </trkpt>
      <trkpt lat="45.88491" lon="4.81038">
        <ele>168</ele>
        <time>2016-09-08T09:02:35Z</time>
      </trkpt>
      <trkpt lat="45.88487" lon="4.81044">
        <ele>168</ele>
        <time>2016-09-08T09:02:36Z</time>
      </trkpt>
      <trkpt lat="45.88482" lon="4.8105">
        <ele>168</ele>
        <time>2016-09-08T09:02:37Z</time>
      </trkpt>
      <trkpt lat="45.88477" lon="4.81056">
        <ele>168</ele>
        <time>2016-09-08T09:02:38Z</time>
      </trkpt>
      <trkpt lat="45.88473" lon="4.81062">
        <ele>168</ele>
        <time>2016-09-08T09:02:39Z</time>
      </trkpt>
      <trkpt lat="45.88469" lon="4.81067">
        <ele>168</ele>
        <time>2016-09-08T09:02:40Z</time>
      </trkpt>
      <trkpt lat="45.88465" lon="4.81073">
        <ele>168</ele>
        <time>2016-09-08T09:02:41Z</time>
      </trkpt>
      <trkpt lat="45.88461" lon="4.81079">
        <ele>168</ele>
        <time>2016-09-08T09:02:42Z</time>
      </trkpt>
      <trkpt lat="45.88457" lon="4.81085">
        <ele>168</ele>
        <time>2016-09-08T09:02:43Z</time>
      </trkpt>
      <trkpt lat="45.88453" lon="4.81091">
        <ele>168</ele>
        <time>2016-09-08T09:02:44Z</time>
      </trkpt>
      <trkpt lat="45.88449" lon="4.81097">
        <ele>168</ele>
        <time>2016-09-08T09:02:45Z</time>
      </trkpt>
      <trkpt lat="45.88445" lon="4.81103">
        <ele>168</ele>
        <time>2016-09-08T09:02:46Z</time>
      </trkpt>
      <trkpt lat="45.88442" lon="4.81109">
        <ele>168</ele>
        <time>2016-09-08T09:02:47Z</time>
      </trkpt>
      <trkpt lat="45.88438" lon="4.81115">
        <ele>168</ele>
        <time>2016-09-08T09:02:48Z</time>
      </trkpt>
      <trkpt lat="45.88434" lon="4.81121">
        <ele>168</ele>
        <time>2016-09-08T09:02:49Z</time>
      </trkpt>
      <trkpt lat="45.8843" lon="4.81127">
        <ele>168</ele>
        <time>2016-09-08T09:02:50Z</time>
      </trkpt>
      <trkpt lat="45.88426" lon="4.81133">
        <ele>168</ele>
        <time>2016-09-08T09:02:51Z</time>
      </trkpt>
      <trkpt lat="45.88422" lon="4.81138">
        <ele>169</ele>
        <time>2016-09-08T09:02:52Z</time>
      </trkpt>
      <trkpt lat="45.88418" lon="4.81144">
        <ele>169</ele>
        <time>2016-09-08T09:02:53Z</time>
      </trkpt>
      <trkpt lat="45.88414" lon="4.8115">
        <ele>171</ele>
        <time>2016-09-08T09:02:54Z</time>
      </trkpt>
      <trkpt lat="45.8841" lon="4.81156">
        <ele>170</ele>
        <time>2016-09-08T09:02:55Z</time>
      </trkpt>
      <trkpt lat="45.88406" lon="4.81161">
        <ele>170</ele>
        <time>2016-09-08T09:02:56Z</time>
      </trkpt>
      <trkpt lat="45.88402" lon="4.81167">
        <ele>170</ele>
        <time>2016-09-08T09:02:57Z</time>
      </trkpt>
      <trkpt lat="45.88399" lon="4.81173">
        <ele>170</ele>
        <time>2016-09-08T09:02:58Z</time>
      </trkpt>
      <trkpt lat="45.88395" lon="4.81179">
        <ele>170</ele>
        <time>2016-09-08T09:02:59Z</time>
      </trkpt>
      <trkpt lat="45.88391" lon="4.81185">
        <ele>170</ele>
        <time>2016-09-08T09:03:00Z</time>
      </trkpt>
      <trkpt lat="45.88387" lon="4.81191">
        <ele>170</ele>
        <time>2016-09-08T09:03:01Z</time>
      </trkpt>
      <trkpt lat="45.88384" lon="4.81198">
        <ele>170</ele>
        <time>2016-09-08T09:03:02Z</time>
      </trkpt>
      <trkpt lat="45.8838" lon="4.81204">
        <ele>170</ele>
        <time>2016-09-08T09:03:03Z</time>
      </trkpt>
      <trkpt lat="45.88376" lon="4.8121">
        <ele>170</ele>
        <time>2016-09-08T09:03:04Z</time>
      </trkpt>
      <trkpt lat="45.88373" lon="4.81217">
        <ele>170</ele>
        <time>2016-09-08T09:03:05Z</time>
      </trkpt>
      <trkpt lat="45.8837" lon="4.81223">
        <ele>170</ele>
        <time>2016-09-08T09:03:06Z</time>
      </trkpt>
      <trkpt lat="45.88366" lon="4.81231">
        <ele>170</ele>
        <time>2016-09-08T09:03:07Z</time>
      </trkpt>
      <trkpt lat="45.88362" lon="4.81238">
        <ele>170</ele>
        <time>2016-09-08T09:03:08Z</time>
      </trkpt>
      <trkpt lat="45.88358" lon="4.81245">
        <ele>170</ele>
        <time>2016-09-08T09:03:09Z</time>
      </trkpt>
      <trkpt lat="45.88354" lon="4.81252">
        <ele>170</ele>
        <time>2016-09-08T09:03:10Z</time>
      </trkpt>
      <trkpt lat="45.8835" lon="4.8126">
        <ele>170</ele>
        <time>2016-09-08T09:03:11Z</time>
      </trkpt>
      <trkpt lat="45.88346" lon="4.81267">
        <ele>170</ele>
        <time>2016-09-08T09:03:12Z</time>
      </trkpt>
      <trkpt lat="45.88342" lon="4.81274">
        <ele>170</ele>
        <time>2016-09-08T09:03:13Z</time>
      </trkpt>
      <trkpt lat="45.88338" lon="4.81282">
        <ele>170</ele>
        <time>2016-09-08T09:03:14Z</time>
      </trkpt>
      <trkpt lat="45.88334" lon="4.81289">
        <ele>170</ele>
        <time>2016-09-08T09:03:15Z</time>
      </trkpt>
      <trkpt lat="45.8833" lon="4.81297">
        <ele>172</ele>
        <time>2016-09-08T09:03:16Z</time>
      </trkpt>
      <trkpt lat="45.88327" lon="4.81305">
        <ele>172</ele>
        <time>2016-09-08T09:03:17Z</time>
      </trkpt>
      <trkpt lat="45.88323" lon="4.81313">
        <ele>172</ele>
        <time>2016-09-08T09:03:18Z</time>
      </trkpt>
      <trkpt lat="45.8832" lon="4.8132">
        <ele>172</ele>
        <time>2016-09-08T09:03:19Z</time>
      </trkpt>
      <trkpt lat="45.88316" lon="4.81328">
        <ele>172</ele>
        <time>2016-09-08T09:03:20Z</time>
      </trkpt>
      <trkpt lat="45.88312" lon="4.81336">
        <ele>170</ele>
        <time>2016-09-08T09:03:21Z</time>
      </trkpt>
      <trkpt lat="45.88308" lon="4.81343">
        <ele>170</ele>
        <time>2016-09-08T09:03:22Z</time>
      </trkpt>
      <trkpt lat="45.88305" lon="4.81351">
        <ele>169</ele>
        <time>2016-09-08T09:03:23Z</time>
      </trkpt>
      <trkpt lat="45.88302" lon="4.81357">
        <ele>169</ele>
        <time>2016-09-08T09:03:24Z</time>
      </trkpt>
      <trkpt lat="45.88299" lon="4.81364">
        <ele>169</ele>
        <time>2016-09-08T09:03:25Z</time>
      </trkpt>
      <trkpt lat="45.88296" lon="4.81371">
        <ele>168</ele>
        <time>2016-09-08T09:03:26Z</time>
      </trkpt>
      <trkpt lat="45.88292" lon="4.81377">
        <ele>168</ele>
        <time>2016-09-08T09:03:27Z</time>
      </trkpt>
      <trkpt lat="45.88289" lon="4.81384">
        <ele>168</ele>
        <time>2016-09-08T09:03:28Z</time>
      </trkpt>
      <trkpt lat="45.88285" lon="4.81391">
        <ele>168</ele>
        <time>2016-09-08T09:03:29Z</time>
      </trkpt>
      <trkpt lat="45.88282" lon="4.81398">
        <ele>167</ele>
        <time>2016-09-08T09:03:30Z</time>
      </trkpt>
      <trkpt lat="45.88279" lon="4.81405">
        <ele>167</ele>
        <time>2016-09-08T09:03:31Z</time>
      </trkpt>
      <trkpt lat="45.88276" lon="4.81413">
        <ele>167</ele>
        <time>2016-09-08T09:03:32Z</time>
      </trkpt>
      <trkpt lat="45.88273" lon="4.8142">
        <ele>166</ele>
        <time>2016-09-08T09:03:33Z</time>
      </trkpt>
      <trkpt lat="45.88269" lon="4.81427">
        <ele>165</ele>
        <time>2016-09-08T09:03:34Z</time>
      </trkpt>
      <trkpt lat="45.88265" lon="4.81434">
        <ele>166</ele>
        <time>2016-09-08T09:03:35Z</time>
      </trkpt>
      <trkpt lat="45.88262" lon="4.81441">
        <ele>166</ele>
        <time>2016-09-08T09:03:36Z</time>
      </trkpt>
      <trkpt lat="45.88258" lon="4.81448">
        <ele>166</ele>
        <time>2016-09-08T09:03:37Z</time>
      </trkpt>
      <trkpt lat="45.88255" lon="4.81457">
        <ele>166</ele>
        <time>2016-09-08T09:03:38Z</time>
      </trkpt>
      <trkpt lat="45.88251" lon="4.81465">
        <ele>166</ele>
        <time>2016-09-08T09:03:39Z</time>
      </trkpt>
      <trkpt lat="45.88248" lon="4.81473">
        <ele>169</ele>
        <time>2016-09-08T09:03:40Z</time>
      </trkpt>
      <trkpt lat="45.88244" lon="4.81481">
        <ele>169</ele>
        <time>2016-09-08T09:03:41Z</time>
      </trkpt>
      <trkpt lat="45.88241" lon="4.81488">
        <ele>169</ele>
        <time>2016-09-08T09:03:42Z</time>
      </trkpt>
      <trkpt lat="45.88238" lon="4.81495">
        <ele>169</ele>
        <time>2016-09-08T09:03:43Z</time>
      </trkpt>
      <trkpt lat="45.88235" lon="4.81502">
        <ele>169</ele>
        <time>2016-09-08T09:03:44Z</time>
      </trkpt>
      <trkpt lat="45.88233" lon="4.81509">
        <ele>170</ele>
        <time>2016-09-08T09:03:45Z</time>
      </trkpt>
      <trkpt lat="45.8823" lon="4.81516">
        <ele>170</ele>
        <time>2016-09-08T09:03:46Z</time>
      </trkpt>
      <trkpt lat="45.88227" lon="4.81522">
        <ele>170</ele>
        <time>2016-09-08T09:03:47Z</time>
      </trkpt>
      <trkpt lat="45.88224" lon="4.81528">
        <ele>170</ele>
        <time>2016-09-08T09:03:48Z</time>
      </trkpt>
      <trkpt lat="45.8822" lon="4.81535">
        <ele>170</ele>
        <time>2016-09-08T09:03:49Z</time>
      </trkpt>
      <trkpt lat="45.88217" lon="4.81541">
        <ele>171</ele>
        <time>2016-09-08T09:03:50Z</time>
      </trkpt>
      <trkpt lat="45.88213" lon="4.81547">
        <ele>171</ele>
        <time>2016-09-08T09:03:51Z</time>
      </trkpt>
      <trkpt lat="45.88209" lon="4.81554">
        <ele>171</ele>
        <time>2016-09-08T09:03:52Z</time>
      </trkpt>
      <trkpt lat="45.88206" lon="4.81562">
        <ele>171</ele>
        <time>2016-09-08T09:03:53Z</time>
      </trkpt>
      <trkpt lat="45.88203" lon="4.8157">
        <ele>171</ele>
        <time>2016-09-08T09:03:54Z</time>
      </trkpt>
      <trkpt lat="45.882" lon="4.81576">
        <ele>172</ele>
        <time>2016-09-08T09:03:55Z</time>
      </trkpt>
      <trkpt lat="45.88196" lon="4.81583">
        <ele>172</ele>
        <time>2016-09-08T09:03:56Z</time>
      </trkpt>
      <trkpt lat="45.88193" lon="4.8159">
        <ele>172</ele>
        <time>2016-09-08T09:03:57Z</time>
      </trkpt>
      <trkpt lat="45.8819" lon="4.81597">
        <ele>172</ele>
        <time>2016-09-08T09:03:58Z</time>
      </trkpt>
      <trkpt lat="45.88187" lon="4.81603">
        <ele>172</ele>
        <time>2016-09-08T09:03:59Z</time>
      </trkpt>
      <trkpt lat="45.88184" lon="4.8161">
        <ele>171</ele>
        <time>2016-09-08T09:04:00Z</time>
      </trkpt>
      <trkpt lat="45.88181" lon="4.81616">
        <ele>171</ele>
        <time>2016-09-08T09:04:01Z</time>
      </trkpt>
      <trkpt lat="45.88177" lon="4.81623">
        <ele>171</ele>
        <time>2016-09-08T09:04:02Z</time>
      </trkpt>
      <trkpt lat="45.88174" lon="4.81629">
        <ele>171</ele>
        <time>2016-09-08T09:04:03Z</time>
      </trkpt>
      <trkpt lat="45.88171" lon="4.81636">
        <ele>171</ele>
        <time>2016-09-08T09:04:04Z</time>
      </trkpt>
      <trkpt lat="45.88168" lon="4.81644">
        <ele>171</ele>
        <time>2016-09-08T09:04:05Z</time>
      </trkpt>
      <trkpt lat="45.88166" lon="4.8165">
        <ele>174</ele>
        <time>2016-09-08T09:04:06Z</time>
      </trkpt>
      <trkpt lat="45.88163" lon="4.81658">
        <ele>174</ele>
        <time>2016-09-08T09:04:07Z</time>
      </trkpt>
      <trkpt lat="45.8816" lon="4.81664">
        <ele>174</ele>
        <time>2016-09-08T09:04:08Z</time>
      </trkpt>
      <trkpt lat="45.88158" lon="4.81672">
        <ele>172</ele>
        <time>2016-09-08T09:04:09Z</time>
      </trkpt>
      <trkpt lat="45.88156" lon="4.8168">
        <ele>172</ele>
        <time>2016-09-08T09:04:10Z</time>
      </trkpt>
      <trkpt lat="45.88153" lon="4.81687">
        <ele>172</ele>
        <time>2016-09-08T09:04:11Z</time>
      </trkpt>
      <trkpt lat="45.88151" lon="4.81694">
        <ele>171</ele>
        <time>2016-09-08T09:04:12Z</time>
      </trkpt>
      <trkpt lat="45.88149" lon="4.81701">
        <ele>171</ele>
        <time>2016-09-08T09:04:13Z</time>
      </trkpt>
      <trkpt lat="45.88146" lon="4.81708">
        <ele>171</ele>
        <time>2016-09-08T09:04:14Z</time>
      </trkpt>
      <trkpt lat="45.88144" lon="4.81716">
        <ele>170</ele>
        <time>2016-09-08T09:04:15Z</time>
      </trkpt>
      <trkpt lat="45.88141" lon="4.81723">
        <ele>170</ele>
        <time>2016-09-08T09:04:16Z</time>
      </trkpt>
      <trkpt lat="45.88139" lon="4.81731">
        <ele>170</ele>
        <time>2016-09-08T09:04:17Z</time>
      </trkpt>
      <trkpt lat="45.88136" lon="4.81739">
        <ele>169</ele>
        <time>2016-09-08T09:04:18Z</time>
      </trkpt>
      <trkpt lat="45.88133" lon="4.81747">
        <ele>169</ele>
        <time>2016-09-08T09:04:19Z</time>
      </trkpt>
      <trkpt lat="45.88131" lon="4.81755">
        <ele>167</ele>
        <time>2016-09-08T09:04:20Z</time>
      </trkpt>
      <trkpt lat="45.88127" lon="4.81763">
        <ele>167</ele>
        <time>2016-09-08T09:04:21Z</time>
      </trkpt>
      <trkpt lat="45.88124" lon="4.81771">
        <ele>167</ele>
        <time>2016-09-08T09:04:22Z</time>
      </trkpt>
      <trkpt lat="45.88121" lon="4.81778">
        <ele>167</ele>
        <time>2016-09-08T09:04:23Z</time>
      </trkpt>
      <trkpt lat="45.88118" lon="4.81785">
        <ele>167</ele>
        <time>2016-09-08T09:04:24Z</time>
      </trkpt>
      <trkpt lat="45.88116" lon="4.81793">
        <ele>167</ele>
        <time>2016-09-08T09:04:25Z</time>
      </trkpt>
      <trkpt lat="45.88114" lon="4.818">
        <ele>167</ele>
        <time>2016-09-08T09:04:26Z</time>
      </trkpt>
      <trkpt lat="45.88111" lon="4.81808">
        <ele>167</ele>
        <time>2016-09-08T09:04:27Z</time>
      </trkpt>
      <trkpt lat="45.88108" lon="4.81815">
        <ele>167</ele>
        <time>2016-09-08T09:04:28Z</time>
      </trkpt>
      <trkpt lat="45.88105" lon="4.81822">
        <ele>167</ele>
        <time>2016-09-08T09:04:29Z</time>
      </trkpt>
      <trkpt lat="45.88102" lon="4.81829">
        <ele>167</ele>
        <time>2016-09-08T09:04:30Z</time>
      </trkpt>
      <trkpt lat="45.88099" lon="4.81836">
        <ele>166</ele>
        <time>2016-09-08T09:04:31Z</time>
      </trkpt>
      <trkpt lat="45.88096" lon="4.81843">
        <ele>166</ele>
        <time>2016-09-08T09:04:32Z</time>
      </trkpt>
      <trkpt lat="45.88093" lon="4.81849">
        <ele>166</ele>
        <time>2016-09-08T09:04:33Z</time>
      </trkpt>
      <trkpt lat="45.88091" lon="4.81856">
        <ele>166</ele>
        <time>2016-09-08T09:04:34Z</time>
      </trkpt>
      <trkpt lat="45.88088" lon="4.81863">
        <ele>166</ele>
        <time>2016-09-08T09:04:35Z</time>
      </trkpt>
      <trkpt lat="45.88085" lon="4.8187">
        <ele>166</ele>
        <time>2016-09-08T09:04:36Z</time>
      </trkpt>
      <trkpt lat="45.88083" lon="4.81877">
        <ele>168</ele>
        <time>2016-09-08T09:04:37Z</time>
      </trkpt>
      <trkpt lat="45.8808" lon="4.81884">
        <ele>168</ele>
        <time>2016-09-08T09:04:38Z</time>
      </trkpt>
      <trkpt lat="45.88078" lon="4.81891">
        <ele>167</ele>
        <time>2016-09-08T09:04:39Z</time>
      </trkpt>
      <trkpt lat="45.88075" lon="4.81899">
        <ele>167</ele>
        <time>2016-09-08T09:04:40Z</time>
      </trkpt>
      <trkpt lat="45.88072" lon="4.81906">
        <ele>167</ele>
        <time>2016-09-08T09:04:41Z</time>
      </trkpt>
      <trkpt lat="45.8807" lon="4.81913">
        <ele>167</ele>
        <time>2016-09-08T09:04:42Z</time>
      </trkpt>
      <trkpt lat="45.88068" lon="4.81921">
        <ele>167</ele>
        <time>2016-09-08T09:04:43Z</time>
      </trkpt>
      <trkpt lat="45.88066" lon="4.81928">
        <ele>167</ele>
        <time>2016-09-08T09:04:44Z</time>
      </trkpt>
      <trkpt lat="45.88064" lon="4.81936">
        <ele>168</ele>
        <time>2016-09-08T09:04:45Z</time>
      </trkpt>
      <trkpt lat="45.88061" lon="4.81943">
        <ele>168</ele>
        <time>2016-09-08T09:04:46Z</time>
      </trkpt>
      <trkpt lat="45.88059" lon="4.8195">
        <ele>168</ele>
        <time>2016-09-08T09:04:47Z</time>
      </trkpt>
      <trkpt lat="45.88056" lon="4.81957">
        <ele>168</ele>
        <time>2016-09-08T09:04:48Z</time>
      </trkpt>
      <trkpt lat="45.88054" lon="4.81965">
        <ele>168</ele>
        <time>2016-09-08T09:04:49Z</time>
      </trkpt>
      <trkpt lat="45.88051" lon="4.81972">
        <ele>168</ele>
        <time>2016-09-08T09:04:50Z</time>
      </trkpt>
      <trkpt lat="45.88049" lon="4.81979">
        <ele>168</ele>
        <time>2016-09-08T09:04:51Z</time>
      </trkpt>
      <trkpt lat="45.88046" lon="4.81986">
        <ele>169</ele>
        <time>2016-09-08T09:04:52Z</time>
      </trkpt>
      <trkpt lat="45.88044" lon="4.81993">
        <ele>169</ele>
        <time>2016-09-08T09:04:53Z</time>
      </trkpt>
      <trkpt lat="45.88041" lon="4.82">
        <ele>169</ele>
        <time>2016-09-08T09:04:54Z</time>
      </trkpt>
      <trkpt lat="45.88039" lon="4.82008">
        <ele>169</ele>
        <time>2016-09-08T09:04:55Z</time>
      </trkpt>
      <trkpt lat="45.88036" lon="4.82015">
        <ele>169</ele>
        <time>2016-09-08T09:04:56Z</time>
      </trkpt>
      <trkpt lat="45.88034" lon="4.82022">
        <ele>169</ele>
        <time>2016-09-08T09:04:57Z</time>
      </trkpt>
      <trkpt lat="45.88031" lon="4.82029">
        <ele>169</ele>
        <time>2016-09-08T09:04:58Z</time>
      </trkpt>
      <trkpt lat="45.88028" lon="4.82036">
        <ele>169</ele>
        <time>2016-09-08T09:04:59Z</time>
      </trkpt>
      <trkpt lat="45.88025" lon="4.82043">
        <ele>169</ele>
        <time>2016-09-08T09:05:00Z</time>
      </trkpt>
      <trkpt lat="45.88021" lon="4.82049">
        <ele>169</ele>
        <time>2016-09-08T09:05:01Z</time>
      </trkpt>
      <trkpt lat="45.88018" lon="4.82055">
        <ele>169</ele>
        <time>2016-09-08T09:05:02Z</time>
      </trkpt>
      <trkpt lat="45.88014" lon="4.8206">
        <ele>169</ele>
        <time>2016-09-08T09:05:03Z</time>
      </trkpt>
      <trkpt lat="45.88009" lon="4.82064">
        <ele>169</ele>
        <time>2016-09-08T09:05:04Z</time>
      </trkpt>
      <trkpt lat="45.88004" lon="4.82066">
        <ele>169</ele>
        <time>2016-09-08T09:05:05Z</time>
      </trkpt>
      <trkpt lat="45.87999" lon="4.82067">
        <ele>172</ele>
        <time>2016-09-08T09:05:06Z</time>
      </trkpt>
      <trkpt lat="45.87994" lon="4.82069">
        <ele>172</ele>
        <time>2016-09-08T09:05:07Z</time>
      </trkpt>
      <trkpt lat="45.87989" lon="4.82072">
        <ele>172</ele>
        <time>2016-09-08T09:05:08Z</time>
      </trkpt>
      <trkpt lat="45.87984" lon="4.82077">
        <ele>172</ele>
        <time>2016-09-08T09:05:09Z</time>
      </trkpt>
      <trkpt lat="45.8798" lon="4.82083">
        <ele>172</ele>
        <time>2016-09-08T09:05:10Z</time>
      </trkpt>
      <trkpt lat="45.87977" lon="4.82092">
        <ele>171</ele>
        <time>2016-09-08T09:05:11Z</time>
      </trkpt>
      <trkpt lat="45.87975" lon="4.82101">
        <ele>171</ele>
        <time>2016-09-08T09:05:12Z</time>
      </trkpt>
      <trkpt lat="45.87972" lon="4.82109">
        <ele>171</ele>
        <time>2016-09-08T09:05:13Z</time>
      </trkpt>
      <trkpt lat="45.8797" lon="4.82116">
        <ele>172</ele>
        <time>2016-09-08T09:05:14Z</time>
      </trkpt>
      <trkpt lat="45.87967" lon="4.82124">
        <ele>172</ele>
        <time>2016-09-08T09:05:15Z</time>
      </trkpt>
      <trkpt lat="45.87965" lon="4.82132">
        <ele>172</ele>
        <time>2016-09-08T09:05:16Z</time>
      </trkpt>
      <trkpt lat="45.87963" lon="4.82141">
        <ele>171</ele>
        <time>2016-09-08T09:05:17Z</time>
      </trkpt>
      <trkpt lat="45.87962" lon="4.8215">
        <ele>171</ele>
        <time>2016-09-08T09:05:18Z</time>
      </trkpt>
      <trkpt lat="45.87961" lon="4.82159">
        <ele>171</ele>
        <time>2016-09-08T09:05:19Z</time>
      </trkpt>
      <trkpt lat="45.8796" lon="4.82167">
        <ele>170</ele>
        <time>2016-09-08T09:05:20Z</time>
      </trkpt>
      <trkpt lat="45.87959" lon="4.82176">
        <ele>170</ele>
        <time>2016-09-08T09:05:21Z</time>
      </trkpt>
      <trkpt lat="45.87958" lon="4.82186">
        <ele>170</ele>
        <time>2016-09-08T09:05:22Z</time>
      </trkpt>
      <trkpt lat="45.87957" lon="4.82195">
        <ele>170</ele>
        <time>2016-09-08T09:05:23Z</time>
      </trkpt>
      <trkpt lat="45.87955" lon="4.82204">
        <ele>170</ele>
        <time>2016-09-08T09:05:24Z</time>
      </trkpt>
      <trkpt lat="45.87955" lon="4.82214">
        <ele>170</ele>
        <time>2016-09-08T09:05:25Z</time>
      </trkpt>
      <trkpt lat="45.87954" lon="4.82223">
        <ele>170</ele>
        <time>2016-09-08T09:05:26Z</time>
      </trkpt>
      <trkpt lat="45.87953" lon="4.82231">
        <ele>170</ele>
        <time>2016-09-08T09:05:27Z</time>
      </trkpt>
      <trkpt lat="45.87952" lon="4.82239">
        <ele>170</ele>
        <time>2016-09-08T09:05:28Z</time>
      </trkpt>
      <trkpt lat="45.87951" lon="4.82247">
        <ele>170</ele>
        <time>2016-09-08T09:05:29Z</time>
      </trkpt>
      <trkpt lat="45.87949" lon="4.82255">
        <ele>169</ele>
        <time>2016-09-08T09:05:30Z</time>
      </trkpt>
      <trkpt lat="45.87948" lon="4.82263">
        <ele>169</ele>
        <time>2016-09-08T09:05:31Z</time>
      </trkpt>
      <trkpt lat="45.87947" lon="4.82271">
        <ele>169</ele>
        <time>2016-09-08T09:05:32Z</time>
      </trkpt>
      <trkpt lat="45.87946" lon="4.8228">
        <ele>169</ele>
        <time>2016-09-08T09:05:33Z</time>
      </trkpt>
      <trkpt lat="45.87945" lon="4.82289">
        <ele>168</ele>
        <time>2016-09-08T09:05:34Z</time>
      </trkpt>
      <trkpt lat="45.87945" lon="4.82298">
        <ele>168</ele>
        <time>2016-09-08T09:05:35Z</time>
      </trkpt>
      <trkpt lat="45.87944" lon="4.82306">
        <ele>168</ele>
        <time>2016-09-08T09:05:36Z</time>
      </trkpt>
      <trkpt lat="45.87943" lon="4.82315">
        <ele>168</ele>
        <time>2016-09-08T09:05:37Z</time>
      </trkpt>
      <trkpt lat="45.87941" lon="4.82324">
        <ele>169</ele>
        <time>2016-09-08T09:05:38Z</time>
      </trkpt>
      <trkpt lat="45.8794" lon="4.82332">
        <ele>169</ele>
        <time>2016-09-08T09:05:39Z</time>
      </trkpt>
      <trkpt lat="45.87939" lon="4.82341">
        <ele>168</ele>
        <time>2016-09-08T09:05:40Z</time>
      </trkpt>
      <trkpt lat="45.87937" lon="4.8235">
        <ele>168</ele>
        <time>2016-09-08T09:05:41Z</time>
      </trkpt>
      <trkpt lat="45.87936" lon="4.8236">
        <ele>168</ele>
        <time>2016-09-08T09:05:42Z</time>
      </trkpt>
      <trkpt lat="45.87936" lon="4.8237">
        <ele>167</ele>
        <time>2016-09-08T09:05:43Z</time>
      </trkpt>
      <trkpt lat="45.87935" lon="4.82379">
        <ele>167</ele>
        <time>2016-09-08T09:05:44Z</time>
      </trkpt>
      <trkpt lat="45.87934" lon="4.82387">
        <ele>167</ele>
        <time>2016-09-08T09:05:45Z</time>
      </trkpt>
      <trkpt lat="45.87933" lon="4.82396">
        <ele>167</ele>
        <time>2016-09-08T09:05:46Z</time>
      </trkpt>
      <trkpt lat="45.87934" lon="4.82403">
        <ele>167</ele>
        <time>2016-09-08T09:05:47Z</time>
      </trkpt>
      <trkpt lat="45.87933" lon="4.82411">
        <ele>167</ele>
        <time>2016-09-08T09:05:48Z</time>
      </trkpt>
      <trkpt lat="45.87933" lon="4.8242">
        <ele>167</ele>
        <time>2016-09-08T09:05:49Z</time>
      </trkpt>
      <trkpt lat="45.87932" lon="4.82428">
        <ele>167</ele>
        <time>2016-09-08T09:05:50Z</time>
      </trkpt>
      <trkpt lat="45.8793" lon="4.82436">
        <ele>167</ele>
        <time>2016-09-08T09:05:51Z</time>
      </trkpt>
      <trkpt lat="45.87928" lon="4.82444">
        <ele>167</ele>
        <time>2016-09-08T09:05:52Z</time>
      </trkpt>
      <trkpt lat="45.87927" lon="4.82453">
        <ele>167</ele>
        <time>2016-09-08T09:05:53Z</time>
      </trkpt>
      <trkpt lat="45.87925" lon="4.82461">
        <ele>167</ele>
        <time>2016-09-08T09:05:54Z</time>
      </trkpt>
      <trkpt lat="45.87923" lon="4.82469">
        <ele>167</ele>
        <time>2016-09-08T09:05:55Z</time>
      </trkpt>
      <trkpt lat="45.87921" lon="4.82478">
        <ele>167</ele>
        <time>2016-09-08T09:05:56Z</time>
      </trkpt>
      <trkpt lat="45.8792" lon="4.82486">
        <ele>167</ele>
        <time>2016-09-08T09:05:57Z</time>
      </trkpt>
      <trkpt lat="45.87918" lon="4.82494">
        <ele>168</ele>
        <time>2016-09-08T09:05:58Z</time>
      </trkpt>
      <trkpt lat="45.87916" lon="4.82502">
        <ele>168</ele>
        <time>2016-09-08T09:05:59Z</time>
      </trkpt>
      <trkpt lat="45.87914" lon="4.8251">
        <ele>168</ele>
        <time>2016-09-08T09:06:00Z</time>
      </trkpt>
      <trkpt lat="45.87912" lon="4.82518">
        <ele>168</ele>
        <time>2016-09-08T09:06:01Z</time>
      </trkpt>
      <trkpt lat="45.8791" lon="4.82525">
        <ele>168</ele>
        <time>2016-09-08T09:06:02Z</time>
      </trkpt>
      <trkpt lat="45.87909" lon="4.82533">
        <ele>168</ele>
        <time>2016-09-08T09:06:03Z</time>
      </trkpt>
      <trkpt lat="45.87907" lon="4.8254">
        <ele>168</ele>
        <time>2016-09-08T09:06:04Z</time>
      </trkpt>
      <trkpt lat="45.87906" lon="4.82548">
        <ele>168</ele>
        <time>2016-09-08T09:06:05Z</time>
      </trkpt>
      <trkpt lat="45.87904" lon="4.82556">
        <ele>168</ele>
        <time>2016-09-08T09:06:06Z</time>
      </trkpt>
      <trkpt lat="45.87902" lon="4.82563">
        <ele>167</ele>
        <time>2016-09-08T09:06:07Z</time>
      </trkpt>
      <trkpt lat="45.879" lon="4.82571">
        <ele>167</ele>
        <time>2016-09-08T09:06:08Z</time>
      </trkpt>
      <trkpt lat="45.87899" lon="4.82579">
        <ele>167</ele>
        <time>2016-09-08T09:06:09Z</time>
      </trkpt>
      <trkpt lat="45.87897" lon="4.82588">
        <ele>167</ele>
        <time>2016-09-08T09:06:10Z</time>
      </trkpt>
      <trkpt lat="45.87895" lon="4.82597">
        <ele>167</ele>
        <time>2016-09-08T09:06:11Z</time>
      </trkpt>
      <trkpt lat="45.87893" lon="4.82605">
        <ele>167</ele>
        <time>2016-09-08T09:06:12Z</time>
      </trkpt>
      <trkpt lat="45.8789" lon="4.82614">
        <ele>167</ele>
        <time>2016-09-08T09:06:13Z</time>
      </trkpt>
      <trkpt lat="45.87888" lon="4.82623">
        <ele>168</ele>
        <time>2016-09-08T09:06:14Z</time>
      </trkpt>
      <trkpt lat="45.87886" lon="4.82632">
        <ele>168</ele>
        <time>2016-09-08T09:06:15Z</time>
      </trkpt>
      <trkpt lat="45.87885" lon="4.8264">
        <ele>168</ele>
        <time>2016-09-08T09:06:16Z</time>
      </trkpt>
      <trkpt lat="45.87883" lon="4.82649">
        <ele>168</ele>
        <time>2016-09-08T09:06:17Z</time>
      </trkpt>
      <trkpt lat="45.87881" lon="4.82657">
        <ele>168</ele>
        <time>2016-09-08T09:06:18Z</time>
      </trkpt>
      <trkpt lat="45.87879" lon="4.82665">
        <ele>168</ele>
        <time>2016-09-08T09:06:19Z</time>
      </trkpt>
      <trkpt lat="45.87878" lon="4.82673">
        <ele>169</ele>
        <time>2016-09-08T09:06:20Z</time>
      </trkpt>
      <trkpt lat="45.87877" lon="4.82681">
        <ele>169</ele>
        <time>2016-09-08T09:06:21Z</time>
      </trkpt>
      <trkpt lat="45.87876" lon="4.82689">
        <ele>169</ele>
        <time>2016-09-08T09:06:22Z</time>
      </trkpt>
      <trkpt lat="45.87875" lon="4.82697">
        <ele>169</ele>
        <time>2016-09-08T09:06:23Z</time>
      </trkpt>
      <trkpt lat="45.87875" lon="4.82706">
        <ele>169</ele>
        <time>2016-09-08T09:06:24Z</time>
      </trkpt>
      <trkpt lat="45.87875" lon="4.82714">
        <ele>169</ele>
        <time>2016-09-08T09:06:25Z</time>
      </trkpt>
      <trkpt lat="45.87875" lon="4.82723">
        <ele>169</ele>
        <time>2016-09-08T09:06:26Z</time>
      </trkpt>
      <trkpt lat="45.87875" lon="4.82731">
        <ele>169</ele>
        <time>2016-09-08T09:06:27Z</time>
      </trkpt>
      <trkpt lat="45.87875" lon="4.8274">
        <ele>169</ele>
        <time>2016-09-08T09:06:28Z</time>
      </trkpt>
      <trkpt lat="45.87875" lon="4.82749">
        <ele>169</ele>
        <time>2016-09-08T09:06:29Z</time>
      </trkpt>
      <trkpt lat="45.87876" lon="4.82757">
        <ele>169</ele>
        <time>2016-09-08T09:06:30Z</time>
      </trkpt>
      <trkpt lat="45.87877" lon="4.82765">
        <ele>169</ele>
        <time>2016-09-08T09:06:31Z</time>
      </trkpt>
      <trkpt lat="45.87877" lon="4.82774">
        <ele>169</ele>
        <time>2016-09-08T09:06:32Z</time>
      </trkpt>
      <trkpt lat="45.87878" lon="4.82782">
        <ele>169</ele>
        <time>2016-09-08T09:06:33Z</time>
      </trkpt>
      <trkpt lat="45.87878" lon="4.82789">
        <ele>169</ele>
        <time>2016-09-08T09:06:34Z</time>
      </trkpt>
      <trkpt lat="45.87878" lon="4.82797">
        <ele>169</ele>
        <time>2016-09-08T09:06:35Z</time>
      </trkpt>
      <trkpt lat="45.87878" lon="4.82805">
        <ele>169</ele>
        <time>2016-09-08T09:06:36Z</time>
      </trkpt>
      <trkpt lat="45.87879" lon="4.82812">
        <ele>169</ele>
        <time>2016-09-08T09:06:37Z</time>
      </trkpt>
      <trkpt lat="45.8788" lon="4.8282">
        <ele>169</ele>
        <time>2016-09-08T09:06:38Z</time>
      </trkpt>
      <trkpt lat="45.87881" lon="4.82828">
        <ele>169</ele>
        <time>2016-09-08T09:06:39Z</time>
      </trkpt>
      <trkpt lat="45.87881" lon="4.82837">
        <ele>169</ele>
        <time>2016-09-08T09:06:40Z</time>
      </trkpt>
      <trkpt lat="45.87882" lon="4.82845">
        <ele>169</ele>
        <time>2016-09-08T09:06:41Z</time>
      </trkpt>
      <trkpt lat="45.87882" lon="4.82853">
        <ele>169</ele>
        <time>2016-09-08T09:06:42Z</time>
      </trkpt>
      <trkpt lat="45.87883" lon="4.82862">
        <ele>169</ele>
        <time>2016-09-08T09:06:43Z</time>
      </trkpt>
      <trkpt lat="45.87884" lon="4.8287">
        <ele>169</ele>
        <time>2016-09-08T09:06:44Z</time>
      </trkpt>
      <trkpt lat="45.87884" lon="4.82879">
        <ele>169</ele>
        <time>2016-09-08T09:06:45Z</time>
      </trkpt>
      <trkpt lat="45.87885" lon="4.82888">
        <ele>169</ele>
        <time>2016-09-08T09:06:46Z</time>
      </trkpt>
      <trkpt lat="45.87885" lon="4.82898">
        <ele>169</ele>
        <time>2016-09-08T09:06:47Z</time>
      </trkpt>
      <trkpt lat="45.87886" lon="4.82907">
        <ele>168</ele>
        <time>2016-09-08T09:06:48Z</time>
      </trkpt>
      <trkpt lat="45.87887" lon="4.82916">
        <ele>168</ele>
        <time>2016-09-08T09:06:49Z</time>
      </trkpt>
      <trkpt lat="45.87887" lon="4.82926">
        <ele>168</ele>
        <time>2016-09-08T09:06:50Z</time>
      </trkpt>
      <trkpt lat="45.87887" lon="4.82935">
        <ele>168</ele>
        <time>2016-09-08T09:06:51Z</time>
      </trkpt>
      <trkpt lat="45.87886" lon="4.82944">
        <ele>168</ele>
        <time>2016-09-08T09:06:52Z</time>
      </trkpt>
      <trkpt lat="45.87885" lon="4.82952">
        <ele>168</ele>
        <time>2016-09-08T09:06:53Z</time>
      </trkpt>
      <trkpt lat="45.87884" lon="4.8296">
        <ele>168</ele>
        <time>2016-09-08T09:06:54Z</time>
      </trkpt>
      <trkpt lat="45.87884" lon="4.82969">
        <ele>168</ele>
        <time>2016-09-08T09:06:55Z</time>
      </trkpt>
      <trkpt lat="45.87882" lon="4.82978">
        <ele>168</ele>
        <time>2016-09-08T09:06:56Z</time>
      </trkpt>
      <trkpt lat="45.87882" lon="4.82986">
        <ele>168</ele>
        <time>2016-09-08T09:06:57Z</time>
      </trkpt>
      <trkpt lat="45.87881" lon="4.82995">
        <ele>168</ele>
        <time>2016-09-08T09:06:58Z</time>
      </trkpt>
      <trkpt lat="45.8788" lon="4.83004">
        <ele>169</ele>
        <time>2016-09-08T09:06:59Z</time>
      </trkpt>
      <trkpt lat="45.87879" lon="4.83013">
        <ele>169</ele>
        <time>2016-09-08T09:07:00Z</time>
      </trkpt>
      <trkpt lat="45.87878" lon="4.83022">
        <ele>169</ele>
        <time>2016-09-08T09:07:01Z</time>
      </trkpt>
      <trkpt lat="45.87876" lon="4.8303">
        <ele>169</ele>
        <time>2016-09-08T09:07:02Z</time>
      </trkpt>
      <trkpt lat="45.87875" lon="4.83039">
        <ele>169</ele>
        <time>2016-09-08T09:07:03Z</time>
      </trkpt>
      <trkpt lat="45.87874" lon="4.83048">
        <ele>169</ele>
        <time>2016-09-08T09:07:04Z</time>
      </trkpt>
      <trkpt lat="45.87873" lon="4.83057">
        <ele>169</ele>
        <time>2016-09-08T09:07:05Z</time>
      </trkpt>
      <trkpt lat="45.87872" lon="4.83066">
        <ele>169</ele>
        <time>2016-09-08T09:07:06Z</time>
      </trkpt>
      <trkpt lat="45.8787" lon="4.83075">
        <ele>170</ele>
        <time>2016-09-08T09:07:07Z</time>
      </trkpt>
      <trkpt lat="45.87869" lon="4.83084">
        <ele>170</ele>
        <time>2016-09-08T09:07:08Z</time>
      </trkpt>
      <trkpt lat="45.87868" lon="4.83094">
        <ele>170</ele>
        <time>2016-09-08T09:07:09Z</time>
      </trkpt>
      <trkpt lat="45.87867" lon="4.83103">
        <ele>170</ele>
        <time>2016-09-08T09:07:10Z</time>
      </trkpt>
      <trkpt lat="45.87866" lon="4.83112">
        <ele>170</ele>
        <time>2016-09-08T09:07:11Z</time>
      </trkpt>
      <trkpt lat="45.87865" lon="4.83122">
        <ele>170</ele>
        <time>2016-09-08T09:07:12Z</time>
      </trkpt>
      <trkpt lat="45.87864" lon="4.83131">
        <ele>170</ele>
        <time>2016-09-08T09:07:13Z</time>
      </trkpt>
      <trkpt lat="45.87862" lon="4.83139">
        <ele>170</ele>
        <time>2016-09-08T09:07:14Z</time>
      </trkpt>
      <trkpt lat="45.87862" lon="4.83149">
        <ele>170</ele>
        <time>2016-09-08T09:07:15Z</time>
      </trkpt>
      <trkpt lat="45.87861" lon="4.83157">
        <ele>171</ele>
        <time>2016-09-08T09:07:16Z</time>
      </trkpt>
      <trkpt lat="45.8786" lon="4.83165">
        <ele>171</ele>
        <time>2016-09-08T09:07:17Z</time>
      </trkpt>
      <trkpt lat="45.87859" lon="4.83173">
        <ele>170</ele>
        <time>2016-09-08T09:07:18Z</time>
      </trkpt>
      <trkpt lat="45.87858" lon="4.83181">
        <ele>170</ele>
        <time>2016-09-08T09:07:19Z</time>
      </trkpt>
      <trkpt lat="45.87856" lon="4.83189">
        <ele>170</ele>
        <time>2016-09-08T09:07:20Z</time>
      </trkpt>
      <trkpt lat="45.87855" lon="4.83198">
        <ele>170</ele>
        <time>2016-09-08T09:07:21Z</time>
      </trkpt>
      <trkpt lat="45.87853" lon="4.83206">
        <ele>170</ele>
        <time>2016-09-08T09:07:22Z</time>
      </trkpt>
      <trkpt lat="45.87851" lon="4.83214">
        <ele>170</ele>
        <time>2016-09-08T09:07:23Z</time>
      </trkpt>
      <trkpt lat="45.87849" lon="4.83222">
        <ele>170</ele>
        <time>2016-09-08T09:07:24Z</time>
      </trkpt>
      <trkpt lat="45.87846" lon="4.83231">
        <ele>170</ele>
        <time>2016-09-08T09:07:25Z</time>
      </trkpt>
      <trkpt lat="45.87844" lon="4.8324">
        <ele>170</ele>
        <time>2016-09-08T09:07:26Z</time>
      </trkpt>
      <trkpt lat="45.87841" lon="4.83248">
        <ele>170</ele>
        <time>2016-09-08T09:07:27Z</time>
      </trkpt>
      <trkpt lat="45.87839" lon="4.83256">
        <ele>170</ele>
        <time>2016-09-08T09:07:28Z</time>
      </trkpt>
      <trkpt lat="45.87837" lon="4.83264">
        <ele>169</ele>
        <time>2016-09-08T09:07:29Z</time>
      </trkpt>
      <trkpt lat="45.87835" lon="4.83272">
        <ele>168</ele>
        <time>2016-09-08T09:07:30Z</time>
      </trkpt>
      <trkpt lat="45.87833" lon="4.83279">
        <ele>170</ele>
        <time>2016-09-08T09:07:31Z</time>
      </trkpt>
      <trkpt lat="45.87831" lon="4.83287">
        <ele>170</ele>
        <time>2016-09-08T09:07:32Z</time>
      </trkpt>
      <trkpt lat="45.87828" lon="4.83293">
        <ele>169</ele>
        <time>2016-09-08T09:07:33Z</time>
      </trkpt>
      <trkpt lat="45.87826" lon="4.83301">
        <ele>169</ele>
        <time>2016-09-08T09:07:34Z</time>
      </trkpt>
      <trkpt lat="45.87823" lon="4.83309">
        <ele>168</ele>
        <time>2016-09-08T09:07:35Z</time>
      </trkpt>
      <trkpt lat="45.87819" lon="4.83316">
        <ele>168</ele>
        <time>2016-09-08T09:07:36Z</time>
      </trkpt>
      <trkpt lat="45.87817" lon="4.83324">
        <ele>168</ele>
        <time>2016-09-08T09:07:37Z</time>
      </trkpt>
      <trkpt lat="45.87814" lon="4.83333">
        <ele>168</ele>
        <time>2016-09-08T09:07:38Z</time>
      </trkpt>
      <trkpt lat="45.87811" lon="4.83341">
        <ele>167</ele>
        <time>2016-09-08T09:07:39Z</time>
      </trkpt>
      <trkpt lat="45.87809" lon="4.83349">
        <ele>167</ele>
        <time>2016-09-08T09:07:40Z</time>
      </trkpt>
      <trkpt lat="45.87806" lon="4.83357">
        <ele>168</ele>
        <time>2016-09-08T09:07:41Z</time>
      </trkpt>
      <trkpt lat="45.87803" lon="4.83365">
        <ele>168</ele>
        <time>2016-09-08T09:07:42Z</time>
      </trkpt>
      <trkpt lat="45.878" lon="4.83373">
        <ele>168</ele>
        <time>2016-09-08T09:07:43Z</time>
      </trkpt>
      <trkpt lat="45.87797" lon="4.8338">
        <ele>168</ele>
        <time>2016-09-08T09:07:44Z</time>
      </trkpt>
      <trkpt lat="45.87794" lon="4.83387">
        <ele>168</ele>
        <time>2016-09-08T09:07:45Z</time>
      </trkpt>
      <trkpt lat="45.87791" lon="4.83395">
        <ele>168</ele>
        <time>2016-09-08T09:07:46Z</time>
      </trkpt>
      <trkpt lat="45.87789" lon="4.83403">
        <ele>169</ele>
        <time>2016-09-08T09:07:47Z</time>
      </trkpt>
      <trkpt lat="45.87786" lon="4.8341">
        <ele>169</ele>
        <time>2016-09-08T09:07:48Z</time>
      </trkpt>
      <trkpt lat="45.87783" lon="4.83418">
        <ele>169</ele>
        <time>2016-09-08T09:07:49Z</time>
      </trkpt>
      <trkpt lat="45.87779" lon="4.83425">
        <ele>169</ele>
        <time>2016-09-08T09:07:50Z</time>
      </trkpt>
      <trkpt lat="45.87776" lon="4.83431">
        <ele>170</ele>
        <time>2016-09-08T09:07:51Z</time>
      </trkpt>
      <trkpt lat="45.87771" lon="4.83437">
        <ele>170</ele>
        <time>2016-09-08T09:07:52Z</time>
      </trkpt>
      <trkpt lat="45.87767" lon="4.83443">
        <ele>170</ele>
        <time>2016-09-08T09:07:53Z</time>
      </trkpt>
      <trkpt lat="45.87763" lon="4.83449">
        <ele>170</ele>
        <time>2016-09-08T09:07:54Z</time>
      </trkpt>
      <trkpt lat="45.8776" lon="4.83454">
        <ele>170</ele>
        <time>2016-09-08T09:07:55Z</time>
      </trkpt>
      <trkpt lat="45.87756" lon="4.83459">
        <ele>170</ele>
        <time>2016-09-08T09:07:56Z</time>
      </trkpt>
      <trkpt lat="45.87753" lon="4.83464">
        <ele>170</ele>
        <time>2016-09-08T09:07:57Z</time>
      </trkpt>
      <trkpt lat="45.87749" lon="4.83469">
        <ele>172</ele>
        <time>2016-09-08T09:07:58Z</time>
      </trkpt>
      <trkpt lat="45.87746" lon="4.83474">
        <ele>172</ele>
        <time>2016-09-08T09:07:59Z</time>
      </trkpt>
      <trkpt lat="45.87742" lon="4.83479">
        <ele>172</ele>
        <time>2016-09-08T09:08:00Z</time>
      </trkpt>
      <trkpt lat="45.87738" lon="4.83484">
        <ele>172</ele>
        <time>2016-09-08T09:08:01Z</time>
      </trkpt>
      <trkpt lat="45.87735" lon="4.8349">
        <ele>172</ele>
        <time>2016-09-08T09:08:02Z</time>
      </trkpt>
      <trkpt lat="45.87731" lon="4.83494">
        <ele>172</ele>
        <time>2016-09-08T09:08:03Z</time>
      </trkpt>
      <trkpt lat="45.87728" lon="4.83499">
        <ele>172</ele>
        <time>2016-09-08T09:08:04Z</time>
      </trkpt>
      <trkpt lat="45.87724" lon="4.83503">
        <ele>170</ele>
        <time>2016-09-08T09:08:05Z</time>
      </trkpt>
      <trkpt lat="45.87718" lon="4.8351">
        <ele>170</ele>
        <time>2016-09-08T09:08:07Z</time>
      </trkpt>
      <trkpt lat="45.87714" lon="4.83513">
        <ele>170</ele>
        <time>2016-09-08T09:08:08Z</time>
      </trkpt>
      <trkpt lat="45.87709" lon="4.83519">
        <ele>169</ele>
        <time>2016-09-08T09:08:10Z</time>
      </trkpt>
      <trkpt lat="45.87706" lon="4.83521">
        <ele>169</ele>
        <time>2016-09-08T09:08:11Z</time>
      </trkpt>
      <trkpt lat="45.877" lon="4.83526">
        <ele>169</ele>
        <time>2016-09-08T09:08:13Z</time>
      </trkpt>
      <trkpt lat="45.87698" lon="4.83527">
        <ele>169</ele>
        <time>2016-09-08T09:08:14Z</time>
      </trkpt>
      <trkpt lat="45.87691" lon="4.83527">
        <ele>169</ele>
        <time>2016-09-08T09:08:16Z</time>
      </trkpt>
      <trkpt lat="45.87689" lon="4.83527">
        <ele>169</ele>
        <time>2016-09-08T09:08:17Z</time>
      </trkpt>
      <trkpt lat="45.87681" lon="4.83529">
        <ele>169</ele>
        <time>2016-09-08T09:08:19Z</time>
      </trkpt>
      <trkpt lat="45.87677" lon="4.83531">
        <ele>169</ele>
        <time>2016-09-08T09:08:20Z</time>
      </trkpt>
      <trkpt lat="45.87674" lon="4.8354">
        <ele>168</ele>
        <time>2016-09-08T09:08:22Z</time>
      </trkpt>
      <trkpt lat="45.87675" lon="4.83546">
        <ele>168</ele>
        <time>2016-09-08T09:08:23Z</time>
      </trkpt>
      <trkpt lat="45.87677" lon="4.83553">
        <ele>168</ele>
        <time>2016-09-08T09:08:24Z</time>
      </trkpt>
      <trkpt lat="45.87678" lon="4.83559">
        <ele>167</ele>
        <time>2016-09-08T09:08:25Z</time>
      </trkpt>
      <trkpt lat="45.87678" lon="4.83566">
        <ele>167</ele>
        <time>2016-09-08T09:08:26Z</time>
      </trkpt>
      <trkpt lat="45.87678" lon="4.83573">
        <ele>167</ele>
        <time>2016-09-08T09:08:27Z</time>
      </trkpt>
      <trkpt lat="45.87678" lon="4.8358">
        <ele>166</ele>
        <time>2016-09-08T09:08:28Z</time>
      </trkpt>
      <trkpt lat="45.87678" lon="4.83587">
        <ele>165</ele>
        <time>2016-09-08T09:08:29Z</time>
      </trkpt>
      <trkpt lat="45.87679" lon="4.83595">
        <ele>165</ele>
        <time>2016-09-08T09:08:30Z</time>
      </trkpt>
      <trkpt lat="45.87679" lon="4.83602">
        <ele>165</ele>
        <time>2016-09-08T09:08:31Z</time>
      </trkpt>
      <trkpt lat="45.87679" lon="4.83608">
        <ele>165</ele>
        <time>2016-09-08T09:08:32Z</time>
      </trkpt>
      <trkpt lat="45.8768" lon="4.83615">
        <ele>165</ele>
        <time>2016-09-08T09:08:33Z</time>
      </trkpt>
      <trkpt lat="45.8768" lon="4.83628">
        <ele>165</ele>
        <time>2016-09-08T09:08:35Z</time>
      </trkpt>
      <trkpt lat="45.87681" lon="4.83634">
        <ele>165</ele>
        <time>2016-09-08T09:08:36Z</time>
      </trkpt>
      <trkpt lat="45.87681" lon="4.8364">
        <ele>165</ele>
        <time>2016-09-08T09:08:37Z</time>
      </trkpt>
      <trkpt lat="45.87682" lon="4.83647">
        <ele>165</ele>
        <time>2016-09-08T09:08:38Z</time>
      </trkpt>
      <trkpt lat="45.87683" lon="4.83654">
        <ele>165</ele>
        <time>2016-09-08T09:08:39Z</time>
      </trkpt>
      <trkpt lat="45.87684" lon="4.83662">
        <ele>165</ele>
        <time>2016-09-08T09:08:40Z</time>
      </trkpt>
      <trkpt lat="45.87684" lon="4.83669">
        <ele>165</ele>
        <time>2016-09-08T09:08:41Z</time>
      </trkpt>
      <trkpt lat="45.87685" lon="4.83676">
        <ele>165</ele>
        <time>2016-09-08T09:08:42Z</time>
      </trkpt>
      <trkpt lat="45.87686" lon="4.83684">
        <ele>165</ele>
        <time>2016-09-08T09:08:43Z</time>
      </trkpt>
      <trkpt lat="45.87686" lon="4.83691">
        <ele>165</ele>
        <time>2016-09-08T09:08:44Z</time>
      </trkpt>
      <trkpt lat="45.87687" lon="4.83698">
        <ele>165</ele>
        <time>2016-09-08T09:08:45Z</time>
      </trkpt>
      <trkpt lat="45.87687" lon="4.83705">
        <ele>165</ele>
        <time>2016-09-08T09:08:46Z</time>
      </trkpt>
      <trkpt lat="45.87687" lon="4.83712">
        <ele>165</ele>
        <time>2016-09-08T09:08:47Z</time>
      </trkpt>
      <trkpt lat="45.87686" lon="4.8372">
        <ele>165</ele>
        <time>2016-09-08T09:08:48Z</time>
      </trkpt>
      <trkpt lat="45.87687" lon="4.83727">
        <ele>165</ele>
        <time>2016-09-08T09:08:49Z</time>
      </trkpt>
      <trkpt lat="45.87686" lon="4.83735">
        <ele>165</ele>
        <time>2016-09-08T09:08:50Z</time>
      </trkpt>
      <trkpt lat="45.87687" lon="4.83742">
        <ele>165</ele>
        <time>2016-09-08T09:08:51Z</time>
      </trkpt>
      <trkpt lat="45.87687" lon="4.8375">
        <ele>165</ele>
        <time>2016-09-08T09:08:52Z</time>
      </trkpt>
      <trkpt lat="45.87687" lon="4.83758">
        <ele>167</ele>
        <time>2016-09-08T09:08:53Z</time>
      </trkpt>
      <trkpt lat="45.87687" lon="4.83766">
        <ele>167</ele>
        <time>2016-09-08T09:08:54Z</time>
      </trkpt>
      <trkpt lat="45.87688" lon="4.83774">
        <ele>167</ele>
        <time>2016-09-08T09:08:55Z</time>
      </trkpt>
      <trkpt lat="45.8769" lon="4.83783">
        <ele>168</ele>
        <time>2016-09-08T09:08:56Z</time>
      </trkpt>
      <trkpt lat="45.87691" lon="4.83791">
        <ele>168</ele>
        <time>2016-09-08T09:08:57Z</time>
      </trkpt>
      <trkpt lat="45.87692" lon="4.83798">
        <ele>169</ele>
        <time>2016-09-08T09:08:58Z</time>
      </trkpt>
      <trkpt lat="45.87693" lon="4.83805">
        <ele>169</ele>
        <time>2016-09-08T09:08:59Z</time>
      </trkpt>
      <trkpt lat="45.87694" lon="4.83811">
        <ele>169</ele>
        <time>2016-09-08T09:09:00Z</time>
      </trkpt>
      <trkpt lat="45.87693" lon="4.83824">
        <ele>170</ele>
        <time>2016-09-08T09:09:02Z</time>
      </trkpt>
      <trkpt lat="45.87693" lon="4.83831">
        <ele>170</ele>
        <time>2016-09-08T09:09:03Z</time>
      </trkpt>
      <trkpt lat="45.87694" lon="4.83837">
        <ele>172</ele>
        <time>2016-09-08T09:09:04Z</time>
      </trkpt>
      <trkpt lat="45.87695" lon="4.83844">
        <ele>172</ele>
        <time>2016-09-08T09:09:05Z</time>
      </trkpt>
      <trkpt lat="45.87697" lon="4.8385">
        <ele>172</ele>
        <time>2016-09-08T09:09:06Z</time>
      </trkpt>
      <trkpt lat="45.877" lon="4.83855">
        <ele>172</ele>
        <time>2016-09-08T09:09:07Z</time>
      </trkpt>
      <trkpt lat="45.87705" lon="4.83865">
        <ele>172</ele>
        <time>2016-09-08T09:09:09Z</time>
      </trkpt>
      <trkpt lat="45.87707" lon="4.83871">
        <ele>172</ele>
        <time>2016-09-08T09:09:10Z</time>
      </trkpt>
      <trkpt lat="45.87709" lon="4.83882">
        <ele>172</ele>
        <time>2016-09-08T09:09:12Z</time>
      </trkpt>
      <trkpt lat="45.87709" lon="4.83888">
        <ele>172</ele>
        <time>2016-09-08T09:09:13Z</time>
      </trkpt>
      <trkpt lat="45.8771" lon="4.83901">
        <ele>172</ele>
        <time>2016-09-08T09:09:15Z</time>
      </trkpt>
      <trkpt lat="45.87711" lon="4.83907">
        <ele>172</ele>
        <time>2016-09-08T09:09:16Z</time>
      </trkpt>
      <trkpt lat="45.87711" lon="4.83913">
        <ele>172</ele>
        <time>2016-09-08T09:09:17Z</time>
      </trkpt>
      <trkpt lat="45.87711" lon="4.8392">
        <ele>174</ele>
        <time>2016-09-08T09:09:18Z</time>
      </trkpt>
      <trkpt lat="45.87712" lon="4.83928">
        <ele>174</ele>
        <time>2016-09-08T09:09:19Z</time>
      </trkpt>
      <trkpt lat="45.87713" lon="4.83935">
        <ele>174</ele>
        <time>2016-09-08T09:09:20Z</time>
      </trkpt>
      <trkpt lat="45.87714" lon="4.83946">
        <ele>174</ele>
        <time>2016-09-08T09:09:22Z</time>
      </trkpt>
      <trkpt lat="45.87715" lon="4.83952">
        <ele>174</ele>
        <time>2016-09-08T09:09:23Z</time>
      </trkpt>
      <trkpt lat="45.87717" lon="4.83962">
        <ele>174</ele>
        <time>2016-09-08T09:09:25Z</time>
      </trkpt>
      <trkpt lat="45.87718" lon="4.83967">
        <ele>175</ele>
        <time>2016-09-08T09:09:26Z</time>
      </trkpt>
      <trkpt lat="45.87719" lon="4.83976">
        <ele>175</ele>
        <time>2016-09-08T09:09:28Z</time>
      </trkpt>
      <trkpt lat="45.8772" lon="4.83981">
        <ele>175</ele>
        <time>2016-09-08T09:09:29Z</time>
      </trkpt>
      <trkpt lat="45.8772" lon="4.83991">
        <ele>175</ele>
        <time>2016-09-08T09:09:31Z</time>
      </trkpt>
      <trkpt lat="45.8772" lon="4.83996">
        <ele>175</ele>
        <time>2016-09-08T09:09:32Z</time>
      </trkpt>
      <trkpt lat="45.87719" lon="4.84007">
        <ele>177</ele>
        <time>2016-09-08T09:09:35Z</time>
      </trkpt>
      <trkpt lat="45.87718" lon="4.84012">
        <ele>177</ele>
        <time>2016-09-08T09:09:36Z</time>
      </trkpt>
      <trkpt lat="45.87715" lon="4.84021">
        <ele>177</ele>
        <time>2016-09-08T09:09:38Z</time>
      </trkpt>
      <trkpt lat="45.87714" lon="4.84025">
        <ele>177</ele>
        <time>2016-09-08T09:09:39Z</time>
      </trkpt>
      <trkpt lat="45.87709" lon="4.84033">
        <ele>177</ele>
        <time>2016-09-08T09:09:41Z</time>
      </trkpt>
      <trkpt lat="45.87707" lon="4.84037">
        <ele>177</ele>
        <time>2016-09-08T09:09:42Z</time>
      </trkpt>
      <trkpt lat="45.87703" lon="4.84044">
        <ele>177</ele>
        <time>2016-09-08T09:09:44Z</time>
      </trkpt>
      <trkpt lat="45.87701" lon="4.84047">
        <ele>177</ele>
        <time>2016-09-08T09:09:45Z</time>
      </trkpt>
      <trkpt lat="45.87696" lon="4.84056">
        <ele>178</ele>
        <time>2016-09-08T09:09:47Z</time>
      </trkpt>
      <trkpt lat="45.87693" lon="4.84059">
        <ele>178</ele>
        <time>2016-09-08T09:09:48Z</time>
      </trkpt>
      <trkpt lat="45.87689" lon="4.84068">
        <ele>178</ele>
        <time>2016-09-08T09:09:50Z</time>
      </trkpt>
      <trkpt lat="45.87687" lon="4.84071">
        <ele>178</ele>
        <time>2016-09-08T09:09:51Z</time>
      </trkpt>
      <trkpt lat="45.87684" lon="4.84081">
        <ele>178</ele>
        <time>2016-09-08T09:09:53Z</time>
      </trkpt>
      <trkpt lat="45.87682" lon="4.84086">
        <ele>179</ele>
        <time>2016-09-08T09:09:54Z</time>
      </trkpt>
      <trkpt lat="45.8768" lon="4.84096">
        <ele>179</ele>
        <time>2016-09-08T09:09:56Z</time>
      </trkpt>
      <trkpt lat="45.87678" lon="4.84102">
        <ele>179</ele>
        <time>2016-09-08T09:09:57Z</time>
      </trkpt>
      <trkpt lat="45.87675" lon="4.84113">
        <ele>179</ele>
        <time>2016-09-08T09:09:59Z</time>
      </trkpt>
      <trkpt lat="45.87673" lon="4.84119">
        <ele>179</ele>
        <time>2016-09-08T09:10:00Z</time>
      </trkpt>
      <trkpt lat="45.87673" lon="4.84132">
        <ele>180</ele>
        <time>2016-09-08T09:10:02Z</time>
      </trkpt>
      <trkpt lat="45.87672" lon="4.84136">
        <ele>180</ele>
        <time>2016-09-08T09:10:03Z</time>
      </trkpt>
      <trkpt lat="45.87671" lon="4.84146">
        <ele>180</ele>
        <time>2016-09-08T09:10:05Z</time>
      </trkpt>
      <trkpt lat="45.8767" lon="4.8415">
        <ele>180</ele>
        <time>2016-09-08T09:10:06Z</time>
      </trkpt>
      <trkpt lat="45.87669" lon="4.84159">
        <ele>180</ele>
        <time>2016-09-08T09:10:08Z</time>
      </trkpt>
      <trkpt lat="45.87669" lon="4.84164">
        <ele>180</ele>
        <time>2016-09-08T09:10:09Z</time>
      </trkpt>
      <trkpt lat="45.87667" lon="4.84175">
        <ele>180</ele>
        <time>2016-09-08T09:10:11Z</time>
      </trkpt>
      <trkpt lat="45.87666" lon="4.8418">
        <ele>180</ele>
        <time>2016-09-08T09:10:12Z</time>
      </trkpt>
      <trkpt lat="45.87662" lon="4.8419">
        <ele>180</ele>
        <time>2016-09-08T09:10:14Z</time>
      </trkpt>
      <trkpt lat="45.87661" lon="4.84195">
        <ele>180</ele>
        <time>2016-09-08T09:10:15Z</time>
      </trkpt>
      <trkpt lat="45.87659" lon="4.84206">
        <ele>180</ele>
        <time>2016-09-08T09:10:17Z</time>
      </trkpt>
      <trkpt lat="45.87658" lon="4.84211">
        <ele>180</ele>
        <time>2016-09-08T09:10:18Z</time>
      </trkpt>
      <trkpt lat="45.87655" lon="4.8422">
        <ele>180</ele>
        <time>2016-09-08T09:10:20Z</time>
      </trkpt>
      <trkpt lat="45.87653" lon="4.84225">
        <ele>180</ele>
        <time>2016-09-08T09:10:21Z</time>
      </trkpt>
      <trkpt lat="45.87652" lon="4.84236">
        <ele>180</ele>
        <time>2016-09-08T09:10:23Z</time>
      </trkpt>
      <trkpt lat="45.8765" lon="4.84241">
        <ele>180</ele>
        <time>2016-09-08T09:10:24Z</time>
      </trkpt>
      <trkpt lat="45.87649" lon="4.84253">
        <ele>181</ele>
        <time>2016-09-08T09:10:26Z</time>
      </trkpt>
      <trkpt lat="45.87649" lon="4.84258">
        <ele>181</ele>
        <time>2016-09-08T09:10:27Z</time>
      </trkpt>
      <trkpt lat="45.87648" lon="4.84268">
        <ele>181</ele>
        <time>2016-09-08T09:10:29Z</time>
      </trkpt>
      <trkpt lat="45.87647" lon="4.84273">
        <ele>181</ele>
        <time>2016-09-08T09:10:30Z</time>
      </trkpt>
      <trkpt lat="45.87643" lon="4.84284">
        <ele>181</ele>
        <time>2016-09-08T09:10:33Z</time>
      </trkpt>
      <trkpt lat="45.87641" lon="4.84288">
        <ele>181</ele>
        <time>2016-09-08T09:10:34Z</time>
      </trkpt>
      <trkpt lat="45.87639" lon="4.84297">
        <ele>181</ele>
        <time>2016-09-08T09:10:36Z</time>
      </trkpt>
      <trkpt lat="45.87638" lon="4.84302">
        <ele>181</ele>
        <time>2016-09-08T09:10:37Z</time>
      </trkpt>
      <trkpt lat="45.87638" lon="4.84313">
        <ele>181</ele>
        <time>2016-09-08T09:10:39Z</time>
      </trkpt>
      <trkpt lat="45.87638" lon="4.84317">
        <ele>181</ele>
        <time>2016-09-08T09:10:40Z</time>
      </trkpt>
      <trkpt lat="45.87639" lon="4.84327">
        <ele>182</ele>
        <time>2016-09-08T09:10:42Z</time>
      </trkpt>
      <trkpt lat="45.87639" lon="4.84332">
        <ele>182</ele>
        <time>2016-09-08T09:10:43Z</time>
      </trkpt>
      <trkpt lat="45.87641" lon="4.84341">
        <ele>183</ele>
        <time>2016-09-08T09:10:45Z</time>
      </trkpt>
      <trkpt lat="45.87642" lon="4.84346">
        <ele>184</ele>
        <time>2016-09-08T09:10:46Z</time>
      </trkpt>
      <trkpt lat="45.87644" lon="4.84356">
        <ele>184</ele>
        <time>2016-09-08T09:10:48Z</time>
      </trkpt>
      <trkpt lat="45.87645" lon="4.8436">
        <ele>184</ele>
        <time>2016-09-08T09:10:49Z</time>
      </trkpt>
      <trkpt lat="45.87646" lon="4.84368">
        <ele>184</ele>
        <time>2016-09-08T09:10:51Z</time>
      </trkpt>
      <trkpt lat="45.87646" lon="4.84372">
        <ele>184</ele>
        <time>2016-09-08T09:10:52Z</time>
      </trkpt>
      <trkpt lat="45.87648" lon="4.84385">
        <ele>184</ele>
        <time>2016-09-08T09:10:55Z</time>
      </trkpt>
      <trkpt lat="45.87649" lon="4.84389">
        <ele>184</ele>
        <time>2016-09-08T09:10:56Z</time>
      </trkpt>
      <trkpt lat="45.8765" lon="4.84401">
        <ele>185</ele>
        <time>2016-09-08T09:10:59Z</time>
      </trkpt>
      <trkpt lat="45.8765" lon="4.84404">
        <ele>185</ele>
        <time>2016-09-08T09:11:00Z</time>
      </trkpt>
      <trkpt lat="45.87651" lon="4.84416">
        <ele>185</ele>
        <time>2016-09-08T09:11:03Z</time>
      </trkpt>
      <trkpt lat="45.87652" lon="4.8442">
        <ele>187</ele>
        <time>2016-09-08T09:11:04Z</time>
      </trkpt>
      <trkpt lat="45.87652" lon="4.84431">
        <ele>187</ele>
        <time>2016-09-08T09:11:06Z</time>
      </trkpt>
      <trkpt lat="45.87653" lon="4.84436">
        <ele>187</ele>
        <time>2016-09-08T09:11:07Z</time>
      </trkpt>
      <trkpt lat="45.87653" lon="4.84448">
        <ele>187</ele>
        <time>2016-09-08T09:11:10Z</time>
      </trkpt>
      <trkpt lat="45.87652" lon="4.84455">
        <ele>187</ele>
        <time>2016-09-08T09:11:11Z</time>
      </trkpt>
      <trkpt lat="45.87651" lon="4.84467">
        <ele>187</ele>
        <time>2016-09-08T09:11:13Z</time>
      </trkpt>
      <trkpt lat="45.87651" lon="4.84472">
        <ele>187</ele>
        <time>2016-09-08T09:11:14Z</time>
      </trkpt>
      <trkpt lat="45.87652" lon="4.84481">
        <ele>188</ele>
        <time>2016-09-08T09:11:16Z</time>
      </trkpt>
      <trkpt lat="45.87653" lon="4.84485">
        <ele>188</ele>
        <time>2016-09-08T09:11:17Z</time>
      </trkpt>
      <trkpt lat="45.87656" lon="4.84494">
        <ele>188</ele>
        <time>2016-09-08T09:11:19Z</time>
      </trkpt>
      <trkpt lat="45.87657" lon="4.84498">
        <ele>188</ele>
        <time>2016-09-08T09:11:20Z</time>
      </trkpt>
      <trkpt lat="45.87658" lon="4.8451">
        <ele>188</ele>
        <time>2016-09-08T09:11:23Z</time>
      </trkpt>
      <trkpt lat="45.87658" lon="4.84515">
        <ele>189</ele>
        <time>2016-09-08T09:11:24Z</time>
      </trkpt>
      <trkpt lat="45.87657" lon="4.84523">
        <ele>189</ele>
        <time>2016-09-08T09:11:26Z</time>
      </trkpt>
      <trkpt lat="45.87656" lon="4.84528">
        <ele>189</ele>
        <time>2016-09-08T09:11:27Z</time>
      </trkpt>
      <trkpt lat="45.87653" lon="4.8454">
        <ele>189</ele>
        <time>2016-09-08T09:11:30Z</time>
      </trkpt>
      <trkpt lat="45.87653" lon="4.84543">
        <ele>189</ele>
        <time>2016-09-08T09:11:31Z</time>
      </trkpt>
      <trkpt lat="45.87652" lon="4.84555">
        <ele>189</ele>
        <time>2016-09-08T09:11:34Z</time>
      </trkpt>
      <trkpt lat="45.87652" lon="4.84559">
        <ele>189</ele>
        <time>2016-09-08T09:11:35Z</time>
      </trkpt>
      <trkpt lat="45.87651" lon="4.84569">
        <ele>189</ele>
        <time>2016-09-08T09:11:37Z</time>
      </trkpt>
      <trkpt lat="45.87651" lon="4.84574">
        <ele>189</ele>
        <time>2016-09-08T09:11:38Z</time>
      </trkpt>
      <trkpt lat="45.87652" lon="4.84583">
        <ele>189</ele>
        <time>2016-09-08T09:11:40Z</time>
      </trkpt>
      <trkpt lat="45.87653" lon="4.84587">
        <ele>190</ele>
        <time>2016-09-08T09:11:41Z</time>
      </trkpt>
      <trkpt lat="45.87652" lon="4.84598">
        <ele>190</ele>
        <time>2016-09-08T09:11:44Z</time>
      </trkpt>
      <trkpt lat="45.87652" lon="4.84603">
        <ele>190</ele>
        <time>2016-09-08T09:11:45Z</time>
      </trkpt>
      <trkpt lat="45.8765" lon="4.84615">
        <ele>191</ele>
        <time>2016-09-08T09:11:48Z</time>
      </trkpt>
      <trkpt lat="45.8765" lon="4.84619">
        <ele>191</ele>
        <time>2016-09-08T09:11:49Z</time>
      </trkpt>
      <trkpt lat="45.87651" lon="4.84632">
        <ele>191</ele>
        <time>2016-09-08T09:11:52Z</time>
      </trkpt>
      <trkpt lat="45.87649" lon="4.84636">
        <ele>191</ele>
        <time>2016-09-08T09:11:53Z</time>
      </trkpt>
      <trkpt lat="45.87648" lon="4.84645">
        <ele>191</ele>
        <time>2016-09-08T09:11:55Z</time>
      </trkpt>
      <trkpt lat="45.87647" lon="4.84649">
        <ele>191</ele>
        <time>2016-09-08T09:11:56Z</time>
      </trkpt>
      <trkpt lat="45.87645" lon="4.8466">
        <ele>191</ele>
        <time>2016-09-08T09:11:59Z</time>
      </trkpt>
      <trkpt lat="45.87645" lon="4.84664">
        <ele>191</ele>
        <time>2016-09-08T09:12:00Z</time>
      </trkpt>
      <trkpt lat="45.87644" lon="4.84675">
        <ele>193</ele>
        <time>2016-09-08T09:12:03Z</time>
      </trkpt>
      <trkpt lat="45.87643" lon="4.84679">
        <ele>193</ele>
        <time>2016-09-08T09:12:04Z</time>
      </trkpt>
      <trkpt lat="45.87641" lon="4.84691">
        <ele>194</ele>
        <time>2016-09-08T09:12:07Z</time>
      </trkpt>
      <trkpt lat="45.87641" lon="4.84697">
        <ele>194</ele>
        <time>2016-09-08T09:12:08Z</time>
      </trkpt>
      <trkpt lat="45.87639" lon="4.84706">
        <ele>194</ele>
        <time>2016-09-08T09:12:10Z</time>
      </trkpt>
      <trkpt lat="45.87638" lon="4.8471">
        <ele>195</ele>
        <time>2016-09-08T09:12:11Z</time>
      </trkpt>
      <trkpt lat="45.87638" lon="4.84721">
        <ele>195</ele>
        <time>2016-09-08T09:12:14Z</time>
      </trkpt>
      <trkpt lat="45.87637" lon="4.84724">
        <ele>195</ele>
        <time>2016-09-08T09:12:15Z</time>
      </trkpt>
      <trkpt lat="45.87636" lon="4.84735">
        <ele>195</ele>
        <time>2016-09-08T09:12:18Z</time>
      </trkpt>
      <trkpt lat="45.87636" lon="4.84738">
        <ele>195</ele>
        <time>2016-09-08T09:12:19Z</time>
      </trkpt>
      <trkpt lat="45.87635" lon="4.84749">
        <ele>195</ele>
        <time>2016-09-08T09:12:22Z</time>
      </trkpt>
      <trkpt lat="45.87634" lon="4.84753">
        <ele>198</ele>
        <time>2016-09-08T09:12:23Z</time>
      </trkpt>
      <trkpt lat="45.87634" lon="4.84764">
        <ele>198</ele>
        <time>2016-09-08T09:12:26Z</time>
      </trkpt>
      <trkpt lat="45.87634" lon="4.84767">
        <ele>199</ele>
        <time>2016-09-08T09:12:27Z</time>
      </trkpt>
      <trkpt lat="45.87634" lon="4.84778">
        <ele>199</ele>
        <time>2016-09-08T09:12:30Z</time>
      </trkpt>
      <trkpt lat="45.87634" lon="4.84781">
        <ele>199</ele>
        <time>2016-09-08T09:12:31Z</time>
      </trkpt>
      <trkpt lat="45.87633" lon="4.84793">
        <ele>199</ele>
        <time>2016-09-08T09:12:35Z</time>
      </trkpt>
      <trkpt lat="45.87633" lon="4.84796">
        <ele>199</ele>
        <time>2016-09-08T09:12:36Z</time>
      </trkpt>
      <trkpt lat="45.8763" lon="4.84807">
        <ele>200</ele>
        <time>2016-09-08T09:12:39Z</time>
      </trkpt>
      <trkpt lat="45.87628" lon="4.8481">
        <ele>200</ele>
        <time>2016-09-08T09:12:40Z</time>
      </trkpt>
      <trkpt lat="45.87627" lon="4.84821">
        <ele>200</ele>
        <time>2016-09-08T09:12:43Z</time>
      </trkpt>
      <trkpt lat="45.87626" lon="4.84824">
        <ele>200</ele>
        <time>2016-09-08T09:12:44Z</time>
      </trkpt>
      <trkpt lat="45.87624" lon="4.84834">
        <ele>204</ele>
        <time>2016-09-08T09:12:47Z</time>
      </trkpt>
      <trkpt lat="45.87624" lon="4.84838">
        <ele>204</ele>
        <time>2016-09-08T09:12:48Z</time>
      </trkpt>
      <trkpt lat="45.87625" lon="4.84848">
        <ele>204</ele>
        <time>2016-09-08T09:12:51Z</time>
      </trkpt>
      <trkpt lat="45.87626" lon="4.84852">
        <ele>204</ele>
        <time>2016-09-08T09:12:52Z</time>
      </trkpt>
      <trkpt lat="45.87629" lon="4.84864">
        <ele>205</ele>
        <time>2016-09-08T09:12:56Z</time>
      </trkpt>
      <trkpt lat="45.8763" lon="4.84867">
        <ele>205</ele>
        <time>2016-09-08T09:12:57Z</time>
      </trkpt>
      <trkpt lat="45.87634" lon="4.84876">
        <ele>205</ele>
        <time>2016-09-08T09:13:00Z</time>
      </trkpt>
      <trkpt lat="45.87637" lon="4.84878">
        <ele>205</ele>
        <time>2016-09-08T09:13:01Z</time>
      </trkpt>
      <trkpt lat="45.87642" lon="4.84885">
        <ele>205</ele>
        <time>2016-09-08T09:13:04Z</time>
      </trkpt>
      <trkpt lat="45.87644" lon="4.84887">
        <ele>205</ele>
        <time>2016-09-08T09:13:05Z</time>
      </trkpt>
      <trkpt lat="45.87649" lon="4.84895">
        <ele>206</ele>
        <time>2016-09-08T09:13:08Z</time>
      </trkpt>
      <trkpt lat="45.87651" lon="4.84897">
        <ele>206</ele>
        <time>2016-09-08T09:13:09Z</time>
      </trkpt>
      <trkpt lat="45.87658" lon="4.84903">
        <ele>207</ele>
        <time>2016-09-08T09:13:12Z</time>
      </trkpt>
      <trkpt lat="45.8766" lon="4.84905">
        <ele>207</ele>
        <time>2016-09-08T09:13:13Z</time>
      </trkpt>
      <trkpt lat="45.87666" lon="4.84911">
        <ele>207</ele>
        <time>2016-09-08T09:13:16Z</time>
      </trkpt>
      <trkpt lat="45.87668" lon="4.84913">
        <ele>207</ele>
        <time>2016-09-08T09:13:17Z</time>
      </trkpt>
      <trkpt lat="45.87672" lon="4.84922">
        <ele>208</ele>
        <time>2016-09-08T09:13:20Z</time>
      </trkpt>
      <trkpt lat="45.87674" lon="4.84924">
        <ele>209</ele>
        <time>2016-09-08T09:13:21Z</time>
      </trkpt>
      <trkpt lat="45.87678" lon="4.84931">
        <ele>209</ele>
        <time>2016-09-08T09:13:24Z</time>
      </trkpt>
      <trkpt lat="45.8768" lon="4.84933">
        <ele>209</ele>
        <time>2016-09-08T09:13:25Z</time>
      </trkpt>
      <trkpt lat="45.87684" lon="4.84941">
        <ele>209</ele>
        <time>2016-09-08T09:13:28Z</time>
      </trkpt>
      <trkpt lat="45.87686" lon="4.84943">
        <ele>209</ele>
        <time>2016-09-08T09:13:29Z</time>
      </trkpt>
      <trkpt lat="45.87691" lon="4.84952">
        <ele>210</ele>
        <time>2016-09-08T09:13:33Z</time>
      </trkpt>
      <trkpt lat="45.87692" lon="4.84953">
        <ele>210</ele>
        <time>2016-09-08T09:13:34Z</time>
      </trkpt>
      <trkpt lat="45.87698" lon="4.84963">
        <ele>210</ele>
        <time>2016-09-08T09:13:38Z</time>
      </trkpt>
      <trkpt lat="45.877" lon="4.84965">
        <ele>210</ele>
        <time>2016-09-08T09:13:39Z</time>
      </trkpt>
      <trkpt lat="45.87706" lon="4.84973">
        <ele>210</ele>
        <time>2016-09-08T09:13:42Z</time>
      </trkpt>
      <trkpt lat="45.87708" lon="4.84976">
        <ele>210</ele>
        <time>2016-09-08T09:13:43Z</time>
      </trkpt>
      <trkpt lat="45.87713" lon="4.84983">
        <ele>210</ele>
        <time>2016-09-08T09:13:46Z</time>
      </trkpt>
      <trkpt lat="45.87715" lon="4.84985">
        <ele>210</ele>
        <time>2016-09-08T09:13:47Z</time>
      </trkpt>
      <trkpt lat="45.87721" lon="4.84993">
        <ele>210</ele>
        <time>2016-09-08T09:13:51Z</time>
      </trkpt>
      <trkpt lat="45.87723" lon="4.84995">
        <ele>210</ele>
        <time>2016-09-08T09:13:52Z</time>
      </trkpt>
      <trkpt lat="45.87729" lon="4.85004">
        <ele>214</ele>
        <time>2016-09-08T09:13:56Z</time>
      </trkpt>
      <trkpt lat="45.87731" lon="4.85006">
        <ele>214</ele>
        <time>2016-09-08T09:13:57Z</time>
      </trkpt>
      <trkpt lat="45.87735" lon="4.85013">
        <ele>214</ele>
        <time>2016-09-08T09:14:00Z</time>
      </trkpt>
      <trkpt lat="45.87737" lon="4.85016">
        <ele>214</ele>
        <time>2016-09-08T09:14:01Z</time>
      </trkpt>
      <trkpt lat="45.87742" lon="4.85024">
        <ele>214</ele>
        <time>2016-09-08T09:14:04Z</time>
      </trkpt>
      <trkpt lat="45.87744" lon="4.85027">
        <ele>214</ele>
        <time>2016-09-08T09:14:05Z</time>
      </trkpt>
      <trkpt lat="45.87749" lon="4.85034">
        <ele>215</ele>
        <time>2016-09-08T09:14:08Z</time>
      </trkpt>
      <trkpt lat="45.87751" lon="4.85036">
        <ele>213</ele>
        <time>2016-09-08T09:14:09Z</time>
      </trkpt>
      <trkpt lat="45.87757" lon="4.85042">
        <ele>213</ele>
        <time>2016-09-08T09:14:12Z</time>
      </trkpt>
      <trkpt lat="45.87759" lon="4.85044">
        <ele>213</ele>
        <time>2016-09-08T09:14:13Z</time>
      </trkpt>
      <trkpt lat="45.87764" lon="4.85051">
        <ele>213</ele>
        <time>2016-09-08T09:14:16Z</time>
      </trkpt>
      <trkpt lat="45.87766" lon="4.85054">
        <ele>214</ele>
        <time>2016-09-08T09:14:17Z</time>
      </trkpt>
      <trkpt lat="45.87771" lon="4.85062">
        <ele>214</ele>
        <time>2016-09-08T09:14:20Z</time>
      </trkpt>
      <trkpt lat="45.87773" lon="4.85064">
        <ele>214</ele>
        <time>2016-09-08T09:14:21Z</time>
      </trkpt>
      <trkpt lat="45.87779" lon="4.85071">
        <ele>214</ele>
        <time>2016-09-08T09:14:24Z</time>
      </trkpt>
      <trkpt lat="45.8778" lon="4.85074">
        <ele>214</ele>
        <time>2016-09-08T09:14:25Z</time>
      </trkpt>
      <trkpt lat="45.87786" lon="4.85082">
        <ele>214</ele>
        <time>2016-09-08T09:14:28Z</time>
      </trkpt>
      <trkpt lat="45.87787" lon="4.85085">
        <ele>218</ele>
        <time>2016-09-08T09:14:29Z</time>
      </trkpt>
      <trkpt lat="45.87793" lon="4.85092">
        <ele>218</ele>
        <time>2016-09-08T09:14:32Z</time>
      </trkpt>
      <trkpt lat="45.87794" lon="4.85095">
        <ele>218</ele>
        <time>2016-09-08T09:14:33Z</time>
      </trkpt>
      <trkpt lat="45.878" lon="4.85102">
        <ele>218</ele>
        <time>2016-09-08T09:14:36Z</time>
      </trkpt>
      <trkpt lat="45.87802" lon="4.85104">
        <ele>218</ele>
        <time>2016-09-08T09:14:37Z</time>
      </trkpt>
      <trkpt lat="45.87807" lon="4.85112">
        <ele>218</ele>
        <time>2016-09-08T09:14:40Z</time>
      </trkpt>
      <trkpt lat="45.87809" lon="4.85114">
        <ele>219</ele>
        <time>2016-09-08T09:14:41Z</time>
      </trkpt>
      <trkpt lat="45.87814" lon="4.85124">
        <ele>219</ele>
        <time>2016-09-08T09:14:44Z</time>
      </trkpt>
      <trkpt lat="45.87816" lon="4.85127">
        <ele>219</ele>
        <time>2016-09-08T09:14:45Z</time>
      </trkpt>
      <trkpt lat="45.87821" lon="4.85134">
        <ele>219</ele>
        <time>2016-09-08T09:14:48Z</time>
      </trkpt>
      <trkpt lat="45.87823" lon="4.85136">
        <ele>219</ele>
        <time>2016-09-08T09:14:49Z</time>
      </trkpt>
      <trkpt lat="45.87827" lon="4.85144">
        <ele>220</ele>
        <time>2016-09-08T09:14:52Z</time>
      </trkpt>
      <trkpt lat="45.87829" lon="4.85146">
        <ele>220</ele>
        <time>2016-09-08T09:14:53Z</time>
      </trkpt>
      <trkpt lat="45.87835" lon="4.85156">
        <ele>219</ele>
        <time>2016-09-08T09:14:57Z</time>
      </trkpt>
      <trkpt lat="45.87836" lon="4.85158">
        <ele>219</ele>
        <time>2016-09-08T09:14:58Z</time>
      </trkpt>
      <trkpt lat="45.87842" lon="4.85167">
        <ele>219</ele>
        <time>2016-09-08T09:15:02Z</time>
      </trkpt>
      <trkpt lat="45.87844" lon="4.85169">
        <ele>222</ele>
        <time>2016-09-08T09:15:03Z</time>
      </trkpt>
      <trkpt lat="45.87849" lon="4.85175">
        <ele>222</ele>
        <time>2016-09-08T09:15:06Z</time>
      </trkpt>
      <trkpt lat="45.87851" lon="4.85178">
        <ele>222</ele>
        <time>2016-09-08T09:15:07Z</time>
      </trkpt>
      <trkpt lat="45.87856" lon="4.85186">
        <ele>223</ele>
        <time>2016-09-08T09:15:10Z</time>
      </trkpt>
      <trkpt lat="45.87857" lon="4.85189">
        <ele>223</ele>
        <time>2016-09-08T09:15:11Z</time>
      </trkpt>
      <trkpt lat="45.87863" lon="4.85196">
        <ele>223</ele>
        <time>2016-09-08T09:15:14Z</time>
      </trkpt>
      <trkpt lat="45.87865" lon="4.85199">
        <ele>223</ele>
        <time>2016-09-08T09:15:15Z</time>
      </trkpt>
      <trkpt lat="45.87871" lon="4.85205">
        <ele>223</ele>
        <time>2016-09-08T09:15:18Z</time>
      </trkpt>
      <trkpt lat="45.87873" lon="4.85208">
        <ele>224</ele>
        <time>2016-09-08T09:15:19Z</time>
      </trkpt>
      <trkpt lat="45.87879" lon="4.85215">
        <ele>224</ele>
        <time>2016-09-08T09:15:22Z</time>
      </trkpt>
      <trkpt lat="45.87881" lon="4.85218">
        <ele>224</ele>
        <time>2016-09-08T09:15:23Z</time>
      </trkpt>
      <trkpt lat="45.87887" lon="4.85226">
        <ele>224</ele>
        <time>2016-09-08T09:15:26Z</time>
      </trkpt>
      <trkpt lat="45.87888" lon="4.85229">
        <ele>224</ele>
        <time>2016-09-08T09:15:27Z</time>
      </trkpt>
      <trkpt lat="45.87894" lon="4.85237">
        <ele>225</ele>
        <time>2016-09-08T09:15:30Z</time>
      </trkpt>
      <trkpt lat="45.87896" lon="4.85239">
        <ele>225</ele>
        <time>2016-09-08T09:15:31Z</time>
      </trkpt>
      <trkpt lat="45.87901" lon="4.85246">
        <ele>225</ele>
        <time>2016-09-08T09:15:34Z</time>
      </trkpt>
      <trkpt lat="45.87902" lon="4.85249">
        <ele>225</ele>
        <time>2016-09-08T09:15:35Z</time>
      </trkpt>
      <trkpt lat="45.87909" lon="4.85258">
        <ele>228</ele>
        <time>2016-09-08T09:15:39Z</time>
      </trkpt>
      <trkpt lat="45.8791" lon="4.8526">
        <ele>228</ele>
        <time>2016-09-08T09:15:40Z</time>
      </trkpt>
      <trkpt lat="45.87916" lon="4.85267">
        <ele>229</ele>
        <time>2016-09-08T09:15:43Z</time>
      </trkpt>
      <trkpt lat="45.87917" lon="4.85269">
        <ele>227</ele>
        <time>2016-09-08T09:15:44Z</time>
      </trkpt>
      <trkpt lat="45.87923" lon="4.85276">
        <ele>227</ele>
        <time>2016-09-08T09:15:47Z</time>
      </trkpt>
      <trkpt lat="45.87924" lon="4.85279">
        <ele>228</ele>
        <time>2016-09-08T09:15:48Z</time>
      </trkpt>
      <trkpt lat="45.87929" lon="4.85286">
        <ele>228</ele>
        <time>2016-09-08T09:15:51Z</time>
      </trkpt>
      <trkpt lat="45.8793" lon="4.85289">
        <ele>228</ele>
        <time>2016-09-08T09:15:52Z</time>
      </trkpt>
      <trkpt lat="45.87935" lon="4.85296">
        <ele>228</ele>
        <time>2016-09-08T09:15:55Z</time>
      </trkpt>
      <trkpt lat="45.87937" lon="4.85298">
        <ele>229</ele>
        <time>2016-09-08T09:15:56Z</time>
      </trkpt>
      <trkpt lat="45.87944" lon="4.85306">
        <ele>229</ele>
        <time>2016-09-08T09:16:00Z</time>
      </trkpt>
      <trkpt lat="45.87945" lon="4.85309">
        <ele>229</ele>
        <time>2016-09-08T09:16:01Z</time>
      </trkpt>
      <trkpt lat="45.87951" lon="4.85317">
        <ele>229</ele>
        <time>2016-09-08T09:16:04Z</time>
      </trkpt>
      <trkpt lat="45.87953" lon="4.85319">
        <ele>229</ele>
        <time>2016-09-08T09:16:05Z</time>
      </trkpt>
      <trkpt lat="45.87957" lon="4.85327">
        <ele>229</ele>
        <time>2016-09-08T09:16:08Z</time>
      </trkpt>
      <trkpt lat="45.87958" lon="4.85329">
        <ele>229</ele>
        <time>2016-09-08T09:16:09Z</time>
      </trkpt>
      <trkpt lat="45.87963" lon="4.85337">
        <ele>235</ele>
        <time>2016-09-08T09:16:12Z</time>
      </trkpt>
      <trkpt lat="45.87964" lon="4.85339">
        <ele>235</ele>
        <time>2016-09-08T09:16:13Z</time>
      </trkpt>
      <trkpt lat="45.87971" lon="4.85345">
        <ele>235</ele>
        <time>2016-09-08T09:16:16Z</time>
      </trkpt>
      <trkpt lat="45.87973" lon="4.85347">
        <ele>235</ele>
        <time>2016-09-08T09:16:17Z</time>
      </trkpt>
      <trkpt lat="45.87979" lon="4.85356">
        <ele>235</ele>
        <time>2016-09-08T09:16:21Z</time>
      </trkpt>
      <trkpt lat="45.8798" lon="4.85358">
        <ele>235</ele>
        <time>2016-09-08T09:16:22Z</time>
      </trkpt>
      <trkpt lat="45.87986" lon="4.85367">
        <ele>236</ele>
        <time>2016-09-08T09:16:26Z</time>
      </trkpt>
      <trkpt lat="45.87987" lon="4.8537">
        <ele>236</ele>
        <time>2016-09-08T09:16:27Z</time>
      </trkpt>
      <trkpt lat="45.87992" lon="4.85377">
        <ele>237</ele>
        <time>2016-09-08T09:16:30Z</time>
      </trkpt>
      <trkpt lat="45.87993" lon="4.8538">
        <ele>237</ele>
        <time>2016-09-08T09:16:31Z</time>
      </trkpt>
      <trkpt lat="45.87999" lon="4.85386">
        <ele>237</ele>
        <time>2016-09-08T09:16:34Z</time>
      </trkpt>
      <trkpt lat="45.88001" lon="4.85388">
        <ele>237</ele>
        <time>2016-09-08T09:16:35Z</time>
      </trkpt>
      <trkpt lat="45.88007" lon="4.85394">
        <ele>238</ele>
        <time>2016-09-08T09:16:38Z</time>
      </trkpt>
      <trkpt lat="45.88009" lon="4.85396">
        <ele>238</ele>
        <time>2016-09-08T09:16:39Z</time>
      </trkpt>
      <trkpt lat="45.88014" lon="4.85402">
        <ele>238</ele>
        <time>2016-09-08T09:16:42Z</time>
      </trkpt>
      <trkpt lat="45.88017" lon="4.85404">
        <ele>238</ele>
        <time>2016-09-08T09:16:43Z</time>
      </trkpt>
      <trkpt lat="45.88022" lon="4.85411">
        <ele>238</ele>
        <time>2016-09-08T09:16:47Z</time>
      </trkpt>
      <trkpt lat="45.88024" lon="4.85412">
        <ele>238</ele>
        <time>2016-09-08T09:16:48Z</time>
      </trkpt>
      <trkpt lat="45.88032" lon="4.85415">
        <ele>238</ele>
        <time>2016-09-08T09:16:52Z</time>
      </trkpt>
      <trkpt lat="45.88035" lon="4.85415">
        <ele>238</ele>
        <time>2016-09-08T09:16:53Z</time>
      </trkpt>
      <trkpt lat="45.88043" lon="4.85416">
        <ele>238</ele>
        <time>2016-09-08T09:16:56Z</time>
      </trkpt>
      <trkpt lat="45.88046" lon="4.85415">
        <ele>238</ele>
        <time>2016-09-08T09:16:57Z</time>
      </trkpt>
      <trkpt lat="45.88054" lon="4.85415">
        <ele>239</ele>
        <time>2016-09-08T09:17:00Z</time>
      </trkpt>
      <trkpt lat="45.88057" lon="4.85414">
        <ele>239</ele>
        <time>2016-09-08T09:17:01Z</time>
      </trkpt>
      <trkpt lat="45.88066" lon="4.85413">
        <ele>240</ele>
        <time>2016-09-08T09:17:04Z</time>
      </trkpt>
      <trkpt lat="45.88068" lon="4.85412">
        <ele>240</ele>
        <time>2016-09-08T09:17:05Z</time>
      </trkpt>
      <trkpt lat="45.88077" lon="4.85413">
        <ele>242</ele>
        <time>2016-09-08T09:17:09Z</time>
      </trkpt>
      <trkpt lat="45.88079" lon="4.85413">
        <ele>242</ele>
        <time>2016-09-08T09:17:10Z</time>
      </trkpt>
      <trkpt lat="45.88087" lon="4.85411">
        <ele>243</ele>
        <time>2016-09-08T09:17:14Z</time>
      </trkpt>
      <trkpt lat="45.88091" lon="4.85411">
        <ele>242</ele>
        <time>2016-09-08T09:17:15Z</time>
      </trkpt>
      <trkpt lat="45.88099" lon="4.85408">
        <ele>242</ele>
        <time>2016-09-08T09:17:18Z</time>
      </trkpt>
      <trkpt lat="45.88101" lon="4.85407">
        <ele>241</ele>
        <time>2016-09-08T09:17:19Z</time>
      </trkpt>
      <trkpt lat="45.8811" lon="4.85405">
        <ele>241</ele>
        <time>2016-09-08T09:17:23Z</time>
      </trkpt>
      <trkpt lat="45.88112" lon="4.85405">
        <ele>241</ele>
        <time>2016-09-08T09:17:24Z</time>
      </trkpt>
      <trkpt lat="45.88121" lon="4.85401">
        <ele>241</ele>
        <time>2016-09-08T09:17:28Z</time>
      </trkpt>
      <trkpt lat="45.88123" lon="4.854">
        <ele>241</ele>
        <time>2016-09-08T09:17:29Z</time>
      </trkpt>
      <trkpt lat="45.88131" lon="4.85395">
        <ele>241</ele>
        <time>2016-09-08T09:17:33Z</time>
      </trkpt>
      <trkpt lat="45.88133" lon="4.85393">
        <ele>241</ele>
        <time>2016-09-08T09:17:34Z</time>
      </trkpt>
      <trkpt lat="45.8814" lon="4.85389">
        <ele>241</ele>
        <time>2016-09-08T09:17:37Z</time>
      </trkpt>
      <trkpt lat="45.88142" lon="4.85388">
        <ele>241</ele>
        <time>2016-09-08T09:17:38Z</time>
      </trkpt>
      <trkpt lat="45.88149" lon="4.85388">
        <ele>241</ele>
        <time>2016-09-08T09:17:41Z</time>
      </trkpt>
      <trkpt lat="45.88151" lon="4.85389">
        <ele>242</ele>
        <time>2016-09-08T09:17:42Z</time>
      </trkpt>
      <trkpt lat="45.88157" lon="4.85393">
        <ele>243</ele>
        <time>2016-09-08T09:17:45Z</time>
      </trkpt>
      <trkpt lat="45.88159" lon="4.85395">
        <ele>243</ele>
        <time>2016-09-08T09:17:46Z</time>
      </trkpt>
      <trkpt lat="45.88165" lon="4.85403">
        <ele>245</ele>
        <time>2016-09-08T09:17:50Z</time>
      </trkpt>
      <trkpt lat="45.88165" lon="4.85407">
        <ele>246</ele>
        <time>2016-09-08T09:17:51Z</time>
      </trkpt>
      <trkpt lat="45.8816" lon="4.85416">
        <ele>247</ele>
        <time>2016-09-08T09:17:56Z</time>
      </trkpt>
      <trkpt lat="45.88158" lon="4.85418">
        <ele>251</ele>
        <time>2016-09-08T09:17:57Z</time>
      </trkpt>
      <trkpt lat="45.88151" lon="4.85423">
        <ele>252</ele>
        <time>2016-09-08T09:18:01Z</time>
      </trkpt>
      <trkpt lat="45.88148" lon="4.85423">
        <ele>253</ele>
        <time>2016-09-08T09:18:02Z</time>
      </trkpt>
      <trkpt lat="45.88141" lon="4.85425">
        <ele>253</ele>
        <time>2016-09-08T09:18:05Z</time>
      </trkpt>
      <trkpt lat="45.88139" lon="4.85426">
        <ele>253</ele>
        <time>2016-09-08T09:18:06Z</time>
      </trkpt>
      <trkpt lat="45.88131" lon="4.85427">
        <ele>253</ele>
        <time>2016-09-08T09:18:09Z</time>
      </trkpt>
      <trkpt lat="45.88128" lon="4.85428">
        <ele>253</ele>
        <time>2016-09-08T09:18:10Z</time>
      </trkpt>
      <trkpt lat="45.88121" lon="4.85431">
        <ele>253</ele>
        <time>2016-09-08T09:18:13Z</time>
      </trkpt>
      <trkpt lat="45.88118" lon="4.85431">
        <ele>253</ele>
        <time>2016-09-08T09:18:14Z</time>
      </trkpt>
      <trkpt lat="45.88111" lon="4.85436">
        <ele>252</ele>
        <time>2016-09-08T09:18:18Z</time>
      </trkpt>
      <trkpt lat="45.88108" lon="4.85437">
        <ele>252</ele>
        <time>2016-09-08T09:18:19Z</time>
      </trkpt>
      <trkpt lat="45.88101" lon="4.85438">
        <ele>252</ele>
        <time>2016-09-08T09:18:21Z</time>
      </trkpt>
      <trkpt lat="45.88098" lon="4.85441">
        <ele>252</ele>
        <time>2016-09-08T09:18:22Z</time>
      </trkpt>
      <trkpt lat="45.88091" lon="4.85444">
        <ele>252</ele>
        <time>2016-09-08T09:18:25Z</time>
      </trkpt>
      <trkpt lat="45.88089" lon="4.85446">
        <ele>252</ele>
        <time>2016-09-08T09:18:26Z</time>
      </trkpt>
      <trkpt lat="45.88083" lon="4.8545">
        <ele>250</ele>
        <time>2016-09-08T09:18:29Z</time>
      </trkpt>
      <trkpt lat="45.88081" lon="4.85452">
        <ele>250</ele>
        <time>2016-09-08T09:18:30Z</time>
      </trkpt>
      <trkpt lat="45.88074" lon="4.85459">
        <ele>251</ele>
        <time>2016-09-08T09:18:34Z</time>
      </trkpt>
      <trkpt lat="45.88073" lon="4.85462">
        <ele>251</ele>
        <time>2016-09-08T09:18:35Z</time>
      </trkpt>
      <trkpt lat="45.88065" lon="4.85469">
        <ele>252</ele>
        <time>2016-09-08T09:18:39Z</time>
      </trkpt>
      <trkpt lat="45.88063" lon="4.8547">
        <ele>252</ele>
        <time>2016-09-08T09:18:40Z</time>
      </trkpt>
      <trkpt lat="45.88058" lon="4.85477">
        <ele>253</ele>
        <time>2016-09-08T09:18:43Z</time>
      </trkpt>
      <trkpt lat="45.88057" lon="4.85479">
        <ele>253</ele>
        <time>2016-09-08T09:18:44Z</time>
      </trkpt>
      <trkpt lat="45.88052" lon="4.85486">
        <ele>253</ele>
        <time>2016-09-08T09:18:47Z</time>
      </trkpt>
      <trkpt lat="45.8805" lon="4.85489">
        <ele>253</ele>
        <time>2016-09-08T09:18:48Z</time>
      </trkpt>
      <trkpt lat="45.88044" lon="4.85497">
        <ele>253</ele>
        <time>2016-09-08T09:18:51Z</time>
      </trkpt>
      <trkpt lat="45.88042" lon="4.855">
        <ele>253</ele>
        <time>2016-09-08T09:18:52Z</time>
      </trkpt>
      <trkpt lat="45.88035" lon="4.85507">
        <ele>261</ele>
        <time>2016-09-08T09:18:55Z</time>
      </trkpt>
      <trkpt lat="45.88034" lon="4.85509">
        <ele>261</ele>
        <time>2016-09-08T09:18:56Z</time>
      </trkpt>
      <trkpt lat="45.88028" lon="4.85514">
        <ele>261</ele>
        <time>2016-09-08T09:18:59Z</time>
      </trkpt>
      <trkpt lat="45.88026" lon="4.85516">
        <ele>261</ele>
        <time>2016-09-08T09:19:00Z</time>
      </trkpt>
      <trkpt lat="45.88019" lon="4.85522">
        <ele>261</ele>
        <time>2016-09-08T09:19:04Z</time>
      </trkpt>
      <trkpt lat="45.88017" lon="4.85524">
        <ele>261</ele>
        <time>2016-09-08T09:19:05Z</time>
      </trkpt>
      <trkpt lat="45.8801" lon="4.85531">
        <ele>261</ele>
        <time>2016-09-08T09:19:09Z</time>
      </trkpt>
      <trkpt lat="45.88008" lon="4.85532">
        <ele>261</ele>
        <time>2016-09-08T09:19:10Z</time>
      </trkpt>
      <trkpt lat="45.88" lon="4.85538">
        <ele>262</ele>
        <time>2016-09-08T09:19:14Z</time>
      </trkpt>
      <trkpt lat="45.87999" lon="4.8554">
        <ele>257</ele>
        <time>2016-09-08T09:19:15Z</time>
      </trkpt>
      <trkpt lat="45.87991" lon="4.85544">
        <ele>258</ele>
        <time>2016-09-08T09:19:19Z</time>
      </trkpt>
      <trkpt lat="45.87989" lon="4.85546">
        <ele>258</ele>
        <time>2016-09-08T09:19:20Z</time>
      </trkpt>
      <trkpt lat="45.87985" lon="4.85555">
        <ele>259</ele>
        <time>2016-09-08T09:19:23Z</time>
      </trkpt>
      <trkpt lat="45.87983" lon="4.85557">
        <ele>259</ele>
        <time>2016-09-08T09:19:24Z</time>
      </trkpt>
      <trkpt lat="45.87977" lon="4.85564">
        <ele>259</ele>
        <time>2016-09-08T09:19:28Z</time>
      </trkpt>
      <trkpt lat="45.87976" lon="4.85566">
        <ele>259</ele>
        <time>2016-09-08T09:19:29Z</time>
      </trkpt>
      <trkpt lat="45.87969" lon="4.85573">
        <ele>259</ele>
        <time>2016-09-08T09:19:33Z</time>
      </trkpt>
      <trkpt lat="45.87968" lon="4.85575">
        <ele>259</ele>
        <time>2016-09-08T09:19:34Z</time>
      </trkpt>
      <trkpt lat="45.87963" lon="4.85585">
        <ele>264</ele>
        <time>2016-09-08T09:19:38Z</time>
      </trkpt>
      <trkpt lat="45.87962" lon="4.85587">
        <ele>264</ele>
        <time>2016-09-08T09:19:39Z</time>
      </trkpt>
      <trkpt lat="45.8796" lon="4.85597">
        <ele>264</ele>
        <time>2016-09-08T09:19:42Z</time>
      </trkpt>
      <trkpt lat="45.87959" lon="4.856">
        <ele>264</ele>
        <time>2016-09-08T09:19:43Z</time>
      </trkpt>
      <trkpt lat="45.87958" lon="4.85612">
        <ele>265</ele>
        <time>2016-09-08T09:19:46Z</time>
      </trkpt>
      <trkpt lat="45.87958" lon="4.85616">
        <ele>265</ele>
        <time>2016-09-08T09:19:47Z</time>
      </trkpt>
      <trkpt lat="45.87959" lon="4.85626">
        <ele>266</ele>
        <time>2016-09-08T09:19:50Z</time>
      </trkpt>
      <trkpt lat="45.87959" lon="4.8563">
        <ele>266</ele>
        <time>2016-09-08T09:19:51Z</time>
      </trkpt>
      <trkpt lat="45.87961" lon="4.85639">
        <ele>266</ele>
        <time>2016-09-08T09:19:53Z</time>
      </trkpt>
      <trkpt lat="45.87961" lon="4.85643">
        <ele>267</ele>
        <time>2016-09-08T09:19:54Z</time>
      </trkpt>
      <trkpt lat="45.87963" lon="4.85654">
        <ele>267</ele>
        <time>2016-09-08T09:19:57Z</time>
      </trkpt>
      <trkpt lat="45.87964" lon="4.85659">
        <ele>267</ele>
        <time>2016-09-08T09:19:58Z</time>
      </trkpt>
      <trkpt lat="45.87967" lon="4.85669">
        <ele>273</ele>
        <time>2016-09-08T09:20:01Z</time>
      </trkpt>
      <trkpt lat="45.87968" lon="4.85672">
        <ele>273</ele>
        <time>2016-09-08T09:20:02Z</time>
      </trkpt>
      <trkpt lat="45.87972" lon="4.85681">
        <ele>273</ele>
        <time>2016-09-08T09:20:05Z</time>
      </trkpt>
      <trkpt lat="45.87973" lon="4.85684">
        <ele>273</ele>
        <time>2016-09-08T09:20:06Z</time>
      </trkpt>
      <trkpt lat="45.87975" lon="4.85694">
        <ele>274</ele>
        <time>2016-09-08T09:20:09Z</time>
      </trkpt>
      <trkpt lat="45.87977" lon="4.85697">
        <ele>274</ele>
        <time>2016-09-08T09:20:10Z</time>
      </trkpt>
      <trkpt lat="45.87979" lon="4.85706">
        <ele>274</ele>
        <time>2016-09-08T09:20:13Z</time>
      </trkpt>
      <trkpt lat="45.87979" lon="4.8571">
        <ele>274</ele>
        <time>2016-09-08T09:20:14Z</time>
      </trkpt>
      <trkpt lat="45.87979" lon="4.8572">
        <ele>275</ele>
        <time>2016-09-08T09:20:17Z</time>
      </trkpt>
      <trkpt lat="45.87978" lon="4.85723">
        <ele>275</ele>
        <time>2016-09-08T09:20:18Z</time>
      </trkpt>
      <trkpt lat="45.87976" lon="4.85732">
        <ele>275</ele>
        <time>2016-09-08T09:20:21Z</time>
      </trkpt>
      <trkpt lat="45.87975" lon="4.85735">
        <ele>275</ele>
        <time>2016-09-08T09:20:22Z</time>
      </trkpt>
      <trkpt lat="45.8797" lon="4.85744">
        <ele>275</ele>
        <time>2016-09-08T09:20:25Z</time>
      </trkpt>
      <trkpt lat="45.87969" lon="4.85747">
        <ele>275</ele>
        <time>2016-09-08T09:20:26Z</time>
      </trkpt>
      <trkpt lat="45.87964" lon="4.85754">
        <ele>279</ele>
        <time>2016-09-08T09:20:29Z</time>
      </trkpt>
      <trkpt lat="45.87962" lon="4.85756">
        <ele>279</ele>
        <time>2016-09-08T09:20:30Z</time>
      </trkpt>
      <trkpt lat="45.87955" lon="4.85761">
        <ele>279</ele>
        <time>2016-09-08T09:20:33Z</time>
      </trkpt>
      <trkpt lat="45.87953" lon="4.85762">
        <ele>279</ele>
        <time>2016-09-08T09:20:34Z</time>
      </trkpt>
      <trkpt lat="45.87947" lon="4.85768">
        <ele>279</ele>
        <time>2016-09-08T09:20:38Z</time>
      </trkpt>
      <trkpt lat="45.87945" lon="4.8577">
        <ele>279</ele>
        <time>2016-09-08T09:20:39Z</time>
      </trkpt>
      <trkpt lat="45.87938" lon="4.85777">
        <ele>279</ele>
        <time>2016-09-08T09:20:43Z</time>
      </trkpt>
      <trkpt lat="45.87936" lon="4.85779">
        <ele>279</ele>
        <time>2016-09-08T09:20:44Z</time>
      </trkpt>
      <trkpt lat="45.87928" lon="4.85785">
        <ele>280</ele>
        <time>2016-09-08T09:20:48Z</time>
      </trkpt>
      <trkpt lat="45.87926" lon="4.85786">
        <ele>280</ele>
        <time>2016-09-08T09:20:49Z</time>
      </trkpt>
      <trkpt lat="45.8792" lon="4.85792">
        <ele>280</ele>
        <time>2016-09-08T09:20:53Z</time>
      </trkpt>
      <trkpt lat="45.87918" lon="4.85793">
        <ele>280</ele>
        <time>2016-09-08T09:20:54Z</time>
      </trkpt>
      <trkpt lat="45.87911" lon="4.858">
        <ele>280</ele>
        <time>2016-09-08T09:20:58Z</time>
      </trkpt>
      <trkpt lat="45.8791" lon="4.85801">
        <ele>280</ele>
        <time>2016-09-08T09:20:59Z</time>
      </trkpt>
      <trkpt lat="45.87902" lon="4.85806">
        <ele>280</ele>
        <time>2016-09-08T09:21:03Z</time>
      </trkpt>
      <trkpt lat="45.879" lon="4.85809">
        <ele>280</ele>
        <time>2016-09-08T09:21:04Z</time>
      </trkpt>
      <trkpt lat="45.87895" lon="4.85818">
        <ele>281</ele>
        <time>2016-09-08T09:21:08Z</time>
      </trkpt>
      <trkpt lat="45.87893" lon="4.85821">
        <ele>281</ele>
        <time>2016-09-08T09:21:09Z</time>
      </trkpt>
      <trkpt lat="45.87888" lon="4.85828">
        <ele>281</ele>
        <time>2016-09-08T09:21:12Z</time>
      </trkpt>
      <trkpt lat="45.87885" lon="4.8583">
        <ele>281</ele>
        <time>2016-09-08T09:21:13Z</time>
      </trkpt>
      <trkpt lat="45.87877" lon="4.85837">
        <ele>284</ele>
        <time>2016-09-08T09:21:17Z</time>
      </trkpt>
      <trkpt lat="45.87876" lon="4.85839">
        <ele>284</ele>
        <time>2016-09-08T09:21:18Z</time>
      </trkpt>
      <trkpt lat="45.8787" lon="4.85848">
        <ele>284</ele>
        <time>2016-09-08T09:21:22Z</time>
      </trkpt>
      <trkpt lat="45.87868" lon="4.85849">
        <ele>284</ele>
        <time>2016-09-08T09:21:23Z</time>
      </trkpt>
      <trkpt lat="45.87861" lon="4.85855">
        <ele>284</ele>
        <time>2016-09-08T09:21:26Z</time>
      </trkpt>
      <trkpt lat="45.87859" lon="4.85856">
        <ele>284</ele>
        <time>2016-09-08T09:21:27Z</time>
      </trkpt>
      <trkpt lat="45.87853" lon="4.85866">
        <ele>284</ele>
        <time>2016-09-08T09:21:31Z</time>
      </trkpt>
      <trkpt lat="45.87852" lon="4.85868">
        <ele>284</ele>
        <time>2016-09-08T09:21:32Z</time>
      </trkpt>
      <trkpt lat="45.87846" lon="4.85877">
        <ele>285</ele>
        <time>2016-09-08T09:21:35Z</time>
      </trkpt>
      <trkpt lat="45.87846" lon="4.8588">
        <ele>285</ele>
        <time>2016-09-08T09:21:36Z</time>
      </trkpt>
      <trkpt lat="45.87841" lon="4.85889">
        <ele>285</ele>
        <time>2016-09-08T09:21:39Z</time>
      </trkpt>
      <trkpt lat="45.87839" lon="4.85892">
        <ele>285</ele>
        <time>2016-09-08T09:21:40Z</time>
      </trkpt>
      <trkpt lat="45.87835" lon="4.85899">
        <ele>285</ele>
        <time>2016-09-08T09:21:42Z</time>
      </trkpt>
      <trkpt lat="45.87833" lon="4.85903">
        <ele>285</ele>
        <time>2016-09-08T09:21:43Z</time>
      </trkpt>
      <trkpt lat="45.8783" lon="4.85911">
        <ele>285</ele>
        <time>2016-09-08T09:21:45Z</time>
      </trkpt>
      <trkpt lat="45.87828" lon="4.85914">
        <ele>285</ele>
        <time>2016-09-08T09:21:46Z</time>
      </trkpt>
      <trkpt lat="45.87826" lon="4.85926">
        <ele>286</ele>
        <time>2016-09-08T09:21:49Z</time>
      </trkpt>
      <trkpt lat="45.87826" lon="4.85929">
        <ele>287</ele>
        <time>2016-09-08T09:21:50Z</time>
      </trkpt>
      <trkpt lat="45.87827" lon="4.8594">
        <ele>287</ele>
        <time>2016-09-08T09:21:53Z</time>
      </trkpt>
      <trkpt lat="45.87828" lon="4.85944">
        <ele>287</ele>
        <time>2016-09-08T09:21:54Z</time>
      </trkpt>
      <trkpt lat="45.87832" lon="4.85955">
        <ele>288</ele>
        <time>2016-09-08T09:21:57Z</time>
      </trkpt>
      <trkpt lat="45.87834" lon="4.85959">
        <ele>288</ele>
        <time>2016-09-08T09:21:58Z</time>
      </trkpt>
      <trkpt lat="45.87837" lon="4.85969">
        <ele>288</ele>
        <time>2016-09-08T09:22:01Z</time>
      </trkpt>
      <trkpt lat="45.87839" lon="4.85972">
        <ele>288</ele>
        <time>2016-09-08T09:22:02Z</time>
      </trkpt>
      <trkpt lat="45.87845" lon="4.8598">
        <ele>288</ele>
        <time>2016-09-08T09:22:05Z</time>
      </trkpt>
      <trkpt lat="45.87848" lon="4.85983">
        <ele>289</ele>
        <time>2016-09-08T09:22:06Z</time>
      </trkpt>
      <trkpt lat="45.87854" lon="4.8599">
        <ele>289</ele>
        <time>2016-09-08T09:22:09Z</time>
      </trkpt>
      <trkpt lat="45.87857" lon="4.85992">
        <ele>289</ele>
        <time>2016-09-08T09:22:10Z</time>
      </trkpt>
      <trkpt lat="45.87864" lon="4.85996">
        <ele>289</ele>
        <time>2016-09-08T09:22:13Z</time>
      </trkpt>
      <trkpt lat="45.87866" lon="4.85997">
        <ele>289</ele>
        <time>2016-09-08T09:22:14Z</time>
      </trkpt>
      <trkpt lat="45.87873" lon="4.85999">
        <ele>290</ele>
        <time>2016-09-08T09:22:17Z</time>
      </trkpt>
      <trkpt lat="45.87876" lon="4.85999">
        <ele>290</ele>
        <time>2016-09-08T09:22:18Z</time>
      </trkpt>
      <trkpt lat="45.87883" lon="4.85998">
        <ele>290</ele>
        <time>2016-09-08T09:22:21Z</time>
      </trkpt>
      <trkpt lat="45.87886" lon="4.85997">
        <ele>290</ele>
        <time>2016-09-08T09:22:22Z</time>
      </trkpt>
      <trkpt lat="45.87892" lon="4.85994">
        <ele>291</ele>
        <time>2016-09-08T09:22:25Z</time>
      </trkpt>
      <trkpt lat="45.87895" lon="4.85994">
        <ele>291</ele>
        <time>2016-09-08T09:22:26Z</time>
      </trkpt>
      <trkpt lat="45.87903" lon="4.85992">
        <ele>292</ele>
        <time>2016-09-08T09:22:29Z</time>
      </trkpt>
      <trkpt lat="45.87905" lon="4.85991">
        <ele>292</ele>
        <time>2016-09-08T09:22:30Z</time>
      </trkpt>
      <trkpt lat="45.87913" lon="4.85985">
        <ele>292</ele>
        <time>2016-09-08T09:22:34Z</time>
      </trkpt>
      <trkpt lat="45.87915" lon="4.85983">
        <ele>292</ele>
        <time>2016-09-08T09:22:35Z</time>
      </trkpt>
      <trkpt lat="45.87922" lon="4.85981">
        <ele>294</ele>
        <time>2016-09-08T09:22:38Z</time>
      </trkpt>
      <trkpt lat="45.87924" lon="4.8598">
        <ele>294</ele>
        <time>2016-09-08T09:22:39Z</time>
      </trkpt>
      <trkpt lat="45.87931" lon="4.85981">
        <ele>294</ele>
        <time>2016-09-08T09:22:42Z</time>
      </trkpt>
      <trkpt lat="45.87933" lon="4.85983">
        <ele>294</ele>
        <time>2016-09-08T09:22:43Z</time>
      </trkpt>
      <trkpt lat="45.8794" lon="4.85991">
        <ele>295</ele>
        <time>2016-09-08T09:22:46Z</time>
      </trkpt>
      <trkpt lat="45.87942" lon="4.85994">
        <ele>295</ele>
        <time>2016-09-08T09:22:47Z</time>
      </trkpt>
      <trkpt lat="45.87946" lon="4.86003">
        <ele>298</ele>
        <time>2016-09-08T09:22:50Z</time>
      </trkpt>
      <trkpt lat="45.87946" lon="4.86006">
        <ele>298</ele>
        <time>2016-09-08T09:22:51Z</time>
      </trkpt>
      <trkpt lat="45.8795" lon="4.86011">
        <ele>298</ele>
        <time>2016-09-08T09:22:53Z</time>
      </trkpt>
      <trkpt lat="45.87953" lon="4.86014">
        <ele>299</ele>
        <time>2016-09-08T09:22:54Z</time>
      </trkpt>
      <trkpt lat="45.87961" lon="4.86017">
        <ele>299</ele>
        <time>2016-09-08T09:22:57Z</time>
      </trkpt>
      <trkpt lat="45.87963" lon="4.86016">
        <ele>299</ele>
        <time>2016-09-08T09:22:58Z</time>
      </trkpt>
      <trkpt lat="45.87971" lon="4.86013">
        <ele>299</ele>
        <time>2016-09-08T09:23:01Z</time>
      </trkpt>
      <trkpt lat="45.87973" lon="4.86013">
        <ele>299</ele>
        <time>2016-09-08T09:23:02Z</time>
      </trkpt>
      <trkpt lat="45.87982" lon="4.86011">
        <ele>299</ele>
        <time>2016-09-08T09:23:06Z</time>
      </trkpt>
      <trkpt lat="45.87985" lon="4.8601">
        <ele>300</ele>
        <time>2016-09-08T09:23:07Z</time>
      </trkpt>
      <trkpt lat="45.87992" lon="4.8601">
        <ele>300</ele>
        <time>2016-09-08T09:23:10Z</time>
      </trkpt>
      <trkpt lat="45.87994" lon="4.8601">
        <ele>300</ele>
        <time>2016-09-08T09:23:11Z</time>
      </trkpt>
      <trkpt lat="45.88001" lon="4.8601">
        <ele>300</ele>
        <time>2016-09-08T09:23:14Z</time>
      </trkpt>
      <trkpt lat="45.88004" lon="4.86011">
        <ele>300</ele>
        <time>2016-09-08T09:23:15Z</time>
      </trkpt>
      <trkpt lat="45.88009" lon="4.86015">
        <ele>300</ele>
        <time>2016-09-08T09:23:17Z</time>
      </trkpt>
      <trkpt lat="45.88012" lon="4.86018">
        <ele>300</ele>
        <time>2016-09-08T09:23:18Z</time>
      </trkpt>
      <trkpt lat="45.88016" lon="4.86029">
        <ele>300</ele>
        <time>2016-09-08T09:23:21Z</time>
      </trkpt>
      <trkpt lat="45.88017" lon="4.86032">
        <ele>301</ele>
        <time>2016-09-08T09:23:22Z</time>
      </trkpt>
      <trkpt lat="45.8802" lon="4.86043">
        <ele>301</ele>
        <time>2016-09-08T09:23:25Z</time>
      </trkpt>
      <trkpt lat="45.88021" lon="4.86047">
        <ele>301</ele>
        <time>2016-09-08T09:23:26Z</time>
      </trkpt>
      <trkpt lat="45.88024" lon="4.86058">
        <ele>301</ele>
        <time>2016-09-08T09:23:29Z</time>
      </trkpt>
      <trkpt lat="45.88024" lon="4.86062">
        <ele>301</ele>
        <time>2016-09-08T09:23:30Z</time>
      </trkpt>
      <trkpt lat="45.88027" lon="4.86071">
        <ele>301</ele>
        <time>2016-09-08T09:23:32Z</time>
      </trkpt>
      <trkpt lat="45.88028" lon="4.86075">
        <ele>301</ele>
        <time>2016-09-08T09:23:33Z</time>
      </trkpt>
      <trkpt lat="45.88032" lon="4.86086">
        <ele>303</ele>
        <time>2016-09-08T09:23:36Z</time>
      </trkpt>
      <trkpt lat="45.88034" lon="4.86091">
        <ele>303</ele>
        <time>2016-09-08T09:23:37Z</time>
      </trkpt>
      <trkpt lat="45.88038" lon="4.86099">
        <ele>304</ele>
        <time>2016-09-08T09:23:39Z</time>
      </trkpt>
      <trkpt lat="45.88035" lon="4.86104">
        <ele>304</ele>
        <time>2016-09-08T09:23:40Z</time>
      </trkpt>
      <trkpt lat="45.88036" lon="4.86115">
        <ele>304</ele>
        <time>2016-09-08T09:23:42Z</time>
      </trkpt>
      <trkpt lat="45.88037" lon="4.8612">
        <ele>304</ele>
        <time>2016-09-08T09:23:43Z</time>
      </trkpt>
      <trkpt lat="45.88039" lon="4.8613">
        <ele>304</ele>
        <time>2016-09-08T09:23:45Z</time>
      </trkpt>
      <trkpt lat="45.8804" lon="4.86135">
        <ele>304</ele>
        <time>2016-09-08T09:23:46Z</time>
      </trkpt>
      <trkpt lat="45.88042" lon="4.86144">
        <ele>304</ele>
        <time>2016-09-08T09:23:48Z</time>
      </trkpt>
      <trkpt lat="45.88043" lon="4.8615">
        <ele>305</ele>
        <time>2016-09-08T09:23:49Z</time>
      </trkpt>
      <trkpt lat="45.88046" lon="4.8616">
        <ele>305</ele>
        <time>2016-09-08T09:23:51Z</time>
      </trkpt>
      <trkpt lat="45.88048" lon="4.86166">
        <ele>305</ele>
        <time>2016-09-08T09:23:52Z</time>
      </trkpt>
      <trkpt lat="45.88052" lon="4.86176">
        <ele>306</ele>
        <time>2016-09-08T09:23:54Z</time>
      </trkpt>
      <trkpt lat="45.88053" lon="4.8618">
        <ele>306</ele>
        <time>2016-09-08T09:23:55Z</time>
      </trkpt>
      <trkpt lat="45.88056" lon="4.8619">
        <ele>306</ele>
        <time>2016-09-08T09:23:57Z</time>
      </trkpt>
      <trkpt lat="45.88058" lon="4.86195">
        <ele>306</ele>
        <time>2016-09-08T09:23:58Z</time>
      </trkpt>
      <trkpt lat="45.88062" lon="4.86204">
        <ele>306</ele>
        <time>2016-09-08T09:24:00Z</time>
      </trkpt>
      <trkpt lat="45.88064" lon="4.86208">
        <ele>306</ele>
        <time>2016-09-08T09:24:01Z</time>
      </trkpt>
      <trkpt lat="45.88068" lon="4.86217">
        <ele>306</ele>
        <time>2016-09-08T09:24:03Z</time>
      </trkpt>
      <trkpt lat="45.88071" lon="4.86221">
        <ele>306</ele>
        <time>2016-09-08T09:24:04Z</time>
      </trkpt>
      <trkpt lat="45.88074" lon="4.86229">
        <ele>306</ele>
        <time>2016-09-08T09:24:06Z</time>
      </trkpt>
      <trkpt lat="45.88075" lon="4.86232">
        <ele>306</ele>
        <time>2016-09-08T09:24:07Z</time>
      </trkpt>
      <trkpt lat="45.8808" lon="4.86243">
        <ele>306</ele>
        <time>2016-09-08T09:24:10Z</time>
      </trkpt>
      <trkpt lat="45.88082" lon="4.86248">
        <ele>306</ele>
        <time>2016-09-08T09:24:11Z</time>
      </trkpt>
      <trkpt lat="45.88085" lon="4.86258">
        <ele>306</ele>
        <time>2016-09-08T09:24:13Z</time>
      </trkpt>
      <trkpt lat="45.88086" lon="4.86264">
        <ele>306</ele>
        <time>2016-09-08T09:24:14Z</time>
      </trkpt>
      <trkpt lat="45.88089" lon="4.86276">
        <ele>306</ele>
        <time>2016-09-08T09:24:16Z</time>
      </trkpt>
      <trkpt lat="45.8809" lon="4.86282">
        <ele>306</ele>
        <time>2016-09-08T09:24:17Z</time>
      </trkpt>
      <trkpt lat="45.88091" lon="4.86288">
        <ele>306</ele>
        <time>2016-09-08T09:24:18Z</time>
      </trkpt>
      <trkpt lat="45.88092" lon="4.86294">
        <ele>306</ele>
        <time>2016-09-08T09:24:19Z</time>
      </trkpt>
      <trkpt lat="45.88093" lon="4.86301">
        <ele>306</ele>
        <time>2016-09-08T09:24:20Z</time>
      </trkpt>
      <trkpt lat="45.88094" lon="4.86307">
        <ele>306</ele>
        <time>2016-09-08T09:24:21Z</time>
      </trkpt>
      <trkpt lat="45.88096" lon="4.86314">
        <ele>306</ele>
        <time>2016-09-08T09:24:22Z</time>
      </trkpt>
      <trkpt lat="45.88098" lon="4.86322">
        <ele>306</ele>
        <time>2016-09-08T09:24:23Z</time>
      </trkpt>
      <trkpt lat="45.88099" lon="4.86329">
        <ele>306</ele>
        <time>2016-09-08T09:24:24Z</time>
      </trkpt>
      <trkpt lat="45.88101" lon="4.86337">
        <ele>305</ele>
        <time>2016-09-08T09:24:25Z</time>
      </trkpt>
      <trkpt lat="45.88103" lon="4.86344">
        <ele>305</ele>
        <time>2016-09-08T09:24:26Z</time>
      </trkpt>
      <trkpt lat="45.88104" lon="4.86352">
        <ele>305</ele>
        <time>2016-09-08T09:24:27Z</time>
      </trkpt>
      <trkpt lat="45.88105" lon="4.86361">
        <ele>305</ele>
        <time>2016-09-08T09:24:28Z</time>
      </trkpt>
      <trkpt lat="45.88106" lon="4.86369">
        <ele>304</ele>
        <time>2016-09-08T09:24:29Z</time>
      </trkpt>
      <trkpt lat="45.88108" lon="4.86378">
        <ele>304</ele>
        <time>2016-09-08T09:24:30Z</time>
      </trkpt>
      <trkpt lat="45.8811" lon="4.86387">
        <ele>304</ele>
        <time>2016-09-08T09:24:31Z</time>
      </trkpt>
      <trkpt lat="45.88112" lon="4.86396">
        <ele>304</ele>
        <time>2016-09-08T09:24:32Z</time>
      </trkpt>
      <trkpt lat="45.88113" lon="4.86405">
        <ele>304</ele>
        <time>2016-09-08T09:24:33Z</time>
      </trkpt>
      <trkpt lat="45.88114" lon="4.86413">
        <ele>304</ele>
        <time>2016-09-08T09:24:34Z</time>
      </trkpt>
      <trkpt lat="45.88114" lon="4.86421">
        <ele>302</ele>
        <time>2016-09-08T09:24:35Z</time>
      </trkpt>
      <trkpt lat="45.88115" lon="4.8643">
        <ele>302</ele>
        <time>2016-09-08T09:24:36Z</time>
      </trkpt>
      <trkpt lat="45.88117" lon="4.86438">
        <ele>302</ele>
        <time>2016-09-08T09:24:37Z</time>
      </trkpt>
      <trkpt lat="45.88118" lon="4.86447">
        <ele>302</ele>
        <time>2016-09-08T09:24:38Z</time>
      </trkpt>
      <trkpt lat="45.8812" lon="4.86455">
        <ele>302</ele>
        <time>2016-09-08T09:24:39Z</time>
      </trkpt>
      <trkpt lat="45.88121" lon="4.86464">
        <ele>302</ele>
        <time>2016-09-08T09:24:40Z</time>
      </trkpt>
      <trkpt lat="45.88123" lon="4.86472">
        <ele>302</ele>
        <time>2016-09-08T09:24:41Z</time>
      </trkpt>
      <trkpt lat="45.88125" lon="4.86479">
        <ele>302</ele>
        <time>2016-09-08T09:24:42Z</time>
      </trkpt>
      <trkpt lat="45.88124" lon="4.86487">
        <ele>302</ele>
        <time>2016-09-08T09:24:43Z</time>
      </trkpt>
      <trkpt lat="45.88125" lon="4.86495">
        <ele>302</ele>
        <time>2016-09-08T09:24:44Z</time>
      </trkpt>
      <trkpt lat="45.88126" lon="4.86503">
        <ele>301</ele>
        <time>2016-09-08T09:24:45Z</time>
      </trkpt>
      <trkpt lat="45.88127" lon="4.8651">
        <ele>301</ele>
        <time>2016-09-08T09:24:46Z</time>
      </trkpt>
      <trkpt lat="45.88128" lon="4.86518">
        <ele>301</ele>
        <time>2016-09-08T09:24:47Z</time>
      </trkpt>
      <trkpt lat="45.88129" lon="4.86525">
        <ele>301</ele>
        <time>2016-09-08T09:24:48Z</time>
      </trkpt>
      <trkpt lat="45.88131" lon="4.86533">
        <ele>301</ele>
        <time>2016-09-08T09:24:49Z</time>
      </trkpt>
      <trkpt lat="45.88132" lon="4.8654">
        <ele>301</ele>
        <time>2016-09-08T09:24:50Z</time>
      </trkpt>
      <trkpt lat="45.88132" lon="4.86548">
        <ele>301</ele>
        <time>2016-09-08T09:24:51Z</time>
      </trkpt>
      <trkpt lat="45.88132" lon="4.86555">
        <ele>301</ele>
        <time>2016-09-08T09:24:52Z</time>
      </trkpt>
      <trkpt lat="45.88132" lon="4.86562">
        <ele>301</ele>
        <time>2016-09-08T09:24:53Z</time>
      </trkpt>
      <trkpt lat="45.88132" lon="4.86569">
        <ele>301</ele>
        <time>2016-09-08T09:24:54Z</time>
      </trkpt>
      <trkpt lat="45.88132" lon="4.86575">
        <ele>301</ele>
        <time>2016-09-08T09:24:55Z</time>
      </trkpt>
      <trkpt lat="45.88133" lon="4.86585">
        <ele>300</ele>
        <time>2016-09-08T09:24:57Z</time>
      </trkpt>
      <trkpt lat="45.88133" lon="4.86589">
        <ele>300</ele>
        <time>2016-09-08T09:24:58Z</time>
      </trkpt>
      <trkpt lat="45.88136" lon="4.86599">
        <ele>300</ele>
        <time>2016-09-08T09:25:00Z</time>
      </trkpt>
      <trkpt lat="45.88137" lon="4.86605">
        <ele>300</ele>
        <time>2016-09-08T09:25:01Z</time>
      </trkpt>
      <trkpt lat="45.88139" lon="4.86612">
        <ele>300</ele>
        <time>2016-09-08T09:25:02Z</time>
      </trkpt>
      <trkpt lat="45.88141" lon="4.86619">
        <ele>300</ele>
        <time>2016-09-08T09:25:03Z</time>
      </trkpt>
      <trkpt lat="45.88143" lon="4.86625">
        <ele>300</ele>
        <time>2016-09-08T09:25:04Z</time>
      </trkpt>
      <trkpt lat="45.88146" lon="4.86632">
        <ele>300</ele>
        <time>2016-09-08T09:25:05Z</time>
      </trkpt>
      <trkpt lat="45.88148" lon="4.8664">
        <ele>300</ele>
        <time>2016-09-08T09:25:06Z</time>
      </trkpt>
      <trkpt lat="45.88151" lon="4.86647">
        <ele>300</ele>
        <time>2016-09-08T09:25:07Z</time>
      </trkpt>
      <trkpt lat="45.88154" lon="4.86654">
        <ele>300</ele>
        <time>2016-09-08T09:25:08Z</time>
      </trkpt>
      <trkpt lat="45.88156" lon="4.86661">
        <ele>299</ele>
        <time>2016-09-08T09:25:09Z</time>
      </trkpt>
      <trkpt lat="45.88157" lon="4.86669">
        <ele>299</ele>
        <time>2016-09-08T09:25:10Z</time>
      </trkpt>
      <trkpt lat="45.88158" lon="4.86677">
        <ele>299</ele>
        <time>2016-09-08T09:25:11Z</time>
      </trkpt>
      <trkpt lat="45.8816" lon="4.86684">
        <ele>300</ele>
        <time>2016-09-08T09:25:12Z</time>
      </trkpt>
      <trkpt lat="45.88161" lon="4.86692">
        <ele>300</ele>
        <time>2016-09-08T09:25:13Z</time>
      </trkpt>
      <trkpt lat="45.88162" lon="4.867">
        <ele>300</ele>
        <time>2016-09-08T09:25:14Z</time>
      </trkpt>
      <trkpt lat="45.88164" lon="4.86708">
        <ele>300</ele>
        <time>2016-09-08T09:25:15Z</time>
      </trkpt>
      <trkpt lat="45.88165" lon="4.86715">
        <ele>300</ele>
        <time>2016-09-08T09:25:16Z</time>
      </trkpt>
      <trkpt lat="45.88166" lon="4.86723">
        <ele>300</ele>
        <time>2016-09-08T09:25:17Z</time>
      </trkpt>
      <trkpt lat="45.88166" lon="4.86731">
        <ele>300</ele>
        <time>2016-09-08T09:25:18Z</time>
      </trkpt>
      <trkpt lat="45.88168" lon="4.86739">
        <ele>299</ele>
        <time>2016-09-08T09:25:19Z</time>
      </trkpt>
      <trkpt lat="45.88169" lon="4.86747">
        <ele>300</ele>
        <time>2016-09-08T09:25:20Z</time>
      </trkpt>
      <trkpt lat="45.8817" lon="4.86756">
        <ele>300</ele>
        <time>2016-09-08T09:25:21Z</time>
      </trkpt>
      <trkpt lat="45.88172" lon="4.86763">
        <ele>299</ele>
        <time>2016-09-08T09:25:22Z</time>
      </trkpt>
      <trkpt lat="45.88174" lon="4.86771">
        <ele>299</ele>
        <time>2016-09-08T09:25:23Z</time>
      </trkpt>
      <trkpt lat="45.88175" lon="4.86779">
        <ele>299</ele>
        <time>2016-09-08T09:25:24Z</time>
      </trkpt>
      <trkpt lat="45.88176" lon="4.86786">
        <ele>299</ele>
        <time>2016-09-08T09:25:25Z</time>
      </trkpt>
      <trkpt lat="45.88178" lon="4.86793">
        <ele>299</ele>
        <time>2016-09-08T09:25:26Z</time>
      </trkpt>
      <trkpt lat="45.88179" lon="4.868">
        <ele>299</ele>
        <time>2016-09-08T09:25:27Z</time>
      </trkpt>
      <trkpt lat="45.8818" lon="4.86807">
        <ele>299</ele>
        <time>2016-09-08T09:25:28Z</time>
      </trkpt>
      <trkpt lat="45.88182" lon="4.86814">
        <ele>299</ele>
        <time>2016-09-08T09:25:29Z</time>
      </trkpt>
      <trkpt lat="45.88183" lon="4.8682">
        <ele>299</ele>
        <time>2016-09-08T09:25:30Z</time>
      </trkpt>
      <trkpt lat="45.88183" lon="4.86827">
        <ele>299</ele>
        <time>2016-09-08T09:25:31Z</time>
      </trkpt>
      <trkpt lat="45.88184" lon="4.86834">
        <ele>299</ele>
        <time>2016-09-08T09:25:32Z</time>
      </trkpt>
      <trkpt lat="45.88185" lon="4.86841">
        <ele>299</ele>
        <time>2016-09-08T09:25:33Z</time>
      </trkpt>
      <trkpt lat="45.88185" lon="4.86848">
        <ele>299</ele>
        <time>2016-09-08T09:25:34Z</time>
      </trkpt>
      <trkpt lat="45.88186" lon="4.86855">
        <ele>299</ele>
        <time>2016-09-08T09:25:35Z</time>
      </trkpt>
      <trkpt lat="45.88186" lon="4.86862">
        <ele>299</ele>
        <time>2016-09-08T09:25:36Z</time>
      </trkpt>
      <trkpt lat="45.88186" lon="4.86869">
        <ele>299</ele>
        <time>2016-09-08T09:25:37Z</time>
      </trkpt>
      <trkpt lat="45.88186" lon="4.86876">
        <ele>299</ele>
        <time>2016-09-08T09:25:38Z</time>
      </trkpt>
      <trkpt lat="45.88186" lon="4.86884">
        <ele>299</ele>
        <time>2016-09-08T09:25:39Z</time>
      </trkpt>
      <trkpt lat="45.88187" lon="4.86891">
        <ele>300</ele>
        <time>2016-09-08T09:25:40Z</time>
      </trkpt>
      <trkpt lat="45.88188" lon="4.86898">
        <ele>300</ele>
        <time>2016-09-08T09:25:41Z</time>
      </trkpt>
      <trkpt lat="45.88188" lon="4.86906">
        <ele>300</ele>
        <time>2016-09-08T09:25:42Z</time>
      </trkpt>
      <trkpt lat="45.88188" lon="4.86914">
        <ele>300</ele>
        <time>2016-09-08T09:25:43Z</time>
      </trkpt>
      <trkpt lat="45.88188" lon="4.86921">
        <ele>300</ele>
        <time>2016-09-08T09:25:44Z</time>
      </trkpt>
      <trkpt lat="45.88187" lon="4.86929">
        <ele>300</ele>
        <time>2016-09-08T09:25:45Z</time>
      </trkpt>
      <trkpt lat="45.88187" lon="4.86937">
        <ele>300</ele>
        <time>2016-09-08T09:25:46Z</time>
      </trkpt>
      <trkpt lat="45.88187" lon="4.86945">
        <ele>300</ele>
        <time>2016-09-08T09:25:47Z</time>
      </trkpt>
      <trkpt lat="45.88188" lon="4.86953">
        <ele>300</ele>
        <time>2016-09-08T09:25:48Z</time>
      </trkpt>
      <trkpt lat="45.88188" lon="4.86961">
        <ele>300</ele>
        <time>2016-09-08T09:25:49Z</time>
      </trkpt>
      <trkpt lat="45.88188" lon="4.86969">
        <ele>299</ele>
        <time>2016-09-08T09:25:50Z</time>
      </trkpt>
      <trkpt lat="45.88189" lon="4.86978">
        <ele>299</ele>
        <time>2016-09-08T09:25:51Z</time>
      </trkpt>
      <trkpt lat="45.88189" lon="4.86987">
        <ele>299</ele>
        <time>2016-09-08T09:25:52Z</time>
      </trkpt>
      <trkpt lat="45.88189" lon="4.86995">
        <ele>300</ele>
        <time>2016-09-08T09:25:53Z</time>
      </trkpt>
      <trkpt lat="45.8819" lon="4.87004">
        <ele>299</ele>
        <time>2016-09-08T09:25:54Z</time>
      </trkpt>
      <trkpt lat="45.88191" lon="4.87012">
        <ele>299</ele>
        <time>2016-09-08T09:25:55Z</time>
      </trkpt>
      <trkpt lat="45.88191" lon="4.8702">
        <ele>299</ele>
        <time>2016-09-08T09:25:56Z</time>
      </trkpt>
      <trkpt lat="45.88191" lon="4.87028">
        <ele>299</ele>
        <time>2016-09-08T09:25:57Z</time>
      </trkpt>
      <trkpt lat="45.88192" lon="4.87036">
        <ele>299</ele>
        <time>2016-09-08T09:25:58Z</time>
      </trkpt>
      <trkpt lat="45.88193" lon="4.87044">
        <ele>299</ele>
        <time>2016-09-08T09:25:59Z</time>
      </trkpt>
      <trkpt lat="45.88194" lon="4.87052">
        <ele>299</ele>
        <time>2016-09-08T09:26:00Z</time>
      </trkpt>
      <trkpt lat="45.88195" lon="4.87059">
        <ele>299</ele>
        <time>2016-09-08T09:26:01Z</time>
      </trkpt>
      <trkpt lat="45.88195" lon="4.87067">
        <ele>299</ele>
        <time>2016-09-08T09:26:02Z</time>
      </trkpt>
      <trkpt lat="45.88195" lon="4.87075">
        <ele>299</ele>
        <time>2016-09-08T09:26:03Z</time>
      </trkpt>
      <trkpt lat="45.88196" lon="4.87083">
        <ele>299</ele>
        <time>2016-09-08T09:26:04Z</time>
      </trkpt>
      <trkpt lat="45.88196" lon="4.87091">
        <ele>299</ele>
        <time>2016-09-08T09:26:05Z</time>
      </trkpt>
      <trkpt lat="45.88196" lon="4.871">
        <ele>299</ele>
        <time>2016-09-08T09:26:06Z</time>
      </trkpt>
      <trkpt lat="45.88196" lon="4.87109">
        <ele>299</ele>
        <time>2016-09-08T09:26:07Z</time>
      </trkpt>
      <trkpt lat="45.88197" lon="4.87118">
        <ele>299</ele>
        <time>2016-09-08T09:26:08Z</time>
      </trkpt>
      <trkpt lat="45.88198" lon="4.87128">
        <ele>299</ele>
        <time>2016-09-08T09:26:09Z</time>
      </trkpt>
      <trkpt lat="45.88199" lon="4.87137">
        <ele>299</ele>
        <time>2016-09-08T09:26:10Z</time>
      </trkpt>
      <trkpt lat="45.88199" lon="4.87145">
        <ele>299</ele>
        <time>2016-09-08T09:26:11Z</time>
      </trkpt>
      <trkpt lat="45.88199" lon="4.87154">
        <ele>298</ele>
        <time>2016-09-08T09:26:12Z</time>
      </trkpt>
      <trkpt lat="45.882" lon="4.87163">
        <ele>298</ele>
        <time>2016-09-08T09:26:13Z</time>
      </trkpt>
      <trkpt lat="45.882" lon="4.87172">
        <ele>298</ele>
        <time>2016-09-08T09:26:14Z</time>
      </trkpt>
      <trkpt lat="45.88201" lon="4.87181">
        <ele>298</ele>
        <time>2016-09-08T09:26:15Z</time>
      </trkpt>
      <trkpt lat="45.88201" lon="4.8719">
        <ele>298</ele>
        <time>2016-09-08T09:26:16Z</time>
      </trkpt>
      <trkpt lat="45.88201" lon="4.872">
        <ele>298</ele>
        <time>2016-09-08T09:26:17Z</time>
      </trkpt>
      <trkpt lat="45.88201" lon="4.87209">
        <ele>298</ele>
        <time>2016-09-08T09:26:18Z</time>
      </trkpt>
      <trkpt lat="45.88202" lon="4.87219">
        <ele>298</ele>
        <time>2016-09-08T09:26:19Z</time>
      </trkpt>
      <trkpt lat="45.88202" lon="4.87228">
        <ele>298</ele>
        <time>2016-09-08T09:26:20Z</time>
      </trkpt>
      <trkpt lat="45.88203" lon="4.87237">
        <ele>298</ele>
        <time>2016-09-08T09:26:21Z</time>
      </trkpt>
      <trkpt lat="45.88203" lon="4.87246">
        <ele>298</ele>
        <time>2016-09-08T09:26:22Z</time>
      </trkpt>
      <trkpt lat="45.88203" lon="4.87255">
        <ele>297</ele>
        <time>2016-09-08T09:26:23Z</time>
      </trkpt>
      <trkpt lat="45.88203" lon="4.87264">
        <ele>297</ele>
        <time>2016-09-08T09:26:24Z</time>
      </trkpt>
      <trkpt lat="45.88203" lon="4.87273">
        <ele>297</ele>
        <time>2016-09-08T09:26:25Z</time>
      </trkpt>
      <trkpt lat="45.88204" lon="4.87282">
        <ele>297</ele>
        <time>2016-09-08T09:26:26Z</time>
      </trkpt>
      <trkpt lat="45.88204" lon="4.8729">
        <ele>297</ele>
        <time>2016-09-08T09:26:27Z</time>
      </trkpt>
      <trkpt lat="45.88204" lon="4.87299">
        <ele>297</ele>
        <time>2016-09-08T09:26:28Z</time>
      </trkpt>
      <trkpt lat="45.88205" lon="4.87307">
        <ele>297</ele>
        <time>2016-09-08T09:26:29Z</time>
      </trkpt>
      <trkpt lat="45.88205" lon="4.87315">
        <ele>297</ele>
        <time>2016-09-08T09:26:30Z</time>
      </trkpt>
      <trkpt lat="45.88204" lon="4.87323">
        <ele>297</ele>
        <time>2016-09-08T09:26:31Z</time>
      </trkpt>
      <trkpt lat="45.88204" lon="4.87332">
        <ele>297</ele>
        <time>2016-09-08T09:26:32Z</time>
      </trkpt>
      <trkpt lat="45.88202" lon="4.87339">
        <ele>297</ele>
        <time>2016-09-08T09:26:33Z</time>
      </trkpt>
      <trkpt lat="45.88202" lon="4.87347">
        <ele>297</ele>
        <time>2016-09-08T09:26:34Z</time>
      </trkpt>
      <trkpt lat="45.88203" lon="4.87356">
        <ele>297</ele>
        <time>2016-09-08T09:26:35Z</time>
      </trkpt>
      <trkpt lat="45.88204" lon="4.87364">
        <ele>297</ele>
        <time>2016-09-08T09:26:36Z</time>
      </trkpt>
      <trkpt lat="45.88206" lon="4.87372">
        <ele>297</ele>
        <time>2016-09-08T09:26:37Z</time>
      </trkpt>
      <trkpt lat="45.88207" lon="4.8738">
        <ele>297</ele>
        <time>2016-09-08T09:26:38Z</time>
      </trkpt>
      <trkpt lat="45.88209" lon="4.87388">
        <ele>297</ele>
        <time>2016-09-08T09:26:39Z</time>
      </trkpt>
      <trkpt lat="45.8821" lon="4.87397">
        <ele>297</ele>
        <time>2016-09-08T09:26:40Z</time>
      </trkpt>
      <trkpt lat="45.8821" lon="4.87406">
        <ele>297</ele>
        <time>2016-09-08T09:26:41Z</time>
      </trkpt>
      <trkpt lat="45.8821" lon="4.87414">
        <ele>297</ele>
        <time>2016-09-08T09:26:42Z</time>
      </trkpt>
      <trkpt lat="45.88211" lon="4.87423">
        <ele>297</ele>
        <time>2016-09-08T09:26:43Z</time>
      </trkpt>
      <trkpt lat="45.88212" lon="4.87432">
        <ele>297</ele>
        <time>2016-09-08T09:26:44Z</time>
      </trkpt>
      <trkpt lat="45.88212" lon="4.87441">
        <ele>297</ele>
        <time>2016-09-08T09:26:45Z</time>
      </trkpt>
      <trkpt lat="45.88212" lon="4.8745">
        <ele>297</ele>
        <time>2016-09-08T09:26:46Z</time>
      </trkpt>
      <trkpt lat="45.88212" lon="4.87459">
        <ele>297</ele>
        <time>2016-09-08T09:26:47Z</time>
      </trkpt>
      <trkpt lat="45.88212" lon="4.87469">
        <ele>297</ele>
        <time>2016-09-08T09:26:48Z</time>
      </trkpt>
      <trkpt lat="45.88213" lon="4.87478">
        <ele>297</ele>
        <time>2016-09-08T09:26:49Z</time>
      </trkpt>
      <trkpt lat="45.88214" lon="4.87487">
        <ele>297</ele>
        <time>2016-09-08T09:26:50Z</time>
      </trkpt>
      <trkpt lat="45.88214" lon="4.87496">
        <ele>297</ele>
        <time>2016-09-08T09:26:51Z</time>
      </trkpt>
      <trkpt lat="45.88214" lon="4.87504">
        <ele>297</ele>
        <time>2016-09-08T09:26:52Z</time>
      </trkpt>
      <trkpt lat="45.88214" lon="4.87513">
        <ele>296</ele>
        <time>2016-09-08T09:26:53Z</time>
      </trkpt>
      <trkpt lat="45.88215" lon="4.87521">
        <ele>296</ele>
        <time>2016-09-08T09:26:54Z</time>
      </trkpt>
      <trkpt lat="45.88215" lon="4.8753">
        <ele>296</ele>
        <time>2016-09-08T09:26:55Z</time>
      </trkpt>
      <trkpt lat="45.88216" lon="4.87539">
        <ele>296</ele>
        <time>2016-09-08T09:26:56Z</time>
      </trkpt>
      <trkpt lat="45.88216" lon="4.87548">
        <ele>296</ele>
        <time>2016-09-08T09:26:57Z</time>
      </trkpt>
      <trkpt lat="45.88216" lon="4.87558">
        <ele>296</ele>
        <time>2016-09-08T09:26:58Z</time>
      </trkpt>
      <trkpt lat="45.88216" lon="4.87568">
        <ele>296</ele>
        <time>2016-09-08T09:26:59Z</time>
      </trkpt>
      <trkpt lat="45.88217" lon="4.87577">
        <ele>296</ele>
        <time>2016-09-08T09:27:00Z</time>
      </trkpt>
      <trkpt lat="45.88218" lon="4.87586">
        <ele>295</ele>
        <time>2016-09-08T09:27:01Z</time>
      </trkpt>
      <trkpt lat="45.88219" lon="4.87595">
        <ele>295</ele>
        <time>2016-09-08T09:27:02Z</time>
      </trkpt>
      <trkpt lat="45.8822" lon="4.87604">
        <ele>295</ele>
        <time>2016-09-08T09:27:03Z</time>
      </trkpt>
      <trkpt lat="45.88221" lon="4.87612">
        <ele>295</ele>
        <time>2016-09-08T09:27:04Z</time>
      </trkpt>
      <trkpt lat="45.88221" lon="4.8762">
        <ele>295</ele>
        <time>2016-09-08T09:27:05Z</time>
      </trkpt>
      <trkpt lat="45.88222" lon="4.87628">
        <ele>295</ele>
        <time>2016-09-08T09:27:06Z</time>
      </trkpt>
      <trkpt lat="45.88223" lon="4.87636">
        <ele>295</ele>
        <time>2016-09-08T09:27:07Z</time>
      </trkpt>
      <trkpt lat="45.88224" lon="4.87645">
        <ele>295</ele>
        <time>2016-09-08T09:27:08Z</time>
      </trkpt>
      <trkpt lat="45.88225" lon="4.87653">
        <ele>295</ele>
        <time>2016-09-08T09:27:09Z</time>
      </trkpt>
      <trkpt lat="45.88227" lon="4.87661">
        <ele>295</ele>
        <time>2016-09-08T09:27:10Z</time>
      </trkpt>
      <trkpt lat="45.88229" lon="4.8767">
        <ele>295</ele>
        <time>2016-09-08T09:27:11Z</time>
      </trkpt>
      <trkpt lat="45.8823" lon="4.87679">
        <ele>295</ele>
        <time>2016-09-08T09:27:12Z</time>
      </trkpt>
      <trkpt lat="45.88231" lon="4.87687">
        <ele>295</ele>
        <time>2016-09-08T09:27:13Z</time>
      </trkpt>
      <trkpt lat="45.88232" lon="4.87696">
        <ele>295</ele>
        <time>2016-09-08T09:27:14Z</time>
      </trkpt>
      <trkpt lat="45.88233" lon="4.87704">
        <ele>295</ele>
        <time>2016-09-08T09:27:15Z</time>
      </trkpt>
      <trkpt lat="45.88234" lon="4.87713">
        <ele>295</ele>
        <time>2016-09-08T09:27:16Z</time>
      </trkpt>
      <trkpt lat="45.88236" lon="4.87721">
        <ele>295</ele>
        <time>2016-09-08T09:27:17Z</time>
      </trkpt>
      <trkpt lat="45.88237" lon="4.87729">
        <ele>295</ele>
        <time>2016-09-08T09:27:18Z</time>
      </trkpt>
      <trkpt lat="45.88238" lon="4.87736">
        <ele>295</ele>
        <time>2016-09-08T09:27:19Z</time>
      </trkpt>
      <trkpt lat="45.88239" lon="4.87744">
        <ele>295</ele>
        <time>2016-09-08T09:27:20Z</time>
      </trkpt>
      <trkpt lat="45.8824" lon="4.87752">
        <ele>295</ele>
        <time>2016-09-08T09:27:21Z</time>
      </trkpt>
      <trkpt lat="45.88241" lon="4.8776">
        <ele>295</ele>
        <time>2016-09-08T09:27:22Z</time>
      </trkpt>
      <trkpt lat="45.88242" lon="4.87769">
        <ele>295</ele>
        <time>2016-09-08T09:27:23Z</time>
      </trkpt>
      <trkpt lat="45.88243" lon="4.87777">
        <ele>295</ele>
        <time>2016-09-08T09:27:24Z</time>
      </trkpt>
      <trkpt lat="45.88244" lon="4.87786">
        <ele>295</ele>
        <time>2016-09-08T09:27:25Z</time>
      </trkpt>
      <trkpt lat="45.88245" lon="4.87794">
        <ele>295</ele>
        <time>2016-09-08T09:27:26Z</time>
      </trkpt>
      <trkpt lat="45.88246" lon="4.87803">
        <ele>295</ele>
        <time>2016-09-08T09:27:27Z</time>
      </trkpt>
      <trkpt lat="45.88247" lon="4.87812">
        <ele>295</ele>
        <time>2016-09-08T09:27:28Z</time>
      </trkpt>
      <trkpt lat="45.88248" lon="4.87821">
        <ele>295</ele>
        <time>2016-09-08T09:27:29Z</time>
      </trkpt>
      <trkpt lat="45.88249" lon="4.87829">
        <ele>295</ele>
        <time>2016-09-08T09:27:30Z</time>
      </trkpt>
      <trkpt lat="45.8825" lon="4.87838">
        <ele>295</ele>
        <time>2016-09-08T09:27:31Z</time>
      </trkpt>
      <trkpt lat="45.88251" lon="4.87847">
        <ele>295</ele>
        <time>2016-09-08T09:27:32Z</time>
      </trkpt>
      <trkpt lat="45.88252" lon="4.87855">
        <ele>294</ele>
        <time>2016-09-08T09:27:33Z</time>
      </trkpt>
      <trkpt lat="45.88253" lon="4.87864">
        <ele>294</ele>
        <time>2016-09-08T09:27:34Z</time>
      </trkpt>
      <trkpt lat="45.88254" lon="4.87872">
        <ele>294</ele>
        <time>2016-09-08T09:27:35Z</time>
      </trkpt>
      <trkpt lat="45.88255" lon="4.87881">
        <ele>294</ele>
        <time>2016-09-08T09:27:36Z</time>
      </trkpt>
      <trkpt lat="45.88255" lon="4.87889">
        <ele>295</ele>
        <time>2016-09-08T09:27:37Z</time>
      </trkpt>
      <trkpt lat="45.88256" lon="4.87897">
        <ele>295</ele>
        <time>2016-09-08T09:27:38Z</time>
      </trkpt>
      <trkpt lat="45.88256" lon="4.87905">
        <ele>295</ele>
        <time>2016-09-08T09:27:39Z</time>
      </trkpt>
      <trkpt lat="45.88256" lon="4.87913">
        <ele>295</ele>
        <time>2016-09-08T09:27:40Z</time>
      </trkpt>
      <trkpt lat="45.88257" lon="4.87921">
        <ele>295</ele>
        <time>2016-09-08T09:27:41Z</time>
      </trkpt>
      <trkpt lat="45.88257" lon="4.87929">
        <ele>295</ele>
        <time>2016-09-08T09:27:42Z</time>
      </trkpt>
      <trkpt lat="45.88257" lon="4.87936">
        <ele>294</ele>
        <time>2016-09-08T09:27:43Z</time>
      </trkpt>
      <trkpt lat="45.88257" lon="4.87944">
        <ele>294</ele>
        <time>2016-09-08T09:27:44Z</time>
      </trkpt>
      <trkpt lat="45.88258" lon="4.87952">
        <ele>294</ele>
        <time>2016-09-08T09:27:45Z</time>
      </trkpt>
      <trkpt lat="45.88258" lon="4.87959">
        <ele>293</ele>
        <time>2016-09-08T09:27:46Z</time>
      </trkpt>
      <trkpt lat="45.88259" lon="4.87966">
        <ele>293</ele>
        <time>2016-09-08T09:27:47Z</time>
      </trkpt>
      <trkpt lat="45.88259" lon="4.87973">
        <ele>293</ele>
        <time>2016-09-08T09:27:48Z</time>
      </trkpt>
      <trkpt lat="45.8826" lon="4.8798">
        <ele>293</ele>
        <time>2016-09-08T09:27:49Z</time>
      </trkpt>
      <trkpt lat="45.8826" lon="4.87987">
        <ele>293</ele>
        <time>2016-09-08T09:27:50Z</time>
      </trkpt>
      <trkpt lat="45.88261" lon="4.87994">
        <ele>293</ele>
        <time>2016-09-08T09:27:51Z</time>
      </trkpt>
      <trkpt lat="45.88261" lon="4.88001">
        <ele>293</ele>
        <time>2016-09-08T09:27:52Z</time>
      </trkpt>
      <trkpt lat="45.88261" lon="4.88007">
        <ele>293</ele>
        <time>2016-09-08T09:27:53Z</time>
      </trkpt>
      <trkpt lat="45.88262" lon="4.88014">
        <ele>293</ele>
        <time>2016-09-08T09:27:54Z</time>
      </trkpt>
      <trkpt lat="45.88262" lon="4.8802">
        <ele>293</ele>
        <time>2016-09-08T09:27:55Z</time>
      </trkpt>
      <trkpt lat="45.88263" lon="4.88027">
        <ele>293</ele>
        <time>2016-09-08T09:27:56Z</time>
      </trkpt>
      <trkpt lat="45.88263" lon="4.88034">
        <ele>293</ele>
        <time>2016-09-08T09:27:57Z</time>
      </trkpt>
      <trkpt lat="45.88263" lon="4.88041">
        <ele>293</ele>
        <time>2016-09-08T09:27:58Z</time>
      </trkpt>
      <trkpt lat="45.88264" lon="4.88048">
        <ele>293</ele>
        <time>2016-09-08T09:27:59Z</time>
      </trkpt>
      <trkpt lat="45.88264" lon="4.88055">
        <ele>293</ele>
        <time>2016-09-08T09:28:00Z</time>
      </trkpt>
      <trkpt lat="45.88265" lon="4.88062">
        <ele>293</ele>
        <time>2016-09-08T09:28:01Z</time>
      </trkpt>
      <trkpt lat="45.88266" lon="4.88069">
        <ele>293</ele>
        <time>2016-09-08T09:28:02Z</time>
      </trkpt>
      <trkpt lat="45.88266" lon="4.88076">
        <ele>293</ele>
        <time>2016-09-08T09:28:03Z</time>
      </trkpt>
      <trkpt lat="45.88267" lon="4.88083">
        <ele>293</ele>
        <time>2016-09-08T09:28:04Z</time>
      </trkpt>
      <trkpt lat="45.88267" lon="4.8809">
        <ele>294</ele>
        <time>2016-09-08T09:28:05Z</time>
      </trkpt>
      <trkpt lat="45.88268" lon="4.88096">
        <ele>294</ele>
        <time>2016-09-08T09:28:06Z</time>
      </trkpt>
      <trkpt lat="45.88268" lon="4.88103">
        <ele>294</ele>
        <time>2016-09-08T09:28:07Z</time>
      </trkpt>
      <trkpt lat="45.88268" lon="4.8811">
        <ele>295</ele>
        <time>2016-09-08T09:28:08Z</time>
      </trkpt>
      <trkpt lat="45.88269" lon="4.88117">
        <ele>295</ele>
        <time>2016-09-08T09:28:09Z</time>
      </trkpt>
      <trkpt lat="45.88269" lon="4.88129">
        <ele>295</ele>
        <time>2016-09-08T09:28:11Z</time>
      </trkpt>
      <trkpt lat="45.88269" lon="4.88136">
        <ele>295</ele>
        <time>2016-09-08T09:28:12Z</time>
      </trkpt>
      <trkpt lat="45.8827" lon="4.88143">
        <ele>295</ele>
        <time>2016-09-08T09:28:13Z</time>
      </trkpt>
      <trkpt lat="45.8827" lon="4.88149">
        <ele>296</ele>
        <time>2016-09-08T09:28:14Z</time>
      </trkpt>
      <trkpt lat="45.88271" lon="4.88156">
        <ele>296</ele>
        <time>2016-09-08T09:28:15Z</time>
      </trkpt>
      <trkpt lat="45.88271" lon="4.88162">
        <ele>296</ele>
        <time>2016-09-08T09:28:16Z</time>
      </trkpt>
      <trkpt lat="45.88272" lon="4.88169">
        <ele>297</ele>
        <time>2016-09-08T09:28:17Z</time>
      </trkpt>
      <trkpt lat="45.88272" lon="4.88175">
        <ele>297</ele>
        <time>2016-09-08T09:28:18Z</time>
      </trkpt>
      <trkpt lat="45.88272" lon="4.88182">
        <ele>297</ele>
        <time>2016-09-08T09:28:19Z</time>
      </trkpt>
      <trkpt lat="45.88272" lon="4.88189">
        <ele>296</ele>
        <time>2016-09-08T09:28:20Z</time>
      </trkpt>
      <trkpt lat="45.88272" lon="4.88197">
        <ele>296</ele>
        <time>2016-09-08T09:28:21Z</time>
      </trkpt>
      <trkpt lat="45.88272" lon="4.88204">
        <ele>296</ele>
        <time>2016-09-08T09:28:22Z</time>
      </trkpt>
      <trkpt lat="45.88272" lon="4.88212">
        <ele>296</ele>
        <time>2016-09-08T09:28:23Z</time>
      </trkpt>
      <trkpt lat="45.88272" lon="4.8822">
        <ele>296</ele>
        <time>2016-09-08T09:28:24Z</time>
      </trkpt>
      <trkpt lat="45.88272" lon="4.88229">
        <ele>296</ele>
        <time>2016-09-08T09:28:25Z</time>
      </trkpt>
      <trkpt lat="45.88271" lon="4.88237">
        <ele>296</ele>
        <time>2016-09-08T09:28:26Z</time>
      </trkpt>
      <trkpt lat="45.88271" lon="4.88245">
        <ele>297</ele>
        <time>2016-09-08T09:28:27Z</time>
      </trkpt>
      <trkpt lat="45.88271" lon="4.88254">
        <ele>296</ele>
        <time>2016-09-08T09:28:28Z</time>
      </trkpt>
      <trkpt lat="45.8827" lon="4.88262">
        <ele>296</ele>
        <time>2016-09-08T09:28:29Z</time>
      </trkpt>
      <trkpt lat="45.8827" lon="4.88271">
        <ele>296</ele>
        <time>2016-09-08T09:28:30Z</time>
      </trkpt>
      <trkpt lat="45.8827" lon="4.8828">
        <ele>296</ele>
        <time>2016-09-08T09:28:31Z</time>
      </trkpt>
      <trkpt lat="45.88269" lon="4.88288">
        <ele>296</ele>
        <time>2016-09-08T09:28:32Z</time>
      </trkpt>
      <trkpt lat="45.88268" lon="4.88297">
        <ele>296</ele>
        <time>2016-09-08T09:28:33Z</time>
      </trkpt>
      <trkpt lat="45.88266" lon="4.88305">
        <ele>296</ele>
        <time>2016-09-08T09:28:34Z</time>
      </trkpt>
      <trkpt lat="45.88263" lon="4.88312">
        <ele>296</ele>
        <time>2016-09-08T09:28:35Z</time>
      </trkpt>
      <trkpt lat="45.88259" lon="4.88318">
        <ele>297</ele>
        <time>2016-09-08T09:28:36Z</time>
      </trkpt>
      <trkpt lat="45.88255" lon="4.88324">
        <ele>297</ele>
        <time>2016-09-08T09:28:37Z</time>
      </trkpt>
      <trkpt lat="45.88252" lon="4.88331">
        <ele>297</ele>
        <time>2016-09-08T09:28:38Z</time>
      </trkpt>
      <trkpt lat="45.88249" lon="4.88338">
        <ele>297</ele>
        <time>2016-09-08T09:28:39Z</time>
      </trkpt>
      <trkpt lat="45.88247" lon="4.88346">
        <ele>296</ele>
        <time>2016-09-08T09:28:40Z</time>
      </trkpt>
      <trkpt lat="45.88247" lon="4.88354">
        <ele>296</ele>
        <time>2016-09-08T09:28:41Z</time>
      </trkpt>
      <trkpt lat="45.88249" lon="4.88363">
        <ele>296</ele>
        <time>2016-09-08T09:28:42Z</time>
      </trkpt>
      <trkpt lat="45.88252" lon="4.88371">
        <ele>296</ele>
        <time>2016-09-08T09:28:43Z</time>
      </trkpt>
      <trkpt lat="45.88256" lon="4.88378">
        <ele>296</ele>
        <time>2016-09-08T09:28:44Z</time>
      </trkpt>
      <trkpt lat="45.8826" lon="4.88386">
        <ele>296</ele>
        <time>2016-09-08T09:28:45Z</time>
      </trkpt>
      <trkpt lat="45.88263" lon="4.88394">
        <ele>296</ele>
        <time>2016-09-08T09:28:46Z</time>
      </trkpt>
      <trkpt lat="45.88265" lon="4.88403">
        <ele>295</ele>
        <time>2016-09-08T09:28:47Z</time>
      </trkpt>
      <trkpt lat="45.88265" lon="4.88412">
        <ele>295</ele>
        <time>2016-09-08T09:28:48Z</time>
      </trkpt>
      <trkpt lat="45.88264" lon="4.88421">
        <ele>295</ele>
        <time>2016-09-08T09:28:49Z</time>
      </trkpt>
      <trkpt lat="45.88264" lon="4.88431">
        <ele>295</ele>
        <time>2016-09-08T09:28:50Z</time>
      </trkpt>
      <trkpt lat="45.88264" lon="4.8844">
        <ele>295</ele>
        <time>2016-09-08T09:28:51Z</time>
      </trkpt>
      <trkpt lat="45.88264" lon="4.8845">
        <ele>295</ele>
        <time>2016-09-08T09:28:52Z</time>
      </trkpt>
      <trkpt lat="45.88263" lon="4.88459">
        <ele>295</ele>
        <time>2016-09-08T09:28:53Z</time>
      </trkpt>
      <trkpt lat="45.88262" lon="4.88468">
        <ele>295</ele>
        <time>2016-09-08T09:28:54Z</time>
      </trkpt>
      <trkpt lat="45.88262" lon="4.88478">
        <ele>295</ele>
        <time>2016-09-08T09:28:55Z</time>
      </trkpt>
      <trkpt lat="45.88261" lon="4.88487">
        <ele>295</ele>
        <time>2016-09-08T09:28:56Z</time>
      </trkpt>
      <trkpt lat="45.8826" lon="4.88497">
        <ele>295</ele>
        <time>2016-09-08T09:28:57Z</time>
      </trkpt>
      <trkpt lat="45.88259" lon="4.88507">
        <ele>295</ele>
        <time>2016-09-08T09:28:58Z</time>
      </trkpt>
      <trkpt lat="45.88258" lon="4.88517">
        <ele>295</ele>
        <time>2016-09-08T09:28:59Z</time>
      </trkpt>
      <trkpt lat="45.88257" lon="4.88527">
        <ele>295</ele>
        <time>2016-09-08T09:29:00Z</time>
      </trkpt>
      <trkpt lat="45.88256" lon="4.88537">
        <ele>295</ele>
        <time>2016-09-08T09:29:01Z</time>
      </trkpt>
      <trkpt lat="45.88256" lon="4.88548">
        <ele>295</ele>
        <time>2016-09-08T09:29:02Z</time>
      </trkpt>
      <trkpt lat="45.88255" lon="4.88558">
        <ele>295</ele>
        <time>2016-09-08T09:29:03Z</time>
      </trkpt>
      <trkpt lat="45.88255" lon="4.88568">
        <ele>295</ele>
        <time>2016-09-08T09:29:04Z</time>
      </trkpt>
      <trkpt lat="45.88254" lon="4.88578">
        <ele>295</ele>
        <time>2016-09-08T09:29:05Z</time>
      </trkpt>
      <trkpt lat="45.88253" lon="4.88588">
        <ele>295</ele>
        <time>2016-09-08T09:29:06Z</time>
      </trkpt>
      <trkpt lat="45.88252" lon="4.88597">
        <ele>295</ele>
        <time>2016-09-08T09:29:07Z</time>
      </trkpt>
      <trkpt lat="45.88252" lon="4.88607">
        <ele>294</ele>
        <time>2016-09-08T09:29:08Z</time>
      </trkpt>
      <trkpt lat="45.88251" lon="4.88616">
        <ele>294</ele>
        <time>2016-09-08T09:29:09Z</time>
      </trkpt>
      <trkpt lat="45.88251" lon="4.88625">
        <ele>294</ele>
        <time>2016-09-08T09:29:10Z</time>
      </trkpt>
      <trkpt lat="45.8825" lon="4.88634">
        <ele>296</ele>
        <time>2016-09-08T09:29:11Z</time>
      </trkpt>
      <trkpt lat="45.88249" lon="4.88642">
        <ele>296</ele>
        <time>2016-09-08T09:29:12Z</time>
      </trkpt>
      <trkpt lat="45.88248" lon="4.88651">
        <ele>295</ele>
        <time>2016-09-08T09:29:13Z</time>
      </trkpt>
      <trkpt lat="45.88247" lon="4.88659">
        <ele>295</ele>
        <time>2016-09-08T09:29:14Z</time>
      </trkpt>
      <trkpt lat="45.88247" lon="4.88668">
        <ele>295</ele>
        <time>2016-09-08T09:29:15Z</time>
      </trkpt>
      <trkpt lat="45.88247" lon="4.88676">
        <ele>295</ele>
        <time>2016-09-08T09:29:16Z</time>
      </trkpt>
      <trkpt lat="45.88246" lon="4.88685">
        <ele>295</ele>
        <time>2016-09-08T09:29:17Z</time>
      </trkpt>
      <trkpt lat="45.88246" lon="4.88694">
        <ele>295</ele>
        <time>2016-09-08T09:29:18Z</time>
      </trkpt>
      <trkpt lat="45.88245" lon="4.88703">
        <ele>295</ele>
        <time>2016-09-08T09:29:19Z</time>
      </trkpt>
      <trkpt lat="45.88245" lon="4.88712">
        <ele>295</ele>
        <time>2016-09-08T09:29:20Z</time>
      </trkpt>
      <trkpt lat="45.88244" lon="4.88722">
        <ele>295</ele>
        <time>2016-09-08T09:29:21Z</time>
      </trkpt>
      <trkpt lat="45.88244" lon="4.88732">
        <ele>295</ele>
        <time>2016-09-08T09:29:22Z</time>
      </trkpt>
      <trkpt lat="45.88243" lon="4.88742">
        <ele>295</ele>
        <time>2016-09-08T09:29:23Z</time>
      </trkpt>
      <trkpt lat="45.88243" lon="4.88753">
        <ele>294</ele>
        <time>2016-09-08T09:29:24Z</time>
      </trkpt>
      <trkpt lat="45.88242" lon="4.88763">
        <ele>294</ele>
        <time>2016-09-08T09:29:25Z</time>
      </trkpt>
      <trkpt lat="45.88241" lon="4.88773">
        <ele>294</ele>
        <time>2016-09-08T09:29:26Z</time>
      </trkpt>
      <trkpt lat="45.8824" lon="4.88782">
        <ele>294</ele>
        <time>2016-09-08T09:29:27Z</time>
      </trkpt>
      <trkpt lat="45.8824" lon="4.88792">
        <ele>295</ele>
        <time>2016-09-08T09:29:28Z</time>
      </trkpt>
      <trkpt lat="45.88239" lon="4.88801">
        <ele>294</ele>
        <time>2016-09-08T09:29:29Z</time>
      </trkpt>
      <trkpt lat="45.88238" lon="4.8881">
        <ele>294</ele>
        <time>2016-09-08T09:29:30Z</time>
      </trkpt>
      <trkpt lat="45.88237" lon="4.88818">
        <ele>294</ele>
        <time>2016-09-08T09:29:31Z</time>
      </trkpt>
      <trkpt lat="45.88237" lon="4.88827">
        <ele>294</ele>
        <time>2016-09-08T09:29:32Z</time>
      </trkpt>
      <trkpt lat="45.88236" lon="4.88836">
        <ele>294</ele>
        <time>2016-09-08T09:29:33Z</time>
      </trkpt>
      <trkpt lat="45.88235" lon="4.88844">
        <ele>294</ele>
        <time>2016-09-08T09:29:34Z</time>
      </trkpt>
      <trkpt lat="45.88235" lon="4.88853">
        <ele>294</ele>
        <time>2016-09-08T09:29:35Z</time>
      </trkpt>
      <trkpt lat="45.88234" lon="4.88862">
        <ele>294</ele>
        <time>2016-09-08T09:29:36Z</time>
      </trkpt>
      <trkpt lat="45.88233" lon="4.8887">
        <ele>293</ele>
        <time>2016-09-08T09:29:37Z</time>
      </trkpt>
      <trkpt lat="45.88233" lon="4.88879">
        <ele>293</ele>
        <time>2016-09-08T09:29:38Z</time>
      </trkpt>
      <trkpt lat="45.88232" lon="4.88887">
        <ele>293</ele>
        <time>2016-09-08T09:29:39Z</time>
      </trkpt>
      <trkpt lat="45.88232" lon="4.88896">
        <ele>293</ele>
        <time>2016-09-08T09:29:40Z</time>
      </trkpt>
      <trkpt lat="45.88231" lon="4.88905">
        <ele>293</ele>
        <time>2016-09-08T09:29:41Z</time>
      </trkpt>
      <trkpt lat="45.8823" lon="4.88914">
        <ele>293</ele>
        <time>2016-09-08T09:29:42Z</time>
      </trkpt>
      <trkpt lat="45.8823" lon="4.88923">
        <ele>292</ele>
        <time>2016-09-08T09:29:43Z</time>
      </trkpt>
      <trkpt lat="45.88229" lon="4.88932">
        <ele>293</ele>
        <time>2016-09-08T09:29:44Z</time>
      </trkpt>
      <trkpt lat="45.88228" lon="4.88941">
        <ele>293</ele>
        <time>2016-09-08T09:29:45Z</time>
      </trkpt>
      <trkpt lat="45.88228" lon="4.8895">
        <ele>293</ele>
        <time>2016-09-08T09:29:46Z</time>
      </trkpt>
      <trkpt lat="45.88227" lon="4.8896">
        <ele>293</ele>
        <time>2016-09-08T09:29:47Z</time>
      </trkpt>
      <trkpt lat="45.88226" lon="4.8897">
        <ele>293</ele>
        <time>2016-09-08T09:29:48Z</time>
      </trkpt>
      <trkpt lat="45.88226" lon="4.88979">
        <ele>293</ele>
        <time>2016-09-08T09:29:49Z</time>
      </trkpt>
      <trkpt lat="45.88225" lon="4.88988">
        <ele>293</ele>
        <time>2016-09-08T09:29:50Z</time>
      </trkpt>
      <trkpt lat="45.88225" lon="4.88997">
        <ele>293</ele>
        <time>2016-09-08T09:29:51Z</time>
      </trkpt>
      <trkpt lat="45.88224" lon="4.89007">
        <ele>293</ele>
        <time>2016-09-08T09:29:52Z</time>
      </trkpt>
      <trkpt lat="45.88223" lon="4.89017">
        <ele>293</ele>
        <time>2016-09-08T09:29:53Z</time>
      </trkpt>
      <trkpt lat="45.88223" lon="4.89026">
        <ele>293</ele>
        <time>2016-09-08T09:29:54Z</time>
      </trkpt>
      <trkpt lat="45.88222" lon="4.89035">
        <ele>293</ele>
        <time>2016-09-08T09:29:55Z</time>
      </trkpt>
      <trkpt lat="45.88221" lon="4.89043">
        <ele>293</ele>
        <time>2016-09-08T09:29:56Z</time>
      </trkpt>
      <trkpt lat="45.88221" lon="4.89051">
        <ele>293</ele>
        <time>2016-09-08T09:29:57Z</time>
      </trkpt>
      <trkpt lat="45.8822" lon="4.89059">
        <ele>293</ele>
        <time>2016-09-08T09:29:58Z</time>
      </trkpt>
      <trkpt lat="45.8822" lon="4.89067">
        <ele>293</ele>
        <time>2016-09-08T09:29:59Z</time>
      </trkpt>
      <trkpt lat="45.88219" lon="4.89075">
        <ele>293</ele>
        <time>2016-09-08T09:30:00Z</time>
      </trkpt>
      <trkpt lat="45.88218" lon="4.89083">
        <ele>293</ele>
        <time>2016-09-08T09:30:01Z</time>
      </trkpt>
      <trkpt lat="45.88217" lon="4.89092">
        <ele>294</ele>
        <time>2016-09-08T09:30:02Z</time>
      </trkpt>
      <trkpt lat="45.88216" lon="4.89101">
        <ele>294</ele>
        <time>2016-09-08T09:30:03Z</time>
      </trkpt>
      <trkpt lat="45.88216" lon="4.89109">
        <ele>294</ele>
        <time>2016-09-08T09:30:04Z</time>
      </trkpt>
      <trkpt lat="45.88215" lon="4.89119">
        <ele>294</ele>
        <time>2016-09-08T09:30:05Z</time>
      </trkpt>
      <trkpt lat="45.88214" lon="4.89128">
        <ele>294</ele>
        <time>2016-09-08T09:30:06Z</time>
      </trkpt>
      <trkpt lat="45.88214" lon="4.89137">
        <ele>294</ele>
        <time>2016-09-08T09:30:07Z</time>
      </trkpt>
      <trkpt lat="45.88213" lon="4.89146">
        <ele>294</ele>
        <time>2016-09-08T09:30:08Z</time>
      </trkpt>
      <trkpt lat="45.88212" lon="4.89156">
        <ele>295</ele>
        <time>2016-09-08T09:30:09Z</time>
      </trkpt>
      <trkpt lat="45.88211" lon="4.89165">
        <ele>295</ele>
        <time>2016-09-08T09:30:10Z</time>
      </trkpt>
      <trkpt lat="45.88211" lon="4.89174">
        <ele>296</ele>
        <time>2016-09-08T09:30:11Z</time>
      </trkpt>
      <trkpt lat="45.8821" lon="4.89183">
        <ele>296</ele>
        <time>2016-09-08T09:30:12Z</time>
      </trkpt>
      <trkpt lat="45.88209" lon="4.89192">
        <ele>296</ele>
        <time>2016-09-08T09:30:13Z</time>
      </trkpt>
      <trkpt lat="45.88209" lon="4.892">
        <ele>296</ele>
        <time>2016-09-08T09:30:14Z</time>
      </trkpt>
      <trkpt lat="45.88208" lon="4.89209">
        <ele>296</ele>
        <time>2016-09-08T09:30:15Z</time>
      </trkpt>
      <trkpt lat="45.88207" lon="4.89217">
        <ele>296</ele>
        <time>2016-09-08T09:30:16Z</time>
      </trkpt>
      <trkpt lat="45.88206" lon="4.89225">
        <ele>296</ele>
        <time>2016-09-08T09:30:17Z</time>
      </trkpt>
      <trkpt lat="45.88205" lon="4.89234">
        <ele>296</ele>
        <time>2016-09-08T09:30:18Z</time>
      </trkpt>
      <trkpt lat="45.88205" lon="4.89242">
        <ele>296</ele>
        <time>2016-09-08T09:30:19Z</time>
      </trkpt>
      <trkpt lat="45.88204" lon="4.8925">
        <ele>296</ele>
        <time>2016-09-08T09:30:20Z</time>
      </trkpt>
      <trkpt lat="45.88204" lon="4.89257">
        <ele>296</ele>
        <time>2016-09-08T09:30:21Z</time>
      </trkpt>
      <trkpt lat="45.88204" lon="4.89264">
        <ele>296</ele>
        <time>2016-09-08T09:30:22Z</time>
      </trkpt>
      <trkpt lat="45.88203" lon="4.89272">
        <ele>296</ele>
        <time>2016-09-08T09:30:23Z</time>
      </trkpt>
      <trkpt lat="45.88202" lon="4.89279">
        <ele>296</ele>
        <time>2016-09-08T09:30:24Z</time>
      </trkpt>
      <trkpt lat="45.88202" lon="4.89287">
        <ele>296</ele>
        <time>2016-09-08T09:30:25Z</time>
      </trkpt>
      <trkpt lat="45.88201" lon="4.89295">
        <ele>296</ele>
        <time>2016-09-08T09:30:26Z</time>
      </trkpt>
      <trkpt lat="45.88201" lon="4.89303">
        <ele>296</ele>
        <time>2016-09-08T09:30:27Z</time>
      </trkpt>
      <trkpt lat="45.88199" lon="4.8931">
        <ele>296</ele>
        <time>2016-09-08T09:30:28Z</time>
      </trkpt>
      <trkpt lat="45.88199" lon="4.89318">
        <ele>296</ele>
        <time>2016-09-08T09:30:29Z</time>
      </trkpt>
      <trkpt lat="45.88198" lon="4.89326">
        <ele>296</ele>
        <time>2016-09-08T09:30:30Z</time>
      </trkpt>
      <trkpt lat="45.88198" lon="4.89334">
        <ele>296</ele>
        <time>2016-09-08T09:30:31Z</time>
      </trkpt>
      <trkpt lat="45.88197" lon="4.89342">
        <ele>296</ele>
        <time>2016-09-08T09:30:32Z</time>
      </trkpt>
      <trkpt lat="45.88197" lon="4.8935">
        <ele>296</ele>
        <time>2016-09-08T09:30:33Z</time>
      </trkpt>
      <trkpt lat="45.88196" lon="4.89358">
        <ele>296</ele>
        <time>2016-09-08T09:30:34Z</time>
      </trkpt>
      <trkpt lat="45.88195" lon="4.89366">
        <ele>297</ele>
        <time>2016-09-08T09:30:35Z</time>
      </trkpt>
      <trkpt lat="45.88195" lon="4.89374">
        <ele>297</ele>
        <time>2016-09-08T09:30:36Z</time>
      </trkpt>
      <trkpt lat="45.88195" lon="4.89382">
        <ele>297</ele>
        <time>2016-09-08T09:30:37Z</time>
      </trkpt>
      <trkpt lat="45.88194" lon="4.8939">
        <ele>297</ele>
        <time>2016-09-08T09:30:38Z</time>
      </trkpt>
      <trkpt lat="45.88194" lon="4.89398">
        <ele>297</ele>
        <time>2016-09-08T09:30:39Z</time>
      </trkpt>
      <trkpt lat="45.88194" lon="4.89406">
        <ele>297</ele>
        <time>2016-09-08T09:30:40Z</time>
      </trkpt>
      <trkpt lat="45.88194" lon="4.89414">
        <ele>297</ele>
        <time>2016-09-08T09:30:41Z</time>
      </trkpt>
      <trkpt lat="45.88193" lon="4.89422">
        <ele>297</ele>
        <time>2016-09-08T09:30:42Z</time>
      </trkpt>
      <trkpt lat="45.88193" lon="4.89429">
        <ele>297</ele>
        <time>2016-09-08T09:30:43Z</time>
      </trkpt>
      <trkpt lat="45.88192" lon="4.89437">
        <ele>297</ele>
        <time>2016-09-08T09:30:44Z</time>
      </trkpt>
      <trkpt lat="45.88192" lon="4.89445">
        <ele>297</ele>
        <time>2016-09-08T09:30:45Z</time>
      </trkpt>
      <trkpt lat="45.88192" lon="4.89453">
        <ele>297</ele>
        <time>2016-09-08T09:30:46Z</time>
      </trkpt>
      <trkpt lat="45.88192" lon="4.8946">
        <ele>297</ele>
        <time>2016-09-08T09:30:47Z</time>
      </trkpt>
      <trkpt lat="45.88192" lon="4.89468">
        <ele>297</ele>
        <time>2016-09-08T09:30:48Z</time>
      </trkpt>
      <trkpt lat="45.88192" lon="4.89476">
        <ele>297</ele>
        <time>2016-09-08T09:30:49Z</time>
      </trkpt>
      <trkpt lat="45.88192" lon="4.89484">
        <ele>297</ele>
        <time>2016-09-08T09:30:50Z</time>
      </trkpt>
      <trkpt lat="45.88192" lon="4.89491">
        <ele>297</ele>
        <time>2016-09-08T09:30:51Z</time>
      </trkpt>
      <trkpt lat="45.88192" lon="4.89498">
        <ele>297</ele>
        <time>2016-09-08T09:30:52Z</time>
      </trkpt>
      <trkpt lat="45.88192" lon="4.89505">
        <ele>298</ele>
        <time>2016-09-08T09:30:53Z</time>
      </trkpt>
      <trkpt lat="45.88192" lon="4.89512">
        <ele>298</ele>
        <time>2016-09-08T09:30:54Z</time>
      </trkpt>
      <trkpt lat="45.88192" lon="4.89519">
        <ele>298</ele>
        <time>2016-09-08T09:30:55Z</time>
      </trkpt>
      <trkpt lat="45.88192" lon="4.89526">
        <ele>298</ele>
        <time>2016-09-08T09:30:56Z</time>
      </trkpt>
      <trkpt lat="45.88192" lon="4.89532">
        <ele>298</ele>
        <time>2016-09-08T09:30:57Z</time>
      </trkpt>
      <trkpt lat="45.88191" lon="4.89538">
        <ele>298</ele>
        <time>2016-09-08T09:30:58Z</time>
      </trkpt>
      <trkpt lat="45.88192" lon="4.89551">
        <ele>298</ele>
        <time>2016-09-08T09:31:00Z</time>
      </trkpt>
      <trkpt lat="45.88192" lon="4.89557">
        <ele>298</ele>
        <time>2016-09-08T09:31:01Z</time>
      </trkpt>
      <trkpt lat="45.88191" lon="4.8957">
        <ele>298</ele>
        <time>2016-09-08T09:31:03Z</time>
      </trkpt>
      <trkpt lat="45.88191" lon="4.89576">
        <ele>298</ele>
        <time>2016-09-08T09:31:04Z</time>
      </trkpt>
      <trkpt lat="45.88191" lon="4.89582">
        <ele>298</ele>
        <time>2016-09-08T09:31:05Z</time>
      </trkpt>
      <trkpt lat="45.88192" lon="4.89589">
        <ele>299</ele>
        <time>2016-09-08T09:31:06Z</time>
      </trkpt>
      <trkpt lat="45.88191" lon="4.89595">
        <ele>299</ele>
        <time>2016-09-08T09:31:07Z</time>
      </trkpt>
      <trkpt lat="45.88191" lon="4.89602">
        <ele>299</ele>
        <time>2016-09-08T09:31:08Z</time>
      </trkpt>
      <trkpt lat="45.88191" lon="4.89609">
        <ele>299</ele>
        <time>2016-09-08T09:31:09Z</time>
      </trkpt>
      <trkpt lat="45.88191" lon="4.89616">
        <ele>299</ele>
        <time>2016-09-08T09:31:10Z</time>
      </trkpt>
      <trkpt lat="45.8819" lon="4.89623">
        <ele>299</ele>
        <time>2016-09-08T09:31:11Z</time>
      </trkpt>
      <trkpt lat="45.88191" lon="4.8963">
        <ele>299</ele>
        <time>2016-09-08T09:31:12Z</time>
      </trkpt>
      <trkpt lat="45.88191" lon="4.89636">
        <ele>299</ele>
        <time>2016-09-08T09:31:13Z</time>
      </trkpt>
      <trkpt lat="45.88191" lon="4.89643">
        <ele>299</ele>
        <time>2016-09-08T09:31:14Z</time>
      </trkpt>
      <trkpt lat="45.88191" lon="4.89651">
        <ele>299</ele>
        <time>2016-09-08T09:31:15Z</time>
      </trkpt>
      <trkpt lat="45.88191" lon="4.89658">
        <ele>299</ele>
        <time>2016-09-08T09:31:16Z</time>
      </trkpt>
      <trkpt lat="45.88191" lon="4.89665">
        <ele>299</ele>
        <time>2016-09-08T09:31:17Z</time>
      </trkpt>
      <trkpt lat="45.88191" lon="4.89672">
        <ele>299</ele>
        <time>2016-09-08T09:31:18Z</time>
      </trkpt>
      <trkpt lat="45.88191" lon="4.89678">
        <ele>299</ele>
        <time>2016-09-08T09:31:19Z</time>
      </trkpt>
      <trkpt lat="45.88191" lon="4.89685">
        <ele>299</ele>
        <time>2016-09-08T09:31:20Z</time>
      </trkpt>
      <trkpt lat="45.88191" lon="4.89692">
        <ele>299</ele>
        <time>2016-09-08T09:31:21Z</time>
      </trkpt>
      <trkpt lat="45.8819" lon="4.89699">
        <ele>299</ele>
        <time>2016-09-08T09:31:22Z</time>
      </trkpt>
      <trkpt lat="45.8819" lon="4.89706">
        <ele>299</ele>
        <time>2016-09-08T09:31:23Z</time>
      </trkpt>
      <trkpt lat="45.88189" lon="4.89714">
        <ele>299</ele>
        <time>2016-09-08T09:31:24Z</time>
      </trkpt>
      <trkpt lat="45.8819" lon="4.89722">
        <ele>299</ele>
        <time>2016-09-08T09:31:25Z</time>
      </trkpt>
      <trkpt lat="45.8819" lon="4.89729">
        <ele>299</ele>
        <time>2016-09-08T09:31:26Z</time>
      </trkpt>
      <trkpt lat="45.88189" lon="4.89737">
        <ele>299</ele>
        <time>2016-09-08T09:31:27Z</time>
      </trkpt>
      <trkpt lat="45.8819" lon="4.89746">
        <ele>300</ele>
        <time>2016-09-08T09:31:28Z</time>
      </trkpt>
      <trkpt lat="45.88189" lon="4.89753">
        <ele>300</ele>
        <time>2016-09-08T09:31:29Z</time>
      </trkpt>
      <trkpt lat="45.88189" lon="4.89761">
        <ele>300</ele>
        <time>2016-09-08T09:31:30Z</time>
      </trkpt>
      <trkpt lat="45.88188" lon="4.89769">
        <ele>300</ele>
        <time>2016-09-08T09:31:31Z</time>
      </trkpt>
      <trkpt lat="45.88188" lon="4.89777">
        <ele>300</ele>
        <time>2016-09-08T09:31:32Z</time>
      </trkpt>
      <trkpt lat="45.88188" lon="4.89784">
        <ele>300</ele>
        <time>2016-09-08T09:31:33Z</time>
      </trkpt>
      <trkpt lat="45.88188" lon="4.89792">
        <ele>300</ele>
        <time>2016-09-08T09:31:34Z</time>
      </trkpt>
      <trkpt lat="45.88188" lon="4.898">
        <ele>300</ele>
        <time>2016-09-08T09:31:35Z</time>
      </trkpt>
      <trkpt lat="45.88188" lon="4.89808">
        <ele>300</ele>
        <time>2016-09-08T09:31:36Z</time>
      </trkpt>
      <trkpt lat="45.88188" lon="4.89816">
        <ele>300</ele>
        <time>2016-09-08T09:31:37Z</time>
      </trkpt>
      <trkpt lat="45.88188" lon="4.89824">
        <ele>300</ele>
        <time>2016-09-08T09:31:38Z</time>
      </trkpt>
      <trkpt lat="45.88188" lon="4.89833">
        <ele>300</ele>
        <time>2016-09-08T09:31:39Z</time>
      </trkpt>
      <trkpt lat="45.88188" lon="4.89841">
        <ele>300</ele>
        <time>2016-09-08T09:31:40Z</time>
      </trkpt>
      <trkpt lat="45.88187" lon="4.8985">
        <ele>300</ele>
        <time>2016-09-08T09:31:41Z</time>
      </trkpt>
      <trkpt lat="45.88187" lon="4.8986">
        <ele>301</ele>
        <time>2016-09-08T09:31:42Z</time>
      </trkpt>
      <trkpt lat="45.88187" lon="4.89869">
        <ele>301</ele>
        <time>2016-09-08T09:31:43Z</time>
      </trkpt>
      <trkpt lat="45.88187" lon="4.89878">
        <ele>301</ele>
        <time>2016-09-08T09:31:44Z</time>
      </trkpt>
      <trkpt lat="45.88187" lon="4.89887">
        <ele>301</ele>
        <time>2016-09-08T09:31:45Z</time>
      </trkpt>
      <trkpt lat="45.88188" lon="4.89895">
        <ele>301</ele>
        <time>2016-09-08T09:31:46Z</time>
      </trkpt>
      <trkpt lat="45.88187" lon="4.89904">
        <ele>301</ele>
        <time>2016-09-08T09:31:47Z</time>
      </trkpt>
      <trkpt lat="45.88187" lon="4.89912">
        <ele>300</ele>
        <time>2016-09-08T09:31:48Z</time>
      </trkpt>
      <trkpt lat="45.88187" lon="4.89921">
        <ele>301</ele>
        <time>2016-09-08T09:31:49Z</time>
      </trkpt>
      <trkpt lat="45.88187" lon="4.89929">
        <ele>301</ele>
        <time>2016-09-08T09:31:50Z</time>
      </trkpt>
      <trkpt lat="45.88187" lon="4.89937">
        <ele>301</ele>
        <time>2016-09-08T09:31:51Z</time>
      </trkpt>
      <trkpt lat="45.88187" lon="4.89945">
        <ele>301</ele>
        <time>2016-09-08T09:31:52Z</time>
      </trkpt>
      <trkpt lat="45.88187" lon="4.89953">
        <ele>301</ele>
        <time>2016-09-08T09:31:53Z</time>
      </trkpt>
      <trkpt lat="45.88187" lon="4.89961">
        <ele>301</ele>
        <time>2016-09-08T09:31:54Z</time>
      </trkpt>
      <trkpt lat="45.88188" lon="4.89969">
        <ele>301</ele>
        <time>2016-09-08T09:31:55Z</time>
      </trkpt>
      <trkpt lat="45.88188" lon="4.89977">
        <ele>301</ele>
        <time>2016-09-08T09:31:56Z</time>
      </trkpt>
      <trkpt lat="45.88189" lon="4.89985">
        <ele>301</ele>
        <time>2016-09-08T09:31:57Z</time>
      </trkpt>
      <trkpt lat="45.88189" lon="4.89993">
        <ele>301</ele>
        <time>2016-09-08T09:31:58Z</time>
      </trkpt>
      <trkpt lat="45.88189" lon="4.90001">
        <ele>302</ele>
        <time>2016-09-08T09:31:59Z</time>
      </trkpt>
      <trkpt lat="45.88189" lon="4.90009">
        <ele>302</ele>
        <time>2016-09-08T09:32:00Z</time>
      </trkpt>
      <trkpt lat="45.88188" lon="4.90017">
        <ele>302</ele>
        <time>2016-09-08T09:32:01Z</time>
      </trkpt>
      <trkpt lat="45.88186" lon="4.90024">
        <ele>302</ele>
        <time>2016-09-08T09:32:02Z</time>
      </trkpt>
      <trkpt lat="45.88185" lon="4.90032">
        <ele>302</ele>
        <time>2016-09-08T09:32:03Z</time>
      </trkpt>
      <trkpt lat="45.88184" lon="4.9004">
        <ele>303</ele>
        <time>2016-09-08T09:32:04Z</time>
      </trkpt>
      <trkpt lat="45.88184" lon="4.90049">
        <ele>303</ele>
        <time>2016-09-08T09:32:05Z</time>
      </trkpt>
      <trkpt lat="45.88186" lon="4.90056">
        <ele>303</ele>
        <time>2016-09-08T09:32:06Z</time>
      </trkpt>
      <trkpt lat="45.88189" lon="4.90063">
        <ele>303</ele>
        <time>2016-09-08T09:32:07Z</time>
      </trkpt>
      <trkpt lat="45.88192" lon="4.9007">
        <ele>303</ele>
        <time>2016-09-08T09:32:08Z</time>
      </trkpt>
      <trkpt lat="45.88197" lon="4.90074">
        <ele>303</ele>
        <time>2016-09-08T09:32:09Z</time>
      </trkpt>
      <trkpt lat="45.88203" lon="4.90077">
        <ele>303</ele>
        <time>2016-09-08T09:32:10Z</time>
      </trkpt>
      <trkpt lat="45.88209" lon="4.90077">
        <ele>303</ele>
        <time>2016-09-08T09:32:11Z</time>
      </trkpt>
      <trkpt lat="45.88215" lon="4.90076">
        <ele>304</ele>
        <time>2016-09-08T09:32:12Z</time>
      </trkpt>
      <trkpt lat="45.88221" lon="4.90074">
        <ele>304</ele>
        <time>2016-09-08T09:32:13Z</time>
      </trkpt>
      <trkpt lat="45.88227" lon="4.9007">
        <ele>304</ele>
        <time>2016-09-08T09:32:14Z</time>
      </trkpt>
      <trkpt lat="45.88232" lon="4.90064">
        <ele>304</ele>
        <time>2016-09-08T09:32:15Z</time>
      </trkpt>
      <trkpt lat="45.88237" lon="4.90059">
        <ele>304</ele>
        <time>2016-09-08T09:32:16Z</time>
      </trkpt>
      <trkpt lat="45.88243" lon="4.90055">
        <ele>304</ele>
        <time>2016-09-08T09:32:17Z</time>
      </trkpt>
      <trkpt lat="45.88249" lon="4.90052">
        <ele>304</ele>
        <time>2016-09-08T09:32:18Z</time>
      </trkpt>
      <trkpt lat="45.88255" lon="4.90051">
        <ele>305</ele>
        <time>2016-09-08T09:32:19Z</time>
      </trkpt>
      <trkpt lat="45.88261" lon="4.9005">
        <ele>305</ele>
        <time>2016-09-08T09:32:20Z</time>
      </trkpt>
      <trkpt lat="45.88266" lon="4.9005">
        <ele>305</ele>
        <time>2016-09-08T09:32:21Z</time>
      </trkpt>
      <trkpt lat="45.88272" lon="4.90048">
        <ele>305</ele>
        <time>2016-09-08T09:32:22Z</time>
      </trkpt>
      <trkpt lat="45.88277" lon="4.90046">
        <ele>305</ele>
        <time>2016-09-08T09:32:23Z</time>
      </trkpt>
      <trkpt lat="45.88282" lon="4.90042">
        <ele>305</ele>
        <time>2016-09-08T09:32:24Z</time>
      </trkpt>
      <trkpt lat="45.88287" lon="4.90037">
        <ele>305</ele>
        <time>2016-09-08T09:32:25Z</time>
      </trkpt>
      <trkpt lat="45.88291" lon="4.90032">
        <ele>305</ele>
        <time>2016-09-08T09:32:26Z</time>
      </trkpt>
      <trkpt lat="45.88296" lon="4.90028">
        <ele>305</ele>
        <time>2016-09-08T09:32:27Z</time>
      </trkpt>
      <trkpt lat="45.883" lon="4.90024">
        <ele>305</ele>
        <time>2016-09-08T09:32:28Z</time>
      </trkpt>
      <trkpt lat="45.88305" lon="4.90021">
        <ele>305</ele>
        <time>2016-09-08T09:32:29Z</time>
      </trkpt>
      <trkpt lat="45.8831" lon="4.90019">
        <ele>305</ele>
        <time>2016-09-08T09:32:30Z</time>
      </trkpt>
      <trkpt lat="45.88316" lon="4.90016">
        <ele>305</ele>
        <time>2016-09-08T09:32:31Z</time>
      </trkpt>
      <trkpt lat="45.88321" lon="4.90013">
        <ele>305</ele>
        <time>2016-09-08T09:32:32Z</time>
      </trkpt>
      <trkpt lat="45.88326" lon="4.90011">
        <ele>305</ele>
        <time>2016-09-08T09:32:33Z</time>
      </trkpt>
      <trkpt lat="45.88331" lon="4.90008">
        <ele>305</ele>
        <time>2016-09-08T09:32:34Z</time>
      </trkpt>
      <trkpt lat="45.88337" lon="4.90006">
        <ele>305</ele>
        <time>2016-09-08T09:32:35Z</time>
      </trkpt>
      <trkpt lat="45.88342" lon="4.90003">
        <ele>305</ele>
        <time>2016-09-08T09:32:36Z</time>
      </trkpt>
      <trkpt lat="45.88347" lon="4.9">
        <ele>304</ele>
        <time>2016-09-08T09:32:37Z</time>
      </trkpt>
      <trkpt lat="45.88351" lon="4.89998">
        <ele>305</ele>
        <time>2016-09-08T09:32:38Z</time>
      </trkpt>
      <trkpt lat="45.88356" lon="4.89996">
        <ele>304</ele>
        <time>2016-09-08T09:32:39Z</time>
      </trkpt>
      <trkpt lat="45.88361" lon="4.89994">
        <ele>304</ele>
        <time>2016-09-08T09:32:40Z</time>
      </trkpt>
      <trkpt lat="45.88366" lon="4.89991">
        <ele>304</ele>
        <time>2016-09-08T09:32:41Z</time>
      </trkpt>
      <trkpt lat="45.88371" lon="4.89988">
        <ele>304</ele>
        <time>2016-09-08T09:32:42Z</time>
      </trkpt>
      <trkpt lat="45.88377" lon="4.89985">
        <ele>304</ele>
        <time>2016-09-08T09:32:43Z</time>
      </trkpt>
      <trkpt lat="45.88383" lon="4.89982">
        <ele>304</ele>
        <time>2016-09-08T09:32:44Z</time>
      </trkpt>
      <trkpt lat="45.88389" lon="4.8998">
        <ele>304</ele>
        <time>2016-09-08T09:32:45Z</time>
      </trkpt>
      <trkpt lat="45.88396" lon="4.89977">
        <ele>304</ele>
        <time>2016-09-08T09:32:46Z</time>
      </trkpt>
      <trkpt lat="45.88402" lon="4.89975">
        <ele>304</ele>
        <time>2016-09-08T09:32:47Z</time>
      </trkpt>
      <trkpt lat="45.88409" lon="4.89972">
        <ele>304</ele>
        <time>2016-09-08T09:32:48Z</time>
      </trkpt>
      <trkpt lat="45.88416" lon="4.89969">
        <ele>304</ele>
        <time>2016-09-08T09:32:49Z</time>
      </trkpt>
      <trkpt lat="45.88423" lon="4.89966">
        <ele>303</ele>
        <time>2016-09-08T09:32:50Z</time>
      </trkpt>
      <trkpt lat="45.8843" lon="4.89963">
        <ele>303</ele>
        <time>2016-09-08T09:32:51Z</time>
      </trkpt>
      <trkpt lat="45.88437" lon="4.8996">
        <ele>303</ele>
        <time>2016-09-08T09:32:52Z</time>
      </trkpt>
      <trkpt lat="45.88444" lon="4.89956">
        <ele>303</ele>
        <time>2016-09-08T09:32:53Z</time>
      </trkpt>
      <trkpt lat="45.88451" lon="4.89953">
        <ele>303</ele>
        <time>2016-09-08T09:32:54Z</time>
      </trkpt>
      <trkpt lat="45.88458" lon="4.8995">
        <ele>303</ele>
        <time>2016-09-08T09:32:55Z</time>
      </trkpt>
      <trkpt lat="45.88465" lon="4.89948">
        <ele>303</ele>
        <time>2016-09-08T09:32:56Z</time>
      </trkpt>
      <trkpt lat="45.88472" lon="4.89945">
        <ele>303</ele>
        <time>2016-09-08T09:32:57Z</time>
      </trkpt>
      <trkpt lat="45.88479" lon="4.89942">
        <ele>303</ele>
        <time>2016-09-08T09:32:58Z</time>
      </trkpt>
      <trkpt lat="45.88486" lon="4.89939">
        <ele>303</ele>
        <time>2016-09-08T09:32:59Z</time>
      </trkpt>
      <trkpt lat="45.88494" lon="4.89936">
        <ele>303</ele>
        <time>2016-09-08T09:33:00Z</time>
      </trkpt>
      <trkpt lat="45.88501" lon="4.89933">
        <ele>301</ele>
        <time>2016-09-08T09:33:01Z</time>
      </trkpt>
      <trkpt lat="45.8851" lon="4.89931">
        <ele>301</ele>
        <time>2016-09-08T09:33:02Z</time>
      </trkpt>
      <trkpt lat="45.88519" lon="4.8993">
        <ele>301</ele>
        <time>2016-09-08T09:33:03Z</time>
      </trkpt>
      <trkpt lat="45.88528" lon="4.89928">
        <ele>300</ele>
        <time>2016-09-08T09:33:04Z</time>
      </trkpt>
      <trkpt lat="45.88538" lon="4.89926">
        <ele>300</ele>
        <time>2016-09-08T09:33:05Z</time>
      </trkpt>
      <trkpt lat="45.88547" lon="4.89924">
        <ele>299</ele>
        <time>2016-09-08T09:33:06Z</time>
      </trkpt>
      <trkpt lat="45.88557" lon="4.89921">
        <ele>299</ele>
        <time>2016-09-08T09:33:07Z</time>
      </trkpt>
      <trkpt lat="45.88568" lon="4.89918">
        <ele>298</ele>
        <time>2016-09-08T09:33:08Z</time>
      </trkpt>
      <trkpt lat="45.88578" lon="4.89916">
        <ele>297</ele>
        <time>2016-09-08T09:33:09Z</time>
      </trkpt>
      <trkpt lat="45.88588" lon="4.89914">
        <ele>297</ele>
        <time>2016-09-08T09:33:10Z</time>
      </trkpt>
      <trkpt lat="45.88598" lon="4.89913">
        <ele>296</ele>
        <time>2016-09-08T09:33:11Z</time>
      </trkpt>
      <trkpt lat="45.88607" lon="4.89913">
        <ele>296</ele>
        <time>2016-09-08T09:33:12Z</time>
      </trkpt>
      <trkpt lat="45.88615" lon="4.89913">
        <ele>296</ele>
        <time>2016-09-08T09:33:13Z</time>
      </trkpt>
      <trkpt lat="45.88619" lon="4.89917">
        <ele>296</ele>
        <time>2016-09-08T09:33:14Z</time>
      </trkpt>
      <trkpt lat="45.88624" lon="4.89921">
        <ele>295</ele>
        <time>2016-09-08T09:33:15Z</time>
      </trkpt>
      <trkpt lat="45.88626" lon="4.89927">
        <ele>295</ele>
        <time>2016-09-08T09:33:16Z</time>
      </trkpt>
      <trkpt lat="45.88628" lon="4.89934">
        <ele>295</ele>
        <time>2016-09-08T09:33:17Z</time>
      </trkpt>
      <trkpt lat="45.88628" lon="4.89941">
        <ele>295</ele>
        <time>2016-09-08T09:33:18Z</time>
      </trkpt>
      <trkpt lat="45.88629" lon="4.89948">
        <ele>295</ele>
        <time>2016-09-08T09:33:19Z</time>
      </trkpt>
      <trkpt lat="45.8863" lon="4.89957">
        <ele>295</ele>
        <time>2016-09-08T09:33:20Z</time>
      </trkpt>
      <trkpt lat="45.88632" lon="4.89965">
        <ele>295</ele>
        <time>2016-09-08T09:33:21Z</time>
      </trkpt>
      <trkpt lat="45.88633" lon="4.89973">
        <ele>295</ele>
        <time>2016-09-08T09:33:22Z</time>
      </trkpt>
      <trkpt lat="45.88634" lon="4.89981">
        <ele>295</ele>
        <time>2016-09-08T09:33:23Z</time>
      </trkpt>
      <trkpt lat="45.88636" lon="4.8999">
        <ele>295</ele>
        <time>2016-09-08T09:33:24Z</time>
      </trkpt>
      <trkpt lat="45.88637" lon="4.89998">
        <ele>295</ele>
        <time>2016-09-08T09:33:25Z</time>
      </trkpt>
      <trkpt lat="45.88638" lon="4.90006">
        <ele>295</ele>
        <time>2016-09-08T09:33:26Z</time>
      </trkpt>
      <trkpt lat="45.88639" lon="4.90015">
        <ele>295</ele>
        <time>2016-09-08T09:33:27Z</time>
      </trkpt>
      <trkpt lat="45.8864" lon="4.90023">
        <ele>295</ele>
        <time>2016-09-08T09:33:28Z</time>
      </trkpt>
      <trkpt lat="45.88642" lon="4.90031">
        <ele>295</ele>
        <time>2016-09-08T09:33:29Z</time>
      </trkpt>
      <trkpt lat="45.88644" lon="4.90039">
        <ele>295</ele>
        <time>2016-09-08T09:33:30Z</time>
      </trkpt>
      <trkpt lat="45.88646" lon="4.90047">
        <ele>295</ele>
        <time>2016-09-08T09:33:31Z</time>
      </trkpt>
      <trkpt lat="45.88647" lon="4.90056">
        <ele>295</ele>
        <time>2016-09-08T09:33:32Z</time>
      </trkpt>
      <trkpt lat="45.88648" lon="4.90064">
        <ele>295</ele>
        <time>2016-09-08T09:33:33Z</time>
      </trkpt>
      <trkpt lat="45.8865" lon="4.90073">
        <ele>295</ele>
        <time>2016-09-08T09:33:34Z</time>
      </trkpt>
      <trkpt lat="45.88651" lon="4.90083">
        <ele>294</ele>
        <time>2016-09-08T09:33:35Z</time>
      </trkpt>
      <trkpt lat="45.88652" lon="4.90092">
        <ele>294</ele>
        <time>2016-09-08T09:33:36Z</time>
      </trkpt>
      <trkpt lat="45.88654" lon="4.90101">
        <ele>294</ele>
        <time>2016-09-08T09:33:37Z</time>
      </trkpt>
      <trkpt lat="45.88656" lon="4.9011">
        <ele>294</ele>
        <time>2016-09-08T09:33:38Z</time>
      </trkpt>
      <trkpt lat="45.88657" lon="4.90119">
        <ele>295</ele>
        <time>2016-09-08T09:33:39Z</time>
      </trkpt>
      <trkpt lat="45.88658" lon="4.90128">
        <ele>294</ele>
        <time>2016-09-08T09:33:40Z</time>
      </trkpt>
      <trkpt lat="45.88659" lon="4.90137">
        <ele>294</ele>
        <time>2016-09-08T09:33:41Z</time>
      </trkpt>
      <trkpt lat="45.8866" lon="4.90146">
        <ele>294</ele>
        <time>2016-09-08T09:33:42Z</time>
      </trkpt>
      <trkpt lat="45.8866" lon="4.90155">
        <ele>294</ele>
        <time>2016-09-08T09:33:43Z</time>
      </trkpt>
      <trkpt lat="45.88661" lon="4.90163">
        <ele>294</ele>
        <time>2016-09-08T09:33:44Z</time>
      </trkpt>
      <trkpt lat="45.88661" lon="4.90172">
        <ele>294</ele>
        <time>2016-09-08T09:33:45Z</time>
      </trkpt>
      <trkpt lat="45.88662" lon="4.9018">
        <ele>294</ele>
        <time>2016-09-08T09:33:46Z</time>
      </trkpt>
      <trkpt lat="45.88662" lon="4.90189">
        <ele>294</ele>
        <time>2016-09-08T09:33:47Z</time>
      </trkpt>
      <trkpt lat="45.88663" lon="4.90198">
        <ele>294</ele>
        <time>2016-09-08T09:33:48Z</time>
      </trkpt>
      <trkpt lat="45.88663" lon="4.90207">
        <ele>294</ele>
        <time>2016-09-08T09:33:49Z</time>
      </trkpt>
      <trkpt lat="45.88663" lon="4.90216">
        <ele>294</ele>
        <time>2016-09-08T09:33:50Z</time>
      </trkpt>
      <trkpt lat="45.88663" lon="4.90225">
        <ele>294</ele>
        <time>2016-09-08T09:33:51Z</time>
      </trkpt>
      <trkpt lat="45.88662" lon="4.90235">
        <ele>293</ele>
        <time>2016-09-08T09:33:52Z</time>
      </trkpt>
      <trkpt lat="45.88662" lon="4.90244">
        <ele>293</ele>
        <time>2016-09-08T09:33:53Z</time>
      </trkpt>
      <trkpt lat="45.88662" lon="4.90253">
        <ele>293</ele>
        <time>2016-09-08T09:33:54Z</time>
      </trkpt>
      <trkpt lat="45.88662" lon="4.90262">
        <ele>293</ele>
        <time>2016-09-08T09:33:55Z</time>
      </trkpt>
      <trkpt lat="45.88662" lon="4.90271">
        <ele>293</ele>
        <time>2016-09-08T09:33:56Z</time>
      </trkpt>
      <trkpt lat="45.88662" lon="4.9028">
        <ele>293</ele>
        <time>2016-09-08T09:33:57Z</time>
      </trkpt>
      <trkpt lat="45.88662" lon="4.90289">
        <ele>293</ele>
        <time>2016-09-08T09:33:58Z</time>
      </trkpt>
      <trkpt lat="45.88661" lon="4.90297">
        <ele>293</ele>
        <time>2016-09-08T09:33:59Z</time>
      </trkpt>
      <trkpt lat="45.88661" lon="4.90306">
        <ele>293</ele>
        <time>2016-09-08T09:34:00Z</time>
      </trkpt>
      <trkpt lat="45.8866" lon="4.90315">
        <ele>293</ele>
        <time>2016-09-08T09:34:01Z</time>
      </trkpt>
      <trkpt lat="45.8866" lon="4.90323">
        <ele>293</ele>
        <time>2016-09-08T09:34:02Z</time>
      </trkpt>
      <trkpt lat="45.8866" lon="4.90331">
        <ele>293</ele>
        <time>2016-09-08T09:34:03Z</time>
      </trkpt>
      <trkpt lat="45.8866" lon="4.9034">
        <ele>293</ele>
        <time>2016-09-08T09:34:04Z</time>
      </trkpt>
      <trkpt lat="45.8866" lon="4.90349">
        <ele>293</ele>
        <time>2016-09-08T09:34:05Z</time>
      </trkpt>
      <trkpt lat="45.8866" lon="4.90357">
        <ele>293</ele>
        <time>2016-09-08T09:34:06Z</time>
      </trkpt>
      <trkpt lat="45.8866" lon="4.90366">
        <ele>293</ele>
        <time>2016-09-08T09:34:07Z</time>
      </trkpt>
      <trkpt lat="45.8866" lon="4.90374">
        <ele>293</ele>
        <time>2016-09-08T09:34:08Z</time>
      </trkpt>
      <trkpt lat="45.8866" lon="4.90383">
        <ele>293</ele>
        <time>2016-09-08T09:34:09Z</time>
      </trkpt>
      <trkpt lat="45.8866" lon="4.90393">
        <ele>293</ele>
        <time>2016-09-08T09:34:10Z</time>
      </trkpt>
      <trkpt lat="45.8866" lon="4.90402">
        <ele>293</ele>
        <time>2016-09-08T09:34:11Z</time>
      </trkpt>
      <trkpt lat="45.8866" lon="4.90412">
        <ele>293</ele>
        <time>2016-09-08T09:34:12Z</time>
      </trkpt>
      <trkpt lat="45.8866" lon="4.90421">
        <ele>293</ele>
        <time>2016-09-08T09:34:13Z</time>
      </trkpt>
      <trkpt lat="45.88661" lon="4.90431">
        <ele>293</ele>
        <time>2016-09-08T09:34:14Z</time>
      </trkpt>
      <trkpt lat="45.88662" lon="4.90441">
        <ele>293</ele>
        <time>2016-09-08T09:34:15Z</time>
      </trkpt>
      <trkpt lat="45.88663" lon="4.9045">
        <ele>293</ele>
        <time>2016-09-08T09:34:16Z</time>
      </trkpt>
      <trkpt lat="45.88665" lon="4.90459">
        <ele>293</ele>
        <time>2016-09-08T09:34:17Z</time>
      </trkpt>
      <trkpt lat="45.88666" lon="4.90468">
        <ele>293</ele>
        <time>2016-09-08T09:34:18Z</time>
      </trkpt>
      <trkpt lat="45.88668" lon="4.90477">
        <ele>293</ele>
        <time>2016-09-08T09:34:19Z</time>
      </trkpt>
      <trkpt lat="45.88669" lon="4.90486">
        <ele>293</ele>
        <time>2016-09-08T09:34:20Z</time>
      </trkpt>
      <trkpt lat="45.8867" lon="4.90495">
        <ele>293</ele>
        <time>2016-09-08T09:34:21Z</time>
      </trkpt>
      <trkpt lat="45.88672" lon="4.90504">
        <ele>293</ele>
        <time>2016-09-08T09:34:22Z</time>
      </trkpt>
      <trkpt lat="45.88673" lon="4.90513">
        <ele>293</ele>
        <time>2016-09-08T09:34:23Z</time>
      </trkpt>
      <trkpt lat="45.88675" lon="4.90522">
        <ele>293</ele>
        <time>2016-09-08T09:34:24Z</time>
      </trkpt>
      <trkpt lat="45.88677" lon="4.9053">
        <ele>293</ele>
        <time>2016-09-08T09:34:25Z</time>
      </trkpt>
      <trkpt lat="45.88679" lon="4.90539">
        <ele>293</ele>
        <time>2016-09-08T09:34:26Z</time>
      </trkpt>
      <trkpt lat="45.8868" lon="4.90547">
        <ele>293</ele>
        <time>2016-09-08T09:34:27Z</time>
      </trkpt>
      <trkpt lat="45.88681" lon="4.90556">
        <ele>293</ele>
        <time>2016-09-08T09:34:28Z</time>
      </trkpt>
      <trkpt lat="45.88684" lon="4.90564">
        <ele>293</ele>
        <time>2016-09-08T09:34:29Z</time>
      </trkpt>
      <trkpt lat="45.88686" lon="4.90572">
        <ele>293</ele>
        <time>2016-09-08T09:34:30Z</time>
      </trkpt>
      <trkpt lat="45.88687" lon="4.90581">
        <ele>293</ele>
        <time>2016-09-08T09:34:31Z</time>
      </trkpt>
      <trkpt lat="45.88689" lon="4.9059">
        <ele>292</ele>
        <time>2016-09-08T09:34:32Z</time>
      </trkpt>
      <trkpt lat="45.8869" lon="4.90599">
        <ele>292</ele>
        <time>2016-09-08T09:34:33Z</time>
      </trkpt>
      <trkpt lat="45.88691" lon="4.90608">
        <ele>292</ele>
        <time>2016-09-08T09:34:34Z</time>
      </trkpt>
      <trkpt lat="45.88693" lon="4.90617">
        <ele>292</ele>
        <time>2016-09-08T09:34:35Z</time>
      </trkpt>
      <trkpt lat="45.88694" lon="4.90627">
        <ele>291</ele>
        <time>2016-09-08T09:34:36Z</time>
      </trkpt>
      <trkpt lat="45.88696" lon="4.90636">
        <ele>291</ele>
        <time>2016-09-08T09:34:37Z</time>
      </trkpt>
      <trkpt lat="45.88698" lon="4.90645">
        <ele>291</ele>
        <time>2016-09-08T09:34:38Z</time>
      </trkpt>
      <trkpt lat="45.887" lon="4.90654">
        <ele>291</ele>
        <time>2016-09-08T09:34:39Z</time>
      </trkpt>
      <trkpt lat="45.88701" lon="4.90664">
        <ele>291</ele>
        <time>2016-09-08T09:34:40Z</time>
      </trkpt>
      <trkpt lat="45.88702" lon="4.90673">
        <ele>290</ele>
        <time>2016-09-08T09:34:41Z</time>
      </trkpt>
      <trkpt lat="45.88704" lon="4.90682">
        <ele>290</ele>
        <time>2016-09-08T09:34:42Z</time>
      </trkpt>
      <trkpt lat="45.88705" lon="4.90691">
        <ele>290</ele>
        <time>2016-09-08T09:34:43Z</time>
      </trkpt>
      <trkpt lat="45.88706" lon="4.907">
        <ele>290</ele>
        <time>2016-09-08T09:34:44Z</time>
      </trkpt>
      <trkpt lat="45.88708" lon="4.90708">
        <ele>290</ele>
        <time>2016-09-08T09:34:45Z</time>
      </trkpt>
      <trkpt lat="45.8871" lon="4.90717">
        <ele>290</ele>
        <time>2016-09-08T09:34:46Z</time>
      </trkpt>
      <trkpt lat="45.88712" lon="4.90726">
        <ele>290</ele>
        <time>2016-09-08T09:34:47Z</time>
      </trkpt>
      <trkpt lat="45.88714" lon="4.90734">
        <ele>290</ele>
        <time>2016-09-08T09:34:48Z</time>
      </trkpt>
      <trkpt lat="45.88715" lon="4.90742">
        <ele>290</ele>
        <time>2016-09-08T09:34:49Z</time>
      </trkpt>
      <trkpt lat="45.88717" lon="4.90751">
        <ele>289</ele>
        <time>2016-09-08T09:34:50Z</time>
      </trkpt>
      <trkpt lat="45.88718" lon="4.90759">
        <ele>289</ele>
        <time>2016-09-08T09:34:51Z</time>
      </trkpt>
      <trkpt lat="45.88719" lon="4.90768">
        <ele>289</ele>
        <time>2016-09-08T09:34:52Z</time>
      </trkpt>
      <trkpt lat="45.88721" lon="4.90777">
        <ele>289</ele>
        <time>2016-09-08T09:34:53Z</time>
      </trkpt>
      <trkpt lat="45.88723" lon="4.90785">
        <ele>289</ele>
        <time>2016-09-08T09:34:54Z</time>
      </trkpt>
      <trkpt lat="45.88725" lon="4.90794">
        <ele>289</ele>
        <time>2016-09-08T09:34:55Z</time>
      </trkpt>
      <trkpt lat="45.88727" lon="4.90802">
        <ele>289</ele>
        <time>2016-09-08T09:34:56Z</time>
      </trkpt>
      <trkpt lat="45.88729" lon="4.90811">
        <ele>289</ele>
        <time>2016-09-08T09:34:57Z</time>
      </trkpt>
      <trkpt lat="45.88731" lon="4.9082">
        <ele>289</ele>
        <time>2016-09-08T09:34:58Z</time>
      </trkpt>
      <trkpt lat="45.88733" lon="4.90829">
        <ele>289</ele>
        <time>2016-09-08T09:34:59Z</time>
      </trkpt>
      <trkpt lat="45.88735" lon="4.90838">
        <ele>288</ele>
        <time>2016-09-08T09:35:00Z</time>
      </trkpt>
      <trkpt lat="45.88737" lon="4.90847">
        <ele>288</ele>
        <time>2016-09-08T09:35:01Z</time>
      </trkpt>
      <trkpt lat="45.88739" lon="4.90856">
        <ele>288</ele>
        <time>2016-09-08T09:35:02Z</time>
      </trkpt>
      <trkpt lat="45.88741" lon="4.90865">
        <ele>288</ele>
        <time>2016-09-08T09:35:03Z</time>
      </trkpt>
      <trkpt lat="45.88743" lon="4.90874">
        <ele>288</ele>
        <time>2016-09-08T09:35:04Z</time>
      </trkpt>
      <trkpt lat="45.88744" lon="4.90882">
        <ele>288</ele>
        <time>2016-09-08T09:35:05Z</time>
      </trkpt>
      <trkpt lat="45.88746" lon="4.90891">
        <ele>288</ele>
        <time>2016-09-08T09:35:06Z</time>
      </trkpt>
      <trkpt lat="45.88748" lon="4.909">
        <ele>288</ele>
        <time>2016-09-08T09:35:07Z</time>
      </trkpt>
      <trkpt lat="45.88751" lon="4.9091">
        <ele>288</ele>
        <time>2016-09-08T09:35:08Z</time>
      </trkpt>
      <trkpt lat="45.88752" lon="4.90919">
        <ele>288</ele>
        <time>2016-09-08T09:35:09Z</time>
      </trkpt>
      <trkpt lat="45.88754" lon="4.90929">
        <ele>288</ele>
        <time>2016-09-08T09:35:10Z</time>
      </trkpt>
      <trkpt lat="45.88757" lon="4.90938">
        <ele>288</ele>
        <time>2016-09-08T09:35:11Z</time>
      </trkpt>
      <trkpt lat="45.88759" lon="4.90948">
        <ele>288</ele>
        <time>2016-09-08T09:35:12Z</time>
      </trkpt>
      <trkpt lat="45.88761" lon="4.90957">
        <ele>288</ele>
        <time>2016-09-08T09:35:13Z</time>
      </trkpt>
      <trkpt lat="45.88763" lon="4.90966">
        <ele>288</ele>
        <time>2016-09-08T09:35:14Z</time>
      </trkpt>
      <trkpt lat="45.88764" lon="4.90975">
        <ele>288</ele>
        <time>2016-09-08T09:35:15Z</time>
      </trkpt>
      <trkpt lat="45.88766" lon="4.90984">
        <ele>287</ele>
        <time>2016-09-08T09:35:16Z</time>
      </trkpt>
      <trkpt lat="45.88768" lon="4.90992">
        <ele>287</ele>
        <time>2016-09-08T09:35:17Z</time>
      </trkpt>
      <trkpt lat="45.8877" lon="4.91001">
        <ele>287</ele>
        <time>2016-09-08T09:35:18Z</time>
      </trkpt>
      <trkpt lat="45.88772" lon="4.91009">
        <ele>287</ele>
        <time>2016-09-08T09:35:19Z</time>
      </trkpt>
      <trkpt lat="45.88773" lon="4.91017">
        <ele>288</ele>
        <time>2016-09-08T09:35:20Z</time>
      </trkpt>
      <trkpt lat="45.88776" lon="4.91026">
        <ele>288</ele>
        <time>2016-09-08T09:35:21Z</time>
      </trkpt>
      <trkpt lat="45.88778" lon="4.91033">
        <ele>288</ele>
        <time>2016-09-08T09:35:22Z</time>
      </trkpt>
      <trkpt lat="45.88781" lon="4.91041">
        <ele>288</ele>
        <time>2016-09-08T09:35:23Z</time>
      </trkpt>
      <trkpt lat="45.88784" lon="4.91049">
        <ele>288</ele>
        <time>2016-09-08T09:35:24Z</time>
      </trkpt>
      <trkpt lat="45.88788" lon="4.91056">
        <ele>288</ele>
        <time>2016-09-08T09:35:25Z</time>
      </trkpt>
      <trkpt lat="45.88792" lon="4.91064">
        <ele>288</ele>
        <time>2016-09-08T09:35:26Z</time>
      </trkpt>
      <trkpt lat="45.88796" lon="4.91072">
        <ele>288</ele>
        <time>2016-09-08T09:35:27Z</time>
      </trkpt>
      <trkpt lat="45.88801" lon="4.9108">
        <ele>288</ele>
        <time>2016-09-08T09:35:28Z</time>
      </trkpt>
      <trkpt lat="45.88803" lon="4.91089">
        <ele>288</ele>
        <time>2016-09-08T09:35:29Z</time>
      </trkpt>
      <trkpt lat="45.88804" lon="4.91099">
        <ele>288</ele>
        <time>2016-09-08T09:35:30Z</time>
      </trkpt>
      <trkpt lat="45.88803" lon="4.91108">
        <ele>288</ele>
        <time>2016-09-08T09:35:31Z</time>
      </trkpt>
      <trkpt lat="45.888" lon="4.91117">
        <ele>288</ele>
        <time>2016-09-08T09:35:32Z</time>
      </trkpt>
      <trkpt lat="45.88797" lon="4.91125">
        <ele>288</ele>
        <time>2016-09-08T09:35:33Z</time>
      </trkpt>
      <trkpt lat="45.88793" lon="4.91133">
        <ele>288</ele>
        <time>2016-09-08T09:35:34Z</time>
      </trkpt>
      <trkpt lat="45.88791" lon="4.91141">
        <ele>288</ele>
        <time>2016-09-08T09:35:35Z</time>
      </trkpt>
      <trkpt lat="45.88789" lon="4.9115">
        <ele>288</ele>
        <time>2016-09-08T09:35:36Z</time>
      </trkpt>
      <trkpt lat="45.88788" lon="4.91158">
        <ele>288</ele>
        <time>2016-09-08T09:35:37Z</time>
      </trkpt>
      <trkpt lat="45.88787" lon="4.91166">
        <ele>288</ele>
        <time>2016-09-08T09:35:38Z</time>
      </trkpt>
      <trkpt lat="45.88787" lon="4.91174">
        <ele>288</ele>
        <time>2016-09-08T09:35:39Z</time>
      </trkpt>
      <trkpt lat="45.88788" lon="4.91182">
        <ele>288</ele>
        <time>2016-09-08T09:35:40Z</time>
      </trkpt>
      <trkpt lat="45.88788" lon="4.9119">
        <ele>288</ele>
        <time>2016-09-08T09:35:41Z</time>
      </trkpt>
      <trkpt lat="45.88788" lon="4.91198">
        <ele>288</ele>
        <time>2016-09-08T09:35:42Z</time>
      </trkpt>
      <trkpt lat="45.88788" lon="4.91207">
        <ele>288</ele>
        <time>2016-09-08T09:35:43Z</time>
      </trkpt>
      <trkpt lat="45.88788" lon="4.91215">
        <ele>288</ele>
        <time>2016-09-08T09:35:44Z</time>
      </trkpt>
      <trkpt lat="45.88788" lon="4.91224">
        <ele>288</ele>
        <time>2016-09-08T09:35:45Z</time>
      </trkpt>
      <trkpt lat="45.88788" lon="4.91233">
        <ele>288</ele>
        <time>2016-09-08T09:35:46Z</time>
      </trkpt>
      <trkpt lat="45.88789" lon="4.91242">
        <ele>288</ele>
        <time>2016-09-08T09:35:47Z</time>
      </trkpt>
      <trkpt lat="45.88789" lon="4.91251">
        <ele>288</ele>
        <time>2016-09-08T09:35:48Z</time>
      </trkpt>
      <trkpt lat="45.88789" lon="4.91259">
        <ele>288</ele>
        <time>2016-09-08T09:35:49Z</time>
      </trkpt>
      <trkpt lat="45.88789" lon="4.91268">
        <ele>288</ele>
        <time>2016-09-08T09:35:50Z</time>
      </trkpt>
      <trkpt lat="45.88789" lon="4.91276">
        <ele>288</ele>
        <time>2016-09-08T09:35:51Z</time>
      </trkpt>
      <trkpt lat="45.88789" lon="4.91285">
        <ele>288</ele>
        <time>2016-09-08T09:35:52Z</time>
      </trkpt>
      <trkpt lat="45.8879" lon="4.91293">
        <ele>288</ele>
        <time>2016-09-08T09:35:53Z</time>
      </trkpt>
      <trkpt lat="45.8879" lon="4.91302">
        <ele>288</ele>
        <time>2016-09-08T09:35:54Z</time>
      </trkpt>
      <trkpt lat="45.8879" lon="4.91312">
        <ele>288</ele>
        <time>2016-09-08T09:35:55Z</time>
      </trkpt>
      <trkpt lat="45.8879" lon="4.91321">
        <ele>288</ele>
        <time>2016-09-08T09:35:56Z</time>
      </trkpt>
      <trkpt lat="45.8879" lon="4.91329">
        <ele>288</ele>
        <time>2016-09-08T09:35:57Z</time>
      </trkpt>
      <trkpt lat="45.88791" lon="4.91338">
        <ele>288</ele>
        <time>2016-09-08T09:35:58Z</time>
      </trkpt>
      <trkpt lat="45.88792" lon="4.91346">
        <ele>288</ele>
        <time>2016-09-08T09:35:59Z</time>
      </trkpt>
      <trkpt lat="45.88793" lon="4.91354">
        <ele>288</ele>
        <time>2016-09-08T09:36:00Z</time>
      </trkpt>
      <trkpt lat="45.88794" lon="4.91362">
        <ele>288</ele>
        <time>2016-09-08T09:36:01Z</time>
      </trkpt>
      <trkpt lat="45.88795" lon="4.91369">
        <ele>288</ele>
        <time>2016-09-08T09:36:02Z</time>
      </trkpt>
      <trkpt lat="45.88797" lon="4.91377">
        <ele>288</ele>
        <time>2016-09-08T09:36:03Z</time>
      </trkpt>
      <trkpt lat="45.88798" lon="4.91385">
        <ele>288</ele>
        <time>2016-09-08T09:36:04Z</time>
      </trkpt>
      <trkpt lat="45.88799" lon="4.91393">
        <ele>288</ele>
        <time>2016-09-08T09:36:05Z</time>
      </trkpt>
      <trkpt lat="45.88801" lon="4.91401">
        <ele>288</ele>
        <time>2016-09-08T09:36:06Z</time>
      </trkpt>
      <trkpt lat="45.88802" lon="4.9141">
        <ele>289</ele>
        <time>2016-09-08T09:36:07Z</time>
      </trkpt>
      <trkpt lat="45.88803" lon="4.91418">
        <ele>288</ele>
        <time>2016-09-08T09:36:08Z</time>
      </trkpt>
      <trkpt lat="45.88805" lon="4.91427">
        <ele>288</ele>
        <time>2016-09-08T09:36:09Z</time>
      </trkpt>
      <trkpt lat="45.88806" lon="4.91436">
        <ele>288</ele>
        <time>2016-09-08T09:36:10Z</time>
      </trkpt>
      <trkpt lat="45.88808" lon="4.91445">
        <ele>288</ele>
        <time>2016-09-08T09:36:11Z</time>
      </trkpt>
      <trkpt lat="45.8881" lon="4.91454">
        <ele>288</ele>
        <time>2016-09-08T09:36:12Z</time>
      </trkpt>
      <trkpt lat="45.88811" lon="4.91462">
        <ele>288</ele>
        <time>2016-09-08T09:36:13Z</time>
      </trkpt>
      <trkpt lat="45.88813" lon="4.91471">
        <ele>288</ele>
        <time>2016-09-08T09:36:14Z</time>
      </trkpt>
      <trkpt lat="45.88815" lon="4.9148">
        <ele>288</ele>
        <time>2016-09-08T09:36:15Z</time>
      </trkpt>
      <trkpt lat="45.88817" lon="4.91489">
        <ele>288</ele>
        <time>2016-09-08T09:36:16Z</time>
      </trkpt>
      <trkpt lat="45.88818" lon="4.91497">
        <ele>288</ele>
        <time>2016-09-08T09:36:17Z</time>
      </trkpt>
      <trkpt lat="45.8882" lon="4.91505">
        <ele>288</ele>
        <time>2016-09-08T09:36:18Z</time>
      </trkpt>
      <trkpt lat="45.88821" lon="4.91512">
        <ele>288</ele>
        <time>2016-09-08T09:36:19Z</time>
      </trkpt>
      <trkpt lat="45.88822" lon="4.9152">
        <ele>288</ele>
        <time>2016-09-08T09:36:20Z</time>
      </trkpt>
      <trkpt lat="45.88823" lon="4.91527">
        <ele>288</ele>
        <time>2016-09-08T09:36:21Z</time>
      </trkpt>
      <trkpt lat="45.88825" lon="4.91535">
        <ele>288</ele>
        <time>2016-09-08T09:36:22Z</time>
      </trkpt>
      <trkpt lat="45.88827" lon="4.91542">
        <ele>288</ele>
        <time>2016-09-08T09:36:23Z</time>
      </trkpt>
      <trkpt lat="45.88829" lon="4.91549">
        <ele>288</ele>
        <time>2016-09-08T09:36:24Z</time>
      </trkpt>
      <trkpt lat="45.8883" lon="4.91555">
        <ele>288</ele>
        <time>2016-09-08T09:36:25Z</time>
      </trkpt>
      <trkpt lat="45.8883" lon="4.91562">
        <ele>288</ele>
        <time>2016-09-08T09:36:26Z</time>
      </trkpt>
      <trkpt lat="45.88831" lon="4.91568">
        <ele>288</ele>
        <time>2016-09-08T09:36:27Z</time>
      </trkpt>
      <trkpt lat="45.88833" lon="4.91575">
        <ele>289</ele>
        <time>2016-09-08T09:36:28Z</time>
      </trkpt>
      <trkpt lat="45.88835" lon="4.91581">
        <ele>289</ele>
        <time>2016-09-08T09:36:29Z</time>
      </trkpt>
      <trkpt lat="45.88838" lon="4.91588">
        <ele>289</ele>
        <time>2016-09-08T09:36:30Z</time>
      </trkpt>
      <trkpt lat="45.8884" lon="4.91596">
        <ele>289</ele>
        <time>2016-09-08T09:36:31Z</time>
      </trkpt>
      <trkpt lat="45.88842" lon="4.91604">
        <ele>289</ele>
        <time>2016-09-08T09:36:32Z</time>
      </trkpt>
      <trkpt lat="45.88844" lon="4.91612">
        <ele>289</ele>
        <time>2016-09-08T09:36:33Z</time>
      </trkpt>
      <trkpt lat="45.88846" lon="4.91621">
        <ele>289</ele>
        <time>2016-09-08T09:36:34Z</time>
      </trkpt>
      <trkpt lat="45.88848" lon="4.91629">
        <ele>289</ele>
        <time>2016-09-08T09:36:35Z</time>
      </trkpt>
      <trkpt lat="45.88851" lon="4.91637">
        <ele>289</ele>
        <time>2016-09-08T09:36:36Z</time>
      </trkpt>
      <trkpt lat="45.88853" lon="4.91644">
        <ele>289</ele>
        <time>2016-09-08T09:36:37Z</time>
      </trkpt>
      <trkpt lat="45.88855" lon="4.91652">
        <ele>289</ele>
        <time>2016-09-08T09:36:38Z</time>
      </trkpt>
      <trkpt lat="45.88858" lon="4.9166">
        <ele>289</ele>
        <time>2016-09-08T09:36:39Z</time>
      </trkpt>
      <trkpt lat="45.8886" lon="4.91668">
        <ele>289</ele>
        <time>2016-09-08T09:36:40Z</time>
      </trkpt>
      <trkpt lat="45.88862" lon="4.91676">
        <ele>289</ele>
        <time>2016-09-08T09:36:41Z</time>
      </trkpt>
      <trkpt lat="45.88864" lon="4.91685">
        <ele>289</ele>
        <time>2016-09-08T09:36:42Z</time>
      </trkpt>
      <trkpt lat="45.88866" lon="4.91693">
        <ele>289</ele>
        <time>2016-09-08T09:36:43Z</time>
      </trkpt>
      <trkpt lat="45.88868" lon="4.91701">
        <ele>289</ele>
        <time>2016-09-08T09:36:44Z</time>
      </trkpt>
      <trkpt lat="45.8887" lon="4.9171">
        <ele>288</ele>
        <time>2016-09-08T09:36:45Z</time>
      </trkpt>
      <trkpt lat="45.88872" lon="4.91718">
        <ele>288</ele>
        <time>2016-09-08T09:36:46Z</time>
      </trkpt>
      <trkpt lat="45.88874" lon="4.91727">
        <ele>288</ele>
        <time>2016-09-08T09:36:47Z</time>
      </trkpt>
      <trkpt lat="45.88875" lon="4.91735">
        <ele>288</ele>
        <time>2016-09-08T09:36:48Z</time>
      </trkpt>
      <trkpt lat="45.88877" lon="4.91744">
        <ele>288</ele>
        <time>2016-09-08T09:36:49Z</time>
      </trkpt>
      <trkpt lat="45.88878" lon="4.91752">
        <ele>288</ele>
        <time>2016-09-08T09:36:50Z</time>
      </trkpt>
      <trkpt lat="45.88879" lon="4.91761">
        <ele>288</ele>
        <time>2016-09-08T09:36:51Z</time>
      </trkpt>
      <trkpt lat="45.88881" lon="4.9177">
        <ele>288</ele>
        <time>2016-09-08T09:36:52Z</time>
      </trkpt>
      <trkpt lat="45.88883" lon="4.91779">
        <ele>288</ele>
        <time>2016-09-08T09:36:53Z</time>
      </trkpt>
      <trkpt lat="45.88885" lon="4.91787">
        <ele>288</ele>
        <time>2016-09-08T09:36:54Z</time>
      </trkpt>
      <trkpt lat="45.88887" lon="4.91796">
        <ele>288</ele>
        <time>2016-09-08T09:36:55Z</time>
      </trkpt>
      <trkpt lat="45.88887" lon="4.91805">
        <ele>288</ele>
        <time>2016-09-08T09:36:56Z</time>
      </trkpt>
      <trkpt lat="45.88889" lon="4.91814">
        <ele>288</ele>
        <time>2016-09-08T09:36:57Z</time>
      </trkpt>
      <trkpt lat="45.8889" lon="4.91822">
        <ele>288</ele>
        <time>2016-09-08T09:36:58Z</time>
      </trkpt>
      <trkpt lat="45.88892" lon="4.91831">
        <ele>288</ele>
        <time>2016-09-08T09:36:59Z</time>
      </trkpt>
      <trkpt lat="45.88893" lon="4.9184">
        <ele>288</ele>
        <time>2016-09-08T09:37:00Z</time>
      </trkpt>
      <trkpt lat="45.88895" lon="4.91849">
        <ele>288</ele>
        <time>2016-09-08T09:37:01Z</time>
      </trkpt>
      <trkpt lat="45.88897" lon="4.91858">
        <ele>288</ele>
        <time>2016-09-08T09:37:02Z</time>
      </trkpt>
      <trkpt lat="45.889" lon="4.91867">
        <ele>288</ele>
        <time>2016-09-08T09:37:03Z</time>
      </trkpt>
      <trkpt lat="45.88903" lon="4.91876">
        <ele>288</ele>
        <time>2016-09-08T09:37:04Z</time>
      </trkpt>
      <trkpt lat="45.88906" lon="4.91884">
        <ele>288</ele>
        <time>2016-09-08T09:37:05Z</time>
      </trkpt>
      <trkpt lat="45.88909" lon="4.91892">
        <ele>288</ele>
        <time>2016-09-08T09:37:06Z</time>
      </trkpt>
      <trkpt lat="45.88913" lon="4.91899">
        <ele>288</ele>
        <time>2016-09-08T09:37:07Z</time>
      </trkpt>
      <trkpt lat="45.88917" lon="4.91907">
        <ele>288</ele>
        <time>2016-09-08T09:37:08Z</time>
      </trkpt>
      <trkpt lat="45.88921" lon="4.91914">
        <ele>288</ele>
        <time>2016-09-08T09:37:09Z</time>
      </trkpt>
      <trkpt lat="45.88925" lon="4.91921">
        <ele>288</ele>
        <time>2016-09-08T09:37:10Z</time>
      </trkpt>
      <trkpt lat="45.88929" lon="4.91928">
        <ele>288</ele>
        <time>2016-09-08T09:37:11Z</time>
      </trkpt>
      <trkpt lat="45.88933" lon="4.91934">
        <ele>288</ele>
        <time>2016-09-08T09:37:12Z</time>
      </trkpt>
      <trkpt lat="45.88937" lon="4.9194">
        <ele>287</ele>
        <time>2016-09-08T09:37:13Z</time>
      </trkpt>
      <trkpt lat="45.88942" lon="4.91947">
        <ele>287</ele>
        <time>2016-09-08T09:37:14Z</time>
      </trkpt>
      <trkpt lat="45.88946" lon="4.91953">
        <ele>287</ele>
        <time>2016-09-08T09:37:15Z</time>
      </trkpt>
      <trkpt lat="45.88951" lon="4.91959">
        <ele>287</ele>
        <time>2016-09-08T09:37:16Z</time>
      </trkpt>
      <trkpt lat="45.88955" lon="4.91965">
        <ele>287</ele>
        <time>2016-09-08T09:37:17Z</time>
      </trkpt>
      <trkpt lat="45.8896" lon="4.91971">
        <ele>287</ele>
        <time>2016-09-08T09:37:18Z</time>
      </trkpt>
      <trkpt lat="45.88964" lon="4.91978">
        <ele>287</ele>
        <time>2016-09-08T09:37:19Z</time>
      </trkpt>
      <trkpt lat="45.88969" lon="4.91984">
        <ele>287</ele>
        <time>2016-09-08T09:37:20Z</time>
      </trkpt>
      <trkpt lat="45.88974" lon="4.91991">
        <ele>287</ele>
        <time>2016-09-08T09:37:21Z</time>
      </trkpt>
      <trkpt lat="45.88979" lon="4.91997">
        <ele>287</ele>
        <time>2016-09-08T09:37:22Z</time>
      </trkpt>
      <trkpt lat="45.88984" lon="4.92004">
        <ele>287</ele>
        <time>2016-09-08T09:37:23Z</time>
      </trkpt>
      <trkpt lat="45.88989" lon="4.9201">
        <ele>287</ele>
        <time>2016-09-08T09:37:24Z</time>
      </trkpt>
      <trkpt lat="45.88993" lon="4.92016">
        <ele>287</ele>
        <time>2016-09-08T09:37:25Z</time>
      </trkpt>
      <trkpt lat="45.88997" lon="4.92023">
        <ele>287</ele>
        <time>2016-09-08T09:37:26Z</time>
      </trkpt>
      <trkpt lat="45.89002" lon="4.92028">
        <ele>287</ele>
        <time>2016-09-08T09:37:27Z</time>
      </trkpt>
      <trkpt lat="45.89006" lon="4.92034">
        <ele>287</ele>
        <time>2016-09-08T09:37:28Z</time>
      </trkpt>
      <trkpt lat="45.89011" lon="4.92039">
        <ele>287</ele>
        <time>2016-09-08T09:37:29Z</time>
      </trkpt>
      <trkpt lat="45.89015" lon="4.92045">
        <ele>287</ele>
        <time>2016-09-08T09:37:30Z</time>
      </trkpt>
      <trkpt lat="45.89021" lon="4.9205">
        <ele>287</ele>
        <time>2016-09-08T09:37:31Z</time>
      </trkpt>
      <trkpt lat="45.89026" lon="4.92055">
        <ele>287</ele>
        <time>2016-09-08T09:37:32Z</time>
      </trkpt>
      <trkpt lat="45.89031" lon="4.9206">
        <ele>287</ele>
        <time>2016-09-08T09:37:33Z</time>
      </trkpt>
      <trkpt lat="45.89036" lon="4.92065">
        <ele>287</ele>
        <time>2016-09-08T09:37:34Z</time>
      </trkpt>
      <trkpt lat="45.89042" lon="4.9207">
        <ele>287</ele>
        <time>2016-09-08T09:37:35Z</time>
      </trkpt>
      <trkpt lat="45.89047" lon="4.92075">
        <ele>287</ele>
        <time>2016-09-08T09:37:36Z</time>
      </trkpt>
      <trkpt lat="45.89052" lon="4.92079">
        <ele>287</ele>
        <time>2016-09-08T09:37:37Z</time>
      </trkpt>
      <trkpt lat="45.89058" lon="4.92083">
        <ele>287</ele>
        <time>2016-09-08T09:37:38Z</time>
      </trkpt>
      <trkpt lat="45.89064" lon="4.92088">
        <ele>287</ele>
        <time>2016-09-08T09:37:39Z</time>
      </trkpt>
      <trkpt lat="45.89069" lon="4.92092">
        <ele>287</ele>
        <time>2016-09-08T09:37:40Z</time>
      </trkpt>
      <trkpt lat="45.89074" lon="4.92097">
        <ele>287</ele>
        <time>2016-09-08T09:37:41Z</time>
      </trkpt>
      <trkpt lat="45.89079" lon="4.92101">
        <ele>287</ele>
        <time>2016-09-08T09:37:42Z</time>
      </trkpt>
      <trkpt lat="45.89084" lon="4.92105">
        <ele>287</ele>
        <time>2016-09-08T09:37:43Z</time>
      </trkpt>
      <trkpt lat="45.89089" lon="4.9211">
        <ele>287</ele>
        <time>2016-09-08T09:37:44Z</time>
      </trkpt>
      <trkpt lat="45.89094" lon="4.92114">
        <ele>287</ele>
        <time>2016-09-08T09:37:45Z</time>
      </trkpt>
      <trkpt lat="45.89099" lon="4.9212">
        <ele>287</ele>
        <time>2016-09-08T09:37:46Z</time>
      </trkpt>
      <trkpt lat="45.89105" lon="4.92124">
        <ele>287</ele>
        <time>2016-09-08T09:37:47Z</time>
      </trkpt>
      <trkpt lat="45.8911" lon="4.92129">
        <ele>288</ele>
        <time>2016-09-08T09:37:48Z</time>
      </trkpt>
      <trkpt lat="45.89116" lon="4.92134">
        <ele>288</ele>
        <time>2016-09-08T09:37:49Z</time>
      </trkpt>
      <trkpt lat="45.89121" lon="4.92138">
        <ele>288</ele>
        <time>2016-09-08T09:37:50Z</time>
      </trkpt>
      <trkpt lat="45.89127" lon="4.92144">
        <ele>288</ele>
        <time>2016-09-08T09:37:51Z</time>
      </trkpt>
      <trkpt lat="45.89133" lon="4.92149">
        <ele>288</ele>
        <time>2016-09-08T09:37:52Z</time>
      </trkpt>
      <trkpt lat="45.89138" lon="4.92153">
        <ele>288</ele>
        <time>2016-09-08T09:37:53Z</time>
      </trkpt>
      <trkpt lat="45.89143" lon="4.92158">
        <ele>288</ele>
        <time>2016-09-08T09:37:54Z</time>
      </trkpt>
      <trkpt lat="45.89148" lon="4.92162">
        <ele>288</ele>
        <time>2016-09-08T09:37:55Z</time>
      </trkpt>
      <trkpt lat="45.89153" lon="4.92167">
        <ele>289</ele>
        <time>2016-09-08T09:37:56Z</time>
      </trkpt>
      <trkpt lat="45.89158" lon="4.92171">
        <ele>289</ele>
        <time>2016-09-08T09:37:57Z</time>
      </trkpt>
      <trkpt lat="45.89162" lon="4.92176">
        <ele>289</ele>
        <time>2016-09-08T09:37:58Z</time>
      </trkpt>
      <trkpt lat="45.89167" lon="4.92181">
        <ele>289</ele>
        <time>2016-09-08T09:37:59Z</time>
      </trkpt>
      <trkpt lat="45.89171" lon="4.92186">
        <ele>289</ele>
        <time>2016-09-08T09:38:00Z</time>
      </trkpt>
      <trkpt lat="45.89175" lon="4.92191">
        <ele>289</ele>
        <time>2016-09-08T09:38:01Z</time>
      </trkpt>
      <trkpt lat="45.8918" lon="4.92198">
        <ele>289</ele>
        <time>2016-09-08T09:38:02Z</time>
      </trkpt>
      <trkpt lat="45.89183" lon="4.92204">
        <ele>289</ele>
        <time>2016-09-08T09:38:03Z</time>
      </trkpt>
      <trkpt lat="45.89188" lon="4.9221">
        <ele>289</ele>
        <time>2016-09-08T09:38:04Z</time>
      </trkpt>
      <trkpt lat="45.89192" lon="4.92217">
        <ele>289</ele>
        <time>2016-09-08T09:38:05Z</time>
      </trkpt>
      <trkpt lat="45.89196" lon="4.92224">
        <ele>289</ele>
        <time>2016-09-08T09:38:06Z</time>
      </trkpt>
      <trkpt lat="45.892" lon="4.92231">
        <ele>289</ele>
        <time>2016-09-08T09:38:07Z</time>
      </trkpt>
      <trkpt lat="45.89203" lon="4.92238">
        <ele>289</ele>
        <time>2016-09-08T09:38:08Z</time>
      </trkpt>
      <trkpt lat="45.89207" lon="4.92246">
        <ele>289</ele>
        <time>2016-09-08T09:38:09Z</time>
      </trkpt>
      <trkpt lat="45.8921" lon="4.92253">
        <ele>290</ele>
        <time>2016-09-08T09:38:10Z</time>
      </trkpt>
      <trkpt lat="45.89213" lon="4.92259">
        <ele>290</ele>
        <time>2016-09-08T09:38:11Z</time>
      </trkpt>
      <trkpt lat="45.89216" lon="4.92266">
        <ele>290</ele>
        <time>2016-09-08T09:38:12Z</time>
      </trkpt>
      <trkpt lat="45.89219" lon="4.92272">
        <ele>290</ele>
        <time>2016-09-08T09:38:13Z</time>
      </trkpt>
      <trkpt lat="45.89222" lon="4.92279">
        <ele>290</ele>
        <time>2016-09-08T09:38:14Z</time>
      </trkpt>
      <trkpt lat="45.89224" lon="4.92286">
        <ele>290</ele>
        <time>2016-09-08T09:38:15Z</time>
      </trkpt>
      <trkpt lat="45.89226" lon="4.92293">
        <ele>290</ele>
        <time>2016-09-08T09:38:16Z</time>
      </trkpt>
      <trkpt lat="45.89229" lon="4.923">
        <ele>291</ele>
        <time>2016-09-08T09:38:17Z</time>
      </trkpt>
      <trkpt lat="45.89231" lon="4.92307">
        <ele>291</ele>
        <time>2016-09-08T09:38:18Z</time>
      </trkpt>
      <trkpt lat="45.89233" lon="4.92314">
        <ele>291</ele>
        <time>2016-09-08T09:38:19Z</time>
      </trkpt>
      <trkpt lat="45.89235" lon="4.92322">
        <ele>291</ele>
        <time>2016-09-08T09:38:20Z</time>
      </trkpt>
      <trkpt lat="45.89236" lon="4.92329">
        <ele>291</ele>
        <time>2016-09-08T09:38:21Z</time>
      </trkpt>
      <trkpt lat="45.89237" lon="4.92336">
        <ele>292</ele>
        <time>2016-09-08T09:38:22Z</time>
      </trkpt>
      <trkpt lat="45.89239" lon="4.92343">
        <ele>292</ele>
        <time>2016-09-08T09:38:23Z</time>
      </trkpt>
      <trkpt lat="45.8924" lon="4.9235">
        <ele>292</ele>
        <time>2016-09-08T09:38:24Z</time>
      </trkpt>
      <trkpt lat="45.89241" lon="4.92357">
        <ele>293</ele>
        <time>2016-09-08T09:38:25Z</time>
      </trkpt>
      <trkpt lat="45.89242" lon="4.92364">
        <ele>293</ele>
        <time>2016-09-08T09:38:26Z</time>
      </trkpt>
      <trkpt lat="45.89244" lon="4.92371">
        <ele>293</ele>
        <time>2016-09-08T09:38:27Z</time>
      </trkpt>
      <trkpt lat="45.89246" lon="4.92378">
        <ele>293</ele>
        <time>2016-09-08T09:38:28Z</time>
      </trkpt>
      <trkpt lat="45.89248" lon="4.92385">
        <ele>293</ele>
        <time>2016-09-08T09:38:29Z</time>
      </trkpt>
      <trkpt lat="45.89251" lon="4.92392">
        <ele>293</ele>
        <time>2016-09-08T09:38:30Z</time>
      </trkpt>
      <trkpt lat="45.89253" lon="4.92399">
        <ele>293</ele>
        <time>2016-09-08T09:38:31Z</time>
      </trkpt>
      <trkpt lat="45.89255" lon="4.92405">
        <ele>293</ele>
        <time>2016-09-08T09:38:32Z</time>
      </trkpt>
      <trkpt lat="45.89257" lon="4.92411">
        <ele>293</ele>
        <time>2016-09-08T09:38:33Z</time>
      </trkpt>
      <trkpt lat="45.89259" lon="4.92417">
        <ele>294</ele>
        <time>2016-09-08T09:38:34Z</time>
      </trkpt>
      <trkpt lat="45.89261" lon="4.92423">
        <ele>294</ele>
        <time>2016-09-08T09:38:35Z</time>
      </trkpt>
      <trkpt lat="45.89263" lon="4.9243">
        <ele>294</ele>
        <time>2016-09-08T09:38:36Z</time>
      </trkpt>
      <trkpt lat="45.89265" lon="4.92436">
        <ele>294</ele>
        <time>2016-09-08T09:38:37Z</time>
      </trkpt>
      <trkpt lat="45.89268" lon="4.92443">
        <ele>294</ele>
        <time>2016-09-08T09:38:38Z</time>
      </trkpt>
      <trkpt lat="45.8927" lon="4.92449">
        <ele>294</ele>
        <time>2016-09-08T09:38:39Z</time>
      </trkpt>
      <trkpt lat="45.89272" lon="4.92455">
        <ele>294</ele>
        <time>2016-09-08T09:38:40Z</time>
      </trkpt>
      <trkpt lat="45.89274" lon="4.92462">
        <ele>294</ele>
        <time>2016-09-08T09:38:41Z</time>
      </trkpt>
      <trkpt lat="45.89276" lon="4.92468">
        <ele>294</ele>
        <time>2016-09-08T09:38:42Z</time>
      </trkpt>
      <trkpt lat="45.89279" lon="4.92475">
        <ele>294</ele>
        <time>2016-09-08T09:38:43Z</time>
      </trkpt>
      <trkpt lat="45.89281" lon="4.92481">
        <ele>294</ele>
        <time>2016-09-08T09:38:44Z</time>
      </trkpt>
      <trkpt lat="45.89284" lon="4.92488">
        <ele>294</ele>
        <time>2016-09-08T09:38:45Z</time>
      </trkpt>
      <trkpt lat="45.89286" lon="4.92495">
        <ele>294</ele>
        <time>2016-09-08T09:38:46Z</time>
      </trkpt>
      <trkpt lat="45.89289" lon="4.92502">
        <ele>294</ele>
        <time>2016-09-08T09:38:47Z</time>
      </trkpt>
      <trkpt lat="45.89291" lon="4.92509">
        <ele>294</ele>
        <time>2016-09-08T09:38:48Z</time>
      </trkpt>
      <trkpt lat="45.89293" lon="4.92516">
        <ele>293</ele>
        <time>2016-09-08T09:38:49Z</time>
      </trkpt>
      <trkpt lat="45.89296" lon="4.92524">
        <ele>293</ele>
        <time>2016-09-08T09:38:50Z</time>
      </trkpt>
      <trkpt lat="45.89298" lon="4.92532">
        <ele>293</ele>
        <time>2016-09-08T09:38:51Z</time>
      </trkpt>
      <trkpt lat="45.893" lon="4.92539">
        <ele>293</ele>
        <time>2016-09-08T09:38:52Z</time>
      </trkpt>
      <trkpt lat="45.89303" lon="4.92546">
        <ele>293</ele>
        <time>2016-09-08T09:38:53Z</time>
      </trkpt>
      <trkpt lat="45.89306" lon="4.92554">
        <ele>293</ele>
        <time>2016-09-08T09:38:54Z</time>
      </trkpt>
      <trkpt lat="45.89309" lon="4.92561">
        <ele>293</ele>
        <time>2016-09-08T09:38:55Z</time>
      </trkpt>
      <trkpt lat="45.89311" lon="4.92569">
        <ele>293</ele>
        <time>2016-09-08T09:38:56Z</time>
      </trkpt>
      <trkpt lat="45.89313" lon="4.92576">
        <ele>293</ele>
        <time>2016-09-08T09:38:57Z</time>
      </trkpt>
      <trkpt lat="45.89315" lon="4.92584">
        <ele>292</ele>
        <time>2016-09-08T09:38:58Z</time>
      </trkpt>
      <trkpt lat="45.89317" lon="4.92591">
        <ele>292</ele>
        <time>2016-09-08T09:38:59Z</time>
      </trkpt>
      <trkpt lat="45.8932" lon="4.92598">
        <ele>292</ele>
        <time>2016-09-08T09:39:00Z</time>
      </trkpt>
      <trkpt lat="45.89322" lon="4.92606">
        <ele>292</ele>
        <time>2016-09-08T09:39:01Z</time>
      </trkpt>
      <trkpt lat="45.89325" lon="4.92613">
        <ele>292</ele>
        <time>2016-09-08T09:39:02Z</time>
      </trkpt>
      <trkpt lat="45.89327" lon="4.92621">
        <ele>292</ele>
        <time>2016-09-08T09:39:03Z</time>
      </trkpt>
      <trkpt lat="45.89329" lon="4.92629">
        <ele>292</ele>
        <time>2016-09-08T09:39:04Z</time>
      </trkpt>
      <trkpt lat="45.89331" lon="4.92637">
        <ele>292</ele>
        <time>2016-09-08T09:39:05Z</time>
      </trkpt>
      <trkpt lat="45.89333" lon="4.92646">
        <ele>291</ele>
        <time>2016-09-08T09:39:06Z</time>
      </trkpt>
      <trkpt lat="45.89335" lon="4.92654">
        <ele>291</ele>
        <time>2016-09-08T09:39:07Z</time>
      </trkpt>
      <trkpt lat="45.89337" lon="4.92663">
        <ele>291</ele>
        <time>2016-09-08T09:39:08Z</time>
      </trkpt>
      <trkpt lat="45.89339" lon="4.92671">
        <ele>291</ele>
        <time>2016-09-08T09:39:09Z</time>
      </trkpt>
      <trkpt lat="45.89341" lon="4.92679">
        <ele>291</ele>
        <time>2016-09-08T09:39:10Z</time>
      </trkpt>
      <trkpt lat="45.89342" lon="4.92687">
        <ele>291</ele>
        <time>2016-09-08T09:39:11Z</time>
      </trkpt>
      <trkpt lat="45.89344" lon="4.92695">
        <ele>291</ele>
        <time>2016-09-08T09:39:12Z</time>
      </trkpt>
      <trkpt lat="45.89345" lon="4.92703">
        <ele>291</ele>
        <time>2016-09-08T09:39:13Z</time>
      </trkpt>
      <trkpt lat="45.89347" lon="4.92711">
        <ele>290</ele>
        <time>2016-09-08T09:39:14Z</time>
      </trkpt>
      <trkpt lat="45.89348" lon="4.92719">
        <ele>290</ele>
        <time>2016-09-08T09:39:15Z</time>
      </trkpt>
      <trkpt lat="45.8935" lon="4.92727">
        <ele>290</ele>
        <time>2016-09-08T09:39:16Z</time>
      </trkpt>
      <trkpt lat="45.89352" lon="4.92735">
        <ele>290</ele>
        <time>2016-09-08T09:39:17Z</time>
      </trkpt>
      <trkpt lat="45.89354" lon="4.92743">
        <ele>290</ele>
        <time>2016-09-08T09:39:18Z</time>
      </trkpt>
      <trkpt lat="45.89356" lon="4.9275">
        <ele>290</ele>
        <time>2016-09-08T09:39:19Z</time>
      </trkpt>
      <trkpt lat="45.89357" lon="4.92758">
        <ele>290</ele>
        <time>2016-09-08T09:39:20Z</time>
      </trkpt>
      <trkpt lat="45.89358" lon="4.92765">
        <ele>290</ele>
        <time>2016-09-08T09:39:21Z</time>
      </trkpt>
      <trkpt lat="45.8936" lon="4.92772">
        <ele>290</ele>
        <time>2016-09-08T09:39:22Z</time>
      </trkpt>
      <trkpt lat="45.89361" lon="4.9278">
        <ele>290</ele>
        <time>2016-09-08T09:39:23Z</time>
      </trkpt>
      <trkpt lat="45.89363" lon="4.92788">
        <ele>290</ele>
        <time>2016-09-08T09:39:24Z</time>
      </trkpt>
      <trkpt lat="45.89364" lon="4.92796">
        <ele>290</ele>
        <time>2016-09-08T09:39:25Z</time>
      </trkpt>
      <trkpt lat="45.89365" lon="4.92803">
        <ele>290</ele>
        <time>2016-09-08T09:39:26Z</time>
      </trkpt>
      <trkpt lat="45.89367" lon="4.92811">
        <ele>290</ele>
        <time>2016-09-08T09:39:27Z</time>
      </trkpt>
      <trkpt lat="45.89368" lon="4.92819">
        <ele>290</ele>
        <time>2016-09-08T09:39:28Z</time>
      </trkpt>
      <trkpt lat="45.89369" lon="4.92827">
        <ele>290</ele>
        <time>2016-09-08T09:39:29Z</time>
      </trkpt>
      <trkpt lat="45.89371" lon="4.92835">
        <ele>288</ele>
        <time>2016-09-08T09:39:30Z</time>
      </trkpt>
      <trkpt lat="45.89372" lon="4.92844">
        <ele>288</ele>
        <time>2016-09-08T09:39:31Z</time>
      </trkpt>
      <trkpt lat="45.89374" lon="4.92853">
        <ele>288</ele>
        <time>2016-09-08T09:39:32Z</time>
      </trkpt>
      <trkpt lat="45.89378" lon="4.92862">
        <ele>288</ele>
        <time>2016-09-08T09:39:33Z</time>
      </trkpt>
      <trkpt lat="45.89382" lon="4.92871">
        <ele>288</ele>
        <time>2016-09-08T09:39:34Z</time>
      </trkpt>
      <trkpt lat="45.89385" lon="4.92881">
        <ele>288</ele>
        <time>2016-09-08T09:39:35Z</time>
      </trkpt>
      <trkpt lat="45.89388" lon="4.92891">
        <ele>288</ele>
        <time>2016-09-08T09:39:36Z</time>
      </trkpt>
      <trkpt lat="45.89392" lon="4.92901">
        <ele>288</ele>
        <time>2016-09-08T09:39:37Z</time>
      </trkpt>
      <trkpt lat="45.89395" lon="4.92911">
        <ele>288</ele>
        <time>2016-09-08T09:39:38Z</time>
      </trkpt>
      <trkpt lat="45.89399" lon="4.9292">
        <ele>287</ele>
        <time>2016-09-08T09:39:39Z</time>
      </trkpt>
      <trkpt lat="45.89402" lon="4.9293">
        <ele>287</ele>
        <time>2016-09-08T09:39:40Z</time>
      </trkpt>
      <trkpt lat="45.89406" lon="4.92939">
        <ele>286</ele>
        <time>2016-09-08T09:39:41Z</time>
      </trkpt>
      <trkpt lat="45.8941" lon="4.92948">
        <ele>286</ele>
        <time>2016-09-08T09:39:42Z</time>
      </trkpt>
      <trkpt lat="45.89414" lon="4.92957">
        <ele>286</ele>
        <time>2016-09-08T09:39:43Z</time>
      </trkpt>
      <trkpt lat="45.89418" lon="4.92966">
        <ele>286</ele>
        <time>2016-09-08T09:39:44Z</time>
      </trkpt>
      <trkpt lat="45.89421" lon="4.92975">
        <ele>286</ele>
        <time>2016-09-08T09:39:45Z</time>
      </trkpt>
      <trkpt lat="45.89425" lon="4.92984">
        <ele>286</ele>
        <time>2016-09-08T09:39:46Z</time>
      </trkpt>
      <trkpt lat="45.89428" lon="4.92993">
        <ele>286</ele>
        <time>2016-09-08T09:39:47Z</time>
      </trkpt>
      <trkpt lat="45.89431" lon="4.93003">
        <ele>284</ele>
        <time>2016-09-08T09:39:48Z</time>
      </trkpt>
      <trkpt lat="45.89434" lon="4.93012">
        <ele>284</ele>
        <time>2016-09-08T09:39:49Z</time>
      </trkpt>
      <trkpt lat="45.89437" lon="4.93021">
        <ele>284</ele>
        <time>2016-09-08T09:39:50Z</time>
      </trkpt>
      <trkpt lat="45.89441" lon="4.93029">
        <ele>284</ele>
        <time>2016-09-08T09:39:51Z</time>
      </trkpt>
      <trkpt lat="45.89444" lon="4.93037">
        <ele>284</ele>
        <time>2016-09-08T09:39:52Z</time>
      </trkpt>
      <trkpt lat="45.89448" lon="4.93044">
        <ele>284</ele>
        <time>2016-09-08T09:39:53Z</time>
      </trkpt>
      <trkpt lat="45.8945" lon="4.93052">
        <ele>283</ele>
        <time>2016-09-08T09:39:54Z</time>
      </trkpt>
      <trkpt lat="45.89453" lon="4.93059">
        <ele>283</ele>
        <time>2016-09-08T09:39:55Z</time>
      </trkpt>
      <trkpt lat="45.89455" lon="4.93065">
        <ele>283</ele>
        <time>2016-09-08T09:39:56Z</time>
      </trkpt>
      <trkpt lat="45.89458" lon="4.93071">
        <ele>283</ele>
        <time>2016-09-08T09:39:57Z</time>
      </trkpt>
      <trkpt lat="45.89459" lon="4.93077">
        <ele>283</ele>
        <time>2016-09-08T09:39:58Z</time>
      </trkpt>
      <trkpt lat="45.89463" lon="4.93088">
        <ele>283</ele>
        <time>2016-09-08T09:40:01Z</time>
      </trkpt>
      <trkpt lat="45.89464" lon="4.9309">
        <ele>283</ele>
        <time>2016-09-08T09:40:02Z</time>
      </trkpt>
      <trkpt lat="45.89466" lon="4.93097">
        <ele>283</ele>
        <time>2016-09-08T09:40:08Z</time>
      </trkpt>
      <trkpt lat="45.89466" lon="4.93098">
        <ele>283</ele>
        <time>2016-09-08T09:40:09Z</time>
      </trkpt>
      <trkpt lat="45.89466" lon="4.93099">
        <ele>283</ele>
        <time>2016-09-08T09:40:38Z</time>
      </trkpt>
      <trkpt lat="45.89465" lon="4.93101">
        <ele>283</ele>
        <time>2016-09-08T09:40:39Z</time>
      </trkpt>
      <trkpt lat="45.89467" lon="4.93111">
        <ele>283</ele>
        <time>2016-09-08T09:40:43Z</time>
      </trkpt>
      <trkpt lat="45.8947" lon="4.93113">
        <ele>283</ele>
        <time>2016-09-08T09:40:44Z</time>
      </trkpt>
      <trkpt lat="45.89476" lon="4.93115">
        <ele>283</ele>
        <time>2016-09-08T09:40:46Z</time>
      </trkpt>
      <trkpt lat="45.8948" lon="4.93116">
        <ele>283</ele>
        <time>2016-09-08T09:40:47Z</time>
      </trkpt>
      <trkpt lat="45.89487" lon="4.93119">
        <ele>283</ele>
        <time>2016-09-08T09:40:49Z</time>
      </trkpt>
      <trkpt lat="45.8949" lon="4.93123">
        <ele>283</ele>
        <time>2016-09-08T09:40:50Z</time>
      </trkpt>
      <trkpt lat="45.89492" lon="4.9313">
        <ele>283</ele>
        <time>2016-09-08T09:40:51Z</time>
      </trkpt>
      <trkpt lat="45.89494" lon="4.93136">
        <ele>283</ele>
        <time>2016-09-08T09:40:52Z</time>
      </trkpt>
      <trkpt lat="45.89496" lon="4.93143">
        <ele>284</ele>
        <time>2016-09-08T09:40:53Z</time>
      </trkpt>
      <trkpt lat="45.89498" lon="4.9315">
        <ele>284</ele>
        <time>2016-09-08T09:40:54Z</time>
      </trkpt>
      <trkpt lat="45.89501" lon="4.93157">
        <ele>285</ele>
        <time>2016-09-08T09:40:55Z</time>
      </trkpt>
      <trkpt lat="45.89504" lon="4.93163">
        <ele>285</ele>
        <time>2016-09-08T09:40:56Z</time>
      </trkpt>
      <trkpt lat="45.89507" lon="4.9317">
        <ele>286</ele>
        <time>2016-09-08T09:40:57Z</time>
      </trkpt>
      <trkpt lat="45.89509" lon="4.93176">
        <ele>286</ele>
        <time>2016-09-08T09:40:58Z</time>
      </trkpt>
      <trkpt lat="45.89512" lon="4.93182">
        <ele>286</ele>
        <time>2016-09-08T09:40:59Z</time>
      </trkpt>
      <trkpt lat="45.89514" lon="4.93188">
        <ele>287</ele>
        <time>2016-09-08T09:41:00Z</time>
      </trkpt>
      <trkpt lat="45.89516" lon="4.93194">
        <ele>287</ele>
        <time>2016-09-08T09:41:01Z</time>
      </trkpt>
      <trkpt lat="45.89518" lon="4.93201">
        <ele>287</ele>
        <time>2016-09-08T09:41:02Z</time>
      </trkpt>
      <trkpt lat="45.8952" lon="4.93207">
        <ele>287</ele>
        <time>2016-09-08T09:41:03Z</time>
      </trkpt>
      <trkpt lat="45.89521" lon="4.93213">
        <ele>287</ele>
        <time>2016-09-08T09:41:04Z</time>
      </trkpt>
      <trkpt lat="45.89523" lon="4.9322">
        <ele>287</ele>
        <time>2016-09-08T09:41:05Z</time>
      </trkpt>
      <trkpt lat="45.89522" lon="4.93226">
        <ele>287</ele>
        <time>2016-09-08T09:41:06Z</time>
      </trkpt>
      <trkpt lat="45.89524" lon="4.93239">
        <ele>287</ele>
        <time>2016-09-08T09:41:08Z</time>
      </trkpt>
      <trkpt lat="45.89524" lon="4.93245">
        <ele>288</ele>
        <time>2016-09-08T09:41:09Z</time>
      </trkpt>
      <trkpt lat="45.89525" lon="4.93257">
        <ele>287</ele>
        <time>2016-09-08T09:41:11Z</time>
      </trkpt>
      <trkpt lat="45.89525" lon="4.93262">
        <ele>287</ele>
        <time>2016-09-08T09:41:12Z</time>
      </trkpt>
      <trkpt lat="45.89525" lon="4.93272">
        <ele>286</ele>
        <time>2016-09-08T09:41:14Z</time>
      </trkpt>
      <trkpt lat="45.89525" lon="4.93276">
        <ele>286</ele>
        <time>2016-09-08T09:41:15Z</time>
      </trkpt>
      <trkpt lat="45.89524" lon="4.93287">
        <ele>286</ele>
        <time>2016-09-08T09:41:17Z</time>
      </trkpt>
      <trkpt lat="45.89524" lon="4.93294">
        <ele>286</ele>
        <time>2016-09-08T09:41:18Z</time>
      </trkpt>
      <trkpt lat="45.89523" lon="4.93301">
        <ele>286</ele>
        <time>2016-09-08T09:41:19Z</time>
      </trkpt>
      <trkpt lat="45.89522" lon="4.93309">
        <ele>285</ele>
        <time>2016-09-08T09:41:20Z</time>
      </trkpt>
      <trkpt lat="45.89521" lon="4.93317">
        <ele>285</ele>
        <time>2016-09-08T09:41:21Z</time>
      </trkpt>
      <trkpt lat="45.89521" lon="4.93326">
        <ele>285</ele>
        <time>2016-09-08T09:41:22Z</time>
      </trkpt>
      <trkpt lat="45.89522" lon="4.93334">
        <ele>283</ele>
        <time>2016-09-08T09:41:23Z</time>
      </trkpt>
      <trkpt lat="45.89523" lon="4.93343">
        <ele>283</ele>
        <time>2016-09-08T09:41:24Z</time>
      </trkpt>
      <trkpt lat="45.89525" lon="4.93352">
        <ele>282</ele>
        <time>2016-09-08T09:41:25Z</time>
      </trkpt>
      <trkpt lat="45.89528" lon="4.93361">
        <ele>282</ele>
        <time>2016-09-08T09:41:26Z</time>
      </trkpt>
      <trkpt lat="45.8953" lon="4.9337">
        <ele>282</ele>
        <time>2016-09-08T09:41:27Z</time>
      </trkpt>
      <trkpt lat="45.89532" lon="4.93379">
        <ele>282</ele>
        <time>2016-09-08T09:41:28Z</time>
      </trkpt>
      <trkpt lat="45.89534" lon="4.93388">
        <ele>282</ele>
        <time>2016-09-08T09:41:29Z</time>
      </trkpt>
      <trkpt lat="45.89537" lon="4.93397">
        <ele>282</ele>
        <time>2016-09-08T09:41:30Z</time>
      </trkpt>
      <trkpt lat="45.89539" lon="4.93406">
        <ele>282</ele>
        <time>2016-09-08T09:41:31Z</time>
      </trkpt>
      <trkpt lat="45.89542" lon="4.93415">
        <ele>282</ele>
        <time>2016-09-08T09:41:32Z</time>
      </trkpt>
      <trkpt lat="45.89544" lon="4.93424">
        <ele>280</ele>
        <time>2016-09-08T09:41:33Z</time>
      </trkpt>
      <trkpt lat="45.89546" lon="4.93434">
        <ele>280</ele>
        <time>2016-09-08T09:41:34Z</time>
      </trkpt>
      <trkpt lat="45.89547" lon="4.93444">
        <ele>280</ele>
        <time>2016-09-08T09:41:35Z</time>
      </trkpt>
      <trkpt lat="45.89548" lon="4.93455">
        <ele>280</ele>
        <time>2016-09-08T09:41:36Z</time>
      </trkpt>
      <trkpt lat="45.89548" lon="4.93465">
        <ele>280</ele>
        <time>2016-09-08T09:41:37Z</time>
      </trkpt>
      <trkpt lat="45.89548" lon="4.93476">
        <ele>280</ele>
        <time>2016-09-08T09:41:38Z</time>
      </trkpt>
      <trkpt lat="45.89547" lon="4.93488">
        <ele>280</ele>
        <time>2016-09-08T09:41:39Z</time>
      </trkpt>
      <trkpt lat="45.89546" lon="4.93499">
        <ele>280</ele>
        <time>2016-09-08T09:41:40Z</time>
      </trkpt>
      <trkpt lat="45.89545" lon="4.9351">
        <ele>279</ele>
        <time>2016-09-08T09:41:41Z</time>
      </trkpt>
      <trkpt lat="45.89544" lon="4.93521">
        <ele>279</ele>
        <time>2016-09-08T09:41:42Z</time>
      </trkpt>
      <trkpt lat="45.89543" lon="4.93533">
        <ele>279</ele>
        <time>2016-09-08T09:41:43Z</time>
      </trkpt>
      <trkpt lat="45.89542" lon="4.93544">
        <ele>279</ele>
        <time>2016-09-08T09:41:44Z</time>
      </trkpt>
      <trkpt lat="45.89541" lon="4.93554">
        <ele>279</ele>
        <time>2016-09-08T09:41:45Z</time>
      </trkpt>
      <trkpt lat="45.89539" lon="4.93565">
        <ele>279</ele>
        <time>2016-09-08T09:41:46Z</time>
      </trkpt>
      <trkpt lat="45.89538" lon="4.93576">
        <ele>279</ele>
        <time>2016-09-08T09:41:47Z</time>
      </trkpt>
      <trkpt lat="45.89537" lon="4.93586">
        <ele>278</ele>
        <time>2016-09-08T09:41:48Z</time>
      </trkpt>
      <trkpt lat="45.89536" lon="4.93596">
        <ele>277</ele>
        <time>2016-09-08T09:41:49Z</time>
      </trkpt>
      <trkpt lat="45.89536" lon="4.93605">
        <ele>277</ele>
        <time>2016-09-08T09:41:50Z</time>
      </trkpt>
      <trkpt lat="45.89535" lon="4.93615">
        <ele>277</ele>
        <time>2016-09-08T09:41:51Z</time>
      </trkpt>
      <trkpt lat="45.89535" lon="4.93624">
        <ele>277</ele>
        <time>2016-09-08T09:41:52Z</time>
      </trkpt>
      <trkpt lat="45.89535" lon="4.93632">
        <ele>277</ele>
        <time>2016-09-08T09:41:53Z</time>
      </trkpt>
      <trkpt lat="45.89535" lon="4.93641">
        <ele>277</ele>
        <time>2016-09-08T09:41:54Z</time>
      </trkpt>
      <trkpt lat="45.89534" lon="4.9365">
        <ele>277</ele>
        <time>2016-09-08T09:41:55Z</time>
      </trkpt>
      <trkpt lat="45.89534" lon="4.93659">
        <ele>276</ele>
        <time>2016-09-08T09:41:56Z</time>
      </trkpt>
      <trkpt lat="45.89534" lon="4.93668">
        <ele>275</ele>
        <time>2016-09-08T09:41:57Z</time>
      </trkpt>
      <trkpt lat="45.89533" lon="4.93677">
        <ele>275</ele>
        <time>2016-09-08T09:41:58Z</time>
      </trkpt>
      <trkpt lat="45.89532" lon="4.93687">
        <ele>275</ele>
        <time>2016-09-08T09:41:59Z</time>
      </trkpt>
      <trkpt lat="45.89532" lon="4.93696">
        <ele>275</ele>
        <time>2016-09-08T09:42:00Z</time>
      </trkpt>
      <trkpt lat="45.89531" lon="4.93706">
        <ele>275</ele>
        <time>2016-09-08T09:42:01Z</time>
      </trkpt>
      <trkpt lat="45.89531" lon="4.93715">
        <ele>275</ele>
        <time>2016-09-08T09:42:02Z</time>
      </trkpt>
      <trkpt lat="45.89531" lon="4.93724">
        <ele>275</ele>
        <time>2016-09-08T09:42:03Z</time>
      </trkpt>
      <trkpt lat="45.89531" lon="4.93733">
        <ele>275</ele>
        <time>2016-09-08T09:42:04Z</time>
      </trkpt>
      <trkpt lat="45.89531" lon="4.93742">
        <ele>275</ele>
        <time>2016-09-08T09:42:05Z</time>
      </trkpt>
      <trkpt lat="45.8953" lon="4.93751">
        <ele>274</ele>
        <time>2016-09-08T09:42:06Z</time>
      </trkpt>
      <trkpt lat="45.8953" lon="4.93759">
        <ele>274</ele>
        <time>2016-09-08T09:42:07Z</time>
      </trkpt>
      <trkpt lat="45.8953" lon="4.93767">
        <ele>274</ele>
        <time>2016-09-08T09:42:08Z</time>
      </trkpt>
      <trkpt lat="45.8953" lon="4.93775">
        <ele>274</ele>
        <time>2016-09-08T09:42:09Z</time>
      </trkpt>
      <trkpt lat="45.89529" lon="4.93783">
        <ele>274</ele>
        <time>2016-09-08T09:42:10Z</time>
      </trkpt>
      <trkpt lat="45.89529" lon="4.93792">
        <ele>274</ele>
        <time>2016-09-08T09:42:11Z</time>
      </trkpt>
      <trkpt lat="45.89528" lon="4.938">
        <ele>274</ele>
        <time>2016-09-08T09:42:12Z</time>
      </trkpt>
      <trkpt lat="45.89526" lon="4.93809">
        <ele>274</ele>
        <time>2016-09-08T09:42:13Z</time>
      </trkpt>
      <trkpt lat="45.89526" lon="4.93817">
        <ele>274</ele>
        <time>2016-09-08T09:42:14Z</time>
      </trkpt>
      <trkpt lat="45.89525" lon="4.93825">
        <ele>274</ele>
        <time>2016-09-08T09:42:15Z</time>
      </trkpt>
      <trkpt lat="45.89525" lon="4.93833">
        <ele>274</ele>
        <time>2016-09-08T09:42:16Z</time>
      </trkpt>
      <trkpt lat="45.89524" lon="4.9384">
        <ele>274</ele>
        <time>2016-09-08T09:42:17Z</time>
      </trkpt>
      <trkpt lat="45.89523" lon="4.93848">
        <ele>274</ele>
        <time>2016-09-08T09:42:18Z</time>
      </trkpt>
      <trkpt lat="45.89522" lon="4.93856">
        <ele>274</ele>
        <time>2016-09-08T09:42:19Z</time>
      </trkpt>
      <trkpt lat="45.89521" lon="4.93865">
        <ele>274</ele>
        <time>2016-09-08T09:42:20Z</time>
      </trkpt>
      <trkpt lat="45.8952" lon="4.93874">
        <ele>274</ele>
        <time>2016-09-08T09:42:21Z</time>
      </trkpt>
      <trkpt lat="45.89519" lon="4.93882">
        <ele>274</ele>
        <time>2016-09-08T09:42:22Z</time>
      </trkpt>
      <trkpt lat="45.89518" lon="4.93891">
        <ele>274</ele>
        <time>2016-09-08T09:42:23Z</time>
      </trkpt>
      <trkpt lat="45.89517" lon="4.939">
        <ele>273</ele>
        <time>2016-09-08T09:42:24Z</time>
      </trkpt>
      <trkpt lat="45.89517" lon="4.93909">
        <ele>273</ele>
        <time>2016-09-08T09:42:25Z</time>
      </trkpt>
      <trkpt lat="45.89516" lon="4.93918">
        <ele>273</ele>
        <time>2016-09-08T09:42:26Z</time>
      </trkpt>
      <trkpt lat="45.89516" lon="4.93926">
        <ele>274</ele>
        <time>2016-09-08T09:42:27Z</time>
      </trkpt>
      <trkpt lat="45.89515" lon="4.93935">
        <ele>274</ele>
        <time>2016-09-08T09:42:28Z</time>
      </trkpt>
      <trkpt lat="45.89514" lon="4.93943">
        <ele>274</ele>
        <time>2016-09-08T09:42:29Z</time>
      </trkpt>
      <trkpt lat="45.89514" lon="4.93951">
        <ele>274</ele>
        <time>2016-09-08T09:42:30Z</time>
      </trkpt>
      <trkpt lat="45.89514" lon="4.9396">
        <ele>274</ele>
        <time>2016-09-08T09:42:31Z</time>
      </trkpt>
      <trkpt lat="45.89514" lon="4.93968">
        <ele>274</ele>
        <time>2016-09-08T09:42:32Z</time>
      </trkpt>
      <trkpt lat="45.89512" lon="4.93977">
        <ele>274</ele>
        <time>2016-09-08T09:42:33Z</time>
      </trkpt>
      <trkpt lat="45.89511" lon="4.93986">
        <ele>274</ele>
        <time>2016-09-08T09:42:34Z</time>
      </trkpt>
      <trkpt lat="45.89511" lon="4.93994">
        <ele>274</ele>
        <time>2016-09-08T09:42:35Z</time>
      </trkpt>
      <trkpt lat="45.89512" lon="4.94003">
        <ele>274</ele>
        <time>2016-09-08T09:42:36Z</time>
      </trkpt>
      <trkpt lat="45.89512" lon="4.94011">
        <ele>274</ele>
        <time>2016-09-08T09:42:37Z</time>
      </trkpt>
      <trkpt lat="45.89512" lon="4.9402">
        <ele>275</ele>
        <time>2016-09-08T09:42:38Z</time>
      </trkpt>
      <trkpt lat="45.89511" lon="4.94028">
        <ele>275</ele>
        <time>2016-09-08T09:42:39Z</time>
      </trkpt>
      <trkpt lat="45.89511" lon="4.94037">
        <ele>275</ele>
        <time>2016-09-08T09:42:40Z</time>
      </trkpt>
      <trkpt lat="45.8951" lon="4.94045">
        <ele>275</ele>
        <time>2016-09-08T09:42:41Z</time>
      </trkpt>
      <trkpt lat="45.89509" lon="4.94054">
        <ele>275</ele>
        <time>2016-09-08T09:42:42Z</time>
      </trkpt>
      <trkpt lat="45.89508" lon="4.94063">
        <ele>275</ele>
        <time>2016-09-08T09:42:43Z</time>
      </trkpt>
      <trkpt lat="45.89508" lon="4.94072">
        <ele>275</ele>
        <time>2016-09-08T09:42:44Z</time>
      </trkpt>
      <trkpt lat="45.89507" lon="4.94081">
        <ele>275</ele>
        <time>2016-09-08T09:42:45Z</time>
      </trkpt>
      <trkpt lat="45.89506" lon="4.94091">
        <ele>275</ele>
        <time>2016-09-08T09:42:46Z</time>
      </trkpt>
      <trkpt lat="45.89505" lon="4.941">
        <ele>275</ele>
        <time>2016-09-08T09:42:47Z</time>
      </trkpt>
      <trkpt lat="45.89504" lon="4.9411">
        <ele>275</ele>
        <time>2016-09-08T09:42:48Z</time>
      </trkpt>
      <trkpt lat="45.89503" lon="4.94119">
        <ele>275</ele>
        <time>2016-09-08T09:42:49Z</time>
      </trkpt>
      <trkpt lat="45.89502" lon="4.94128">
        <ele>275</ele>
        <time>2016-09-08T09:42:50Z</time>
      </trkpt>
      <trkpt lat="45.89502" lon="4.94136">
        <ele>275</ele>
        <time>2016-09-08T09:42:51Z</time>
      </trkpt>
      <trkpt lat="45.895" lon="4.94145">
        <ele>275</ele>
        <time>2016-09-08T09:42:52Z</time>
      </trkpt>
      <trkpt lat="45.89499" lon="4.94153">
        <ele>274</ele>
        <time>2016-09-08T09:42:53Z</time>
      </trkpt>
      <trkpt lat="45.89498" lon="4.94161">
        <ele>275</ele>
        <time>2016-09-08T09:42:54Z</time>
      </trkpt>
      <trkpt lat="45.89497" lon="4.94169">
        <ele>275</ele>
        <time>2016-09-08T09:42:55Z</time>
      </trkpt>
      <trkpt lat="45.89497" lon="4.94177">
        <ele>275</ele>
        <time>2016-09-08T09:42:56Z</time>
      </trkpt>
      <trkpt lat="45.89496" lon="4.94186">
        <ele>275</ele>
        <time>2016-09-08T09:42:57Z</time>
      </trkpt>
      <trkpt lat="45.89495" lon="4.94195">
        <ele>274</ele>
        <time>2016-09-08T09:42:58Z</time>
      </trkpt>
      <trkpt lat="45.89494" lon="4.94204">
        <ele>274</ele>
        <time>2016-09-08T09:42:59Z</time>
      </trkpt>
      <trkpt lat="45.89493" lon="4.94213">
        <ele>275</ele>
        <time>2016-09-08T09:43:00Z</time>
      </trkpt>
      <trkpt lat="45.89493" lon="4.94222">
        <ele>275</ele>
        <time>2016-09-08T09:43:01Z</time>
      </trkpt>
      <trkpt lat="45.89492" lon="4.94231">
        <ele>275</ele>
        <time>2016-09-08T09:43:02Z</time>
      </trkpt>
      <trkpt lat="45.89492" lon="4.9424">
        <ele>275</ele>
        <time>2016-09-08T09:43:03Z</time>
      </trkpt>
      <trkpt lat="45.89491" lon="4.94249">
        <ele>275</ele>
        <time>2016-09-08T09:43:04Z</time>
      </trkpt>
      <trkpt lat="45.8949" lon="4.94258">
        <ele>275</ele>
        <time>2016-09-08T09:43:05Z</time>
      </trkpt>
      <trkpt lat="45.89489" lon="4.94267">
        <ele>275</ele>
        <time>2016-09-08T09:43:06Z</time>
      </trkpt>
      <trkpt lat="45.89488" lon="4.94275">
        <ele>275</ele>
        <time>2016-09-08T09:43:07Z</time>
      </trkpt>
      <trkpt lat="45.89488" lon="4.94284">
        <ele>275</ele>
        <time>2016-09-08T09:43:08Z</time>
      </trkpt>
      <trkpt lat="45.89487" lon="4.94293">
        <ele>274</ele>
        <time>2016-09-08T09:43:09Z</time>
      </trkpt>
      <trkpt lat="45.89486" lon="4.94302">
        <ele>274</ele>
        <time>2016-09-08T09:43:10Z</time>
      </trkpt>
      <trkpt lat="45.89485" lon="4.94311">
        <ele>274</ele>
        <time>2016-09-08T09:43:11Z</time>
      </trkpt>
      <trkpt lat="45.89484" lon="4.9432">
        <ele>274</ele>
        <time>2016-09-08T09:43:12Z</time>
      </trkpt>
      <trkpt lat="45.89483" lon="4.94329">
        <ele>274</ele>
        <time>2016-09-08T09:43:13Z</time>
      </trkpt>
      <trkpt lat="45.89483" lon="4.94339">
        <ele>274</ele>
        <time>2016-09-08T09:43:14Z</time>
      </trkpt>
      <trkpt lat="45.89483" lon="4.94348">
        <ele>274</ele>
        <time>2016-09-08T09:43:15Z</time>
      </trkpt>
      <trkpt lat="45.89481" lon="4.94357">
        <ele>274</ele>
        <time>2016-09-08T09:43:16Z</time>
      </trkpt>
      <trkpt lat="45.89481" lon="4.94366">
        <ele>274</ele>
        <time>2016-09-08T09:43:17Z</time>
      </trkpt>
      <trkpt lat="45.8948" lon="4.94375">
        <ele>274</ele>
        <time>2016-09-08T09:43:18Z</time>
      </trkpt>
      <trkpt lat="45.89479" lon="4.94383">
        <ele>274</ele>
        <time>2016-09-08T09:43:19Z</time>
      </trkpt>
      <trkpt lat="45.89478" lon="4.94392">
        <ele>274</ele>
        <time>2016-09-08T09:43:20Z</time>
      </trkpt>
      <trkpt lat="45.89478" lon="4.944">
        <ele>274</ele>
        <time>2016-09-08T09:43:21Z</time>
      </trkpt>
      <trkpt lat="45.89477" lon="4.94409">
        <ele>274</ele>
        <time>2016-09-08T09:43:22Z</time>
      </trkpt>
      <trkpt lat="45.89477" lon="4.94417">
        <ele>274</ele>
        <time>2016-09-08T09:43:23Z</time>
      </trkpt>
      <trkpt lat="45.89476" lon="4.94425">
        <ele>274</ele>
        <time>2016-09-08T09:43:24Z</time>
      </trkpt>
      <trkpt lat="45.89475" lon="4.94434">
        <ele>274</ele>
        <time>2016-09-08T09:43:25Z</time>
      </trkpt>
      <trkpt lat="45.89474" lon="4.94443">
        <ele>274</ele>
        <time>2016-09-08T09:43:26Z</time>
      </trkpt>
      <trkpt lat="45.89473" lon="4.94453">
        <ele>274</ele>
        <time>2016-09-08T09:43:27Z</time>
      </trkpt>
      <trkpt lat="45.89472" lon="4.94462">
        <ele>274</ele>
        <time>2016-09-08T09:43:28Z</time>
      </trkpt>
      <trkpt lat="45.89472" lon="4.94471">
        <ele>274</ele>
        <time>2016-09-08T09:43:29Z</time>
      </trkpt>
      <trkpt lat="45.89471" lon="4.9448">
        <ele>274</ele>
        <time>2016-09-08T09:43:30Z</time>
      </trkpt>
      <trkpt lat="45.8947" lon="4.94488">
        <ele>274</ele>
        <time>2016-09-08T09:43:31Z</time>
      </trkpt>
      <trkpt lat="45.89469" lon="4.94497">
        <ele>274</ele>
        <time>2016-09-08T09:43:32Z</time>
      </trkpt>
      <trkpt lat="45.89468" lon="4.94505">
        <ele>274</ele>
        <time>2016-09-08T09:43:33Z</time>
      </trkpt>
      <trkpt lat="45.89468" lon="4.94513">
        <ele>274</ele>
        <time>2016-09-08T09:43:34Z</time>
      </trkpt>
      <trkpt lat="45.89467" lon="4.94522">
        <ele>274</ele>
        <time>2016-09-08T09:43:35Z</time>
      </trkpt>
      <trkpt lat="45.89466" lon="4.9453">
        <ele>274</ele>
        <time>2016-09-08T09:43:36Z</time>
      </trkpt>
      <trkpt lat="45.89465" lon="4.94538">
        <ele>274</ele>
        <time>2016-09-08T09:43:37Z</time>
      </trkpt>
      <trkpt lat="45.89464" lon="4.94546">
        <ele>274</ele>
        <time>2016-09-08T09:43:38Z</time>
      </trkpt>
      <trkpt lat="45.89463" lon="4.94554">
        <ele>274</ele>
        <time>2016-09-08T09:43:39Z</time>
      </trkpt>
      <trkpt lat="45.89462" lon="4.94562">
        <ele>274</ele>
        <time>2016-09-08T09:43:40Z</time>
      </trkpt>
      <trkpt lat="45.89461" lon="4.94571">
        <ele>274</ele>
        <time>2016-09-08T09:43:41Z</time>
      </trkpt>
      <trkpt lat="45.8946" lon="4.9458">
        <ele>274</ele>
        <time>2016-09-08T09:43:42Z</time>
      </trkpt>
      <trkpt lat="45.89459" lon="4.94588">
        <ele>274</ele>
        <time>2016-09-08T09:43:43Z</time>
      </trkpt>
      <trkpt lat="45.89458" lon="4.94597">
        <ele>274</ele>
        <time>2016-09-08T09:43:44Z</time>
      </trkpt>
      <trkpt lat="45.89457" lon="4.94605">
        <ele>274</ele>
        <time>2016-09-08T09:43:45Z</time>
      </trkpt>
      <trkpt lat="45.89456" lon="4.94613">
        <ele>274</ele>
        <time>2016-09-08T09:43:46Z</time>
      </trkpt>
      <trkpt lat="45.89453" lon="4.9462">
        <ele>274</ele>
        <time>2016-09-08T09:43:47Z</time>
      </trkpt>
      <trkpt lat="45.89451" lon="4.94628">
        <ele>274</ele>
        <time>2016-09-08T09:43:48Z</time>
      </trkpt>
      <trkpt lat="45.89449" lon="4.94636">
        <ele>274</ele>
        <time>2016-09-08T09:43:49Z</time>
      </trkpt>
      <trkpt lat="45.89447" lon="4.94645">
        <ele>274</ele>
        <time>2016-09-08T09:43:50Z</time>
      </trkpt>
      <trkpt lat="45.89446" lon="4.94654">
        <ele>273</ele>
        <time>2016-09-08T09:43:51Z</time>
      </trkpt>
      <trkpt lat="45.89444" lon="4.94663">
        <ele>273</ele>
        <time>2016-09-08T09:43:52Z</time>
      </trkpt>
      <trkpt lat="45.89442" lon="4.94672">
        <ele>274</ele>
        <time>2016-09-08T09:43:53Z</time>
      </trkpt>
      <trkpt lat="45.8944" lon="4.9468">
        <ele>274</ele>
        <time>2016-09-08T09:43:54Z</time>
      </trkpt>
      <trkpt lat="45.89437" lon="4.94689">
        <ele>274</ele>
        <time>2016-09-08T09:43:55Z</time>
      </trkpt>
      <trkpt lat="45.89435" lon="4.94697">
        <ele>274</ele>
        <time>2016-09-08T09:43:56Z</time>
      </trkpt>
      <trkpt lat="45.89433" lon="4.94704">
        <ele>274</ele>
        <time>2016-09-08T09:43:57Z</time>
      </trkpt>
      <trkpt lat="45.89431" lon="4.94712">
        <ele>274</ele>
        <time>2016-09-08T09:43:58Z</time>
      </trkpt>
      <trkpt lat="45.89428" lon="4.9472">
        <ele>274</ele>
        <time>2016-09-08T09:43:59Z</time>
      </trkpt>
      <trkpt lat="45.89426" lon="4.94728">
        <ele>274</ele>
        <time>2016-09-08T09:44:00Z</time>
      </trkpt>
      <trkpt lat="45.89424" lon="4.94736">
        <ele>274</ele>
        <time>2016-09-08T09:44:01Z</time>
      </trkpt>
      <trkpt lat="45.89421" lon="4.94744">
        <ele>273</ele>
        <time>2016-09-08T09:44:02Z</time>
      </trkpt>
      <trkpt lat="45.89419" lon="4.94752">
        <ele>273</ele>
        <time>2016-09-08T09:44:03Z</time>
      </trkpt>
      <trkpt lat="45.89416" lon="4.9476">
        <ele>273</ele>
        <time>2016-09-08T09:44:04Z</time>
      </trkpt>
      <trkpt lat="45.89414" lon="4.94768">
        <ele>273</ele>
        <time>2016-09-08T09:44:05Z</time>
      </trkpt>
      <trkpt lat="45.89412" lon="4.94776">
        <ele>272</ele>
        <time>2016-09-08T09:44:06Z</time>
      </trkpt>
      <trkpt lat="45.89409" lon="4.94785">
        <ele>272</ele>
        <time>2016-09-08T09:44:07Z</time>
      </trkpt>
      <trkpt lat="45.89407" lon="4.94793">
        <ele>273</ele>
        <time>2016-09-08T09:44:08Z</time>
      </trkpt>
      <trkpt lat="45.89405" lon="4.94801">
        <ele>273</ele>
        <time>2016-09-08T09:44:09Z</time>
      </trkpt>
      <trkpt lat="45.89403" lon="4.94809">
        <ele>273</ele>
        <time>2016-09-08T09:44:10Z</time>
      </trkpt>
      <trkpt lat="45.894" lon="4.94816">
        <ele>273</ele>
        <time>2016-09-08T09:44:11Z</time>
      </trkpt>
      <trkpt lat="45.89397" lon="4.94824">
        <ele>273</ele>
        <time>2016-09-08T09:44:12Z</time>
      </trkpt>
      <trkpt lat="45.89394" lon="4.94832">
        <ele>273</ele>
        <time>2016-09-08T09:44:13Z</time>
      </trkpt>
      <trkpt lat="45.89392" lon="4.94841">
        <ele>273</ele>
        <time>2016-09-08T09:44:14Z</time>
      </trkpt>
      <trkpt lat="45.89389" lon="4.94849">
        <ele>273</ele>
        <time>2016-09-08T09:44:15Z</time>
      </trkpt>
      <trkpt lat="45.89387" lon="4.94858">
        <ele>273</ele>
        <time>2016-09-08T09:44:16Z</time>
      </trkpt>
      <trkpt lat="45.89384" lon="4.94867">
        <ele>273</ele>
        <time>2016-09-08T09:44:17Z</time>
      </trkpt>
      <trkpt lat="45.89381" lon="4.94877">
        <ele>273</ele>
        <time>2016-09-08T09:44:18Z</time>
      </trkpt>
      <trkpt lat="45.89378" lon="4.94885">
        <ele>273</ele>
        <time>2016-09-08T09:44:19Z</time>
      </trkpt>
      <trkpt lat="45.89375" lon="4.94893">
        <ele>273</ele>
        <time>2016-09-08T09:44:20Z</time>
      </trkpt>
      <trkpt lat="45.89373" lon="4.94901">
        <ele>273</ele>
        <time>2016-09-08T09:44:21Z</time>
      </trkpt>
      <trkpt lat="45.89371" lon="4.94909">
        <ele>273</ele>
        <time>2016-09-08T09:44:22Z</time>
      </trkpt>
      <trkpt lat="45.89369" lon="4.94917">
        <ele>273</ele>
        <time>2016-09-08T09:44:23Z</time>
      </trkpt>
      <trkpt lat="45.89367" lon="4.94925">
        <ele>274</ele>
        <time>2016-09-08T09:44:24Z</time>
      </trkpt>
      <trkpt lat="45.89366" lon="4.94933">
        <ele>274</ele>
        <time>2016-09-08T09:44:25Z</time>
      </trkpt>
      <trkpt lat="45.89363" lon="4.94942">
        <ele>274</ele>
        <time>2016-09-08T09:44:26Z</time>
      </trkpt>
      <trkpt lat="45.89361" lon="4.9495">
        <ele>274</ele>
        <time>2016-09-08T09:44:27Z</time>
      </trkpt>
      <trkpt lat="45.89359" lon="4.94959">
        <ele>274</ele>
        <time>2016-09-08T09:44:28Z</time>
      </trkpt>
      <trkpt lat="45.89357" lon="4.94967">
        <ele>274</ele>
        <time>2016-09-08T09:44:29Z</time>
      </trkpt>
      <trkpt lat="45.89354" lon="4.94975">
        <ele>273</ele>
        <time>2016-09-08T09:44:30Z</time>
      </trkpt>
      <trkpt lat="45.89352" lon="4.94984">
        <ele>273</ele>
        <time>2016-09-08T09:44:31Z</time>
      </trkpt>
      <trkpt lat="45.89349" lon="4.94992">
        <ele>273</ele>
        <time>2016-09-08T09:44:32Z</time>
      </trkpt>
      <trkpt lat="45.89347" lon="4.95">
        <ele>273</ele>
        <time>2016-09-08T09:44:33Z</time>
      </trkpt>
      <trkpt lat="45.89345" lon="4.95007">
        <ele>273</ele>
        <time>2016-09-08T09:44:34Z</time>
      </trkpt>
      <trkpt lat="45.89342" lon="4.95014">
        <ele>273</ele>
        <time>2016-09-08T09:44:35Z</time>
      </trkpt>
      <trkpt lat="45.8934" lon="4.95023">
        <ele>274</ele>
        <time>2016-09-08T09:44:36Z</time>
      </trkpt>
      <trkpt lat="45.89338" lon="4.95031">
        <ele>274</ele>
        <time>2016-09-08T09:44:37Z</time>
      </trkpt>
      <trkpt lat="45.89336" lon="4.95039">
        <ele>274</ele>
        <time>2016-09-08T09:44:38Z</time>
      </trkpt>
      <trkpt lat="45.89333" lon="4.95048">
        <ele>273</ele>
        <time>2016-09-08T09:44:39Z</time>
      </trkpt>
      <trkpt lat="45.89331" lon="4.95056">
        <ele>273</ele>
        <time>2016-09-08T09:44:40Z</time>
      </trkpt>
      <trkpt lat="45.89328" lon="4.95065">
        <ele>273</ele>
        <time>2016-09-08T09:44:41Z</time>
      </trkpt>
      <trkpt lat="45.89326" lon="4.95073">
        <ele>273</ele>
        <time>2016-09-08T09:44:42Z</time>
      </trkpt>
      <trkpt lat="45.89323" lon="4.95081">
        <ele>274</ele>
        <time>2016-09-08T09:44:43Z</time>
      </trkpt>
      <trkpt lat="45.89321" lon="4.95089">
        <ele>274</ele>
        <time>2016-09-08T09:44:44Z</time>
      </trkpt>
      <trkpt lat="45.89318" lon="4.95097">
        <ele>274</ele>
        <time>2016-09-08T09:44:45Z</time>
      </trkpt>
      <trkpt lat="45.89315" lon="4.95104">
        <ele>274</ele>
        <time>2016-09-08T09:44:46Z</time>
      </trkpt>
      <trkpt lat="45.89313" lon="4.95112">
        <ele>274</ele>
        <time>2016-09-08T09:44:47Z</time>
      </trkpt>
      <trkpt lat="45.89311" lon="4.95119">
        <ele>274</ele>
        <time>2016-09-08T09:44:48Z</time>
      </trkpt>
      <trkpt lat="45.8931" lon="4.95126">
        <ele>275</ele>
        <time>2016-09-08T09:44:49Z</time>
      </trkpt>
      <trkpt lat="45.89308" lon="4.95134">
        <ele>275</ele>
        <time>2016-09-08T09:44:50Z</time>
      </trkpt>
      <trkpt lat="45.89308" lon="4.95142">
        <ele>275</ele>
        <time>2016-09-08T09:44:51Z</time>
      </trkpt>
      <trkpt lat="45.89308" lon="4.95151">
        <ele>275</ele>
        <time>2016-09-08T09:44:52Z</time>
      </trkpt>
      <trkpt lat="45.89308" lon="4.95159">
        <ele>275</ele>
        <time>2016-09-08T09:44:53Z</time>
      </trkpt>
      <trkpt lat="45.89309" lon="4.95167">
        <ele>275</ele>
        <time>2016-09-08T09:44:54Z</time>
      </trkpt>
      <trkpt lat="45.8931" lon="4.95176">
        <ele>275</ele>
        <time>2016-09-08T09:44:55Z</time>
      </trkpt>
      <trkpt lat="45.89312" lon="4.95184">
        <ele>275</ele>
        <time>2016-09-08T09:44:56Z</time>
      </trkpt>
      <trkpt lat="45.89314" lon="4.95192">
        <ele>275</ele>
        <time>2016-09-08T09:44:57Z</time>
      </trkpt>
      <trkpt lat="45.89316" lon="4.952">
        <ele>275</ele>
        <time>2016-09-08T09:44:58Z</time>
      </trkpt>
      <trkpt lat="45.89317" lon="4.95208">
        <ele>275</ele>
        <time>2016-09-08T09:44:59Z</time>
      </trkpt>
      <trkpt lat="45.89318" lon="4.95216">
        <ele>275</ele>
        <time>2016-09-08T09:45:00Z</time>
      </trkpt>
      <trkpt lat="45.8932" lon="4.95225">
        <ele>275</ele>
        <time>2016-09-08T09:45:01Z</time>
      </trkpt>
      <trkpt lat="45.89322" lon="4.95234">
        <ele>275</ele>
        <time>2016-09-08T09:45:02Z</time>
      </trkpt>
      <trkpt lat="45.89324" lon="4.95242">
        <ele>274</ele>
        <time>2016-09-08T09:45:03Z</time>
      </trkpt>
      <trkpt lat="45.89326" lon="4.95251">
        <ele>274</ele>
        <time>2016-09-08T09:45:04Z</time>
      </trkpt>
      <trkpt lat="45.89329" lon="4.9526">
        <ele>274</ele>
        <time>2016-09-08T09:45:05Z</time>
      </trkpt>
      <trkpt lat="45.89331" lon="4.9527">
        <ele>274</ele>
        <time>2016-09-08T09:45:06Z</time>
      </trkpt>
      <trkpt lat="45.89333" lon="4.95279">
        <ele>274</ele>
        <time>2016-09-08T09:45:07Z</time>
      </trkpt>
      <trkpt lat="45.89335" lon="4.95287">
        <ele>274</ele>
        <time>2016-09-08T09:45:08Z</time>
      </trkpt>
      <trkpt lat="45.89337" lon="4.95296">
        <ele>274</ele>
        <time>2016-09-08T09:45:09Z</time>
      </trkpt>
      <trkpt lat="45.89338" lon="4.95305">
        <ele>274</ele>
        <time>2016-09-08T09:45:10Z</time>
      </trkpt>
      <trkpt lat="45.8934" lon="4.95313">
        <ele>274</ele>
        <time>2016-09-08T09:45:11Z</time>
      </trkpt>
      <trkpt lat="45.89342" lon="4.95322">
        <ele>274</ele>
        <time>2016-09-08T09:45:12Z</time>
      </trkpt>
      <trkpt lat="45.89344" lon="4.9533">
        <ele>274</ele>
        <time>2016-09-08T09:45:13Z</time>
      </trkpt>
      <trkpt lat="45.89346" lon="4.95339">
        <ele>274</ele>
        <time>2016-09-08T09:45:14Z</time>
      </trkpt>
      <trkpt lat="45.89348" lon="4.95347">
        <ele>274</ele>
        <time>2016-09-08T09:45:15Z</time>
      </trkpt>
      <trkpt lat="45.8935" lon="4.95356">
        <ele>274</ele>
        <time>2016-09-08T09:45:16Z</time>
      </trkpt>
      <trkpt lat="45.89352" lon="4.95365">
        <ele>274</ele>
        <time>2016-09-08T09:45:17Z</time>
      </trkpt>
      <trkpt lat="45.89354" lon="4.95373">
        <ele>274</ele>
        <time>2016-09-08T09:45:18Z</time>
      </trkpt>
      <trkpt lat="45.89356" lon="4.95382">
        <ele>274</ele>
        <time>2016-09-08T09:45:19Z</time>
      </trkpt>
      <trkpt lat="45.89359" lon="4.9539">
        <ele>274</ele>
        <time>2016-09-08T09:45:20Z</time>
      </trkpt>
      <trkpt lat="45.89361" lon="4.95398">
        <ele>274</ele>
        <time>2016-09-08T09:45:21Z</time>
      </trkpt>
      <trkpt lat="45.89364" lon="4.95407">
        <ele>275</ele>
        <time>2016-09-08T09:45:22Z</time>
      </trkpt>
      <trkpt lat="45.89365" lon="4.95416">
        <ele>275</ele>
        <time>2016-09-08T09:45:23Z</time>
      </trkpt>
      <trkpt lat="45.89368" lon="4.95425">
        <ele>275</ele>
        <time>2016-09-08T09:45:24Z</time>
      </trkpt>
      <trkpt lat="45.89369" lon="4.95434">
        <ele>275</ele>
        <time>2016-09-08T09:45:25Z</time>
      </trkpt>
      <trkpt lat="45.89371" lon="4.95443">
        <ele>275</ele>
        <time>2016-09-08T09:45:26Z</time>
      </trkpt>
      <trkpt lat="45.89373" lon="4.95452">
        <ele>275</ele>
        <time>2016-09-08T09:45:27Z</time>
      </trkpt>
      <trkpt lat="45.89375" lon="4.9546">
        <ele>276</ele>
        <time>2016-09-08T09:45:28Z</time>
      </trkpt>
      <trkpt lat="45.89377" lon="4.95469">
        <ele>276</ele>
        <time>2016-09-08T09:45:29Z</time>
      </trkpt>
      <trkpt lat="45.89378" lon="4.95477">
        <ele>276</ele>
        <time>2016-09-08T09:45:30Z</time>
      </trkpt>
      <trkpt lat="45.8938" lon="4.95484">
        <ele>276</ele>
        <time>2016-09-08T09:45:31Z</time>
      </trkpt>
      <trkpt lat="45.89382" lon="4.95492">
        <ele>276</ele>
        <time>2016-09-08T09:45:32Z</time>
      </trkpt>
      <trkpt lat="45.89384" lon="4.95499">
        <ele>276</ele>
        <time>2016-09-08T09:45:33Z</time>
      </trkpt>
      <trkpt lat="45.89386" lon="4.95507">
        <ele>277</ele>
        <time>2016-09-08T09:45:34Z</time>
      </trkpt>
      <trkpt lat="45.89387" lon="4.95514">
        <ele>277</ele>
        <time>2016-09-08T09:45:35Z</time>
      </trkpt>
      <trkpt lat="45.89389" lon="4.95521">
        <ele>277</ele>
        <time>2016-09-08T09:45:36Z</time>
      </trkpt>
      <trkpt lat="45.8939" lon="4.95529">
        <ele>277</ele>
        <time>2016-09-08T09:45:37Z</time>
      </trkpt>
      <trkpt lat="45.89392" lon="4.95535">
        <ele>277</ele>
        <time>2016-09-08T09:45:38Z</time>
      </trkpt>
      <trkpt lat="45.89393" lon="4.95542">
        <ele>277</ele>
        <time>2016-09-08T09:45:39Z</time>
      </trkpt>
      <trkpt lat="45.89394" lon="4.95548">
        <ele>277</ele>
        <time>2016-09-08T09:45:40Z</time>
      </trkpt>
      <trkpt lat="45.89396" lon="4.95555">
        <ele>277</ele>
        <time>2016-09-08T09:45:41Z</time>
      </trkpt>
      <trkpt lat="45.89397" lon="4.95562">
        <ele>277</ele>
        <time>2016-09-08T09:45:42Z</time>
      </trkpt>
      <trkpt lat="45.89398" lon="4.95568">
        <ele>277</ele>
        <time>2016-09-08T09:45:43Z</time>
      </trkpt>
      <trkpt lat="45.894" lon="4.95576">
        <ele>277</ele>
        <time>2016-09-08T09:45:44Z</time>
      </trkpt>
      <trkpt lat="45.89401" lon="4.95583">
        <ele>277</ele>
        <time>2016-09-08T09:45:45Z</time>
      </trkpt>
      <trkpt lat="45.89403" lon="4.95591">
        <ele>278</ele>
        <time>2016-09-08T09:45:46Z</time>
      </trkpt>
      <trkpt lat="45.89404" lon="4.95598">
        <ele>278</ele>
        <time>2016-09-08T09:45:47Z</time>
      </trkpt>
      <trkpt lat="45.89406" lon="4.95606">
        <ele>278</ele>
        <time>2016-09-08T09:45:48Z</time>
      </trkpt>
      <trkpt lat="45.89407" lon="4.95613">
        <ele>278</ele>
        <time>2016-09-08T09:45:49Z</time>
      </trkpt>
      <trkpt lat="45.89409" lon="4.9562">
        <ele>278</ele>
        <time>2016-09-08T09:45:50Z</time>
      </trkpt>
      <trkpt lat="45.8941" lon="4.95628">
        <ele>278</ele>
        <time>2016-09-08T09:45:51Z</time>
      </trkpt>
      <trkpt lat="45.89411" lon="4.95635">
        <ele>278</ele>
        <time>2016-09-08T09:45:52Z</time>
      </trkpt>
      <trkpt lat="45.89411" lon="4.95642">
        <ele>279</ele>
        <time>2016-09-08T09:45:53Z</time>
      </trkpt>
      <trkpt lat="45.89413" lon="4.95648">
        <ele>279</ele>
        <time>2016-09-08T09:45:54Z</time>
      </trkpt>
      <trkpt lat="45.89415" lon="4.95655">
        <ele>279</ele>
        <time>2016-09-08T09:45:55Z</time>
      </trkpt>
      <trkpt lat="45.89416" lon="4.95661">
        <ele>279</ele>
        <time>2016-09-08T09:45:56Z</time>
      </trkpt>
      <trkpt lat="45.89418" lon="4.95667">
        <ele>279</ele>
        <time>2016-09-08T09:45:57Z</time>
      </trkpt>
      <trkpt lat="45.8942" lon="4.95674">
        <ele>279</ele>
        <time>2016-09-08T09:45:58Z</time>
      </trkpt>
      <trkpt lat="45.89422" lon="4.95681">
        <ele>278</ele>
        <time>2016-09-08T09:45:59Z</time>
      </trkpt>
      <trkpt lat="45.89423" lon="4.95687">
        <ele>278</ele>
        <time>2016-09-08T09:46:00Z</time>
      </trkpt>
      <trkpt lat="45.89425" lon="4.95694">
        <ele>278</ele>
        <time>2016-09-08T09:46:01Z</time>
      </trkpt>
      <trkpt lat="45.89427" lon="4.95701">
        <ele>278</ele>
        <time>2016-09-08T09:46:02Z</time>
      </trkpt>
      <trkpt lat="45.89429" lon="4.95707">
        <ele>278</ele>
        <time>2016-09-08T09:46:03Z</time>
      </trkpt>
      <trkpt lat="45.89431" lon="4.95713">
        <ele>278</ele>
        <time>2016-09-08T09:46:04Z</time>
      </trkpt>
      <trkpt lat="45.89432" lon="4.95719">
        <ele>278</ele>
        <time>2016-09-08T09:46:05Z</time>
      </trkpt>
      <trkpt lat="45.89434" lon="4.95725">
        <ele>278</ele>
        <time>2016-09-08T09:46:06Z</time>
      </trkpt>
      <trkpt lat="45.89436" lon="4.95732">
        <ele>278</ele>
        <time>2016-09-08T09:46:07Z</time>
      </trkpt>
      <trkpt lat="45.89437" lon="4.95739">
        <ele>279</ele>
        <time>2016-09-08T09:46:08Z</time>
      </trkpt>
      <trkpt lat="45.89439" lon="4.95747">
        <ele>279</ele>
        <time>2016-09-08T09:46:09Z</time>
      </trkpt>
      <trkpt lat="45.89441" lon="4.95754">
        <ele>279</ele>
        <time>2016-09-08T09:46:10Z</time>
      </trkpt>
      <trkpt lat="45.89442" lon="4.95762">
        <ele>279</ele>
        <time>2016-09-08T09:46:11Z</time>
      </trkpt>
      <trkpt lat="45.89444" lon="4.95769">
        <ele>279</ele>
        <time>2016-09-08T09:46:12Z</time>
      </trkpt>
      <trkpt lat="45.89446" lon="4.95777">
        <ele>279</ele>
        <time>2016-09-08T09:46:13Z</time>
      </trkpt>
      <trkpt lat="45.89448" lon="4.95784">
        <ele>278</ele>
        <time>2016-09-08T09:46:14Z</time>
      </trkpt>
      <trkpt lat="45.8945" lon="4.95791">
        <ele>278</ele>
        <time>2016-09-08T09:46:15Z</time>
      </trkpt>
      <trkpt lat="45.89451" lon="4.95797">
        <ele>278</ele>
        <time>2016-09-08T09:46:16Z</time>
      </trkpt>
      <trkpt lat="45.89453" lon="4.95804">
        <ele>278</ele>
        <time>2016-09-08T09:46:17Z</time>
      </trkpt>
      <trkpt lat="45.89455" lon="4.95811">
        <ele>278</ele>
        <time>2016-09-08T09:46:18Z</time>
      </trkpt>
      <trkpt lat="45.89456" lon="4.95818">
        <ele>278</ele>
        <time>2016-09-08T09:46:19Z</time>
      </trkpt>
      <trkpt lat="45.89457" lon="4.95825">
        <ele>278</ele>
        <time>2016-09-08T09:46:20Z</time>
      </trkpt>
      <trkpt lat="45.89459" lon="4.95832">
        <ele>278</ele>
        <time>2016-09-08T09:46:21Z</time>
      </trkpt>
      <trkpt lat="45.89459" lon="4.9584">
        <ele>278</ele>
        <time>2016-09-08T09:46:22Z</time>
      </trkpt>
      <trkpt lat="45.89461" lon="4.95848">
        <ele>278</ele>
        <time>2016-09-08T09:46:23Z</time>
      </trkpt>
      <trkpt lat="45.89462" lon="4.95855">
        <ele>278</ele>
        <time>2016-09-08T09:46:24Z</time>
      </trkpt>
      <trkpt lat="45.89464" lon="4.95863">
        <ele>278</ele>
        <time>2016-09-08T09:46:25Z</time>
      </trkpt>
      <trkpt lat="45.89465" lon="4.9587">
        <ele>278</ele>
        <time>2016-09-08T09:46:26Z</time>
      </trkpt>
      <trkpt lat="45.89466" lon="4.95877">
        <ele>278</ele>
        <time>2016-09-08T09:46:27Z</time>
      </trkpt>
      <trkpt lat="45.89468" lon="4.95884">
        <ele>278</ele>
        <time>2016-09-08T09:46:28Z</time>
      </trkpt>
      <trkpt lat="45.89469" lon="4.95891">
        <ele>278</ele>
        <time>2016-09-08T09:46:29Z</time>
      </trkpt>
      <trkpt lat="45.89469" lon="4.95898">
        <ele>278</ele>
        <time>2016-09-08T09:46:30Z</time>
      </trkpt>
      <trkpt lat="45.89471" lon="4.9591">
        <ele>278</ele>
        <time>2016-09-08T09:46:32Z</time>
      </trkpt>
      <trkpt lat="45.89472" lon="4.95916">
        <ele>278</ele>
        <time>2016-09-08T09:46:33Z</time>
      </trkpt>
      <trkpt lat="45.89473" lon="4.95923">
        <ele>278</ele>
        <time>2016-09-08T09:46:34Z</time>
      </trkpt>
      <trkpt lat="45.89473" lon="4.95931">
        <ele>278</ele>
        <time>2016-09-08T09:46:35Z</time>
      </trkpt>
      <trkpt lat="45.89474" lon="4.95938">
        <ele>278</ele>
        <time>2016-09-08T09:46:36Z</time>
      </trkpt>
      <trkpt lat="45.89475" lon="4.95946">
        <ele>278</ele>
        <time>2016-09-08T09:46:37Z</time>
      </trkpt>
      <trkpt lat="45.89475" lon="4.95954">
        <ele>278</ele>
        <time>2016-09-08T09:46:38Z</time>
      </trkpt>
      <trkpt lat="45.89476" lon="4.95962">
        <ele>278</ele>
        <time>2016-09-08T09:46:39Z</time>
      </trkpt>
      <trkpt lat="45.89477" lon="4.95969">
        <ele>278</ele>
        <time>2016-09-08T09:46:40Z</time>
      </trkpt>
      <trkpt lat="45.89478" lon="4.95977">
        <ele>278</ele>
        <time>2016-09-08T09:46:41Z</time>
      </trkpt>
      <trkpt lat="45.89479" lon="4.95984">
        <ele>277</ele>
        <time>2016-09-08T09:46:42Z</time>
      </trkpt>
      <trkpt lat="45.8948" lon="4.95991">
        <ele>277</ele>
        <time>2016-09-08T09:46:43Z</time>
      </trkpt>
      <trkpt lat="45.8948" lon="4.95998">
        <ele>277</ele>
        <time>2016-09-08T09:46:44Z</time>
      </trkpt>
      <trkpt lat="45.89481" lon="4.96005">
        <ele>278</ele>
        <time>2016-09-08T09:46:45Z</time>
      </trkpt>
      <trkpt lat="45.89481" lon="4.96012">
        <ele>278</ele>
        <time>2016-09-08T09:46:46Z</time>
      </trkpt>
      <trkpt lat="45.89481" lon="4.96019">
        <ele>278</ele>
        <time>2016-09-08T09:46:47Z</time>
      </trkpt>
      <trkpt lat="45.89481" lon="4.96026">
        <ele>278</ele>
        <time>2016-09-08T09:46:48Z</time>
      </trkpt>
      <trkpt lat="45.8948" lon="4.96032">
        <ele>278</ele>
        <time>2016-09-08T09:46:49Z</time>
      </trkpt>
      <trkpt lat="45.8948" lon="4.96039">
        <ele>278</ele>
        <time>2016-09-08T09:46:50Z</time>
      </trkpt>
      <trkpt lat="45.8948" lon="4.96046">
        <ele>278</ele>
        <time>2016-09-08T09:46:51Z</time>
      </trkpt>
      <trkpt lat="45.8948" lon="4.96052">
        <ele>278</ele>
        <time>2016-09-08T09:46:52Z</time>
      </trkpt>
      <trkpt lat="45.8948" lon="4.96059">
        <ele>278</ele>
        <time>2016-09-08T09:46:53Z</time>
      </trkpt>
      <trkpt lat="45.8948" lon="4.96066">
        <ele>278</ele>
        <time>2016-09-08T09:46:54Z</time>
      </trkpt>
      <trkpt lat="45.8948" lon="4.96073">
        <ele>278</ele>
        <time>2016-09-08T09:46:55Z</time>
      </trkpt>
      <trkpt lat="45.89479" lon="4.9608">
        <ele>278</ele>
        <time>2016-09-08T09:46:56Z</time>
      </trkpt>
      <trkpt lat="45.89479" lon="4.96087">
        <ele>279</ele>
        <time>2016-09-08T09:46:57Z</time>
      </trkpt>
      <trkpt lat="45.89479" lon="4.96094">
        <ele>279</ele>
        <time>2016-09-08T09:46:58Z</time>
      </trkpt>
      <trkpt lat="45.89479" lon="4.96102">
        <ele>279</ele>
        <time>2016-09-08T09:46:59Z</time>
      </trkpt>
      <trkpt lat="45.89479" lon="4.9611">
        <ele>279</ele>
        <time>2016-09-08T09:47:00Z</time>
      </trkpt>
      <trkpt lat="45.8948" lon="4.96118">
        <ele>279</ele>
        <time>2016-09-08T09:47:01Z</time>
      </trkpt>
      <trkpt lat="45.8948" lon="4.96126">
        <ele>279</ele>
        <time>2016-09-08T09:47:02Z</time>
      </trkpt>
      <trkpt lat="45.89481" lon="4.96133">
        <ele>279</ele>
        <time>2016-09-08T09:47:03Z</time>
      </trkpt>
      <trkpt lat="45.89482" lon="4.9614">
        <ele>279</ele>
        <time>2016-09-08T09:47:04Z</time>
      </trkpt>
      <trkpt lat="45.89483" lon="4.96146">
        <ele>279</ele>
        <time>2016-09-08T09:47:05Z</time>
      </trkpt>
      <trkpt lat="45.89484" lon="4.96153">
        <ele>280</ele>
        <time>2016-09-08T09:47:06Z</time>
      </trkpt>
      <trkpt lat="45.89484" lon="4.9616">
        <ele>280</ele>
        <time>2016-09-08T09:47:07Z</time>
      </trkpt>
      <trkpt lat="45.89486" lon="4.96172">
        <ele>280</ele>
        <time>2016-09-08T09:47:09Z</time>
      </trkpt>
      <trkpt lat="45.89487" lon="4.96178">
        <ele>280</ele>
        <time>2016-09-08T09:47:10Z</time>
      </trkpt>
      <trkpt lat="45.89489" lon="4.96185">
        <ele>280</ele>
        <time>2016-09-08T09:47:11Z</time>
      </trkpt>
      <trkpt lat="45.89491" lon="4.96191">
        <ele>280</ele>
        <time>2016-09-08T09:47:12Z</time>
      </trkpt>
      <trkpt lat="45.89493" lon="4.96198">
        <ele>280</ele>
        <time>2016-09-08T09:47:13Z</time>
      </trkpt>
      <trkpt lat="45.89494" lon="4.96205">
        <ele>280</ele>
        <time>2016-09-08T09:47:14Z</time>
      </trkpt>
      <trkpt lat="45.89496" lon="4.96211">
        <ele>280</ele>
        <time>2016-09-08T09:47:15Z</time>
      </trkpt>
      <trkpt lat="45.89499" lon="4.96218">
        <ele>280</ele>
        <time>2016-09-08T09:47:16Z</time>
      </trkpt>
      <trkpt lat="45.89501" lon="4.96224">
        <ele>281</ele>
        <time>2016-09-08T09:47:17Z</time>
      </trkpt>
      <trkpt lat="45.89504" lon="4.9623">
        <ele>281</ele>
        <time>2016-09-08T09:47:18Z</time>
      </trkpt>
      <trkpt lat="45.89506" lon="4.96236">
        <ele>281</ele>
        <time>2016-09-08T09:47:19Z</time>
      </trkpt>
      <trkpt lat="45.89509" lon="4.96242">
        <ele>281</ele>
        <time>2016-09-08T09:47:20Z</time>
      </trkpt>
      <trkpt lat="45.89511" lon="4.96248">
        <ele>281</ele>
        <time>2016-09-08T09:47:21Z</time>
      </trkpt>
      <trkpt lat="45.89513" lon="4.96254">
        <ele>281</ele>
        <time>2016-09-08T09:47:22Z</time>
      </trkpt>
      <trkpt lat="45.89514" lon="4.9626">
        <ele>281</ele>
        <time>2016-09-08T09:47:23Z</time>
      </trkpt>
      <trkpt lat="45.89516" lon="4.96266">
        <ele>282</ele>
        <time>2016-09-08T09:47:24Z</time>
      </trkpt>
      <trkpt lat="45.89518" lon="4.96272">
        <ele>282</ele>
        <time>2016-09-08T09:47:25Z</time>
      </trkpt>
      <trkpt lat="45.8952" lon="4.96278">
        <ele>282</ele>
        <time>2016-09-08T09:47:26Z</time>
      </trkpt>
      <trkpt lat="45.89523" lon="4.96284">
        <ele>282</ele>
        <time>2016-09-08T09:47:27Z</time>
      </trkpt>
      <trkpt lat="45.89525" lon="4.9629">
        <ele>282</ele>
        <time>2016-09-08T09:47:28Z</time>
      </trkpt>
      <trkpt lat="45.89528" lon="4.96296">
        <ele>282</ele>
        <time>2016-09-08T09:47:29Z</time>
      </trkpt>
      <trkpt lat="45.8953" lon="4.96303">
        <ele>282</ele>
        <time>2016-09-08T09:47:30Z</time>
      </trkpt>
      <trkpt lat="45.89532" lon="4.96309">
        <ele>282</ele>
        <time>2016-09-08T09:47:31Z</time>
      </trkpt>
      <trkpt lat="45.89535" lon="4.96314">
        <ele>282</ele>
        <time>2016-09-08T09:47:32Z</time>
      </trkpt>
      <trkpt lat="45.89537" lon="4.9632">
        <ele>282</ele>
        <time>2016-09-08T09:47:33Z</time>
      </trkpt>
      <trkpt lat="45.89539" lon="4.96326">
        <ele>282</ele>
        <time>2016-09-08T09:47:34Z</time>
      </trkpt>
      <trkpt lat="45.89541" lon="4.96333">
        <ele>282</ele>
        <time>2016-09-08T09:47:35Z</time>
      </trkpt>
      <trkpt lat="45.89543" lon="4.96339">
        <ele>283</ele>
        <time>2016-09-08T09:47:36Z</time>
      </trkpt>
      <trkpt lat="45.89545" lon="4.96346">
        <ele>283</ele>
        <time>2016-09-08T09:47:37Z</time>
      </trkpt>
      <trkpt lat="45.89547" lon="4.96353">
        <ele>283</ele>
        <time>2016-09-08T09:47:38Z</time>
      </trkpt>
      <trkpt lat="45.89549" lon="4.9636">
        <ele>283</ele>
        <time>2016-09-08T09:47:39Z</time>
      </trkpt>
      <trkpt lat="45.89552" lon="4.96366">
        <ele>283</ele>
        <time>2016-09-08T09:47:40Z</time>
      </trkpt>
      <trkpt lat="45.89554" lon="4.96372">
        <ele>283</ele>
        <time>2016-09-08T09:47:41Z</time>
      </trkpt>
      <trkpt lat="45.89556" lon="4.96379">
        <ele>283</ele>
        <time>2016-09-08T09:47:42Z</time>
      </trkpt>
      <trkpt lat="45.89558" lon="4.96385">
        <ele>283</ele>
        <time>2016-09-08T09:47:43Z</time>
      </trkpt>
      <trkpt lat="45.8956" lon="4.96391">
        <ele>283</ele>
        <time>2016-09-08T09:47:44Z</time>
      </trkpt>
      <trkpt lat="45.89562" lon="4.96397">
        <ele>283</ele>
        <time>2016-09-08T09:47:45Z</time>
      </trkpt>
      <trkpt lat="45.89563" lon="4.96403">
        <ele>283</ele>
        <time>2016-09-08T09:47:46Z</time>
      </trkpt>
      <trkpt lat="45.89567" lon="4.96415">
        <ele>284</ele>
        <time>2016-09-08T09:47:48Z</time>
      </trkpt>
      <trkpt lat="45.89568" lon="4.96421">
        <ele>284</ele>
        <time>2016-09-08T09:47:49Z</time>
      </trkpt>
      <trkpt lat="45.8957" lon="4.96427">
        <ele>284</ele>
        <time>2016-09-08T09:47:50Z</time>
      </trkpt>
      <trkpt lat="45.89572" lon="4.96433">
        <ele>284</ele>
        <time>2016-09-08T09:47:51Z</time>
      </trkpt>
      <trkpt lat="45.89573" lon="4.96439">
        <ele>284</ele>
        <time>2016-09-08T09:47:52Z</time>
      </trkpt>
      <trkpt lat="45.89575" lon="4.96446">
        <ele>284</ele>
        <time>2016-09-08T09:47:53Z</time>
      </trkpt>
      <trkpt lat="45.89577" lon="4.96452">
        <ele>284</ele>
        <time>2016-09-08T09:47:54Z</time>
      </trkpt>
      <trkpt lat="45.89579" lon="4.96459">
        <ele>285</ele>
        <time>2016-09-08T09:47:55Z</time>
      </trkpt>
      <trkpt lat="45.89581" lon="4.96467">
        <ele>285</ele>
        <time>2016-09-08T09:47:56Z</time>
      </trkpt>
      <trkpt lat="45.89582" lon="4.96474">
        <ele>285</ele>
        <time>2016-09-08T09:47:57Z</time>
      </trkpt>
      <trkpt lat="45.89584" lon="4.9648">
        <ele>284</ele>
        <time>2016-09-08T09:47:58Z</time>
      </trkpt>
      <trkpt lat="45.89586" lon="4.96486">
        <ele>285</ele>
        <time>2016-09-08T09:47:59Z</time>
      </trkpt>
      <trkpt lat="45.89588" lon="4.96497">
        <ele>285</ele>
        <time>2016-09-08T09:48:01Z</time>
      </trkpt>
      <trkpt lat="45.8959" lon="4.96502">
        <ele>285</ele>
        <time>2016-09-08T09:48:02Z</time>
      </trkpt>
      <trkpt lat="45.89591" lon="4.96508">
        <ele>286</ele>
        <time>2016-09-08T09:48:03Z</time>
      </trkpt>
      <trkpt lat="45.89593" lon="4.96514">
        <ele>286</ele>
        <time>2016-09-08T09:48:04Z</time>
      </trkpt>
      <trkpt lat="45.89595" lon="4.9652">
        <ele>286</ele>
        <time>2016-09-08T09:48:05Z</time>
      </trkpt>
      <trkpt lat="45.89597" lon="4.96527">
        <ele>286</ele>
        <time>2016-09-08T09:48:06Z</time>
      </trkpt>
      <trkpt lat="45.89599" lon="4.96533">
        <ele>286</ele>
        <time>2016-09-08T09:48:07Z</time>
      </trkpt>
      <trkpt lat="45.89601" lon="4.9654">
        <ele>287</ele>
        <time>2016-09-08T09:48:08Z</time>
      </trkpt>
      <trkpt lat="45.89603" lon="4.96547">
        <ele>287</ele>
        <time>2016-09-08T09:48:09Z</time>
      </trkpt>
      <trkpt lat="45.89604" lon="4.96553">
        <ele>287</ele>
        <time>2016-09-08T09:48:10Z</time>
      </trkpt>
      <trkpt lat="45.89608" lon="4.96564">
        <ele>287</ele>
        <time>2016-09-08T09:48:12Z</time>
      </trkpt>
      <trkpt lat="45.89609" lon="4.9657">
        <ele>288</ele>
        <time>2016-09-08T09:48:13Z</time>
      </trkpt>
      <trkpt lat="45.89612" lon="4.96582">
        <ele>288</ele>
        <time>2016-09-08T09:48:15Z</time>
      </trkpt>
      <trkpt lat="45.89614" lon="4.96588">
        <ele>290</ele>
        <time>2016-09-08T09:48:16Z</time>
      </trkpt>
      <trkpt lat="45.89615" lon="4.96595">
        <ele>290</ele>
        <time>2016-09-08T09:48:17Z</time>
      </trkpt>
      <trkpt lat="45.89617" lon="4.96601">
        <ele>290</ele>
        <time>2016-09-08T09:48:18Z</time>
      </trkpt>
      <trkpt lat="45.89619" lon="4.96612">
        <ele>290</ele>
        <time>2016-09-08T09:48:20Z</time>
      </trkpt>
      <trkpt lat="45.89621" lon="4.96618">
        <ele>290</ele>
        <time>2016-09-08T09:48:21Z</time>
      </trkpt>
      <trkpt lat="45.89623" lon="4.96629">
        <ele>290</ele>
        <time>2016-09-08T09:48:23Z</time>
      </trkpt>
      <trkpt lat="45.89625" lon="4.96636">
        <ele>290</ele>
        <time>2016-09-08T09:48:24Z</time>
      </trkpt>
      <trkpt lat="45.89626" lon="4.96643">
        <ele>290</ele>
        <time>2016-09-08T09:48:25Z</time>
      </trkpt>
      <trkpt lat="45.89628" lon="4.9665">
        <ele>290</ele>
        <time>2016-09-08T09:48:26Z</time>
      </trkpt>
      <trkpt lat="45.8963" lon="4.96657">
        <ele>291</ele>
        <time>2016-09-08T09:48:27Z</time>
      </trkpt>
      <trkpt lat="45.8963" lon="4.96665">
        <ele>291</ele>
        <time>2016-09-08T09:48:28Z</time>
      </trkpt>
      <trkpt lat="45.89629" lon="4.96677">
        <ele>292</ele>
        <time>2016-09-08T09:48:30Z</time>
      </trkpt>
      <trkpt lat="45.89628" lon="4.96682">
        <ele>292</ele>
        <time>2016-09-08T09:48:31Z</time>
      </trkpt>
      <trkpt lat="45.89626" lon="4.96693">
        <ele>292</ele>
        <time>2016-09-08T09:48:33Z</time>
      </trkpt>
      <trkpt lat="45.89624" lon="4.96699">
        <ele>292</ele>
        <time>2016-09-08T09:48:34Z</time>
      </trkpt>
      <trkpt lat="45.89622" lon="4.96711">
        <ele>292</ele>
        <time>2016-09-08T09:48:36Z</time>
      </trkpt>
      <trkpt lat="45.8962" lon="4.96717">
        <ele>292</ele>
        <time>2016-09-08T09:48:37Z</time>
      </trkpt>
      <trkpt lat="45.89618" lon="4.96729">
        <ele>292</ele>
        <time>2016-09-08T09:48:39Z</time>
      </trkpt>
      <trkpt lat="45.89617" lon="4.96735">
        <ele>292</ele>
        <time>2016-09-08T09:48:40Z</time>
      </trkpt>
      <trkpt lat="45.89615" lon="4.96746">
        <ele>292</ele>
        <time>2016-09-08T09:48:42Z</time>
      </trkpt>
      <trkpt lat="45.89614" lon="4.96752">
        <ele>292</ele>
        <time>2016-09-08T09:48:43Z</time>
      </trkpt>
      <trkpt lat="45.89611" lon="4.96762">
        <ele>292</ele>
        <time>2016-09-08T09:48:45Z</time>
      </trkpt>
      <trkpt lat="45.8961" lon="4.96766">
        <ele>292</ele>
        <time>2016-09-08T09:48:46Z</time>
      </trkpt>
      <trkpt lat="45.89608" lon="4.96775">
        <ele>292</ele>
        <time>2016-09-08T09:48:48Z</time>
      </trkpt>
      <trkpt lat="45.89607" lon="4.96779">
        <ele>292</ele>
        <time>2016-09-08T09:48:49Z</time>
      </trkpt>
      <trkpt lat="45.89604" lon="4.96787">
        <ele>292</ele>
        <time>2016-09-08T09:48:51Z</time>
      </trkpt>
      <trkpt lat="45.89603" lon="4.96793">
        <ele>292</ele>
        <time>2016-09-08T09:48:52Z</time>
      </trkpt>
      <trkpt lat="45.89599" lon="4.96804">
        <ele>293</ele>
        <time>2016-09-08T09:48:54Z</time>
      </trkpt>
      <trkpt lat="45.89597" lon="4.96809">
        <ele>293</ele>
        <time>2016-09-08T09:48:55Z</time>
      </trkpt>
      <trkpt lat="45.89593" lon="4.9682">
        <ele>293</ele>
        <time>2016-09-08T09:48:57Z</time>
      </trkpt>
      <trkpt lat="45.89591" lon="4.96826">
        <ele>293</ele>
        <time>2016-09-08T09:48:58Z</time>
      </trkpt>
      <trkpt lat="45.89587" lon="4.96837">
        <ele>293</ele>
        <time>2016-09-08T09:49:00Z</time>
      </trkpt>
      <trkpt lat="45.89586" lon="4.96844">
        <ele>293</ele>
        <time>2016-09-08T09:49:01Z</time>
      </trkpt>
      <trkpt lat="45.89586" lon="4.96851">
        <ele>294</ele>
        <time>2016-09-08T09:49:02Z</time>
      </trkpt>
      <trkpt lat="45.89587" lon="4.96857">
        <ele>294</ele>
        <time>2016-09-08T09:49:03Z</time>
      </trkpt>
      <trkpt lat="45.8959" lon="4.96869">
        <ele>294</ele>
        <time>2016-09-08T09:49:05Z</time>
      </trkpt>
      <trkpt lat="45.89592" lon="4.96875">
        <ele>294</ele>
        <time>2016-09-08T09:49:06Z</time>
      </trkpt>
      <trkpt lat="45.89596" lon="4.96881">
        <ele>294</ele>
        <time>2016-09-08T09:49:07Z</time>
      </trkpt>
      <trkpt lat="45.89599" lon="4.96887">
        <ele>294</ele>
        <time>2016-09-08T09:49:08Z</time>
      </trkpt>
      <trkpt lat="45.89601" lon="4.96892">
        <ele>294</ele>
        <time>2016-09-08T09:49:09Z</time>
      </trkpt>
      <trkpt lat="45.89604" lon="4.96897">
        <ele>294</ele>
        <time>2016-09-08T09:49:10Z</time>
      </trkpt>
      <trkpt lat="45.89608" lon="4.96905">
        <ele>294</ele>
        <time>2016-09-08T09:49:12Z</time>
      </trkpt>
      <trkpt lat="45.89609" lon="4.96908">
        <ele>294</ele>
        <time>2016-09-08T09:49:13Z</time>
      </trkpt>
      <trkpt lat="45.89615" lon="4.96916">
        <ele>294</ele>
        <time>2016-09-08T09:49:20Z</time>
      </trkpt>
      <trkpt lat="45.89615" lon="4.96917">
        <ele>295</ele>
        <time>2016-09-08T09:49:21Z</time>
      </trkpt>
      <trkpt lat="45.89621" lon="4.96922">
        <ele>295</ele>
        <time>2016-09-08T09:49:26Z</time>
      </trkpt>
      <trkpt lat="45.89623" lon="4.96925">
        <ele>295</ele>
        <time>2016-09-08T09:49:27Z</time>
      </trkpt>
      <trkpt lat="45.89627" lon="4.96934">
        <ele>295</ele>
        <time>2016-09-08T09:49:29Z</time>
      </trkpt>
      <trkpt lat="45.8963" lon="4.96939">
        <ele>295</ele>
        <time>2016-09-08T09:49:30Z</time>
      </trkpt>
      <trkpt lat="45.89636" lon="4.96949">
        <ele>295</ele>
        <time>2016-09-08T09:49:31Z</time>
      </trkpt>
      <trkpt lat="45.89639" lon="4.96956">
        <ele>295</ele>
        <time>2016-09-08T09:49:32Z</time>
      </trkpt>
      <trkpt lat="45.89644" lon="4.96962">
        <ele>295</ele>
        <time>2016-09-08T09:49:33Z</time>
      </trkpt>
      <trkpt lat="45.89648" lon="4.96969">
        <ele>295</ele>
        <time>2016-09-08T09:49:34Z</time>
      </trkpt>
      <trkpt lat="45.89652" lon="4.96975">
        <ele>295</ele>
        <time>2016-09-08T09:49:35Z</time>
      </trkpt>
      <trkpt lat="45.89655" lon="4.96981">
        <ele>295</ele>
        <time>2016-09-08T09:49:36Z</time>
      </trkpt>
      <trkpt lat="45.89658" lon="4.96986">
        <ele>295</ele>
        <time>2016-09-08T09:49:37Z</time>
      </trkpt>
      <trkpt lat="45.89661" lon="4.96991">
        <ele>295</ele>
        <time>2016-09-08T09:49:38Z</time>
      </trkpt>
      <trkpt lat="45.89664" lon="4.96997">
        <ele>295</ele>
        <time>2016-09-08T09:49:39Z</time>
      </trkpt>
      <trkpt lat="45.89667" lon="4.97002">
        <ele>295</ele>
        <time>2016-09-08T09:49:40Z</time>
      </trkpt>
      <trkpt lat="45.8967" lon="4.97008">
        <ele>294</ele>
        <time>2016-09-08T09:49:41Z</time>
      </trkpt>
      <trkpt lat="45.89673" lon="4.97012">
        <ele>293</ele>
        <time>2016-09-08T09:49:42Z</time>
      </trkpt>
      <trkpt lat="45.89677" lon="4.97017">
        <ele>292</ele>
        <time>2016-09-08T09:49:43Z</time>
      </trkpt>
      <trkpt lat="45.8968" lon="4.97022">
        <ele>292</ele>
        <time>2016-09-08T09:49:44Z</time>
      </trkpt>
      <trkpt lat="45.89683" lon="4.97027">
        <ele>291</ele>
        <time>2016-09-08T09:49:45Z</time>
      </trkpt>
      <trkpt lat="45.89689" lon="4.97037">
        <ele>291</ele>
        <time>2016-09-08T09:49:47Z</time>
      </trkpt>
      <trkpt lat="45.89691" lon="4.97042">
        <ele>291</ele>
        <time>2016-09-08T09:49:48Z</time>
      </trkpt>
      <trkpt lat="45.89694" lon="4.97047">
        <ele>291</ele>
        <time>2016-09-08T09:49:49Z</time>
      </trkpt>
      <trkpt lat="45.89697" lon="4.97053">
        <ele>290</ele>
        <time>2016-09-08T09:49:50Z</time>
      </trkpt>
      <trkpt lat="45.897" lon="4.97059">
        <ele>290</ele>
        <time>2016-09-08T09:49:51Z</time>
      </trkpt>
      <trkpt lat="45.89704" lon="4.97065">
        <ele>290</ele>
        <time>2016-09-08T09:49:52Z</time>
      </trkpt>
      <trkpt lat="45.89707" lon="4.97071">
        <ele>290</ele>
        <time>2016-09-08T09:49:53Z</time>
      </trkpt>
      <trkpt lat="45.89709" lon="4.97076">
        <ele>290</ele>
        <time>2016-09-08T09:49:54Z</time>
      </trkpt>
      <trkpt lat="45.89712" lon="4.97082">
        <ele>290</ele>
        <time>2016-09-08T09:49:55Z</time>
      </trkpt>
      <trkpt lat="45.89714" lon="4.97087">
        <ele>289</ele>
        <time>2016-09-08T09:49:56Z</time>
      </trkpt>
      <trkpt lat="45.89717" lon="4.97092">
        <ele>289</ele>
        <time>2016-09-08T09:49:57Z</time>
      </trkpt>
      <trkpt lat="45.89721" lon="4.97098">
        <ele>289</ele>
        <time>2016-09-08T09:49:58Z</time>
      </trkpt>
      <trkpt lat="45.89726" lon="4.97105">
        <ele>288</ele>
        <time>2016-09-08T09:49:59Z</time>
      </trkpt>
      <trkpt lat="45.8973" lon="4.9711">
        <ele>288</ele>
        <time>2016-09-08T09:50:00Z</time>
      </trkpt>
      <trkpt lat="45.89734" lon="4.97118">
        <ele>288</ele>
        <time>2016-09-08T09:50:02Z</time>
      </trkpt>
      <trkpt lat="45.89738" lon="4.97123">
        <ele>288</ele>
        <time>2016-09-08T09:50:03Z</time>
      </trkpt>
      <trkpt lat="45.89742" lon="4.97128">
        <ele>288</ele>
        <time>2016-09-08T09:50:04Z</time>
      </trkpt>
      <trkpt lat="45.89746" lon="4.97133">
        <ele>288</ele>
        <time>2016-09-08T09:50:05Z</time>
      </trkpt>
      <trkpt lat="45.89749" lon="4.97139">
        <ele>288</ele>
        <time>2016-09-08T09:50:06Z</time>
      </trkpt>
      <trkpt lat="45.89752" lon="4.97144">
        <ele>286</ele>
        <time>2016-09-08T09:50:07Z</time>
      </trkpt>
      <trkpt lat="45.89755" lon="4.9715">
        <ele>286</ele>
        <time>2016-09-08T09:50:08Z</time>
      </trkpt>
      <trkpt lat="45.89757" lon="4.97155">
        <ele>286</ele>
        <time>2016-09-08T09:50:09Z</time>
      </trkpt>
      <trkpt lat="45.8976" lon="4.97161">
        <ele>286</ele>
        <time>2016-09-08T09:50:10Z</time>
      </trkpt>
      <trkpt lat="45.89764" lon="4.97168">
        <ele>287</ele>
        <time>2016-09-08T09:50:11Z</time>
      </trkpt>
      <trkpt lat="45.89767" lon="4.97174">
        <ele>286</ele>
        <time>2016-09-08T09:50:12Z</time>
      </trkpt>
      <trkpt lat="45.89771" lon="4.97181">
        <ele>286</ele>
        <time>2016-09-08T09:50:13Z</time>
      </trkpt>
      <trkpt lat="45.89775" lon="4.97186">
        <ele>286</ele>
        <time>2016-09-08T09:50:14Z</time>
      </trkpt>
      <trkpt lat="45.89778" lon="4.97193">
        <ele>286</ele>
        <time>2016-09-08T09:50:15Z</time>
      </trkpt>
      <trkpt lat="45.89782" lon="4.97199">
        <ele>286</ele>
        <time>2016-09-08T09:50:16Z</time>
      </trkpt>
      <trkpt lat="45.89787" lon="4.97207">
        <ele>286</ele>
        <time>2016-09-08T09:50:17Z</time>
      </trkpt>
      <trkpt lat="45.89791" lon="4.97215">
        <ele>286</ele>
        <time>2016-09-08T09:50:18Z</time>
      </trkpt>
      <trkpt lat="45.89794" lon="4.97222">
        <ele>286</ele>
        <time>2016-09-08T09:50:19Z</time>
      </trkpt>
      <trkpt lat="45.89796" lon="4.9723">
        <ele>286</ele>
        <time>2016-09-08T09:50:20Z</time>
      </trkpt>
      <trkpt lat="45.89796" lon="4.97237">
        <ele>286</ele>
        <time>2016-09-08T09:50:21Z</time>
      </trkpt>
      <trkpt lat="45.89795" lon="4.97245">
        <ele>286</ele>
        <time>2016-09-08T09:50:22Z</time>
      </trkpt>
      <trkpt lat="45.89794" lon="4.97252">
        <ele>286</ele>
        <time>2016-09-08T09:50:23Z</time>
      </trkpt>
      <trkpt lat="45.89791" lon="4.97259">
        <ele>286</ele>
        <time>2016-09-08T09:50:24Z</time>
      </trkpt>
      <trkpt lat="45.89788" lon="4.97266">
        <ele>286</ele>
        <time>2016-09-08T09:50:25Z</time>
      </trkpt>
      <trkpt lat="45.89785" lon="4.97272">
        <ele>286</ele>
        <time>2016-09-08T09:50:26Z</time>
      </trkpt>
      <trkpt lat="45.89781" lon="4.97279">
        <ele>286</ele>
        <time>2016-09-08T09:50:27Z</time>
      </trkpt>
      <trkpt lat="45.89778" lon="4.97285">
        <ele>286</ele>
        <time>2016-09-08T09:50:28Z</time>
      </trkpt>
      <trkpt lat="45.89775" lon="4.97291">
        <ele>286</ele>
        <time>2016-09-08T09:50:29Z</time>
      </trkpt>
      <trkpt lat="45.89771" lon="4.97297">
        <ele>286</ele>
        <time>2016-09-08T09:50:30Z</time>
      </trkpt>
      <trkpt lat="45.89768" lon="4.97303">
        <ele>286</ele>
        <time>2016-09-08T09:50:31Z</time>
      </trkpt>
      <trkpt lat="45.89763" lon="4.97313">
        <ele>286</ele>
        <time>2016-09-08T09:50:33Z</time>
      </trkpt>
      <trkpt lat="45.8976" lon="4.97317">
        <ele>286</ele>
        <time>2016-09-08T09:50:34Z</time>
      </trkpt>
      <trkpt lat="45.89755" lon="4.97327">
        <ele>287</ele>
        <time>2016-09-08T09:50:36Z</time>
      </trkpt>
      <trkpt lat="45.89752" lon="4.97332">
        <ele>287</ele>
        <time>2016-09-08T09:50:37Z</time>
      </trkpt>
      <trkpt lat="45.89747" lon="4.97342">
        <ele>287</ele>
        <time>2016-09-08T09:50:39Z</time>
      </trkpt>
      <trkpt lat="45.89745" lon="4.97347">
        <ele>287</ele>
        <time>2016-09-08T09:50:40Z</time>
      </trkpt>
      <trkpt lat="45.89742" lon="4.97353">
        <ele>287</ele>
        <time>2016-09-08T09:50:41Z</time>
      </trkpt>
      <trkpt lat="45.89739" lon="4.97357">
        <ele>287</ele>
        <time>2016-09-08T09:50:42Z</time>
      </trkpt>
      <trkpt lat="45.89737" lon="4.97363">
        <ele>287</ele>
        <time>2016-09-08T09:50:43Z</time>
      </trkpt>
      <trkpt lat="45.89734" lon="4.97368">
        <ele>287</ele>
        <time>2016-09-08T09:50:44Z</time>
      </trkpt>
      <trkpt lat="45.89731" lon="4.97375">
        <ele>287</ele>
        <time>2016-09-08T09:50:45Z</time>
      </trkpt>
      <trkpt lat="45.89728" lon="4.97381">
        <ele>287</ele>
        <time>2016-09-08T09:50:46Z</time>
      </trkpt>
      <trkpt lat="45.89725" lon="4.97387">
        <ele>287</ele>
        <time>2016-09-08T09:50:47Z</time>
      </trkpt>
      <trkpt lat="45.89723" lon="4.97393">
        <ele>287</ele>
        <time>2016-09-08T09:50:48Z</time>
      </trkpt>
      <trkpt lat="45.8972" lon="4.97399">
        <ele>287</ele>
        <time>2016-09-08T09:50:49Z</time>
      </trkpt>
      <trkpt lat="45.89718" lon="4.97406">
        <ele>288</ele>
        <time>2016-09-08T09:50:50Z</time>
      </trkpt>
      <trkpt lat="45.89716" lon="4.97413">
        <ele>288</ele>
        <time>2016-09-08T09:50:51Z</time>
      </trkpt>
      <trkpt lat="45.89714" lon="4.97421">
        <ele>287</ele>
        <time>2016-09-08T09:50:52Z</time>
      </trkpt>
      <trkpt lat="45.89713" lon="4.97429">
        <ele>287</ele>
        <time>2016-09-08T09:50:53Z</time>
      </trkpt>
      <trkpt lat="45.89712" lon="4.97437">
        <ele>287</ele>
        <time>2016-09-08T09:50:54Z</time>
      </trkpt>
      <trkpt lat="45.89711" lon="4.97445">
        <ele>287</ele>
        <time>2016-09-08T09:50:55Z</time>
      </trkpt>
      <trkpt lat="45.89709" lon="4.97452">
        <ele>287</ele>
        <time>2016-09-08T09:50:56Z</time>
      </trkpt>
      <trkpt lat="45.89707" lon="4.9746">
        <ele>287</ele>
        <time>2016-09-08T09:50:57Z</time>
      </trkpt>
      <trkpt lat="45.89705" lon="4.97468">
        <ele>287</ele>
        <time>2016-09-08T09:50:58Z</time>
      </trkpt>
      <trkpt lat="45.89704" lon="4.97475">
        <ele>287</ele>
        <time>2016-09-08T09:50:59Z</time>
      </trkpt>
      <trkpt lat="45.89702" lon="4.97483">
        <ele>287</ele>
        <time>2016-09-08T09:51:00Z</time>
      </trkpt>
      <trkpt lat="45.897" lon="4.97492">
        <ele>287</ele>
        <time>2016-09-08T09:51:01Z</time>
      </trkpt>
      <trkpt lat="45.89698" lon="4.97501">
        <ele>285</ele>
        <time>2016-09-08T09:51:02Z</time>
      </trkpt>
      <trkpt lat="45.89697" lon="4.9751">
        <ele>285</ele>
        <time>2016-09-08T09:51:03Z</time>
      </trkpt>
      <trkpt lat="45.89696" lon="4.9752">
        <ele>285</ele>
        <time>2016-09-08T09:51:04Z</time>
      </trkpt>
      <trkpt lat="45.89694" lon="4.97529">
        <ele>285</ele>
        <time>2016-09-08T09:51:05Z</time>
      </trkpt>
      <trkpt lat="45.89692" lon="4.97539">
        <ele>284</ele>
        <time>2016-09-08T09:51:06Z</time>
      </trkpt>
      <trkpt lat="45.89691" lon="4.97549">
        <ele>284</ele>
        <time>2016-09-08T09:51:07Z</time>
      </trkpt>
      <trkpt lat="45.89689" lon="4.9756">
        <ele>284</ele>
        <time>2016-09-08T09:51:08Z</time>
      </trkpt>
      <trkpt lat="45.89686" lon="4.97571">
        <ele>284</ele>
        <time>2016-09-08T09:51:09Z</time>
      </trkpt>
      <trkpt lat="45.89684" lon="4.97582">
        <ele>284</ele>
        <time>2016-09-08T09:51:10Z</time>
      </trkpt>
      <trkpt lat="45.89682" lon="4.97593">
        <ele>282</ele>
        <time>2016-09-08T09:51:11Z</time>
      </trkpt>
      <trkpt lat="45.8968" lon="4.97604">
        <ele>282</ele>
        <time>2016-09-08T09:51:12Z</time>
      </trkpt>
      <trkpt lat="45.89678" lon="4.97616">
        <ele>282</ele>
        <time>2016-09-08T09:51:13Z</time>
      </trkpt>
      <trkpt lat="45.89676" lon="4.97628">
        <ele>281</ele>
        <time>2016-09-08T09:51:14Z</time>
      </trkpt>
      <trkpt lat="45.89674" lon="4.9764">
        <ele>281</ele>
        <time>2016-09-08T09:51:15Z</time>
      </trkpt>
      <trkpt lat="45.89672" lon="4.97651">
        <ele>281</ele>
        <time>2016-09-08T09:51:16Z</time>
      </trkpt>
      <trkpt lat="45.8967" lon="4.97662">
        <ele>280</ele>
        <time>2016-09-08T09:51:17Z</time>
      </trkpt>
      <trkpt lat="45.89668" lon="4.97673">
        <ele>280</ele>
        <time>2016-09-08T09:51:18Z</time>
      </trkpt>
      <trkpt lat="45.89666" lon="4.97683">
        <ele>280</ele>
        <time>2016-09-08T09:51:19Z</time>
      </trkpt>
      <trkpt lat="45.89665" lon="4.97694">
        <ele>280</ele>
        <time>2016-09-08T09:51:20Z</time>
      </trkpt>
      <trkpt lat="45.89663" lon="4.97704">
        <ele>280</ele>
        <time>2016-09-08T09:51:21Z</time>
      </trkpt>
      <trkpt lat="45.89662" lon="4.97715">
        <ele>280</ele>
        <time>2016-09-08T09:51:22Z</time>
      </trkpt>
      <trkpt lat="45.89661" lon="4.97725">
        <ele>280</ele>
        <time>2016-09-08T09:51:23Z</time>
      </trkpt>
      <trkpt lat="45.8966" lon="4.97735">
        <ele>280</ele>
        <time>2016-09-08T09:51:24Z</time>
      </trkpt>
      <trkpt lat="45.89661" lon="4.97745">
        <ele>280</ele>
        <time>2016-09-08T09:51:25Z</time>
      </trkpt>
      <trkpt lat="45.89663" lon="4.97755">
        <ele>280</ele>
        <time>2016-09-08T09:51:26Z</time>
      </trkpt>
      <trkpt lat="45.89669" lon="4.97762">
        <ele>280</ele>
        <time>2016-09-08T09:51:27Z</time>
      </trkpt>
      <trkpt lat="45.89675" lon="4.97769">
        <ele>280</ele>
        <time>2016-09-08T09:51:28Z</time>
      </trkpt>
      <trkpt lat="45.89682" lon="4.97775">
        <ele>280</ele>
        <time>2016-09-08T09:51:29Z</time>
      </trkpt>
      <trkpt lat="45.89689" lon="4.97781">
        <ele>280</ele>
        <time>2016-09-08T09:51:30Z</time>
      </trkpt>
      <trkpt lat="45.89696" lon="4.97786">
        <ele>280</ele>
        <time>2016-09-08T09:51:31Z</time>
      </trkpt>
      <trkpt lat="45.89703" lon="4.97792">
        <ele>280</ele>
        <time>2016-09-08T09:51:32Z</time>
      </trkpt>
      <trkpt lat="45.89711" lon="4.97798">
        <ele>279</ele>
        <time>2016-09-08T09:51:33Z</time>
      </trkpt>
      <trkpt lat="45.89717" lon="4.97802">
        <ele>279</ele>
        <time>2016-09-08T09:51:34Z</time>
      </trkpt>
      <trkpt lat="45.89723" lon="4.97807">
        <ele>279</ele>
        <time>2016-09-08T09:51:35Z</time>
      </trkpt>
      <trkpt lat="45.8973" lon="4.97811">
        <ele>279</ele>
        <time>2016-09-08T09:51:36Z</time>
      </trkpt>
      <trkpt lat="45.89736" lon="4.97816">
        <ele>279</ele>
        <time>2016-09-08T09:51:37Z</time>
      </trkpt>
      <trkpt lat="45.89742" lon="4.9782">
        <ele>279</ele>
        <time>2016-09-08T09:51:38Z</time>
      </trkpt>
      <trkpt lat="45.89749" lon="4.97824">
        <ele>278</ele>
        <time>2016-09-08T09:51:39Z</time>
      </trkpt>
      <trkpt lat="45.89755" lon="4.97828">
        <ele>278</ele>
        <time>2016-09-08T09:51:40Z</time>
      </trkpt>
      <trkpt lat="45.89762" lon="4.97833">
        <ele>278</ele>
        <time>2016-09-08T09:51:41Z</time>
      </trkpt>
      <trkpt lat="45.89768" lon="4.97838">
        <ele>278</ele>
        <time>2016-09-08T09:51:42Z</time>
      </trkpt>
      <trkpt lat="45.89774" lon="4.97843">
        <ele>278</ele>
        <time>2016-09-08T09:51:43Z</time>
      </trkpt>
      <trkpt lat="45.8978" lon="4.97848">
        <ele>278</ele>
        <time>2016-09-08T09:51:44Z</time>
      </trkpt>
      <trkpt lat="45.89786" lon="4.97853">
        <ele>278</ele>
        <time>2016-09-08T09:51:45Z</time>
      </trkpt>
      <trkpt lat="45.89792" lon="4.97857">
        <ele>278</ele>
        <time>2016-09-08T09:51:46Z</time>
      </trkpt>
      <trkpt lat="45.89798" lon="4.97862">
        <ele>278</ele>
        <time>2016-09-08T09:51:47Z</time>
      </trkpt>
      <trkpt lat="45.89805" lon="4.97866">
        <ele>278</ele>
        <time>2016-09-08T09:51:48Z</time>
      </trkpt>
      <trkpt lat="45.8981" lon="4.9787">
        <ele>278</ele>
        <time>2016-09-08T09:51:49Z</time>
      </trkpt>
      <trkpt lat="45.89816" lon="4.97874">
        <ele>278</ele>
        <time>2016-09-08T09:51:50Z</time>
      </trkpt>
      <trkpt lat="45.89823" lon="4.97878">
        <ele>278</ele>
        <time>2016-09-08T09:51:51Z</time>
      </trkpt>
      <trkpt lat="45.89829" lon="4.97883">
        <ele>278</ele>
        <time>2016-09-08T09:51:52Z</time>
      </trkpt>
      <trkpt lat="45.89835" lon="4.97887">
        <ele>278</ele>
        <time>2016-09-08T09:51:53Z</time>
      </trkpt>
      <trkpt lat="45.89841" lon="4.97891">
        <ele>278</ele>
        <time>2016-09-08T09:51:54Z</time>
      </trkpt>
      <trkpt lat="45.89847" lon="4.97895">
        <ele>278</ele>
        <time>2016-09-08T09:51:55Z</time>
      </trkpt>
      <trkpt lat="45.89854" lon="4.97899">
        <ele>278</ele>
        <time>2016-09-08T09:51:56Z</time>
      </trkpt>
      <trkpt lat="45.8986" lon="4.97903">
        <ele>278</ele>
        <time>2016-09-08T09:51:57Z</time>
      </trkpt>
      <trkpt lat="45.89866" lon="4.97906">
        <ele>278</ele>
        <time>2016-09-08T09:51:58Z</time>
      </trkpt>
      <trkpt lat="45.89872" lon="4.9791">
        <ele>278</ele>
        <time>2016-09-08T09:51:59Z</time>
      </trkpt>
      <trkpt lat="45.89879" lon="4.97913">
        <ele>278</ele>
        <time>2016-09-08T09:52:00Z</time>
      </trkpt>
      <trkpt lat="45.89885" lon="4.97917">
        <ele>278</ele>
        <time>2016-09-08T09:52:01Z</time>
      </trkpt>
      <trkpt lat="45.89891" lon="4.9792">
        <ele>278</ele>
        <time>2016-09-08T09:52:02Z</time>
      </trkpt>
      <trkpt lat="45.89897" lon="4.97922">
        <ele>278</ele>
        <time>2016-09-08T09:52:03Z</time>
      </trkpt>
      <trkpt lat="45.89904" lon="4.97925">
        <ele>278</ele>
        <time>2016-09-08T09:52:04Z</time>
      </trkpt>
      <trkpt lat="45.8991" lon="4.97927">
        <ele>278</ele>
        <time>2016-09-08T09:52:05Z</time>
      </trkpt>
      <trkpt lat="45.89917" lon="4.97929">
        <ele>278</ele>
        <time>2016-09-08T09:52:06Z</time>
      </trkpt>
      <trkpt lat="45.89924" lon="4.97931">
        <ele>278</ele>
        <time>2016-09-08T09:52:07Z</time>
      </trkpt>
      <trkpt lat="45.89931" lon="4.97932">
        <ele>278</ele>
        <time>2016-09-08T09:52:08Z</time>
      </trkpt>
      <trkpt lat="45.89937" lon="4.97934">
        <ele>278</ele>
        <time>2016-09-08T09:52:09Z</time>
      </trkpt>
      <trkpt lat="45.89944" lon="4.97934">
        <ele>278</ele>
        <time>2016-09-08T09:52:10Z</time>
      </trkpt>
      <trkpt lat="45.8995" lon="4.97934">
        <ele>278</ele>
        <time>2016-09-08T09:52:11Z</time>
      </trkpt>
      <trkpt lat="45.89956" lon="4.97933">
        <ele>278</ele>
        <time>2016-09-08T09:52:12Z</time>
      </trkpt>
      <trkpt lat="45.89962" lon="4.97932">
        <ele>278</ele>
        <time>2016-09-08T09:52:13Z</time>
      </trkpt>
      <trkpt lat="45.89969" lon="4.97931">
        <ele>278</ele>
        <time>2016-09-08T09:52:14Z</time>
      </trkpt>
      <trkpt lat="45.89974" lon="4.97929">
        <ele>278</ele>
        <time>2016-09-08T09:52:15Z</time>
      </trkpt>
      <trkpt lat="45.8998" lon="4.97927">
        <ele>278</ele>
        <time>2016-09-08T09:52:16Z</time>
      </trkpt>
      <trkpt lat="45.89986" lon="4.97925">
        <ele>278</ele>
        <time>2016-09-08T09:52:17Z</time>
      </trkpt>
      <trkpt lat="45.89991" lon="4.97923">
        <ele>278</ele>
        <time>2016-09-08T09:52:18Z</time>
      </trkpt>
      <trkpt lat="45.89997" lon="4.97921">
        <ele>278</ele>
        <time>2016-09-08T09:52:19Z</time>
      </trkpt>
      <trkpt lat="45.90002" lon="4.97919">
        <ele>278</ele>
        <time>2016-09-08T09:52:20Z</time>
      </trkpt>
      <trkpt lat="45.9001" lon="4.97915">
        <ele>278</ele>
        <time>2016-09-08T09:52:22Z</time>
      </trkpt>
      <trkpt lat="45.90015" lon="4.97914">
        <ele>278</ele>
        <time>2016-09-08T09:52:23Z</time>
      </trkpt>
      <trkpt lat="45.9002" lon="4.97913">
        <ele>279</ele>
        <time>2016-09-08T09:52:24Z</time>
      </trkpt>
      <trkpt lat="45.90024" lon="4.97913">
        <ele>279</ele>
        <time>2016-09-08T09:52:25Z</time>
      </trkpt>
      <trkpt lat="45.90032" lon="4.9792">
        <ele>279</ele>
        <time>2016-09-08T09:52:27Z</time>
      </trkpt>
      <trkpt lat="45.90034" lon="4.97925">
        <ele>279</ele>
        <time>2016-09-08T09:52:28Z</time>
      </trkpt>
      <trkpt lat="45.90036" lon="4.97931">
        <ele>279</ele>
        <time>2016-09-08T09:52:29Z</time>
      </trkpt>
      <trkpt lat="45.90037" lon="4.97938">
        <ele>279</ele>
        <time>2016-09-08T09:52:30Z</time>
      </trkpt>
      <trkpt lat="45.90037" lon="4.97946">
        <ele>279</ele>
        <time>2016-09-08T09:52:31Z</time>
      </trkpt>
      <trkpt lat="45.90037" lon="4.97953">
        <ele>279</ele>
        <time>2016-09-08T09:52:32Z</time>
      </trkpt>
      <trkpt lat="45.90037" lon="4.9796">
        <ele>278</ele>
        <time>2016-09-08T09:52:33Z</time>
      </trkpt>
      <trkpt lat="45.90038" lon="4.97967">
        <ele>278</ele>
        <time>2016-09-08T09:52:34Z</time>
      </trkpt>
      <trkpt lat="45.90039" lon="4.97974">
        <ele>278</ele>
        <time>2016-09-08T09:52:35Z</time>
      </trkpt>
      <trkpt lat="45.9004" lon="4.97981">
        <ele>278</ele>
        <time>2016-09-08T09:52:36Z</time>
      </trkpt>
      <trkpt lat="45.9004" lon="4.97988">
        <ele>278</ele>
        <time>2016-09-08T09:52:37Z</time>
      </trkpt>
      <trkpt lat="45.9004" lon="4.97995">
        <ele>278</ele>
        <time>2016-09-08T09:52:38Z</time>
      </trkpt>
      <trkpt lat="45.9004" lon="4.98002">
        <ele>278</ele>
        <time>2016-09-08T09:52:39Z</time>
      </trkpt>
      <trkpt lat="45.9004" lon="4.9801">
        <ele>278</ele>
        <time>2016-09-08T09:52:40Z</time>
      </trkpt>
      <trkpt lat="45.90041" lon="4.98018">
        <ele>278</ele>
        <time>2016-09-08T09:52:41Z</time>
      </trkpt>
      <trkpt lat="45.90041" lon="4.98026">
        <ele>278</ele>
        <time>2016-09-08T09:52:42Z</time>
      </trkpt>
      <trkpt lat="45.90041" lon="4.98033">
        <ele>278</ele>
        <time>2016-09-08T09:52:43Z</time>
      </trkpt>
      <trkpt lat="45.90042" lon="4.98041">
        <ele>278</ele>
        <time>2016-09-08T09:52:44Z</time>
      </trkpt>
      <trkpt lat="45.90043" lon="4.98049">
        <ele>279</ele>
        <time>2016-09-08T09:52:45Z</time>
      </trkpt>
      <trkpt lat="45.90043" lon="4.98057">
        <ele>279</ele>
        <time>2016-09-08T09:52:46Z</time>
      </trkpt>
      <trkpt lat="45.90044" lon="4.98065">
        <ele>279</ele>
        <time>2016-09-08T09:52:47Z</time>
      </trkpt>
      <trkpt lat="45.90045" lon="4.98072">
        <ele>279</ele>
        <time>2016-09-08T09:52:48Z</time>
      </trkpt>
      <trkpt lat="45.90045" lon="4.9808">
        <ele>279</ele>
        <time>2016-09-08T09:52:49Z</time>
      </trkpt>
      <trkpt lat="45.90046" lon="4.98088">
        <ele>279</ele>
        <time>2016-09-08T09:52:50Z</time>
      </trkpt>
      <trkpt lat="45.90046" lon="4.98096">
        <ele>279</ele>
        <time>2016-09-08T09:52:51Z</time>
      </trkpt>
      <trkpt lat="45.90046" lon="4.98103">
        <ele>279</ele>
        <time>2016-09-08T09:52:52Z</time>
      </trkpt>
      <trkpt lat="45.90046" lon="4.98111">
        <ele>279</ele>
        <time>2016-09-08T09:52:53Z</time>
      </trkpt>
      <trkpt lat="45.90047" lon="4.98119">
        <ele>279</ele>
        <time>2016-09-08T09:52:54Z</time>
      </trkpt>
      <trkpt lat="45.90048" lon="4.98126">
        <ele>279</ele>
        <time>2016-09-08T09:52:55Z</time>
      </trkpt>
      <trkpt lat="45.90049" lon="4.98134">
        <ele>279</ele>
        <time>2016-09-08T09:52:56Z</time>
      </trkpt>
      <trkpt lat="45.9005" lon="4.98141">
        <ele>279</ele>
        <time>2016-09-08T09:52:57Z</time>
      </trkpt>
      <trkpt lat="45.9005" lon="4.98149">
        <ele>279</ele>
        <time>2016-09-08T09:52:58Z</time>
      </trkpt>
      <trkpt lat="45.90051" lon="4.98156">
        <ele>279</ele>
        <time>2016-09-08T09:52:59Z</time>
      </trkpt>
      <trkpt lat="45.90051" lon="4.98164">
        <ele>279</ele>
        <time>2016-09-08T09:53:00Z</time>
      </trkpt>
      <trkpt lat="45.90051" lon="4.98171">
        <ele>280</ele>
        <time>2016-09-08T09:53:01Z</time>
      </trkpt>
      <trkpt lat="45.90051" lon="4.98179">
        <ele>280</ele>
        <time>2016-09-08T09:53:02Z</time>
      </trkpt>
      <trkpt lat="45.90052" lon="4.98186">
        <ele>280</ele>
        <time>2016-09-08T09:53:03Z</time>
      </trkpt>
      <trkpt lat="45.90052" lon="4.98194">
        <ele>280</ele>
        <time>2016-09-08T09:53:04Z</time>
      </trkpt>
      <trkpt lat="45.90053" lon="4.98201">
        <ele>280</ele>
        <time>2016-09-08T09:53:05Z</time>
      </trkpt>
      <trkpt lat="45.90054" lon="4.98208">
        <ele>280</ele>
        <time>2016-09-08T09:53:06Z</time>
      </trkpt>
      <trkpt lat="45.90054" lon="4.98216">
        <ele>280</ele>
        <time>2016-09-08T09:53:07Z</time>
      </trkpt>
      <trkpt lat="45.90055" lon="4.98223">
        <ele>280</ele>
        <time>2016-09-08T09:53:08Z</time>
      </trkpt>
      <trkpt lat="45.90055" lon="4.98231">
        <ele>280</ele>
        <time>2016-09-08T09:53:09Z</time>
      </trkpt>
      <trkpt lat="45.90056" lon="4.98239">
        <ele>280</ele>
        <time>2016-09-08T09:53:10Z</time>
      </trkpt>
      <trkpt lat="45.90056" lon="4.98246">
        <ele>280</ele>
        <time>2016-09-08T09:53:11Z</time>
      </trkpt>
      <trkpt lat="45.90057" lon="4.98254">
        <ele>281</ele>
        <time>2016-09-08T09:53:12Z</time>
      </trkpt>
      <trkpt lat="45.90058" lon="4.98261">
        <ele>281</ele>
        <time>2016-09-08T09:53:13Z</time>
      </trkpt>
      <trkpt lat="45.90058" lon="4.98269">
        <ele>281</ele>
        <time>2016-09-08T09:53:14Z</time>
      </trkpt>
      <trkpt lat="45.90059" lon="4.98276">
        <ele>281</ele>
        <time>2016-09-08T09:53:15Z</time>
      </trkpt>
      <trkpt lat="45.90059" lon="4.98284">
        <ele>281</ele>
        <time>2016-09-08T09:53:16Z</time>
      </trkpt>
      <trkpt lat="45.9006" lon="4.98292">
        <ele>281</ele>
        <time>2016-09-08T09:53:17Z</time>
      </trkpt>
      <trkpt lat="45.9006" lon="4.983">
        <ele>281</ele>
        <time>2016-09-08T09:53:18Z</time>
      </trkpt>
      <trkpt lat="45.90061" lon="4.98307">
        <ele>281</ele>
        <time>2016-09-08T09:53:19Z</time>
      </trkpt>
      <trkpt lat="45.90062" lon="4.98314">
        <ele>281</ele>
        <time>2016-09-08T09:53:20Z</time>
      </trkpt>
      <trkpt lat="45.90062" lon="4.98322">
        <ele>281</ele>
        <time>2016-09-08T09:53:21Z</time>
      </trkpt>
      <trkpt lat="45.90062" lon="4.98329">
        <ele>281</ele>
        <time>2016-09-08T09:53:22Z</time>
      </trkpt>
      <trkpt lat="45.90063" lon="4.98335">
        <ele>282</ele>
        <time>2016-09-08T09:53:23Z</time>
      </trkpt>
      <trkpt lat="45.90064" lon="4.98342">
        <ele>282</ele>
        <time>2016-09-08T09:53:24Z</time>
      </trkpt>
      <trkpt lat="45.90064" lon="4.98348">
        <ele>282</ele>
        <time>2016-09-08T09:53:25Z</time>
      </trkpt>
      <trkpt lat="45.90065" lon="4.98355">
        <ele>282</ele>
        <time>2016-09-08T09:53:26Z</time>
      </trkpt>
      <trkpt lat="45.90066" lon="4.98362">
        <ele>282</ele>
        <time>2016-09-08T09:53:27Z</time>
      </trkpt>
      <trkpt lat="45.90068" lon="4.98368">
        <ele>282</ele>
        <time>2016-09-08T09:53:28Z</time>
      </trkpt>
      <trkpt lat="45.90069" lon="4.98375">
        <ele>282</ele>
        <time>2016-09-08T09:53:29Z</time>
      </trkpt>
      <trkpt lat="45.9007" lon="4.98382">
        <ele>282</ele>
        <time>2016-09-08T09:53:30Z</time>
      </trkpt>
      <trkpt lat="45.90071" lon="4.98389">
        <ele>282</ele>
        <time>2016-09-08T09:53:31Z</time>
      </trkpt>
      <trkpt lat="45.90072" lon="4.98395">
        <ele>283</ele>
        <time>2016-09-08T09:53:32Z</time>
      </trkpt>
      <trkpt lat="45.90072" lon="4.98402">
        <ele>283</ele>
        <time>2016-09-08T09:53:33Z</time>
      </trkpt>
      <trkpt lat="45.90074" lon="4.98409">
        <ele>283</ele>
        <time>2016-09-08T09:53:34Z</time>
      </trkpt>
      <trkpt lat="45.90076" lon="4.98415">
        <ele>283</ele>
        <time>2016-09-08T09:53:35Z</time>
      </trkpt>
      <trkpt lat="45.90079" lon="4.98421">
        <ele>284</ele>
        <time>2016-09-08T09:53:36Z</time>
      </trkpt>
      <trkpt lat="45.90081" lon="4.98427">
        <ele>283</ele>
        <time>2016-09-08T09:53:37Z</time>
      </trkpt>
      <trkpt lat="45.90083" lon="4.98433">
        <ele>283</ele>
        <time>2016-09-08T09:53:38Z</time>
      </trkpt>
      <trkpt lat="45.90085" lon="4.98439">
        <ele>283</ele>
        <time>2016-09-08T09:53:39Z</time>
      </trkpt>
      <trkpt lat="45.90088" lon="4.98445">
        <ele>283</ele>
        <time>2016-09-08T09:53:40Z</time>
      </trkpt>
      <trkpt lat="45.90089" lon="4.98452">
        <ele>283</ele>
        <time>2016-09-08T09:53:41Z</time>
      </trkpt>
      <trkpt lat="45.90091" lon="4.98458">
        <ele>283</ele>
        <time>2016-09-08T09:53:42Z</time>
      </trkpt>
      <trkpt lat="45.90093" lon="4.98464">
        <ele>283</ele>
        <time>2016-09-08T09:53:43Z</time>
      </trkpt>
      <trkpt lat="45.90095" lon="4.9847">
        <ele>283</ele>
        <time>2016-09-08T09:53:44Z</time>
      </trkpt>
      <trkpt lat="45.90097" lon="4.98476">
        <ele>283</ele>
        <time>2016-09-08T09:53:45Z</time>
      </trkpt>
      <trkpt lat="45.90099" lon="4.98482">
        <ele>283</ele>
        <time>2016-09-08T09:53:46Z</time>
      </trkpt>
      <trkpt lat="45.90101" lon="4.98487">
        <ele>283</ele>
        <time>2016-09-08T09:53:47Z</time>
      </trkpt>
      <trkpt lat="45.90104" lon="4.98493">
        <ele>283</ele>
        <time>2016-09-08T09:53:48Z</time>
      </trkpt>
      <trkpt lat="45.90106" lon="4.985">
        <ele>283</ele>
        <time>2016-09-08T09:53:49Z</time>
      </trkpt>
      <trkpt lat="45.90108" lon="4.98506">
        <ele>283</ele>
        <time>2016-09-08T09:53:50Z</time>
      </trkpt>
      <trkpt lat="45.90111" lon="4.98513">
        <ele>283</ele>
        <time>2016-09-08T09:53:51Z</time>
      </trkpt>
      <trkpt lat="45.90113" lon="4.98519">
        <ele>283</ele>
        <time>2016-09-08T09:53:52Z</time>
      </trkpt>
      <trkpt lat="45.90115" lon="4.98526">
        <ele>283</ele>
        <time>2016-09-08T09:53:53Z</time>
      </trkpt>
      <trkpt lat="45.90118" lon="4.98533">
        <ele>283</ele>
        <time>2016-09-08T09:53:54Z</time>
      </trkpt>
      <trkpt lat="45.9012" lon="4.9854">
        <ele>282</ele>
        <time>2016-09-08T09:53:55Z</time>
      </trkpt>
      <trkpt lat="45.90122" lon="4.98547">
        <ele>282</ele>
        <time>2016-09-08T09:53:56Z</time>
      </trkpt>
      <trkpt lat="45.90124" lon="4.98554">
        <ele>282</ele>
        <time>2016-09-08T09:53:57Z</time>
      </trkpt>
      <trkpt lat="45.90127" lon="4.9856">
        <ele>282</ele>
        <time>2016-09-08T09:53:58Z</time>
      </trkpt>
      <trkpt lat="45.90129" lon="4.98567">
        <ele>282</ele>
        <time>2016-09-08T09:53:59Z</time>
      </trkpt>
      <trkpt lat="45.90131" lon="4.98573">
        <ele>282</ele>
        <time>2016-09-08T09:54:00Z</time>
      </trkpt>
      <trkpt lat="45.90134" lon="4.98579">
        <ele>282</ele>
        <time>2016-09-08T09:54:01Z</time>
      </trkpt>
      <trkpt lat="45.90136" lon="4.98585">
        <ele>282</ele>
        <time>2016-09-08T09:54:02Z</time>
      </trkpt>
      <trkpt lat="45.90138" lon="4.98592">
        <ele>282</ele>
        <time>2016-09-08T09:54:03Z</time>
      </trkpt>
      <trkpt lat="45.90141" lon="4.98599">
        <ele>282</ele>
        <time>2016-09-08T09:54:04Z</time>
      </trkpt>
      <trkpt lat="45.90143" lon="4.98606">
        <ele>282</ele>
        <time>2016-09-08T09:54:05Z</time>
      </trkpt>
      <trkpt lat="45.90145" lon="4.98614">
        <ele>282</ele>
        <time>2016-09-08T09:54:06Z</time>
      </trkpt>
      <trkpt lat="45.90148" lon="4.98621">
        <ele>282</ele>
        <time>2016-09-08T09:54:07Z</time>
      </trkpt>
      <trkpt lat="45.90151" lon="4.98629">
        <ele>282</ele>
        <time>2016-09-08T09:54:08Z</time>
      </trkpt>
      <trkpt lat="45.90154" lon="4.98637">
        <ele>282</ele>
        <time>2016-09-08T09:54:09Z</time>
      </trkpt>
      <trkpt lat="45.90157" lon="4.98645">
        <ele>282</ele>
        <time>2016-09-08T09:54:10Z</time>
      </trkpt>
      <trkpt lat="45.9016" lon="4.98653">
        <ele>282</ele>
        <time>2016-09-08T09:54:11Z</time>
      </trkpt>
      <trkpt lat="45.90162" lon="4.9866">
        <ele>282</ele>
        <time>2016-09-08T09:54:12Z</time>
      </trkpt>
      <trkpt lat="45.90165" lon="4.98668">
        <ele>282</ele>
        <time>2016-09-08T09:54:13Z</time>
      </trkpt>
      <trkpt lat="45.90167" lon="4.98675">
        <ele>282</ele>
        <time>2016-09-08T09:54:14Z</time>
      </trkpt>
      <trkpt lat="45.9017" lon="4.98682">
        <ele>282</ele>
        <time>2016-09-08T09:54:15Z</time>
      </trkpt>
      <trkpt lat="45.90173" lon="4.98689">
        <ele>282</ele>
        <time>2016-09-08T09:54:16Z</time>
      </trkpt>
      <trkpt lat="45.90176" lon="4.98696">
        <ele>282</ele>
        <time>2016-09-08T09:54:17Z</time>
      </trkpt>
      <trkpt lat="45.90178" lon="4.98703">
        <ele>281</ele>
        <time>2016-09-08T09:54:18Z</time>
      </trkpt>
      <trkpt lat="45.9018" lon="4.9871">
        <ele>281</ele>
        <time>2016-09-08T09:54:19Z</time>
      </trkpt>
      <trkpt lat="45.90182" lon="4.98718">
        <ele>281</ele>
        <time>2016-09-08T09:54:20Z</time>
      </trkpt>
      <trkpt lat="45.90185" lon="4.98725">
        <ele>281</ele>
        <time>2016-09-08T09:54:21Z</time>
      </trkpt>
      <trkpt lat="45.90187" lon="4.98733">
        <ele>281</ele>
        <time>2016-09-08T09:54:22Z</time>
      </trkpt>
      <trkpt lat="45.90189" lon="4.98741">
        <ele>281</ele>
        <time>2016-09-08T09:54:23Z</time>
      </trkpt>
      <trkpt lat="45.90191" lon="4.98749">
        <ele>281</ele>
        <time>2016-09-08T09:54:24Z</time>
      </trkpt>
      <trkpt lat="45.90194" lon="4.98756">
        <ele>281</ele>
        <time>2016-09-08T09:54:25Z</time>
      </trkpt>
      <trkpt lat="45.90196" lon="4.98765">
        <ele>281</ele>
        <time>2016-09-08T09:54:26Z</time>
      </trkpt>
      <trkpt lat="45.90199" lon="4.98773">
        <ele>281</ele>
        <time>2016-09-08T09:54:27Z</time>
      </trkpt>
      <trkpt lat="45.90201" lon="4.98781">
        <ele>281</ele>
        <time>2016-09-08T09:54:28Z</time>
      </trkpt>
      <trkpt lat="45.90203" lon="4.98789">
        <ele>281</ele>
        <time>2016-09-08T09:54:29Z</time>
      </trkpt>
      <trkpt lat="45.90206" lon="4.98797">
        <ele>281</ele>
        <time>2016-09-08T09:54:30Z</time>
      </trkpt>
      <trkpt lat="45.90208" lon="4.98805">
        <ele>281</ele>
        <time>2016-09-08T09:54:31Z</time>
      </trkpt>
      <trkpt lat="45.9021" lon="4.98813">
        <ele>281</ele>
        <time>2016-09-08T09:54:32Z</time>
      </trkpt>
      <trkpt lat="45.90212" lon="4.98822">
        <ele>281</ele>
        <time>2016-09-08T09:54:33Z</time>
      </trkpt>
      <trkpt lat="45.90214" lon="4.9883">
        <ele>281</ele>
        <time>2016-09-08T09:54:34Z</time>
      </trkpt>
      <trkpt lat="45.90216" lon="4.98838">
        <ele>281</ele>
        <time>2016-09-08T09:54:35Z</time>
      </trkpt>
      <trkpt lat="45.90218" lon="4.98846">
        <ele>281</ele>
        <time>2016-09-08T09:54:36Z</time>
      </trkpt>
      <trkpt lat="45.90219" lon="4.98854">
        <ele>281</ele>
        <time>2016-09-08T09:54:37Z</time>
      </trkpt>
      <trkpt lat="45.9022" lon="4.98863">
        <ele>281</ele>
        <time>2016-09-08T09:54:38Z</time>
      </trkpt>
      <trkpt lat="45.90221" lon="4.98871">
        <ele>281</ele>
        <time>2016-09-08T09:54:39Z</time>
      </trkpt>
      <trkpt lat="45.90222" lon="4.9888">
        <ele>281</ele>
        <time>2016-09-08T09:54:40Z</time>
      </trkpt>
      <trkpt lat="45.90221" lon="4.98889">
        <ele>281</ele>
        <time>2016-09-08T09:54:41Z</time>
      </trkpt>
      <trkpt lat="45.90221" lon="4.98898">
        <ele>281</ele>
        <time>2016-09-08T09:54:42Z</time>
      </trkpt>
      <trkpt lat="45.90221" lon="4.98908">
        <ele>281</ele>
        <time>2016-09-08T09:54:43Z</time>
      </trkpt>
      <trkpt lat="45.90221" lon="4.98918">
        <ele>280</ele>
        <time>2016-09-08T09:54:44Z</time>
      </trkpt>
      <trkpt lat="45.90221" lon="4.98928">
        <ele>280</ele>
        <time>2016-09-08T09:54:45Z</time>
      </trkpt>
      <trkpt lat="45.90222" lon="4.98938">
        <ele>280</ele>
        <time>2016-09-08T09:54:46Z</time>
      </trkpt>
      <trkpt lat="45.90222" lon="4.98948">
        <ele>280</ele>
        <time>2016-09-08T09:54:47Z</time>
      </trkpt>
      <trkpt lat="45.90222" lon="4.98957">
        <ele>280</ele>
        <time>2016-09-08T09:54:48Z</time>
      </trkpt>
      <trkpt lat="45.90222" lon="4.98966">
        <ele>280</ele>
        <time>2016-09-08T09:54:49Z</time>
      </trkpt>
      <trkpt lat="45.90223" lon="4.98976">
        <ele>280</ele>
        <time>2016-09-08T09:54:50Z</time>
      </trkpt>
      <trkpt lat="45.90223" lon="4.98985">
        <ele>280</ele>
        <time>2016-09-08T09:54:51Z</time>
      </trkpt>
      <trkpt lat="45.90224" lon="4.98993">
        <ele>280</ele>
        <time>2016-09-08T09:54:52Z</time>
      </trkpt>
      <trkpt lat="45.90224" lon="4.99002">
        <ele>280</ele>
        <time>2016-09-08T09:54:53Z</time>
      </trkpt>
      <trkpt lat="45.90224" lon="4.99011">
        <ele>280</ele>
        <time>2016-09-08T09:54:54Z</time>
      </trkpt>
      <trkpt lat="45.90225" lon="4.99019">
        <ele>280</ele>
        <time>2016-09-08T09:54:55Z</time>
      </trkpt>
      <trkpt lat="45.90225" lon="4.99027">
        <ele>280</ele>
        <time>2016-09-08T09:54:56Z</time>
      </trkpt>
      <trkpt lat="45.90226" lon="4.99035">
        <ele>280</ele>
        <time>2016-09-08T09:54:57Z</time>
      </trkpt>
      <trkpt lat="45.90227" lon="4.99044">
        <ele>280</ele>
        <time>2016-09-08T09:54:58Z</time>
      </trkpt>
      <trkpt lat="45.90227" lon="4.99052">
        <ele>280</ele>
        <time>2016-09-08T09:54:59Z</time>
      </trkpt>
      <trkpt lat="45.90228" lon="4.9906">
        <ele>280</ele>
        <time>2016-09-08T09:55:00Z</time>
      </trkpt>
      <trkpt lat="45.90228" lon="4.99069">
        <ele>281</ele>
        <time>2016-09-08T09:55:01Z</time>
      </trkpt>
      <trkpt lat="45.90228" lon="4.99077">
        <ele>281</ele>
        <time>2016-09-08T09:55:02Z</time>
      </trkpt>
      <trkpt lat="45.90229" lon="4.99086">
        <ele>281</ele>
        <time>2016-09-08T09:55:03Z</time>
      </trkpt>
      <trkpt lat="45.90229" lon="4.99095">
        <ele>281</ele>
        <time>2016-09-08T09:55:04Z</time>
      </trkpt>
      <trkpt lat="45.90229" lon="4.99105">
        <ele>281</ele>
        <time>2016-09-08T09:55:05Z</time>
      </trkpt>
      <trkpt lat="45.90229" lon="4.99114">
        <ele>281</ele>
        <time>2016-09-08T09:55:06Z</time>
      </trkpt>
      <trkpt lat="45.9023" lon="4.99124">
        <ele>281</ele>
        <time>2016-09-08T09:55:07Z</time>
      </trkpt>
      <trkpt lat="45.90231" lon="4.99133">
        <ele>280</ele>
        <time>2016-09-08T09:55:08Z</time>
      </trkpt>
      <trkpt lat="45.90231" lon="4.99143">
        <ele>280</ele>
        <time>2016-09-08T09:55:09Z</time>
      </trkpt>
      <trkpt lat="45.90231" lon="4.99152">
        <ele>280</ele>
        <time>2016-09-08T09:55:10Z</time>
      </trkpt>
      <trkpt lat="45.90231" lon="4.9916">
        <ele>280</ele>
        <time>2016-09-08T09:55:11Z</time>
      </trkpt>
      <trkpt lat="45.90232" lon="4.99169">
        <ele>280</ele>
        <time>2016-09-08T09:55:12Z</time>
      </trkpt>
      <trkpt lat="45.90232" lon="4.99177">
        <ele>280</ele>
        <time>2016-09-08T09:55:13Z</time>
      </trkpt>
      <trkpt lat="45.90232" lon="4.99185">
        <ele>280</ele>
        <time>2016-09-08T09:55:14Z</time>
      </trkpt>
      <trkpt lat="45.90232" lon="4.99192">
        <ele>280</ele>
        <time>2016-09-08T09:55:15Z</time>
      </trkpt>
      <trkpt lat="45.90232" lon="4.992">
        <ele>280</ele>
        <time>2016-09-08T09:55:16Z</time>
      </trkpt>
      <trkpt lat="45.90233" lon="4.99208">
        <ele>280</ele>
        <time>2016-09-08T09:55:17Z</time>
      </trkpt>
      <trkpt lat="45.90233" lon="4.99216">
        <ele>281</ele>
        <time>2016-09-08T09:55:18Z</time>
      </trkpt>
      <trkpt lat="45.90234" lon="4.99224">
        <ele>281</ele>
        <time>2016-09-08T09:55:19Z</time>
      </trkpt>
      <trkpt lat="45.90234" lon="4.99232">
        <ele>281</ele>
        <time>2016-09-08T09:55:20Z</time>
      </trkpt>
      <trkpt lat="45.90234" lon="4.99241">
        <ele>281</ele>
        <time>2016-09-08T09:55:21Z</time>
      </trkpt>
      <trkpt lat="45.90234" lon="4.99249">
        <ele>281</ele>
        <time>2016-09-08T09:55:22Z</time>
      </trkpt>
      <trkpt lat="45.90234" lon="4.99258">
        <ele>281</ele>
        <time>2016-09-08T09:55:23Z</time>
      </trkpt>
      <trkpt lat="45.90234" lon="4.99267">
        <ele>281</ele>
        <time>2016-09-08T09:55:24Z</time>
      </trkpt>
      <trkpt lat="45.90234" lon="4.99277">
        <ele>281</ele>
        <time>2016-09-08T09:55:25Z</time>
      </trkpt>
      <trkpt lat="45.90234" lon="4.99286">
        <ele>281</ele>
        <time>2016-09-08T09:55:26Z</time>
      </trkpt>
      <trkpt lat="45.90234" lon="4.99295">
        <ele>281</ele>
        <time>2016-09-08T09:55:27Z</time>
      </trkpt>
      <trkpt lat="45.90234" lon="4.99303">
        <ele>281</ele>
        <time>2016-09-08T09:55:28Z</time>
      </trkpt>
      <trkpt lat="45.90233" lon="4.99311">
        <ele>281</ele>
        <time>2016-09-08T09:55:29Z</time>
      </trkpt>
      <trkpt lat="45.90233" lon="4.99318">
        <ele>281</ele>
        <time>2016-09-08T09:55:30Z</time>
      </trkpt>
      <trkpt lat="45.90233" lon="4.99325">
        <ele>281</ele>
        <time>2016-09-08T09:55:31Z</time>
      </trkpt>
      <trkpt lat="45.90232" lon="4.99332">
        <ele>282</ele>
        <time>2016-09-08T09:55:32Z</time>
      </trkpt>
      <trkpt lat="45.90232" lon="4.9934">
        <ele>282</ele>
        <time>2016-09-08T09:55:33Z</time>
      </trkpt>
      <trkpt lat="45.90231" lon="4.99346">
        <ele>282</ele>
        <time>2016-09-08T09:55:34Z</time>
      </trkpt>
      <trkpt lat="45.90231" lon="4.99354">
        <ele>282</ele>
        <time>2016-09-08T09:55:35Z</time>
      </trkpt>
      <trkpt lat="45.9023" lon="4.9936">
        <ele>282</ele>
        <time>2016-09-08T09:55:36Z</time>
      </trkpt>
      <trkpt lat="45.9023" lon="4.99367">
        <ele>282</ele>
        <time>2016-09-08T09:55:37Z</time>
      </trkpt>
      <trkpt lat="45.9023" lon="4.99374">
        <ele>282</ele>
        <time>2016-09-08T09:55:38Z</time>
      </trkpt>
      <trkpt lat="45.9023" lon="4.9938">
        <ele>283</ele>
        <time>2016-09-08T09:55:39Z</time>
      </trkpt>
      <trkpt lat="45.90229" lon="4.99387">
        <ele>283</ele>
        <time>2016-09-08T09:55:40Z</time>
      </trkpt>
      <trkpt lat="45.90229" lon="4.99393">
        <ele>283</ele>
        <time>2016-09-08T09:55:41Z</time>
      </trkpt>
      <trkpt lat="45.90229" lon="4.994">
        <ele>283</ele>
        <time>2016-09-08T09:55:42Z</time>
      </trkpt>
      <trkpt lat="45.90227" lon="4.99412">
        <ele>283</ele>
        <time>2016-09-08T09:55:44Z</time>
      </trkpt>
      <trkpt lat="45.90227" lon="4.99418">
        <ele>284</ele>
        <time>2016-09-08T09:55:45Z</time>
      </trkpt>
      <trkpt lat="45.90226" lon="4.9943">
        <ele>284</ele>
        <time>2016-09-08T09:55:47Z</time>
      </trkpt>
      <trkpt lat="45.90226" lon="4.99437">
        <ele>284</ele>
        <time>2016-09-08T09:55:48Z</time>
      </trkpt>
      <trkpt lat="45.90224" lon="4.99449">
        <ele>284</ele>
        <time>2016-09-08T09:55:50Z</time>
      </trkpt>
      <trkpt lat="45.90223" lon="4.99455">
        <ele>284</ele>
        <time>2016-09-08T09:55:51Z</time>
      </trkpt>
      <trkpt lat="45.90222" lon="4.99467">
        <ele>284</ele>
        <time>2016-09-08T09:55:53Z</time>
      </trkpt>
      <trkpt lat="45.90221" lon="4.99472">
        <ele>284</ele>
        <time>2016-09-08T09:55:54Z</time>
      </trkpt>
      <trkpt lat="45.90218" lon="4.99483">
        <ele>284</ele>
        <time>2016-09-08T09:55:56Z</time>
      </trkpt>
      <trkpt lat="45.90217" lon="4.99489">
        <ele>284</ele>
        <time>2016-09-08T09:55:57Z</time>
      </trkpt>
      <trkpt lat="45.90215" lon="4.995">
        <ele>284</ele>
        <time>2016-09-08T09:55:59Z</time>
      </trkpt>
      <trkpt lat="45.90213" lon="4.99505">
        <ele>285</ele>
        <time>2016-09-08T09:56:00Z</time>
      </trkpt>
      <trkpt lat="45.90211" lon="4.99517">
        <ele>285</ele>
        <time>2016-09-08T09:56:02Z</time>
      </trkpt>
      <trkpt lat="45.9021" lon="4.99523">
        <ele>285</ele>
        <time>2016-09-08T09:56:03Z</time>
      </trkpt>
      <trkpt lat="45.90209" lon="4.99529">
        <ele>285</ele>
        <time>2016-09-08T09:56:04Z</time>
      </trkpt>
      <trkpt lat="45.90207" lon="4.99536">
        <ele>285</ele>
        <time>2016-09-08T09:56:05Z</time>
      </trkpt>
      <trkpt lat="45.90206" lon="4.99543">
        <ele>285</ele>
        <time>2016-09-08T09:56:06Z</time>
      </trkpt>
      <trkpt lat="45.90205" lon="4.9955">
        <ele>285</ele>
        <time>2016-09-08T09:56:07Z</time>
      </trkpt>
      <trkpt lat="45.90205" lon="4.99557">
        <ele>285</ele>
        <time>2016-09-08T09:56:08Z</time>
      </trkpt>
      <trkpt lat="45.90205" lon="4.99563">
        <ele>285</ele>
        <time>2016-09-08T09:56:09Z</time>
      </trkpt>
      <trkpt lat="45.90204" lon="4.9957">
        <ele>286</ele>
        <time>2016-09-08T09:56:10Z</time>
      </trkpt>
      <trkpt lat="45.90204" lon="4.99577">
        <ele>286</ele>
        <time>2016-09-08T09:56:11Z</time>
      </trkpt>
      <trkpt lat="45.90205" lon="4.99584">
        <ele>287</ele>
        <time>2016-09-08T09:56:12Z</time>
      </trkpt>
      <trkpt lat="45.90206" lon="4.99592">
        <ele>287</ele>
        <time>2016-09-08T09:56:13Z</time>
      </trkpt>
      <trkpt lat="45.90206" lon="4.996">
        <ele>287</ele>
        <time>2016-09-08T09:56:14Z</time>
      </trkpt>
      <trkpt lat="45.90206" lon="4.99607">
        <ele>287</ele>
        <time>2016-09-08T09:56:15Z</time>
      </trkpt>
      <trkpt lat="45.90206" lon="4.99619">
        <ele>287</ele>
        <time>2016-09-08T09:56:17Z</time>
      </trkpt>
      <trkpt lat="45.90207" lon="4.99626">
        <ele>287</ele>
        <time>2016-09-08T09:56:18Z</time>
      </trkpt>
      <trkpt lat="45.90208" lon="4.99632">
        <ele>287</ele>
        <time>2016-09-08T09:56:19Z</time>
      </trkpt>
      <trkpt lat="45.90209" lon="4.99639">
        <ele>287</ele>
        <time>2016-09-08T09:56:20Z</time>
      </trkpt>
      <trkpt lat="45.9021" lon="4.99646">
        <ele>287</ele>
        <time>2016-09-08T09:56:21Z</time>
      </trkpt>
      <trkpt lat="45.90212" lon="4.99652">
        <ele>287</ele>
        <time>2016-09-08T09:56:22Z</time>
      </trkpt>
      <trkpt lat="45.90214" lon="4.99659">
        <ele>287</ele>
        <time>2016-09-08T09:56:23Z</time>
      </trkpt>
      <trkpt lat="45.90216" lon="4.99665">
        <ele>287</ele>
        <time>2016-09-08T09:56:24Z</time>
      </trkpt>
      <trkpt lat="45.90217" lon="4.99672">
        <ele>288</ele>
        <time>2016-09-08T09:56:25Z</time>
      </trkpt>
      <trkpt lat="45.90219" lon="4.99678">
        <ele>288</ele>
        <time>2016-09-08T09:56:26Z</time>
      </trkpt>
      <trkpt lat="45.90219" lon="4.99684">
        <ele>288</ele>
        <time>2016-09-08T09:56:27Z</time>
      </trkpt>
      <trkpt lat="45.90221" lon="4.99691">
        <ele>288</ele>
        <time>2016-09-08T09:56:28Z</time>
      </trkpt>
      <trkpt lat="45.90223" lon="4.99697">
        <ele>288</ele>
        <time>2016-09-08T09:56:29Z</time>
      </trkpt>
      <trkpt lat="45.90224" lon="4.99704">
        <ele>288</ele>
        <time>2016-09-08T09:56:30Z</time>
      </trkpt>
      <trkpt lat="45.90225" lon="4.99711">
        <ele>288</ele>
        <time>2016-09-08T09:56:31Z</time>
      </trkpt>
      <trkpt lat="45.90226" lon="4.99718">
        <ele>288</ele>
        <time>2016-09-08T09:56:32Z</time>
      </trkpt>
      <trkpt lat="45.90226" lon="4.99725">
        <ele>288</ele>
        <time>2016-09-08T09:56:33Z</time>
      </trkpt>
      <trkpt lat="45.90227" lon="4.99732">
        <ele>288</ele>
        <time>2016-09-08T09:56:34Z</time>
      </trkpt>
      <trkpt lat="45.90228" lon="4.99738">
        <ele>288</ele>
        <time>2016-09-08T09:56:35Z</time>
      </trkpt>
      <trkpt lat="45.90228" lon="4.99745">
        <ele>288</ele>
        <time>2016-09-08T09:56:36Z</time>
      </trkpt>
      <trkpt lat="45.90229" lon="4.99752">
        <ele>288</ele>
        <time>2016-09-08T09:56:37Z</time>
      </trkpt>
      <trkpt lat="45.90231" lon="4.99759">
        <ele>288</ele>
        <time>2016-09-08T09:56:38Z</time>
      </trkpt>
      <trkpt lat="45.90232" lon="4.99766">
        <ele>288</ele>
        <time>2016-09-08T09:56:39Z</time>
      </trkpt>
      <trkpt lat="45.90233" lon="4.99773">
        <ele>288</ele>
        <time>2016-09-08T09:56:40Z</time>
      </trkpt>
      <trkpt lat="45.90233" lon="4.9978">
        <ele>288</ele>
        <time>2016-09-08T09:56:41Z</time>
      </trkpt>
      <trkpt lat="45.90234" lon="4.99788">
        <ele>287</ele>
        <time>2016-09-08T09:56:42Z</time>
      </trkpt>
      <trkpt lat="45.90234" lon="4.99795">
        <ele>287</ele>
        <time>2016-09-08T09:56:43Z</time>
      </trkpt>
      <trkpt lat="45.90235" lon="4.99803">
        <ele>287</ele>
        <time>2016-09-08T09:56:44Z</time>
      </trkpt>
      <trkpt lat="45.90236" lon="4.99811">
        <ele>287</ele>
        <time>2016-09-08T09:56:45Z</time>
      </trkpt>
      <trkpt lat="45.90237" lon="4.99819">
        <ele>287</ele>
        <time>2016-09-08T09:56:46Z</time>
      </trkpt>
      <trkpt lat="45.90237" lon="4.99827">
        <ele>287</ele>
        <time>2016-09-08T09:56:47Z</time>
      </trkpt>
      <trkpt lat="45.90238" lon="4.99834">
        <ele>287</ele>
        <time>2016-09-08T09:56:48Z</time>
      </trkpt>
      <trkpt lat="45.9024" lon="4.99842">
        <ele>287</ele>
        <time>2016-09-08T09:56:49Z</time>
      </trkpt>
      <trkpt lat="45.90242" lon="4.99851">
        <ele>287</ele>
        <time>2016-09-08T09:56:50Z</time>
      </trkpt>
      <trkpt lat="45.90246" lon="4.99859">
        <ele>287</ele>
        <time>2016-09-08T09:56:51Z</time>
      </trkpt>
      <trkpt lat="45.90251" lon="4.99866">
        <ele>285</ele>
        <time>2016-09-08T09:56:52Z</time>
      </trkpt>
      <trkpt lat="45.90254" lon="4.99874">
        <ele>285</ele>
        <time>2016-09-08T09:56:53Z</time>
      </trkpt>
      <trkpt lat="45.90257" lon="4.99882">
        <ele>285</ele>
        <time>2016-09-08T09:56:54Z</time>
      </trkpt>
      <trkpt lat="45.90258" lon="4.99891">
        <ele>285</ele>
        <time>2016-09-08T09:56:55Z</time>
      </trkpt>
      <trkpt lat="45.90259" lon="4.99902">
        <ele>285</ele>
        <time>2016-09-08T09:56:56Z</time>
      </trkpt>
      <trkpt lat="45.90257" lon="4.99912">
        <ele>286</ele>
        <time>2016-09-08T09:56:57Z</time>
      </trkpt>
      <trkpt lat="45.90256" lon="4.99922">
        <ele>286</ele>
        <time>2016-09-08T09:56:58Z</time>
      </trkpt>
      <trkpt lat="45.90254" lon="4.99932">
        <ele>285</ele>
        <time>2016-09-08T09:56:59Z</time>
      </trkpt>
      <trkpt lat="45.90253" lon="4.99942">
        <ele>285</ele>
        <time>2016-09-08T09:57:00Z</time>
      </trkpt>
      <trkpt lat="45.90252" lon="4.99953">
        <ele>284</ele>
        <time>2016-09-08T09:57:01Z</time>
      </trkpt>
      <trkpt lat="45.90251" lon="4.99963">
        <ele>284</ele>
        <time>2016-09-08T09:57:02Z</time>
      </trkpt>
      <trkpt lat="45.9025" lon="4.99974">
        <ele>286</ele>
        <time>2016-09-08T09:57:03Z</time>
      </trkpt>
      <trkpt lat="45.9025" lon="4.99984">
        <ele>286</ele>
        <time>2016-09-08T09:57:04Z</time>
      </trkpt>
      <trkpt lat="45.90249" lon="4.99996">
        <ele>285</ele>
        <time>2016-09-08T09:57:05Z</time>
      </trkpt>
      <trkpt lat="45.90248" lon="5.00007">
        <ele>285</ele>
        <time>2016-09-08T09:57:06Z</time>
      </trkpt>
      <trkpt lat="45.90247" lon="5.00018">
        <ele>284</ele>
        <time>2016-09-08T09:57:07Z</time>
      </trkpt>
      <trkpt lat="45.90247" lon="5.0003">
        <ele>284</ele>
        <time>2016-09-08T09:57:08Z</time>
      </trkpt>
      <trkpt lat="45.90247" lon="5.00042">
        <ele>284</ele>
        <time>2016-09-08T09:57:09Z</time>
      </trkpt>
      <trkpt lat="45.90246" lon="5.00053">
        <ele>283</ele>
        <time>2016-09-08T09:57:10Z</time>
      </trkpt>
      <trkpt lat="45.90245" lon="5.00064">
        <ele>283</ele>
        <time>2016-09-08T09:57:11Z</time>
      </trkpt>
      <trkpt lat="45.90244" lon="5.00075">
        <ele>282</ele>
        <time>2016-09-08T09:57:12Z</time>
      </trkpt>
      <trkpt lat="45.90243" lon="5.00087">
        <ele>281</ele>
        <time>2016-09-08T09:57:13Z</time>
      </trkpt>
      <trkpt lat="45.90242" lon="5.00098">
        <ele>281</ele>
        <time>2016-09-08T09:57:14Z</time>
      </trkpt>
      <trkpt lat="45.90241" lon="5.00109">
        <ele>280</ele>
        <time>2016-09-08T09:57:15Z</time>
      </trkpt>
      <trkpt lat="45.90239" lon="5.0012">
        <ele>280</ele>
        <time>2016-09-08T09:57:16Z</time>
      </trkpt>
      <trkpt lat="45.90238" lon="5.00131">
        <ele>279</ele>
        <time>2016-09-08T09:57:17Z</time>
      </trkpt>
      <trkpt lat="45.90237" lon="5.00142">
        <ele>279</ele>
        <time>2016-09-08T09:57:18Z</time>
      </trkpt>
      <trkpt lat="45.90236" lon="5.00153">
        <ele>279</ele>
        <time>2016-09-08T09:57:19Z</time>
      </trkpt>
      <trkpt lat="45.90235" lon="5.00164">
        <ele>279</ele>
        <time>2016-09-08T09:57:20Z</time>
      </trkpt>
      <trkpt lat="45.90234" lon="5.00175">
        <ele>278</ele>
        <time>2016-09-08T09:57:21Z</time>
      </trkpt>
      <trkpt lat="45.90234" lon="5.00186">
        <ele>277</ele>
        <time>2016-09-08T09:57:22Z</time>
      </trkpt>
      <trkpt lat="45.90233" lon="5.00196">
        <ele>277</ele>
        <time>2016-09-08T09:57:23Z</time>
      </trkpt>
      <trkpt lat="45.90232" lon="5.00207">
        <ele>277</ele>
        <time>2016-09-08T09:57:24Z</time>
      </trkpt>
      <trkpt lat="45.90232" lon="5.00217">
        <ele>277</ele>
        <time>2016-09-08T09:57:25Z</time>
      </trkpt>
      <trkpt lat="45.90231" lon="5.00227">
        <ele>277</ele>
        <time>2016-09-08T09:57:26Z</time>
      </trkpt>
      <trkpt lat="45.9023" lon="5.00237">
        <ele>277</ele>
        <time>2016-09-08T09:57:27Z</time>
      </trkpt>
      <trkpt lat="45.9023" lon="5.00247">
        <ele>277</ele>
        <time>2016-09-08T09:57:28Z</time>
      </trkpt>
      <trkpt lat="45.90229" lon="5.00257">
        <ele>277</ele>
        <time>2016-09-08T09:57:29Z</time>
      </trkpt>
      <trkpt lat="45.90228" lon="5.00267">
        <ele>277</ele>
        <time>2016-09-08T09:57:30Z</time>
      </trkpt>
      <trkpt lat="45.90226" lon="5.00278">
        <ele>277</ele>
        <time>2016-09-08T09:57:31Z</time>
      </trkpt>
      <trkpt lat="45.90225" lon="5.00288">
        <ele>277</ele>
        <time>2016-09-08T09:57:32Z</time>
      </trkpt>
      <trkpt lat="45.90225" lon="5.00297">
        <ele>277</ele>
        <time>2016-09-08T09:57:33Z</time>
      </trkpt>
      <trkpt lat="45.90224" lon="5.00307">
        <ele>277</ele>
        <time>2016-09-08T09:57:34Z</time>
      </trkpt>
      <trkpt lat="45.90224" lon="5.00315">
        <ele>277</ele>
        <time>2016-09-08T09:57:35Z</time>
      </trkpt>
      <trkpt lat="45.90225" lon="5.00324">
        <ele>277</ele>
        <time>2016-09-08T09:57:36Z</time>
      </trkpt>
      <trkpt lat="45.90226" lon="5.00332">
        <ele>277</ele>
        <time>2016-09-08T09:57:37Z</time>
      </trkpt>
      <trkpt lat="45.90228" lon="5.0034">
        <ele>277</ele>
        <time>2016-09-08T09:57:38Z</time>
      </trkpt>
      <trkpt lat="45.9023" lon="5.00348">
        <ele>277</ele>
        <time>2016-09-08T09:57:39Z</time>
      </trkpt>
      <trkpt lat="45.90234" lon="5.00356">
        <ele>277</ele>
        <time>2016-09-08T09:57:40Z</time>
      </trkpt>
      <trkpt lat="45.90238" lon="5.00364">
        <ele>277</ele>
        <time>2016-09-08T09:57:41Z</time>
      </trkpt>
      <trkpt lat="45.90243" lon="5.0037">
        <ele>277</ele>
        <time>2016-09-08T09:57:42Z</time>
      </trkpt>
      <trkpt lat="45.90248" lon="5.00376">
        <ele>278</ele>
        <time>2016-09-08T09:57:43Z</time>
      </trkpt>
      <trkpt lat="45.90253" lon="5.00383">
        <ele>278</ele>
        <time>2016-09-08T09:57:44Z</time>
      </trkpt>
      <trkpt lat="45.90258" lon="5.00389">
        <ele>278</ele>
        <time>2016-09-08T09:57:45Z</time>
      </trkpt>
      <trkpt lat="45.90262" lon="5.00394">
        <ele>278</ele>
        <time>2016-09-08T09:57:46Z</time>
      </trkpt>
      <trkpt lat="45.90267" lon="5.004">
        <ele>279</ele>
        <time>2016-09-08T09:57:47Z</time>
      </trkpt>
      <trkpt lat="45.90272" lon="5.00406">
        <ele>279</ele>
        <time>2016-09-08T09:57:48Z</time>
      </trkpt>
      <trkpt lat="45.90276" lon="5.00412">
        <ele>279</ele>
        <time>2016-09-08T09:57:49Z</time>
      </trkpt>
      <trkpt lat="45.90281" lon="5.00418">
        <ele>279</ele>
        <time>2016-09-08T09:57:50Z</time>
      </trkpt>
      <trkpt lat="45.90286" lon="5.00423">
        <ele>279</ele>
        <time>2016-09-08T09:57:51Z</time>
      </trkpt>
      <trkpt lat="45.90291" lon="5.00428">
        <ele>279</ele>
        <time>2016-09-08T09:57:52Z</time>
      </trkpt>
      <trkpt lat="45.90295" lon="5.00433">
        <ele>279</ele>
        <time>2016-09-08T09:57:53Z</time>
      </trkpt>
      <trkpt lat="45.90299" lon="5.00438">
        <ele>279</ele>
        <time>2016-09-08T09:57:54Z</time>
      </trkpt>
      <trkpt lat="45.90303" lon="5.00443">
        <ele>279</ele>
        <time>2016-09-08T09:57:55Z</time>
      </trkpt>
      <trkpt lat="45.90307" lon="5.00448">
        <ele>279</ele>
        <time>2016-09-08T09:57:56Z</time>
      </trkpt>
      <trkpt lat="45.90311" lon="5.00454">
        <ele>279</ele>
        <time>2016-09-08T09:57:57Z</time>
      </trkpt>
      <trkpt lat="45.90315" lon="5.00459">
        <ele>280</ele>
        <time>2016-09-08T09:57:58Z</time>
      </trkpt>
      <trkpt lat="45.90319" lon="5.00464">
        <ele>280</ele>
        <time>2016-09-08T09:57:59Z</time>
      </trkpt>
      <trkpt lat="45.90323" lon="5.00469">
        <ele>280</ele>
        <time>2016-09-08T09:58:00Z</time>
      </trkpt>
      <trkpt lat="45.90327" lon="5.00475">
        <ele>280</ele>
        <time>2016-09-08T09:58:01Z</time>
      </trkpt>
      <trkpt lat="45.90331" lon="5.00481">
        <ele>280</ele>
        <time>2016-09-08T09:58:02Z</time>
      </trkpt>
      <trkpt lat="45.90335" lon="5.00487">
        <ele>280</ele>
        <time>2016-09-08T09:58:03Z</time>
      </trkpt>
      <trkpt lat="45.9034" lon="5.00492">
        <ele>280</ele>
        <time>2016-09-08T09:58:04Z</time>
      </trkpt>
      <trkpt lat="45.90344" lon="5.00498">
        <ele>280</ele>
        <time>2016-09-08T09:58:05Z</time>
      </trkpt>
      <trkpt lat="45.90347" lon="5.00503">
        <ele>280</ele>
        <time>2016-09-08T09:58:06Z</time>
      </trkpt>
      <trkpt lat="45.90354" lon="5.00511">
        <ele>281</ele>
        <time>2016-09-08T09:58:08Z</time>
      </trkpt>
      <trkpt lat="45.90357" lon="5.00516">
        <ele>281</ele>
        <time>2016-09-08T09:58:09Z</time>
      </trkpt>
      <trkpt lat="45.90364" lon="5.00524">
        <ele>281</ele>
        <time>2016-09-08T09:58:11Z</time>
      </trkpt>
      <trkpt lat="45.90367" lon="5.00529">
        <ele>281</ele>
        <time>2016-09-08T09:58:12Z</time>
      </trkpt>
      <trkpt lat="45.90371" lon="5.00533">
        <ele>281</ele>
        <time>2016-09-08T09:58:13Z</time>
      </trkpt>
      <trkpt lat="45.90375" lon="5.00538">
        <ele>281</ele>
        <time>2016-09-08T09:58:14Z</time>
      </trkpt>
      <trkpt lat="45.90379" lon="5.00542">
        <ele>281</ele>
        <time>2016-09-08T09:58:15Z</time>
      </trkpt>
      <trkpt lat="45.90382" lon="5.00547">
        <ele>281</ele>
        <time>2016-09-08T09:58:16Z</time>
      </trkpt>
      <trkpt lat="45.90387" lon="5.00557">
        <ele>281</ele>
        <time>2016-09-08T09:58:18Z</time>
      </trkpt>
      <trkpt lat="45.90387" lon="5.00564">
        <ele>281</ele>
        <time>2016-09-08T09:58:19Z</time>
      </trkpt>
      <trkpt lat="45.90387" lon="5.00571">
        <ele>281</ele>
        <time>2016-09-08T09:58:20Z</time>
      </trkpt>
      <trkpt lat="45.90388" lon="5.00578">
        <ele>281</ele>
        <time>2016-09-08T09:58:21Z</time>
      </trkpt>
      <trkpt lat="45.90388" lon="5.00585">
        <ele>282</ele>
        <time>2016-09-08T09:58:22Z</time>
      </trkpt>
      <trkpt lat="45.90389" lon="5.00592">
        <ele>282</ele>
        <time>2016-09-08T09:58:23Z</time>
      </trkpt>
      <trkpt lat="45.90389" lon="5.00599">
        <ele>282</ele>
        <time>2016-09-08T09:58:24Z</time>
      </trkpt>
      <trkpt lat="45.9039" lon="5.00606">
        <ele>282</ele>
        <time>2016-09-08T09:58:25Z</time>
      </trkpt>
      <trkpt lat="45.90391" lon="5.00613">
        <ele>282</ele>
        <time>2016-09-08T09:58:26Z</time>
      </trkpt>
      <trkpt lat="45.90391" lon="5.0062">
        <ele>282</ele>
        <time>2016-09-08T09:58:27Z</time>
      </trkpt>
      <trkpt lat="45.90391" lon="5.00626">
        <ele>282</ele>
        <time>2016-09-08T09:58:28Z</time>
      </trkpt>
      <trkpt lat="45.90392" lon="5.00633">
        <ele>282</ele>
        <time>2016-09-08T09:58:29Z</time>
      </trkpt>
      <trkpt lat="45.90392" lon="5.0064">
        <ele>282</ele>
        <time>2016-09-08T09:58:30Z</time>
      </trkpt>
      <trkpt lat="45.90392" lon="5.00646">
        <ele>282</ele>
        <time>2016-09-08T09:58:31Z</time>
      </trkpt>
      <trkpt lat="45.90393" lon="5.00653">
        <ele>282</ele>
        <time>2016-09-08T09:58:32Z</time>
      </trkpt>
      <trkpt lat="45.90394" lon="5.0066">
        <ele>282</ele>
        <time>2016-09-08T09:58:33Z</time>
      </trkpt>
      <trkpt lat="45.90394" lon="5.00667">
        <ele>282</ele>
        <time>2016-09-08T09:58:34Z</time>
      </trkpt>
      <trkpt lat="45.90395" lon="5.00674">
        <ele>282</ele>
        <time>2016-09-08T09:58:35Z</time>
      </trkpt>
      <trkpt lat="45.90396" lon="5.00682">
        <ele>282</ele>
        <time>2016-09-08T09:58:36Z</time>
      </trkpt>
      <trkpt lat="45.90396" lon="5.0069">
        <ele>282</ele>
        <time>2016-09-08T09:58:37Z</time>
      </trkpt>
      <trkpt lat="45.90396" lon="5.00697">
        <ele>282</ele>
        <time>2016-09-08T09:58:38Z</time>
      </trkpt>
      <trkpt lat="45.90397" lon="5.00704">
        <ele>282</ele>
        <time>2016-09-08T09:58:39Z</time>
      </trkpt>
      <trkpt lat="45.90398" lon="5.00712">
        <ele>282</ele>
        <time>2016-09-08T09:58:40Z</time>
      </trkpt>
      <trkpt lat="45.90398" lon="5.00719">
        <ele>283</ele>
        <time>2016-09-08T09:58:41Z</time>
      </trkpt>
      <trkpt lat="45.90398" lon="5.00726">
        <ele>283</ele>
        <time>2016-09-08T09:58:42Z</time>
      </trkpt>
      <trkpt lat="45.90399" lon="5.00734">
        <ele>282</ele>
        <time>2016-09-08T09:58:43Z</time>
      </trkpt>
      <trkpt lat="45.904" lon="5.00741">
        <ele>282</ele>
        <time>2016-09-08T09:58:44Z</time>
      </trkpt>
      <trkpt lat="45.904" lon="5.00749">
        <ele>282</ele>
        <time>2016-09-08T09:58:45Z</time>
      </trkpt>
      <trkpt lat="45.90401" lon="5.00756">
        <ele>283</ele>
        <time>2016-09-08T09:58:46Z</time>
      </trkpt>
      <trkpt lat="45.90401" lon="5.00763">
        <ele>283</ele>
        <time>2016-09-08T09:58:47Z</time>
      </trkpt>
      <trkpt lat="45.90401" lon="5.0077">
        <ele>283</ele>
        <time>2016-09-08T09:58:48Z</time>
      </trkpt>
      <trkpt lat="45.90402" lon="5.00776">
        <ele>283</ele>
        <time>2016-09-08T09:58:49Z</time>
      </trkpt>
      <trkpt lat="45.90403" lon="5.00789">
        <ele>283</ele>
        <time>2016-09-08T09:58:51Z</time>
      </trkpt>
      <trkpt lat="45.90403" lon="5.00796">
        <ele>283</ele>
        <time>2016-09-08T09:58:52Z</time>
      </trkpt>
      <trkpt lat="45.90404" lon="5.00803">
        <ele>283</ele>
        <time>2016-09-08T09:58:53Z</time>
      </trkpt>
      <trkpt lat="45.90405" lon="5.00812">
        <ele>283</ele>
        <time>2016-09-08T09:58:54Z</time>
      </trkpt>
      <trkpt lat="45.90406" lon="5.0082">
        <ele>283</ele>
        <time>2016-09-08T09:58:55Z</time>
      </trkpt>
      <trkpt lat="45.90407" lon="5.00829">
        <ele>283</ele>
        <time>2016-09-08T09:58:56Z</time>
      </trkpt>
      <trkpt lat="45.90407" lon="5.00838">
        <ele>283</ele>
        <time>2016-09-08T09:58:57Z</time>
      </trkpt>
      <trkpt lat="45.90408" lon="5.00847">
        <ele>284</ele>
        <time>2016-09-08T09:58:58Z</time>
      </trkpt>
      <trkpt lat="45.90409" lon="5.00857">
        <ele>284</ele>
        <time>2016-09-08T09:58:59Z</time>
      </trkpt>
      <trkpt lat="45.90409" lon="5.00866">
        <ele>284</ele>
        <time>2016-09-08T09:59:00Z</time>
      </trkpt>
      <trkpt lat="45.9041" lon="5.00875">
        <ele>284</ele>
        <time>2016-09-08T09:59:01Z</time>
      </trkpt>
      <trkpt lat="45.90411" lon="5.00884">
        <ele>284</ele>
        <time>2016-09-08T09:59:02Z</time>
      </trkpt>
      <trkpt lat="45.90411" lon="5.00892">
        <ele>284</ele>
        <time>2016-09-08T09:59:03Z</time>
      </trkpt>
      <trkpt lat="45.90412" lon="5.00901">
        <ele>284</ele>
        <time>2016-09-08T09:59:04Z</time>
      </trkpt>
      <trkpt lat="45.90413" lon="5.00909">
        <ele>283</ele>
        <time>2016-09-08T09:59:05Z</time>
      </trkpt>
      <trkpt lat="45.90414" lon="5.00918">
        <ele>283</ele>
        <time>2016-09-08T09:59:06Z</time>
      </trkpt>
      <trkpt lat="45.90415" lon="5.00926">
        <ele>283</ele>
        <time>2016-09-08T09:59:07Z</time>
      </trkpt>
      <trkpt lat="45.90415" lon="5.00934">
        <ele>284</ele>
        <time>2016-09-08T09:59:08Z</time>
      </trkpt>
      <trkpt lat="45.90415" lon="5.00942">
        <ele>284</ele>
        <time>2016-09-08T09:59:09Z</time>
      </trkpt>
      <trkpt lat="45.90416" lon="5.0095">
        <ele>284</ele>
        <time>2016-09-08T09:59:10Z</time>
      </trkpt>
      <trkpt lat="45.90417" lon="5.00958">
        <ele>284</ele>
        <time>2016-09-08T09:59:11Z</time>
      </trkpt>
      <trkpt lat="45.90418" lon="5.00966">
        <ele>282</ele>
        <time>2016-09-08T09:59:12Z</time>
      </trkpt>
      <trkpt lat="45.90418" lon="5.00974">
        <ele>282</ele>
        <time>2016-09-08T09:59:13Z</time>
      </trkpt>
      <trkpt lat="45.90419" lon="5.00982">
        <ele>282</ele>
        <time>2016-09-08T09:59:14Z</time>
      </trkpt>
      <trkpt lat="45.9042" lon="5.00991">
        <ele>282</ele>
        <time>2016-09-08T09:59:15Z</time>
      </trkpt>
      <trkpt lat="45.90421" lon="5.00999">
        <ele>282</ele>
        <time>2016-09-08T09:59:16Z</time>
      </trkpt>
      <trkpt lat="45.90421" lon="5.01008">
        <ele>282</ele>
        <time>2016-09-08T09:59:17Z</time>
      </trkpt>
      <trkpt lat="45.90421" lon="5.01016">
        <ele>282</ele>
        <time>2016-09-08T09:59:18Z</time>
      </trkpt>
      <trkpt lat="45.90422" lon="5.01024">
        <ele>282</ele>
        <time>2016-09-08T09:59:19Z</time>
      </trkpt>
      <trkpt lat="45.90423" lon="5.01032">
        <ele>282</ele>
        <time>2016-09-08T09:59:20Z</time>
      </trkpt>
      <trkpt lat="45.90424" lon="5.01041">
        <ele>282</ele>
        <time>2016-09-08T09:59:21Z</time>
      </trkpt>
      <trkpt lat="45.90425" lon="5.01049">
        <ele>282</ele>
        <time>2016-09-08T09:59:22Z</time>
      </trkpt>
      <trkpt lat="45.90425" lon="5.01057">
        <ele>282</ele>
        <time>2016-09-08T09:59:23Z</time>
      </trkpt>
      <trkpt lat="45.90426" lon="5.01066">
        <ele>282</ele>
        <time>2016-09-08T09:59:24Z</time>
      </trkpt>
      <trkpt lat="45.90427" lon="5.01074">
        <ele>282</ele>
        <time>2016-09-08T09:59:25Z</time>
      </trkpt>
      <trkpt lat="45.90427" lon="5.01082">
        <ele>282</ele>
        <time>2016-09-08T09:59:26Z</time>
      </trkpt>
      <trkpt lat="45.90428" lon="5.01091">
        <ele>282</ele>
        <time>2016-09-08T09:59:27Z</time>
      </trkpt>
      <trkpt lat="45.90429" lon="5.011">
        <ele>282</ele>
        <time>2016-09-08T09:59:28Z</time>
      </trkpt>
      <trkpt lat="45.9043" lon="5.01108">
        <ele>282</ele>
        <time>2016-09-08T09:59:29Z</time>
      </trkpt>
      <trkpt lat="45.90431" lon="5.01116">
        <ele>282</ele>
        <time>2016-09-08T09:59:30Z</time>
      </trkpt>
      <trkpt lat="45.90431" lon="5.01125">
        <ele>282</ele>
        <time>2016-09-08T09:59:31Z</time>
      </trkpt>
      <trkpt lat="45.90432" lon="5.01133">
        <ele>282</ele>
        <time>2016-09-08T09:59:32Z</time>
      </trkpt>
      <trkpt lat="45.90432" lon="5.01141">
        <ele>282</ele>
        <time>2016-09-08T09:59:33Z</time>
      </trkpt>
      <trkpt lat="45.90433" lon="5.01149">
        <ele>282</ele>
        <time>2016-09-08T09:59:34Z</time>
      </trkpt>
      <trkpt lat="45.90433" lon="5.01156">
        <ele>282</ele>
        <time>2016-09-08T09:59:35Z</time>
      </trkpt>
      <trkpt lat="45.90434" lon="5.01165">
        <ele>282</ele>
        <time>2016-09-08T09:59:36Z</time>
      </trkpt>
      <trkpt lat="45.90435" lon="5.01174">
        <ele>282</ele>
        <time>2016-09-08T09:59:37Z</time>
      </trkpt>
      <trkpt lat="45.90436" lon="5.01183">
        <ele>282</ele>
        <time>2016-09-08T09:59:38Z</time>
      </trkpt>
      <trkpt lat="45.90437" lon="5.01193">
        <ele>282</ele>
        <time>2016-09-08T09:59:39Z</time>
      </trkpt>
      <trkpt lat="45.90438" lon="5.01202">
        <ele>281</ele>
        <time>2016-09-08T09:59:40Z</time>
      </trkpt>
      <trkpt lat="45.90439" lon="5.01212">
        <ele>281</ele>
        <time>2016-09-08T09:59:41Z</time>
      </trkpt>
      <trkpt lat="45.9044" lon="5.01221">
        <ele>281</ele>
        <time>2016-09-08T09:59:42Z</time>
      </trkpt>
      <trkpt lat="45.90441" lon="5.0123">
        <ele>282</ele>
        <time>2016-09-08T09:59:43Z</time>
      </trkpt>
      <trkpt lat="45.90441" lon="5.01239">
        <ele>282</ele>
        <time>2016-09-08T09:59:44Z</time>
      </trkpt>
      <trkpt lat="45.90442" lon="5.01248">
        <ele>282</ele>
        <time>2016-09-08T09:59:45Z</time>
      </trkpt>
      <trkpt lat="45.90443" lon="5.01256">
        <ele>281</ele>
        <time>2016-09-08T09:59:46Z</time>
      </trkpt>
      <trkpt lat="45.90444" lon="5.01265">
        <ele>281</ele>
        <time>2016-09-08T09:59:47Z</time>
      </trkpt>
      <trkpt lat="45.90445" lon="5.01273">
        <ele>281</ele>
        <time>2016-09-08T09:59:48Z</time>
      </trkpt>
      <trkpt lat="45.90446" lon="5.01282">
        <ele>281</ele>
        <time>2016-09-08T09:59:49Z</time>
      </trkpt>
      <trkpt lat="45.90447" lon="5.0129">
        <ele>281</ele>
        <time>2016-09-08T09:59:50Z</time>
      </trkpt>
      <trkpt lat="45.90448" lon="5.01298">
        <ele>281</ele>
        <time>2016-09-08T09:59:51Z</time>
      </trkpt>
      <trkpt lat="45.90449" lon="5.01306">
        <ele>281</ele>
        <time>2016-09-08T09:59:52Z</time>
      </trkpt>
      <trkpt lat="45.9045" lon="5.01314">
        <ele>281</ele>
        <time>2016-09-08T09:59:53Z</time>
      </trkpt>
      <trkpt lat="45.9045" lon="5.01321">
        <ele>281</ele>
        <time>2016-09-08T09:59:54Z</time>
      </trkpt>
      <trkpt lat="45.9045" lon="5.01329">
        <ele>281</ele>
        <time>2016-09-08T09:59:55Z</time>
      </trkpt>
      <trkpt lat="45.90451" lon="5.01337">
        <ele>281</ele>
        <time>2016-09-08T09:59:56Z</time>
      </trkpt>
      <trkpt lat="45.90451" lon="5.01345">
        <ele>281</ele>
        <time>2016-09-08T09:59:57Z</time>
      </trkpt>
      <trkpt lat="45.90452" lon="5.01352">
        <ele>281</ele>
        <time>2016-09-08T09:59:58Z</time>
      </trkpt>
      <trkpt lat="45.90452" lon="5.01361">
        <ele>281</ele>
        <time>2016-09-08T09:59:59Z</time>
      </trkpt>
      <trkpt lat="45.90453" lon="5.01369">
        <ele>281</ele>
        <time>2016-09-08T10:00:00Z</time>
      </trkpt>
      <trkpt lat="45.90454" lon="5.01378">
        <ele>281</ele>
        <time>2016-09-08T10:00:01Z</time>
      </trkpt>
      <trkpt lat="45.90455" lon="5.01387">
        <ele>281</ele>
        <time>2016-09-08T10:00:02Z</time>
      </trkpt>
      <trkpt lat="45.90456" lon="5.01396">
        <ele>281</ele>
        <time>2016-09-08T10:00:03Z</time>
      </trkpt>
      <trkpt lat="45.90457" lon="5.01404">
        <ele>281</ele>
        <time>2016-09-08T10:00:04Z</time>
      </trkpt>
      <trkpt lat="45.90457" lon="5.01412">
        <ele>281</ele>
        <time>2016-09-08T10:00:05Z</time>
      </trkpt>
      <trkpt lat="45.90458" lon="5.0142">
        <ele>282</ele>
        <time>2016-09-08T10:00:06Z</time>
      </trkpt>
      <trkpt lat="45.90459" lon="5.01428">
        <ele>282</ele>
        <time>2016-09-08T10:00:07Z</time>
      </trkpt>
      <trkpt lat="45.9046" lon="5.01435">
        <ele>282</ele>
        <time>2016-09-08T10:00:08Z</time>
      </trkpt>
      <trkpt lat="45.9046" lon="5.01442">
        <ele>282</ele>
        <time>2016-09-08T10:00:09Z</time>
      </trkpt>
      <trkpt lat="45.90461" lon="5.01449">
        <ele>282</ele>
        <time>2016-09-08T10:00:10Z</time>
      </trkpt>
      <trkpt lat="45.90461" lon="5.01457">
        <ele>282</ele>
        <time>2016-09-08T10:00:11Z</time>
      </trkpt>
      <trkpt lat="45.90462" lon="5.01464">
        <ele>282</ele>
        <time>2016-09-08T10:00:12Z</time>
      </trkpt>
      <trkpt lat="45.90462" lon="5.01471">
        <ele>282</ele>
        <time>2016-09-08T10:00:13Z</time>
      </trkpt>
      <trkpt lat="45.90463" lon="5.01478">
        <ele>282</ele>
        <time>2016-09-08T10:00:14Z</time>
      </trkpt>
      <trkpt lat="45.90464" lon="5.01485">
        <ele>282</ele>
        <time>2016-09-08T10:00:15Z</time>
      </trkpt>
      <trkpt lat="45.90465" lon="5.01493">
        <ele>282</ele>
        <time>2016-09-08T10:00:16Z</time>
      </trkpt>
      <trkpt lat="45.90465" lon="5.015">
        <ele>283</ele>
        <time>2016-09-08T10:00:17Z</time>
      </trkpt>
      <trkpt lat="45.90466" lon="5.01508">
        <ele>283</ele>
        <time>2016-09-08T10:00:18Z</time>
      </trkpt>
      <trkpt lat="45.90467" lon="5.01515">
        <ele>283</ele>
        <time>2016-09-08T10:00:19Z</time>
      </trkpt>
      <trkpt lat="45.90468" lon="5.01523">
        <ele>283</ele>
        <time>2016-09-08T10:00:20Z</time>
      </trkpt>
      <trkpt lat="45.90469" lon="5.0153">
        <ele>283</ele>
        <time>2016-09-08T10:00:21Z</time>
      </trkpt>
      <trkpt lat="45.90469" lon="5.01538">
        <ele>283</ele>
        <time>2016-09-08T10:00:22Z</time>
      </trkpt>
      <trkpt lat="45.9047" lon="5.01545">
        <ele>283</ele>
        <time>2016-09-08T10:00:23Z</time>
      </trkpt>
      <trkpt lat="45.9047" lon="5.01552">
        <ele>283</ele>
        <time>2016-09-08T10:00:24Z</time>
      </trkpt>
      <trkpt lat="45.90471" lon="5.01559">
        <ele>283</ele>
        <time>2016-09-08T10:00:25Z</time>
      </trkpt>
      <trkpt lat="45.90471" lon="5.01566">
        <ele>283</ele>
        <time>2016-09-08T10:00:26Z</time>
      </trkpt>
      <trkpt lat="45.90471" lon="5.01577">
        <ele>284</ele>
        <time>2016-09-08T10:00:28Z</time>
      </trkpt>
      <trkpt lat="45.90472" lon="5.01582">
        <ele>284</ele>
        <time>2016-09-08T10:00:29Z</time>
      </trkpt>
      <trkpt lat="45.90477" lon="5.01589">
        <ele>285</ele>
        <time>2016-09-08T10:00:31Z</time>
      </trkpt>
      <trkpt lat="45.90481" lon="5.0159">
        <ele>285</ele>
        <time>2016-09-08T10:00:32Z</time>
      </trkpt>
      <trkpt lat="45.9049" lon="5.01589">
        <ele>285</ele>
        <time>2016-09-08T10:00:34Z</time>
      </trkpt>
      <trkpt lat="45.90494" lon="5.01587">
        <ele>285</ele>
        <time>2016-09-08T10:00:35Z</time>
      </trkpt>
      <trkpt lat="45.90502" lon="5.01584">
        <ele>285</ele>
        <time>2016-09-08T10:00:37Z</time>
      </trkpt>
      <trkpt lat="45.90506" lon="5.01583">
        <ele>285</ele>
        <time>2016-09-08T10:00:38Z</time>
      </trkpt>
      <trkpt lat="45.90511" lon="5.01583">
        <ele>284</ele>
        <time>2016-09-08T10:00:39Z</time>
      </trkpt>
      <trkpt lat="45.90516" lon="5.01582">
        <ele>284</ele>
        <time>2016-09-08T10:00:40Z</time>
      </trkpt>
      <trkpt lat="45.9052" lon="5.01581">
        <ele>284</ele>
        <time>2016-09-08T10:00:41Z</time>
      </trkpt>
      <trkpt lat="45.90525" lon="5.01581">
        <ele>284</ele>
        <time>2016-09-08T10:00:42Z</time>
      </trkpt>
      <trkpt lat="45.90534" lon="5.01581">
        <ele>284</ele>
        <time>2016-09-08T10:00:44Z</time>
      </trkpt>
      <trkpt lat="45.90538" lon="5.01582">
        <ele>284</ele>
        <time>2016-09-08T10:00:45Z</time>
      </trkpt>
      <trkpt lat="45.90543" lon="5.01583">
        <ele>284</ele>
        <time>2016-09-08T10:00:46Z</time>
      </trkpt>
      <trkpt lat="45.90548" lon="5.01584">
        <ele>285</ele>
        <time>2016-09-08T10:00:47Z</time>
      </trkpt>
      <trkpt lat="45.90553" lon="5.01585">
        <ele>285</ele>
        <time>2016-09-08T10:00:48Z</time>
      </trkpt>
      <trkpt lat="45.90558" lon="5.01586">
        <ele>285</ele>
        <time>2016-09-08T10:00:49Z</time>
      </trkpt>
      <trkpt lat="45.90563" lon="5.01587">
        <ele>285</ele>
        <time>2016-09-08T10:00:50Z</time>
      </trkpt>
      <trkpt lat="45.90568" lon="5.01589">
        <ele>285</ele>
        <time>2016-09-08T10:00:51Z</time>
      </trkpt>
      <trkpt lat="45.90573" lon="5.0159">
        <ele>285</ele>
        <time>2016-09-08T10:00:52Z</time>
      </trkpt>
      <trkpt lat="45.90578" lon="5.01592">
        <ele>285</ele>
        <time>2016-09-08T10:00:53Z</time>
      </trkpt>
      <trkpt lat="45.90583" lon="5.01594">
        <ele>285</ele>
        <time>2016-09-08T10:00:54Z</time>
      </trkpt>
      <trkpt lat="45.90588" lon="5.01595">
        <ele>284</ele>
        <time>2016-09-08T10:00:55Z</time>
      </trkpt>
      <trkpt lat="45.90593" lon="5.01597">
        <ele>284</ele>
        <time>2016-09-08T10:00:56Z</time>
      </trkpt>
      <trkpt lat="45.90599" lon="5.01599">
        <ele>284</ele>
        <time>2016-09-08T10:00:57Z</time>
      </trkpt>
      <trkpt lat="45.90605" lon="5.016">
        <ele>284</ele>
        <time>2016-09-08T10:00:58Z</time>
      </trkpt>
      <trkpt lat="45.9061" lon="5.01602">
        <ele>283</ele>
        <time>2016-09-08T10:00:59Z</time>
      </trkpt>
      <trkpt lat="45.90616" lon="5.01604">
        <ele>283</ele>
        <time>2016-09-08T10:01:00Z</time>
      </trkpt>
      <trkpt lat="45.90623" lon="5.01607">
        <ele>283</ele>
        <time>2016-09-08T10:01:01Z</time>
      </trkpt>
      <trkpt lat="45.90629" lon="5.01609">
        <ele>283</ele>
        <time>2016-09-08T10:01:02Z</time>
      </trkpt>
      <trkpt lat="45.90635" lon="5.01612">
        <ele>283</ele>
        <time>2016-09-08T10:01:03Z</time>
      </trkpt>
      <trkpt lat="45.90641" lon="5.01614">
        <ele>283</ele>
        <time>2016-09-08T10:01:04Z</time>
      </trkpt>
      <trkpt lat="45.90648" lon="5.01616">
        <ele>283</ele>
        <time>2016-09-08T10:01:05Z</time>
      </trkpt>
      <trkpt lat="45.90654" lon="5.01618">
        <ele>283</ele>
        <time>2016-09-08T10:01:06Z</time>
      </trkpt>
      <trkpt lat="45.9066" lon="5.01621">
        <ele>283</ele>
        <time>2016-09-08T10:01:07Z</time>
      </trkpt>
      <trkpt lat="45.90667" lon="5.01623">
        <ele>281</ele>
        <time>2016-09-08T10:01:08Z</time>
      </trkpt>
      <trkpt lat="45.90674" lon="5.01625">
        <ele>281</ele>
        <time>2016-09-08T10:01:09Z</time>
      </trkpt>
      <trkpt lat="45.9068" lon="5.01628">
        <ele>281</ele>
        <time>2016-09-08T10:01:10Z</time>
      </trkpt>
      <trkpt lat="45.90687" lon="5.0163">
        <ele>281</ele>
        <time>2016-09-08T10:01:11Z</time>
      </trkpt>
      <trkpt lat="45.90693" lon="5.01632">
        <ele>281</ele>
        <time>2016-09-08T10:01:12Z</time>
      </trkpt>
      <trkpt lat="45.90699" lon="5.01634">
        <ele>281</ele>
        <time>2016-09-08T10:01:13Z</time>
      </trkpt>
      <trkpt lat="45.90705" lon="5.01637">
        <ele>280</ele>
        <time>2016-09-08T10:01:14Z</time>
      </trkpt>
      <trkpt lat="45.90711" lon="5.01638">
        <ele>280</ele>
        <time>2016-09-08T10:01:15Z</time>
      </trkpt>
      <trkpt lat="45.90718" lon="5.01641">
        <ele>280</ele>
        <time>2016-09-08T10:01:16Z</time>
      </trkpt>
      <trkpt lat="45.90725" lon="5.01643">
        <ele>280</ele>
        <time>2016-09-08T10:01:17Z</time>
      </trkpt>
      <trkpt lat="45.90731" lon="5.01646">
        <ele>280</ele>
        <time>2016-09-08T10:01:18Z</time>
      </trkpt>
      <trkpt lat="45.90737" lon="5.01648">
        <ele>280</ele>
        <time>2016-09-08T10:01:19Z</time>
      </trkpt>
      <trkpt lat="45.90743" lon="5.01651">
        <ele>280</ele>
        <time>2016-09-08T10:01:20Z</time>
      </trkpt>
      <trkpt lat="45.9075" lon="5.01655">
        <ele>280</ele>
        <time>2016-09-08T10:01:21Z</time>
      </trkpt>
      <trkpt lat="45.90756" lon="5.01658">
        <ele>280</ele>
        <time>2016-09-08T10:01:22Z</time>
      </trkpt>
      <trkpt lat="45.90763" lon="5.0166">
        <ele>280</ele>
        <time>2016-09-08T10:01:23Z</time>
      </trkpt>
      <trkpt lat="45.9077" lon="5.01663">
        <ele>280</ele>
        <time>2016-09-08T10:01:24Z</time>
      </trkpt>
      <trkpt lat="45.90777" lon="5.01665">
        <ele>280</ele>
        <time>2016-09-08T10:01:25Z</time>
      </trkpt>
      <trkpt lat="45.90783" lon="5.01668">
        <ele>279</ele>
        <time>2016-09-08T10:01:26Z</time>
      </trkpt>
      <trkpt lat="45.9079" lon="5.0167">
        <ele>279</ele>
        <time>2016-09-08T10:01:27Z</time>
      </trkpt>
      <trkpt lat="45.90797" lon="5.01671">
        <ele>279</ele>
        <time>2016-09-08T10:01:28Z</time>
      </trkpt>
      <trkpt lat="45.90803" lon="5.01673">
        <ele>279</ele>
        <time>2016-09-08T10:01:29Z</time>
      </trkpt>
      <trkpt lat="45.90809" lon="5.01675">
        <ele>280</ele>
        <time>2016-09-08T10:01:30Z</time>
      </trkpt>
      <trkpt lat="45.90815" lon="5.01677">
        <ele>280</ele>
        <time>2016-09-08T10:01:31Z</time>
      </trkpt>
      <trkpt lat="45.90821" lon="5.01679">
        <ele>280</ele>
        <time>2016-09-08T10:01:32Z</time>
      </trkpt>
      <trkpt lat="45.90827" lon="5.01681">
        <ele>280</ele>
        <time>2016-09-08T10:01:33Z</time>
      </trkpt>
      <trkpt lat="45.90832" lon="5.01684">
        <ele>280</ele>
        <time>2016-09-08T10:01:34Z</time>
      </trkpt>
      <trkpt lat="45.90837" lon="5.01686">
        <ele>280</ele>
        <time>2016-09-08T10:01:35Z</time>
      </trkpt>
      <trkpt lat="45.90842" lon="5.01687">
        <ele>280</ele>
        <time>2016-09-08T10:01:36Z</time>
      </trkpt>
      <trkpt lat="45.90848" lon="5.01689">
        <ele>280</ele>
        <time>2016-09-08T10:01:37Z</time>
      </trkpt>
      <trkpt lat="45.90853" lon="5.01691">
        <ele>280</ele>
        <time>2016-09-08T10:01:38Z</time>
      </trkpt>
      <trkpt lat="45.90858" lon="5.01693">
        <ele>280</ele>
        <time>2016-09-08T10:01:39Z</time>
      </trkpt>
      <trkpt lat="45.90864" lon="5.01695">
        <ele>280</ele>
        <time>2016-09-08T10:01:40Z</time>
      </trkpt>
      <trkpt lat="45.9087" lon="5.01697">
        <ele>279</ele>
        <time>2016-09-08T10:01:41Z</time>
      </trkpt>
      <trkpt lat="45.90876" lon="5.01699">
        <ele>279</ele>
        <time>2016-09-08T10:01:42Z</time>
      </trkpt>
      <trkpt lat="45.90882" lon="5.01701">
        <ele>279</ele>
        <time>2016-09-08T10:01:43Z</time>
      </trkpt>
      <trkpt lat="45.90889" lon="5.01702">
        <ele>279</ele>
        <time>2016-09-08T10:01:44Z</time>
      </trkpt>
      <trkpt lat="45.90895" lon="5.01704">
        <ele>279</ele>
        <time>2016-09-08T10:01:45Z</time>
      </trkpt>
      <trkpt lat="45.90902" lon="5.01706">
        <ele>279</ele>
        <time>2016-09-08T10:01:46Z</time>
      </trkpt>
      <trkpt lat="45.90908" lon="5.01706">
        <ele>279</ele>
        <time>2016-09-08T10:01:47Z</time>
      </trkpt>
      <trkpt lat="45.90914" lon="5.01707">
        <ele>279</ele>
        <time>2016-09-08T10:01:48Z</time>
      </trkpt>
      <trkpt lat="45.9092" lon="5.01706">
        <ele>279</ele>
        <time>2016-09-08T10:01:49Z</time>
      </trkpt>
      <trkpt lat="45.90925" lon="5.01706">
        <ele>279</ele>
        <time>2016-09-08T10:01:50Z</time>
      </trkpt>
      <trkpt lat="45.90931" lon="5.01704">
        <ele>279</ele>
        <time>2016-09-08T10:01:51Z</time>
      </trkpt>
      <trkpt lat="45.90938" lon="5.01703">
        <ele>279</ele>
        <time>2016-09-08T10:01:52Z</time>
      </trkpt>
      <trkpt lat="45.90943" lon="5.01701">
        <ele>279</ele>
        <time>2016-09-08T10:01:53Z</time>
      </trkpt>
      <trkpt lat="45.90949" lon="5.01699">
        <ele>279</ele>
        <time>2016-09-08T10:01:54Z</time>
      </trkpt>
      <trkpt lat="45.90955" lon="5.01697">
        <ele>278</ele>
        <time>2016-09-08T10:01:55Z</time>
      </trkpt>
      <trkpt lat="45.90961" lon="5.01695">
        <ele>278</ele>
        <time>2016-09-08T10:01:56Z</time>
      </trkpt>
      <trkpt lat="45.90968" lon="5.01692">
        <ele>278</ele>
        <time>2016-09-08T10:01:57Z</time>
      </trkpt>
      <trkpt lat="45.90974" lon="5.0169">
        <ele>278</ele>
        <time>2016-09-08T10:01:58Z</time>
      </trkpt>
      <trkpt lat="45.90981" lon="5.01687">
        <ele>278</ele>
        <time>2016-09-08T10:01:59Z</time>
      </trkpt>
      <trkpt lat="45.90988" lon="5.01684">
        <ele>278</ele>
        <time>2016-09-08T10:02:00Z</time>
      </trkpt>
      <trkpt lat="45.90995" lon="5.01681">
        <ele>278</ele>
        <time>2016-09-08T10:02:01Z</time>
      </trkpt>
      <trkpt lat="45.91002" lon="5.01678">
        <ele>277</ele>
        <time>2016-09-08T10:02:02Z</time>
      </trkpt>
      <trkpt lat="45.91009" lon="5.01676">
        <ele>277</ele>
        <time>2016-09-08T10:02:03Z</time>
      </trkpt>
      <trkpt lat="45.91016" lon="5.01673">
        <ele>277</ele>
        <time>2016-09-08T10:02:04Z</time>
      </trkpt>
      <trkpt lat="45.91024" lon="5.0167">
        <ele>277</ele>
        <time>2016-09-08T10:02:05Z</time>
      </trkpt>
      <trkpt lat="45.91031" lon="5.01667">
        <ele>276</ele>
        <time>2016-09-08T10:02:06Z</time>
      </trkpt>
      <trkpt lat="45.91039" lon="5.01664">
        <ele>278</ele>
        <time>2016-09-08T10:02:07Z</time>
      </trkpt>
      <trkpt lat="45.91047" lon="5.01661">
        <ele>278</ele>
        <time>2016-09-08T10:02:08Z</time>
      </trkpt>
      <trkpt lat="45.91055" lon="5.01658">
        <ele>277</ele>
        <time>2016-09-08T10:02:09Z</time>
      </trkpt>
      <trkpt lat="45.91063" lon="5.01656">
        <ele>277</ele>
        <time>2016-09-08T10:02:10Z</time>
      </trkpt>
      <trkpt lat="45.91071" lon="5.01653">
        <ele>277</ele>
        <time>2016-09-08T10:02:11Z</time>
      </trkpt>
      <trkpt lat="45.91079" lon="5.0165">
        <ele>276</ele>
        <time>2016-09-08T10:02:12Z</time>
      </trkpt>
      <trkpt lat="45.91087" lon="5.01647">
        <ele>274</ele>
        <time>2016-09-08T10:02:13Z</time>
      </trkpt>
      <trkpt lat="45.91095" lon="5.01644">
        <ele>274</ele>
        <time>2016-09-08T10:02:14Z</time>
      </trkpt>
      <trkpt lat="45.91103" lon="5.01641">
        <ele>274</ele>
        <time>2016-09-08T10:02:15Z</time>
      </trkpt>
      <trkpt lat="45.9111" lon="5.01638">
        <ele>274</ele>
        <time>2016-09-08T10:02:16Z</time>
      </trkpt>
      <trkpt lat="45.91118" lon="5.01635">
        <ele>274</ele>
        <time>2016-09-08T10:02:17Z</time>
      </trkpt>
      <trkpt lat="45.91126" lon="5.01632">
        <ele>274</ele>
        <time>2016-09-08T10:02:18Z</time>
      </trkpt>
      <trkpt lat="45.91134" lon="5.01629">
        <ele>274</ele>
        <time>2016-09-08T10:02:19Z</time>
      </trkpt>
      <trkpt lat="45.91141" lon="5.01626">
        <ele>274</ele>
        <time>2016-09-08T10:02:20Z</time>
      </trkpt>
      <trkpt lat="45.91148" lon="5.01624">
        <ele>274</ele>
        <time>2016-09-08T10:02:21Z</time>
      </trkpt>
      <trkpt lat="45.91155" lon="5.01621">
        <ele>274</ele>
        <time>2016-09-08T10:02:22Z</time>
      </trkpt>
      <trkpt lat="45.91162" lon="5.01619">
        <ele>274</ele>
        <time>2016-09-08T10:02:23Z</time>
      </trkpt>
      <trkpt lat="45.91168" lon="5.01617">
        <ele>273</ele>
        <time>2016-09-08T10:02:24Z</time>
      </trkpt>
      <trkpt lat="45.91173" lon="5.01614">
        <ele>273</ele>
        <time>2016-09-08T10:02:25Z</time>
      </trkpt>
      <trkpt lat="45.91179" lon="5.01612">
        <ele>273</ele>
        <time>2016-09-08T10:02:26Z</time>
      </trkpt>
      <trkpt lat="45.91184" lon="5.0161">
        <ele>273</ele>
        <time>2016-09-08T10:02:27Z</time>
      </trkpt>
      <trkpt lat="45.9119" lon="5.01609">
        <ele>273</ele>
        <time>2016-09-08T10:02:28Z</time>
      </trkpt>
      <trkpt lat="45.91195" lon="5.01608">
        <ele>273</ele>
        <time>2016-09-08T10:02:29Z</time>
      </trkpt>
      <trkpt lat="45.91201" lon="5.01607">
        <ele>273</ele>
        <time>2016-09-08T10:02:30Z</time>
      </trkpt>
      <trkpt lat="45.91206" lon="5.01606">
        <ele>273</ele>
        <time>2016-09-08T10:02:31Z</time>
      </trkpt>
      <trkpt lat="45.91212" lon="5.01604">
        <ele>273</ele>
        <time>2016-09-08T10:02:32Z</time>
      </trkpt>
      <trkpt lat="45.91217" lon="5.01602">
        <ele>273</ele>
        <time>2016-09-08T10:02:33Z</time>
      </trkpt>
      <trkpt lat="45.91223" lon="5.01599">
        <ele>273</ele>
        <time>2016-09-08T10:02:34Z</time>
      </trkpt>
      <trkpt lat="45.91229" lon="5.01596">
        <ele>273</ele>
        <time>2016-09-08T10:02:35Z</time>
      </trkpt>
      <trkpt lat="45.91236" lon="5.01595">
        <ele>273</ele>
        <time>2016-09-08T10:02:36Z</time>
      </trkpt>
      <trkpt lat="45.91242" lon="5.01593">
        <ele>274</ele>
        <time>2016-09-08T10:02:37Z</time>
      </trkpt>
      <trkpt lat="45.91249" lon="5.01591">
        <ele>274</ele>
        <time>2016-09-08T10:02:38Z</time>
      </trkpt>
      <trkpt lat="45.91256" lon="5.01589">
        <ele>274</ele>
        <time>2016-09-08T10:02:39Z</time>
      </trkpt>
      <trkpt lat="45.91262" lon="5.01588">
        <ele>274</ele>
        <time>2016-09-08T10:02:40Z</time>
      </trkpt>
      <trkpt lat="45.91269" lon="5.01587">
        <ele>275</ele>
        <time>2016-09-08T10:02:41Z</time>
      </trkpt>
      <trkpt lat="45.91276" lon="5.01585">
        <ele>275</ele>
        <time>2016-09-08T10:02:42Z</time>
      </trkpt>
      <trkpt lat="45.91282" lon="5.01585">
        <ele>275</ele>
        <time>2016-09-08T10:02:43Z</time>
      </trkpt>
      <trkpt lat="45.91288" lon="5.01585">
        <ele>275</ele>
        <time>2016-09-08T10:02:44Z</time>
      </trkpt>
      <trkpt lat="45.91294" lon="5.01585">
        <ele>275</ele>
        <time>2016-09-08T10:02:45Z</time>
      </trkpt>
      <trkpt lat="45.913" lon="5.01585">
        <ele>276</ele>
        <time>2016-09-08T10:02:46Z</time>
      </trkpt>
      <trkpt lat="45.91305" lon="5.01585">
        <ele>276</ele>
        <time>2016-09-08T10:02:47Z</time>
      </trkpt>
      <trkpt lat="45.91311" lon="5.01586">
        <ele>276</ele>
        <time>2016-09-08T10:02:48Z</time>
      </trkpt>
      <trkpt lat="45.91316" lon="5.01587">
        <ele>276</ele>
        <time>2016-09-08T10:02:49Z</time>
      </trkpt>
      <trkpt lat="45.91322" lon="5.01587">
        <ele>277</ele>
        <time>2016-09-08T10:02:50Z</time>
      </trkpt>
      <trkpt lat="45.91328" lon="5.01588">
        <ele>277</ele>
        <time>2016-09-08T10:02:51Z</time>
      </trkpt>
      <trkpt lat="45.91333" lon="5.01588">
        <ele>277</ele>
        <time>2016-09-08T10:02:52Z</time>
      </trkpt>
      <trkpt lat="45.91338" lon="5.01589">
        <ele>278</ele>
        <time>2016-09-08T10:02:53Z</time>
      </trkpt>
      <trkpt lat="45.91344" lon="5.0159">
        <ele>278</ele>
        <time>2016-09-08T10:02:54Z</time>
      </trkpt>
      <trkpt lat="45.91349" lon="5.01592">
        <ele>278</ele>
        <time>2016-09-08T10:02:55Z</time>
      </trkpt>
      <trkpt lat="45.91354" lon="5.01594">
        <ele>278</ele>
        <time>2016-09-08T10:02:56Z</time>
      </trkpt>
      <trkpt lat="45.91359" lon="5.01596">
        <ele>279</ele>
        <time>2016-09-08T10:02:57Z</time>
      </trkpt>
      <trkpt lat="45.91364" lon="5.01597">
        <ele>279</ele>
        <time>2016-09-08T10:02:58Z</time>
      </trkpt>
      <trkpt lat="45.91369" lon="5.01599">
        <ele>279</ele>
        <time>2016-09-08T10:02:59Z</time>
      </trkpt>
      <trkpt lat="45.91375" lon="5.01601">
        <ele>279</ele>
        <time>2016-09-08T10:03:00Z</time>
      </trkpt>
      <trkpt lat="45.9138" lon="5.01602">
        <ele>279</ele>
        <time>2016-09-08T10:03:01Z</time>
      </trkpt>
      <trkpt lat="45.91385" lon="5.01604">
        <ele>279</ele>
        <time>2016-09-08T10:03:02Z</time>
      </trkpt>
      <trkpt lat="45.9139" lon="5.01606">
        <ele>279</ele>
        <time>2016-09-08T10:03:03Z</time>
      </trkpt>
      <trkpt lat="45.91395" lon="5.01608">
        <ele>280</ele>
        <time>2016-09-08T10:03:04Z</time>
      </trkpt>
      <trkpt lat="45.914" lon="5.0161">
        <ele>280</ele>
        <time>2016-09-08T10:03:05Z</time>
      </trkpt>
      <trkpt lat="45.91405" lon="5.01612">
        <ele>280</ele>
        <time>2016-09-08T10:03:06Z</time>
      </trkpt>
      <trkpt lat="45.9141" lon="5.01614">
        <ele>280</ele>
        <time>2016-09-08T10:03:07Z</time>
      </trkpt>
      <trkpt lat="45.91414" lon="5.01616">
        <ele>280</ele>
        <time>2016-09-08T10:03:08Z</time>
      </trkpt>
      <trkpt lat="45.91419" lon="5.01618">
        <ele>281</ele>
        <time>2016-09-08T10:03:09Z</time>
      </trkpt>
      <trkpt lat="45.91424" lon="5.01619">
        <ele>281</ele>
        <time>2016-09-08T10:03:10Z</time>
      </trkpt>
      <trkpt lat="45.91428" lon="5.0162">
        <ele>281</ele>
        <time>2016-09-08T10:03:11Z</time>
      </trkpt>
      <trkpt lat="45.91433" lon="5.01621">
        <ele>281</ele>
        <time>2016-09-08T10:03:12Z</time>
      </trkpt>
      <trkpt lat="45.91437" lon="5.01622">
        <ele>281</ele>
        <time>2016-09-08T10:03:13Z</time>
      </trkpt>
      <trkpt lat="45.91442" lon="5.01622">
        <ele>281</ele>
        <time>2016-09-08T10:03:14Z</time>
      </trkpt>
      <trkpt lat="45.91446" lon="5.0162">
        <ele>281</ele>
        <time>2016-09-08T10:03:15Z</time>
      </trkpt>
      <trkpt lat="45.91451" lon="5.01618">
        <ele>281</ele>
        <time>2016-09-08T10:03:16Z</time>
      </trkpt>
      <trkpt lat="45.91455" lon="5.01614">
        <ele>281</ele>
        <time>2016-09-08T10:03:17Z</time>
      </trkpt>
      <trkpt lat="45.91459" lon="5.0161">
        <ele>281</ele>
        <time>2016-09-08T10:03:18Z</time>
      </trkpt>
      <trkpt lat="45.91464" lon="5.01606">
        <ele>281</ele>
        <time>2016-09-08T10:03:19Z</time>
      </trkpt>
      <trkpt lat="45.91468" lon="5.01601">
        <ele>281</ele>
        <time>2016-09-08T10:03:20Z</time>
      </trkpt>
      <trkpt lat="45.91472" lon="5.01596">
        <ele>281</ele>
        <time>2016-09-08T10:03:21Z</time>
      </trkpt>
      <trkpt lat="45.91475" lon="5.01592">
        <ele>281</ele>
        <time>2016-09-08T10:03:22Z</time>
      </trkpt>
      <trkpt lat="45.91479" lon="5.01587">
        <ele>281</ele>
        <time>2016-09-08T10:03:23Z</time>
      </trkpt>
      <trkpt lat="45.91482" lon="5.01582">
        <ele>283</ele>
        <time>2016-09-08T10:03:24Z</time>
      </trkpt>
      <trkpt lat="45.91486" lon="5.01576">
        <ele>282</ele>
        <time>2016-09-08T10:03:25Z</time>
      </trkpt>
      <trkpt lat="45.91491" lon="5.01566">
        <ele>283</ele>
        <time>2016-09-08T10:03:27Z</time>
      </trkpt>
      <trkpt lat="45.91494" lon="5.01561">
        <ele>283</ele>
        <time>2016-09-08T10:03:28Z</time>
      </trkpt>
      <trkpt lat="45.91497" lon="5.01556">
        <ele>283</ele>
        <time>2016-09-08T10:03:29Z</time>
      </trkpt>
      <trkpt lat="45.91501" lon="5.01551">
        <ele>281</ele>
        <time>2016-09-08T10:03:30Z</time>
      </trkpt>
      <trkpt lat="45.91504" lon="5.01546">
        <ele>281</ele>
        <time>2016-09-08T10:03:31Z</time>
      </trkpt>
      <trkpt lat="45.91508" lon="5.01541">
        <ele>281</ele>
        <time>2016-09-08T10:03:32Z</time>
      </trkpt>
      <trkpt lat="45.91512" lon="5.01536">
        <ele>281</ele>
        <time>2016-09-08T10:03:33Z</time>
      </trkpt>
      <trkpt lat="45.91516" lon="5.01531">
        <ele>281</ele>
        <time>2016-09-08T10:03:34Z</time>
      </trkpt>
      <trkpt lat="45.9152" lon="5.01526">
        <ele>281</ele>
        <time>2016-09-08T10:03:35Z</time>
      </trkpt>
      <trkpt lat="45.91524" lon="5.01521">
        <ele>281</ele>
        <time>2016-09-08T10:03:36Z</time>
      </trkpt>
      <trkpt lat="45.9153" lon="5.01516">
        <ele>281</ele>
        <time>2016-09-08T10:03:37Z</time>
      </trkpt>
      <trkpt lat="45.91535" lon="5.01511">
        <ele>281</ele>
        <time>2016-09-08T10:03:38Z</time>
      </trkpt>
      <trkpt lat="45.9154" lon="5.01506">
        <ele>281</ele>
        <time>2016-09-08T10:03:39Z</time>
      </trkpt>
      <trkpt lat="45.91544" lon="5.015">
        <ele>282</ele>
        <time>2016-09-08T10:03:40Z</time>
      </trkpt>
      <trkpt lat="45.91549" lon="5.01495">
        <ele>282</ele>
        <time>2016-09-08T10:03:41Z</time>
      </trkpt>
      <trkpt lat="45.91554" lon="5.0149">
        <ele>282</ele>
        <time>2016-09-08T10:03:42Z</time>
      </trkpt>
      <trkpt lat="45.91559" lon="5.01485">
        <ele>281</ele>
        <time>2016-09-08T10:03:43Z</time>
      </trkpt>
      <trkpt lat="45.91564" lon="5.0148">
        <ele>281</ele>
        <time>2016-09-08T10:03:44Z</time>
      </trkpt>
      <trkpt lat="45.91568" lon="5.01475">
        <ele>281</ele>
        <time>2016-09-08T10:03:45Z</time>
      </trkpt>
      <trkpt lat="45.91572" lon="5.0147">
        <ele>281</ele>
        <time>2016-09-08T10:03:46Z</time>
      </trkpt>
      <trkpt lat="45.91576" lon="5.01465">
        <ele>281</ele>
        <time>2016-09-08T10:03:47Z</time>
      </trkpt>
      <trkpt lat="45.9158" lon="5.0146">
        <ele>282</ele>
        <time>2016-09-08T10:03:48Z</time>
      </trkpt>
      <trkpt lat="45.91584" lon="5.01456">
        <ele>280</ele>
        <time>2016-09-08T10:03:49Z</time>
      </trkpt>
      <trkpt lat="45.91588" lon="5.0145">
        <ele>280</ele>
        <time>2016-09-08T10:03:50Z</time>
      </trkpt>
      <trkpt lat="45.91592" lon="5.01446">
        <ele>280</ele>
        <time>2016-09-08T10:03:51Z</time>
      </trkpt>
      <trkpt lat="45.91596" lon="5.01441">
        <ele>280</ele>
        <time>2016-09-08T10:03:52Z</time>
      </trkpt>
      <trkpt lat="45.91601" lon="5.01436">
        <ele>280</ele>
        <time>2016-09-08T10:03:53Z</time>
      </trkpt>
      <trkpt lat="45.91605" lon="5.01431">
        <ele>280</ele>
        <time>2016-09-08T10:03:54Z</time>
      </trkpt>
      <trkpt lat="45.9161" lon="5.01426">
        <ele>280</ele>
        <time>2016-09-08T10:03:55Z</time>
      </trkpt>
      <trkpt lat="45.91614" lon="5.01421">
        <ele>280</ele>
        <time>2016-09-08T10:03:56Z</time>
      </trkpt>
      <trkpt lat="45.91619" lon="5.01416">
        <ele>280</ele>
        <time>2016-09-08T10:03:57Z</time>
      </trkpt>
      <trkpt lat="45.91623" lon="5.01412">
        <ele>280</ele>
        <time>2016-09-08T10:03:58Z</time>
      </trkpt>
      <trkpt lat="45.91628" lon="5.01407">
        <ele>280</ele>
        <time>2016-09-08T10:03:59Z</time>
      </trkpt>
      <trkpt lat="45.91633" lon="5.01402">
        <ele>280</ele>
        <time>2016-09-08T10:04:00Z</time>
      </trkpt>
      <trkpt lat="45.91638" lon="5.01398">
        <ele>280</ele>
        <time>2016-09-08T10:04:01Z</time>
      </trkpt>
      <trkpt lat="45.91643" lon="5.01395">
        <ele>280</ele>
        <time>2016-09-08T10:04:02Z</time>
      </trkpt>
      <trkpt lat="45.91648" lon="5.01392">
        <ele>280</ele>
        <time>2016-09-08T10:04:03Z</time>
      </trkpt>
      <trkpt lat="45.91653" lon="5.01389">
        <ele>280</ele>
        <time>2016-09-08T10:04:04Z</time>
      </trkpt>
      <trkpt lat="45.91658" lon="5.01386">
        <ele>280</ele>
        <time>2016-09-08T10:04:05Z</time>
      </trkpt>
      <trkpt lat="45.91663" lon="5.01383">
        <ele>280</ele>
        <time>2016-09-08T10:04:06Z</time>
      </trkpt>
      <trkpt lat="45.91667" lon="5.01381">
        <ele>280</ele>
        <time>2016-09-08T10:04:07Z</time>
      </trkpt>
      <trkpt lat="45.91672" lon="5.01379">
        <ele>280</ele>
        <time>2016-09-08T10:04:08Z</time>
      </trkpt>
      <trkpt lat="45.91676" lon="5.01377">
        <ele>280</ele>
        <time>2016-09-08T10:04:09Z</time>
      </trkpt>
      <trkpt lat="45.91681" lon="5.01375">
        <ele>280</ele>
        <time>2016-09-08T10:04:10Z</time>
      </trkpt>
      <trkpt lat="45.91685" lon="5.01373">
        <ele>280</ele>
        <time>2016-09-08T10:04:11Z</time>
      </trkpt>
      <trkpt lat="45.91689" lon="5.0137">
        <ele>280</ele>
        <time>2016-09-08T10:04:12Z</time>
      </trkpt>
      <trkpt lat="45.91694" lon="5.01367">
        <ele>280</ele>
        <time>2016-09-08T10:04:13Z</time>
      </trkpt>
      <trkpt lat="45.91699" lon="5.01365">
        <ele>280</ele>
        <time>2016-09-08T10:04:14Z</time>
      </trkpt>
      <trkpt lat="45.91704" lon="5.01363">
        <ele>280</ele>
        <time>2016-09-08T10:04:15Z</time>
      </trkpt>
      <trkpt lat="45.91709" lon="5.01361">
        <ele>280</ele>
        <time>2016-09-08T10:04:16Z</time>
      </trkpt>
      <trkpt lat="45.91714" lon="5.01358">
        <ele>280</ele>
        <time>2016-09-08T10:04:17Z</time>
      </trkpt>
      <trkpt lat="45.9172" lon="5.01355">
        <ele>280</ele>
        <time>2016-09-08T10:04:18Z</time>
      </trkpt>
      <trkpt lat="45.91725" lon="5.01352">
        <ele>280</ele>
        <time>2016-09-08T10:04:19Z</time>
      </trkpt>
      <trkpt lat="45.9173" lon="5.0135">
        <ele>280</ele>
        <time>2016-09-08T10:04:20Z</time>
      </trkpt>
      <trkpt lat="45.91735" lon="5.01348">
        <ele>281</ele>
        <time>2016-09-08T10:04:21Z</time>
      </trkpt>
      <trkpt lat="45.9174" lon="5.01345">
        <ele>281</ele>
        <time>2016-09-08T10:04:22Z</time>
      </trkpt>
      <trkpt lat="45.91745" lon="5.01343">
        <ele>281</ele>
        <time>2016-09-08T10:04:23Z</time>
      </trkpt>
      <trkpt lat="45.9175" lon="5.01341">
        <ele>281</ele>
        <time>2016-09-08T10:04:24Z</time>
      </trkpt>
      <trkpt lat="45.91755" lon="5.01339">
        <ele>281</ele>
        <time>2016-09-08T10:04:25Z</time>
      </trkpt>
      <trkpt lat="45.91759" lon="5.01336">
        <ele>281</ele>
        <time>2016-09-08T10:04:26Z</time>
      </trkpt>
      <trkpt lat="45.91764" lon="5.01333">
        <ele>282</ele>
        <time>2016-09-08T10:04:27Z</time>
      </trkpt>
      <trkpt lat="45.91769" lon="5.01331">
        <ele>282</ele>
        <time>2016-09-08T10:04:28Z</time>
      </trkpt>
      <trkpt lat="45.91774" lon="5.01329">
        <ele>282</ele>
        <time>2016-09-08T10:04:29Z</time>
      </trkpt>
      <trkpt lat="45.91779" lon="5.01327">
        <ele>282</ele>
        <time>2016-09-08T10:04:30Z</time>
      </trkpt>
      <trkpt lat="45.91785" lon="5.01325">
        <ele>282</ele>
        <time>2016-09-08T10:04:31Z</time>
      </trkpt>
      <trkpt lat="45.9179" lon="5.01322">
        <ele>283</ele>
        <time>2016-09-08T10:04:32Z</time>
      </trkpt>
      <trkpt lat="45.91795" lon="5.0132">
        <ele>283</ele>
        <time>2016-09-08T10:04:33Z</time>
      </trkpt>
      <trkpt lat="45.91801" lon="5.01318">
        <ele>283</ele>
        <time>2016-09-08T10:04:34Z</time>
      </trkpt>
      <trkpt lat="45.91807" lon="5.01317">
        <ele>283</ele>
        <time>2016-09-08T10:04:35Z</time>
      </trkpt>
      <trkpt lat="45.91812" lon="5.01317">
        <ele>283</ele>
        <time>2016-09-08T10:04:36Z</time>
      </trkpt>
      <trkpt lat="45.91817" lon="5.01316">
        <ele>283</ele>
        <time>2016-09-08T10:04:37Z</time>
      </trkpt>
      <trkpt lat="45.91823" lon="5.01315">
        <ele>283</ele>
        <time>2016-09-08T10:04:38Z</time>
      </trkpt>
      <trkpt lat="45.91828" lon="5.01315">
        <ele>283</ele>
        <time>2016-09-08T10:04:39Z</time>
      </trkpt>
      <trkpt lat="45.91833" lon="5.01314">
        <ele>283</ele>
        <time>2016-09-08T10:04:40Z</time>
      </trkpt>
      <trkpt lat="45.91838" lon="5.01313">
        <ele>284</ele>
        <time>2016-09-08T10:04:41Z</time>
      </trkpt>
      <trkpt lat="45.91843" lon="5.01312">
        <ele>284</ele>
        <time>2016-09-08T10:04:42Z</time>
      </trkpt>
      <trkpt lat="45.91848" lon="5.01312">
        <ele>284</ele>
        <time>2016-09-08T10:04:43Z</time>
      </trkpt>
      <trkpt lat="45.91853" lon="5.01311">
        <ele>284</ele>
        <time>2016-09-08T10:04:44Z</time>
      </trkpt>
      <trkpt lat="45.91858" lon="5.0131">
        <ele>285</ele>
        <time>2016-09-08T10:04:45Z</time>
      </trkpt>
      <trkpt lat="45.91863" lon="5.01309">
        <ele>285</ele>
        <time>2016-09-08T10:04:46Z</time>
      </trkpt>
      <trkpt lat="45.91868" lon="5.01308">
        <ele>285</ele>
        <time>2016-09-08T10:04:47Z</time>
      </trkpt>
      <trkpt lat="45.91873" lon="5.01307">
        <ele>285</ele>
        <time>2016-09-08T10:04:48Z</time>
      </trkpt>
      <trkpt lat="45.91877" lon="5.01306">
        <ele>285</ele>
        <time>2016-09-08T10:04:49Z</time>
      </trkpt>
      <trkpt lat="45.91882" lon="5.01306">
        <ele>285</ele>
        <time>2016-09-08T10:04:50Z</time>
      </trkpt>
      <trkpt lat="45.91887" lon="5.01305">
        <ele>285</ele>
        <time>2016-09-08T10:04:51Z</time>
      </trkpt>
      <trkpt lat="45.91892" lon="5.01305">
        <ele>285</ele>
        <time>2016-09-08T10:04:52Z</time>
      </trkpt>
      <trkpt lat="45.91897" lon="5.01305">
        <ele>286</ele>
        <time>2016-09-08T10:04:53Z</time>
      </trkpt>
      <trkpt lat="45.91902" lon="5.01305">
        <ele>286</ele>
        <time>2016-09-08T10:04:54Z</time>
      </trkpt>
      <trkpt lat="45.91907" lon="5.01304">
        <ele>286</ele>
        <time>2016-09-08T10:04:55Z</time>
      </trkpt>
      <trkpt lat="45.91912" lon="5.01303">
        <ele>286</ele>
        <time>2016-09-08T10:04:56Z</time>
      </trkpt>
      <trkpt lat="45.91916" lon="5.01303">
        <ele>286</ele>
        <time>2016-09-08T10:04:57Z</time>
      </trkpt>
      <trkpt lat="45.91921" lon="5.013">
        <ele>286</ele>
        <time>2016-09-08T10:04:58Z</time>
      </trkpt>
      <trkpt lat="45.91926" lon="5.01299">
        <ele>286</ele>
        <time>2016-09-08T10:04:59Z</time>
      </trkpt>
      <trkpt lat="45.91931" lon="5.01299">
        <ele>286</ele>
        <time>2016-09-08T10:05:00Z</time>
      </trkpt>
      <trkpt lat="45.91937" lon="5.01299">
        <ele>286</ele>
        <time>2016-09-08T10:05:01Z</time>
      </trkpt>
      <trkpt lat="45.91942" lon="5.01299">
        <ele>286</ele>
        <time>2016-09-08T10:05:02Z</time>
      </trkpt>
      <trkpt lat="45.91947" lon="5.01298">
        <ele>286</ele>
        <time>2016-09-08T10:05:03Z</time>
      </trkpt>
      <trkpt lat="45.91953" lon="5.01298">
        <ele>286</ele>
        <time>2016-09-08T10:05:04Z</time>
      </trkpt>
      <trkpt lat="45.91959" lon="5.01298">
        <ele>286</ele>
        <time>2016-09-08T10:05:05Z</time>
      </trkpt>
      <trkpt lat="45.91965" lon="5.01298">
        <ele>286</ele>
        <time>2016-09-08T10:05:06Z</time>
      </trkpt>
      <trkpt lat="45.91971" lon="5.01297">
        <ele>285</ele>
        <time>2016-09-08T10:05:07Z</time>
      </trkpt>
      <trkpt lat="45.91977" lon="5.01297">
        <ele>285</ele>
        <time>2016-09-08T10:05:08Z</time>
      </trkpt>
      <trkpt lat="45.91983" lon="5.01296">
        <ele>285</ele>
        <time>2016-09-08T10:05:09Z</time>
      </trkpt>
      <trkpt lat="45.91989" lon="5.01295">
        <ele>285</ele>
        <time>2016-09-08T10:05:10Z</time>
      </trkpt>
      <trkpt lat="45.91995" lon="5.01293">
        <ele>285</ele>
        <time>2016-09-08T10:05:11Z</time>
      </trkpt>
      <trkpt lat="45.92001" lon="5.01293">
        <ele>284</ele>
        <time>2016-09-08T10:05:12Z</time>
      </trkpt>
      <trkpt lat="45.92007" lon="5.01291">
        <ele>284</ele>
        <time>2016-09-08T10:05:13Z</time>
      </trkpt>
      <trkpt lat="45.92012" lon="5.01287">
        <ele>284</ele>
        <time>2016-09-08T10:05:14Z</time>
      </trkpt>
      <trkpt lat="45.92018" lon="5.01285">
        <ele>284</ele>
        <time>2016-09-08T10:05:15Z</time>
      </trkpt>
      <trkpt lat="45.92023" lon="5.01283">
        <ele>284</ele>
        <time>2016-09-08T10:05:16Z</time>
      </trkpt>
      <trkpt lat="45.92028" lon="5.01279">
        <ele>284</ele>
        <time>2016-09-08T10:05:17Z</time>
      </trkpt>
      <trkpt lat="45.92033" lon="5.01276">
        <ele>283</ele>
        <time>2016-09-08T10:05:18Z</time>
      </trkpt>
      <trkpt lat="45.92037" lon="5.01273">
        <ele>283</ele>
        <time>2016-09-08T10:05:19Z</time>
      </trkpt>
      <trkpt lat="45.92042" lon="5.0127">
        <ele>283</ele>
        <time>2016-09-08T10:05:20Z</time>
      </trkpt>
      <trkpt lat="45.92046" lon="5.01267">
        <ele>283</ele>
        <time>2016-09-08T10:05:21Z</time>
      </trkpt>
      <trkpt lat="45.92051" lon="5.01264">
        <ele>283</ele>
        <time>2016-09-08T10:05:22Z</time>
      </trkpt>
      <trkpt lat="45.92056" lon="5.0126">
        <ele>283</ele>
        <time>2016-09-08T10:05:23Z</time>
      </trkpt>
      <trkpt lat="45.9206" lon="5.01257">
        <ele>283</ele>
        <time>2016-09-08T10:05:24Z</time>
      </trkpt>
      <trkpt lat="45.92065" lon="5.01254">
        <ele>283</ele>
        <time>2016-09-08T10:05:25Z</time>
      </trkpt>
      <trkpt lat="45.92069" lon="5.0125">
        <ele>283</ele>
        <time>2016-09-08T10:05:26Z</time>
      </trkpt>
      <trkpt lat="45.92073" lon="5.01248">
        <ele>282</ele>
        <time>2016-09-08T10:05:27Z</time>
      </trkpt>
      <trkpt lat="45.92078" lon="5.01245">
        <ele>282</ele>
        <time>2016-09-08T10:05:28Z</time>
      </trkpt>
      <trkpt lat="45.92083" lon="5.0124">
        <ele>282</ele>
        <time>2016-09-08T10:05:29Z</time>
      </trkpt>
      <trkpt lat="45.92087" lon="5.01237">
        <ele>282</ele>
        <time>2016-09-08T10:05:30Z</time>
      </trkpt>
      <trkpt lat="45.92092" lon="5.01233">
        <ele>282</ele>
        <time>2016-09-08T10:05:31Z</time>
      </trkpt>
      <trkpt lat="45.92096" lon="5.0123">
        <ele>282</ele>
        <time>2016-09-08T10:05:32Z</time>
      </trkpt>
      <trkpt lat="45.92101" lon="5.01226">
        <ele>282</ele>
        <time>2016-09-08T10:05:33Z</time>
      </trkpt>
      <trkpt lat="45.92105" lon="5.01223">
        <ele>282</ele>
        <time>2016-09-08T10:05:34Z</time>
      </trkpt>
      <trkpt lat="45.92109" lon="5.01221">
        <ele>282</ele>
        <time>2016-09-08T10:05:35Z</time>
      </trkpt>
      <trkpt lat="45.92114" lon="5.01218">
        <ele>282</ele>
        <time>2016-09-08T10:05:36Z</time>
      </trkpt>
      <trkpt lat="45.92118" lon="5.01215">
        <ele>282</ele>
        <time>2016-09-08T10:05:37Z</time>
      </trkpt>
      <trkpt lat="45.92123" lon="5.01212">
        <ele>282</ele>
        <time>2016-09-08T10:05:38Z</time>
      </trkpt>
      <trkpt lat="45.92128" lon="5.01209">
        <ele>282</ele>
        <time>2016-09-08T10:05:39Z</time>
      </trkpt>
      <trkpt lat="45.92132" lon="5.01206">
        <ele>282</ele>
        <time>2016-09-08T10:05:40Z</time>
      </trkpt>
      <trkpt lat="45.92139" lon="5.01201">
        <ele>282</ele>
        <time>2016-09-08T10:05:42Z</time>
      </trkpt>
      <trkpt lat="45.92143" lon="5.01199">
        <ele>282</ele>
        <time>2016-09-08T10:05:43Z</time>
      </trkpt>
      <trkpt lat="45.92147" lon="5.01196">
        <ele>282</ele>
        <time>2016-09-08T10:05:44Z</time>
      </trkpt>
      <trkpt lat="45.92151" lon="5.01193">
        <ele>282</ele>
        <time>2016-09-08T10:05:45Z</time>
      </trkpt>
      <trkpt lat="45.92159" lon="5.01187">
        <ele>282</ele>
        <time>2016-09-08T10:05:47Z</time>
      </trkpt>
      <trkpt lat="45.92163" lon="5.01185">
        <ele>282</ele>
        <time>2016-09-08T10:05:48Z</time>
      </trkpt>
      <trkpt lat="45.92171" lon="5.0118">
        <ele>283</ele>
        <time>2016-09-08T10:05:50Z</time>
      </trkpt>
      <trkpt lat="45.92176" lon="5.01178">
        <ele>283</ele>
        <time>2016-09-08T10:05:51Z</time>
      </trkpt>
      <trkpt lat="45.9218" lon="5.01177">
        <ele>283</ele>
        <time>2016-09-08T10:05:52Z</time>
      </trkpt>
      <trkpt lat="45.92185" lon="5.01175">
        <ele>283</ele>
        <time>2016-09-08T10:05:53Z</time>
      </trkpt>
      <trkpt lat="45.9219" lon="5.01174">
        <ele>283</ele>
        <time>2016-09-08T10:05:54Z</time>
      </trkpt>
      <trkpt lat="45.92196" lon="5.01173">
        <ele>283</ele>
        <time>2016-09-08T10:05:55Z</time>
      </trkpt>
      <trkpt lat="45.92201" lon="5.01172">
        <ele>283</ele>
        <time>2016-09-08T10:05:56Z</time>
      </trkpt>
      <trkpt lat="45.92207" lon="5.01172">
        <ele>283</ele>
        <time>2016-09-08T10:05:57Z</time>
      </trkpt>
      <trkpt lat="45.92213" lon="5.01171">
        <ele>284</ele>
        <time>2016-09-08T10:05:58Z</time>
      </trkpt>
      <trkpt lat="45.92218" lon="5.0117">
        <ele>284</ele>
        <time>2016-09-08T10:05:59Z</time>
      </trkpt>
      <trkpt lat="45.92225" lon="5.01169">
        <ele>284</ele>
        <time>2016-09-08T10:06:00Z</time>
      </trkpt>
      <trkpt lat="45.92232" lon="5.01169">
        <ele>284</ele>
        <time>2016-09-08T10:06:01Z</time>
      </trkpt>
      <trkpt lat="45.92238" lon="5.01168">
        <ele>284</ele>
        <time>2016-09-08T10:06:02Z</time>
      </trkpt>
      <trkpt lat="45.92245" lon="5.01166">
        <ele>285</ele>
        <time>2016-09-08T10:06:03Z</time>
      </trkpt>
      <trkpt lat="45.92251" lon="5.01165">
        <ele>285</ele>
        <time>2016-09-08T10:06:04Z</time>
      </trkpt>
      <trkpt lat="45.92257" lon="5.01163">
        <ele>285</ele>
        <time>2016-09-08T10:06:05Z</time>
      </trkpt>
      <trkpt lat="45.92263" lon="5.01162">
        <ele>285</ele>
        <time>2016-09-08T10:06:06Z</time>
      </trkpt>
      <trkpt lat="45.92268" lon="5.0116">
        <ele>286</ele>
        <time>2016-09-08T10:06:07Z</time>
      </trkpt>
      <trkpt lat="45.92274" lon="5.01158">
        <ele>286</ele>
        <time>2016-09-08T10:06:08Z</time>
      </trkpt>
      <trkpt lat="45.92278" lon="5.01156">
        <ele>286</ele>
        <time>2016-09-08T10:06:09Z</time>
      </trkpt>
      <trkpt lat="45.92283" lon="5.01153">
        <ele>286</ele>
        <time>2016-09-08T10:06:10Z</time>
      </trkpt>
      <trkpt lat="45.92288" lon="5.01152">
        <ele>286</ele>
        <time>2016-09-08T10:06:11Z</time>
      </trkpt>
      <trkpt lat="45.92293" lon="5.0115">
        <ele>286</ele>
        <time>2016-09-08T10:06:12Z</time>
      </trkpt>
      <trkpt lat="45.92297" lon="5.01148">
        <ele>286</ele>
        <time>2016-09-08T10:06:13Z</time>
      </trkpt>
      <trkpt lat="45.92302" lon="5.01147">
        <ele>286</ele>
        <time>2016-09-08T10:06:14Z</time>
      </trkpt>
      <trkpt lat="45.92306" lon="5.01146">
        <ele>286</ele>
        <time>2016-09-08T10:06:15Z</time>
      </trkpt>
      <trkpt lat="45.92311" lon="5.01144">
        <ele>286</ele>
        <time>2016-09-08T10:06:16Z</time>
      </trkpt>
      <trkpt lat="45.92316" lon="5.01143">
        <ele>287</ele>
        <time>2016-09-08T10:06:17Z</time>
      </trkpt>
      <trkpt lat="45.92321" lon="5.01142">
        <ele>287</ele>
        <time>2016-09-08T10:06:18Z</time>
      </trkpt>
      <trkpt lat="45.92326" lon="5.0114">
        <ele>287</ele>
        <time>2016-09-08T10:06:19Z</time>
      </trkpt>
      <trkpt lat="45.92331" lon="5.01137">
        <ele>287</ele>
        <time>2016-09-08T10:06:20Z</time>
      </trkpt>
      <trkpt lat="45.92336" lon="5.01135">
        <ele>288</ele>
        <time>2016-09-08T10:06:21Z</time>
      </trkpt>
      <trkpt lat="45.92341" lon="5.01133">
        <ele>288</ele>
        <time>2016-09-08T10:06:22Z</time>
      </trkpt>
      <trkpt lat="45.92346" lon="5.01131">
        <ele>288</ele>
        <time>2016-09-08T10:06:23Z</time>
      </trkpt>
      <trkpt lat="45.92351" lon="5.01129">
        <ele>288</ele>
        <time>2016-09-08T10:06:24Z</time>
      </trkpt>
      <trkpt lat="45.92356" lon="5.01126">
        <ele>288</ele>
        <time>2016-09-08T10:06:25Z</time>
      </trkpt>
      <trkpt lat="45.92364" lon="5.01122">
        <ele>288</ele>
        <time>2016-09-08T10:06:27Z</time>
      </trkpt>
      <trkpt lat="45.92368" lon="5.0112">
        <ele>288</ele>
        <time>2016-09-08T10:06:28Z</time>
      </trkpt>
      <trkpt lat="45.92376" lon="5.01115">
        <ele>288</ele>
        <time>2016-09-08T10:06:31Z</time>
      </trkpt>
      <trkpt lat="45.92377" lon="5.01115">
        <ele>288</ele>
        <time>2016-09-08T10:06:32Z</time>
      </trkpt>
      <trkpt lat="45.92378" lon="5.01117">
        <ele>288</ele>
        <time>2016-09-08T10:06:37Z</time>
      </trkpt>
      <trkpt lat="45.92378" lon="5.01117">
        <ele>288</ele>
        <time>2016-09-08T10:06:38Z</time>
      </trkpt>
      <trkpt lat="45.92383" lon="5.01112">
        <ele>288</ele>
        <time>2016-09-08T10:06:43Z</time>
      </trkpt>
      <trkpt lat="45.92384" lon="5.01108">
        <ele>288</ele>
        <time>2016-09-08T10:06:44Z</time>
      </trkpt>
      <trkpt lat="45.92387" lon="5.01101">
        <ele>288</ele>
        <time>2016-09-08T10:06:46Z</time>
      </trkpt>
      <trkpt lat="45.92391" lon="5.01098">
        <ele>288</ele>
        <time>2016-09-08T10:06:47Z</time>
      </trkpt>
      <trkpt lat="45.92394" lon="5.01094">
        <ele>288</ele>
        <time>2016-09-08T10:06:48Z</time>
      </trkpt>
      <trkpt lat="45.92399" lon="5.01091">
        <ele>288</ele>
        <time>2016-09-08T10:06:49Z</time>
      </trkpt>
      <trkpt lat="45.92403" lon="5.01087">
        <ele>288</ele>
        <time>2016-09-08T10:06:50Z</time>
      </trkpt>
      <trkpt lat="45.92408" lon="5.01083">
        <ele>289</ele>
        <time>2016-09-08T10:06:51Z</time>
      </trkpt>
      <trkpt lat="45.92413" lon="5.01081">
        <ele>289</ele>
        <time>2016-09-08T10:06:52Z</time>
      </trkpt>
      <trkpt lat="45.92419" lon="5.01079">
        <ele>289</ele>
        <time>2016-09-08T10:06:53Z</time>
      </trkpt>
      <trkpt lat="45.92424" lon="5.01077">
        <ele>289</ele>
        <time>2016-09-08T10:06:54Z</time>
      </trkpt>
      <trkpt lat="45.92429" lon="5.01076">
        <ele>289</ele>
        <time>2016-09-08T10:06:55Z</time>
      </trkpt>
      <trkpt lat="45.92435" lon="5.01074">
        <ele>289</ele>
        <time>2016-09-08T10:06:56Z</time>
      </trkpt>
      <trkpt lat="45.9244" lon="5.01073">
        <ele>288</ele>
        <time>2016-09-08T10:06:57Z</time>
      </trkpt>
      <trkpt lat="45.92446" lon="5.01072">
        <ele>288</ele>
        <time>2016-09-08T10:06:58Z</time>
      </trkpt>
      <trkpt lat="45.92452" lon="5.01071">
        <ele>288</ele>
        <time>2016-09-08T10:06:59Z</time>
      </trkpt>
      <trkpt lat="45.92457" lon="5.0107">
        <ele>288</ele>
        <time>2016-09-08T10:07:00Z</time>
      </trkpt>
      <trkpt lat="45.92463" lon="5.01069">
        <ele>288</ele>
        <time>2016-09-08T10:07:01Z</time>
      </trkpt>
      <trkpt lat="45.92469" lon="5.01067">
        <ele>288</ele>
        <time>2016-09-08T10:07:02Z</time>
      </trkpt>
      <trkpt lat="45.92474" lon="5.01066">
        <ele>288</ele>
        <time>2016-09-08T10:07:03Z</time>
      </trkpt>
      <trkpt lat="45.9248" lon="5.01065">
        <ele>288</ele>
        <time>2016-09-08T10:07:04Z</time>
      </trkpt>
      <trkpt lat="45.92486" lon="5.01065">
        <ele>288</ele>
        <time>2016-09-08T10:07:05Z</time>
      </trkpt>
      <trkpt lat="45.92491" lon="5.01064">
        <ele>288</ele>
        <time>2016-09-08T10:07:06Z</time>
      </trkpt>
      <trkpt lat="45.92497" lon="5.01063">
        <ele>288</ele>
        <time>2016-09-08T10:07:07Z</time>
      </trkpt>
      <trkpt lat="45.92503" lon="5.01064">
        <ele>288</ele>
        <time>2016-09-08T10:07:08Z</time>
      </trkpt>
      <trkpt lat="45.92508" lon="5.01064">
        <ele>288</ele>
        <time>2016-09-08T10:07:09Z</time>
      </trkpt>
      <trkpt lat="45.92514" lon="5.01064">
        <ele>288</ele>
        <time>2016-09-08T10:07:10Z</time>
      </trkpt>
      <trkpt lat="45.92519" lon="5.01064">
        <ele>288</ele>
        <time>2016-09-08T10:07:11Z</time>
      </trkpt>
      <trkpt lat="45.92525" lon="5.01064">
        <ele>288</ele>
        <time>2016-09-08T10:07:12Z</time>
      </trkpt>
      <trkpt lat="45.9253" lon="5.01062">
        <ele>288</ele>
        <time>2016-09-08T10:07:13Z</time>
      </trkpt>
      <trkpt lat="45.92536" lon="5.01061">
        <ele>288</ele>
        <time>2016-09-08T10:07:14Z</time>
      </trkpt>
      <trkpt lat="45.92542" lon="5.01059">
        <ele>288</ele>
        <time>2016-09-08T10:07:15Z</time>
      </trkpt>
      <trkpt lat="45.92547" lon="5.01057">
        <ele>288</ele>
        <time>2016-09-08T10:07:16Z</time>
      </trkpt>
      <trkpt lat="45.92553" lon="5.01054">
        <ele>288</ele>
        <time>2016-09-08T10:07:17Z</time>
      </trkpt>
      <trkpt lat="45.92559" lon="5.01052">
        <ele>288</ele>
        <time>2016-09-08T10:07:18Z</time>
      </trkpt>
      <trkpt lat="45.92565" lon="5.0105">
        <ele>288</ele>
        <time>2016-09-08T10:07:19Z</time>
      </trkpt>
      <trkpt lat="45.92571" lon="5.01048">
        <ele>288</ele>
        <time>2016-09-08T10:07:20Z</time>
      </trkpt>
      <trkpt lat="45.92576" lon="5.01046">
        <ele>288</ele>
        <time>2016-09-08T10:07:21Z</time>
      </trkpt>
      <trkpt lat="45.92582" lon="5.01044">
        <ele>288</ele>
        <time>2016-09-08T10:07:22Z</time>
      </trkpt>
      <trkpt lat="45.92588" lon="5.01042">
        <ele>288</ele>
        <time>2016-09-08T10:07:23Z</time>
      </trkpt>
      <trkpt lat="45.92594" lon="5.0104">
        <ele>288</ele>
        <time>2016-09-08T10:07:24Z</time>
      </trkpt>
      <trkpt lat="45.926" lon="5.01037">
        <ele>288</ele>
        <time>2016-09-08T10:07:25Z</time>
      </trkpt>
      <trkpt lat="45.92605" lon="5.01034">
        <ele>288</ele>
        <time>2016-09-08T10:07:26Z</time>
      </trkpt>
      <trkpt lat="45.92611" lon="5.01032">
        <ele>288</ele>
        <time>2016-09-08T10:07:27Z</time>
      </trkpt>
      <trkpt lat="45.92616" lon="5.0103">
        <ele>288</ele>
        <time>2016-09-08T10:07:28Z</time>
      </trkpt>
      <trkpt lat="45.92622" lon="5.01028">
        <ele>288</ele>
        <time>2016-09-08T10:07:29Z</time>
      </trkpt>
      <trkpt lat="45.92627" lon="5.01027">
        <ele>288</ele>
        <time>2016-09-08T10:07:30Z</time>
      </trkpt>
      <trkpt lat="45.92633" lon="5.01026">
        <ele>288</ele>
        <time>2016-09-08T10:07:31Z</time>
      </trkpt>
      <trkpt lat="45.92638" lon="5.01025">
        <ele>289</ele>
        <time>2016-09-08T10:07:32Z</time>
      </trkpt>
      <trkpt lat="45.92644" lon="5.01024">
        <ele>289</ele>
        <time>2016-09-08T10:07:33Z</time>
      </trkpt>
      <trkpt lat="45.92649" lon="5.01022">
        <ele>289</ele>
        <time>2016-09-08T10:07:34Z</time>
      </trkpt>
      <trkpt lat="45.92655" lon="5.0102">
        <ele>289</ele>
        <time>2016-09-08T10:07:35Z</time>
      </trkpt>
      <trkpt lat="45.9266" lon="5.01018">
        <ele>289</ele>
        <time>2016-09-08T10:07:36Z</time>
      </trkpt>
      <trkpt lat="45.92667" lon="5.01016">
        <ele>288</ele>
        <time>2016-09-08T10:07:37Z</time>
      </trkpt>
      <trkpt lat="45.92673" lon="5.01014">
        <ele>288</ele>
        <time>2016-09-08T10:07:38Z</time>
      </trkpt>
      <trkpt lat="45.92678" lon="5.01011">
        <ele>288</ele>
        <time>2016-09-08T10:07:39Z</time>
      </trkpt>
      <trkpt lat="45.92682" lon="5.01008">
        <ele>288</ele>
        <time>2016-09-08T10:07:40Z</time>
      </trkpt>
      <trkpt lat="45.92687" lon="5.01004">
        <ele>288</ele>
        <time>2016-09-08T10:07:41Z</time>
      </trkpt>
      <trkpt lat="45.92692" lon="5.01">
        <ele>288</ele>
        <time>2016-09-08T10:07:42Z</time>
      </trkpt>
      <trkpt lat="45.92696" lon="5.00995">
        <ele>287</ele>
        <time>2016-09-08T10:07:43Z</time>
      </trkpt>
      <trkpt lat="45.92701" lon="5.0099">
        <ele>287</ele>
        <time>2016-09-08T10:07:44Z</time>
      </trkpt>
      <trkpt lat="45.92705" lon="5.00986">
        <ele>287</ele>
        <time>2016-09-08T10:07:45Z</time>
      </trkpt>
      <trkpt lat="45.92711" lon="5.0098">
        <ele>287</ele>
        <time>2016-09-08T10:07:46Z</time>
      </trkpt>
      <trkpt lat="45.92715" lon="5.00975">
        <ele>287</ele>
        <time>2016-09-08T10:07:47Z</time>
      </trkpt>
      <trkpt lat="45.92719" lon="5.00969">
        <ele>287</ele>
        <time>2016-09-08T10:07:48Z</time>
      </trkpt>
      <trkpt lat="45.92723" lon="5.00964">
        <ele>287</ele>
        <time>2016-09-08T10:07:49Z</time>
      </trkpt>
      <trkpt lat="45.92728" lon="5.00958">
        <ele>287</ele>
        <time>2016-09-08T10:07:50Z</time>
      </trkpt>
      <trkpt lat="45.92732" lon="5.00953">
        <ele>287</ele>
        <time>2016-09-08T10:07:51Z</time>
      </trkpt>
      <trkpt lat="45.92737" lon="5.00947">
        <ele>287</ele>
        <time>2016-09-08T10:07:52Z</time>
      </trkpt>
      <trkpt lat="45.92741" lon="5.00943">
        <ele>287</ele>
        <time>2016-09-08T10:07:53Z</time>
      </trkpt>
      <trkpt lat="45.92748" lon="5.00935">
        <ele>287</ele>
        <time>2016-09-08T10:07:55Z</time>
      </trkpt>
      <trkpt lat="45.92751" lon="5.00931">
        <ele>287</ele>
        <time>2016-09-08T10:07:56Z</time>
      </trkpt>
      <trkpt lat="45.92754" lon="5.00927">
        <ele>287</ele>
        <time>2016-09-08T10:07:57Z</time>
      </trkpt>
      <trkpt lat="45.92759" lon="5.00922">
        <ele>287</ele>
        <time>2016-09-08T10:07:58Z</time>
      </trkpt>
      <trkpt lat="45.92763" lon="5.00917">
        <ele>287</ele>
        <time>2016-09-08T10:07:59Z</time>
      </trkpt>
      <trkpt lat="45.92767" lon="5.00913">
        <ele>287</ele>
        <time>2016-09-08T10:08:00Z</time>
      </trkpt>
      <trkpt lat="45.92772" lon="5.00907">
        <ele>287</ele>
        <time>2016-09-08T10:08:01Z</time>
      </trkpt>
      <trkpt lat="45.92777" lon="5.00902">
        <ele>287</ele>
        <time>2016-09-08T10:08:02Z</time>
      </trkpt>
      <trkpt lat="45.92781" lon="5.00898">
        <ele>287</ele>
        <time>2016-09-08T10:08:03Z</time>
      </trkpt>
      <trkpt lat="45.92785" lon="5.00893">
        <ele>287</ele>
        <time>2016-09-08T10:08:04Z</time>
      </trkpt>
      <trkpt lat="45.9279" lon="5.00888">
        <ele>287</ele>
        <time>2016-09-08T10:08:05Z</time>
      </trkpt>
      <trkpt lat="45.92796" lon="5.00881">
        <ele>287</ele>
        <time>2016-09-08T10:08:06Z</time>
      </trkpt>
      <trkpt lat="45.928" lon="5.00874">
        <ele>287</ele>
        <time>2016-09-08T10:08:07Z</time>
      </trkpt>
      <trkpt lat="45.92805" lon="5.00868">
        <ele>287</ele>
        <time>2016-09-08T10:08:08Z</time>
      </trkpt>
      <trkpt lat="45.92809" lon="5.00861">
        <ele>287</ele>
        <time>2016-09-08T10:08:09Z</time>
      </trkpt>
      <trkpt lat="45.92813" lon="5.00854">
        <ele>287</ele>
        <time>2016-09-08T10:08:10Z</time>
      </trkpt>
      <trkpt lat="45.92817" lon="5.00847">
        <ele>287</ele>
        <time>2016-09-08T10:08:11Z</time>
      </trkpt>
      <trkpt lat="45.9282" lon="5.0084">
        <ele>287</ele>
        <time>2016-09-08T10:08:12Z</time>
      </trkpt>
      <trkpt lat="45.92824" lon="5.00833">
        <ele>287</ele>
        <time>2016-09-08T10:08:13Z</time>
      </trkpt>
      <trkpt lat="45.92827" lon="5.00825">
        <ele>287</ele>
        <time>2016-09-08T10:08:14Z</time>
      </trkpt>
      <trkpt lat="45.9283" lon="5.00818">
        <ele>287</ele>
        <time>2016-09-08T10:08:15Z</time>
      </trkpt>
      <trkpt lat="45.92834" lon="5.0081">
        <ele>287</ele>
        <time>2016-09-08T10:08:16Z</time>
      </trkpt>
      <trkpt lat="45.92837" lon="5.00803">
        <ele>287</ele>
        <time>2016-09-08T10:08:17Z</time>
      </trkpt>
      <trkpt lat="45.9284" lon="5.00796">
        <ele>287</ele>
        <time>2016-09-08T10:08:18Z</time>
      </trkpt>
      <trkpt lat="45.92844" lon="5.00789">
        <ele>287</ele>
        <time>2016-09-08T10:08:19Z</time>
      </trkpt>
      <trkpt lat="45.92847" lon="5.00783">
        <ele>287</ele>
        <time>2016-09-08T10:08:20Z</time>
      </trkpt>
      <trkpt lat="45.92851" lon="5.00777">
        <ele>287</ele>
        <time>2016-09-08T10:08:21Z</time>
      </trkpt>
      <trkpt lat="45.92855" lon="5.00771">
        <ele>287</ele>
        <time>2016-09-08T10:08:22Z</time>
      </trkpt>
      <trkpt lat="45.92859" lon="5.00765">
        <ele>287</ele>
        <time>2016-09-08T10:08:23Z</time>
      </trkpt>
      <trkpt lat="45.92863" lon="5.0076">
        <ele>287</ele>
        <time>2016-09-08T10:08:24Z</time>
      </trkpt>
      <trkpt lat="45.92867" lon="5.00756">
        <ele>287</ele>
        <time>2016-09-08T10:08:25Z</time>
      </trkpt>
      <trkpt lat="45.92872" lon="5.00752">
        <ele>287</ele>
        <time>2016-09-08T10:08:26Z</time>
      </trkpt>
      <trkpt lat="45.92876" lon="5.00749">
        <ele>288</ele>
        <time>2016-09-08T10:08:27Z</time>
      </trkpt>
      <trkpt lat="45.92881" lon="5.00746">
        <ele>288</ele>
        <time>2016-09-08T10:08:28Z</time>
      </trkpt>
      <trkpt lat="45.92886" lon="5.00743">
        <ele>288</ele>
        <time>2016-09-08T10:08:29Z</time>
      </trkpt>
      <trkpt lat="45.9289" lon="5.0074">
        <ele>288</ele>
        <time>2016-09-08T10:08:30Z</time>
      </trkpt>
      <trkpt lat="45.92895" lon="5.00736">
        <ele>288</ele>
        <time>2016-09-08T10:08:31Z</time>
      </trkpt>
      <trkpt lat="45.929" lon="5.00732">
        <ele>288</ele>
        <time>2016-09-08T10:08:32Z</time>
      </trkpt>
      <trkpt lat="45.92905" lon="5.00729">
        <ele>288</ele>
        <time>2016-09-08T10:08:33Z</time>
      </trkpt>
      <trkpt lat="45.92909" lon="5.00726">
        <ele>288</ele>
        <time>2016-09-08T10:08:34Z</time>
      </trkpt>
      <trkpt lat="45.92914" lon="5.00722">
        <ele>288</ele>
        <time>2016-09-08T10:08:35Z</time>
      </trkpt>
      <trkpt lat="45.92918" lon="5.0072">
        <ele>287</ele>
        <time>2016-09-08T10:08:36Z</time>
      </trkpt>
      <trkpt lat="45.92925" lon="5.00714">
        <ele>287</ele>
        <time>2016-09-08T10:08:37Z</time>
      </trkpt>
      <trkpt lat="45.9293" lon="5.00711">
        <ele>287</ele>
        <time>2016-09-08T10:08:38Z</time>
      </trkpt>
      <trkpt lat="45.92934" lon="5.00707">
        <ele>287</ele>
        <time>2016-09-08T10:08:39Z</time>
      </trkpt>
      <trkpt lat="45.92939" lon="5.00704">
        <ele>287</ele>
        <time>2016-09-08T10:08:40Z</time>
      </trkpt>
      <trkpt lat="45.92944" lon="5.00701">
        <ele>287</ele>
        <time>2016-09-08T10:08:41Z</time>
      </trkpt>
      <trkpt lat="45.92948" lon="5.00698">
        <ele>287</ele>
        <time>2016-09-08T10:08:42Z</time>
      </trkpt>
      <trkpt lat="45.92953" lon="5.00694">
        <ele>287</ele>
        <time>2016-09-08T10:08:43Z</time>
      </trkpt>
      <trkpt lat="45.92957" lon="5.00691">
        <ele>287</ele>
        <time>2016-09-08T10:08:44Z</time>
      </trkpt>
      <trkpt lat="45.92962" lon="5.00689">
        <ele>287</ele>
        <time>2016-09-08T10:08:45Z</time>
      </trkpt>
      <trkpt lat="45.92967" lon="5.00686">
        <ele>287</ele>
        <time>2016-09-08T10:08:46Z</time>
      </trkpt>
      <trkpt lat="45.92972" lon="5.00683">
        <ele>287</ele>
        <time>2016-09-08T10:08:47Z</time>
      </trkpt>
      <trkpt lat="45.92976" lon="5.00682">
        <ele>287</ele>
        <time>2016-09-08T10:08:48Z</time>
      </trkpt>
      <trkpt lat="45.92981" lon="5.00679">
        <ele>287</ele>
        <time>2016-09-08T10:08:49Z</time>
      </trkpt>
      <trkpt lat="45.92986" lon="5.00677">
        <ele>287</ele>
        <time>2016-09-08T10:08:50Z</time>
      </trkpt>
      <trkpt lat="45.92992" lon="5.00675">
        <ele>287</ele>
        <time>2016-09-08T10:08:51Z</time>
      </trkpt>
      <trkpt lat="45.92998" lon="5.00673">
        <ele>287</ele>
        <time>2016-09-08T10:08:52Z</time>
      </trkpt>
      <trkpt lat="45.93003" lon="5.00672">
        <ele>287</ele>
        <time>2016-09-08T10:08:53Z</time>
      </trkpt>
      <trkpt lat="45.9301" lon="5.00671">
        <ele>287</ele>
        <time>2016-09-08T10:08:54Z</time>
      </trkpt>
      <trkpt lat="45.93015" lon="5.00672">
        <ele>287</ele>
        <time>2016-09-08T10:08:55Z</time>
      </trkpt>
      <trkpt lat="45.93021" lon="5.00672">
        <ele>287</ele>
        <time>2016-09-08T10:08:56Z</time>
      </trkpt>
      <trkpt lat="45.93028" lon="5.0067">
        <ele>287</ele>
        <time>2016-09-08T10:08:57Z</time>
      </trkpt>
      <trkpt lat="45.93037" lon="5.00668">
        <ele>287</ele>
        <time>2016-09-08T10:08:58Z</time>
      </trkpt>
      <trkpt lat="45.93045" lon="5.00665">
        <ele>286</ele>
        <time>2016-09-08T10:08:59Z</time>
      </trkpt>
      <trkpt lat="45.93052" lon="5.00664">
        <ele>286</ele>
        <time>2016-09-08T10:09:00Z</time>
      </trkpt>
      <trkpt lat="45.93058" lon="5.00662">
        <ele>286</ele>
        <time>2016-09-08T10:09:01Z</time>
      </trkpt>
      <trkpt lat="45.93065" lon="5.0066">
        <ele>286</ele>
        <time>2016-09-08T10:09:02Z</time>
      </trkpt>
      <trkpt lat="45.93071" lon="5.00658">
        <ele>286</ele>
        <time>2016-09-08T10:09:03Z</time>
      </trkpt>
      <trkpt lat="45.93076" lon="5.00657">
        <ele>286</ele>
        <time>2016-09-08T10:09:04Z</time>
      </trkpt>
      <trkpt lat="45.93081" lon="5.00657">
        <ele>286</ele>
        <time>2016-09-08T10:09:05Z</time>
      </trkpt>
      <trkpt lat="45.93087" lon="5.00656">
        <ele>286</ele>
        <time>2016-09-08T10:09:06Z</time>
      </trkpt>
      <trkpt lat="45.93091" lon="5.00656">
        <ele>286</ele>
        <time>2016-09-08T10:09:07Z</time>
      </trkpt>
      <trkpt lat="45.93096" lon="5.00654">
        <ele>286</ele>
        <time>2016-09-08T10:09:08Z</time>
      </trkpt>
      <trkpt lat="45.93101" lon="5.00652">
        <ele>286</ele>
        <time>2016-09-08T10:09:09Z</time>
      </trkpt>
      <trkpt lat="45.93107" lon="5.00651">
        <ele>286</ele>
        <time>2016-09-08T10:09:10Z</time>
      </trkpt>
      <trkpt lat="45.93113" lon="5.00649">
        <ele>286</ele>
        <time>2016-09-08T10:09:11Z</time>
      </trkpt>
      <trkpt lat="45.93118" lon="5.00649">
        <ele>287</ele>
        <time>2016-09-08T10:09:12Z</time>
      </trkpt>
      <trkpt lat="45.93123" lon="5.00648">
        <ele>287</ele>
        <time>2016-09-08T10:09:13Z</time>
      </trkpt>
      <trkpt lat="45.9313" lon="5.00647">
        <ele>287</ele>
        <time>2016-09-08T10:09:14Z</time>
      </trkpt>
      <trkpt lat="45.93134" lon="5.00646">
        <ele>287</ele>
        <time>2016-09-08T10:09:15Z</time>
      </trkpt>
      <trkpt lat="45.93139" lon="5.00646">
        <ele>287</ele>
        <time>2016-09-08T10:09:16Z</time>
      </trkpt>
      <trkpt lat="45.93145" lon="5.00645">
        <ele>287</ele>
        <time>2016-09-08T10:09:17Z</time>
      </trkpt>
      <trkpt lat="45.93151" lon="5.00644">
        <ele>287</ele>
        <time>2016-09-08T10:09:18Z</time>
      </trkpt>
      <trkpt lat="45.93156" lon="5.00643">
        <ele>287</ele>
        <time>2016-09-08T10:09:19Z</time>
      </trkpt>
      <trkpt lat="45.93161" lon="5.00643">
        <ele>287</ele>
        <time>2016-09-08T10:09:20Z</time>
      </trkpt>
      <trkpt lat="45.93166" lon="5.00642">
        <ele>287</ele>
        <time>2016-09-08T10:09:21Z</time>
      </trkpt>
      <trkpt lat="45.93171" lon="5.00642">
        <ele>290</ele>
        <time>2016-09-08T10:09:22Z</time>
      </trkpt>
      <trkpt lat="45.93175" lon="5.0064">
        <ele>290</ele>
        <time>2016-09-08T10:09:23Z</time>
      </trkpt>
      <trkpt lat="45.9318" lon="5.00639">
        <ele>290</ele>
        <time>2016-09-08T10:09:24Z</time>
      </trkpt>
      <trkpt lat="45.93186" lon="5.00637">
        <ele>290</ele>
        <time>2016-09-08T10:09:25Z</time>
      </trkpt>
      <trkpt lat="45.93192" lon="5.00635">
        <ele>291</ele>
        <time>2016-09-08T10:09:26Z</time>
      </trkpt>
      <trkpt lat="45.93197" lon="5.00632">
        <ele>291</ele>
        <time>2016-09-08T10:09:27Z</time>
      </trkpt>
      <trkpt lat="45.93202" lon="5.00629">
        <ele>291</ele>
        <time>2016-09-08T10:09:28Z</time>
      </trkpt>
      <trkpt lat="45.93208" lon="5.00626">
        <ele>291</ele>
        <time>2016-09-08T10:09:29Z</time>
      </trkpt>
      <trkpt lat="45.93213" lon="5.00622">
        <ele>291</ele>
        <time>2016-09-08T10:09:30Z</time>
      </trkpt>
      <trkpt lat="45.93218" lon="5.00619">
        <ele>292</ele>
        <time>2016-09-08T10:09:31Z</time>
      </trkpt>
      <trkpt lat="45.93224" lon="5.00615">
        <ele>292</ele>
        <time>2016-09-08T10:09:32Z</time>
      </trkpt>
      <trkpt lat="45.93228" lon="5.00611">
        <ele>292</ele>
        <time>2016-09-08T10:09:33Z</time>
      </trkpt>
      <trkpt lat="45.93234" lon="5.00607">
        <ele>292</ele>
        <time>2016-09-08T10:09:34Z</time>
      </trkpt>
      <trkpt lat="45.93238" lon="5.00603">
        <ele>292</ele>
        <time>2016-09-08T10:09:35Z</time>
      </trkpt>
      <trkpt lat="45.93242" lon="5.00599">
        <ele>293</ele>
        <time>2016-09-08T10:09:36Z</time>
      </trkpt>
      <trkpt lat="45.93246" lon="5.00595">
        <ele>293</ele>
        <time>2016-09-08T10:09:37Z</time>
      </trkpt>
      <trkpt lat="45.9325" lon="5.0059">
        <ele>293</ele>
        <time>2016-09-08T10:09:38Z</time>
      </trkpt>
      <trkpt lat="45.93256" lon="5.00584">
        <ele>295</ele>
        <time>2016-09-08T10:09:39Z</time>
      </trkpt>
      <trkpt lat="45.93261" lon="5.00579">
        <ele>295</ele>
        <time>2016-09-08T10:09:40Z</time>
      </trkpt>
      <trkpt lat="45.93265" lon="5.00574">
        <ele>295</ele>
        <time>2016-09-08T10:09:41Z</time>
      </trkpt>
      <trkpt lat="45.9327" lon="5.0057">
        <ele>295</ele>
        <time>2016-09-08T10:09:42Z</time>
      </trkpt>
      <trkpt lat="45.93274" lon="5.00564">
        <ele>295</ele>
        <time>2016-09-08T10:09:43Z</time>
      </trkpt>
      <trkpt lat="45.93279" lon="5.00558">
        <ele>295</ele>
        <time>2016-09-08T10:09:44Z</time>
      </trkpt>
      <trkpt lat="45.93284" lon="5.0055">
        <ele>296</ele>
        <time>2016-09-08T10:09:45Z</time>
      </trkpt>
      <trkpt lat="45.93288" lon="5.00542">
        <ele>296</ele>
        <time>2016-09-08T10:09:46Z</time>
      </trkpt>
      <trkpt lat="45.93292" lon="5.00536">
        <ele>296</ele>
        <time>2016-09-08T10:09:47Z</time>
      </trkpt>
      <trkpt lat="45.93296" lon="5.0053">
        <ele>296</ele>
        <time>2016-09-08T10:09:48Z</time>
      </trkpt>
      <trkpt lat="45.93299" lon="5.00525">
        <ele>296</ele>
        <time>2016-09-08T10:09:49Z</time>
      </trkpt>
      <trkpt lat="45.93302" lon="5.00519">
        <ele>296</ele>
        <time>2016-09-08T10:09:50Z</time>
      </trkpt>
      <trkpt lat="45.93304" lon="5.00513">
        <ele>296</ele>
        <time>2016-09-08T10:09:51Z</time>
      </trkpt>
      <trkpt lat="45.93307" lon="5.00507">
        <ele>296</ele>
        <time>2016-09-08T10:09:52Z</time>
      </trkpt>
      <trkpt lat="45.9331" lon="5.00502">
        <ele>296</ele>
        <time>2016-09-08T10:09:53Z</time>
      </trkpt>
      <trkpt lat="45.93314" lon="5.00496">
        <ele>296</ele>
        <time>2016-09-08T10:09:54Z</time>
      </trkpt>
      <trkpt lat="45.93318" lon="5.00491">
        <ele>296</ele>
        <time>2016-09-08T10:09:55Z</time>
      </trkpt>
      <trkpt lat="45.93322" lon="5.00485">
        <ele>296</ele>
        <time>2016-09-08T10:09:56Z</time>
      </trkpt>
      <trkpt lat="45.93326" lon="5.0048">
        <ele>296</ele>
        <time>2016-09-08T10:09:57Z</time>
      </trkpt>
      <trkpt lat="45.93329" lon="5.00475">
        <ele>296</ele>
        <time>2016-09-08T10:09:58Z</time>
      </trkpt>
      <trkpt lat="45.93333" lon="5.00469">
        <ele>295</ele>
        <time>2016-09-08T10:09:59Z</time>
      </trkpt>
      <trkpt lat="45.93336" lon="5.00464">
        <ele>297</ele>
        <time>2016-09-08T10:10:00Z</time>
      </trkpt>
      <trkpt lat="45.93341" lon="5.00459">
        <ele>297</ele>
        <time>2016-09-08T10:10:01Z</time>
      </trkpt>
      <trkpt lat="45.93346" lon="5.00454">
        <ele>297</ele>
        <time>2016-09-08T10:10:02Z</time>
      </trkpt>
      <trkpt lat="45.93351" lon="5.0045">
        <ele>297</ele>
        <time>2016-09-08T10:10:03Z</time>
      </trkpt>
      <trkpt lat="45.93355" lon="5.00446">
        <ele>297</ele>
        <time>2016-09-08T10:10:04Z</time>
      </trkpt>
      <trkpt lat="45.9336" lon="5.0044">
        <ele>297</ele>
        <time>2016-09-08T10:10:05Z</time>
      </trkpt>
      <trkpt lat="45.93364" lon="5.00436">
        <ele>297</ele>
        <time>2016-09-08T10:10:06Z</time>
      </trkpt>
      <trkpt lat="45.93368" lon="5.00432">
        <ele>297</ele>
        <time>2016-09-08T10:10:07Z</time>
      </trkpt>
      <trkpt lat="45.93372" lon="5.00429">
        <ele>297</ele>
        <time>2016-09-08T10:10:08Z</time>
      </trkpt>
      <trkpt lat="45.93376" lon="5.00426">
        <ele>297</ele>
        <time>2016-09-08T10:10:09Z</time>
      </trkpt>
      <trkpt lat="45.93381" lon="5.00423">
        <ele>297</ele>
        <time>2016-09-08T10:10:10Z</time>
      </trkpt>
      <trkpt lat="45.93386" lon="5.00419">
        <ele>297</ele>
        <time>2016-09-08T10:10:11Z</time>
      </trkpt>
      <trkpt lat="45.9339" lon="5.00415">
        <ele>297</ele>
        <time>2016-09-08T10:10:12Z</time>
      </trkpt>
      <trkpt lat="45.93394" lon="5.00411">
        <ele>297</ele>
        <time>2016-09-08T10:10:13Z</time>
      </trkpt>
      <trkpt lat="45.93399" lon="5.00407">
        <ele>297</ele>
        <time>2016-09-08T10:10:14Z</time>
      </trkpt>
      <trkpt lat="45.93403" lon="5.00403">
        <ele>297</ele>
        <time>2016-09-08T10:10:15Z</time>
      </trkpt>
      <trkpt lat="45.93408" lon="5.004">
        <ele>297</ele>
        <time>2016-09-08T10:10:16Z</time>
      </trkpt>
      <trkpt lat="45.93412" lon="5.00397">
        <ele>297</ele>
        <time>2016-09-08T10:10:17Z</time>
      </trkpt>
      <trkpt lat="45.93417" lon="5.00394">
        <ele>297</ele>
        <time>2016-09-08T10:10:18Z</time>
      </trkpt>
      <trkpt lat="45.93422" lon="5.00392">
        <ele>296</ele>
        <time>2016-09-08T10:10:19Z</time>
      </trkpt>
      <trkpt lat="45.93427" lon="5.00389">
        <ele>296</ele>
        <time>2016-09-08T10:10:20Z</time>
      </trkpt>
      <trkpt lat="45.93432" lon="5.00386">
        <ele>296</ele>
        <time>2016-09-08T10:10:21Z</time>
      </trkpt>
      <trkpt lat="45.93437" lon="5.00381">
        <ele>296</ele>
        <time>2016-09-08T10:10:22Z</time>
      </trkpt>
      <trkpt lat="45.93443" lon="5.00377">
        <ele>296</ele>
        <time>2016-09-08T10:10:23Z</time>
      </trkpt>
      <trkpt lat="45.93448" lon="5.00373">
        <ele>296</ele>
        <time>2016-09-08T10:10:24Z</time>
      </trkpt>
      <trkpt lat="45.93453" lon="5.00371">
        <ele>295</ele>
        <time>2016-09-08T10:10:25Z</time>
      </trkpt>
      <trkpt lat="45.93457" lon="5.00368">
        <ele>295</ele>
        <time>2016-09-08T10:10:26Z</time>
      </trkpt>
      <trkpt lat="45.93462" lon="5.00364">
        <ele>295</ele>
        <time>2016-09-08T10:10:27Z</time>
      </trkpt>
      <trkpt lat="45.93468" lon="5.00359">
        <ele>295</ele>
        <time>2016-09-08T10:10:28Z</time>
      </trkpt>
      <trkpt lat="45.93473" lon="5.00357">
        <ele>295</ele>
        <time>2016-09-08T10:10:29Z</time>
      </trkpt>
      <trkpt lat="45.93478" lon="5.00354">
        <ele>295</ele>
        <time>2016-09-08T10:10:30Z</time>
      </trkpt>
      <trkpt lat="45.93483" lon="5.00351">
        <ele>294</ele>
        <time>2016-09-08T10:10:31Z</time>
      </trkpt>
      <trkpt lat="45.93489" lon="5.00347">
        <ele>294</ele>
        <time>2016-09-08T10:10:32Z</time>
      </trkpt>
      <trkpt lat="45.93494" lon="5.00344">
        <ele>294</ele>
        <time>2016-09-08T10:10:33Z</time>
      </trkpt>
      <trkpt lat="45.93501" lon="5.00341">
        <ele>293</ele>
        <time>2016-09-08T10:10:34Z</time>
      </trkpt>
      <trkpt lat="45.93507" lon="5.00339">
        <ele>293</ele>
        <time>2016-09-08T10:10:35Z</time>
      </trkpt>
      <trkpt lat="45.93512" lon="5.00337">
        <ele>293</ele>
        <time>2016-09-08T10:10:36Z</time>
      </trkpt>
      <trkpt lat="45.93518" lon="5.00336">
        <ele>293</ele>
        <time>2016-09-08T10:10:37Z</time>
      </trkpt>
      <trkpt lat="45.93524" lon="5.00334">
        <ele>292</ele>
        <time>2016-09-08T10:10:38Z</time>
      </trkpt>
      <trkpt lat="45.9353" lon="5.00332">
        <ele>292</ele>
        <time>2016-09-08T10:10:39Z</time>
      </trkpt>
      <trkpt lat="45.93536" lon="5.0033">
        <ele>292</ele>
        <time>2016-09-08T10:10:40Z</time>
      </trkpt>
      <trkpt lat="45.93541" lon="5.00327">
        <ele>292</ele>
        <time>2016-09-08T10:10:41Z</time>
      </trkpt>
      <trkpt lat="45.93547" lon="5.00325">
        <ele>292</ele>
        <time>2016-09-08T10:10:42Z</time>
      </trkpt>
      <trkpt lat="45.93552" lon="5.00322">
        <ele>292</ele>
        <time>2016-09-08T10:10:43Z</time>
      </trkpt>
      <trkpt lat="45.93557" lon="5.00319">
        <ele>292</ele>
        <time>2016-09-08T10:10:44Z</time>
      </trkpt>
      <trkpt lat="45.93563" lon="5.00317">
        <ele>292</ele>
        <time>2016-09-08T10:10:45Z</time>
      </trkpt>
      <trkpt lat="45.93568" lon="5.00317">
        <ele>292</ele>
        <time>2016-09-08T10:10:46Z</time>
      </trkpt>
      <trkpt lat="45.93573" lon="5.00315">
        <ele>292</ele>
        <time>2016-09-08T10:10:47Z</time>
      </trkpt>
      <trkpt lat="45.93577" lon="5.00314">
        <ele>292</ele>
        <time>2016-09-08T10:10:48Z</time>
      </trkpt>
      <trkpt lat="45.93582" lon="5.00313">
        <ele>292</ele>
        <time>2016-09-08T10:10:49Z</time>
      </trkpt>
      <trkpt lat="45.93588" lon="5.00311">
        <ele>291</ele>
        <time>2016-09-08T10:10:50Z</time>
      </trkpt>
      <trkpt lat="45.93594" lon="5.0031">
        <ele>291</ele>
        <time>2016-09-08T10:10:51Z</time>
      </trkpt>
      <trkpt lat="45.936" lon="5.00308">
        <ele>291</ele>
        <time>2016-09-08T10:10:52Z</time>
      </trkpt>
      <trkpt lat="45.93606" lon="5.00304">
        <ele>291</ele>
        <time>2016-09-08T10:10:53Z</time>
      </trkpt>
      <trkpt lat="45.93611" lon="5.00302">
        <ele>291</ele>
        <time>2016-09-08T10:10:54Z</time>
      </trkpt>
      <trkpt lat="45.93617" lon="5.00299">
        <ele>291</ele>
        <time>2016-09-08T10:10:55Z</time>
      </trkpt>
      <trkpt lat="45.93623" lon="5.00297">
        <ele>291</ele>
        <time>2016-09-08T10:10:56Z</time>
      </trkpt>
      <trkpt lat="45.93628" lon="5.00295">
        <ele>290</ele>
        <time>2016-09-08T10:10:57Z</time>
      </trkpt>
      <trkpt lat="45.93632" lon="5.00295">
        <ele>290</ele>
        <time>2016-09-08T10:10:58Z</time>
      </trkpt>
      <trkpt lat="45.93637" lon="5.00295">
        <ele>290</ele>
        <time>2016-09-08T10:10:59Z</time>
      </trkpt>
      <trkpt lat="45.93643" lon="5.00294">
        <ele>290</ele>
        <time>2016-09-08T10:11:00Z</time>
      </trkpt>
      <trkpt lat="45.93647" lon="5.00294">
        <ele>290</ele>
        <time>2016-09-08T10:11:01Z</time>
      </trkpt>
      <trkpt lat="45.93652" lon="5.00293">
        <ele>290</ele>
        <time>2016-09-08T10:11:02Z</time>
      </trkpt>
      <trkpt lat="45.93658" lon="5.00292">
        <ele>290</ele>
        <time>2016-09-08T10:11:03Z</time>
      </trkpt>
      <trkpt lat="45.93663" lon="5.00293">
        <ele>290</ele>
        <time>2016-09-08T10:11:04Z</time>
      </trkpt>
      <trkpt lat="45.93669" lon="5.00294">
        <ele>289</ele>
        <time>2016-09-08T10:11:05Z</time>
      </trkpt>
      <trkpt lat="45.93676" lon="5.00293">
        <ele>289</ele>
        <time>2016-09-08T10:11:06Z</time>
      </trkpt>
      <trkpt lat="45.93682" lon="5.00293">
        <ele>289</ele>
        <time>2016-09-08T10:11:07Z</time>
      </trkpt>
      <trkpt lat="45.93689" lon="5.00294">
        <ele>289</ele>
        <time>2016-09-08T10:11:08Z</time>
      </trkpt>
      <trkpt lat="45.93694" lon="5.00294">
        <ele>289</ele>
        <time>2016-09-08T10:11:09Z</time>
      </trkpt>
      <trkpt lat="45.937" lon="5.00295">
        <ele>289</ele>
        <time>2016-09-08T10:11:10Z</time>
      </trkpt>
      <trkpt lat="45.93705" lon="5.00294">
        <ele>289</ele>
        <time>2016-09-08T10:11:11Z</time>
      </trkpt>
      <trkpt lat="45.93711" lon="5.00295">
        <ele>289</ele>
        <time>2016-09-08T10:11:12Z</time>
      </trkpt>
      <trkpt lat="45.93718" lon="5.00296">
        <ele>289</ele>
        <time>2016-09-08T10:11:13Z</time>
      </trkpt>
      <trkpt lat="45.93724" lon="5.00297">
        <ele>289</ele>
        <time>2016-09-08T10:11:14Z</time>
      </trkpt>
      <trkpt lat="45.93729" lon="5.00298">
        <ele>289</ele>
        <time>2016-09-08T10:11:15Z</time>
      </trkpt>
      <trkpt lat="45.93735" lon="5.003">
        <ele>289</ele>
        <time>2016-09-08T10:11:16Z</time>
      </trkpt>
      <trkpt lat="45.93741" lon="5.003">
        <ele>289</ele>
        <time>2016-09-08T10:11:17Z</time>
      </trkpt>
      <trkpt lat="45.93748" lon="5.00301">
        <ele>289</ele>
        <time>2016-09-08T10:11:18Z</time>
      </trkpt>
      <trkpt lat="45.93755" lon="5.00301">
        <ele>289</ele>
        <time>2016-09-08T10:11:19Z</time>
      </trkpt>
      <trkpt lat="45.93761" lon="5.00301">
        <ele>289</ele>
        <time>2016-09-08T10:11:20Z</time>
      </trkpt>
      <trkpt lat="45.93768" lon="5.00301">
        <ele>289</ele>
        <time>2016-09-08T10:11:21Z</time>
      </trkpt>
      <trkpt lat="45.93774" lon="5.00301">
        <ele>289</ele>
        <time>2016-09-08T10:11:22Z</time>
      </trkpt>
      <trkpt lat="45.93779" lon="5.003">
        <ele>289</ele>
        <time>2016-09-08T10:11:23Z</time>
      </trkpt>
      <trkpt lat="45.93785" lon="5.003">
        <ele>289</ele>
        <time>2016-09-08T10:11:24Z</time>
      </trkpt>
      <trkpt lat="45.93791" lon="5.00301">
        <ele>289</ele>
        <time>2016-09-08T10:11:25Z</time>
      </trkpt>
      <trkpt lat="45.93796" lon="5.00301">
        <ele>289</ele>
        <time>2016-09-08T10:11:26Z</time>
      </trkpt>
      <trkpt lat="45.93803" lon="5.00302">
        <ele>289</ele>
        <time>2016-09-08T10:11:27Z</time>
      </trkpt>
      <trkpt lat="45.93808" lon="5.00303">
        <ele>289</ele>
        <time>2016-09-08T10:11:28Z</time>
      </trkpt>
      <trkpt lat="45.93814" lon="5.00305">
        <ele>289</ele>
        <time>2016-09-08T10:11:29Z</time>
      </trkpt>
      <trkpt lat="45.9382" lon="5.00306">
        <ele>289</ele>
        <time>2016-09-08T10:11:30Z</time>
      </trkpt>
      <trkpt lat="45.93826" lon="5.00307">
        <ele>289</ele>
        <time>2016-09-08T10:11:31Z</time>
      </trkpt>
      <trkpt lat="45.93832" lon="5.00308">
        <ele>289</ele>
        <time>2016-09-08T10:11:32Z</time>
      </trkpt>
      <trkpt lat="45.93838" lon="5.0031">
        <ele>289</ele>
        <time>2016-09-08T10:11:33Z</time>
      </trkpt>
      <trkpt lat="45.93845" lon="5.00312">
        <ele>288</ele>
        <time>2016-09-08T10:11:34Z</time>
      </trkpt>
      <trkpt lat="45.93852" lon="5.00313">
        <ele>288</ele>
        <time>2016-09-08T10:11:35Z</time>
      </trkpt>
      <trkpt lat="45.93858" lon="5.00315">
        <ele>288</ele>
        <time>2016-09-08T10:11:36Z</time>
      </trkpt>
      <trkpt lat="45.93865" lon="5.00317">
        <ele>288</ele>
        <time>2016-09-08T10:11:37Z</time>
      </trkpt>
      <trkpt lat="45.93872" lon="5.00319">
        <ele>288</ele>
        <time>2016-09-08T10:11:38Z</time>
      </trkpt>
      <trkpt lat="45.93879" lon="5.00321">
        <ele>288</ele>
        <time>2016-09-08T10:11:39Z</time>
      </trkpt>
      <trkpt lat="45.93886" lon="5.00323">
        <ele>288</ele>
        <time>2016-09-08T10:11:40Z</time>
      </trkpt>
      <trkpt lat="45.93894" lon="5.00325">
        <ele>287</ele>
        <time>2016-09-08T10:11:41Z</time>
      </trkpt>
      <trkpt lat="45.93901" lon="5.00328">
        <ele>287</ele>
        <time>2016-09-08T10:11:42Z</time>
      </trkpt>
      <trkpt lat="45.93909" lon="5.00331">
        <ele>287</ele>
        <time>2016-09-08T10:11:43Z</time>
      </trkpt>
      <trkpt lat="45.93917" lon="5.00333">
        <ele>286</ele>
        <time>2016-09-08T10:11:44Z</time>
      </trkpt>
      <trkpt lat="45.93924" lon="5.00336">
        <ele>286</ele>
        <time>2016-09-08T10:11:45Z</time>
      </trkpt>
      <trkpt lat="45.93932" lon="5.00339">
        <ele>286</ele>
        <time>2016-09-08T10:11:46Z</time>
      </trkpt>
      <trkpt lat="45.93939" lon="5.00341">
        <ele>286</ele>
        <time>2016-09-08T10:11:47Z</time>
      </trkpt>
      <trkpt lat="45.93946" lon="5.00344">
        <ele>286</ele>
        <time>2016-09-08T10:11:48Z</time>
      </trkpt>
      <trkpt lat="45.93953" lon="5.00347">
        <ele>286</ele>
        <time>2016-09-08T10:11:49Z</time>
      </trkpt>
      <trkpt lat="45.9396" lon="5.00349">
        <ele>286</ele>
        <time>2016-09-08T10:11:50Z</time>
      </trkpt>
      <trkpt lat="45.93967" lon="5.00351">
        <ele>286</ele>
        <time>2016-09-08T10:11:51Z</time>
      </trkpt>
      <trkpt lat="45.93974" lon="5.00353">
        <ele>286</ele>
        <time>2016-09-08T10:11:52Z</time>
      </trkpt>
      <trkpt lat="45.9398" lon="5.00354">
        <ele>286</ele>
        <time>2016-09-08T10:11:53Z</time>
      </trkpt>
      <trkpt lat="45.93987" lon="5.00356">
        <ele>286</ele>
        <time>2016-09-08T10:11:54Z</time>
      </trkpt>
      <trkpt lat="45.93993" lon="5.00358">
        <ele>286</ele>
        <time>2016-09-08T10:11:55Z</time>
      </trkpt>
      <trkpt lat="45.93999" lon="5.0036">
        <ele>286</ele>
        <time>2016-09-08T10:11:56Z</time>
      </trkpt>
      <trkpt lat="45.94005" lon="5.00361">
        <ele>285</ele>
        <time>2016-09-08T10:11:57Z</time>
      </trkpt>
      <trkpt lat="45.94011" lon="5.00362">
        <ele>285</ele>
        <time>2016-09-08T10:11:58Z</time>
      </trkpt>
      <trkpt lat="45.94017" lon="5.00363">
        <ele>285</ele>
        <time>2016-09-08T10:11:59Z</time>
      </trkpt>
      <trkpt lat="45.94023" lon="5.00364">
        <ele>285</ele>
        <time>2016-09-08T10:12:00Z</time>
      </trkpt>
      <trkpt lat="45.94028" lon="5.00364">
        <ele>285</ele>
        <time>2016-09-08T10:12:01Z</time>
      </trkpt>
      <trkpt lat="45.94033" lon="5.00365">
        <ele>285</ele>
        <time>2016-09-08T10:12:02Z</time>
      </trkpt>
      <trkpt lat="45.94039" lon="5.00366">
        <ele>285</ele>
        <time>2016-09-08T10:12:03Z</time>
      </trkpt>
      <trkpt lat="45.94045" lon="5.00367">
        <ele>285</ele>
        <time>2016-09-08T10:12:04Z</time>
      </trkpt>
      <trkpt lat="45.9405" lon="5.00368">
        <ele>285</ele>
        <time>2016-09-08T10:12:05Z</time>
      </trkpt>
      <trkpt lat="45.94057" lon="5.00368">
        <ele>285</ele>
        <time>2016-09-08T10:12:06Z</time>
      </trkpt>
      <trkpt lat="45.94062" lon="5.00368">
        <ele>285</ele>
        <time>2016-09-08T10:12:07Z</time>
      </trkpt>
      <trkpt lat="45.94068" lon="5.00367">
        <ele>285</ele>
        <time>2016-09-08T10:12:08Z</time>
      </trkpt>
      <trkpt lat="45.94074" lon="5.00365">
        <ele>285</ele>
        <time>2016-09-08T10:12:09Z</time>
      </trkpt>
      <trkpt lat="45.94079" lon="5.00361">
        <ele>285</ele>
        <time>2016-09-08T10:12:10Z</time>
      </trkpt>
      <trkpt lat="45.94084" lon="5.00357">
        <ele>286</ele>
        <time>2016-09-08T10:12:11Z</time>
      </trkpt>
      <trkpt lat="45.94089" lon="5.00352">
        <ele>286</ele>
        <time>2016-09-08T10:12:12Z</time>
      </trkpt>
      <trkpt lat="45.94094" lon="5.00347">
        <ele>285</ele>
        <time>2016-09-08T10:12:13Z</time>
      </trkpt>
      <trkpt lat="45.941" lon="5.00341">
        <ele>285</ele>
        <time>2016-09-08T10:12:14Z</time>
      </trkpt>
      <trkpt lat="45.94106" lon="5.00336">
        <ele>286</ele>
        <time>2016-09-08T10:12:15Z</time>
      </trkpt>
      <trkpt lat="45.94112" lon="5.00329">
        <ele>285</ele>
        <time>2016-09-08T10:12:16Z</time>
      </trkpt>
      <trkpt lat="45.94117" lon="5.00323">
        <ele>285</ele>
        <time>2016-09-08T10:12:17Z</time>
      </trkpt>
      <trkpt lat="45.94122" lon="5.00317">
        <ele>285</ele>
        <time>2016-09-08T10:12:18Z</time>
      </trkpt>
      <trkpt lat="45.94127" lon="5.0031">
        <ele>285</ele>
        <time>2016-09-08T10:12:19Z</time>
      </trkpt>
      <trkpt lat="45.94132" lon="5.00303">
        <ele>285</ele>
        <time>2016-09-08T10:12:20Z</time>
      </trkpt>
      <trkpt lat="45.94137" lon="5.00295">
        <ele>285</ele>
        <time>2016-09-08T10:12:21Z</time>
      </trkpt>
      <trkpt lat="45.94142" lon="5.00287">
        <ele>285</ele>
        <time>2016-09-08T10:12:22Z</time>
      </trkpt>
      <trkpt lat="45.94146" lon="5.0028">
        <ele>285</ele>
        <time>2016-09-08T10:12:23Z</time>
      </trkpt>
      <trkpt lat="45.94151" lon="5.00273">
        <ele>285</ele>
        <time>2016-09-08T10:12:24Z</time>
      </trkpt>
      <trkpt lat="45.94155" lon="5.00267">
        <ele>285</ele>
        <time>2016-09-08T10:12:25Z</time>
      </trkpt>
      <trkpt lat="45.9416" lon="5.00261">
        <ele>285</ele>
        <time>2016-09-08T10:12:26Z</time>
      </trkpt>
      <trkpt lat="45.94165" lon="5.00254">
        <ele>285</ele>
        <time>2016-09-08T10:12:27Z</time>
      </trkpt>
      <trkpt lat="45.9417" lon="5.00247">
        <ele>285</ele>
        <time>2016-09-08T10:12:28Z</time>
      </trkpt>
      <trkpt lat="45.94174" lon="5.00241">
        <ele>286</ele>
        <time>2016-09-08T10:12:29Z</time>
      </trkpt>
      <trkpt lat="45.94178" lon="5.00235">
        <ele>286</ele>
        <time>2016-09-08T10:12:30Z</time>
      </trkpt>
      <trkpt lat="45.94183" lon="5.00229">
        <ele>286</ele>
        <time>2016-09-08T10:12:31Z</time>
      </trkpt>
      <trkpt lat="45.94187" lon="5.00222">
        <ele>286</ele>
        <time>2016-09-08T10:12:32Z</time>
      </trkpt>
      <trkpt lat="45.94192" lon="5.00216">
        <ele>286</ele>
        <time>2016-09-08T10:12:33Z</time>
      </trkpt>
      <trkpt lat="45.94196" lon="5.0021">
        <ele>287</ele>
        <time>2016-09-08T10:12:34Z</time>
      </trkpt>
      <trkpt lat="45.942" lon="5.00204">
        <ele>287</ele>
        <time>2016-09-08T10:12:35Z</time>
      </trkpt>
      <trkpt lat="45.94204" lon="5.00198">
        <ele>287</ele>
        <time>2016-09-08T10:12:36Z</time>
      </trkpt>
      <trkpt lat="45.94208" lon="5.00192">
        <ele>287</ele>
        <time>2016-09-08T10:12:37Z</time>
      </trkpt>
      <trkpt lat="45.94212" lon="5.00187">
        <ele>287</ele>
        <time>2016-09-08T10:12:38Z</time>
      </trkpt>
      <trkpt lat="45.94216" lon="5.00181">
        <ele>287</ele>
        <time>2016-09-08T10:12:39Z</time>
      </trkpt>
      <trkpt lat="45.9422" lon="5.00174">
        <ele>287</ele>
        <time>2016-09-08T10:12:40Z</time>
      </trkpt>
      <trkpt lat="45.94225" lon="5.00167">
        <ele>287</ele>
        <time>2016-09-08T10:12:41Z</time>
      </trkpt>
      <trkpt lat="45.94229" lon="5.00161">
        <ele>288</ele>
        <time>2016-09-08T10:12:42Z</time>
      </trkpt>
      <trkpt lat="45.94233" lon="5.00154">
        <ele>288</ele>
        <time>2016-09-08T10:12:43Z</time>
      </trkpt>
      <trkpt lat="45.94237" lon="5.00147">
        <ele>288</ele>
        <time>2016-09-08T10:12:44Z</time>
      </trkpt>
      <trkpt lat="45.94241" lon="5.0014">
        <ele>288</ele>
        <time>2016-09-08T10:12:45Z</time>
      </trkpt>
      <trkpt lat="45.94246" lon="5.00135">
        <ele>288</ele>
        <time>2016-09-08T10:12:46Z</time>
      </trkpt>
      <trkpt lat="45.9425" lon="5.00129">
        <ele>289</ele>
        <time>2016-09-08T10:12:47Z</time>
      </trkpt>
      <trkpt lat="45.94255" lon="5.00123">
        <ele>289</ele>
        <time>2016-09-08T10:12:48Z</time>
      </trkpt>
      <trkpt lat="45.94259" lon="5.00117">
        <ele>289</ele>
        <time>2016-09-08T10:12:49Z</time>
      </trkpt>
      <trkpt lat="45.94263" lon="5.0011">
        <ele>289</ele>
        <time>2016-09-08T10:12:50Z</time>
      </trkpt>
      <trkpt lat="45.94267" lon="5.00104">
        <ele>289</ele>
        <time>2016-09-08T10:12:51Z</time>
      </trkpt>
      <trkpt lat="45.94272" lon="5.00098">
        <ele>289</ele>
        <time>2016-09-08T10:12:52Z</time>
      </trkpt>
      <trkpt lat="45.94276" lon="5.00092">
        <ele>289</ele>
        <time>2016-09-08T10:12:53Z</time>
      </trkpt>
      <trkpt lat="45.9428" lon="5.00087">
        <ele>289</ele>
        <time>2016-09-08T10:12:54Z</time>
      </trkpt>
      <trkpt lat="45.94284" lon="5.00081">
        <ele>290</ele>
        <time>2016-09-08T10:12:55Z</time>
      </trkpt>
      <trkpt lat="45.94288" lon="5.00076">
        <ele>290</ele>
        <time>2016-09-08T10:12:56Z</time>
      </trkpt>
      <trkpt lat="45.94291" lon="5.00071">
        <ele>290</ele>
        <time>2016-09-08T10:12:57Z</time>
      </trkpt>
      <trkpt lat="45.94295" lon="5.00065">
        <ele>290</ele>
        <time>2016-09-08T10:12:58Z</time>
      </trkpt>
      <trkpt lat="45.94298" lon="5.0006">
        <ele>290</ele>
        <time>2016-09-08T10:12:59Z</time>
      </trkpt>
      <trkpt lat="45.94302" lon="5.00055">
        <ele>290</ele>
        <time>2016-09-08T10:13:00Z</time>
      </trkpt>
      <trkpt lat="45.94307" lon="5.00045">
        <ele>290</ele>
        <time>2016-09-08T10:13:02Z</time>
      </trkpt>
      <trkpt lat="45.94311" lon="5.00039">
        <ele>290</ele>
        <time>2016-09-08T10:13:03Z</time>
      </trkpt>
      <trkpt lat="45.94314" lon="5.00034">
        <ele>290</ele>
        <time>2016-09-08T10:13:04Z</time>
      </trkpt>
      <trkpt lat="45.94317" lon="5.00028">
        <ele>290</ele>
        <time>2016-09-08T10:13:05Z</time>
      </trkpt>
      <trkpt lat="45.9432" lon="5.00021">
        <ele>291</ele>
        <time>2016-09-08T10:13:06Z</time>
      </trkpt>
      <trkpt lat="45.94323" lon="5.00015">
        <ele>291</ele>
        <time>2016-09-08T10:13:07Z</time>
      </trkpt>
      <trkpt lat="45.94326" lon="5.00007">
        <ele>291</ele>
        <time>2016-09-08T10:13:08Z</time>
      </trkpt>
      <trkpt lat="45.94329" lon="5">
        <ele>291</ele>
        <time>2016-09-08T10:13:09Z</time>
      </trkpt>
      <trkpt lat="45.94331" lon="4.99993">
        <ele>291</ele>
        <time>2016-09-08T10:13:10Z</time>
      </trkpt>
      <trkpt lat="45.94334" lon="4.99987">
        <ele>291</ele>
        <time>2016-09-08T10:13:11Z</time>
      </trkpt>
      <trkpt lat="45.94336" lon="4.9998">
        <ele>290</ele>
        <time>2016-09-08T10:13:12Z</time>
      </trkpt>
      <trkpt lat="45.94339" lon="4.99974">
        <ele>290</ele>
        <time>2016-09-08T10:13:13Z</time>
      </trkpt>
      <trkpt lat="45.94341" lon="4.99969">
        <ele>290</ele>
        <time>2016-09-08T10:13:14Z</time>
      </trkpt>
      <trkpt lat="45.94344" lon="4.99963">
        <ele>290</ele>
        <time>2016-09-08T10:13:15Z</time>
      </trkpt>
      <trkpt lat="45.94348" lon="4.99956">
        <ele>290</ele>
        <time>2016-09-08T10:13:16Z</time>
      </trkpt>
      <trkpt lat="45.9435" lon="4.99948">
        <ele>290</ele>
        <time>2016-09-08T10:13:17Z</time>
      </trkpt>
      <trkpt lat="45.94354" lon="4.99942">
        <ele>290</ele>
        <time>2016-09-08T10:13:18Z</time>
      </trkpt>
      <trkpt lat="45.94357" lon="4.99935">
        <ele>290</ele>
        <time>2016-09-08T10:13:19Z</time>
      </trkpt>
      <trkpt lat="45.9436" lon="4.99929">
        <ele>290</ele>
        <time>2016-09-08T10:13:20Z</time>
      </trkpt>
      <trkpt lat="45.94363" lon="4.99923">
        <ele>290</ele>
        <time>2016-09-08T10:13:21Z</time>
      </trkpt>
      <trkpt lat="45.94365" lon="4.99917">
        <ele>290</ele>
        <time>2016-09-08T10:13:22Z</time>
      </trkpt>
      <trkpt lat="45.94368" lon="4.99911">
        <ele>290</ele>
        <time>2016-09-08T10:13:23Z</time>
      </trkpt>
      <trkpt lat="45.9437" lon="4.99906">
        <ele>290</ele>
        <time>2016-09-08T10:13:24Z</time>
      </trkpt>
      <trkpt lat="45.94372" lon="4.999">
        <ele>290</ele>
        <time>2016-09-08T10:13:25Z</time>
      </trkpt>
      <trkpt lat="45.94375" lon="4.99895">
        <ele>290</ele>
        <time>2016-09-08T10:13:26Z</time>
      </trkpt>
      <trkpt lat="45.94378" lon="4.99888">
        <ele>290</ele>
        <time>2016-09-08T10:13:27Z</time>
      </trkpt>
      <trkpt lat="45.94381" lon="4.99882">
        <ele>290</ele>
        <time>2016-09-08T10:13:28Z</time>
      </trkpt>
      <trkpt lat="45.94383" lon="4.99875">
        <ele>290</ele>
        <time>2016-09-08T10:13:29Z</time>
      </trkpt>
      <trkpt lat="45.94387" lon="4.9987">
        <ele>290</ele>
        <time>2016-09-08T10:13:30Z</time>
      </trkpt>
      <trkpt lat="45.9439" lon="4.99863">
        <ele>290</ele>
        <time>2016-09-08T10:13:31Z</time>
      </trkpt>
      <trkpt lat="45.94392" lon="4.99856">
        <ele>290</ele>
        <time>2016-09-08T10:13:32Z</time>
      </trkpt>
      <trkpt lat="45.94395" lon="4.9985">
        <ele>290</ele>
        <time>2016-09-08T10:13:33Z</time>
      </trkpt>
      <trkpt lat="45.94398" lon="4.99842">
        <ele>289</ele>
        <time>2016-09-08T10:13:34Z</time>
      </trkpt>
      <trkpt lat="45.944" lon="4.99834">
        <ele>289</ele>
        <time>2016-09-08T10:13:35Z</time>
      </trkpt>
      <trkpt lat="45.94403" lon="4.99827">
        <ele>290</ele>
        <time>2016-09-08T10:13:36Z</time>
      </trkpt>
      <trkpt lat="45.94405" lon="4.99819">
        <ele>290</ele>
        <time>2016-09-08T10:13:37Z</time>
      </trkpt>
      <trkpt lat="45.94408" lon="4.99813">
        <ele>290</ele>
        <time>2016-09-08T10:13:38Z</time>
      </trkpt>
      <trkpt lat="45.94411" lon="4.99806">
        <ele>290</ele>
        <time>2016-09-08T10:13:39Z</time>
      </trkpt>
      <trkpt lat="45.94415" lon="4.99798">
        <ele>290</ele>
        <time>2016-09-08T10:13:40Z</time>
      </trkpt>
      <trkpt lat="45.94419" lon="4.99791">
        <ele>288</ele>
        <time>2016-09-08T10:13:41Z</time>
      </trkpt>
      <trkpt lat="45.94422" lon="4.99783">
        <ele>288</ele>
        <time>2016-09-08T10:13:42Z</time>
      </trkpt>
      <trkpt lat="45.94426" lon="4.99775">
        <ele>288</ele>
        <time>2016-09-08T10:13:43Z</time>
      </trkpt>
      <trkpt lat="45.94429" lon="4.99767">
        <ele>288</ele>
        <time>2016-09-08T10:13:44Z</time>
      </trkpt>
      <trkpt lat="45.94433" lon="4.99759">
        <ele>288</ele>
        <time>2016-09-08T10:13:45Z</time>
      </trkpt>
      <trkpt lat="45.94436" lon="4.9975">
        <ele>289</ele>
        <time>2016-09-08T10:13:46Z</time>
      </trkpt>
      <trkpt lat="45.94439" lon="4.9974">
        <ele>289</ele>
        <time>2016-09-08T10:13:47Z</time>
      </trkpt>
      <trkpt lat="45.94442" lon="4.99731">
        <ele>289</ele>
        <time>2016-09-08T10:13:48Z</time>
      </trkpt>
      <trkpt lat="45.94445" lon="4.99723">
        <ele>289</ele>
        <time>2016-09-08T10:13:49Z</time>
      </trkpt>
      <trkpt lat="45.94448" lon="4.99715">
        <ele>289</ele>
        <time>2016-09-08T10:13:50Z</time>
      </trkpt>
      <trkpt lat="45.9445" lon="4.99707">
        <ele>289</ele>
        <time>2016-09-08T10:13:51Z</time>
      </trkpt>
      <trkpt lat="45.94453" lon="4.99699">
        <ele>289</ele>
        <time>2016-09-08T10:13:52Z</time>
      </trkpt>
      <trkpt lat="45.94455" lon="4.99692">
        <ele>289</ele>
        <time>2016-09-08T10:13:53Z</time>
      </trkpt>
      <trkpt lat="45.94457" lon="4.99684">
        <ele>289</ele>
        <time>2016-09-08T10:13:54Z</time>
      </trkpt>
      <trkpt lat="45.9446" lon="4.99677">
        <ele>289</ele>
        <time>2016-09-08T10:13:55Z</time>
      </trkpt>
      <trkpt lat="45.94462" lon="4.99669">
        <ele>289</ele>
        <time>2016-09-08T10:13:56Z</time>
      </trkpt>
      <trkpt lat="45.94464" lon="4.99662">
        <ele>290</ele>
        <time>2016-09-08T10:13:57Z</time>
      </trkpt>
      <trkpt lat="45.94467" lon="4.99655">
        <ele>289</ele>
        <time>2016-09-08T10:13:58Z</time>
      </trkpt>
      <trkpt lat="45.9447" lon="4.99647">
        <ele>289</ele>
        <time>2016-09-08T10:13:59Z</time>
      </trkpt>
      <trkpt lat="45.94472" lon="4.99639">
        <ele>289</ele>
        <time>2016-09-08T10:14:00Z</time>
      </trkpt>
      <trkpt lat="45.94474" lon="4.9963">
        <ele>289</ele>
        <time>2016-09-08T10:14:01Z</time>
      </trkpt>
      <trkpt lat="45.94476" lon="4.99622">
        <ele>289</ele>
        <time>2016-09-08T10:14:02Z</time>
      </trkpt>
      <trkpt lat="45.94479" lon="4.99613">
        <ele>289</ele>
        <time>2016-09-08T10:14:03Z</time>
      </trkpt>
      <trkpt lat="45.94481" lon="4.99605">
        <ele>289</ele>
        <time>2016-09-08T10:14:04Z</time>
      </trkpt>
      <trkpt lat="45.94483" lon="4.99597">
        <ele>289</ele>
        <time>2016-09-08T10:14:05Z</time>
      </trkpt>
      <trkpt lat="45.94486" lon="4.99588">
        <ele>289</ele>
        <time>2016-09-08T10:14:06Z</time>
      </trkpt>
      <trkpt lat="45.94488" lon="4.99581">
        <ele>288</ele>
        <time>2016-09-08T10:14:07Z</time>
      </trkpt>
      <trkpt lat="45.9449" lon="4.99573">
        <ele>288</ele>
        <time>2016-09-08T10:14:08Z</time>
      </trkpt>
      <trkpt lat="45.94492" lon="4.99566">
        <ele>288</ele>
        <time>2016-09-08T10:14:09Z</time>
      </trkpt>
      <trkpt lat="45.94494" lon="4.99559">
        <ele>288</ele>
        <time>2016-09-08T10:14:10Z</time>
      </trkpt>
      <trkpt lat="45.94497" lon="4.99552">
        <ele>288</ele>
        <time>2016-09-08T10:14:11Z</time>
      </trkpt>
      <trkpt lat="45.94499" lon="4.99545">
        <ele>288</ele>
        <time>2016-09-08T10:14:12Z</time>
      </trkpt>
      <trkpt lat="45.94501" lon="4.99538">
        <ele>287</ele>
        <time>2016-09-08T10:14:13Z</time>
      </trkpt>
      <trkpt lat="45.94504" lon="4.99531">
        <ele>287</ele>
        <time>2016-09-08T10:14:14Z</time>
      </trkpt>
      <trkpt lat="45.94506" lon="4.99523">
        <ele>287</ele>
        <time>2016-09-08T10:14:15Z</time>
      </trkpt>
      <trkpt lat="45.94508" lon="4.99515">
        <ele>288</ele>
        <time>2016-09-08T10:14:16Z</time>
      </trkpt>
      <trkpt lat="45.94511" lon="4.99506">
        <ele>288</ele>
        <time>2016-09-08T10:14:17Z</time>
      </trkpt>
      <trkpt lat="45.94513" lon="4.99498">
        <ele>288</ele>
        <time>2016-09-08T10:14:18Z</time>
      </trkpt>
      <trkpt lat="45.94515" lon="4.99489">
        <ele>288</ele>
        <time>2016-09-08T10:14:19Z</time>
      </trkpt>
      <trkpt lat="45.94517" lon="4.99481">
        <ele>288</ele>
        <time>2016-09-08T10:14:20Z</time>
      </trkpt>
      <trkpt lat="45.94519" lon="4.99473">
        <ele>288</ele>
        <time>2016-09-08T10:14:21Z</time>
      </trkpt>
      <trkpt lat="45.94521" lon="4.99465">
        <ele>288</ele>
        <time>2016-09-08T10:14:22Z</time>
      </trkpt>
      <trkpt lat="45.94523" lon="4.99458">
        <ele>288</ele>
        <time>2016-09-08T10:14:23Z</time>
      </trkpt>
      <trkpt lat="45.94525" lon="4.9945">
        <ele>288</ele>
        <time>2016-09-08T10:14:24Z</time>
      </trkpt>
      <trkpt lat="45.94527" lon="4.99443">
        <ele>288</ele>
        <time>2016-09-08T10:14:25Z</time>
      </trkpt>
      <trkpt lat="45.94529" lon="4.99436">
        <ele>288</ele>
        <time>2016-09-08T10:14:26Z</time>
      </trkpt>
      <trkpt lat="45.94531" lon="4.99428">
        <ele>288</ele>
        <time>2016-09-08T10:14:27Z</time>
      </trkpt>
      <trkpt lat="45.94533" lon="4.99421">
        <ele>288</ele>
        <time>2016-09-08T10:14:28Z</time>
      </trkpt>
      <trkpt lat="45.94535" lon="4.99414">
        <ele>288</ele>
        <time>2016-09-08T10:14:29Z</time>
      </trkpt>
      <trkpt lat="45.94537" lon="4.99407">
        <ele>288</ele>
        <time>2016-09-08T10:14:30Z</time>
      </trkpt>
      <trkpt lat="45.94539" lon="4.994">
        <ele>288</ele>
        <time>2016-09-08T10:14:31Z</time>
      </trkpt>
      <trkpt lat="45.94541" lon="4.99393">
        <ele>288</ele>
        <time>2016-09-08T10:14:32Z</time>
      </trkpt>
      <trkpt lat="45.94543" lon="4.99386">
        <ele>288</ele>
        <time>2016-09-08T10:14:33Z</time>
      </trkpt>
      <trkpt lat="45.94544" lon="4.99379">
        <ele>288</ele>
        <time>2016-09-08T10:14:34Z</time>
      </trkpt>
      <trkpt lat="45.94547" lon="4.99373">
        <ele>288</ele>
        <time>2016-09-08T10:14:35Z</time>
      </trkpt>
      <trkpt lat="45.9455" lon="4.99367">
        <ele>288</ele>
        <time>2016-09-08T10:14:36Z</time>
      </trkpt>
      <trkpt lat="45.94553" lon="4.99361">
        <ele>288</ele>
        <time>2016-09-08T10:14:37Z</time>
      </trkpt>
      <trkpt lat="45.94556" lon="4.99355">
        <ele>288</ele>
        <time>2016-09-08T10:14:38Z</time>
      </trkpt>
      <trkpt lat="45.9456" lon="4.99349">
        <ele>287</ele>
        <time>2016-09-08T10:14:39Z</time>
      </trkpt>
      <trkpt lat="45.94563" lon="4.99342">
        <ele>287</ele>
        <time>2016-09-08T10:14:40Z</time>
      </trkpt>
      <trkpt lat="45.94567" lon="4.99336">
        <ele>287</ele>
        <time>2016-09-08T10:14:41Z</time>
      </trkpt>
      <trkpt lat="45.94571" lon="4.99329">
        <ele>287</ele>
        <time>2016-09-08T10:14:42Z</time>
      </trkpt>
      <trkpt lat="45.94576" lon="4.99323">
        <ele>287</ele>
        <time>2016-09-08T10:14:43Z</time>
      </trkpt>
      <trkpt lat="45.9458" lon="4.99317">
        <ele>287</ele>
        <time>2016-09-08T10:14:44Z</time>
      </trkpt>
      <trkpt lat="45.94584" lon="4.9931">
        <ele>287</ele>
        <time>2016-09-08T10:14:45Z</time>
      </trkpt>
      <trkpt lat="45.94589" lon="4.99303">
        <ele>287</ele>
        <time>2016-09-08T10:14:46Z</time>
      </trkpt>
      <trkpt lat="45.94593" lon="4.99296">
        <ele>287</ele>
        <time>2016-09-08T10:14:47Z</time>
      </trkpt>
      <trkpt lat="45.94598" lon="4.9929">
        <ele>287</ele>
        <time>2016-09-08T10:14:48Z</time>
      </trkpt>
      <trkpt lat="45.94603" lon="4.99284">
        <ele>287</ele>
        <time>2016-09-08T10:14:49Z</time>
      </trkpt>
      <trkpt lat="45.94608" lon="4.99279">
        <ele>287</ele>
        <time>2016-09-08T10:14:50Z</time>
      </trkpt>
      <trkpt lat="45.94613" lon="4.99273">
        <ele>287</ele>
        <time>2016-09-08T10:14:51Z</time>
      </trkpt>
      <trkpt lat="45.94617" lon="4.99267">
        <ele>287</ele>
        <time>2016-09-08T10:14:52Z</time>
      </trkpt>
      <trkpt lat="45.94621" lon="4.99261">
        <ele>287</ele>
        <time>2016-09-08T10:14:53Z</time>
      </trkpt>
      <trkpt lat="45.94625" lon="4.99256">
        <ele>287</ele>
        <time>2016-09-08T10:14:54Z</time>
      </trkpt>
      <trkpt lat="45.94629" lon="4.9925">
        <ele>288</ele>
        <time>2016-09-08T10:14:55Z</time>
      </trkpt>
      <trkpt lat="45.94632" lon="4.99245">
        <ele>288</ele>
        <time>2016-09-08T10:14:56Z</time>
      </trkpt>
      <trkpt lat="45.94636" lon="4.9924">
        <ele>288</ele>
        <time>2016-09-08T10:14:57Z</time>
      </trkpt>
      <trkpt lat="45.9464" lon="4.99234">
        <ele>288</ele>
        <time>2016-09-08T10:14:58Z</time>
      </trkpt>
      <trkpt lat="45.94644" lon="4.99228">
        <ele>288</ele>
        <time>2016-09-08T10:14:59Z</time>
      </trkpt>
      <trkpt lat="45.94649" lon="4.99223">
        <ele>288</ele>
        <time>2016-09-08T10:15:00Z</time>
      </trkpt>
      <trkpt lat="45.94653" lon="4.99217">
        <ele>288</ele>
        <time>2016-09-08T10:15:01Z</time>
      </trkpt>
      <trkpt lat="45.94657" lon="4.9921">
        <ele>288</ele>
        <time>2016-09-08T10:15:02Z</time>
      </trkpt>
      <trkpt lat="45.94661" lon="4.99204">
        <ele>288</ele>
        <time>2016-09-08T10:15:03Z</time>
      </trkpt>
      <trkpt lat="45.94666" lon="4.99198">
        <ele>288</ele>
        <time>2016-09-08T10:15:04Z</time>
      </trkpt>
      <trkpt lat="45.94671" lon="4.99193">
        <ele>288</ele>
        <time>2016-09-08T10:15:05Z</time>
      </trkpt>
      <trkpt lat="45.94675" lon="4.99188">
        <ele>289</ele>
        <time>2016-09-08T10:15:06Z</time>
      </trkpt>
      <trkpt lat="45.9468" lon="4.99183">
        <ele>289</ele>
        <time>2016-09-08T10:15:07Z</time>
      </trkpt>
      <trkpt lat="45.94684" lon="4.99179">
        <ele>289</ele>
        <time>2016-09-08T10:15:08Z</time>
      </trkpt>
      <trkpt lat="45.94689" lon="4.99175">
        <ele>289</ele>
        <time>2016-09-08T10:15:09Z</time>
      </trkpt>
      <trkpt lat="45.94693" lon="4.99171">
        <ele>288</ele>
        <time>2016-09-08T10:15:10Z</time>
      </trkpt>
      <trkpt lat="45.94697" lon="4.99166">
        <ele>289</ele>
        <time>2016-09-08T10:15:11Z</time>
      </trkpt>
      <trkpt lat="45.94701" lon="4.99162">
        <ele>289</ele>
        <time>2016-09-08T10:15:12Z</time>
      </trkpt>
      <trkpt lat="45.94705" lon="4.99158">
        <ele>289</ele>
        <time>2016-09-08T10:15:13Z</time>
      </trkpt>
      <trkpt lat="45.94709" lon="4.99154">
        <ele>289</ele>
        <time>2016-09-08T10:15:14Z</time>
      </trkpt>
      <trkpt lat="45.94714" lon="4.9915">
        <ele>289</ele>
        <time>2016-09-08T10:15:15Z</time>
      </trkpt>
      <trkpt lat="45.94718" lon="4.99146">
        <ele>289</ele>
        <time>2016-09-08T10:15:16Z</time>
      </trkpt>
      <trkpt lat="45.94722" lon="4.99142">
        <ele>289</ele>
        <time>2016-09-08T10:15:17Z</time>
      </trkpt>
      <trkpt lat="45.94727" lon="4.99137">
        <ele>289</ele>
        <time>2016-09-08T10:15:18Z</time>
      </trkpt>
      <trkpt lat="45.94731" lon="4.99132">
        <ele>289</ele>
        <time>2016-09-08T10:15:19Z</time>
      </trkpt>
      <trkpt lat="45.94736" lon="4.99127">
        <ele>289</ele>
        <time>2016-09-08T10:15:20Z</time>
      </trkpt>
      <trkpt lat="45.9474" lon="4.99121">
        <ele>290</ele>
        <time>2016-09-08T10:15:21Z</time>
      </trkpt>
      <trkpt lat="45.94743" lon="4.99115">
        <ele>290</ele>
        <time>2016-09-08T10:15:22Z</time>
      </trkpt>
      <trkpt lat="45.94748" lon="4.9911">
        <ele>290</ele>
        <time>2016-09-08T10:15:23Z</time>
      </trkpt>
      <trkpt lat="45.94752" lon="4.99105">
        <ele>290</ele>
        <time>2016-09-08T10:15:24Z</time>
      </trkpt>
      <trkpt lat="45.94755" lon="4.991">
        <ele>290</ele>
        <time>2016-09-08T10:15:25Z</time>
      </trkpt>
      <trkpt lat="45.94759" lon="4.99095">
        <ele>290</ele>
        <time>2016-09-08T10:15:26Z</time>
      </trkpt>
      <trkpt lat="45.94762" lon="4.9909">
        <ele>290</ele>
        <time>2016-09-08T10:15:27Z</time>
      </trkpt>
      <trkpt lat="45.94765" lon="4.99085">
        <ele>290</ele>
        <time>2016-09-08T10:15:28Z</time>
      </trkpt>
      <trkpt lat="45.94768" lon="4.99079">
        <ele>291</ele>
        <time>2016-09-08T10:15:29Z</time>
      </trkpt>
      <trkpt lat="45.94771" lon="4.99074">
        <ele>291</ele>
        <time>2016-09-08T10:15:30Z</time>
      </trkpt>
      <trkpt lat="45.94774" lon="4.99068">
        <ele>291</ele>
        <time>2016-09-08T10:15:31Z</time>
      </trkpt>
      <trkpt lat="45.94778" lon="4.99062">
        <ele>291</ele>
        <time>2016-09-08T10:15:32Z</time>
      </trkpt>
      <trkpt lat="45.94781" lon="4.99057">
        <ele>291</ele>
        <time>2016-09-08T10:15:33Z</time>
      </trkpt>
      <trkpt lat="45.94784" lon="4.99051">
        <ele>291</ele>
        <time>2016-09-08T10:15:34Z</time>
      </trkpt>
      <trkpt lat="45.94787" lon="4.99046">
        <ele>291</ele>
        <time>2016-09-08T10:15:35Z</time>
      </trkpt>
      <trkpt lat="45.94791" lon="4.99035">
        <ele>291</ele>
        <time>2016-09-08T10:15:37Z</time>
      </trkpt>
      <trkpt lat="45.94793" lon="4.99029">
        <ele>291</ele>
        <time>2016-09-08T10:15:38Z</time>
      </trkpt>
      <trkpt lat="45.94795" lon="4.99017">
        <ele>291</ele>
        <time>2016-09-08T10:15:40Z</time>
      </trkpt>
      <trkpt lat="45.94796" lon="4.9901">
        <ele>291</ele>
        <time>2016-09-08T10:15:41Z</time>
      </trkpt>
      <trkpt lat="45.94796" lon="4.99004">
        <ele>291</ele>
        <time>2016-09-08T10:15:42Z</time>
      </trkpt>
      <trkpt lat="45.94796" lon="4.98997">
        <ele>291</ele>
        <time>2016-09-08T10:15:43Z</time>
      </trkpt>
      <trkpt lat="45.94797" lon="4.98989">
        <ele>291</ele>
        <time>2016-09-08T10:15:44Z</time>
      </trkpt>
      <trkpt lat="45.94797" lon="4.98981">
        <ele>291</ele>
        <time>2016-09-08T10:15:45Z</time>
      </trkpt>
      <trkpt lat="45.94798" lon="4.98973">
        <ele>291</ele>
        <time>2016-09-08T10:15:46Z</time>
      </trkpt>
      <trkpt lat="45.94798" lon="4.98966">
        <ele>291</ele>
        <time>2016-09-08T10:15:47Z</time>
      </trkpt>
      <trkpt lat="45.94798" lon="4.98958">
        <ele>292</ele>
        <time>2016-09-08T10:15:48Z</time>
      </trkpt>
      <trkpt lat="45.94799" lon="4.9895">
        <ele>292</ele>
        <time>2016-09-08T10:15:49Z</time>
      </trkpt>
      <trkpt lat="45.94799" lon="4.98943">
        <ele>292</ele>
        <time>2016-09-08T10:15:50Z</time>
      </trkpt>
      <trkpt lat="45.94799" lon="4.98935">
        <ele>292</ele>
        <time>2016-09-08T10:15:51Z</time>
      </trkpt>
      <trkpt lat="45.948" lon="4.98928">
        <ele>292</ele>
        <time>2016-09-08T10:15:52Z</time>
      </trkpt>
      <trkpt lat="45.948" lon="4.98921">
        <ele>292</ele>
        <time>2016-09-08T10:15:53Z</time>
      </trkpt>
      <trkpt lat="45.94801" lon="4.98908">
        <ele>293</ele>
        <time>2016-09-08T10:15:55Z</time>
      </trkpt>
      <trkpt lat="45.94802" lon="4.98902">
        <ele>293</ele>
        <time>2016-09-08T10:15:56Z</time>
      </trkpt>
      <trkpt lat="45.94803" lon="4.98891">
        <ele>293</ele>
        <time>2016-09-08T10:15:58Z</time>
      </trkpt>
      <trkpt lat="45.94804" lon="4.98885">
        <ele>293</ele>
        <time>2016-09-08T10:15:59Z</time>
      </trkpt>
      <trkpt lat="45.94805" lon="4.98878">
        <ele>293</ele>
        <time>2016-09-08T10:16:00Z</time>
      </trkpt>
      <trkpt lat="45.94806" lon="4.98871">
        <ele>293</ele>
        <time>2016-09-08T10:16:01Z</time>
      </trkpt>
      <trkpt lat="45.94808" lon="4.98864">
        <ele>293</ele>
        <time>2016-09-08T10:16:02Z</time>
      </trkpt>
      <trkpt lat="45.94809" lon="4.98857">
        <ele>293</ele>
        <time>2016-09-08T10:16:03Z</time>
      </trkpt>
      <trkpt lat="45.94809" lon="4.9885">
        <ele>293</ele>
        <time>2016-09-08T10:16:04Z</time>
      </trkpt>
      <trkpt lat="45.9481" lon="4.98844">
        <ele>294</ele>
        <time>2016-09-08T10:16:05Z</time>
      </trkpt>
      <trkpt lat="45.9481" lon="4.98837">
        <ele>294</ele>
        <time>2016-09-08T10:16:06Z</time>
      </trkpt>
      <trkpt lat="45.94811" lon="4.98831">
        <ele>294</ele>
        <time>2016-09-08T10:16:07Z</time>
      </trkpt>
      <trkpt lat="45.94812" lon="4.98824">
        <ele>294</ele>
        <time>2016-09-08T10:16:08Z</time>
      </trkpt>
      <trkpt lat="45.94812" lon="4.98818">
        <ele>294</ele>
        <time>2016-09-08T10:16:09Z</time>
      </trkpt>
      <trkpt lat="45.94813" lon="4.98811">
        <ele>294</ele>
        <time>2016-09-08T10:16:10Z</time>
      </trkpt>
      <trkpt lat="45.94814" lon="4.98804">
        <ele>294</ele>
        <time>2016-09-08T10:16:11Z</time>
      </trkpt>
      <trkpt lat="45.94814" lon="4.98797">
        <ele>294</ele>
        <time>2016-09-08T10:16:12Z</time>
      </trkpt>
      <trkpt lat="45.94814" lon="4.98791">
        <ele>294</ele>
        <time>2016-09-08T10:16:13Z</time>
      </trkpt>
      <trkpt lat="45.94815" lon="4.98784">
        <ele>294</ele>
        <time>2016-09-08T10:16:14Z</time>
      </trkpt>
      <trkpt lat="45.94815" lon="4.98777">
        <ele>294</ele>
        <time>2016-09-08T10:16:15Z</time>
      </trkpt>
      <trkpt lat="45.94817" lon="4.98771">
        <ele>294</ele>
        <time>2016-09-08T10:16:16Z</time>
      </trkpt>
      <trkpt lat="45.94817" lon="4.98764">
        <ele>294</ele>
        <time>2016-09-08T10:16:17Z</time>
      </trkpt>
      <trkpt lat="45.94819" lon="4.98752">
        <ele>294</ele>
        <time>2016-09-08T10:16:19Z</time>
      </trkpt>
      <trkpt lat="45.9482" lon="4.98745">
        <ele>294</ele>
        <time>2016-09-08T10:16:20Z</time>
      </trkpt>
      <trkpt lat="45.94821" lon="4.98739">
        <ele>294</ele>
        <time>2016-09-08T10:16:21Z</time>
      </trkpt>
      <trkpt lat="45.94823" lon="4.98731">
        <ele>294</ele>
        <time>2016-09-08T10:16:22Z</time>
      </trkpt>
      <trkpt lat="45.94824" lon="4.98724">
        <ele>294</ele>
        <time>2016-09-08T10:16:23Z</time>
      </trkpt>
      <trkpt lat="45.94826" lon="4.98718">
        <ele>294</ele>
        <time>2016-09-08T10:16:24Z</time>
      </trkpt>
      <trkpt lat="45.94831" lon="4.98708">
        <ele>294</ele>
        <time>2016-09-08T10:16:26Z</time>
      </trkpt>
      <trkpt lat="45.94834" lon="4.98703">
        <ele>294</ele>
        <time>2016-09-08T10:16:27Z</time>
      </trkpt>
      <trkpt lat="45.94836" lon="4.98692">
        <ele>294</ele>
        <time>2016-09-08T10:16:29Z</time>
      </trkpt>
      <trkpt lat="45.94836" lon="4.98687">
        <ele>294</ele>
        <time>2016-09-08T10:16:30Z</time>
      </trkpt>
      <trkpt lat="45.94838" lon="4.98676">
        <ele>294</ele>
        <time>2016-09-08T10:16:32Z</time>
      </trkpt>
      <trkpt lat="45.94839" lon="4.98672">
        <ele>294</ele>
        <time>2016-09-08T10:16:33Z</time>
      </trkpt>
      <trkpt lat="45.9484" lon="4.98662">
        <ele>294</ele>
        <time>2016-09-08T10:16:35Z</time>
      </trkpt>
      <trkpt lat="45.94841" lon="4.98657">
        <ele>294</ele>
        <time>2016-09-08T10:16:36Z</time>
      </trkpt>
      <trkpt lat="45.94844" lon="4.98647">
        <ele>293</ele>
        <time>2016-09-08T10:16:38Z</time>
      </trkpt>
      <trkpt lat="45.94845" lon="4.98642">
        <ele>293</ele>
        <time>2016-09-08T10:16:39Z</time>
      </trkpt>
      <trkpt lat="45.94851" lon="4.98635">
        <ele>293</ele>
        <time>2016-09-08T10:16:41Z</time>
      </trkpt>
      <trkpt lat="45.94854" lon="4.98633">
        <ele>293</ele>
        <time>2016-09-08T10:16:42Z</time>
      </trkpt>
      <trkpt lat="45.94861" lon="4.9863">
        <ele>293</ele>
        <time>2016-09-08T10:16:44Z</time>
      </trkpt>
      <trkpt lat="45.94864" lon="4.98629">
        <ele>293</ele>
        <time>2016-09-08T10:16:45Z</time>
      </trkpt>
      <trkpt lat="45.94871" lon="4.98629">
        <ele>293</ele>
        <time>2016-09-08T10:16:48Z</time>
      </trkpt>
      <trkpt lat="45.94871" lon="4.98628">
        <ele>293</ele>
        <time>2016-09-08T10:16:49Z</time>
      </trkpt>
      <trkpt lat="45.94872" lon="4.98627">
        <ele>293</ele>
        <time>2016-09-08T10:17:20Z</time>
      </trkpt>
      <trkpt lat="45.94872" lon="4.98626">
        <ele>293</ele>
        <time>2016-09-08T10:17:21Z</time>
      </trkpt>
      <trkpt lat="45.94879" lon="4.98619">
        <ele>293</ele>
        <time>2016-09-08T10:17:25Z</time>
      </trkpt>
      <trkpt lat="45.94881" lon="4.98615">
        <ele>293</ele>
        <time>2016-09-08T10:17:26Z</time>
      </trkpt>
      <trkpt lat="45.94886" lon="4.98607">
        <ele>293</ele>
        <time>2016-09-08T10:17:28Z</time>
      </trkpt>
      <trkpt lat="45.94889" lon="4.98603">
        <ele>293</ele>
        <time>2016-09-08T10:17:29Z</time>
      </trkpt>
      <trkpt lat="45.94892" lon="4.98598">
        <ele>292</ele>
        <time>2016-09-08T10:17:30Z</time>
      </trkpt>
      <trkpt lat="45.94895" lon="4.98592">
        <ele>292</ele>
        <time>2016-09-08T10:17:31Z</time>
      </trkpt>
      <trkpt lat="45.94898" lon="4.98585">
        <ele>292</ele>
        <time>2016-09-08T10:17:32Z</time>
      </trkpt>
      <trkpt lat="45.94901" lon="4.98579">
        <ele>292</ele>
        <time>2016-09-08T10:17:33Z</time>
      </trkpt>
      <trkpt lat="45.94903" lon="4.98573">
        <ele>292</ele>
        <time>2016-09-08T10:17:34Z</time>
      </trkpt>
      <trkpt lat="45.94906" lon="4.98567">
        <ele>292</ele>
        <time>2016-09-08T10:17:35Z</time>
      </trkpt>
      <trkpt lat="45.94909" lon="4.98561">
        <ele>292</ele>
        <time>2016-09-08T10:17:36Z</time>
      </trkpt>
      <trkpt lat="45.94913" lon="4.98554">
        <ele>292</ele>
        <time>2016-09-08T10:17:37Z</time>
      </trkpt>
      <trkpt lat="45.94916" lon="4.98547">
        <ele>291</ele>
        <time>2016-09-08T10:17:38Z</time>
      </trkpt>
      <trkpt lat="45.94919" lon="4.9854">
        <ele>290</ele>
        <time>2016-09-08T10:17:39Z</time>
      </trkpt>
      <trkpt lat="45.94922" lon="4.98534">
        <ele>290</ele>
        <time>2016-09-08T10:17:40Z</time>
      </trkpt>
      <trkpt lat="45.94926" lon="4.98527">
        <ele>290</ele>
        <time>2016-09-08T10:17:41Z</time>
      </trkpt>
      <trkpt lat="45.94929" lon="4.98521">
        <ele>290</ele>
        <time>2016-09-08T10:17:42Z</time>
      </trkpt>
      <trkpt lat="45.94933" lon="4.98514">
        <ele>290</ele>
        <time>2016-09-08T10:17:43Z</time>
      </trkpt>
      <trkpt lat="45.94936" lon="4.98508">
        <ele>290</ele>
        <time>2016-09-08T10:17:44Z</time>
      </trkpt>
      <trkpt lat="45.94939" lon="4.98501">
        <ele>290</ele>
        <time>2016-09-08T10:17:45Z</time>
      </trkpt>
      <trkpt lat="45.94943" lon="4.98495">
        <ele>289</ele>
        <time>2016-09-08T10:17:46Z</time>
      </trkpt>
      <trkpt lat="45.94947" lon="4.98489">
        <ele>289</ele>
        <time>2016-09-08T10:17:47Z</time>
      </trkpt>
      <trkpt lat="45.9495" lon="4.98483">
        <ele>289</ele>
        <time>2016-09-08T10:17:48Z</time>
      </trkpt>
      <trkpt lat="45.94954" lon="4.98476">
        <ele>289</ele>
        <time>2016-09-08T10:17:49Z</time>
      </trkpt>
      <trkpt lat="45.94959" lon="4.98469">
        <ele>289</ele>
        <time>2016-09-08T10:17:50Z</time>
      </trkpt>
      <trkpt lat="45.94963" lon="4.98462">
        <ele>288</ele>
        <time>2016-09-08T10:17:51Z</time>
      </trkpt>
      <trkpt lat="45.94967" lon="4.98454">
        <ele>288</ele>
        <time>2016-09-08T10:17:52Z</time>
      </trkpt>
      <trkpt lat="45.94971" lon="4.98447">
        <ele>288</ele>
        <time>2016-09-08T10:17:53Z</time>
      </trkpt>
      <trkpt lat="45.94976" lon="4.98439">
        <ele>288</ele>
        <time>2016-09-08T10:17:54Z</time>
      </trkpt>
      <trkpt lat="45.9498" lon="4.98432">
        <ele>288</ele>
        <time>2016-09-08T10:17:55Z</time>
      </trkpt>
      <trkpt lat="45.94983" lon="4.98424">
        <ele>288</ele>
        <time>2016-09-08T10:17:56Z</time>
      </trkpt>
      <trkpt lat="45.94987" lon="4.98417">
        <ele>288</ele>
        <time>2016-09-08T10:17:57Z</time>
      </trkpt>
      <trkpt lat="45.9499" lon="4.9841">
        <ele>288</ele>
        <time>2016-09-08T10:17:58Z</time>
      </trkpt>
      <trkpt lat="45.94994" lon="4.98402">
        <ele>288</ele>
        <time>2016-09-08T10:17:59Z</time>
      </trkpt>
      <trkpt lat="45.94997" lon="4.98395">
        <ele>288</ele>
        <time>2016-09-08T10:18:00Z</time>
      </trkpt>
      <trkpt lat="45.95" lon="4.98387">
        <ele>287</ele>
        <time>2016-09-08T10:18:01Z</time>
      </trkpt>
      <trkpt lat="45.95004" lon="4.9838">
        <ele>287</ele>
        <time>2016-09-08T10:18:02Z</time>
      </trkpt>
      <trkpt lat="45.95008" lon="4.98373">
        <ele>287</ele>
        <time>2016-09-08T10:18:03Z</time>
      </trkpt>
      <trkpt lat="45.95011" lon="4.98366">
        <ele>287</ele>
        <time>2016-09-08T10:18:04Z</time>
      </trkpt>
      <trkpt lat="45.95015" lon="4.98358">
        <ele>287</ele>
        <time>2016-09-08T10:18:05Z</time>
      </trkpt>
      <trkpt lat="45.95018" lon="4.98351">
        <ele>287</ele>
        <time>2016-09-08T10:18:06Z</time>
      </trkpt>
      <trkpt lat="45.95022" lon="4.98344">
        <ele>287</ele>
        <time>2016-09-08T10:18:07Z</time>
      </trkpt>
      <trkpt lat="45.95026" lon="4.98337">
        <ele>287</ele>
        <time>2016-09-08T10:18:08Z</time>
      </trkpt>
      <trkpt lat="45.9503" lon="4.98329">
        <ele>287</ele>
        <time>2016-09-08T10:18:09Z</time>
      </trkpt>
      <trkpt lat="45.95034" lon="4.98321">
        <ele>287</ele>
        <time>2016-09-08T10:18:10Z</time>
      </trkpt>
      <trkpt lat="45.95037" lon="4.98313">
        <ele>287</ele>
        <time>2016-09-08T10:18:11Z</time>
      </trkpt>
      <trkpt lat="45.9504" lon="4.98305">
        <ele>287</ele>
        <time>2016-09-08T10:18:12Z</time>
      </trkpt>
      <trkpt lat="45.95043" lon="4.98298">
        <ele>287</ele>
        <time>2016-09-08T10:18:13Z</time>
      </trkpt>
      <trkpt lat="45.95046" lon="4.98291">
        <ele>287</ele>
        <time>2016-09-08T10:18:14Z</time>
      </trkpt>
      <trkpt lat="45.95049" lon="4.98284">
        <ele>287</ele>
        <time>2016-09-08T10:18:15Z</time>
      </trkpt>
      <trkpt lat="45.95052" lon="4.98277">
        <ele>287</ele>
        <time>2016-09-08T10:18:16Z</time>
      </trkpt>
      <trkpt lat="45.95054" lon="4.9827">
        <ele>287</ele>
        <time>2016-09-08T10:18:17Z</time>
      </trkpt>
      <trkpt lat="45.95057" lon="4.98262">
        <ele>287</ele>
        <time>2016-09-08T10:18:18Z</time>
      </trkpt>
      <trkpt lat="45.9506" lon="4.98254">
        <ele>287</ele>
        <time>2016-09-08T10:18:19Z</time>
      </trkpt>
      <trkpt lat="45.95063" lon="4.98246">
        <ele>287</ele>
        <time>2016-09-08T10:18:20Z</time>
      </trkpt>
      <trkpt lat="45.95066" lon="4.98238">
        <ele>287</ele>
        <time>2016-09-08T10:18:21Z</time>
      </trkpt>
      <trkpt lat="45.95069" lon="4.9823">
        <ele>287</ele>
        <time>2016-09-08T10:18:22Z</time>
      </trkpt>
      <trkpt lat="45.95071" lon="4.98222">
        <ele>287</ele>
        <time>2016-09-08T10:18:23Z</time>
      </trkpt>
      <trkpt lat="45.95074" lon="4.98215">
        <ele>287</ele>
        <time>2016-09-08T10:18:24Z</time>
      </trkpt>
      <trkpt lat="45.95076" lon="4.98208">
        <ele>288</ele>
        <time>2016-09-08T10:18:25Z</time>
      </trkpt>
      <trkpt lat="45.95078" lon="4.98202">
        <ele>288</ele>
        <time>2016-09-08T10:18:26Z</time>
      </trkpt>
      <trkpt lat="45.9508" lon="4.98195">
        <ele>288</ele>
        <time>2016-09-08T10:18:27Z</time>
      </trkpt>
      <trkpt lat="45.95082" lon="4.98189">
        <ele>288</ele>
        <time>2016-09-08T10:18:28Z</time>
      </trkpt>
      <trkpt lat="45.95083" lon="4.98183">
        <ele>288</ele>
        <time>2016-09-08T10:18:29Z</time>
      </trkpt>
      <trkpt lat="45.95086" lon="4.98171">
        <ele>288</ele>
        <time>2016-09-08T10:18:31Z</time>
      </trkpt>
      <trkpt lat="45.95088" lon="4.98164">
        <ele>288</ele>
        <time>2016-09-08T10:18:32Z</time>
      </trkpt>
      <trkpt lat="45.95089" lon="4.98157">
        <ele>287</ele>
        <time>2016-09-08T10:18:33Z</time>
      </trkpt>
      <trkpt lat="45.9509" lon="4.98151">
        <ele>287</ele>
        <time>2016-09-08T10:18:34Z</time>
      </trkpt>
      <trkpt lat="45.95091" lon="4.98139">
        <ele>287</ele>
        <time>2016-09-08T10:18:36Z</time>
      </trkpt>
      <trkpt lat="45.95092" lon="4.98132">
        <ele>287</ele>
        <time>2016-09-08T10:18:37Z</time>
      </trkpt>
      <trkpt lat="45.95093" lon="4.98124">
        <ele>287</ele>
        <time>2016-09-08T10:18:38Z</time>
      </trkpt>
      <trkpt lat="45.95094" lon="4.98117">
        <ele>287</ele>
        <time>2016-09-08T10:18:39Z</time>
      </trkpt>
      <trkpt lat="45.95095" lon="4.98109">
        <ele>287</ele>
        <time>2016-09-08T10:18:40Z</time>
      </trkpt>
      <trkpt lat="45.95096" lon="4.98102">
        <ele>287</ele>
        <time>2016-09-08T10:18:41Z</time>
      </trkpt>
      <trkpt lat="45.95098" lon="4.98093">
        <ele>287</ele>
        <time>2016-09-08T10:18:42Z</time>
      </trkpt>
      <trkpt lat="45.95098" lon="4.98085">
        <ele>287</ele>
        <time>2016-09-08T10:18:43Z</time>
      </trkpt>
      <trkpt lat="45.95099" lon="4.98076">
        <ele>287</ele>
        <time>2016-09-08T10:18:44Z</time>
      </trkpt>
      <trkpt lat="45.951" lon="4.98068">
        <ele>287</ele>
        <time>2016-09-08T10:18:45Z</time>
      </trkpt>
      <trkpt lat="45.95101" lon="4.98059">
        <ele>287</ele>
        <time>2016-09-08T10:18:46Z</time>
      </trkpt>
      <trkpt lat="45.95101" lon="4.98051">
        <ele>287</ele>
        <time>2016-09-08T10:18:47Z</time>
      </trkpt>
      <trkpt lat="45.95102" lon="4.98042">
        <ele>287</ele>
        <time>2016-09-08T10:18:48Z</time>
      </trkpt>
      <trkpt lat="45.95102" lon="4.98033">
        <ele>287</ele>
        <time>2016-09-08T10:18:49Z</time>
      </trkpt>
      <trkpt lat="45.95102" lon="4.98024">
        <ele>288</ele>
        <time>2016-09-08T10:18:50Z</time>
      </trkpt>
      <trkpt lat="45.95102" lon="4.98015">
        <ele>288</ele>
        <time>2016-09-08T10:18:51Z</time>
      </trkpt>
      <trkpt lat="45.95102" lon="4.98006">
        <ele>288</ele>
        <time>2016-09-08T10:18:52Z</time>
      </trkpt>
      <trkpt lat="45.95102" lon="4.97997">
        <ele>288</ele>
        <time>2016-09-08T10:18:53Z</time>
      </trkpt>
      <trkpt lat="45.95101" lon="4.97988">
        <ele>288</ele>
        <time>2016-09-08T10:18:54Z</time>
      </trkpt>
      <trkpt lat="45.95101" lon="4.9798">
        <ele>288</ele>
        <time>2016-09-08T10:18:55Z</time>
      </trkpt>
      <trkpt lat="45.951" lon="4.97971">
        <ele>288</ele>
        <time>2016-09-08T10:18:56Z</time>
      </trkpt>
      <trkpt lat="45.95099" lon="4.97963">
        <ele>287</ele>
        <time>2016-09-08T10:18:57Z</time>
      </trkpt>
      <trkpt lat="45.95098" lon="4.97955">
        <ele>287</ele>
        <time>2016-09-08T10:18:58Z</time>
      </trkpt>
      <trkpt lat="45.95096" lon="4.97947">
        <ele>287</ele>
        <time>2016-09-08T10:18:59Z</time>
      </trkpt>
      <trkpt lat="45.95095" lon="4.97939">
        <ele>287</ele>
        <time>2016-09-08T10:19:00Z</time>
      </trkpt>
      <trkpt lat="45.95094" lon="4.97932">
        <ele>288</ele>
        <time>2016-09-08T10:19:01Z</time>
      </trkpt>
      <trkpt lat="45.95093" lon="4.97923">
        <ele>288</ele>
        <time>2016-09-08T10:19:02Z</time>
      </trkpt>
      <trkpt lat="45.95091" lon="4.97915">
        <ele>288</ele>
        <time>2016-09-08T10:19:03Z</time>
      </trkpt>
      <trkpt lat="45.95089" lon="4.97906">
        <ele>287</ele>
        <time>2016-09-08T10:19:04Z</time>
      </trkpt>
      <trkpt lat="45.95087" lon="4.97898">
        <ele>287</ele>
        <time>2016-09-08T10:19:05Z</time>
      </trkpt>
      <trkpt lat="45.95085" lon="4.97889">
        <ele>287</ele>
        <time>2016-09-08T10:19:06Z</time>
      </trkpt>
      <trkpt lat="45.95084" lon="4.97881">
        <ele>287</ele>
        <time>2016-09-08T10:19:07Z</time>
      </trkpt>
      <trkpt lat="45.95082" lon="4.97873">
        <ele>287</ele>
        <time>2016-09-08T10:19:08Z</time>
      </trkpt>
      <trkpt lat="45.9508" lon="4.97865">
        <ele>287</ele>
        <time>2016-09-08T10:19:09Z</time>
      </trkpt>
      <trkpt lat="45.95078" lon="4.97857">
        <ele>287</ele>
        <time>2016-09-08T10:19:10Z</time>
      </trkpt>
      <trkpt lat="45.95077" lon="4.97848">
        <ele>287</ele>
        <time>2016-09-08T10:19:11Z</time>
      </trkpt>
      <trkpt lat="45.95075" lon="4.9784">
        <ele>287</ele>
        <time>2016-09-08T10:19:12Z</time>
      </trkpt>
      <trkpt lat="45.95074" lon="4.97832">
        <ele>287</ele>
        <time>2016-09-08T10:19:13Z</time>
      </trkpt>
      <trkpt lat="45.95073" lon="4.97823">
        <ele>287</ele>
        <time>2016-09-08T10:19:14Z</time>
      </trkpt>
      <trkpt lat="45.95071" lon="4.97815">
        <ele>287</ele>
        <time>2016-09-08T10:19:15Z</time>
      </trkpt>
      <trkpt lat="45.95071" lon="4.97806">
        <ele>287</ele>
        <time>2016-09-08T10:19:16Z</time>
      </trkpt>
      <trkpt lat="45.9507" lon="4.97797">
        <ele>287</ele>
        <time>2016-09-08T10:19:17Z</time>
      </trkpt>
      <trkpt lat="45.95069" lon="4.97789">
        <ele>287</ele>
        <time>2016-09-08T10:19:18Z</time>
      </trkpt>
      <trkpt lat="45.95069" lon="4.97781">
        <ele>287</ele>
        <time>2016-09-08T10:19:19Z</time>
      </trkpt>
      <trkpt lat="45.9507" lon="4.97773">
        <ele>287</ele>
        <time>2016-09-08T10:19:20Z</time>
      </trkpt>
      <trkpt lat="45.9507" lon="4.97766">
        <ele>287</ele>
        <time>2016-09-08T10:19:21Z</time>
      </trkpt>
      <trkpt lat="45.95071" lon="4.97758">
        <ele>287</ele>
        <time>2016-09-08T10:19:22Z</time>
      </trkpt>
      <trkpt lat="45.95071" lon="4.9775">
        <ele>287</ele>
        <time>2016-09-08T10:19:23Z</time>
      </trkpt>
      <trkpt lat="45.95072" lon="4.97741">
        <ele>287</ele>
        <time>2016-09-08T10:19:24Z</time>
      </trkpt>
      <trkpt lat="45.95073" lon="4.97733">
        <ele>287</ele>
        <time>2016-09-08T10:19:25Z</time>
      </trkpt>
      <trkpt lat="45.95072" lon="4.97724">
        <ele>287</ele>
        <time>2016-09-08T10:19:26Z</time>
      </trkpt>
      <trkpt lat="45.95071" lon="4.97714">
        <ele>287</ele>
        <time>2016-09-08T10:19:27Z</time>
      </trkpt>
      <trkpt lat="45.9507" lon="4.97705">
        <ele>286</ele>
        <time>2016-09-08T10:19:28Z</time>
      </trkpt>
      <trkpt lat="45.9507" lon="4.97696">
        <ele>286</ele>
        <time>2016-09-08T10:19:29Z</time>
      </trkpt>
      <trkpt lat="45.95071" lon="4.97688">
        <ele>286</ele>
        <time>2016-09-08T10:19:30Z</time>
      </trkpt>
      <trkpt lat="45.95072" lon="4.9768">
        <ele>286</ele>
        <time>2016-09-08T10:19:31Z</time>
      </trkpt>
      <trkpt lat="45.95073" lon="4.97672">
        <ele>286</ele>
        <time>2016-09-08T10:19:32Z</time>
      </trkpt>
      <trkpt lat="45.95074" lon="4.97664">
        <ele>286</ele>
        <time>2016-09-08T10:19:33Z</time>
      </trkpt>
      <trkpt lat="45.95074" lon="4.97656">
        <ele>286</ele>
        <time>2016-09-08T10:19:34Z</time>
      </trkpt>
      <trkpt lat="45.95074" lon="4.97647">
        <ele>286</ele>
        <time>2016-09-08T10:19:35Z</time>
      </trkpt>
      <trkpt lat="45.95075" lon="4.97639">
        <ele>285</ele>
        <time>2016-09-08T10:19:36Z</time>
      </trkpt>
      <trkpt lat="45.95076" lon="4.97631">
        <ele>285</ele>
        <time>2016-09-08T10:19:37Z</time>
      </trkpt>
      <trkpt lat="45.95077" lon="4.97622">
        <ele>285</ele>
        <time>2016-09-08T10:19:38Z</time>
      </trkpt>
      <trkpt lat="45.95078" lon="4.97614">
        <ele>285</ele>
        <time>2016-09-08T10:19:39Z</time>
      </trkpt>
      <trkpt lat="45.95078" lon="4.97605">
        <ele>285</ele>
        <time>2016-09-08T10:19:40Z</time>
      </trkpt>
      <trkpt lat="45.95079" lon="4.97596">
        <ele>285</ele>
        <time>2016-09-08T10:19:41Z</time>
      </trkpt>
      <trkpt lat="45.95079" lon="4.97588">
        <ele>285</ele>
        <time>2016-09-08T10:19:42Z</time>
      </trkpt>
      <trkpt lat="45.95079" lon="4.97579">
        <ele>285</ele>
        <time>2016-09-08T10:19:43Z</time>
      </trkpt>
      <trkpt lat="45.95079" lon="4.97571">
        <ele>285</ele>
        <time>2016-09-08T10:19:44Z</time>
      </trkpt>
      <trkpt lat="45.9508" lon="4.97562">
        <ele>285</ele>
        <time>2016-09-08T10:19:45Z</time>
      </trkpt>
      <trkpt lat="45.9508" lon="4.97553">
        <ele>285</ele>
        <time>2016-09-08T10:19:46Z</time>
      </trkpt>
      <trkpt lat="45.9508" lon="4.97544">
        <ele>285</ele>
        <time>2016-09-08T10:19:47Z</time>
      </trkpt>
      <trkpt lat="45.9508" lon="4.97536">
        <ele>286</ele>
        <time>2016-09-08T10:19:48Z</time>
      </trkpt>
      <trkpt lat="45.9508" lon="4.97528">
        <ele>286</ele>
        <time>2016-09-08T10:19:49Z</time>
      </trkpt>
      <trkpt lat="45.9508" lon="4.9752">
        <ele>286</ele>
        <time>2016-09-08T10:19:50Z</time>
      </trkpt>
      <trkpt lat="45.95079" lon="4.97512">
        <ele>286</ele>
        <time>2016-09-08T10:19:51Z</time>
      </trkpt>
      <trkpt lat="45.95079" lon="4.97504">
        <ele>286</ele>
        <time>2016-09-08T10:19:52Z</time>
      </trkpt>
      <trkpt lat="45.95079" lon="4.97496">
        <ele>286</ele>
        <time>2016-09-08T10:19:53Z</time>
      </trkpt>
      <trkpt lat="45.95078" lon="4.97488">
        <ele>286</ele>
        <time>2016-09-08T10:19:54Z</time>
      </trkpt>
      <trkpt lat="45.95078" lon="4.9748">
        <ele>287</ele>
        <time>2016-09-08T10:19:55Z</time>
      </trkpt>
      <trkpt lat="45.95078" lon="4.97473">
        <ele>287</ele>
        <time>2016-09-08T10:19:56Z</time>
      </trkpt>
      <trkpt lat="45.95077" lon="4.97465">
        <ele>287</ele>
        <time>2016-09-08T10:19:57Z</time>
      </trkpt>
      <trkpt lat="45.95076" lon="4.97457">
        <ele>287</ele>
        <time>2016-09-08T10:19:58Z</time>
      </trkpt>
      <trkpt lat="45.95076" lon="4.97449">
        <ele>287</ele>
        <time>2016-09-08T10:19:59Z</time>
      </trkpt>
      <trkpt lat="45.95075" lon="4.97441">
        <ele>287</ele>
        <time>2016-09-08T10:20:00Z</time>
      </trkpt>
      <trkpt lat="45.95075" lon="4.97432">
        <ele>287</ele>
        <time>2016-09-08T10:20:01Z</time>
      </trkpt>
      <trkpt lat="45.95074" lon="4.97424">
        <ele>287</ele>
        <time>2016-09-08T10:20:02Z</time>
      </trkpt>
      <trkpt lat="45.95074" lon="4.97414">
        <ele>287</ele>
        <time>2016-09-08T10:20:03Z</time>
      </trkpt>
      <trkpt lat="45.95073" lon="4.97405">
        <ele>287</ele>
        <time>2016-09-08T10:20:04Z</time>
      </trkpt>
      <trkpt lat="45.95073" lon="4.97397">
        <ele>287</ele>
        <time>2016-09-08T10:20:05Z</time>
      </trkpt>
      <trkpt lat="45.95072" lon="4.97388">
        <ele>287</ele>
        <time>2016-09-08T10:20:06Z</time>
      </trkpt>
      <trkpt lat="45.95072" lon="4.9738">
        <ele>287</ele>
        <time>2016-09-08T10:20:07Z</time>
      </trkpt>
      <trkpt lat="45.95072" lon="4.97372">
        <ele>286</ele>
        <time>2016-09-08T10:20:08Z</time>
      </trkpt>
      <trkpt lat="45.95071" lon="4.97364">
        <ele>286</ele>
        <time>2016-09-08T10:20:09Z</time>
      </trkpt>
      <trkpt lat="45.95071" lon="4.97356">
        <ele>286</ele>
        <time>2016-09-08T10:20:10Z</time>
      </trkpt>
      <trkpt lat="45.95071" lon="4.97349">
        <ele>286</ele>
        <time>2016-09-08T10:20:11Z</time>
      </trkpt>
      <trkpt lat="45.95071" lon="4.97341">
        <ele>286</ele>
        <time>2016-09-08T10:20:12Z</time>
      </trkpt>
      <trkpt lat="45.9507" lon="4.97333">
        <ele>286</ele>
        <time>2016-09-08T10:20:13Z</time>
      </trkpt>
      <trkpt lat="45.9507" lon="4.97325">
        <ele>286</ele>
        <time>2016-09-08T10:20:14Z</time>
      </trkpt>
      <trkpt lat="45.9507" lon="4.97316">
        <ele>286</ele>
        <time>2016-09-08T10:20:15Z</time>
      </trkpt>
      <trkpt lat="45.95069" lon="4.97307">
        <ele>286</ele>
        <time>2016-09-08T10:20:16Z</time>
      </trkpt>
      <trkpt lat="45.95069" lon="4.97298">
        <ele>285</ele>
        <time>2016-09-08T10:20:17Z</time>
      </trkpt>
      <trkpt lat="45.95068" lon="4.97289">
        <ele>285</ele>
        <time>2016-09-08T10:20:18Z</time>
      </trkpt>
      <trkpt lat="45.95067" lon="4.9728">
        <ele>285</ele>
        <time>2016-09-08T10:20:19Z</time>
      </trkpt>
      <trkpt lat="45.95067" lon="4.97271">
        <ele>285</ele>
        <time>2016-09-08T10:20:20Z</time>
      </trkpt>
      <trkpt lat="45.95066" lon="4.97262">
        <ele>286</ele>
        <time>2016-09-08T10:20:21Z</time>
      </trkpt>
      <trkpt lat="45.95066" lon="4.97254">
        <ele>286</ele>
        <time>2016-09-08T10:20:22Z</time>
      </trkpt>
      <trkpt lat="45.95066" lon="4.97245">
        <ele>285</ele>
        <time>2016-09-08T10:20:23Z</time>
      </trkpt>
      <trkpt lat="45.95065" lon="4.97237">
        <ele>285</ele>
        <time>2016-09-08T10:20:24Z</time>
      </trkpt>
      <trkpt lat="45.95065" lon="4.97228">
        <ele>285</ele>
        <time>2016-09-08T10:20:25Z</time>
      </trkpt>
      <trkpt lat="45.95065" lon="4.97219">
        <ele>285</ele>
        <time>2016-09-08T10:20:26Z</time>
      </trkpt>
      <trkpt lat="45.95064" lon="4.9721">
        <ele>285</ele>
        <time>2016-09-08T10:20:27Z</time>
      </trkpt>
      <trkpt lat="45.95064" lon="4.97201">
        <ele>285</ele>
        <time>2016-09-08T10:20:28Z</time>
      </trkpt>
      <trkpt lat="45.95064" lon="4.97193">
        <ele>285</ele>
        <time>2016-09-08T10:20:29Z</time>
      </trkpt>
      <trkpt lat="45.95064" lon="4.97184">
        <ele>285</ele>
        <time>2016-09-08T10:20:30Z</time>
      </trkpt>
      <trkpt lat="45.95064" lon="4.97175">
        <ele>285</ele>
        <time>2016-09-08T10:20:31Z</time>
      </trkpt>
      <trkpt lat="45.95063" lon="4.97167">
        <ele>285</ele>
        <time>2016-09-08T10:20:32Z</time>
      </trkpt>
      <trkpt lat="45.95063" lon="4.97158">
        <ele>285</ele>
        <time>2016-09-08T10:20:33Z</time>
      </trkpt>
      <trkpt lat="45.95062" lon="4.97149">
        <ele>285</ele>
        <time>2016-09-08T10:20:34Z</time>
      </trkpt>
      <trkpt lat="45.95061" lon="4.9714">
        <ele>285</ele>
        <time>2016-09-08T10:20:35Z</time>
      </trkpt>
      <trkpt lat="45.95061" lon="4.97132">
        <ele>285</ele>
        <time>2016-09-08T10:20:36Z</time>
      </trkpt>
      <trkpt lat="45.9506" lon="4.97123">
        <ele>285</ele>
        <time>2016-09-08T10:20:37Z</time>
      </trkpt>
      <trkpt lat="45.9506" lon="4.97115">
        <ele>285</ele>
        <time>2016-09-08T10:20:38Z</time>
      </trkpt>
      <trkpt lat="45.95059" lon="4.97107">
        <ele>285</ele>
        <time>2016-09-08T10:20:39Z</time>
      </trkpt>
      <trkpt lat="45.95059" lon="4.971">
        <ele>285</ele>
        <time>2016-09-08T10:20:40Z</time>
      </trkpt>
      <trkpt lat="45.95059" lon="4.97091">
        <ele>285</ele>
        <time>2016-09-08T10:20:41Z</time>
      </trkpt>
      <trkpt lat="45.95059" lon="4.97083">
        <ele>285</ele>
        <time>2016-09-08T10:20:42Z</time>
      </trkpt>
      <trkpt lat="45.95058" lon="4.97075">
        <ele>285</ele>
        <time>2016-09-08T10:20:43Z</time>
      </trkpt>
      <trkpt lat="45.95058" lon="4.97067">
        <ele>285</ele>
        <time>2016-09-08T10:20:44Z</time>
      </trkpt>
      <trkpt lat="45.95058" lon="4.97058">
        <ele>285</ele>
        <time>2016-09-08T10:20:45Z</time>
      </trkpt>
      <trkpt lat="45.95057" lon="4.97049">
        <ele>285</ele>
        <time>2016-09-08T10:20:46Z</time>
      </trkpt>
      <trkpt lat="45.95057" lon="4.9704">
        <ele>285</ele>
        <time>2016-09-08T10:20:47Z</time>
      </trkpt>
      <trkpt lat="45.95057" lon="4.97032">
        <ele>285</ele>
        <time>2016-09-08T10:20:48Z</time>
      </trkpt>
      <trkpt lat="45.95057" lon="4.97023">
        <ele>285</ele>
        <time>2016-09-08T10:20:49Z</time>
      </trkpt>
      <trkpt lat="45.95056" lon="4.97014">
        <ele>285</ele>
        <time>2016-09-08T10:20:50Z</time>
      </trkpt>
      <trkpt lat="45.95056" lon="4.97005">
        <ele>285</ele>
        <time>2016-09-08T10:20:51Z</time>
      </trkpt>
      <trkpt lat="45.95056" lon="4.96997">
        <ele>285</ele>
        <time>2016-09-08T10:20:52Z</time>
      </trkpt>
      <trkpt lat="45.95056" lon="4.96989">
        <ele>285</ele>
        <time>2016-09-08T10:20:53Z</time>
      </trkpt>
      <trkpt lat="45.95055" lon="4.96981">
        <ele>285</ele>
        <time>2016-09-08T10:20:54Z</time>
      </trkpt>
      <trkpt lat="45.95055" lon="4.96974">
        <ele>285</ele>
        <time>2016-09-08T10:20:55Z</time>
      </trkpt>
      <trkpt lat="45.95055" lon="4.96968">
        <ele>285</ele>
        <time>2016-09-08T10:20:56Z</time>
      </trkpt>
      <trkpt lat="45.95055" lon="4.96961">
        <ele>285</ele>
        <time>2016-09-08T10:20:57Z</time>
      </trkpt>
      <trkpt lat="45.95055" lon="4.96954">
        <ele>285</ele>
        <time>2016-09-08T10:20:58Z</time>
      </trkpt>
      <trkpt lat="45.95054" lon="4.96946">
        <ele>285</ele>
        <time>2016-09-08T10:20:59Z</time>
      </trkpt>
      <trkpt lat="45.95054" lon="4.96939">
        <ele>285</ele>
        <time>2016-09-08T10:21:00Z</time>
      </trkpt>
      <trkpt lat="45.95053" lon="4.96931">
        <ele>285</ele>
        <time>2016-09-08T10:21:01Z</time>
      </trkpt>
      <trkpt lat="45.95053" lon="4.96923">
        <ele>285</ele>
        <time>2016-09-08T10:21:02Z</time>
      </trkpt>
      <trkpt lat="45.95053" lon="4.96914">
        <ele>285</ele>
        <time>2016-09-08T10:21:03Z</time>
      </trkpt>
      <trkpt lat="45.95052" lon="4.96905">
        <ele>285</ele>
        <time>2016-09-08T10:21:04Z</time>
      </trkpt>
      <trkpt lat="45.95052" lon="4.96896">
        <ele>285</ele>
        <time>2016-09-08T10:21:05Z</time>
      </trkpt>
      <trkpt lat="45.95051" lon="4.96888">
        <ele>286</ele>
        <time>2016-09-08T10:21:06Z</time>
      </trkpt>
      <trkpt lat="45.95051" lon="4.96879">
        <ele>286</ele>
        <time>2016-09-08T10:21:07Z</time>
      </trkpt>
      <trkpt lat="45.9505" lon="4.9687">
        <ele>286</ele>
        <time>2016-09-08T10:21:08Z</time>
      </trkpt>
      <trkpt lat="45.9505" lon="4.96862">
        <ele>286</ele>
        <time>2016-09-08T10:21:09Z</time>
      </trkpt>
      <trkpt lat="45.9505" lon="4.96854">
        <ele>286</ele>
        <time>2016-09-08T10:21:10Z</time>
      </trkpt>
      <trkpt lat="45.9505" lon="4.96846">
        <ele>286</ele>
        <time>2016-09-08T10:21:11Z</time>
      </trkpt>
      <trkpt lat="45.95049" lon="4.96838">
        <ele>286</ele>
        <time>2016-09-08T10:21:12Z</time>
      </trkpt>
      <trkpt lat="45.95049" lon="4.96829">
        <ele>286</ele>
        <time>2016-09-08T10:21:13Z</time>
      </trkpt>
      <trkpt lat="45.95048" lon="4.96821">
        <ele>286</ele>
        <time>2016-09-08T10:21:14Z</time>
      </trkpt>
      <trkpt lat="45.95048" lon="4.96813">
        <ele>286</ele>
        <time>2016-09-08T10:21:15Z</time>
      </trkpt>
      <trkpt lat="45.95048" lon="4.96804">
        <ele>286</ele>
        <time>2016-09-08T10:21:16Z</time>
      </trkpt>
      <trkpt lat="45.95047" lon="4.96796">
        <ele>286</ele>
        <time>2016-09-08T10:21:17Z</time>
      </trkpt>
      <trkpt lat="45.95047" lon="4.96789">
        <ele>286</ele>
        <time>2016-09-08T10:21:18Z</time>
      </trkpt>
      <trkpt lat="45.95046" lon="4.96781">
        <ele>287</ele>
        <time>2016-09-08T10:21:19Z</time>
      </trkpt>
      <trkpt lat="45.95046" lon="4.96774">
        <ele>287</ele>
        <time>2016-09-08T10:21:20Z</time>
      </trkpt>
      <trkpt lat="45.95045" lon="4.96766">
        <ele>287</ele>
        <time>2016-09-08T10:21:21Z</time>
      </trkpt>
      <trkpt lat="45.95045" lon="4.96759">
        <ele>287</ele>
        <time>2016-09-08T10:21:22Z</time>
      </trkpt>
      <trkpt lat="45.95045" lon="4.96751">
        <ele>287</ele>
        <time>2016-09-08T10:21:23Z</time>
      </trkpt>
      <trkpt lat="45.95045" lon="4.96743">
        <ele>287</ele>
        <time>2016-09-08T10:21:24Z</time>
      </trkpt>
      <trkpt lat="45.95044" lon="4.96735">
        <ele>287</ele>
        <time>2016-09-08T10:21:25Z</time>
      </trkpt>
      <trkpt lat="45.95044" lon="4.96727">
        <ele>287</ele>
        <time>2016-09-08T10:21:26Z</time>
      </trkpt>
      <trkpt lat="45.95044" lon="4.96718">
        <ele>287</ele>
        <time>2016-09-08T10:21:27Z</time>
      </trkpt>
      <trkpt lat="45.95044" lon="4.9671">
        <ele>287</ele>
        <time>2016-09-08T10:21:28Z</time>
      </trkpt>
      <trkpt lat="45.95043" lon="4.96702">
        <ele>287</ele>
        <time>2016-09-08T10:21:29Z</time>
      </trkpt>
      <trkpt lat="45.95043" lon="4.96695">
        <ele>287</ele>
        <time>2016-09-08T10:21:30Z</time>
      </trkpt>
      <trkpt lat="45.95043" lon="4.96686">
        <ele>287</ele>
        <time>2016-09-08T10:21:31Z</time>
      </trkpt>
      <trkpt lat="45.95042" lon="4.96679">
        <ele>287</ele>
        <time>2016-09-08T10:21:32Z</time>
      </trkpt>
      <trkpt lat="45.95042" lon="4.96672">
        <ele>287</ele>
        <time>2016-09-08T10:21:33Z</time>
      </trkpt>
      <trkpt lat="45.95042" lon="4.96665">
        <ele>288</ele>
        <time>2016-09-08T10:21:34Z</time>
      </trkpt>
      <trkpt lat="45.95042" lon="4.96657">
        <ele>287</ele>
        <time>2016-09-08T10:21:35Z</time>
      </trkpt>
      <trkpt lat="45.95043" lon="4.96649">
        <ele>287</ele>
        <time>2016-09-08T10:21:36Z</time>
      </trkpt>
      <trkpt lat="45.95044" lon="4.96641">
        <ele>287</ele>
        <time>2016-09-08T10:21:37Z</time>
      </trkpt>
      <trkpt lat="45.95044" lon="4.96633">
        <ele>287</ele>
        <time>2016-09-08T10:21:38Z</time>
      </trkpt>
      <trkpt lat="45.95045" lon="4.96624">
        <ele>288</ele>
        <time>2016-09-08T10:21:39Z</time>
      </trkpt>
      <trkpt lat="45.95046" lon="4.96616">
        <ele>288</ele>
        <time>2016-09-08T10:21:40Z</time>
      </trkpt>
      <trkpt lat="45.95046" lon="4.96608">
        <ele>288</ele>
        <time>2016-09-08T10:21:41Z</time>
      </trkpt>
      <trkpt lat="45.95046" lon="4.966">
        <ele>288</ele>
        <time>2016-09-08T10:21:42Z</time>
      </trkpt>
      <trkpt lat="45.95047" lon="4.96592">
        <ele>288</ele>
        <time>2016-09-08T10:21:43Z</time>
      </trkpt>
      <trkpt lat="45.95048" lon="4.96584">
        <ele>288</ele>
        <time>2016-09-08T10:21:44Z</time>
      </trkpt>
      <trkpt lat="45.95049" lon="4.96577">
        <ele>287</ele>
        <time>2016-09-08T10:21:45Z</time>
      </trkpt>
      <trkpt lat="45.9505" lon="4.9657">
        <ele>287</ele>
        <time>2016-09-08T10:21:46Z</time>
      </trkpt>
      <trkpt lat="45.95052" lon="4.96563">
        <ele>287</ele>
        <time>2016-09-08T10:21:47Z</time>
      </trkpt>
      <trkpt lat="45.95055" lon="4.96557">
        <ele>287</ele>
        <time>2016-09-08T10:21:48Z</time>
      </trkpt>
      <trkpt lat="45.95056" lon="4.96549">
        <ele>287</ele>
        <time>2016-09-08T10:21:49Z</time>
      </trkpt>
      <trkpt lat="45.95058" lon="4.96542">
        <ele>287</ele>
        <time>2016-09-08T10:21:50Z</time>
      </trkpt>
      <trkpt lat="45.9506" lon="4.96535">
        <ele>287</ele>
        <time>2016-09-08T10:21:51Z</time>
      </trkpt>
      <trkpt lat="45.95062" lon="4.96527">
        <ele>287</ele>
        <time>2016-09-08T10:21:52Z</time>
      </trkpt>
      <trkpt lat="45.95064" lon="4.96519">
        <ele>287</ele>
        <time>2016-09-08T10:21:53Z</time>
      </trkpt>
      <trkpt lat="45.95067" lon="4.96511">
        <ele>288</ele>
        <time>2016-09-08T10:21:54Z</time>
      </trkpt>
      <trkpt lat="45.9507" lon="4.96504">
        <ele>288</ele>
        <time>2016-09-08T10:21:55Z</time>
      </trkpt>
      <trkpt lat="45.95073" lon="4.96497">
        <ele>287</ele>
        <time>2016-09-08T10:21:56Z</time>
      </trkpt>
      <trkpt lat="45.95075" lon="4.96491">
        <ele>287</ele>
        <time>2016-09-08T10:21:57Z</time>
      </trkpt>
      <trkpt lat="45.95077" lon="4.96484">
        <ele>287</ele>
        <time>2016-09-08T10:21:58Z</time>
      </trkpt>
      <trkpt lat="45.9508" lon="4.96477">
        <ele>287</ele>
        <time>2016-09-08T10:21:59Z</time>
      </trkpt>
      <trkpt lat="45.95082" lon="4.9647">
        <ele>287</ele>
        <time>2016-09-08T10:22:00Z</time>
      </trkpt>
      <trkpt lat="45.95085" lon="4.96463">
        <ele>287</ele>
        <time>2016-09-08T10:22:01Z</time>
      </trkpt>
      <trkpt lat="45.95088" lon="4.96455">
        <ele>287</ele>
        <time>2016-09-08T10:22:02Z</time>
      </trkpt>
      <trkpt lat="45.9509" lon="4.96448">
        <ele>287</ele>
        <time>2016-09-08T10:22:03Z</time>
      </trkpt>
      <trkpt lat="45.95093" lon="4.96441">
        <ele>287</ele>
        <time>2016-09-08T10:22:04Z</time>
      </trkpt>
      <trkpt lat="45.95096" lon="4.96435">
        <ele>287</ele>
        <time>2016-09-08T10:22:05Z</time>
      </trkpt>
      <trkpt lat="45.95098" lon="4.96429">
        <ele>286</ele>
        <time>2016-09-08T10:22:06Z</time>
      </trkpt>
      <trkpt lat="45.95101" lon="4.96422">
        <ele>286</ele>
        <time>2016-09-08T10:22:07Z</time>
      </trkpt>
      <trkpt lat="45.95104" lon="4.96414">
        <ele>286</ele>
        <time>2016-09-08T10:22:08Z</time>
      </trkpt>
      <trkpt lat="45.95107" lon="4.96406">
        <ele>286</ele>
        <time>2016-09-08T10:22:09Z</time>
      </trkpt>
      <trkpt lat="45.9511" lon="4.96399">
        <ele>286</ele>
        <time>2016-09-08T10:22:10Z</time>
      </trkpt>
      <trkpt lat="45.95113" lon="4.96391">
        <ele>286</ele>
        <time>2016-09-08T10:22:11Z</time>
      </trkpt>
      <trkpt lat="45.95116" lon="4.96383">
        <ele>286</ele>
        <time>2016-09-08T10:22:12Z</time>
      </trkpt>
      <trkpt lat="45.95118" lon="4.96375">
        <ele>286</ele>
        <time>2016-09-08T10:22:13Z</time>
      </trkpt>
      <trkpt lat="45.95121" lon="4.96367">
        <ele>286</ele>
        <time>2016-09-08T10:22:14Z</time>
      </trkpt>
      <trkpt lat="45.95125" lon="4.96359">
        <ele>286</ele>
        <time>2016-09-08T10:22:15Z</time>
      </trkpt>
      <trkpt lat="45.95128" lon="4.96351">
        <ele>286</ele>
        <time>2016-09-08T10:22:16Z</time>
      </trkpt>
      <trkpt lat="45.95131" lon="4.96344">
        <ele>286</ele>
        <time>2016-09-08T10:22:17Z</time>
      </trkpt>
      <trkpt lat="45.95134" lon="4.96336">
        <ele>286</ele>
        <time>2016-09-08T10:22:18Z</time>
      </trkpt>
      <trkpt lat="45.95137" lon="4.96329">
        <ele>286</ele>
        <time>2016-09-08T10:22:19Z</time>
      </trkpt>
      <trkpt lat="45.95139" lon="4.96323">
        <ele>286</ele>
        <time>2016-09-08T10:22:20Z</time>
      </trkpt>
      <trkpt lat="45.95142" lon="4.96316">
        <ele>286</ele>
        <time>2016-09-08T10:22:21Z</time>
      </trkpt>
      <trkpt lat="45.95145" lon="4.96309">
        <ele>286</ele>
        <time>2016-09-08T10:22:22Z</time>
      </trkpt>
      <trkpt lat="45.95148" lon="4.96301">
        <ele>285</ele>
        <time>2016-09-08T10:22:23Z</time>
      </trkpt>
      <trkpt lat="45.95151" lon="4.96293">
        <ele>285</ele>
        <time>2016-09-08T10:22:24Z</time>
      </trkpt>
      <trkpt lat="45.95154" lon="4.96285">
        <ele>285</ele>
        <time>2016-09-08T10:22:25Z</time>
      </trkpt>
      <trkpt lat="45.95156" lon="4.96277">
        <ele>285</ele>
        <time>2016-09-08T10:22:26Z</time>
      </trkpt>
      <trkpt lat="45.95159" lon="4.96269">
        <ele>286</ele>
        <time>2016-09-08T10:22:27Z</time>
      </trkpt>
      <trkpt lat="45.95161" lon="4.96261">
        <ele>286</ele>
        <time>2016-09-08T10:22:28Z</time>
      </trkpt>
      <trkpt lat="45.95163" lon="4.96253">
        <ele>286</ele>
        <time>2016-09-08T10:22:29Z</time>
      </trkpt>
      <trkpt lat="45.95164" lon="4.96245">
        <ele>286</ele>
        <time>2016-09-08T10:22:30Z</time>
      </trkpt>
      <trkpt lat="45.95165" lon="4.96237">
        <ele>286</ele>
        <time>2016-09-08T10:22:31Z</time>
      </trkpt>
      <trkpt lat="45.95166" lon="4.96229">
        <ele>286</ele>
        <time>2016-09-08T10:22:32Z</time>
      </trkpt>
      <trkpt lat="45.95167" lon="4.96221">
        <ele>286</ele>
        <time>2016-09-08T10:22:33Z</time>
      </trkpt>
      <trkpt lat="45.95168" lon="4.96213">
        <ele>286</ele>
        <time>2016-09-08T10:22:34Z</time>
      </trkpt>
      <trkpt lat="45.95168" lon="4.96205">
        <ele>286</ele>
        <time>2016-09-08T10:22:35Z</time>
      </trkpt>
      <trkpt lat="45.95169" lon="4.96198">
        <ele>286</ele>
        <time>2016-09-08T10:22:36Z</time>
      </trkpt>
      <trkpt lat="45.95169" lon="4.96191">
        <ele>286</ele>
        <time>2016-09-08T10:22:37Z</time>
      </trkpt>
      <trkpt lat="45.95169" lon="4.96184">
        <ele>286</ele>
        <time>2016-09-08T10:22:38Z</time>
      </trkpt>
      <trkpt lat="45.95169" lon="4.96176">
        <ele>286</ele>
        <time>2016-09-08T10:22:39Z</time>
      </trkpt>
      <trkpt lat="45.95168" lon="4.96167">
        <ele>286</ele>
        <time>2016-09-08T10:22:40Z</time>
      </trkpt>
      <trkpt lat="45.95168" lon="4.96158">
        <ele>286</ele>
        <time>2016-09-08T10:22:41Z</time>
      </trkpt>
      <trkpt lat="45.95168" lon="4.96149">
        <ele>286</ele>
        <time>2016-09-08T10:22:42Z</time>
      </trkpt>
      <trkpt lat="45.95168" lon="4.96139">
        <ele>286</ele>
        <time>2016-09-08T10:22:43Z</time>
      </trkpt>
      <trkpt lat="45.95168" lon="4.96129">
        <ele>286</ele>
        <time>2016-09-08T10:22:44Z</time>
      </trkpt>
      <trkpt lat="45.95168" lon="4.9612">
        <ele>286</ele>
        <time>2016-09-08T10:22:45Z</time>
      </trkpt>
      <trkpt lat="45.95168" lon="4.96111">
        <ele>286</ele>
        <time>2016-09-08T10:22:46Z</time>
      </trkpt>
      <trkpt lat="45.95168" lon="4.96101">
        <ele>286</ele>
        <time>2016-09-08T10:22:47Z</time>
      </trkpt>
      <trkpt lat="45.95168" lon="4.96092">
        <ele>286</ele>
        <time>2016-09-08T10:22:48Z</time>
      </trkpt>
      <trkpt lat="45.95167" lon="4.96083">
        <ele>286</ele>
        <time>2016-09-08T10:22:49Z</time>
      </trkpt>
      <trkpt lat="45.95165" lon="4.96075">
        <ele>286</ele>
        <time>2016-09-08T10:22:50Z</time>
      </trkpt>
      <trkpt lat="45.95163" lon="4.96067">
        <ele>286</ele>
        <time>2016-09-08T10:22:51Z</time>
      </trkpt>
      <trkpt lat="45.95161" lon="4.96059">
        <ele>285</ele>
        <time>2016-09-08T10:22:52Z</time>
      </trkpt>
      <trkpt lat="45.9516" lon="4.96051">
        <ele>285</ele>
        <time>2016-09-08T10:22:53Z</time>
      </trkpt>
      <trkpt lat="45.95158" lon="4.96043">
        <ele>285</ele>
        <time>2016-09-08T10:22:54Z</time>
      </trkpt>
      <trkpt lat="45.95156" lon="4.96035">
        <ele>285</ele>
        <time>2016-09-08T10:22:55Z</time>
      </trkpt>
      <trkpt lat="45.95154" lon="4.96026">
        <ele>285</ele>
        <time>2016-09-08T10:22:56Z</time>
      </trkpt>
      <trkpt lat="45.95152" lon="4.96017">
        <ele>285</ele>
        <time>2016-09-08T10:22:57Z</time>
      </trkpt>
      <trkpt lat="45.95151" lon="4.96008">
        <ele>285</ele>
        <time>2016-09-08T10:22:58Z</time>
      </trkpt>
      <trkpt lat="45.95149" lon="4.95998">
        <ele>285</ele>
        <time>2016-09-08T10:22:59Z</time>
      </trkpt>
      <trkpt lat="45.95147" lon="4.95989">
        <ele>285</ele>
        <time>2016-09-08T10:23:00Z</time>
      </trkpt>
      <trkpt lat="45.95145" lon="4.95979">
        <ele>285</ele>
        <time>2016-09-08T10:23:01Z</time>
      </trkpt>
      <trkpt lat="45.95143" lon="4.9597">
        <ele>285</ele>
        <time>2016-09-08T10:23:02Z</time>
      </trkpt>
      <trkpt lat="45.9514" lon="4.95962">
        <ele>285</ele>
        <time>2016-09-08T10:23:03Z</time>
      </trkpt>
      <trkpt lat="45.95138" lon="4.95952">
        <ele>284</ele>
        <time>2016-09-08T10:23:04Z</time>
      </trkpt>
      <trkpt lat="45.95137" lon="4.95943">
        <ele>284</ele>
        <time>2016-09-08T10:23:05Z</time>
      </trkpt>
      <trkpt lat="45.95135" lon="4.95935">
        <ele>284</ele>
        <time>2016-09-08T10:23:06Z</time>
      </trkpt>
      <trkpt lat="45.95134" lon="4.95926">
        <ele>284</ele>
        <time>2016-09-08T10:23:07Z</time>
      </trkpt>
      <trkpt lat="45.95132" lon="4.95918">
        <ele>284</ele>
        <time>2016-09-08T10:23:08Z</time>
      </trkpt>
      <trkpt lat="45.9513" lon="4.95909">
        <ele>284</ele>
        <time>2016-09-08T10:23:09Z</time>
      </trkpt>
      <trkpt lat="45.95128" lon="4.959">
        <ele>284</ele>
        <time>2016-09-08T10:23:10Z</time>
      </trkpt>
      <trkpt lat="45.95125" lon="4.95891">
        <ele>284</ele>
        <time>2016-09-08T10:23:11Z</time>
      </trkpt>
      <trkpt lat="45.95123" lon="4.95882">
        <ele>285</ele>
        <time>2016-09-08T10:23:12Z</time>
      </trkpt>
      <trkpt lat="45.95121" lon="4.95873">
        <ele>285</ele>
        <time>2016-09-08T10:23:13Z</time>
      </trkpt>
      <trkpt lat="45.95118" lon="4.95863">
        <ele>285</ele>
        <time>2016-09-08T10:23:14Z</time>
      </trkpt>
      <trkpt lat="45.95116" lon="4.95854">
        <ele>285</ele>
        <time>2016-09-08T10:23:15Z</time>
      </trkpt>
      <trkpt lat="45.95114" lon="4.95844">
        <ele>285</ele>
        <time>2016-09-08T10:23:16Z</time>
      </trkpt>
      <trkpt lat="45.95112" lon="4.95835">
        <ele>285</ele>
        <time>2016-09-08T10:23:17Z</time>
      </trkpt>
      <trkpt lat="45.95109" lon="4.95827">
        <ele>285</ele>
        <time>2016-09-08T10:23:18Z</time>
      </trkpt>
      <trkpt lat="45.95107" lon="4.95818">
        <ele>285</ele>
        <time>2016-09-08T10:23:19Z</time>
      </trkpt>
      <trkpt lat="45.95106" lon="4.9581">
        <ele>285</ele>
        <time>2016-09-08T10:23:20Z</time>
      </trkpt>
      <trkpt lat="45.95104" lon="4.95802">
        <ele>285</ele>
        <time>2016-09-08T10:23:21Z</time>
      </trkpt>
      <trkpt lat="45.95103" lon="4.95794">
        <ele>285</ele>
        <time>2016-09-08T10:23:22Z</time>
      </trkpt>
      <trkpt lat="45.95101" lon="4.95785">
        <ele>285</ele>
        <time>2016-09-08T10:23:23Z</time>
      </trkpt>
      <trkpt lat="45.95099" lon="4.95777">
        <ele>285</ele>
        <time>2016-09-08T10:23:24Z</time>
      </trkpt>
      <trkpt lat="45.95097" lon="4.95768">
        <ele>285</ele>
        <time>2016-09-08T10:23:25Z</time>
      </trkpt>
      <trkpt lat="45.95095" lon="4.95759">
        <ele>285</ele>
        <time>2016-09-08T10:23:26Z</time>
      </trkpt>
      <trkpt lat="45.95093" lon="4.9575">
        <ele>286</ele>
        <time>2016-09-08T10:23:27Z</time>
      </trkpt>
      <trkpt lat="45.95091" lon="4.95741">
        <ele>285</ele>
        <time>2016-09-08T10:23:28Z</time>
      </trkpt>
      <trkpt lat="45.95088" lon="4.95733">
        <ele>285</ele>
        <time>2016-09-08T10:23:29Z</time>
      </trkpt>
      <trkpt lat="45.95086" lon="4.95724">
        <ele>285</ele>
        <time>2016-09-08T10:23:30Z</time>
      </trkpt>
      <trkpt lat="45.95084" lon="4.95716">
        <ele>285</ele>
        <time>2016-09-08T10:23:31Z</time>
      </trkpt>
      <trkpt lat="45.95083" lon="4.95708">
        <ele>286</ele>
        <time>2016-09-08T10:23:32Z</time>
      </trkpt>
      <trkpt lat="45.95081" lon="4.95701">
        <ele>286</ele>
        <time>2016-09-08T10:23:33Z</time>
      </trkpt>
      <trkpt lat="45.95079" lon="4.95693">
        <ele>286</ele>
        <time>2016-09-08T10:23:34Z</time>
      </trkpt>
      <trkpt lat="45.95077" lon="4.95687">
        <ele>286</ele>
        <time>2016-09-08T10:23:35Z</time>
      </trkpt>
      <trkpt lat="45.95075" lon="4.95681">
        <ele>286</ele>
        <time>2016-09-08T10:23:36Z</time>
      </trkpt>
      <trkpt lat="45.95073" lon="4.95674">
        <ele>286</ele>
        <time>2016-09-08T10:23:37Z</time>
      </trkpt>
      <trkpt lat="45.9507" lon="4.95668">
        <ele>286</ele>
        <time>2016-09-08T10:23:38Z</time>
      </trkpt>
      <trkpt lat="45.95067" lon="4.9566">
        <ele>286</ele>
        <time>2016-09-08T10:23:39Z</time>
      </trkpt>
      <trkpt lat="45.95065" lon="4.95653">
        <ele>286</ele>
        <time>2016-09-08T10:23:40Z</time>
      </trkpt>
      <trkpt lat="45.95063" lon="4.95646">
        <ele>286</ele>
        <time>2016-09-08T10:23:41Z</time>
      </trkpt>
      <trkpt lat="45.9506" lon="4.95639">
        <ele>286</ele>
        <time>2016-09-08T10:23:42Z</time>
      </trkpt>
      <trkpt lat="45.95056" lon="4.95632">
        <ele>286</ele>
        <time>2016-09-08T10:23:43Z</time>
      </trkpt>
      <trkpt lat="45.95053" lon="4.95625">
        <ele>286</ele>
        <time>2016-09-08T10:23:44Z</time>
      </trkpt>
      <trkpt lat="45.95051" lon="4.95618">
        <ele>286</ele>
        <time>2016-09-08T10:23:45Z</time>
      </trkpt>
      <trkpt lat="45.95049" lon="4.9561">
        <ele>286</ele>
        <time>2016-09-08T10:23:46Z</time>
      </trkpt>
      <trkpt lat="45.95046" lon="4.95603">
        <ele>286</ele>
        <time>2016-09-08T10:23:47Z</time>
      </trkpt>
      <trkpt lat="45.95044" lon="4.95596">
        <ele>286</ele>
        <time>2016-09-08T10:23:48Z</time>
      </trkpt>
      <trkpt lat="45.95041" lon="4.95589">
        <ele>286</ele>
        <time>2016-09-08T10:23:49Z</time>
      </trkpt>
      <trkpt lat="45.95038" lon="4.95582">
        <ele>286</ele>
        <time>2016-09-08T10:23:50Z</time>
      </trkpt>
      <trkpt lat="45.95036" lon="4.95575">
        <ele>286</ele>
        <time>2016-09-08T10:23:51Z</time>
      </trkpt>
      <trkpt lat="45.95035" lon="4.95568">
        <ele>287</ele>
        <time>2016-09-08T10:23:52Z</time>
      </trkpt>
      <trkpt lat="45.95033" lon="4.9556">
        <ele>287</ele>
        <time>2016-09-08T10:23:53Z</time>
      </trkpt>
      <trkpt lat="45.95032" lon="4.95552">
        <ele>287</ele>
        <time>2016-09-08T10:23:54Z</time>
      </trkpt>
      <trkpt lat="45.9503" lon="4.95545">
        <ele>287</ele>
        <time>2016-09-08T10:23:55Z</time>
      </trkpt>
      <trkpt lat="45.95029" lon="4.95537">
        <ele>287</ele>
        <time>2016-09-08T10:23:56Z</time>
      </trkpt>
      <trkpt lat="45.95028" lon="4.9553">
        <ele>287</ele>
        <time>2016-09-08T10:23:57Z</time>
      </trkpt>
      <trkpt lat="45.95027" lon="4.95523">
        <ele>287</ele>
        <time>2016-09-08T10:23:58Z</time>
      </trkpt>
      <trkpt lat="45.95025" lon="4.95515">
        <ele>287</ele>
        <time>2016-09-08T10:23:59Z</time>
      </trkpt>
      <trkpt lat="45.95025" lon="4.95508">
        <ele>287</ele>
        <time>2016-09-08T10:24:00Z</time>
      </trkpt>
      <trkpt lat="45.95024" lon="4.95501">
        <ele>287</ele>
        <time>2016-09-08T10:24:01Z</time>
      </trkpt>
      <trkpt lat="45.95024" lon="4.95493">
        <ele>288</ele>
        <time>2016-09-08T10:24:02Z</time>
      </trkpt>
      <trkpt lat="45.95023" lon="4.95486">
        <ele>288</ele>
        <time>2016-09-08T10:24:03Z</time>
      </trkpt>
      <trkpt lat="45.95023" lon="4.95479">
        <ele>288</ele>
        <time>2016-09-08T10:24:04Z</time>
      </trkpt>
      <trkpt lat="45.95023" lon="4.95471">
        <ele>288</ele>
        <time>2016-09-08T10:24:05Z</time>
      </trkpt>
      <trkpt lat="45.95023" lon="4.95464">
        <ele>288</ele>
        <time>2016-09-08T10:24:06Z</time>
      </trkpt>
      <trkpt lat="45.95022" lon="4.95456">
        <ele>288</ele>
        <time>2016-09-08T10:24:07Z</time>
      </trkpt>
      <trkpt lat="45.95022" lon="4.95448">
        <ele>288</ele>
        <time>2016-09-08T10:24:08Z</time>
      </trkpt>
      <trkpt lat="45.95022" lon="4.95441">
        <ele>288</ele>
        <time>2016-09-08T10:24:09Z</time>
      </trkpt>
      <trkpt lat="45.95023" lon="4.95433">
        <ele>288</ele>
        <time>2016-09-08T10:24:10Z</time>
      </trkpt>
      <trkpt lat="45.95023" lon="4.95426">
        <ele>288</ele>
        <time>2016-09-08T10:24:11Z</time>
      </trkpt>
      <trkpt lat="45.95023" lon="4.95418">
        <ele>288</ele>
        <time>2016-09-08T10:24:12Z</time>
      </trkpt>
      <trkpt lat="45.95023" lon="4.95411">
        <ele>288</ele>
        <time>2016-09-08T10:24:13Z</time>
      </trkpt>
      <trkpt lat="45.95023" lon="4.95403">
        <ele>288</ele>
        <time>2016-09-08T10:24:14Z</time>
      </trkpt>
      <trkpt lat="45.95024" lon="4.95395">
        <ele>288</ele>
        <time>2016-09-08T10:24:15Z</time>
      </trkpt>
      <trkpt lat="45.95024" lon="4.95388">
        <ele>288</ele>
        <time>2016-09-08T10:24:16Z</time>
      </trkpt>
      <trkpt lat="45.95025" lon="4.95381">
        <ele>288</ele>
        <time>2016-09-08T10:24:17Z</time>
      </trkpt>
      <trkpt lat="45.95024" lon="4.95374">
        <ele>288</ele>
        <time>2016-09-08T10:24:18Z</time>
      </trkpt>
      <trkpt lat="45.95024" lon="4.95368">
        <ele>288</ele>
        <time>2016-09-08T10:24:19Z</time>
      </trkpt>
      <trkpt lat="45.95024" lon="4.95361">
        <ele>288</ele>
        <time>2016-09-08T10:24:20Z</time>
      </trkpt>
      <trkpt lat="45.95024" lon="4.95354">
        <ele>289</ele>
        <time>2016-09-08T10:24:21Z</time>
      </trkpt>
      <trkpt lat="45.95024" lon="4.95347">
        <ele>289</ele>
        <time>2016-09-08T10:24:22Z</time>
      </trkpt>
      <trkpt lat="45.95024" lon="4.95339">
        <ele>289</ele>
        <time>2016-09-08T10:24:23Z</time>
      </trkpt>
      <trkpt lat="45.95024" lon="4.95332">
        <ele>289</ele>
        <time>2016-09-08T10:24:24Z</time>
      </trkpt>
      <trkpt lat="45.95024" lon="4.95325">
        <ele>289</ele>
        <time>2016-09-08T10:24:25Z</time>
      </trkpt>
      <trkpt lat="45.95023" lon="4.95318">
        <ele>289</ele>
        <time>2016-09-08T10:24:26Z</time>
      </trkpt>
      <trkpt lat="45.95023" lon="4.95311">
        <ele>289</ele>
        <time>2016-09-08T10:24:27Z</time>
      </trkpt>
      <trkpt lat="45.95023" lon="4.95304">
        <ele>289</ele>
        <time>2016-09-08T10:24:28Z</time>
      </trkpt>
      <trkpt lat="45.95022" lon="4.95297">
        <ele>289</ele>
        <time>2016-09-08T10:24:29Z</time>
      </trkpt>
      <trkpt lat="45.95022" lon="4.9529">
        <ele>289</ele>
        <time>2016-09-08T10:24:30Z</time>
      </trkpt>
      <trkpt lat="45.95021" lon="4.95283">
        <ele>289</ele>
        <time>2016-09-08T10:24:31Z</time>
      </trkpt>
      <trkpt lat="45.95021" lon="4.95276">
        <ele>289</ele>
        <time>2016-09-08T10:24:32Z</time>
      </trkpt>
      <trkpt lat="45.9502" lon="4.95269">
        <ele>289</ele>
        <time>2016-09-08T10:24:33Z</time>
      </trkpt>
      <trkpt lat="45.9502" lon="4.95262">
        <ele>289</ele>
        <time>2016-09-08T10:24:34Z</time>
      </trkpt>
      <trkpt lat="45.95019" lon="4.95255">
        <ele>289</ele>
        <time>2016-09-08T10:24:35Z</time>
      </trkpt>
      <trkpt lat="45.95018" lon="4.95242">
        <ele>289</ele>
        <time>2016-09-08T10:24:37Z</time>
      </trkpt>
      <trkpt lat="45.95016" lon="4.95235">
        <ele>289</ele>
        <time>2016-09-08T10:24:38Z</time>
      </trkpt>
      <trkpt lat="45.95014" lon="4.95228">
        <ele>289</ele>
        <time>2016-09-08T10:24:39Z</time>
      </trkpt>
      <trkpt lat="45.95013" lon="4.9522">
        <ele>289</ele>
        <time>2016-09-08T10:24:40Z</time>
      </trkpt>
      <trkpt lat="45.95012" lon="4.95212">
        <ele>289</ele>
        <time>2016-09-08T10:24:41Z</time>
      </trkpt>
      <trkpt lat="45.95012" lon="4.95203">
        <ele>290</ele>
        <time>2016-09-08T10:24:42Z</time>
      </trkpt>
      <trkpt lat="45.95011" lon="4.95196">
        <ele>290</ele>
        <time>2016-09-08T10:24:43Z</time>
      </trkpt>
      <trkpt lat="45.95009" lon="4.95189">
        <ele>290</ele>
        <time>2016-09-08T10:24:44Z</time>
      </trkpt>
      <trkpt lat="45.95008" lon="4.95182">
        <ele>290</ele>
        <time>2016-09-08T10:24:45Z</time>
      </trkpt>
      <trkpt lat="45.95007" lon="4.95175">
        <ele>290</ele>
        <time>2016-09-08T10:24:46Z</time>
      </trkpt>
      <trkpt lat="45.95008" lon="4.95168">
        <ele>290</ele>
        <time>2016-09-08T10:24:47Z</time>
      </trkpt>
      <trkpt lat="45.95008" lon="4.9516">
        <ele>290</ele>
        <time>2016-09-08T10:24:48Z</time>
      </trkpt>
      <trkpt lat="45.95008" lon="4.95152">
        <ele>290</ele>
        <time>2016-09-08T10:24:49Z</time>
      </trkpt>
      <trkpt lat="45.95008" lon="4.95144">
        <ele>290</ele>
        <time>2016-09-08T10:24:50Z</time>
      </trkpt>
      <trkpt lat="45.95008" lon="4.95135">
        <ele>290</ele>
        <time>2016-09-08T10:24:51Z</time>
      </trkpt>
      <trkpt lat="45.95008" lon="4.95127">
        <ele>290</ele>
        <time>2016-09-08T10:24:52Z</time>
      </trkpt>
      <trkpt lat="45.95008" lon="4.95118">
        <ele>290</ele>
        <time>2016-09-08T10:24:53Z</time>
      </trkpt>
      <trkpt lat="45.95008" lon="4.9511">
        <ele>290</ele>
        <time>2016-09-08T10:24:54Z</time>
      </trkpt>
      <trkpt lat="45.95008" lon="4.95102">
        <ele>290</ele>
        <time>2016-09-08T10:24:55Z</time>
      </trkpt>
      <trkpt lat="45.95009" lon="4.95095">
        <ele>290</ele>
        <time>2016-09-08T10:24:56Z</time>
      </trkpt>
      <trkpt lat="45.9501" lon="4.95088">
        <ele>290</ele>
        <time>2016-09-08T10:24:57Z</time>
      </trkpt>
      <trkpt lat="45.9501" lon="4.95082">
        <ele>290</ele>
        <time>2016-09-08T10:24:58Z</time>
      </trkpt>
      <trkpt lat="45.9501" lon="4.95074">
        <ele>290</ele>
        <time>2016-09-08T10:24:59Z</time>
      </trkpt>
      <trkpt lat="45.9501" lon="4.95067">
        <ele>290</ele>
        <time>2016-09-08T10:25:00Z</time>
      </trkpt>
      <trkpt lat="45.9501" lon="4.95059">
        <ele>290</ele>
        <time>2016-09-08T10:25:01Z</time>
      </trkpt>
      <trkpt lat="45.95009" lon="4.95051">
        <ele>290</ele>
        <time>2016-09-08T10:25:02Z</time>
      </trkpt>
      <trkpt lat="45.95008" lon="4.95042">
        <ele>290</ele>
        <time>2016-09-08T10:25:03Z</time>
      </trkpt>
      <trkpt lat="45.95007" lon="4.95034">
        <ele>290</ele>
        <time>2016-09-08T10:25:04Z</time>
      </trkpt>
      <trkpt lat="45.95006" lon="4.95025">
        <ele>289</ele>
        <time>2016-09-08T10:25:05Z</time>
      </trkpt>
      <trkpt lat="45.95004" lon="4.95017">
        <ele>289</ele>
        <time>2016-09-08T10:25:06Z</time>
      </trkpt>
      <trkpt lat="45.95002" lon="4.95009">
        <ele>289</ele>
        <time>2016-09-08T10:25:07Z</time>
      </trkpt>
      <trkpt lat="45.95" lon="4.95001">
        <ele>289</ele>
        <time>2016-09-08T10:25:08Z</time>
      </trkpt>
      <trkpt lat="45.94998" lon="4.94993">
        <ele>289</ele>
        <time>2016-09-08T10:25:09Z</time>
      </trkpt>
      <trkpt lat="45.94998" lon="4.94985">
        <ele>289</ele>
        <time>2016-09-08T10:25:10Z</time>
      </trkpt>
      <trkpt lat="45.94997" lon="4.94975">
        <ele>289</ele>
        <time>2016-09-08T10:25:11Z</time>
      </trkpt>
      <trkpt lat="45.95" lon="4.94968">
        <ele>289</ele>
        <time>2016-09-08T10:25:12Z</time>
      </trkpt>
      <trkpt lat="45.95004" lon="4.94962">
        <ele>289</ele>
        <time>2016-09-08T10:25:13Z</time>
      </trkpt>
      <trkpt lat="45.95008" lon="4.94956">
        <ele>289</ele>
        <time>2016-09-08T10:25:14Z</time>
      </trkpt>
      <trkpt lat="45.95012" lon="4.9495">
        <ele>289</ele>
        <time>2016-09-08T10:25:15Z</time>
      </trkpt>
      <trkpt lat="45.95017" lon="4.94945">
        <ele>289</ele>
        <time>2016-09-08T10:25:16Z</time>
      </trkpt>
      <trkpt lat="45.95021" lon="4.9494">
        <ele>289</ele>
        <time>2016-09-08T10:25:17Z</time>
      </trkpt>
      <trkpt lat="45.95025" lon="4.94935">
        <ele>289</ele>
        <time>2016-09-08T10:25:18Z</time>
      </trkpt>
      <trkpt lat="45.9503" lon="4.9493">
        <ele>289</ele>
        <time>2016-09-08T10:25:19Z</time>
      </trkpt>
      <trkpt lat="45.95034" lon="4.94925">
        <ele>289</ele>
        <time>2016-09-08T10:25:20Z</time>
      </trkpt>
      <trkpt lat="45.95038" lon="4.9492">
        <ele>289</ele>
        <time>2016-09-08T10:25:21Z</time>
      </trkpt>
      <trkpt lat="45.95042" lon="4.94915">
        <ele>289</ele>
        <time>2016-09-08T10:25:22Z</time>
      </trkpt>
      <trkpt lat="45.95046" lon="4.9491">
        <ele>289</ele>
        <time>2016-09-08T10:25:23Z</time>
      </trkpt>
      <trkpt lat="45.95051" lon="4.94904">
        <ele>289</ele>
        <time>2016-09-08T10:25:24Z</time>
      </trkpt>
      <trkpt lat="45.95055" lon="4.94899">
        <ele>289</ele>
        <time>2016-09-08T10:25:25Z</time>
      </trkpt>
      <trkpt lat="45.9506" lon="4.94894">
        <ele>289</ele>
        <time>2016-09-08T10:25:26Z</time>
      </trkpt>
      <trkpt lat="45.95064" lon="4.94889">
        <ele>289</ele>
        <time>2016-09-08T10:25:27Z</time>
      </trkpt>
      <trkpt lat="45.95069" lon="4.94885">
        <ele>289</ele>
        <time>2016-09-08T10:25:28Z</time>
      </trkpt>
      <trkpt lat="45.95073" lon="4.9488">
        <ele>289</ele>
        <time>2016-09-08T10:25:29Z</time>
      </trkpt>
      <trkpt lat="45.95077" lon="4.94875">
        <ele>289</ele>
        <time>2016-09-08T10:25:30Z</time>
      </trkpt>
      <trkpt lat="45.95081" lon="4.9487">
        <ele>289</ele>
        <time>2016-09-08T10:25:31Z</time>
      </trkpt>
      <trkpt lat="45.95085" lon="4.94864">
        <ele>289</ele>
        <time>2016-09-08T10:25:32Z</time>
      </trkpt>
      <trkpt lat="45.95089" lon="4.94859">
        <ele>289</ele>
        <time>2016-09-08T10:25:33Z</time>
      </trkpt>
      <trkpt lat="45.95093" lon="4.94855">
        <ele>289</ele>
        <time>2016-09-08T10:25:34Z</time>
      </trkpt>
      <trkpt lat="45.95098" lon="4.9485">
        <ele>289</ele>
        <time>2016-09-08T10:25:35Z</time>
      </trkpt>
      <trkpt lat="45.95104" lon="4.94845">
        <ele>289</ele>
        <time>2016-09-08T10:25:36Z</time>
      </trkpt>
      <trkpt lat="45.95109" lon="4.9484">
        <ele>289</ele>
        <time>2016-09-08T10:25:37Z</time>
      </trkpt>
      <trkpt lat="45.95113" lon="4.94836">
        <ele>289</ele>
        <time>2016-09-08T10:25:38Z</time>
      </trkpt>
      <trkpt lat="45.95118" lon="4.94832">
        <ele>289</ele>
        <time>2016-09-08T10:25:39Z</time>
      </trkpt>
      <trkpt lat="45.95123" lon="4.94828">
        <ele>289</ele>
        <time>2016-09-08T10:25:40Z</time>
      </trkpt>
      <trkpt lat="45.95128" lon="4.94824">
        <ele>289</ele>
        <time>2016-09-08T10:25:41Z</time>
      </trkpt>
      <trkpt lat="45.95133" lon="4.94821">
        <ele>289</ele>
        <time>2016-09-08T10:25:42Z</time>
      </trkpt>
      <trkpt lat="45.95138" lon="4.94818">
        <ele>289</ele>
        <time>2016-09-08T10:25:43Z</time>
      </trkpt>
      <trkpt lat="45.95143" lon="4.94814">
        <ele>289</ele>
        <time>2016-09-08T10:25:44Z</time>
      </trkpt>
      <trkpt lat="45.95148" lon="4.94811">
        <ele>289</ele>
        <time>2016-09-08T10:25:45Z</time>
      </trkpt>
      <trkpt lat="45.95154" lon="4.94808">
        <ele>289</ele>
        <time>2016-09-08T10:25:46Z</time>
      </trkpt>
      <trkpt lat="45.95159" lon="4.94806">
        <ele>289</ele>
        <time>2016-09-08T10:25:47Z</time>
      </trkpt>
      <trkpt lat="45.95164" lon="4.94804">
        <ele>289</ele>
        <time>2016-09-08T10:25:48Z</time>
      </trkpt>
      <trkpt lat="45.95169" lon="4.94801">
        <ele>287</ele>
        <time>2016-09-08T10:25:49Z</time>
      </trkpt>
      <trkpt lat="45.95175" lon="4.94798">
        <ele>287</ele>
        <time>2016-09-08T10:25:50Z</time>
      </trkpt>
      <trkpt lat="45.9518" lon="4.94796">
        <ele>287</ele>
        <time>2016-09-08T10:25:51Z</time>
      </trkpt>
      <trkpt lat="45.95185" lon="4.94793">
        <ele>287</ele>
        <time>2016-09-08T10:25:52Z</time>
      </trkpt>
      <trkpt lat="45.9519" lon="4.94791">
        <ele>287</ele>
        <time>2016-09-08T10:25:53Z</time>
      </trkpt>
      <trkpt lat="45.95195" lon="4.94788">
        <ele>287</ele>
        <time>2016-09-08T10:25:54Z</time>
      </trkpt>
      <trkpt lat="45.952" lon="4.94783">
        <ele>287</ele>
        <time>2016-09-08T10:25:55Z</time>
      </trkpt>
      <trkpt lat="45.95203" lon="4.94777">
        <ele>287</ele>
        <time>2016-09-08T10:25:56Z</time>
      </trkpt>
      <trkpt lat="45.95205" lon="4.9477">
        <ele>287</ele>
        <time>2016-09-08T10:25:57Z</time>
      </trkpt>
      <trkpt lat="45.95205" lon="4.94763">
        <ele>287</ele>
        <time>2016-09-08T10:25:58Z</time>
      </trkpt>
      <trkpt lat="45.952" lon="4.94753">
        <ele>287</ele>
        <time>2016-09-08T10:26:00Z</time>
      </trkpt>
      <trkpt lat="45.95196" lon="4.94749">
        <ele>288</ele>
        <time>2016-09-08T10:26:01Z</time>
      </trkpt>
      <trkpt lat="45.95193" lon="4.94744">
        <ele>288</ele>
        <time>2016-09-08T10:26:02Z</time>
      </trkpt>
      <trkpt lat="45.95189" lon="4.94739">
        <ele>288</ele>
        <time>2016-09-08T10:26:03Z</time>
      </trkpt>
      <trkpt lat="45.95185" lon="4.94734">
        <ele>288</ele>
        <time>2016-09-08T10:26:04Z</time>
      </trkpt>
      <trkpt lat="45.9518" lon="4.94729">
        <ele>288</ele>
        <time>2016-09-08T10:26:05Z</time>
      </trkpt>
      <trkpt lat="45.95176" lon="4.94724">
        <ele>288</ele>
        <time>2016-09-08T10:26:06Z</time>
      </trkpt>
      <trkpt lat="45.95172" lon="4.94719">
        <ele>288</ele>
        <time>2016-09-08T10:26:07Z</time>
      </trkpt>
      <trkpt lat="45.95168" lon="4.94714">
        <ele>289</ele>
        <time>2016-09-08T10:26:08Z</time>
      </trkpt>
      <trkpt lat="45.95163" lon="4.94708">
        <ele>290</ele>
        <time>2016-09-08T10:26:09Z</time>
      </trkpt>
      <trkpt lat="45.95159" lon="4.94703">
        <ele>290</ele>
        <time>2016-09-08T10:26:10Z</time>
      </trkpt>
      <trkpt lat="45.95155" lon="4.94697">
        <ele>290</ele>
        <time>2016-09-08T10:26:11Z</time>
      </trkpt>
      <trkpt lat="45.95152" lon="4.94689">
        <ele>290</ele>
        <time>2016-09-08T10:26:12Z</time>
      </trkpt>
      <trkpt lat="45.95151" lon="4.94681">
        <ele>290</ele>
        <time>2016-09-08T10:26:13Z</time>
      </trkpt>
      <trkpt lat="45.95152" lon="4.94674">
        <ele>290</ele>
        <time>2016-09-08T10:26:14Z</time>
      </trkpt>
      <trkpt lat="45.95154" lon="4.94668">
        <ele>290</ele>
        <time>2016-09-08T10:26:15Z</time>
      </trkpt>
      <trkpt lat="45.95159" lon="4.94658">
        <ele>290</ele>
        <time>2016-09-08T10:26:17Z</time>
      </trkpt>
      <trkpt lat="45.95163" lon="4.94652">
        <ele>290</ele>
        <time>2016-09-08T10:26:18Z</time>
      </trkpt>
      <trkpt lat="45.95167" lon="4.94646">
        <ele>290</ele>
        <time>2016-09-08T10:26:19Z</time>
      </trkpt>
      <trkpt lat="45.9517" lon="4.9464">
        <ele>289</ele>
        <time>2016-09-08T10:26:20Z</time>
      </trkpt>
      <trkpt lat="45.95173" lon="4.94634">
        <ele>289</ele>
        <time>2016-09-08T10:26:21Z</time>
      </trkpt>
      <trkpt lat="45.95176" lon="4.94628">
        <ele>289</ele>
        <time>2016-09-08T10:26:22Z</time>
      </trkpt>
      <trkpt lat="45.95178" lon="4.94621">
        <ele>289</ele>
        <time>2016-09-08T10:26:23Z</time>
      </trkpt>
      <trkpt lat="45.9518" lon="4.94614">
        <ele>289</ele>
        <time>2016-09-08T10:26:24Z</time>
      </trkpt>
      <trkpt lat="45.95181" lon="4.94607">
        <ele>289</ele>
        <time>2016-09-08T10:26:25Z</time>
      </trkpt>
      <trkpt lat="45.95182" lon="4.94599">
        <ele>289</ele>
        <time>2016-09-08T10:26:26Z</time>
      </trkpt>
      <trkpt lat="45.95183" lon="4.94591">
        <ele>289</ele>
        <time>2016-09-08T10:26:27Z</time>
      </trkpt>
      <trkpt lat="45.95184" lon="4.94583">
        <ele>289</ele>
        <time>2016-09-08T10:26:28Z</time>
      </trkpt>
      <trkpt lat="45.95185" lon="4.94576">
        <ele>289</ele>
        <time>2016-09-08T10:26:29Z</time>
      </trkpt>
      <trkpt lat="45.95185" lon="4.94568">
        <ele>289</ele>
        <time>2016-09-08T10:26:30Z</time>
      </trkpt>
      <trkpt lat="45.95186" lon="4.9456">
        <ele>289</ele>
        <time>2016-09-08T10:26:31Z</time>
      </trkpt>
      <trkpt lat="45.95186" lon="4.94552">
        <ele>289</ele>
        <time>2016-09-08T10:26:32Z</time>
      </trkpt>
      <trkpt lat="45.95187" lon="4.94545">
        <ele>289</ele>
        <time>2016-09-08T10:26:33Z</time>
      </trkpt>
      <trkpt lat="45.95188" lon="4.94537">
        <ele>289</ele>
        <time>2016-09-08T10:26:34Z</time>
      </trkpt>
      <trkpt lat="45.95189" lon="4.94529">
        <ele>289</ele>
        <time>2016-09-08T10:26:35Z</time>
      </trkpt>
      <trkpt lat="45.9519" lon="4.94523">
        <ele>289</ele>
        <time>2016-09-08T10:26:36Z</time>
      </trkpt>
      <trkpt lat="45.95191" lon="4.94516">
        <ele>289</ele>
        <time>2016-09-08T10:26:37Z</time>
      </trkpt>
      <trkpt lat="45.95192" lon="4.94509">
        <ele>289</ele>
        <time>2016-09-08T10:26:38Z</time>
      </trkpt>
      <trkpt lat="45.95193" lon="4.94502">
        <ele>289</ele>
        <time>2016-09-08T10:26:39Z</time>
      </trkpt>
      <trkpt lat="45.95194" lon="4.94493">
        <ele>289</ele>
        <time>2016-09-08T10:26:40Z</time>
      </trkpt>
      <trkpt lat="45.95195" lon="4.94483">
        <ele>289</ele>
        <time>2016-09-08T10:26:41Z</time>
      </trkpt>
      <trkpt lat="45.95195" lon="4.94475">
        <ele>289</ele>
        <time>2016-09-08T10:26:42Z</time>
      </trkpt>
      <trkpt lat="45.95195" lon="4.94467">
        <ele>289</ele>
        <time>2016-09-08T10:26:43Z</time>
      </trkpt>
      <trkpt lat="45.95196" lon="4.94458">
        <ele>290</ele>
        <time>2016-09-08T10:26:44Z</time>
      </trkpt>
      <trkpt lat="45.95197" lon="4.9445">
        <ele>290</ele>
        <time>2016-09-08T10:26:45Z</time>
      </trkpt>
      <trkpt lat="45.95198" lon="4.94441">
        <ele>290</ele>
        <time>2016-09-08T10:26:46Z</time>
      </trkpt>
      <trkpt lat="45.952" lon="4.94433">
        <ele>290</ele>
        <time>2016-09-08T10:26:47Z</time>
      </trkpt>
      <trkpt lat="45.95201" lon="4.94426">
        <ele>290</ele>
        <time>2016-09-08T10:26:48Z</time>
      </trkpt>
      <trkpt lat="45.95203" lon="4.94419">
        <ele>290</ele>
        <time>2016-09-08T10:26:49Z</time>
      </trkpt>
      <trkpt lat="45.95205" lon="4.94413">
        <ele>289</ele>
        <time>2016-09-08T10:26:50Z</time>
      </trkpt>
      <trkpt lat="45.95207" lon="4.94406">
        <ele>289</ele>
        <time>2016-09-08T10:26:51Z</time>
      </trkpt>
      <trkpt lat="45.95209" lon="4.944">
        <ele>289</ele>
        <time>2016-09-08T10:26:52Z</time>
      </trkpt>
      <trkpt lat="45.95212" lon="4.94394">
        <ele>289</ele>
        <time>2016-09-08T10:26:53Z</time>
      </trkpt>
      <trkpt lat="45.95214" lon="4.94388">
        <ele>289</ele>
        <time>2016-09-08T10:26:54Z</time>
      </trkpt>
      <trkpt lat="45.95217" lon="4.94382">
        <ele>289</ele>
        <time>2016-09-08T10:26:55Z</time>
      </trkpt>
      <trkpt lat="45.9522" lon="4.94376">
        <ele>289</ele>
        <time>2016-09-08T10:26:56Z</time>
      </trkpt>
      <trkpt lat="45.95223" lon="4.9437">
        <ele>289</ele>
        <time>2016-09-08T10:26:57Z</time>
      </trkpt>
      <trkpt lat="45.95225" lon="4.94365">
        <ele>289</ele>
        <time>2016-09-08T10:26:58Z</time>
      </trkpt>
      <trkpt lat="45.95229" lon="4.94354">
        <ele>289</ele>
        <time>2016-09-08T10:27:00Z</time>
      </trkpt>
      <trkpt lat="45.95231" lon="4.94349">
        <ele>289</ele>
        <time>2016-09-08T10:27:01Z</time>
      </trkpt>
      <trkpt lat="45.95232" lon="4.94342">
        <ele>289</ele>
        <time>2016-09-08T10:27:02Z</time>
      </trkpt>
      <trkpt lat="45.95233" lon="4.94336">
        <ele>288</ele>
        <time>2016-09-08T10:27:03Z</time>
      </trkpt>
      <trkpt lat="45.95234" lon="4.94329">
        <ele>288</ele>
        <time>2016-09-08T10:27:04Z</time>
      </trkpt>
      <trkpt lat="45.95235" lon="4.94322">
        <ele>288</ele>
        <time>2016-09-08T10:27:05Z</time>
      </trkpt>
      <trkpt lat="45.95236" lon="4.94315">
        <ele>288</ele>
        <time>2016-09-08T10:27:06Z</time>
      </trkpt>
      <trkpt lat="45.95236" lon="4.94308">
        <ele>288</ele>
        <time>2016-09-08T10:27:07Z</time>
      </trkpt>
      <trkpt lat="45.95237" lon="4.943">
        <ele>289</ele>
        <time>2016-09-08T10:27:08Z</time>
      </trkpt>
      <trkpt lat="45.95237" lon="4.94292">
        <ele>289</ele>
        <time>2016-09-08T10:27:09Z</time>
      </trkpt>
      <trkpt lat="45.95237" lon="4.94283">
        <ele>289</ele>
        <time>2016-09-08T10:27:10Z</time>
      </trkpt>
      <trkpt lat="45.95237" lon="4.94274">
        <ele>288</ele>
        <time>2016-09-08T10:27:11Z</time>
      </trkpt>
      <trkpt lat="45.95238" lon="4.94265">
        <ele>288</ele>
        <time>2016-09-08T10:27:12Z</time>
      </trkpt>
      <trkpt lat="45.95238" lon="4.94257">
        <ele>288</ele>
        <time>2016-09-08T10:27:13Z</time>
      </trkpt>
      <trkpt lat="45.95239" lon="4.94249">
        <ele>288</ele>
        <time>2016-09-08T10:27:14Z</time>
      </trkpt>
      <trkpt lat="45.95239" lon="4.94241">
        <ele>288</ele>
        <time>2016-09-08T10:27:15Z</time>
      </trkpt>
      <trkpt lat="45.9524" lon="4.94234">
        <ele>289</ele>
        <time>2016-09-08T10:27:16Z</time>
      </trkpt>
      <trkpt lat="45.95241" lon="4.94226">
        <ele>289</ele>
        <time>2016-09-08T10:27:17Z</time>
      </trkpt>
      <trkpt lat="45.95241" lon="4.94219">
        <ele>289</ele>
        <time>2016-09-08T10:27:18Z</time>
      </trkpt>
      <trkpt lat="45.95242" lon="4.94211">
        <ele>289</ele>
        <time>2016-09-08T10:27:19Z</time>
      </trkpt>
      <trkpt lat="45.95243" lon="4.94204">
        <ele>289</ele>
        <time>2016-09-08T10:27:20Z</time>
      </trkpt>
      <trkpt lat="45.95245" lon="4.94197">
        <ele>289</ele>
        <time>2016-09-08T10:27:21Z</time>
      </trkpt>
      <trkpt lat="45.95247" lon="4.9419">
        <ele>289</ele>
        <time>2016-09-08T10:27:22Z</time>
      </trkpt>
      <trkpt lat="45.95249" lon="4.94182">
        <ele>289</ele>
        <time>2016-09-08T10:27:23Z</time>
      </trkpt>
      <trkpt lat="45.95252" lon="4.94175">
        <ele>289</ele>
        <time>2016-09-08T10:27:24Z</time>
      </trkpt>
      <trkpt lat="45.95254" lon="4.94167">
        <ele>289</ele>
        <time>2016-09-08T10:27:25Z</time>
      </trkpt>
      <trkpt lat="45.95257" lon="4.94161">
        <ele>289</ele>
        <time>2016-09-08T10:27:26Z</time>
      </trkpt>
      <trkpt lat="45.95259" lon="4.94154">
        <ele>289</ele>
        <time>2016-09-08T10:27:27Z</time>
      </trkpt>
      <trkpt lat="45.95262" lon="4.94147">
        <ele>288</ele>
        <time>2016-09-08T10:27:28Z</time>
      </trkpt>
      <trkpt lat="45.95264" lon="4.9414">
        <ele>288</ele>
        <time>2016-09-08T10:27:29Z</time>
      </trkpt>
      <trkpt lat="45.95267" lon="4.94134">
        <ele>288</ele>
        <time>2016-09-08T10:27:30Z</time>
      </trkpt>
      <trkpt lat="45.95269" lon="4.94127">
        <ele>288</ele>
        <time>2016-09-08T10:27:31Z</time>
      </trkpt>
      <trkpt lat="45.95271" lon="4.9412">
        <ele>288</ele>
        <time>2016-09-08T10:27:32Z</time>
      </trkpt>
      <trkpt lat="45.95273" lon="4.94114">
        <ele>288</ele>
        <time>2016-09-08T10:27:33Z</time>
      </trkpt>
      <trkpt lat="45.95276" lon="4.94107">
        <ele>288</ele>
        <time>2016-09-08T10:27:34Z</time>
      </trkpt>
      <trkpt lat="45.95278" lon="4.94101">
        <ele>288</ele>
        <time>2016-09-08T10:27:35Z</time>
      </trkpt>
      <trkpt lat="45.9528" lon="4.94094">
        <ele>288</ele>
        <time>2016-09-08T10:27:36Z</time>
      </trkpt>
      <trkpt lat="45.95282" lon="4.94088">
        <ele>288</ele>
        <time>2016-09-08T10:27:37Z</time>
      </trkpt>
      <trkpt lat="45.95284" lon="4.94082">
        <ele>288</ele>
        <time>2016-09-08T10:27:38Z</time>
      </trkpt>
      <trkpt lat="45.95287" lon="4.94076">
        <ele>288</ele>
        <time>2016-09-08T10:27:39Z</time>
      </trkpt>
      <trkpt lat="45.9529" lon="4.9407">
        <ele>288</ele>
        <time>2016-09-08T10:27:40Z</time>
      </trkpt>
      <trkpt lat="45.95292" lon="4.94064">
        <ele>288</ele>
        <time>2016-09-08T10:27:41Z</time>
      </trkpt>
      <trkpt lat="45.95295" lon="4.94058">
        <ele>288</ele>
        <time>2016-09-08T10:27:42Z</time>
      </trkpt>
      <trkpt lat="45.95297" lon="4.94052">
        <ele>288</ele>
        <time>2016-09-08T10:27:43Z</time>
      </trkpt>
      <trkpt lat="45.95299" lon="4.94047">
        <ele>288</ele>
        <time>2016-09-08T10:27:44Z</time>
      </trkpt>
      <trkpt lat="45.95302" lon="4.94041">
        <ele>288</ele>
        <time>2016-09-08T10:27:45Z</time>
      </trkpt>
      <trkpt lat="45.95305" lon="4.94036">
        <ele>288</ele>
        <time>2016-09-08T10:27:46Z</time>
      </trkpt>
      <trkpt lat="45.95309" lon="4.94032">
        <ele>288</ele>
        <time>2016-09-08T10:27:47Z</time>
      </trkpt>
      <trkpt lat="45.95313" lon="4.9403">
        <ele>288</ele>
        <time>2016-09-08T10:27:48Z</time>
      </trkpt>
      <trkpt lat="45.95317" lon="4.94029">
        <ele>288</ele>
        <time>2016-09-08T10:27:49Z</time>
      </trkpt>
      <trkpt lat="45.95323" lon="4.94028">
        <ele>288</ele>
        <time>2016-09-08T10:27:50Z</time>
      </trkpt>
      <trkpt lat="45.95329" lon="4.94028">
        <ele>288</ele>
        <time>2016-09-08T10:27:51Z</time>
      </trkpt>
      <trkpt lat="45.95335" lon="4.94028">
        <ele>288</ele>
        <time>2016-09-08T10:27:52Z</time>
      </trkpt>
      <trkpt lat="45.95341" lon="4.94028">
        <ele>288</ele>
        <time>2016-09-08T10:27:53Z</time>
      </trkpt>
      <trkpt lat="45.95347" lon="4.94027">
        <ele>288</ele>
        <time>2016-09-08T10:27:54Z</time>
      </trkpt>
      <trkpt lat="45.95354" lon="4.94027">
        <ele>288</ele>
        <time>2016-09-08T10:27:55Z</time>
      </trkpt>
      <trkpt lat="45.9536" lon="4.94027">
        <ele>288</ele>
        <time>2016-09-08T10:27:56Z</time>
      </trkpt>
      <trkpt lat="45.95366" lon="4.94026">
        <ele>288</ele>
        <time>2016-09-08T10:27:57Z</time>
      </trkpt>
      <trkpt lat="45.95371" lon="4.94024">
        <ele>288</ele>
        <time>2016-09-08T10:27:58Z</time>
      </trkpt>
      <trkpt lat="45.95377" lon="4.94022">
        <ele>288</ele>
        <time>2016-09-08T10:27:59Z</time>
      </trkpt>
      <trkpt lat="45.95382" lon="4.9402">
        <ele>289</ele>
        <time>2016-09-08T10:28:00Z</time>
      </trkpt>
      <trkpt lat="45.95388" lon="4.94018">
        <ele>289</ele>
        <time>2016-09-08T10:28:01Z</time>
      </trkpt>
      <trkpt lat="45.95393" lon="4.94016">
        <ele>289</ele>
        <time>2016-09-08T10:28:02Z</time>
      </trkpt>
      <trkpt lat="45.95399" lon="4.94014">
        <ele>289</ele>
        <time>2016-09-08T10:28:03Z</time>
      </trkpt>
      <trkpt lat="45.95404" lon="4.94013">
        <ele>289</ele>
        <time>2016-09-08T10:28:04Z</time>
      </trkpt>
      <trkpt lat="45.9541" lon="4.94011">
        <ele>289</ele>
        <time>2016-09-08T10:28:05Z</time>
      </trkpt>
      <trkpt lat="45.95415" lon="4.9401">
        <ele>289</ele>
        <time>2016-09-08T10:28:06Z</time>
      </trkpt>
      <trkpt lat="45.9542" lon="4.94009">
        <ele>290</ele>
        <time>2016-09-08T10:28:07Z</time>
      </trkpt>
      <trkpt lat="45.95425" lon="4.94007">
        <ele>289</ele>
        <time>2016-09-08T10:28:08Z</time>
      </trkpt>
      <trkpt lat="45.95431" lon="4.94006">
        <ele>289</ele>
        <time>2016-09-08T10:28:09Z</time>
      </trkpt>
      <trkpt lat="45.95436" lon="4.94004">
        <ele>289</ele>
        <time>2016-09-08T10:28:10Z</time>
      </trkpt>
      <trkpt lat="45.95441" lon="4.94003">
        <ele>289</ele>
        <time>2016-09-08T10:28:11Z</time>
      </trkpt>
      <trkpt lat="45.95447" lon="4.94002">
        <ele>289</ele>
        <time>2016-09-08T10:28:12Z</time>
      </trkpt>
      <trkpt lat="45.95453" lon="4.94001">
        <ele>289</ele>
        <time>2016-09-08T10:28:13Z</time>
      </trkpt>
      <trkpt lat="45.95458" lon="4.93999">
        <ele>289</ele>
        <time>2016-09-08T10:28:14Z</time>
      </trkpt>
      <trkpt lat="45.95464" lon="4.93997">
        <ele>289</ele>
        <time>2016-09-08T10:28:15Z</time>
      </trkpt>
      <trkpt lat="45.95469" lon="4.93999">
        <ele>289</ele>
        <time>2016-09-08T10:28:16Z</time>
      </trkpt>
      <trkpt lat="45.95474" lon="4.93998">
        <ele>289</ele>
        <time>2016-09-08T10:28:17Z</time>
      </trkpt>
      <trkpt lat="45.95479" lon="4.93998">
        <ele>289</ele>
        <time>2016-09-08T10:28:18Z</time>
      </trkpt>
      <trkpt lat="45.95484" lon="4.93998">
        <ele>289</ele>
        <time>2016-09-08T10:28:19Z</time>
      </trkpt>
      <trkpt lat="45.95489" lon="4.93998">
        <ele>289</ele>
        <time>2016-09-08T10:28:20Z</time>
      </trkpt>
      <trkpt lat="45.95495" lon="4.93999">
        <ele>289</ele>
        <time>2016-09-08T10:28:21Z</time>
      </trkpt>
      <trkpt lat="45.95501" lon="4.94">
        <ele>289</ele>
        <time>2016-09-08T10:28:22Z</time>
      </trkpt>
      <trkpt lat="45.95507" lon="4.94001">
        <ele>289</ele>
        <time>2016-09-08T10:28:23Z</time>
      </trkpt>
      <trkpt lat="45.95513" lon="4.94002">
        <ele>289</ele>
        <time>2016-09-08T10:28:24Z</time>
      </trkpt>
      <trkpt lat="45.95519" lon="4.94003">
        <ele>290</ele>
        <time>2016-09-08T10:28:25Z</time>
      </trkpt>
      <trkpt lat="45.95524" lon="4.94002">
        <ele>290</ele>
        <time>2016-09-08T10:28:26Z</time>
      </trkpt>
      <trkpt lat="45.95529" lon="4.93998">
        <ele>290</ele>
        <time>2016-09-08T10:28:27Z</time>
      </trkpt>
      <trkpt lat="45.95534" lon="4.93992">
        <ele>290</ele>
        <time>2016-09-08T10:28:28Z</time>
      </trkpt>
      <trkpt lat="45.95537" lon="4.93985">
        <ele>290</ele>
        <time>2016-09-08T10:28:29Z</time>
      </trkpt>
      <trkpt lat="45.95538" lon="4.93978">
        <ele>291</ele>
        <time>2016-09-08T10:28:30Z</time>
      </trkpt>
      <trkpt lat="45.95538" lon="4.9397">
        <ele>290</ele>
        <time>2016-09-08T10:28:31Z</time>
      </trkpt>
      <trkpt lat="45.95538" lon="4.93961">
        <ele>290</ele>
        <time>2016-09-08T10:28:32Z</time>
      </trkpt>
      <trkpt lat="45.95538" lon="4.93952">
        <ele>290</ele>
        <time>2016-09-08T10:28:33Z</time>
      </trkpt>
      <trkpt lat="45.95537" lon="4.93943">
        <ele>290</ele>
        <time>2016-09-08T10:28:34Z</time>
      </trkpt>
      <trkpt lat="45.95537" lon="4.93934">
        <ele>290</ele>
        <time>2016-09-08T10:28:35Z</time>
      </trkpt>
      <trkpt lat="45.95537" lon="4.93926">
        <ele>290</ele>
        <time>2016-09-08T10:28:36Z</time>
      </trkpt>
      <trkpt lat="45.95536" lon="4.93919">
        <ele>290</ele>
        <time>2016-09-08T10:28:37Z</time>
      </trkpt>
      <trkpt lat="45.95536" lon="4.93913">
        <ele>290</ele>
        <time>2016-09-08T10:28:38Z</time>
      </trkpt>
      <trkpt lat="45.95535" lon="4.93906">
        <ele>290</ele>
        <time>2016-09-08T10:28:39Z</time>
      </trkpt>
      <trkpt lat="45.95534" lon="4.93899">
        <ele>290</ele>
        <time>2016-09-08T10:28:40Z</time>
      </trkpt>
      <trkpt lat="45.95534" lon="4.93891">
        <ele>290</ele>
        <time>2016-09-08T10:28:41Z</time>
      </trkpt>
      <trkpt lat="45.95534" lon="4.93884">
        <ele>290</ele>
        <time>2016-09-08T10:28:42Z</time>
      </trkpt>
      <trkpt lat="45.95535" lon="4.93877">
        <ele>290</ele>
        <time>2016-09-08T10:28:43Z</time>
      </trkpt>
      <trkpt lat="45.95535" lon="4.9387">
        <ele>290</ele>
        <time>2016-09-08T10:28:44Z</time>
      </trkpt>
      <trkpt lat="45.95537" lon="4.93863">
        <ele>290</ele>
        <time>2016-09-08T10:28:45Z</time>
      </trkpt>
      <trkpt lat="45.95537" lon="4.93855">
        <ele>290</ele>
        <time>2016-09-08T10:28:46Z</time>
      </trkpt>
      <trkpt lat="45.95538" lon="4.93847">
        <ele>290</ele>
        <time>2016-09-08T10:28:47Z</time>
      </trkpt>
      <trkpt lat="45.95539" lon="4.9384">
        <ele>290</ele>
        <time>2016-09-08T10:28:48Z</time>
      </trkpt>
      <trkpt lat="45.9554" lon="4.93832">
        <ele>291</ele>
        <time>2016-09-08T10:28:49Z</time>
      </trkpt>
      <trkpt lat="45.95544" lon="4.93826">
        <ele>290</ele>
        <time>2016-09-08T10:28:50Z</time>
      </trkpt>
      <trkpt lat="45.95547" lon="4.9382">
        <ele>290</ele>
        <time>2016-09-08T10:28:51Z</time>
      </trkpt>
      <trkpt lat="45.95551" lon="4.93815">
        <ele>290</ele>
        <time>2016-09-08T10:28:52Z</time>
      </trkpt>
      <trkpt lat="45.95555" lon="4.93811">
        <ele>290</ele>
        <time>2016-09-08T10:28:53Z</time>
      </trkpt>
      <trkpt lat="45.95559" lon="4.93805">
        <ele>290</ele>
        <time>2016-09-08T10:28:54Z</time>
      </trkpt>
      <trkpt lat="45.95562" lon="4.93798">
        <ele>290</ele>
        <time>2016-09-08T10:28:55Z</time>
      </trkpt>
      <trkpt lat="45.95566" lon="4.9379">
        <ele>290</ele>
        <time>2016-09-08T10:28:56Z</time>
      </trkpt>
      <trkpt lat="45.95567" lon="4.93782">
        <ele>290</ele>
        <time>2016-09-08T10:28:57Z</time>
      </trkpt>
      <trkpt lat="45.95567" lon="4.93774">
        <ele>290</ele>
        <time>2016-09-08T10:28:58Z</time>
      </trkpt>
      <trkpt lat="45.95566" lon="4.93766">
        <ele>290</ele>
        <time>2016-09-08T10:28:59Z</time>
      </trkpt>
      <trkpt lat="45.95566" lon="4.93759">
        <ele>290</ele>
        <time>2016-09-08T10:29:00Z</time>
      </trkpt>
      <trkpt lat="45.95565" lon="4.93751">
        <ele>290</ele>
        <time>2016-09-08T10:29:01Z</time>
      </trkpt>
      <trkpt lat="45.95565" lon="4.93743">
        <ele>290</ele>
        <time>2016-09-08T10:29:02Z</time>
      </trkpt>
      <trkpt lat="45.95564" lon="4.93735">
        <ele>290</ele>
        <time>2016-09-08T10:29:03Z</time>
      </trkpt>
      <trkpt lat="45.95564" lon="4.93726">
        <ele>290</ele>
        <time>2016-09-08T10:29:04Z</time>
      </trkpt>
      <trkpt lat="45.95564" lon="4.93718">
        <ele>290</ele>
        <time>2016-09-08T10:29:05Z</time>
      </trkpt>
      <trkpt lat="45.95564" lon="4.9371">
        <ele>290</ele>
        <time>2016-09-08T10:29:06Z</time>
      </trkpt>
      <trkpt lat="45.95564" lon="4.93703">
        <ele>290</ele>
        <time>2016-09-08T10:29:07Z</time>
      </trkpt>
      <trkpt lat="45.95565" lon="4.93696">
        <ele>290</ele>
        <time>2016-09-08T10:29:08Z</time>
      </trkpt>
      <trkpt lat="45.95566" lon="4.93689">
        <ele>290</ele>
        <time>2016-09-08T10:29:09Z</time>
      </trkpt>
      <trkpt lat="45.95566" lon="4.93682">
        <ele>289</ele>
        <time>2016-09-08T10:29:10Z</time>
      </trkpt>
      <trkpt lat="45.95567" lon="4.93675">
        <ele>289</ele>
        <time>2016-09-08T10:29:11Z</time>
      </trkpt>
      <trkpt lat="45.95567" lon="4.93668">
        <ele>289</ele>
        <time>2016-09-08T10:29:12Z</time>
      </trkpt>
      <trkpt lat="45.95567" lon="4.9366">
        <ele>289</ele>
        <time>2016-09-08T10:29:13Z</time>
      </trkpt>
      <trkpt lat="45.95567" lon="4.93653">
        <ele>289</ele>
        <time>2016-09-08T10:29:14Z</time>
      </trkpt>
      <trkpt lat="45.95567" lon="4.93645">
        <ele>289</ele>
        <time>2016-09-08T10:29:15Z</time>
      </trkpt>
      <trkpt lat="45.95567" lon="4.93638">
        <ele>289</ele>
        <time>2016-09-08T10:29:16Z</time>
      </trkpt>
      <trkpt lat="45.95568" lon="4.9363">
        <ele>289</ele>
        <time>2016-09-08T10:29:17Z</time>
      </trkpt>
      <trkpt lat="45.9557" lon="4.93621">
        <ele>289</ele>
        <time>2016-09-08T10:29:18Z</time>
      </trkpt>
      <trkpt lat="45.9557" lon="4.93613">
        <ele>289</ele>
        <time>2016-09-08T10:29:19Z</time>
      </trkpt>
      <trkpt lat="45.9557" lon="4.93605">
        <ele>289</ele>
        <time>2016-09-08T10:29:20Z</time>
      </trkpt>
      <trkpt lat="45.95571" lon="4.93597">
        <ele>289</ele>
        <time>2016-09-08T10:29:21Z</time>
      </trkpt>
      <trkpt lat="45.95571" lon="4.93589">
        <ele>289</ele>
        <time>2016-09-08T10:29:22Z</time>
      </trkpt>
      <trkpt lat="45.95572" lon="4.93581">
        <ele>289</ele>
        <time>2016-09-08T10:29:23Z</time>
      </trkpt>
      <trkpt lat="45.95572" lon="4.93574">
        <ele>289</ele>
        <time>2016-09-08T10:29:24Z</time>
      </trkpt>
      <trkpt lat="45.95573" lon="4.93568">
        <ele>289</ele>
        <time>2016-09-08T10:29:25Z</time>
      </trkpt>
      <trkpt lat="45.95573" lon="4.93561">
        <ele>289</ele>
        <time>2016-09-08T10:29:26Z</time>
      </trkpt>
      <trkpt lat="45.95573" lon="4.93554">
        <ele>289</ele>
        <time>2016-09-08T10:29:27Z</time>
      </trkpt>
      <trkpt lat="45.95573" lon="4.93547">
        <ele>289</ele>
        <time>2016-09-08T10:29:28Z</time>
      </trkpt>
      <trkpt lat="45.95573" lon="4.93539">
        <ele>290</ele>
        <time>2016-09-08T10:29:29Z</time>
      </trkpt>
      <trkpt lat="45.95573" lon="4.93531">
        <ele>290</ele>
        <time>2016-09-08T10:29:30Z</time>
      </trkpt>
      <trkpt lat="45.95573" lon="4.93524">
        <ele>290</ele>
        <time>2016-09-08T10:29:31Z</time>
      </trkpt>
      <trkpt lat="45.95572" lon="4.93515">
        <ele>290</ele>
        <time>2016-09-08T10:29:32Z</time>
      </trkpt>
      <trkpt lat="45.9557" lon="4.93508">
        <ele>290</ele>
        <time>2016-09-08T10:29:33Z</time>
      </trkpt>
      <trkpt lat="45.95567" lon="4.935">
        <ele>290</ele>
        <time>2016-09-08T10:29:34Z</time>
      </trkpt>
      <trkpt lat="45.95565" lon="4.93493">
        <ele>290</ele>
        <time>2016-09-08T10:29:35Z</time>
      </trkpt>
      <trkpt lat="45.95562" lon="4.93487">
        <ele>289</ele>
        <time>2016-09-08T10:29:36Z</time>
      </trkpt>
      <trkpt lat="45.95559" lon="4.93481">
        <ele>289</ele>
        <time>2016-09-08T10:29:37Z</time>
      </trkpt>
      <trkpt lat="45.95556" lon="4.93474">
        <ele>289</ele>
        <time>2016-09-08T10:29:38Z</time>
      </trkpt>
      <trkpt lat="45.95553" lon="4.93467">
        <ele>289</ele>
        <time>2016-09-08T10:29:39Z</time>
      </trkpt>
      <trkpt lat="45.9555" lon="4.93461">
        <ele>289</ele>
        <time>2016-09-08T10:29:40Z</time>
      </trkpt>
      <trkpt lat="45.95547" lon="4.93454">
        <ele>289</ele>
        <time>2016-09-08T10:29:41Z</time>
      </trkpt>
      <trkpt lat="45.95545" lon="4.93447">
        <ele>289</ele>
        <time>2016-09-08T10:29:42Z</time>
      </trkpt>
      <trkpt lat="45.95543" lon="4.93441">
        <ele>289</ele>
        <time>2016-09-08T10:29:43Z</time>
      </trkpt>
      <trkpt lat="45.95541" lon="4.93434">
        <ele>289</ele>
        <time>2016-09-08T10:29:44Z</time>
      </trkpt>
      <trkpt lat="45.95538" lon="4.93427">
        <ele>289</ele>
        <time>2016-09-08T10:29:45Z</time>
      </trkpt>
      <trkpt lat="45.95536" lon="4.93421">
        <ele>289</ele>
        <time>2016-09-08T10:29:46Z</time>
      </trkpt>
      <trkpt lat="45.95533" lon="4.93414">
        <ele>289</ele>
        <time>2016-09-08T10:29:47Z</time>
      </trkpt>
      <trkpt lat="45.95531" lon="4.93407">
        <ele>289</ele>
        <time>2016-09-08T10:29:48Z</time>
      </trkpt>
      <trkpt lat="45.95527" lon="4.93401">
        <ele>289</ele>
        <time>2016-09-08T10:29:49Z</time>
      </trkpt>
      <trkpt lat="45.95523" lon="4.93394">
        <ele>289</ele>
        <time>2016-09-08T10:29:50Z</time>
      </trkpt>
      <trkpt lat="45.9552" lon="4.93387">
        <ele>289</ele>
        <time>2016-09-08T10:29:51Z</time>
      </trkpt>
      <trkpt lat="45.95518" lon="4.93379">
        <ele>289</ele>
        <time>2016-09-08T10:29:52Z</time>
      </trkpt>
      <trkpt lat="45.95516" lon="4.93373">
        <ele>289</ele>
        <time>2016-09-08T10:29:53Z</time>
      </trkpt>
      <trkpt lat="45.95514" lon="4.93366">
        <ele>289</ele>
        <time>2016-09-08T10:29:54Z</time>
      </trkpt>
      <trkpt lat="45.95511" lon="4.9336">
        <ele>289</ele>
        <time>2016-09-08T10:29:55Z</time>
      </trkpt>
      <trkpt lat="45.95509" lon="4.93354">
        <ele>289</ele>
        <time>2016-09-08T10:29:56Z</time>
      </trkpt>
      <trkpt lat="45.95506" lon="4.93347">
        <ele>289</ele>
        <time>2016-09-08T10:29:57Z</time>
      </trkpt>
      <trkpt lat="45.95504" lon="4.93341">
        <ele>289</ele>
        <time>2016-09-08T10:29:58Z</time>
      </trkpt>
      <trkpt lat="45.95502" lon="4.93335">
        <ele>289</ele>
        <time>2016-09-08T10:29:59Z</time>
      </trkpt>
      <trkpt lat="45.95499" lon="4.93329">
        <ele>289</ele>
        <time>2016-09-08T10:30:00Z</time>
      </trkpt>
      <trkpt lat="45.95497" lon="4.93323">
        <ele>289</ele>
        <time>2016-09-08T10:30:01Z</time>
      </trkpt>
      <trkpt lat="45.95494" lon="4.93317">
        <ele>290</ele>
        <time>2016-09-08T10:30:02Z</time>
      </trkpt>
      <trkpt lat="45.95492" lon="4.93311">
        <ele>290</ele>
        <time>2016-09-08T10:30:03Z</time>
      </trkpt>
      <trkpt lat="45.9549" lon="4.93305">
        <ele>290</ele>
        <time>2016-09-08T10:30:04Z</time>
      </trkpt>
      <trkpt lat="45.95487" lon="4.93299">
        <ele>290</ele>
        <time>2016-09-08T10:30:05Z</time>
      </trkpt>
      <trkpt lat="45.95485" lon="4.93293">
        <ele>290</ele>
        <time>2016-09-08T10:30:06Z</time>
      </trkpt>
      <trkpt lat="45.95482" lon="4.93287">
        <ele>290</ele>
        <time>2016-09-08T10:30:07Z</time>
      </trkpt>
      <trkpt lat="45.95479" lon="4.93281">
        <ele>290</ele>
        <time>2016-09-08T10:30:08Z</time>
      </trkpt>
      <trkpt lat="45.95477" lon="4.93274">
        <ele>290</ele>
        <time>2016-09-08T10:30:09Z</time>
      </trkpt>
      <trkpt lat="45.95474" lon="4.93268">
        <ele>290</ele>
        <time>2016-09-08T10:30:10Z</time>
      </trkpt>
      <trkpt lat="45.95472" lon="4.93261">
        <ele>290</ele>
        <time>2016-09-08T10:30:11Z</time>
      </trkpt>
      <trkpt lat="45.95469" lon="4.93255">
        <ele>290</ele>
        <time>2016-09-08T10:30:12Z</time>
      </trkpt>
      <trkpt lat="45.95466" lon="4.93248">
        <ele>290</ele>
        <time>2016-09-08T10:30:13Z</time>
      </trkpt>
      <trkpt lat="45.95463" lon="4.93242">
        <ele>290</ele>
        <time>2016-09-08T10:30:14Z</time>
      </trkpt>
      <trkpt lat="45.95461" lon="4.93235">
        <ele>290</ele>
        <time>2016-09-08T10:30:15Z</time>
      </trkpt>
      <trkpt lat="45.95459" lon="4.93229">
        <ele>290</ele>
        <time>2016-09-08T10:30:16Z</time>
      </trkpt>
      <trkpt lat="45.95456" lon="4.93222">
        <ele>291</ele>
        <time>2016-09-08T10:30:17Z</time>
      </trkpt>
      <trkpt lat="45.95455" lon="4.93214">
        <ele>291</ele>
        <time>2016-09-08T10:30:18Z</time>
      </trkpt>
      <trkpt lat="45.95453" lon="4.93207">
        <ele>291</ele>
        <time>2016-09-08T10:30:19Z</time>
      </trkpt>
      <trkpt lat="45.95452" lon="4.932">
        <ele>291</ele>
        <time>2016-09-08T10:30:20Z</time>
      </trkpt>
      <trkpt lat="45.95453" lon="4.93192">
        <ele>291</ele>
        <time>2016-09-08T10:30:21Z</time>
      </trkpt>
      <trkpt lat="45.95455" lon="4.93186">
        <ele>291</ele>
        <time>2016-09-08T10:30:22Z</time>
      </trkpt>
      <trkpt lat="45.95458" lon="4.93181">
        <ele>291</ele>
        <time>2016-09-08T10:30:23Z</time>
      </trkpt>
      <trkpt lat="45.95465" lon="4.93173">
        <ele>290</ele>
        <time>2016-09-08T10:30:25Z</time>
      </trkpt>
      <trkpt lat="45.95468" lon="4.9317">
        <ele>290</ele>
        <time>2016-09-08T10:30:26Z</time>
      </trkpt>
      <trkpt lat="45.95473" lon="4.93166">
        <ele>290</ele>
        <time>2016-09-08T10:30:27Z</time>
      </trkpt>
      <trkpt lat="45.95478" lon="4.93163">
        <ele>290</ele>
        <time>2016-09-08T10:30:28Z</time>
      </trkpt>
      <trkpt lat="45.95482" lon="4.9316">
        <ele>290</ele>
        <time>2016-09-08T10:30:29Z</time>
      </trkpt>
      <trkpt lat="45.95487" lon="4.93156">
        <ele>290</ele>
        <time>2016-09-08T10:30:30Z</time>
      </trkpt>
      <trkpt lat="45.95491" lon="4.93152">
        <ele>290</ele>
        <time>2016-09-08T10:30:31Z</time>
      </trkpt>
      <trkpt lat="45.95496" lon="4.93149">
        <ele>290</ele>
        <time>2016-09-08T10:30:32Z</time>
      </trkpt>
      <trkpt lat="45.955" lon="4.93147">
        <ele>290</ele>
        <time>2016-09-08T10:30:33Z</time>
      </trkpt>
      <trkpt lat="45.95504" lon="4.93144">
        <ele>289</ele>
        <time>2016-09-08T10:30:34Z</time>
      </trkpt>
      <trkpt lat="45.95511" lon="4.93139">
        <ele>289</ele>
        <time>2016-09-08T10:30:36Z</time>
      </trkpt>
      <trkpt lat="45.95515" lon="4.93136">
        <ele>289</ele>
        <time>2016-09-08T10:30:37Z</time>
      </trkpt>
      <trkpt lat="45.95519" lon="4.93131">
        <ele>289</ele>
        <time>2016-09-08T10:30:38Z</time>
      </trkpt>
      <trkpt lat="45.95522" lon="4.93127">
        <ele>289</ele>
        <time>2016-09-08T10:30:39Z</time>
      </trkpt>
      <trkpt lat="45.95526" lon="4.93121">
        <ele>289</ele>
        <time>2016-09-08T10:30:40Z</time>
      </trkpt>
      <trkpt lat="45.95529" lon="4.93116">
        <ele>289</ele>
        <time>2016-09-08T10:30:41Z</time>
      </trkpt>
      <trkpt lat="45.95534" lon="4.93109">
        <ele>289</ele>
        <time>2016-09-08T10:30:42Z</time>
      </trkpt>
      <trkpt lat="45.95537" lon="4.93102">
        <ele>289</ele>
        <time>2016-09-08T10:30:43Z</time>
      </trkpt>
      <trkpt lat="45.9554" lon="4.93095">
        <ele>289</ele>
        <time>2016-09-08T10:30:44Z</time>
      </trkpt>
      <trkpt lat="45.95542" lon="4.93086">
        <ele>290</ele>
        <time>2016-09-08T10:30:45Z</time>
      </trkpt>
      <trkpt lat="45.95544" lon="4.93078">
        <ele>290</ele>
        <time>2016-09-08T10:30:46Z</time>
      </trkpt>
      <trkpt lat="45.95545" lon="4.93069">
        <ele>290</ele>
        <time>2016-09-08T10:30:47Z</time>
      </trkpt>
      <trkpt lat="45.95546" lon="4.93061">
        <ele>290</ele>
        <time>2016-09-08T10:30:48Z</time>
      </trkpt>
      <trkpt lat="45.95548" lon="4.93053">
        <ele>290</ele>
        <time>2016-09-08T10:30:49Z</time>
      </trkpt>
      <trkpt lat="45.95549" lon="4.93045">
        <ele>291</ele>
        <time>2016-09-08T10:30:50Z</time>
      </trkpt>
      <trkpt lat="45.9555" lon="4.93037">
        <ele>291</ele>
        <time>2016-09-08T10:30:51Z</time>
      </trkpt>
      <trkpt lat="45.95551" lon="4.93029">
        <ele>291</ele>
        <time>2016-09-08T10:30:52Z</time>
      </trkpt>
      <trkpt lat="45.95554" lon="4.93022">
        <ele>291</ele>
        <time>2016-09-08T10:30:53Z</time>
      </trkpt>
      <trkpt lat="45.95555" lon="4.93014">
        <ele>291</ele>
        <time>2016-09-08T10:30:54Z</time>
      </trkpt>
      <trkpt lat="45.95556" lon="4.93007">
        <ele>291</ele>
        <time>2016-09-08T10:30:55Z</time>
      </trkpt>
      <trkpt lat="45.95557" lon="4.93">
        <ele>292</ele>
        <time>2016-09-08T10:30:56Z</time>
      </trkpt>
      <trkpt lat="45.95558" lon="4.92993">
        <ele>292</ele>
        <time>2016-09-08T10:30:57Z</time>
      </trkpt>
      <trkpt lat="45.95559" lon="4.92986">
        <ele>292</ele>
        <time>2016-09-08T10:30:58Z</time>
      </trkpt>
      <trkpt lat="45.9556" lon="4.92979">
        <ele>292</ele>
        <time>2016-09-08T10:30:59Z</time>
      </trkpt>
      <trkpt lat="45.95561" lon="4.92971">
        <ele>292</ele>
        <time>2016-09-08T10:31:00Z</time>
      </trkpt>
      <trkpt lat="45.95562" lon="4.92964">
        <ele>292</ele>
        <time>2016-09-08T10:31:01Z</time>
      </trkpt>
      <trkpt lat="45.95563" lon="4.92957">
        <ele>292</ele>
        <time>2016-09-08T10:31:02Z</time>
      </trkpt>
      <trkpt lat="45.95564" lon="4.9295">
        <ele>292</ele>
        <time>2016-09-08T10:31:03Z</time>
      </trkpt>
      <trkpt lat="45.95565" lon="4.92943">
        <ele>292</ele>
        <time>2016-09-08T10:31:04Z</time>
      </trkpt>
      <trkpt lat="45.95566" lon="4.92935">
        <ele>293</ele>
        <time>2016-09-08T10:31:05Z</time>
      </trkpt>
      <trkpt lat="45.95567" lon="4.92927">
        <ele>293</ele>
        <time>2016-09-08T10:31:06Z</time>
      </trkpt>
      <trkpt lat="45.95568" lon="4.92919">
        <ele>293</ele>
        <time>2016-09-08T10:31:07Z</time>
      </trkpt>
      <trkpt lat="45.95569" lon="4.92911">
        <ele>294</ele>
        <time>2016-09-08T10:31:08Z</time>
      </trkpt>
      <trkpt lat="45.9557" lon="4.92904">
        <ele>294</ele>
        <time>2016-09-08T10:31:09Z</time>
      </trkpt>
      <trkpt lat="45.95571" lon="4.92897">
        <ele>294</ele>
        <time>2016-09-08T10:31:10Z</time>
      </trkpt>
      <trkpt lat="45.95572" lon="4.92889">
        <ele>294</ele>
        <time>2016-09-08T10:31:11Z</time>
      </trkpt>
      <trkpt lat="45.95573" lon="4.92882">
        <ele>294</ele>
        <time>2016-09-08T10:31:12Z</time>
      </trkpt>
      <trkpt lat="45.95575" lon="4.92874">
        <ele>294</ele>
        <time>2016-09-08T10:31:13Z</time>
      </trkpt>
      <trkpt lat="45.95576" lon="4.92866">
        <ele>294</ele>
        <time>2016-09-08T10:31:14Z</time>
      </trkpt>
      <trkpt lat="45.95577" lon="4.92858">
        <ele>294</ele>
        <time>2016-09-08T10:31:15Z</time>
      </trkpt>
      <trkpt lat="45.95578" lon="4.9285">
        <ele>294</ele>
        <time>2016-09-08T10:31:16Z</time>
      </trkpt>
      <trkpt lat="45.9558" lon="4.92842">
        <ele>294</ele>
        <time>2016-09-08T10:31:17Z</time>
      </trkpt>
      <trkpt lat="45.95581" lon="4.92834">
        <ele>295</ele>
        <time>2016-09-08T10:31:18Z</time>
      </trkpt>
      <trkpt lat="45.95583" lon="4.92825">
        <ele>295</ele>
        <time>2016-09-08T10:31:19Z</time>
      </trkpt>
      <trkpt lat="45.95584" lon="4.92817">
        <ele>295</ele>
        <time>2016-09-08T10:31:20Z</time>
      </trkpt>
      <trkpt lat="45.95585" lon="4.92809">
        <ele>295</ele>
        <time>2016-09-08T10:31:21Z</time>
      </trkpt>
      <trkpt lat="45.95586" lon="4.92801">
        <ele>295</ele>
        <time>2016-09-08T10:31:22Z</time>
      </trkpt>
      <trkpt lat="45.95587" lon="4.92795">
        <ele>295</ele>
        <time>2016-09-08T10:31:23Z</time>
      </trkpt>
      <trkpt lat="45.95589" lon="4.92788">
        <ele>295</ele>
        <time>2016-09-08T10:31:24Z</time>
      </trkpt>
      <trkpt lat="45.9559" lon="4.92781">
        <ele>295</ele>
        <time>2016-09-08T10:31:25Z</time>
      </trkpt>
      <trkpt lat="45.95592" lon="4.92775">
        <ele>295</ele>
        <time>2016-09-08T10:31:26Z</time>
      </trkpt>
      <trkpt lat="45.95593" lon="4.92767">
        <ele>295</ele>
        <time>2016-09-08T10:31:27Z</time>
      </trkpt>
      <trkpt lat="45.95595" lon="4.9276">
        <ele>295</ele>
        <time>2016-09-08T10:31:28Z</time>
      </trkpt>
      <trkpt lat="45.95595" lon="4.92752">
        <ele>295</ele>
        <time>2016-09-08T10:31:29Z</time>
      </trkpt>
      <trkpt lat="45.95597" lon="4.92744">
        <ele>295</ele>
        <time>2016-09-08T10:31:30Z</time>
      </trkpt>
      <trkpt lat="45.95598" lon="4.92736">
        <ele>295</ele>
        <time>2016-09-08T10:31:31Z</time>
      </trkpt>
      <trkpt lat="45.95599" lon="4.92728">
        <ele>295</ele>
        <time>2016-09-08T10:31:32Z</time>
      </trkpt>
      <trkpt lat="45.95601" lon="4.9272">
        <ele>295</ele>
        <time>2016-09-08T10:31:33Z</time>
      </trkpt>
      <trkpt lat="45.95603" lon="4.92711">
        <ele>295</ele>
        <time>2016-09-08T10:31:34Z</time>
      </trkpt>
      <trkpt lat="45.95604" lon="4.92702">
        <ele>295</ele>
        <time>2016-09-08T10:31:35Z</time>
      </trkpt>
      <trkpt lat="45.95605" lon="4.92693">
        <ele>295</ele>
        <time>2016-09-08T10:31:36Z</time>
      </trkpt>
      <trkpt lat="45.95607" lon="4.92685">
        <ele>295</ele>
        <time>2016-09-08T10:31:37Z</time>
      </trkpt>
      <trkpt lat="45.95609" lon="4.92677">
        <ele>295</ele>
        <time>2016-09-08T10:31:38Z</time>
      </trkpt>
      <trkpt lat="45.95611" lon="4.92669">
        <ele>295</ele>
        <time>2016-09-08T10:31:39Z</time>
      </trkpt>
      <trkpt lat="45.95613" lon="4.92662">
        <ele>294</ele>
        <time>2016-09-08T10:31:40Z</time>
      </trkpt>
      <trkpt lat="45.95615" lon="4.92654">
        <ele>294</ele>
        <time>2016-09-08T10:31:41Z</time>
      </trkpt>
      <trkpt lat="45.95616" lon="4.92646">
        <ele>294</ele>
        <time>2016-09-08T10:31:42Z</time>
      </trkpt>
      <trkpt lat="45.95618" lon="4.92638">
        <ele>294</ele>
        <time>2016-09-08T10:31:43Z</time>
      </trkpt>
      <trkpt lat="45.95619" lon="4.92631">
        <ele>294</ele>
        <time>2016-09-08T10:31:44Z</time>
      </trkpt>
      <trkpt lat="45.9562" lon="4.92623">
        <ele>294</ele>
        <time>2016-09-08T10:31:45Z</time>
      </trkpt>
      <trkpt lat="45.9562" lon="4.92616">
        <ele>294</ele>
        <time>2016-09-08T10:31:46Z</time>
      </trkpt>
      <trkpt lat="45.9562" lon="4.92609">
        <ele>294</ele>
        <time>2016-09-08T10:31:47Z</time>
      </trkpt>
      <trkpt lat="45.95621" lon="4.92602">
        <ele>294</ele>
        <time>2016-09-08T10:31:48Z</time>
      </trkpt>
      <trkpt lat="45.95623" lon="4.92595">
        <ele>294</ele>
        <time>2016-09-08T10:31:49Z</time>
      </trkpt>
      <trkpt lat="45.95623" lon="4.92588">
        <ele>294</ele>
        <time>2016-09-08T10:31:50Z</time>
      </trkpt>
      <trkpt lat="45.95624" lon="4.92579">
        <ele>294</ele>
        <time>2016-09-08T10:31:51Z</time>
      </trkpt>
      <trkpt lat="45.95625" lon="4.92571">
        <ele>294</ele>
        <time>2016-09-08T10:31:52Z</time>
      </trkpt>
      <trkpt lat="45.95627" lon="4.92562">
        <ele>294</ele>
        <time>2016-09-08T10:31:53Z</time>
      </trkpt>
      <trkpt lat="45.95629" lon="4.92553">
        <ele>294</ele>
        <time>2016-09-08T10:31:54Z</time>
      </trkpt>
      <trkpt lat="45.95631" lon="4.92544">
        <ele>294</ele>
        <time>2016-09-08T10:31:55Z</time>
      </trkpt>
      <trkpt lat="45.95632" lon="4.92535">
        <ele>294</ele>
        <time>2016-09-08T10:31:56Z</time>
      </trkpt>
      <trkpt lat="45.95632" lon="4.92526">
        <ele>294</ele>
        <time>2016-09-08T10:31:57Z</time>
      </trkpt>
      <trkpt lat="45.95634" lon="4.92517">
        <ele>294</ele>
        <time>2016-09-08T10:31:58Z</time>
      </trkpt>
      <trkpt lat="45.95635" lon="4.92509">
        <ele>294</ele>
        <time>2016-09-08T10:31:59Z</time>
      </trkpt>
      <trkpt lat="45.95636" lon="4.92501">
        <ele>294</ele>
        <time>2016-09-08T10:32:00Z</time>
      </trkpt>
      <trkpt lat="45.95637" lon="4.92493">
        <ele>293</ele>
        <time>2016-09-08T10:32:01Z</time>
      </trkpt>
      <trkpt lat="45.95637" lon="4.92485">
        <ele>293</ele>
        <time>2016-09-08T10:32:02Z</time>
      </trkpt>
      <trkpt lat="45.95639" lon="4.92477">
        <ele>293</ele>
        <time>2016-09-08T10:32:03Z</time>
      </trkpt>
      <trkpt lat="45.9564" lon="4.92469">
        <ele>293</ele>
        <time>2016-09-08T10:32:04Z</time>
      </trkpt>
      <trkpt lat="45.95641" lon="4.92461">
        <ele>293</ele>
        <time>2016-09-08T10:32:05Z</time>
      </trkpt>
      <trkpt lat="45.95642" lon="4.92453">
        <ele>293</ele>
        <time>2016-09-08T10:32:06Z</time>
      </trkpt>
      <trkpt lat="45.95643" lon="4.92445">
        <ele>293</ele>
        <time>2016-09-08T10:32:07Z</time>
      </trkpt>
      <trkpt lat="45.95644" lon="4.92437">
        <ele>293</ele>
        <time>2016-09-08T10:32:08Z</time>
      </trkpt>
      <trkpt lat="45.95646" lon="4.92428">
        <ele>293</ele>
        <time>2016-09-08T10:32:09Z</time>
      </trkpt>
      <trkpt lat="45.95647" lon="4.9242">
        <ele>293</ele>
        <time>2016-09-08T10:32:10Z</time>
      </trkpt>
      <trkpt lat="45.95649" lon="4.92412">
        <ele>293</ele>
        <time>2016-09-08T10:32:11Z</time>
      </trkpt>
      <trkpt lat="45.9565" lon="4.92403">
        <ele>293</ele>
        <time>2016-09-08T10:32:12Z</time>
      </trkpt>
      <trkpt lat="45.95652" lon="4.92395">
        <ele>293</ele>
        <time>2016-09-08T10:32:13Z</time>
      </trkpt>
      <trkpt lat="45.95653" lon="4.92387">
        <ele>293</ele>
        <time>2016-09-08T10:32:14Z</time>
      </trkpt>
      <trkpt lat="45.95654" lon="4.92379">
        <ele>293</ele>
        <time>2016-09-08T10:32:15Z</time>
      </trkpt>
      <trkpt lat="45.95654" lon="4.92371">
        <ele>293</ele>
        <time>2016-09-08T10:32:16Z</time>
      </trkpt>
      <trkpt lat="45.95655" lon="4.92363">
        <ele>293</ele>
        <time>2016-09-08T10:32:17Z</time>
      </trkpt>
      <trkpt lat="45.95657" lon="4.92355">
        <ele>293</ele>
        <time>2016-09-08T10:32:18Z</time>
      </trkpt>
      <trkpt lat="45.95657" lon="4.92348">
        <ele>293</ele>
        <time>2016-09-08T10:32:19Z</time>
      </trkpt>
      <trkpt lat="45.95658" lon="4.92341">
        <ele>293</ele>
        <time>2016-09-08T10:32:20Z</time>
      </trkpt>
      <trkpt lat="45.95658" lon="4.92334">
        <ele>293</ele>
        <time>2016-09-08T10:32:21Z</time>
      </trkpt>
      <trkpt lat="45.95659" lon="4.92321">
        <ele>293</ele>
        <time>2016-09-08T10:32:23Z</time>
      </trkpt>
      <trkpt lat="45.95659" lon="4.92315">
        <ele>293</ele>
        <time>2016-09-08T10:32:24Z</time>
      </trkpt>
      <trkpt lat="45.95659" lon="4.92308">
        <ele>293</ele>
        <time>2016-09-08T10:32:25Z</time>
      </trkpt>
      <trkpt lat="45.95659" lon="4.923">
        <ele>293</ele>
        <time>2016-09-08T10:32:26Z</time>
      </trkpt>
      <trkpt lat="45.95659" lon="4.92292">
        <ele>293</ele>
        <time>2016-09-08T10:32:27Z</time>
      </trkpt>
      <trkpt lat="45.95659" lon="4.92284">
        <ele>293</ele>
        <time>2016-09-08T10:32:28Z</time>
      </trkpt>
      <trkpt lat="45.9566" lon="4.92276">
        <ele>293</ele>
        <time>2016-09-08T10:32:29Z</time>
      </trkpt>
      <trkpt lat="45.9566" lon="4.92268">
        <ele>294</ele>
        <time>2016-09-08T10:32:30Z</time>
      </trkpt>
      <trkpt lat="45.9566" lon="4.92259">
        <ele>294</ele>
        <time>2016-09-08T10:32:31Z</time>
      </trkpt>
      <trkpt lat="45.9566" lon="4.92251">
        <ele>294</ele>
        <time>2016-09-08T10:32:32Z</time>
      </trkpt>
      <trkpt lat="45.9566" lon="4.92243">
        <ele>294</ele>
        <time>2016-09-08T10:32:33Z</time>
      </trkpt>
      <trkpt lat="45.9566" lon="4.92235">
        <ele>294</ele>
        <time>2016-09-08T10:32:34Z</time>
      </trkpt>
      <trkpt lat="45.9566" lon="4.92228">
        <ele>294</ele>
        <time>2016-09-08T10:32:35Z</time>
      </trkpt>
      <trkpt lat="45.95661" lon="4.9222">
        <ele>294</ele>
        <time>2016-09-08T10:32:36Z</time>
      </trkpt>
      <trkpt lat="45.95662" lon="4.92213">
        <ele>294</ele>
        <time>2016-09-08T10:32:37Z</time>
      </trkpt>
      <trkpt lat="45.95662" lon="4.92206">
        <ele>294</ele>
        <time>2016-09-08T10:32:38Z</time>
      </trkpt>
      <trkpt lat="45.95662" lon="4.92199">
        <ele>295</ele>
        <time>2016-09-08T10:32:39Z</time>
      </trkpt>
      <trkpt lat="45.95662" lon="4.92192">
        <ele>295</ele>
        <time>2016-09-08T10:32:40Z</time>
      </trkpt>
      <trkpt lat="45.95662" lon="4.92185">
        <ele>295</ele>
        <time>2016-09-08T10:32:41Z</time>
      </trkpt>
      <trkpt lat="45.95663" lon="4.92178">
        <ele>296</ele>
        <time>2016-09-08T10:32:42Z</time>
      </trkpt>
      <trkpt lat="45.95663" lon="4.9217">
        <ele>296</ele>
        <time>2016-09-08T10:32:43Z</time>
      </trkpt>
      <trkpt lat="45.95663" lon="4.92163">
        <ele>297</ele>
        <time>2016-09-08T10:32:44Z</time>
      </trkpt>
      <trkpt lat="45.95663" lon="4.92156">
        <ele>296</ele>
        <time>2016-09-08T10:32:45Z</time>
      </trkpt>
      <trkpt lat="45.95664" lon="4.92149">
        <ele>296</ele>
        <time>2016-09-08T10:32:46Z</time>
      </trkpt>
      <trkpt lat="45.95665" lon="4.92141">
        <ele>296</ele>
        <time>2016-09-08T10:32:47Z</time>
      </trkpt>
      <trkpt lat="45.95666" lon="4.92134">
        <ele>296</ele>
        <time>2016-09-08T10:32:48Z</time>
      </trkpt>
      <trkpt lat="45.95666" lon="4.92127">
        <ele>296</ele>
        <time>2016-09-08T10:32:49Z</time>
      </trkpt>
      <trkpt lat="45.95666" lon="4.9212">
        <ele>296</ele>
        <time>2016-09-08T10:32:50Z</time>
      </trkpt>
      <trkpt lat="45.95668" lon="4.92113">
        <ele>300</ele>
        <time>2016-09-08T10:32:51Z</time>
      </trkpt>
      <trkpt lat="45.95669" lon="4.92105">
        <ele>300</ele>
        <time>2016-09-08T10:32:52Z</time>
      </trkpt>
      <trkpt lat="45.9567" lon="4.92098">
        <ele>299</ele>
        <time>2016-09-08T10:32:53Z</time>
      </trkpt>
      <trkpt lat="45.95671" lon="4.9209">
        <ele>299</ele>
        <time>2016-09-08T10:32:54Z</time>
      </trkpt>
      <trkpt lat="45.95671" lon="4.92081">
        <ele>299</ele>
        <time>2016-09-08T10:32:55Z</time>
      </trkpt>
      <trkpt lat="45.95672" lon="4.92072">
        <ele>300</ele>
        <time>2016-09-08T10:32:56Z</time>
      </trkpt>
      <trkpt lat="45.95673" lon="4.92064">
        <ele>300</ele>
        <time>2016-09-08T10:32:57Z</time>
      </trkpt>
      <trkpt lat="45.95674" lon="4.92056">
        <ele>300</ele>
        <time>2016-09-08T10:32:58Z</time>
      </trkpt>
      <trkpt lat="45.95674" lon="4.92048">
        <ele>300</ele>
        <time>2016-09-08T10:32:59Z</time>
      </trkpt>
      <trkpt lat="45.95675" lon="4.9204">
        <ele>300</ele>
        <time>2016-09-08T10:33:00Z</time>
      </trkpt>
      <trkpt lat="45.95674" lon="4.92033">
        <ele>300</ele>
        <time>2016-09-08T10:33:01Z</time>
      </trkpt>
      <trkpt lat="45.95672" lon="4.92027">
        <ele>300</ele>
        <time>2016-09-08T10:33:02Z</time>
      </trkpt>
      <trkpt lat="45.9567" lon="4.92022">
        <ele>300</ele>
        <time>2016-09-08T10:33:03Z</time>
      </trkpt>
      <trkpt lat="45.95668" lon="4.92016">
        <ele>299</ele>
        <time>2016-09-08T10:33:04Z</time>
      </trkpt>
      <trkpt lat="45.95664" lon="4.9201">
        <ele>297</ele>
        <time>2016-09-08T10:33:05Z</time>
      </trkpt>
      <trkpt lat="45.95661" lon="4.92005">
        <ele>297</ele>
        <time>2016-09-08T10:33:06Z</time>
      </trkpt>
      <trkpt lat="45.95657" lon="4.92">
        <ele>297</ele>
        <time>2016-09-08T10:33:07Z</time>
      </trkpt>
      <trkpt lat="45.95653" lon="4.91994">
        <ele>296</ele>
        <time>2016-09-08T10:33:08Z</time>
      </trkpt>
      <trkpt lat="45.95649" lon="4.91989">
        <ele>296</ele>
        <time>2016-09-08T10:33:09Z</time>
      </trkpt>
      <trkpt lat="45.95645" lon="4.91983">
        <ele>296</ele>
        <time>2016-09-08T10:33:10Z</time>
      </trkpt>
      <trkpt lat="45.95642" lon="4.91978">
        <ele>295</ele>
        <time>2016-09-08T10:33:11Z</time>
      </trkpt>
      <trkpt lat="45.95639" lon="4.91973">
        <ele>295</ele>
        <time>2016-09-08T10:33:12Z</time>
      </trkpt>
      <trkpt lat="45.95635" lon="4.91968">
        <ele>295</ele>
        <time>2016-09-08T10:33:13Z</time>
      </trkpt>
      <trkpt lat="45.9563" lon="4.91962">
        <ele>295</ele>
        <time>2016-09-08T10:33:14Z</time>
      </trkpt>
      <trkpt lat="45.95627" lon="4.91957">
        <ele>295</ele>
        <time>2016-09-08T10:33:15Z</time>
      </trkpt>
      <trkpt lat="45.95624" lon="4.91952">
        <ele>295</ele>
        <time>2016-09-08T10:33:16Z</time>
      </trkpt>
      <trkpt lat="45.95619" lon="4.91947">
        <ele>295</ele>
        <time>2016-09-08T10:33:17Z</time>
      </trkpt>
      <trkpt lat="45.95615" lon="4.91943">
        <ele>294</ele>
        <time>2016-09-08T10:33:18Z</time>
      </trkpt>
      <trkpt lat="45.95611" lon="4.91939">
        <ele>294</ele>
        <time>2016-09-08T10:33:19Z</time>
      </trkpt>
      <trkpt lat="45.95607" lon="4.91935">
        <ele>294</ele>
        <time>2016-09-08T10:33:20Z</time>
      </trkpt>
      <trkpt lat="45.95603" lon="4.91932">
        <ele>294</ele>
        <time>2016-09-08T10:33:21Z</time>
      </trkpt>
      <trkpt lat="45.95598" lon="4.91928">
        <ele>294</ele>
        <time>2016-09-08T10:33:22Z</time>
      </trkpt>
      <trkpt lat="45.95593" lon="4.91923">
        <ele>294</ele>
        <time>2016-09-08T10:33:23Z</time>
      </trkpt>
      <trkpt lat="45.95587" lon="4.91917">
        <ele>293</ele>
        <time>2016-09-08T10:33:24Z</time>
      </trkpt>
      <trkpt lat="45.95582" lon="4.91912">
        <ele>293</ele>
        <time>2016-09-08T10:33:25Z</time>
      </trkpt>
      <trkpt lat="45.95576" lon="4.91907">
        <ele>294</ele>
        <time>2016-09-08T10:33:26Z</time>
      </trkpt>
      <trkpt lat="45.9557" lon="4.91903">
        <ele>294</ele>
        <time>2016-09-08T10:33:27Z</time>
      </trkpt>
      <trkpt lat="45.95563" lon="4.91899">
        <ele>294</ele>
        <time>2016-09-08T10:33:28Z</time>
      </trkpt>
      <trkpt lat="45.95557" lon="4.91895">
        <ele>294</ele>
        <time>2016-09-08T10:33:29Z</time>
      </trkpt>
      <trkpt lat="45.95551" lon="4.91891">
        <ele>294</ele>
        <time>2016-09-08T10:33:30Z</time>
      </trkpt>
      <trkpt lat="45.95545" lon="4.91886">
        <ele>294</ele>
        <time>2016-09-08T10:33:31Z</time>
      </trkpt>
      <trkpt lat="45.9554" lon="4.91882">
        <ele>294</ele>
        <time>2016-09-08T10:33:32Z</time>
      </trkpt>
      <trkpt lat="45.95535" lon="4.91879">
        <ele>294</ele>
        <time>2016-09-08T10:33:33Z</time>
      </trkpt>
      <trkpt lat="45.9553" lon="4.91875">
        <ele>295</ele>
        <time>2016-09-08T10:33:34Z</time>
      </trkpt>
      <trkpt lat="45.95526" lon="4.91871">
        <ele>295</ele>
        <time>2016-09-08T10:33:35Z</time>
      </trkpt>
      <trkpt lat="45.95522" lon="4.91868">
        <ele>295</ele>
        <time>2016-09-08T10:33:36Z</time>
      </trkpt>
      <trkpt lat="45.95517" lon="4.91864">
        <ele>295</ele>
        <time>2016-09-08T10:33:37Z</time>
      </trkpt>
      <trkpt lat="45.95513" lon="4.91859">
        <ele>295</ele>
        <time>2016-09-08T10:33:38Z</time>
      </trkpt>
      <trkpt lat="45.95508" lon="4.91855">
        <ele>295</ele>
        <time>2016-09-08T10:33:39Z</time>
      </trkpt>
      <trkpt lat="45.95504" lon="4.9185">
        <ele>295</ele>
        <time>2016-09-08T10:33:40Z</time>
      </trkpt>
      <trkpt lat="45.95499" lon="4.91846">
        <ele>295</ele>
        <time>2016-09-08T10:33:41Z</time>
      </trkpt>
      <trkpt lat="45.95494" lon="4.91841">
        <ele>295</ele>
        <time>2016-09-08T10:33:42Z</time>
      </trkpt>
      <trkpt lat="45.9549" lon="4.91837">
        <ele>295</ele>
        <time>2016-09-08T10:33:43Z</time>
      </trkpt>
      <trkpt lat="45.95486" lon="4.91833">
        <ele>297</ele>
        <time>2016-09-08T10:33:44Z</time>
      </trkpt>
      <trkpt lat="45.95482" lon="4.91828">
        <ele>297</ele>
        <time>2016-09-08T10:33:45Z</time>
      </trkpt>
      <trkpt lat="45.95478" lon="4.91823">
        <ele>297</ele>
        <time>2016-09-08T10:33:46Z</time>
      </trkpt>
      <trkpt lat="45.95475" lon="4.91818">
        <ele>297</ele>
        <time>2016-09-08T10:33:47Z</time>
      </trkpt>
      <trkpt lat="45.95471" lon="4.91812">
        <ele>298</ele>
        <time>2016-09-08T10:33:48Z</time>
      </trkpt>
      <trkpt lat="45.95467" lon="4.91806">
        <ele>298</ele>
        <time>2016-09-08T10:33:49Z</time>
      </trkpt>
      <trkpt lat="45.95463" lon="4.91799">
        <ele>298</ele>
        <time>2016-09-08T10:33:50Z</time>
      </trkpt>
      <trkpt lat="45.95459" lon="4.91793">
        <ele>298</ele>
        <time>2016-09-08T10:33:51Z</time>
      </trkpt>
      <trkpt lat="45.95455" lon="4.91787">
        <ele>298</ele>
        <time>2016-09-08T10:33:52Z</time>
      </trkpt>
      <trkpt lat="45.95452" lon="4.9178">
        <ele>298</ele>
        <time>2016-09-08T10:33:53Z</time>
      </trkpt>
      <trkpt lat="45.95449" lon="4.91774">
        <ele>298</ele>
        <time>2016-09-08T10:33:54Z</time>
      </trkpt>
      <trkpt lat="45.95444" lon="4.91768">
        <ele>298</ele>
        <time>2016-09-08T10:33:55Z</time>
      </trkpt>
      <trkpt lat="45.95442" lon="4.91761">
        <ele>298</ele>
        <time>2016-09-08T10:33:56Z</time>
      </trkpt>
      <trkpt lat="45.95438" lon="4.91755">
        <ele>298</ele>
        <time>2016-09-08T10:33:57Z</time>
      </trkpt>
      <trkpt lat="45.95436" lon="4.91749">
        <ele>300</ele>
        <time>2016-09-08T10:33:58Z</time>
      </trkpt>
      <trkpt lat="45.95434" lon="4.91743">
        <ele>300</ele>
        <time>2016-09-08T10:33:59Z</time>
      </trkpt>
      <trkpt lat="45.95431" lon="4.91738">
        <ele>300</ele>
        <time>2016-09-08T10:34:00Z</time>
      </trkpt>
      <trkpt lat="45.95428" lon="4.9173">
        <ele>300</ele>
        <time>2016-09-08T10:34:02Z</time>
      </trkpt>
      <trkpt lat="45.95427" lon="4.91726">
        <ele>300</ele>
        <time>2016-09-08T10:34:03Z</time>
      </trkpt>
      <trkpt lat="45.95423" lon="4.91718">
        <ele>301</ele>
        <time>2016-09-08T10:34:06Z</time>
      </trkpt>
      <trkpt lat="45.95421" lon="4.91715">
        <ele>301</ele>
        <time>2016-09-08T10:34:07Z</time>
      </trkpt>
      <trkpt lat="45.95418" lon="4.91704">
        <ele>301</ele>
        <time>2016-09-08T10:34:10Z</time>
      </trkpt>
      <trkpt lat="45.95417" lon="4.91701">
        <ele>299</ele>
        <time>2016-09-08T10:34:11Z</time>
      </trkpt>
      <trkpt lat="45.95414" lon="4.91691">
        <ele>300</ele>
        <time>2016-09-08T10:34:14Z</time>
      </trkpt>
      <trkpt lat="45.95413" lon="4.91688">
        <ele>300</ele>
        <time>2016-09-08T10:34:15Z</time>
      </trkpt>
      <trkpt lat="45.95409" lon="4.91678">
        <ele>300</ele>
        <time>2016-09-08T10:34:19Z</time>
      </trkpt>
      <trkpt lat="45.95407" lon="4.91674">
        <ele>300</ele>
        <time>2016-09-08T10:34:20Z</time>
      </trkpt>
      <trkpt lat="45.95404" lon="4.91666">
        <ele>301</ele>
        <time>2016-09-08T10:34:23Z</time>
      </trkpt>
      <trkpt lat="45.95402" lon="4.91663">
        <ele>301</ele>
        <time>2016-09-08T10:34:24Z</time>
      </trkpt>
      <trkpt lat="45.95399" lon="4.91654">
        <ele>301</ele>
        <time>2016-09-08T10:34:26Z</time>
      </trkpt>
      <trkpt lat="45.95397" lon="4.9165">
        <ele>301</ele>
        <time>2016-09-08T10:34:27Z</time>
      </trkpt>
      <trkpt lat="45.95393" lon="4.91641">
        <ele>301</ele>
        <time>2016-09-08T10:34:29Z</time>
      </trkpt>
      <trkpt lat="45.95391" lon="4.91636">
        <ele>301</ele>
        <time>2016-09-08T10:34:30Z</time>
      </trkpt>
      <trkpt lat="45.95387" lon="4.91627">
        <ele>301</ele>
        <time>2016-09-08T10:34:32Z</time>
      </trkpt>
      <trkpt lat="45.95386" lon="4.91622">
        <ele>301</ele>
        <time>2016-09-08T10:34:33Z</time>
      </trkpt>
      <trkpt lat="45.95383" lon="4.91614">
        <ele>301</ele>
        <time>2016-09-08T10:34:35Z</time>
      </trkpt>
      <trkpt lat="45.95381" lon="4.91609">
        <ele>301</ele>
        <time>2016-09-08T10:34:36Z</time>
      </trkpt>
      <trkpt lat="45.95379" lon="4.916">
        <ele>301</ele>
        <time>2016-09-08T10:34:38Z</time>
      </trkpt>
      <trkpt lat="45.95378" lon="4.91597">
        <ele>301</ele>
        <time>2016-09-08T10:34:39Z</time>
      </trkpt>
      <trkpt lat="45.95374" lon="4.91587">
        <ele>300</ele>
        <time>2016-09-08T10:34:42Z</time>
      </trkpt>
      <trkpt lat="45.95374" lon="4.91584">
        <ele>300</ele>
        <time>2016-09-08T10:34:43Z</time>
      </trkpt>
      <trkpt lat="45.95371" lon="4.91575">
        <ele>300</ele>
        <time>2016-09-08T10:34:46Z</time>
      </trkpt>
      <trkpt lat="45.9537" lon="4.91572">
        <ele>300</ele>
        <time>2016-09-08T10:34:47Z</time>
      </trkpt>
      <trkpt lat="45.95368" lon="4.9156">
        <ele>300</ele>
        <time>2016-09-08T10:34:50Z</time>
      </trkpt>
      <trkpt lat="45.95368" lon="4.91557">
        <ele>300</ele>
        <time>2016-09-08T10:34:51Z</time>
      </trkpt>
      <trkpt lat="45.95365" lon="4.91547">
        <ele>300</ele>
        <time>2016-09-08T10:34:54Z</time>
      </trkpt>
      <trkpt lat="45.95364" lon="4.91543">
        <ele>300</ele>
        <time>2016-09-08T10:34:55Z</time>
      </trkpt>
      <trkpt lat="45.95361" lon="4.91532">
        <ele>300</ele>
        <time>2016-09-08T10:34:58Z</time>
      </trkpt>
      <trkpt lat="45.9536" lon="4.91528">
        <ele>299</ele>
        <time>2016-09-08T10:34:59Z</time>
      </trkpt>
      <trkpt lat="45.95358" lon="4.91517">
        <ele>299</ele>
        <time>2016-09-08T10:35:02Z</time>
      </trkpt>
      <trkpt lat="45.95357" lon="4.91512">
        <ele>299</ele>
        <time>2016-09-08T10:35:03Z</time>
      </trkpt>
      <trkpt lat="45.95355" lon="4.91503">
        <ele>299</ele>
        <time>2016-09-08T10:35:05Z</time>
      </trkpt>
      <trkpt lat="45.95355" lon="4.91499">
        <ele>298</ele>
        <time>2016-09-08T10:35:06Z</time>
      </trkpt>
      <trkpt lat="45.95352" lon="4.91487">
        <ele>298</ele>
        <time>2016-09-08T10:35:09Z</time>
      </trkpt>
      <trkpt lat="45.95351" lon="4.91483">
        <ele>298</ele>
        <time>2016-09-08T10:35:10Z</time>
      </trkpt>
      <trkpt lat="45.95348" lon="4.91473">
        <ele>299</ele>
        <time>2016-09-08T10:35:13Z</time>
      </trkpt>
      <trkpt lat="45.95347" lon="4.9147">
        <ele>299</ele>
        <time>2016-09-08T10:35:14Z</time>
      </trkpt>
      <trkpt lat="45.95345" lon="4.91461">
        <ele>299</ele>
        <time>2016-09-08T10:35:17Z</time>
      </trkpt>
      <trkpt lat="45.95343" lon="4.91458">
        <ele>299</ele>
        <time>2016-09-08T10:35:18Z</time>
      </trkpt>
      <trkpt lat="45.95341" lon="4.91448">
        <ele>298</ele>
        <time>2016-09-08T10:35:21Z</time>
      </trkpt>
      <trkpt lat="45.95341" lon="4.91445">
        <ele>298</ele>
        <time>2016-09-08T10:35:22Z</time>
      </trkpt>
      <trkpt lat="45.95339" lon="4.91435">
        <ele>298</ele>
        <time>2016-09-08T10:35:25Z</time>
      </trkpt>
      <trkpt lat="45.95338" lon="4.91432">
        <ele>298</ele>
        <time>2016-09-08T10:35:26Z</time>
      </trkpt>
      <trkpt lat="45.95335" lon="4.91422">
        <ele>298</ele>
        <time>2016-09-08T10:35:29Z</time>
      </trkpt>
      <trkpt lat="45.95334" lon="4.91418">
        <ele>298</ele>
        <time>2016-09-08T10:35:30Z</time>
      </trkpt>
      <trkpt lat="45.95332" lon="4.91406">
        <ele>298</ele>
        <time>2016-09-08T10:35:33Z</time>
      </trkpt>
      <trkpt lat="45.95331" lon="4.91402">
        <ele>298</ele>
        <time>2016-09-08T10:35:34Z</time>
      </trkpt>
      <trkpt lat="45.9533" lon="4.91391">
        <ele>298</ele>
        <time>2016-09-08T10:35:37Z</time>
      </trkpt>
      <trkpt lat="45.9533" lon="4.91387">
        <ele>298</ele>
        <time>2016-09-08T10:35:38Z</time>
      </trkpt>
      <trkpt lat="45.9533" lon="4.91375">
        <ele>298</ele>
        <time>2016-09-08T10:35:42Z</time>
      </trkpt>
      <trkpt lat="45.9533" lon="4.91372">
        <ele>298</ele>
        <time>2016-09-08T10:35:43Z</time>
      </trkpt>
      <trkpt lat="45.95329" lon="4.9136">
        <ele>298</ele>
        <time>2016-09-08T10:35:46Z</time>
      </trkpt>
      <trkpt lat="45.95327" lon="4.91357">
        <ele>297</ele>
        <time>2016-09-08T10:35:47Z</time>
      </trkpt>
      <trkpt lat="45.95324" lon="4.91347">
        <ele>297</ele>
        <time>2016-09-08T10:35:50Z</time>
      </trkpt>
      <trkpt lat="45.95324" lon="4.91343">
        <ele>297</ele>
        <time>2016-09-08T10:35:51Z</time>
      </trkpt>
      <trkpt lat="45.95322" lon="4.91332">
        <ele>297</ele>
        <time>2016-09-08T10:35:54Z</time>
      </trkpt>
      <trkpt lat="45.95322" lon="4.91329">
        <ele>297</ele>
        <time>2016-09-08T10:35:55Z</time>
      </trkpt>
      <trkpt lat="45.95319" lon="4.9132">
        <ele>298</ele>
        <time>2016-09-08T10:35:58Z</time>
      </trkpt>
      <trkpt lat="45.95318" lon="4.91316">
        <ele>298</ele>
        <time>2016-09-08T10:35:59Z</time>
      </trkpt>
      <trkpt lat="45.95318" lon="4.91307">
        <ele>298</ele>
        <time>2016-09-08T10:36:01Z</time>
      </trkpt>
      <trkpt lat="45.95318" lon="4.91303">
        <ele>298</ele>
        <time>2016-09-08T10:36:02Z</time>
      </trkpt>
      <trkpt lat="45.95315" lon="4.91294">
        <ele>298</ele>
        <time>2016-09-08T10:36:05Z</time>
      </trkpt>
      <trkpt lat="45.95314" lon="4.9129">
        <ele>298</ele>
        <time>2016-09-08T10:36:06Z</time>
      </trkpt>
      <trkpt lat="45.95312" lon="4.91279">
        <ele>298</ele>
        <time>2016-09-08T10:36:09Z</time>
      </trkpt>
      <trkpt lat="45.95311" lon="4.91275">
        <ele>298</ele>
        <time>2016-09-08T10:36:10Z</time>
      </trkpt>
      <trkpt lat="45.95309" lon="4.91266">
        <ele>298</ele>
        <time>2016-09-08T10:36:13Z</time>
      </trkpt>
      <trkpt lat="45.95308" lon="4.91263">
        <ele>298</ele>
        <time>2016-09-08T10:36:14Z</time>
      </trkpt>
      <trkpt lat="45.95306" lon="4.91253">
        <ele>298</ele>
        <time>2016-09-08T10:36:17Z</time>
      </trkpt>
      <trkpt lat="45.95305" lon="4.91249">
        <ele>299</ele>
        <time>2016-09-08T10:36:18Z</time>
      </trkpt>
      <trkpt lat="45.95302" lon="4.9124">
        <ele>299</ele>
        <time>2016-09-08T10:36:21Z</time>
      </trkpt>
      <trkpt lat="45.95301" lon="4.91236">
        <ele>299</ele>
        <time>2016-09-08T10:36:22Z</time>
      </trkpt>
      <trkpt lat="45.95298" lon="4.91228">
        <ele>299</ele>
        <time>2016-09-08T10:36:25Z</time>
      </trkpt>
      <trkpt lat="45.95297" lon="4.91225">
        <ele>299</ele>
        <time>2016-09-08T10:36:26Z</time>
      </trkpt>
      <trkpt lat="45.95291" lon="4.91215">
        <ele>299</ele>
        <time>2016-09-08T10:36:30Z</time>
      </trkpt>
      <trkpt lat="45.9529" lon="4.91212">
        <ele>299</ele>
        <time>2016-09-08T10:36:31Z</time>
      </trkpt>
      <trkpt lat="45.95288" lon="4.91202">
        <ele>299</ele>
        <time>2016-09-08T10:36:33Z</time>
      </trkpt>
      <trkpt lat="45.95287" lon="4.91198">
        <ele>299</ele>
        <time>2016-09-08T10:36:34Z</time>
      </trkpt>
      <trkpt lat="45.95282" lon="4.91187">
        <ele>299</ele>
        <time>2016-09-08T10:36:38Z</time>
      </trkpt>
      <trkpt lat="45.95281" lon="4.91184">
        <ele>299</ele>
        <time>2016-09-08T10:36:39Z</time>
      </trkpt>
      <trkpt lat="45.95278" lon="4.91172">
        <ele>299</ele>
        <time>2016-09-08T10:36:43Z</time>
      </trkpt>
      <trkpt lat="45.95277" lon="4.9117">
        <ele>299</ele>
        <time>2016-09-08T10:36:44Z</time>
      </trkpt>
      <trkpt lat="45.95272" lon="4.91161">
        <ele>299</ele>
        <time>2016-09-08T10:36:48Z</time>
      </trkpt>
      <trkpt lat="45.95271" lon="4.91159">
        <ele>299</ele>
        <time>2016-09-08T10:36:49Z</time>
      </trkpt>
      <trkpt lat="45.95266" lon="4.91151">
        <ele>299</ele>
        <time>2016-09-08T10:36:52Z</time>
      </trkpt>
      <trkpt lat="45.95265" lon="4.91147">
        <ele>299</ele>
        <time>2016-09-08T10:36:53Z</time>
      </trkpt>
      <trkpt lat="45.95261" lon="4.91138">
        <ele>299</ele>
        <time>2016-09-08T10:36:56Z</time>
      </trkpt>
      <trkpt lat="45.95259" lon="4.91135">
        <ele>299</ele>
        <time>2016-09-08T10:36:57Z</time>
      </trkpt>
      <trkpt lat="45.95254" lon="4.91128">
        <ele>299</ele>
        <time>2016-09-08T10:37:00Z</time>
      </trkpt>
      <trkpt lat="45.95253" lon="4.91126">
        <ele>299</ele>
        <time>2016-09-08T10:37:01Z</time>
      </trkpt>
      <trkpt lat="45.95246" lon="4.91118">
        <ele>298</ele>
        <time>2016-09-08T10:37:04Z</time>
      </trkpt>
      <trkpt lat="45.95244" lon="4.91115">
        <ele>298</ele>
        <time>2016-09-08T10:37:05Z</time>
      </trkpt>
      <trkpt lat="45.9524" lon="4.91105">
        <ele>298</ele>
        <time>2016-09-08T10:37:08Z</time>
      </trkpt>
      <trkpt lat="45.95237" lon="4.91103">
        <ele>298</ele>
        <time>2016-09-08T10:37:09Z</time>
      </trkpt>
      <trkpt lat="45.95231" lon="4.91095">
        <ele>298</ele>
        <time>2016-09-08T10:37:13Z</time>
      </trkpt>
      <trkpt lat="45.9523" lon="4.91093">
        <ele>298</ele>
        <time>2016-09-08T10:37:14Z</time>
      </trkpt>
      <trkpt lat="45.95224" lon="4.91084">
        <ele>298</ele>
        <time>2016-09-08T10:37:18Z</time>
      </trkpt>
      <trkpt lat="45.95222" lon="4.91083">
        <ele>297</ele>
        <time>2016-09-08T10:37:19Z</time>
      </trkpt>
      <trkpt lat="45.95214" lon="4.91082">
        <ele>297</ele>
        <time>2016-09-08T10:37:23Z</time>
      </trkpt>
      <trkpt lat="45.95212" lon="4.91082">
        <ele>297</ele>
        <time>2016-09-08T10:37:24Z</time>
      </trkpt>
      <trkpt lat="45.95205" lon="4.91077">
        <ele>297</ele>
        <time>2016-09-08T10:37:28Z</time>
      </trkpt>
      <trkpt lat="45.95203" lon="4.91075">
        <ele>297</ele>
        <time>2016-09-08T10:37:29Z</time>
      </trkpt>
      <trkpt lat="45.95196" lon="4.91068">
        <ele>297</ele>
        <time>2016-09-08T10:37:32Z</time>
      </trkpt>
      <trkpt lat="45.95195" lon="4.91066">
        <ele>297</ele>
        <time>2016-09-08T10:37:33Z</time>
      </trkpt>
      <trkpt lat="45.95189" lon="4.91059">
        <ele>297</ele>
        <time>2016-09-08T10:37:35Z</time>
      </trkpt>
      <trkpt lat="45.95187" lon="4.91056">
        <ele>297</ele>
        <time>2016-09-08T10:37:36Z</time>
      </trkpt>
      <trkpt lat="45.95182" lon="4.91049">
        <ele>297</ele>
        <time>2016-09-08T10:37:39Z</time>
      </trkpt>
      <trkpt lat="45.95181" lon="4.91046">
        <ele>297</ele>
        <time>2016-09-08T10:37:40Z</time>
      </trkpt>
      <trkpt lat="45.95178" lon="4.91042">
        <ele>297</ele>
        <time>2016-09-08T10:37:42Z</time>
      </trkpt>
      <trkpt lat="45.95178" lon="4.91042">
        <ele>297</ele>
        <time>2016-09-08T10:37:43Z</time>
      </trkpt>
      <trkpt lat="45.95172" lon="4.9104">
        <ele>297</ele>
        <time>2016-09-08T10:38:59Z</time>
      </trkpt>
      <trkpt lat="45.95171" lon="4.9104">
        <ele>297</ele>
        <time>2016-09-08T10:39:00Z</time>
      </trkpt>
      <trkpt lat="45.95178" lon="4.91032">
        <ele>297</ele>
        <time>2016-09-08T10:43:54Z</time>
      </trkpt>
      <trkpt lat="45.95179" lon="4.91033">
        <ele>297</ele>
        <time>2016-09-08T10:43:55Z</time>
      </trkpt>
      <trkpt lat="45.95185" lon="4.91024">
        <ele>297</ele>
        <time>2016-09-08T10:44:09Z</time>
      </trkpt>
      <trkpt lat="45.95185" lon="4.91022">
        <ele>297</ele>
        <time>2016-09-08T10:44:10Z</time>
      </trkpt>
      <trkpt lat="45.95183" lon="4.91011">
        <ele>298</ele>
        <time>2016-09-08T10:44:14Z</time>
      </trkpt>
      <trkpt lat="45.95182" lon="4.91007">
        <ele>298</ele>
        <time>2016-09-08T10:44:15Z</time>
      </trkpt>
      <trkpt lat="45.95179" lon="4.90995">
        <ele>298</ele>
        <time>2016-09-08T10:44:18Z</time>
      </trkpt>
      <trkpt lat="45.95178" lon="4.90991">
        <ele>298</ele>
        <time>2016-09-08T10:44:19Z</time>
      </trkpt>
      <trkpt lat="45.95177" lon="4.90979">
        <ele>298</ele>
        <time>2016-09-08T10:44:22Z</time>
      </trkpt>
      <trkpt lat="45.95176" lon="4.90975">
        <ele>298</ele>
        <time>2016-09-08T10:44:23Z</time>
      </trkpt>
      <trkpt lat="45.95177" lon="4.90963">
        <ele>298</ele>
        <time>2016-09-08T10:44:26Z</time>
      </trkpt>
      <trkpt lat="45.95177" lon="4.90959">
        <ele>298</ele>
        <time>2016-09-08T10:44:27Z</time>
      </trkpt>
      <trkpt lat="45.95177" lon="4.9095">
        <ele>297</ele>
        <time>2016-09-08T10:44:29Z</time>
      </trkpt>
      <trkpt lat="45.95177" lon="4.90945">
        <ele>297</ele>
        <time>2016-09-08T10:44:30Z</time>
      </trkpt>
      <trkpt lat="45.95177" lon="4.90935">
        <ele>297</ele>
        <time>2016-09-08T10:44:32Z</time>
      </trkpt>
      <trkpt lat="45.95177" lon="4.90929">
        <ele>297</ele>
        <time>2016-09-08T10:44:33Z</time>
      </trkpt>
      <trkpt lat="45.95179" lon="4.90919">
        <ele>297</ele>
        <time>2016-09-08T10:44:35Z</time>
      </trkpt>
      <trkpt lat="45.9518" lon="4.90913">
        <ele>297</ele>
        <time>2016-09-08T10:44:36Z</time>
      </trkpt>
      <trkpt lat="45.95181" lon="4.90902">
        <ele>298</ele>
        <time>2016-09-08T10:44:38Z</time>
      </trkpt>
      <trkpt lat="45.95181" lon="4.90897">
        <ele>298</ele>
        <time>2016-09-08T10:44:39Z</time>
      </trkpt>
      <trkpt lat="45.95182" lon="4.9089">
        <ele>298</ele>
        <time>2016-09-08T10:44:40Z</time>
      </trkpt>
      <trkpt lat="45.95183" lon="4.90883">
        <ele>298</ele>
        <time>2016-09-08T10:44:41Z</time>
      </trkpt>
      <trkpt lat="45.95184" lon="4.90876">
        <ele>298</ele>
        <time>2016-09-08T10:44:42Z</time>
      </trkpt>
      <trkpt lat="45.95186" lon="4.90869">
        <ele>298</ele>
        <time>2016-09-08T10:44:43Z</time>
      </trkpt>
      <trkpt lat="45.95186" lon="4.90862">
        <ele>298</ele>
        <time>2016-09-08T10:44:44Z</time>
      </trkpt>
      <trkpt lat="45.95187" lon="4.90855">
        <ele>298</ele>
        <time>2016-09-08T10:44:45Z</time>
      </trkpt>
      <trkpt lat="45.95188" lon="4.90848">
        <ele>298</ele>
        <time>2016-09-08T10:44:46Z</time>
      </trkpt>
      <trkpt lat="45.95189" lon="4.90841">
        <ele>298</ele>
        <time>2016-09-08T10:44:47Z</time>
      </trkpt>
      <trkpt lat="45.95189" lon="4.90835">
        <ele>298</ele>
        <time>2016-09-08T10:44:48Z</time>
      </trkpt>
      <trkpt lat="45.9519" lon="4.90828">
        <ele>299</ele>
        <time>2016-09-08T10:44:49Z</time>
      </trkpt>
      <trkpt lat="45.95189" lon="4.9082">
        <ele>299</ele>
        <time>2016-09-08T10:44:50Z</time>
      </trkpt>
      <trkpt lat="45.95189" lon="4.90813">
        <ele>299</ele>
        <time>2016-09-08T10:44:51Z</time>
      </trkpt>
      <trkpt lat="45.95188" lon="4.90806">
        <ele>299</ele>
        <time>2016-09-08T10:44:52Z</time>
      </trkpt>
      <trkpt lat="45.95187" lon="4.90799">
        <ele>298</ele>
        <time>2016-09-08T10:44:53Z</time>
      </trkpt>
      <trkpt lat="45.95185" lon="4.90793">
        <ele>298</ele>
        <time>2016-09-08T10:44:54Z</time>
      </trkpt>
      <trkpt lat="45.95183" lon="4.90787">
        <ele>298</ele>
        <time>2016-09-08T10:44:55Z</time>
      </trkpt>
      <trkpt lat="45.95182" lon="4.9078">
        <ele>298</ele>
        <time>2016-09-08T10:44:56Z</time>
      </trkpt>
      <trkpt lat="45.95181" lon="4.90772">
        <ele>298</ele>
        <time>2016-09-08T10:44:57Z</time>
      </trkpt>
      <trkpt lat="45.95181" lon="4.90764">
        <ele>298</ele>
        <time>2016-09-08T10:44:58Z</time>
      </trkpt>
      <trkpt lat="45.9518" lon="4.90756">
        <ele>298</ele>
        <time>2016-09-08T10:44:59Z</time>
      </trkpt>
      <trkpt lat="45.9518" lon="4.90747">
        <ele>297</ele>
        <time>2016-09-08T10:45:00Z</time>
      </trkpt>
      <trkpt lat="45.95181" lon="4.90738">
        <ele>297</ele>
        <time>2016-09-08T10:45:01Z</time>
      </trkpt>
      <trkpt lat="45.95181" lon="4.9073">
        <ele>297</ele>
        <time>2016-09-08T10:45:02Z</time>
      </trkpt>
      <trkpt lat="45.95181" lon="4.90722">
        <ele>297</ele>
        <time>2016-09-08T10:45:03Z</time>
      </trkpt>
      <trkpt lat="45.9518" lon="4.90714">
        <ele>297</ele>
        <time>2016-09-08T10:45:04Z</time>
      </trkpt>
      <trkpt lat="45.9518" lon="4.90705">
        <ele>297</ele>
        <time>2016-09-08T10:45:05Z</time>
      </trkpt>
      <trkpt lat="45.95181" lon="4.90698">
        <ele>297</ele>
        <time>2016-09-08T10:45:06Z</time>
      </trkpt>
      <trkpt lat="45.95181" lon="4.90691">
        <ele>297</ele>
        <time>2016-09-08T10:45:07Z</time>
      </trkpt>
      <trkpt lat="45.95182" lon="4.90684">
        <ele>297</ele>
        <time>2016-09-08T10:45:08Z</time>
      </trkpt>
      <trkpt lat="45.95182" lon="4.90678">
        <ele>296</ele>
        <time>2016-09-08T10:45:09Z</time>
      </trkpt>
      <trkpt lat="45.95183" lon="4.9067">
        <ele>296</ele>
        <time>2016-09-08T10:45:10Z</time>
      </trkpt>
      <trkpt lat="45.95184" lon="4.90663">
        <ele>295</ele>
        <time>2016-09-08T10:45:11Z</time>
      </trkpt>
      <trkpt lat="45.95184" lon="4.90657">
        <ele>295</ele>
        <time>2016-09-08T10:45:12Z</time>
      </trkpt>
      <trkpt lat="45.95184" lon="4.90649">
        <ele>296</ele>
        <time>2016-09-08T10:45:13Z</time>
      </trkpt>
      <trkpt lat="45.95185" lon="4.90642">
        <ele>295</ele>
        <time>2016-09-08T10:45:14Z</time>
      </trkpt>
      <trkpt lat="45.95185" lon="4.90635">
        <ele>295</ele>
        <time>2016-09-08T10:45:15Z</time>
      </trkpt>
      <trkpt lat="45.95185" lon="4.90627">
        <ele>295</ele>
        <time>2016-09-08T10:45:16Z</time>
      </trkpt>
      <trkpt lat="45.95185" lon="4.90618">
        <ele>295</ele>
        <time>2016-09-08T10:45:17Z</time>
      </trkpt>
      <trkpt lat="45.95186" lon="4.9061">
        <ele>295</ele>
        <time>2016-09-08T10:45:18Z</time>
      </trkpt>
      <trkpt lat="45.95186" lon="4.90602">
        <ele>295</ele>
        <time>2016-09-08T10:45:19Z</time>
      </trkpt>
      <trkpt lat="45.95186" lon="4.90594">
        <ele>295</ele>
        <time>2016-09-08T10:45:20Z</time>
      </trkpt>
      <trkpt lat="45.95187" lon="4.90586">
        <ele>294</ele>
        <time>2016-09-08T10:45:21Z</time>
      </trkpt>
      <trkpt lat="45.95187" lon="4.90578">
        <ele>293</ele>
        <time>2016-09-08T10:45:22Z</time>
      </trkpt>
      <trkpt lat="45.95187" lon="4.9057">
        <ele>293</ele>
        <time>2016-09-08T10:45:23Z</time>
      </trkpt>
      <trkpt lat="45.95189" lon="4.90561">
        <ele>293</ele>
        <time>2016-09-08T10:45:24Z</time>
      </trkpt>
      <trkpt lat="45.9519" lon="4.90552">
        <ele>293</ele>
        <time>2016-09-08T10:45:25Z</time>
      </trkpt>
      <trkpt lat="45.9519" lon="4.90543">
        <ele>293</ele>
        <time>2016-09-08T10:45:26Z</time>
      </trkpt>
      <trkpt lat="45.95191" lon="4.90533">
        <ele>293</ele>
        <time>2016-09-08T10:45:27Z</time>
      </trkpt>
      <trkpt lat="45.95192" lon="4.90524">
        <ele>292</ele>
        <time>2016-09-08T10:45:28Z</time>
      </trkpt>
      <trkpt lat="45.95192" lon="4.90515">
        <ele>292</ele>
        <time>2016-09-08T10:45:29Z</time>
      </trkpt>
      <trkpt lat="45.95193" lon="4.90506">
        <ele>292</ele>
        <time>2016-09-08T10:45:30Z</time>
      </trkpt>
      <trkpt lat="45.95193" lon="4.90498">
        <ele>291</ele>
        <time>2016-09-08T10:45:31Z</time>
      </trkpt>
      <trkpt lat="45.95193" lon="4.90489">
        <ele>290</ele>
        <time>2016-09-08T10:45:32Z</time>
      </trkpt>
      <trkpt lat="45.95194" lon="4.90481">
        <ele>290</ele>
        <time>2016-09-08T10:45:33Z</time>
      </trkpt>
      <trkpt lat="45.95194" lon="4.90473">
        <ele>290</ele>
        <time>2016-09-08T10:45:34Z</time>
      </trkpt>
      <trkpt lat="45.95195" lon="4.90465">
        <ele>290</ele>
        <time>2016-09-08T10:45:35Z</time>
      </trkpt>
      <trkpt lat="45.95195" lon="4.90457">
        <ele>290</ele>
        <time>2016-09-08T10:45:36Z</time>
      </trkpt>
      <trkpt lat="45.95195" lon="4.90448">
        <ele>290</ele>
        <time>2016-09-08T10:45:37Z</time>
      </trkpt>
      <trkpt lat="45.95194" lon="4.9044">
        <ele>290</ele>
        <time>2016-09-08T10:45:38Z</time>
      </trkpt>
      <trkpt lat="45.95194" lon="4.90432">
        <ele>289</ele>
        <time>2016-09-08T10:45:39Z</time>
      </trkpt>
      <trkpt lat="45.95194" lon="4.90423">
        <ele>289</ele>
        <time>2016-09-08T10:45:40Z</time>
      </trkpt>
      <trkpt lat="45.95195" lon="4.90415">
        <ele>288</ele>
        <time>2016-09-08T10:45:41Z</time>
      </trkpt>
      <trkpt lat="45.95196" lon="4.90407">
        <ele>288</ele>
        <time>2016-09-08T10:45:42Z</time>
      </trkpt>
      <trkpt lat="45.95196" lon="4.90398">
        <ele>288</ele>
        <time>2016-09-08T10:45:43Z</time>
      </trkpt>
      <trkpt lat="45.95198" lon="4.90388">
        <ele>288</ele>
        <time>2016-09-08T10:45:44Z</time>
      </trkpt>
      <trkpt lat="45.952" lon="4.90379">
        <ele>288</ele>
        <time>2016-09-08T10:45:45Z</time>
      </trkpt>
      <trkpt lat="45.95201" lon="4.9037">
        <ele>288</ele>
        <time>2016-09-08T10:45:46Z</time>
      </trkpt>
      <trkpt lat="45.95202" lon="4.90361">
        <ele>288</ele>
        <time>2016-09-08T10:45:47Z</time>
      </trkpt>
      <trkpt lat="45.95204" lon="4.90353">
        <ele>288</ele>
        <time>2016-09-08T10:45:48Z</time>
      </trkpt>
      <trkpt lat="45.95206" lon="4.90344">
        <ele>288</ele>
        <time>2016-09-08T10:45:49Z</time>
      </trkpt>
      <trkpt lat="45.95207" lon="4.90335">
        <ele>288</ele>
        <time>2016-09-08T10:45:50Z</time>
      </trkpt>
      <trkpt lat="45.95209" lon="4.90327">
        <ele>287</ele>
        <time>2016-09-08T10:45:51Z</time>
      </trkpt>
      <trkpt lat="45.95211" lon="4.90318">
        <ele>287</ele>
        <time>2016-09-08T10:45:52Z</time>
      </trkpt>
      <trkpt lat="45.95212" lon="4.9031">
        <ele>287</ele>
        <time>2016-09-08T10:45:53Z</time>
      </trkpt>
      <trkpt lat="45.95214" lon="4.90301">
        <ele>287</ele>
        <time>2016-09-08T10:45:54Z</time>
      </trkpt>
      <trkpt lat="45.95215" lon="4.90293">
        <ele>287</ele>
        <time>2016-09-08T10:45:55Z</time>
      </trkpt>
      <trkpt lat="45.95217" lon="4.90285">
        <ele>287</ele>
        <time>2016-09-08T10:45:56Z</time>
      </trkpt>
      <trkpt lat="45.95218" lon="4.90277">
        <ele>287</ele>
        <time>2016-09-08T10:45:57Z</time>
      </trkpt>
      <trkpt lat="45.9522" lon="4.90269">
        <ele>287</ele>
        <time>2016-09-08T10:45:58Z</time>
      </trkpt>
      <trkpt lat="45.9522" lon="4.90261">
        <ele>287</ele>
        <time>2016-09-08T10:45:59Z</time>
      </trkpt>
      <trkpt lat="45.9522" lon="4.90253">
        <ele>287</ele>
        <time>2016-09-08T10:46:00Z</time>
      </trkpt>
      <trkpt lat="45.95219" lon="4.90245">
        <ele>286</ele>
        <time>2016-09-08T10:46:01Z</time>
      </trkpt>
      <trkpt lat="45.95219" lon="4.90237">
        <ele>286</ele>
        <time>2016-09-08T10:46:02Z</time>
      </trkpt>
      <trkpt lat="45.95218" lon="4.90228">
        <ele>286</ele>
        <time>2016-09-08T10:46:03Z</time>
      </trkpt>
      <trkpt lat="45.95218" lon="4.9022">
        <ele>286</ele>
        <time>2016-09-08T10:46:04Z</time>
      </trkpt>
      <trkpt lat="45.95217" lon="4.90211">
        <ele>286</ele>
        <time>2016-09-08T10:46:05Z</time>
      </trkpt>
      <trkpt lat="45.95217" lon="4.90203">
        <ele>286</ele>
        <time>2016-09-08T10:46:06Z</time>
      </trkpt>
      <trkpt lat="45.95215" lon="4.90195">
        <ele>286</ele>
        <time>2016-09-08T10:46:07Z</time>
      </trkpt>
      <trkpt lat="45.95214" lon="4.90187">
        <ele>286</ele>
        <time>2016-09-08T10:46:08Z</time>
      </trkpt>
      <trkpt lat="45.95211" lon="4.90179">
        <ele>286</ele>
        <time>2016-09-08T10:46:09Z</time>
      </trkpt>
      <trkpt lat="45.95207" lon="4.90173">
        <ele>287</ele>
        <time>2016-09-08T10:46:10Z</time>
      </trkpt>
      <trkpt lat="45.95203" lon="4.90169">
        <ele>287</ele>
        <time>2016-09-08T10:46:11Z</time>
      </trkpt>
      <trkpt lat="45.95197" lon="4.90166">
        <ele>287</ele>
        <time>2016-09-08T10:46:12Z</time>
      </trkpt>
      <trkpt lat="45.95191" lon="4.90166">
        <ele>287</ele>
        <time>2016-09-08T10:46:13Z</time>
      </trkpt>
      <trkpt lat="45.95185" lon="4.90167">
        <ele>287</ele>
        <time>2016-09-08T10:46:14Z</time>
      </trkpt>
      <trkpt lat="45.95179" lon="4.90169">
        <ele>287</ele>
        <time>2016-09-08T10:46:15Z</time>
      </trkpt>
      <trkpt lat="45.95173" lon="4.90171">
        <ele>287</ele>
        <time>2016-09-08T10:46:16Z</time>
      </trkpt>
      <trkpt lat="45.95167" lon="4.90172">
        <ele>287</ele>
        <time>2016-09-08T10:46:17Z</time>
      </trkpt>
      <trkpt lat="45.95161" lon="4.90172">
        <ele>287</ele>
        <time>2016-09-08T10:46:18Z</time>
      </trkpt>
      <trkpt lat="45.95155" lon="4.90173">
        <ele>287</ele>
        <time>2016-09-08T10:46:19Z</time>
      </trkpt>
      <trkpt lat="45.95149" lon="4.90172">
        <ele>287</ele>
        <time>2016-09-08T10:46:20Z</time>
      </trkpt>
      <trkpt lat="45.95144" lon="4.9017">
        <ele>287</ele>
        <time>2016-09-08T10:46:21Z</time>
      </trkpt>
      <trkpt lat="45.95138" lon="4.90167">
        <ele>287</ele>
        <time>2016-09-08T10:46:22Z</time>
      </trkpt>
      <trkpt lat="45.95133" lon="4.90164">
        <ele>286</ele>
        <time>2016-09-08T10:46:23Z</time>
      </trkpt>
      <trkpt lat="45.95128" lon="4.90161">
        <ele>286</ele>
        <time>2016-09-08T10:46:24Z</time>
      </trkpt>
      <trkpt lat="45.95122" lon="4.90157">
        <ele>286</ele>
        <time>2016-09-08T10:46:25Z</time>
      </trkpt>
      <trkpt lat="45.95118" lon="4.90153">
        <ele>286</ele>
        <time>2016-09-08T10:46:26Z</time>
      </trkpt>
      <trkpt lat="45.95113" lon="4.90148">
        <ele>286</ele>
        <time>2016-09-08T10:46:27Z</time>
      </trkpt>
      <trkpt lat="45.95108" lon="4.90143">
        <ele>286</ele>
        <time>2016-09-08T10:46:28Z</time>
      </trkpt>
      <trkpt lat="45.95104" lon="4.90138">
        <ele>286</ele>
        <time>2016-09-08T10:46:29Z</time>
      </trkpt>
      <trkpt lat="45.95099" lon="4.90133">
        <ele>286</ele>
        <time>2016-09-08T10:46:30Z</time>
      </trkpt>
      <trkpt lat="45.95094" lon="4.90128">
        <ele>286</ele>
        <time>2016-09-08T10:46:31Z</time>
      </trkpt>
      <trkpt lat="45.9509" lon="4.90122">
        <ele>286</ele>
        <time>2016-09-08T10:46:32Z</time>
      </trkpt>
      <trkpt lat="45.95085" lon="4.90115">
        <ele>286</ele>
        <time>2016-09-08T10:46:33Z</time>
      </trkpt>
      <trkpt lat="45.95081" lon="4.90109">
        <ele>285</ele>
        <time>2016-09-08T10:46:34Z</time>
      </trkpt>
      <trkpt lat="45.95076" lon="4.90103">
        <ele>285</ele>
        <time>2016-09-08T10:46:35Z</time>
      </trkpt>
      <trkpt lat="45.95071" lon="4.90097">
        <ele>285</ele>
        <time>2016-09-08T10:46:36Z</time>
      </trkpt>
      <trkpt lat="45.95067" lon="4.90091">
        <ele>285</ele>
        <time>2016-09-08T10:46:37Z</time>
      </trkpt>
      <trkpt lat="45.95062" lon="4.90085">
        <ele>285</ele>
        <time>2016-09-08T10:46:38Z</time>
      </trkpt>
      <trkpt lat="45.95058" lon="4.9008">
        <ele>285</ele>
        <time>2016-09-08T10:46:39Z</time>
      </trkpt>
      <trkpt lat="45.95053" lon="4.90074">
        <ele>285</ele>
        <time>2016-09-08T10:46:40Z</time>
      </trkpt>
      <trkpt lat="45.95049" lon="4.90068">
        <ele>285</ele>
        <time>2016-09-08T10:46:41Z</time>
      </trkpt>
      <trkpt lat="45.95044" lon="4.90062">
        <ele>285</ele>
        <time>2016-09-08T10:46:42Z</time>
      </trkpt>
      <trkpt lat="45.9504" lon="4.90056">
        <ele>285</ele>
        <time>2016-09-08T10:46:43Z</time>
      </trkpt>
      <trkpt lat="45.95035" lon="4.9005">
        <ele>285</ele>
        <time>2016-09-08T10:46:44Z</time>
      </trkpt>
      <trkpt lat="45.95031" lon="4.90043">
        <ele>284</ele>
        <time>2016-09-08T10:46:45Z</time>
      </trkpt>
      <trkpt lat="45.95027" lon="4.90035">
        <ele>284</ele>
        <time>2016-09-08T10:46:46Z</time>
      </trkpt>
      <trkpt lat="45.95023" lon="4.90028">
        <ele>284</ele>
        <time>2016-09-08T10:46:47Z</time>
      </trkpt>
      <trkpt lat="45.95019" lon="4.9002">
        <ele>284</ele>
        <time>2016-09-08T10:46:48Z</time>
      </trkpt>
      <trkpt lat="45.95014" lon="4.90012">
        <ele>284</ele>
        <time>2016-09-08T10:46:49Z</time>
      </trkpt>
      <trkpt lat="45.9501" lon="4.90005">
        <ele>284</ele>
        <time>2016-09-08T10:46:50Z</time>
      </trkpt>
      <trkpt lat="45.95006" lon="4.89998">
        <ele>283</ele>
        <time>2016-09-08T10:46:51Z</time>
      </trkpt>
      <trkpt lat="45.95002" lon="4.89991">
        <ele>283</ele>
        <time>2016-09-08T10:46:52Z</time>
      </trkpt>
      <trkpt lat="45.94998" lon="4.89984">
        <ele>283</ele>
        <time>2016-09-08T10:46:53Z</time>
      </trkpt>
      <trkpt lat="45.94995" lon="4.89977">
        <ele>284</ele>
        <time>2016-09-08T10:46:54Z</time>
      </trkpt>
      <trkpt lat="45.94991" lon="4.8997">
        <ele>284</ele>
        <time>2016-09-08T10:46:55Z</time>
      </trkpt>
      <trkpt lat="45.94987" lon="4.89964">
        <ele>284</ele>
        <time>2016-09-08T10:46:56Z</time>
      </trkpt>
      <trkpt lat="45.94984" lon="4.89958">
        <ele>284</ele>
        <time>2016-09-08T10:46:57Z</time>
      </trkpt>
      <trkpt lat="45.9498" lon="4.89953">
        <ele>284</ele>
        <time>2016-09-08T10:46:58Z</time>
      </trkpt>
      <trkpt lat="45.94976" lon="4.89947">
        <ele>284</ele>
        <time>2016-09-08T10:46:59Z</time>
      </trkpt>
      <trkpt lat="45.94972" lon="4.89942">
        <ele>284</ele>
        <time>2016-09-08T10:47:00Z</time>
      </trkpt>
      <trkpt lat="45.94968" lon="4.89937">
        <ele>284</ele>
        <time>2016-09-08T10:47:01Z</time>
      </trkpt>
      <trkpt lat="45.94964" lon="4.89931">
        <ele>284</ele>
        <time>2016-09-08T10:47:02Z</time>
      </trkpt>
      <trkpt lat="45.9496" lon="4.89926">
        <ele>284</ele>
        <time>2016-09-08T10:47:03Z</time>
      </trkpt>
      <trkpt lat="45.94955" lon="4.8992">
        <ele>284</ele>
        <time>2016-09-08T10:47:04Z</time>
      </trkpt>
      <trkpt lat="45.94951" lon="4.89914">
        <ele>284</ele>
        <time>2016-09-08T10:47:05Z</time>
      </trkpt>
      <trkpt lat="45.94946" lon="4.89908">
        <ele>284</ele>
        <time>2016-09-08T10:47:06Z</time>
      </trkpt>
      <trkpt lat="45.94942" lon="4.89902">
        <ele>284</ele>
        <time>2016-09-08T10:47:07Z</time>
      </trkpt>
      <trkpt lat="45.94939" lon="4.89896">
        <ele>284</ele>
        <time>2016-09-08T10:47:08Z</time>
      </trkpt>
      <trkpt lat="45.94936" lon="4.89889">
        <ele>284</ele>
        <time>2016-09-08T10:47:09Z</time>
      </trkpt>
      <trkpt lat="45.94933" lon="4.89882">
        <ele>284</ele>
        <time>2016-09-08T10:47:10Z</time>
      </trkpt>
      <trkpt lat="45.94931" lon="4.89875">
        <ele>284</ele>
        <time>2016-09-08T10:47:11Z</time>
      </trkpt>
      <trkpt lat="45.9493" lon="4.89867">
        <ele>284</ele>
        <time>2016-09-08T10:47:12Z</time>
      </trkpt>
      <trkpt lat="45.94929" lon="4.8986">
        <ele>284</ele>
        <time>2016-09-08T10:47:13Z</time>
      </trkpt>
      <trkpt lat="45.94928" lon="4.89852">
        <ele>284</ele>
        <time>2016-09-08T10:47:14Z</time>
      </trkpt>
      <trkpt lat="45.94927" lon="4.89844">
        <ele>284</ele>
        <time>2016-09-08T10:47:15Z</time>
      </trkpt>
      <trkpt lat="45.94926" lon="4.89836">
        <ele>284</ele>
        <time>2016-09-08T10:47:16Z</time>
      </trkpt>
      <trkpt lat="45.94927" lon="4.89828">
        <ele>284</ele>
        <time>2016-09-08T10:47:17Z</time>
      </trkpt>
      <trkpt lat="45.94927" lon="4.8982">
        <ele>284</ele>
        <time>2016-09-08T10:47:18Z</time>
      </trkpt>
      <trkpt lat="45.94928" lon="4.89811">
        <ele>284</ele>
        <time>2016-09-08T10:47:19Z</time>
      </trkpt>
      <trkpt lat="45.94929" lon="4.89802">
        <ele>284</ele>
        <time>2016-09-08T10:47:20Z</time>
      </trkpt>
      <trkpt lat="45.94931" lon="4.89794">
        <ele>284</ele>
        <time>2016-09-08T10:47:21Z</time>
      </trkpt>
      <trkpt lat="45.94933" lon="4.89785">
        <ele>284</ele>
        <time>2016-09-08T10:47:22Z</time>
      </trkpt>
      <trkpt lat="45.94935" lon="4.89776">
        <ele>284</ele>
        <time>2016-09-08T10:47:23Z</time>
      </trkpt>
      <trkpt lat="45.94937" lon="4.89768">
        <ele>284</ele>
        <time>2016-09-08T10:47:24Z</time>
      </trkpt>
      <trkpt lat="45.94939" lon="4.8976">
        <ele>284</ele>
        <time>2016-09-08T10:47:25Z</time>
      </trkpt>
      <trkpt lat="45.94941" lon="4.89752">
        <ele>284</ele>
        <time>2016-09-08T10:47:26Z</time>
      </trkpt>
      <trkpt lat="45.94943" lon="4.89744">
        <ele>284</ele>
        <time>2016-09-08T10:47:27Z</time>
      </trkpt>
      <trkpt lat="45.94945" lon="4.89737">
        <ele>284</ele>
        <time>2016-09-08T10:47:28Z</time>
      </trkpt>
      <trkpt lat="45.94947" lon="4.89729">
        <ele>284</ele>
        <time>2016-09-08T10:47:29Z</time>
      </trkpt>
      <trkpt lat="45.94949" lon="4.89721">
        <ele>284</ele>
        <time>2016-09-08T10:47:30Z</time>
      </trkpt>
      <trkpt lat="45.94951" lon="4.89713">
        <ele>284</ele>
        <time>2016-09-08T10:47:31Z</time>
      </trkpt>
      <trkpt lat="45.94954" lon="4.89705">
        <ele>284</ele>
        <time>2016-09-08T10:47:32Z</time>
      </trkpt>
      <trkpt lat="45.94956" lon="4.89697">
        <ele>284</ele>
        <time>2016-09-08T10:47:33Z</time>
      </trkpt>
      <trkpt lat="45.94958" lon="4.8969">
        <ele>284</ele>
        <time>2016-09-08T10:47:34Z</time>
      </trkpt>
      <trkpt lat="45.94961" lon="4.89682">
        <ele>284</ele>
        <time>2016-09-08T10:47:35Z</time>
      </trkpt>
      <trkpt lat="45.94963" lon="4.89674">
        <ele>284</ele>
        <time>2016-09-08T10:47:36Z</time>
      </trkpt>
      <trkpt lat="45.94965" lon="4.89667">
        <ele>284</ele>
        <time>2016-09-08T10:47:37Z</time>
      </trkpt>
      <trkpt lat="45.94967" lon="4.89661">
        <ele>285</ele>
        <time>2016-09-08T10:47:38Z</time>
      </trkpt>
      <trkpt lat="45.94969" lon="4.89654">
        <ele>285</ele>
        <time>2016-09-08T10:47:39Z</time>
      </trkpt>
      <trkpt lat="45.94971" lon="4.89646">
        <ele>285</ele>
        <time>2016-09-08T10:47:40Z</time>
      </trkpt>
      <trkpt lat="45.94974" lon="4.89638">
        <ele>285</ele>
        <time>2016-09-08T10:47:41Z</time>
      </trkpt>
      <trkpt lat="45.94976" lon="4.8963">
        <ele>285</ele>
        <time>2016-09-08T10:47:42Z</time>
      </trkpt>
      <trkpt lat="45.94978" lon="4.89622">
        <ele>285</ele>
        <time>2016-09-08T10:47:43Z</time>
      </trkpt>
      <trkpt lat="45.94981" lon="4.89614">
        <ele>285</ele>
        <time>2016-09-08T10:47:44Z</time>
      </trkpt>
      <trkpt lat="45.94983" lon="4.89605">
        <ele>285</ele>
        <time>2016-09-08T10:47:45Z</time>
      </trkpt>
      <trkpt lat="45.94986" lon="4.89596">
        <ele>284</ele>
        <time>2016-09-08T10:47:46Z</time>
      </trkpt>
      <trkpt lat="45.94988" lon="4.89588">
        <ele>284</ele>
        <time>2016-09-08T10:47:47Z</time>
      </trkpt>
      <trkpt lat="45.9499" lon="4.89579">
        <ele>284</ele>
        <time>2016-09-08T10:47:48Z</time>
      </trkpt>
      <trkpt lat="45.94993" lon="4.8957">
        <ele>284</ele>
        <time>2016-09-08T10:47:49Z</time>
      </trkpt>
      <trkpt lat="45.94996" lon="4.89561">
        <ele>284</ele>
        <time>2016-09-08T10:47:50Z</time>
      </trkpt>
      <trkpt lat="45.94998" lon="4.89553">
        <ele>284</ele>
        <time>2016-09-08T10:47:51Z</time>
      </trkpt>
      <trkpt lat="45.95" lon="4.89545">
        <ele>283</ele>
        <time>2016-09-08T10:47:52Z</time>
      </trkpt>
      <trkpt lat="45.95004" lon="4.89538">
        <ele>283</ele>
        <time>2016-09-08T10:47:53Z</time>
      </trkpt>
      <trkpt lat="45.95008" lon="4.89531">
        <ele>283</ele>
        <time>2016-09-08T10:47:54Z</time>
      </trkpt>
      <trkpt lat="45.95013" lon="4.89525">
        <ele>283</ele>
        <time>2016-09-08T10:47:55Z</time>
      </trkpt>
      <trkpt lat="45.95018" lon="4.89521">
        <ele>283</ele>
        <time>2016-09-08T10:47:56Z</time>
      </trkpt>
      <trkpt lat="45.95025" lon="4.89519">
        <ele>283</ele>
        <time>2016-09-08T10:47:57Z</time>
      </trkpt>
      <trkpt lat="45.95031" lon="4.89517">
        <ele>283</ele>
        <time>2016-09-08T10:47:58Z</time>
      </trkpt>
      <trkpt lat="45.95037" lon="4.89515">
        <ele>283</ele>
        <time>2016-09-08T10:47:59Z</time>
      </trkpt>
      <trkpt lat="45.95044" lon="4.89513">
        <ele>283</ele>
        <time>2016-09-08T10:48:00Z</time>
      </trkpt>
      <trkpt lat="45.9505" lon="4.89512">
        <ele>283</ele>
        <time>2016-09-08T10:48:01Z</time>
      </trkpt>
      <trkpt lat="45.95056" lon="4.8951">
        <ele>283</ele>
        <time>2016-09-08T10:48:02Z</time>
      </trkpt>
      <trkpt lat="45.95062" lon="4.89509">
        <ele>282</ele>
        <time>2016-09-08T10:48:03Z</time>
      </trkpt>
      <trkpt lat="45.95068" lon="4.89507">
        <ele>282</ele>
        <time>2016-09-08T10:48:04Z</time>
      </trkpt>
      <trkpt lat="45.95074" lon="4.89505">
        <ele>282</ele>
        <time>2016-09-08T10:48:05Z</time>
      </trkpt>
      <trkpt lat="45.9508" lon="4.895">
        <ele>282</ele>
        <time>2016-09-08T10:48:06Z</time>
      </trkpt>
      <trkpt lat="45.95084" lon="4.89494">
        <ele>282</ele>
        <time>2016-09-08T10:48:07Z</time>
      </trkpt>
      <trkpt lat="45.95088" lon="4.89486">
        <ele>282</ele>
        <time>2016-09-08T10:48:08Z</time>
      </trkpt>
      <trkpt lat="45.95088" lon="4.89477">
        <ele>282</ele>
        <time>2016-09-08T10:48:09Z</time>
      </trkpt>
      <trkpt lat="45.95087" lon="4.89468">
        <ele>282</ele>
        <time>2016-09-08T10:48:10Z</time>
      </trkpt>
      <trkpt lat="45.95085" lon="4.8946">
        <ele>282</ele>
        <time>2016-09-08T10:48:11Z</time>
      </trkpt>
      <trkpt lat="45.95082" lon="4.89451">
        <ele>282</ele>
        <time>2016-09-08T10:48:12Z</time>
      </trkpt>
      <trkpt lat="45.95081" lon="4.89443">
        <ele>282</ele>
        <time>2016-09-08T10:48:13Z</time>
      </trkpt>
      <trkpt lat="45.95079" lon="4.89434">
        <ele>282</ele>
        <time>2016-09-08T10:48:14Z</time>
      </trkpt>
      <trkpt lat="45.95078" lon="4.89425">
        <ele>282</ele>
        <time>2016-09-08T10:48:15Z</time>
      </trkpt>
      <trkpt lat="45.95077" lon="4.89415">
        <ele>282</ele>
        <time>2016-09-08T10:48:16Z</time>
      </trkpt>
      <trkpt lat="45.95076" lon="4.89405">
        <ele>283</ele>
        <time>2016-09-08T10:48:17Z</time>
      </trkpt>
      <trkpt lat="45.95075" lon="4.89396">
        <ele>283</ele>
        <time>2016-09-08T10:48:18Z</time>
      </trkpt>
      <trkpt lat="45.95074" lon="4.89387">
        <ele>283</ele>
        <time>2016-09-08T10:48:19Z</time>
      </trkpt>
      <trkpt lat="45.95074" lon="4.89377">
        <ele>283</ele>
        <time>2016-09-08T10:48:20Z</time>
      </trkpt>
      <trkpt lat="45.95075" lon="4.89368">
        <ele>283</ele>
        <time>2016-09-08T10:48:21Z</time>
      </trkpt>
      <trkpt lat="45.95075" lon="4.89358">
        <ele>283</ele>
        <time>2016-09-08T10:48:22Z</time>
      </trkpt>
      <trkpt lat="45.95075" lon="4.8935">
        <ele>283</ele>
        <time>2016-09-08T10:48:23Z</time>
      </trkpt>
      <trkpt lat="45.95075" lon="4.89341">
        <ele>283</ele>
        <time>2016-09-08T10:48:24Z</time>
      </trkpt>
      <trkpt lat="45.95075" lon="4.89334">
        <ele>283</ele>
        <time>2016-09-08T10:48:25Z</time>
      </trkpt>
      <trkpt lat="45.95074" lon="4.89326">
        <ele>283</ele>
        <time>2016-09-08T10:48:26Z</time>
      </trkpt>
      <trkpt lat="45.95074" lon="4.89318">
        <ele>283</ele>
        <time>2016-09-08T10:48:27Z</time>
      </trkpt>
      <trkpt lat="45.95075" lon="4.89311">
        <ele>283</ele>
        <time>2016-09-08T10:48:28Z</time>
      </trkpt>
      <trkpt lat="45.95074" lon="4.89303">
        <ele>283</ele>
        <time>2016-09-08T10:48:29Z</time>
      </trkpt>
      <trkpt lat="45.95075" lon="4.89295">
        <ele>283</ele>
        <time>2016-09-08T10:48:30Z</time>
      </trkpt>
      <trkpt lat="45.95075" lon="4.89287">
        <ele>283</ele>
        <time>2016-09-08T10:48:31Z</time>
      </trkpt>
      <trkpt lat="45.95075" lon="4.89278">
        <ele>283</ele>
        <time>2016-09-08T10:48:32Z</time>
      </trkpt>
      <trkpt lat="45.95075" lon="4.8927">
        <ele>283</ele>
        <time>2016-09-08T10:48:33Z</time>
      </trkpt>
      <trkpt lat="45.95075" lon="4.89261">
        <ele>283</ele>
        <time>2016-09-08T10:48:34Z</time>
      </trkpt>
      <trkpt lat="45.95075" lon="4.89252">
        <ele>283</ele>
        <time>2016-09-08T10:48:35Z</time>
      </trkpt>
      <trkpt lat="45.95075" lon="4.89243">
        <ele>283</ele>
        <time>2016-09-08T10:48:36Z</time>
      </trkpt>
      <trkpt lat="45.95075" lon="4.89234">
        <ele>284</ele>
        <time>2016-09-08T10:48:37Z</time>
      </trkpt>
      <trkpt lat="45.95074" lon="4.89225">
        <ele>284</ele>
        <time>2016-09-08T10:48:38Z</time>
      </trkpt>
      <trkpt lat="45.95074" lon="4.89217">
        <ele>284</ele>
        <time>2016-09-08T10:48:39Z</time>
      </trkpt>
      <trkpt lat="45.95074" lon="4.89209">
        <ele>284</ele>
        <time>2016-09-08T10:48:40Z</time>
      </trkpt>
      <trkpt lat="45.95074" lon="4.89201">
        <ele>284</ele>
        <time>2016-09-08T10:48:41Z</time>
      </trkpt>
      <trkpt lat="45.95075" lon="4.89194">
        <ele>284</ele>
        <time>2016-09-08T10:48:42Z</time>
      </trkpt>
      <trkpt lat="45.95075" lon="4.89187">
        <ele>284</ele>
        <time>2016-09-08T10:48:43Z</time>
      </trkpt>
      <trkpt lat="45.95075" lon="4.8918">
        <ele>284</ele>
        <time>2016-09-08T10:48:44Z</time>
      </trkpt>
      <trkpt lat="45.95076" lon="4.89172">
        <ele>284</ele>
        <time>2016-09-08T10:48:45Z</time>
      </trkpt>
      <trkpt lat="45.95077" lon="4.89165">
        <ele>284</ele>
        <time>2016-09-08T10:48:46Z</time>
      </trkpt>
      <trkpt lat="45.95078" lon="4.89157">
        <ele>284</ele>
        <time>2016-09-08T10:48:47Z</time>
      </trkpt>
      <trkpt lat="45.9508" lon="4.8915">
        <ele>284</ele>
        <time>2016-09-08T10:48:48Z</time>
      </trkpt>
      <trkpt lat="45.95081" lon="4.89142">
        <ele>285</ele>
        <time>2016-09-08T10:48:49Z</time>
      </trkpt>
      <trkpt lat="45.95082" lon="4.89135">
        <ele>285</ele>
        <time>2016-09-08T10:48:50Z</time>
      </trkpt>
      <trkpt lat="45.95082" lon="4.89127">
        <ele>285</ele>
        <time>2016-09-08T10:48:51Z</time>
      </trkpt>
      <trkpt lat="45.95083" lon="4.89119">
        <ele>285</ele>
        <time>2016-09-08T10:48:52Z</time>
      </trkpt>
      <trkpt lat="45.95084" lon="4.89111">
        <ele>283</ele>
        <time>2016-09-08T10:48:53Z</time>
      </trkpt>
      <trkpt lat="45.95086" lon="4.89103">
        <ele>283</ele>
        <time>2016-09-08T10:48:54Z</time>
      </trkpt>
      <trkpt lat="45.95086" lon="4.89095">
        <ele>284</ele>
        <time>2016-09-08T10:48:55Z</time>
      </trkpt>
      <trkpt lat="45.95087" lon="4.89086">
        <ele>284</ele>
        <time>2016-09-08T10:48:56Z</time>
      </trkpt>
      <trkpt lat="45.95088" lon="4.89077">
        <ele>284</ele>
        <time>2016-09-08T10:48:57Z</time>
      </trkpt>
      <trkpt lat="45.95089" lon="4.89068">
        <ele>284</ele>
        <time>2016-09-08T10:48:58Z</time>
      </trkpt>
      <trkpt lat="45.95089" lon="4.8906">
        <ele>284</ele>
        <time>2016-09-08T10:48:59Z</time>
      </trkpt>
      <trkpt lat="45.95091" lon="4.89051">
        <ele>284</ele>
        <time>2016-09-08T10:49:00Z</time>
      </trkpt>
      <trkpt lat="45.95091" lon="4.89043">
        <ele>284</ele>
        <time>2016-09-08T10:49:01Z</time>
      </trkpt>
      <trkpt lat="45.95092" lon="4.89035">
        <ele>284</ele>
        <time>2016-09-08T10:49:02Z</time>
      </trkpt>
      <trkpt lat="45.95093" lon="4.89028">
        <ele>284</ele>
        <time>2016-09-08T10:49:03Z</time>
      </trkpt>
      <trkpt lat="45.95093" lon="4.89021">
        <ele>284</ele>
        <time>2016-09-08T10:49:04Z</time>
      </trkpt>
      <trkpt lat="45.95094" lon="4.89014">
        <ele>284</ele>
        <time>2016-09-08T10:49:05Z</time>
      </trkpt>
      <trkpt lat="45.95094" lon="4.89007">
        <ele>284</ele>
        <time>2016-09-08T10:49:06Z</time>
      </trkpt>
      <trkpt lat="45.95095" lon="4.89">
        <ele>285</ele>
        <time>2016-09-08T10:49:07Z</time>
      </trkpt>
      <trkpt lat="45.95095" lon="4.88992">
        <ele>285</ele>
        <time>2016-09-08T10:49:08Z</time>
      </trkpt>
      <trkpt lat="45.95096" lon="4.88985">
        <ele>285</ele>
        <time>2016-09-08T10:49:09Z</time>
      </trkpt>
      <trkpt lat="45.95096" lon="4.88977">
        <ele>284</ele>
        <time>2016-09-08T10:49:10Z</time>
      </trkpt>
      <trkpt lat="45.95097" lon="4.8897">
        <ele>284</ele>
        <time>2016-09-08T10:49:11Z</time>
      </trkpt>
      <trkpt lat="45.95098" lon="4.88962">
        <ele>284</ele>
        <time>2016-09-08T10:49:12Z</time>
      </trkpt>
      <trkpt lat="45.95098" lon="4.88954">
        <ele>284</ele>
        <time>2016-09-08T10:49:13Z</time>
      </trkpt>
      <trkpt lat="45.95099" lon="4.88946">
        <ele>285</ele>
        <time>2016-09-08T10:49:14Z</time>
      </trkpt>
      <trkpt lat="45.951" lon="4.88939">
        <ele>285</ele>
        <time>2016-09-08T10:49:15Z</time>
      </trkpt>
      <trkpt lat="45.951" lon="4.88932">
        <ele>285</ele>
        <time>2016-09-08T10:49:16Z</time>
      </trkpt>
      <trkpt lat="45.95101" lon="4.88925">
        <ele>285</ele>
        <time>2016-09-08T10:49:17Z</time>
      </trkpt>
      <trkpt lat="45.95101" lon="4.88918">
        <ele>285</ele>
        <time>2016-09-08T10:49:18Z</time>
      </trkpt>
      <trkpt lat="45.95102" lon="4.88911">
        <ele>285</ele>
        <time>2016-09-08T10:49:19Z</time>
      </trkpt>
      <trkpt lat="45.95102" lon="4.88904">
        <ele>285</ele>
        <time>2016-09-08T10:49:20Z</time>
      </trkpt>
      <trkpt lat="45.95103" lon="4.88896">
        <ele>285</ele>
        <time>2016-09-08T10:49:21Z</time>
      </trkpt>
      <trkpt lat="45.95103" lon="4.88889">
        <ele>285</ele>
        <time>2016-09-08T10:49:22Z</time>
      </trkpt>
      <trkpt lat="45.95103" lon="4.88882">
        <ele>285</ele>
        <time>2016-09-08T10:49:23Z</time>
      </trkpt>
      <trkpt lat="45.95104" lon="4.88874">
        <ele>285</ele>
        <time>2016-09-08T10:49:24Z</time>
      </trkpt>
      <trkpt lat="45.95104" lon="4.88867">
        <ele>285</ele>
        <time>2016-09-08T10:49:25Z</time>
      </trkpt>
      <trkpt lat="45.95105" lon="4.8886">
        <ele>285</ele>
        <time>2016-09-08T10:49:26Z</time>
      </trkpt>
      <trkpt lat="45.95105" lon="4.88852">
        <ele>285</ele>
        <time>2016-09-08T10:49:27Z</time>
      </trkpt>
      <trkpt lat="45.95105" lon="4.88845">
        <ele>285</ele>
        <time>2016-09-08T10:49:28Z</time>
      </trkpt>
      <trkpt lat="45.95106" lon="4.88839">
        <ele>285</ele>
        <time>2016-09-08T10:49:29Z</time>
      </trkpt>
      <trkpt lat="45.95106" lon="4.88832">
        <ele>286</ele>
        <time>2016-09-08T10:49:30Z</time>
      </trkpt>
      <trkpt lat="45.95107" lon="4.88825">
        <ele>286</ele>
        <time>2016-09-08T10:49:31Z</time>
      </trkpt>
      <trkpt lat="45.95107" lon="4.88819">
        <ele>286</ele>
        <time>2016-09-08T10:49:32Z</time>
      </trkpt>
      <trkpt lat="45.95107" lon="4.88811">
        <ele>286</ele>
        <time>2016-09-08T10:49:33Z</time>
      </trkpt>
      <trkpt lat="45.95107" lon="4.88804">
        <ele>286</ele>
        <time>2016-09-08T10:49:34Z</time>
      </trkpt>
      <trkpt lat="45.95108" lon="4.88797">
        <ele>286</ele>
        <time>2016-09-08T10:49:35Z</time>
      </trkpt>
      <trkpt lat="45.95108" lon="4.8879">
        <ele>287</ele>
        <time>2016-09-08T10:49:36Z</time>
      </trkpt>
      <trkpt lat="45.95109" lon="4.88783">
        <ele>287</ele>
        <time>2016-09-08T10:49:37Z</time>
      </trkpt>
      <trkpt lat="45.95109" lon="4.88776">
        <ele>287</ele>
        <time>2016-09-08T10:49:38Z</time>
      </trkpt>
      <trkpt lat="45.95109" lon="4.88769">
        <ele>287</ele>
        <time>2016-09-08T10:49:39Z</time>
      </trkpt>
      <trkpt lat="45.95109" lon="4.88762">
        <ele>287</ele>
        <time>2016-09-08T10:49:40Z</time>
      </trkpt>
      <trkpt lat="45.9511" lon="4.88755">
        <ele>287</ele>
        <time>2016-09-08T10:49:41Z</time>
      </trkpt>
      <trkpt lat="45.9511" lon="4.88748">
        <ele>288</ele>
        <time>2016-09-08T10:49:42Z</time>
      </trkpt>
      <trkpt lat="45.9511" lon="4.88741">
        <ele>288</ele>
        <time>2016-09-08T10:49:43Z</time>
      </trkpt>
      <trkpt lat="45.9511" lon="4.88733">
        <ele>288</ele>
        <time>2016-09-08T10:49:44Z</time>
      </trkpt>
      <trkpt lat="45.95111" lon="4.88726">
        <ele>289</ele>
        <time>2016-09-08T10:49:45Z</time>
      </trkpt>
      <trkpt lat="45.95111" lon="4.88719">
        <ele>289</ele>
        <time>2016-09-08T10:49:46Z</time>
      </trkpt>
      <trkpt lat="45.95111" lon="4.88712">
        <ele>289</ele>
        <time>2016-09-08T10:49:47Z</time>
      </trkpt>
      <trkpt lat="45.95111" lon="4.88705">
        <ele>289</ele>
        <time>2016-09-08T10:49:48Z</time>
      </trkpt>
      <trkpt lat="45.95111" lon="4.88698">
        <ele>289</ele>
        <time>2016-09-08T10:49:49Z</time>
      </trkpt>
      <trkpt lat="45.95111" lon="4.88691">
        <ele>289</ele>
        <time>2016-09-08T10:49:50Z</time>
      </trkpt>
      <trkpt lat="45.9511" lon="4.88684">
        <ele>289</ele>
        <time>2016-09-08T10:49:51Z</time>
      </trkpt>
      <trkpt lat="45.9511" lon="4.88677">
        <ele>289</ele>
        <time>2016-09-08T10:49:52Z</time>
      </trkpt>
      <trkpt lat="45.95111" lon="4.8867">
        <ele>289</ele>
        <time>2016-09-08T10:49:53Z</time>
      </trkpt>
      <trkpt lat="45.95111" lon="4.88663">
        <ele>290</ele>
        <time>2016-09-08T10:49:54Z</time>
      </trkpt>
      <trkpt lat="45.95111" lon="4.88657">
        <ele>290</ele>
        <time>2016-09-08T10:49:55Z</time>
      </trkpt>
      <trkpt lat="45.95112" lon="4.88644">
        <ele>290</ele>
        <time>2016-09-08T10:49:57Z</time>
      </trkpt>
      <trkpt lat="45.95112" lon="4.88637">
        <ele>290</ele>
        <time>2016-09-08T10:49:58Z</time>
      </trkpt>
      <trkpt lat="45.95112" lon="4.88625">
        <ele>290</ele>
        <time>2016-09-08T10:50:00Z</time>
      </trkpt>
      <trkpt lat="45.95113" lon="4.88619">
        <ele>290</ele>
        <time>2016-09-08T10:50:01Z</time>
      </trkpt>
      <trkpt lat="45.95115" lon="4.88607">
        <ele>290</ele>
        <time>2016-09-08T10:50:03Z</time>
      </trkpt>
      <trkpt lat="45.95115" lon="4.88601">
        <ele>290</ele>
        <time>2016-09-08T10:50:04Z</time>
      </trkpt>
      <trkpt lat="45.95116" lon="4.88594">
        <ele>290</ele>
        <time>2016-09-08T10:50:05Z</time>
      </trkpt>
      <trkpt lat="45.95116" lon="4.88587">
        <ele>290</ele>
        <time>2016-09-08T10:50:06Z</time>
      </trkpt>
      <trkpt lat="45.95119" lon="4.88581">
        <ele>291</ele>
        <time>2016-09-08T10:50:07Z</time>
      </trkpt>
      <trkpt lat="45.9512" lon="4.88575">
        <ele>291</ele>
        <time>2016-09-08T10:50:08Z</time>
      </trkpt>
      <trkpt lat="45.9512" lon="4.88568">
        <ele>291</ele>
        <time>2016-09-08T10:50:09Z</time>
      </trkpt>
      <trkpt lat="45.95119" lon="4.88562">
        <ele>291</ele>
        <time>2016-09-08T10:50:10Z</time>
      </trkpt>
      <trkpt lat="45.95118" lon="4.88555">
        <ele>291</ele>
        <time>2016-09-08T10:50:11Z</time>
      </trkpt>
      <trkpt lat="45.95117" lon="4.88549">
        <ele>291</ele>
        <time>2016-09-08T10:50:12Z</time>
      </trkpt>
      <trkpt lat="45.95116" lon="4.88542">
        <ele>291</ele>
        <time>2016-09-08T10:50:13Z</time>
      </trkpt>
      <trkpt lat="45.95114" lon="4.88535">
        <ele>291</ele>
        <time>2016-09-08T10:50:14Z</time>
      </trkpt>
      <trkpt lat="45.95112" lon="4.88529">
        <ele>291</ele>
        <time>2016-09-08T10:50:15Z</time>
      </trkpt>
      <trkpt lat="45.9511" lon="4.88522">
        <ele>291</ele>
        <time>2016-09-08T10:50:16Z</time>
      </trkpt>
      <trkpt lat="45.95108" lon="4.88515">
        <ele>291</ele>
        <time>2016-09-08T10:50:17Z</time>
      </trkpt>
      <trkpt lat="45.95107" lon="4.88508">
        <ele>291</ele>
        <time>2016-09-08T10:50:18Z</time>
      </trkpt>
      <trkpt lat="45.95105" lon="4.885">
        <ele>291</ele>
        <time>2016-09-08T10:50:19Z</time>
      </trkpt>
      <trkpt lat="45.95105" lon="4.88493">
        <ele>291</ele>
        <time>2016-09-08T10:50:20Z</time>
      </trkpt>
      <trkpt lat="45.95104" lon="4.88485">
        <ele>291</ele>
        <time>2016-09-08T10:50:21Z</time>
      </trkpt>
      <trkpt lat="45.95102" lon="4.88478">
        <ele>291</ele>
        <time>2016-09-08T10:50:22Z</time>
      </trkpt>
      <trkpt lat="45.95099" lon="4.88466">
        <ele>291</ele>
        <time>2016-09-08T10:50:24Z</time>
      </trkpt>
      <trkpt lat="45.95098" lon="4.8846">
        <ele>291</ele>
        <time>2016-09-08T10:50:25Z</time>
      </trkpt>
      <trkpt lat="45.95099" lon="4.88447">
        <ele>291</ele>
        <time>2016-09-08T10:50:27Z</time>
      </trkpt>
      <trkpt lat="45.951" lon="4.8844">
        <ele>291</ele>
        <time>2016-09-08T10:50:28Z</time>
      </trkpt>
      <trkpt lat="45.95101" lon="4.88433">
        <ele>291</ele>
        <time>2016-09-08T10:50:29Z</time>
      </trkpt>
      <trkpt lat="45.95102" lon="4.88426">
        <ele>291</ele>
        <time>2016-09-08T10:50:30Z</time>
      </trkpt>
      <trkpt lat="45.95103" lon="4.8842">
        <ele>291</ele>
        <time>2016-09-08T10:50:31Z</time>
      </trkpt>
      <trkpt lat="45.95104" lon="4.88413">
        <ele>290</ele>
        <time>2016-09-08T10:50:32Z</time>
      </trkpt>
      <trkpt lat="45.95106" lon="4.88401">
        <ele>291</ele>
        <time>2016-09-08T10:50:34Z</time>
      </trkpt>
      <trkpt lat="45.95107" lon="4.88396">
        <ele>291</ele>
        <time>2016-09-08T10:50:35Z</time>
      </trkpt>
      <trkpt lat="45.95109" lon="4.88384">
        <ele>291</ele>
        <time>2016-09-08T10:50:37Z</time>
      </trkpt>
      <trkpt lat="45.9511" lon="4.88378">
        <ele>290</ele>
        <time>2016-09-08T10:50:38Z</time>
      </trkpt>
      <trkpt lat="45.95111" lon="4.88372">
        <ele>290</ele>
        <time>2016-09-08T10:50:39Z</time>
      </trkpt>
      <trkpt lat="45.95111" lon="4.88365">
        <ele>290</ele>
        <time>2016-09-08T10:50:40Z</time>
      </trkpt>
      <trkpt lat="45.95112" lon="4.88359">
        <ele>290</ele>
        <time>2016-09-08T10:50:41Z</time>
      </trkpt>
      <trkpt lat="45.95113" lon="4.88351">
        <ele>290</ele>
        <time>2016-09-08T10:50:42Z</time>
      </trkpt>
      <trkpt lat="45.95114" lon="4.88343">
        <ele>290</ele>
        <time>2016-09-08T10:50:43Z</time>
      </trkpt>
      <trkpt lat="45.95116" lon="4.88336">
        <ele>290</ele>
        <time>2016-09-08T10:50:44Z</time>
      </trkpt>
      <trkpt lat="45.95118" lon="4.88328">
        <ele>289</ele>
        <time>2016-09-08T10:50:45Z</time>
      </trkpt>
      <trkpt lat="45.9512" lon="4.88321">
        <ele>289</ele>
        <time>2016-09-08T10:50:46Z</time>
      </trkpt>
      <trkpt lat="45.95121" lon="4.88313">
        <ele>289</ele>
        <time>2016-09-08T10:50:47Z</time>
      </trkpt>
      <trkpt lat="45.95122" lon="4.88305">
        <ele>289</ele>
        <time>2016-09-08T10:50:48Z</time>
      </trkpt>
      <trkpt lat="45.95125" lon="4.88296">
        <ele>289</ele>
        <time>2016-09-08T10:50:49Z</time>
      </trkpt>
      <trkpt lat="45.95127" lon="4.88287">
        <ele>289</ele>
        <time>2016-09-08T10:50:50Z</time>
      </trkpt>
      <trkpt lat="45.95128" lon="4.88278">
        <ele>289</ele>
        <time>2016-09-08T10:50:51Z</time>
      </trkpt>
      <trkpt lat="45.95129" lon="4.88269">
        <ele>289</ele>
        <time>2016-09-08T10:50:52Z</time>
      </trkpt>
      <trkpt lat="45.95129" lon="4.8826">
        <ele>289</ele>
        <time>2016-09-08T10:50:53Z</time>
      </trkpt>
      <trkpt lat="45.9513" lon="4.88252">
        <ele>289</ele>
        <time>2016-09-08T10:50:54Z</time>
      </trkpt>
      <trkpt lat="45.95129" lon="4.88243">
        <ele>287</ele>
        <time>2016-09-08T10:50:55Z</time>
      </trkpt>
      <trkpt lat="45.95129" lon="4.88234">
        <ele>287</ele>
        <time>2016-09-08T10:50:56Z</time>
      </trkpt>
      <trkpt lat="45.9513" lon="4.88226">
        <ele>287</ele>
        <time>2016-09-08T10:50:57Z</time>
      </trkpt>
      <trkpt lat="45.95131" lon="4.88217">
        <ele>287</ele>
        <time>2016-09-08T10:50:58Z</time>
      </trkpt>
      <trkpt lat="45.95133" lon="4.88208">
        <ele>287</ele>
        <time>2016-09-08T10:50:59Z</time>
      </trkpt>
      <trkpt lat="45.95137" lon="4.882">
        <ele>287</ele>
        <time>2016-09-08T10:51:00Z</time>
      </trkpt>
      <trkpt lat="45.95141" lon="4.88194">
        <ele>286</ele>
        <time>2016-09-08T10:51:01Z</time>
      </trkpt>
      <trkpt lat="45.95145" lon="4.88189">
        <ele>286</ele>
        <time>2016-09-08T10:51:02Z</time>
      </trkpt>
      <trkpt lat="45.9515" lon="4.88184">
        <ele>286</ele>
        <time>2016-09-08T10:51:03Z</time>
      </trkpt>
      <trkpt lat="45.95155" lon="4.8818">
        <ele>286</ele>
        <time>2016-09-08T10:51:04Z</time>
      </trkpt>
      <trkpt lat="45.95161" lon="4.88179">
        <ele>286</ele>
        <time>2016-09-08T10:51:05Z</time>
      </trkpt>
      <trkpt lat="45.95167" lon="4.88175">
        <ele>286</ele>
        <time>2016-09-08T10:51:06Z</time>
      </trkpt>
      <trkpt lat="45.95171" lon="4.88169">
        <ele>285</ele>
        <time>2016-09-08T10:51:07Z</time>
      </trkpt>
      <trkpt lat="45.95173" lon="4.88161">
        <ele>284</ele>
        <time>2016-09-08T10:51:08Z</time>
      </trkpt>
      <trkpt lat="45.95175" lon="4.88152">
        <ele>283</ele>
        <time>2016-09-08T10:51:09Z</time>
      </trkpt>
      <trkpt lat="45.95176" lon="4.88144">
        <ele>283</ele>
        <time>2016-09-08T10:51:10Z</time>
      </trkpt>
      <trkpt lat="45.95177" lon="4.88135">
        <ele>283</ele>
        <time>2016-09-08T10:51:11Z</time>
      </trkpt>
      <trkpt lat="45.95179" lon="4.88127">
        <ele>282</ele>
        <time>2016-09-08T10:51:12Z</time>
      </trkpt>
      <trkpt lat="45.95181" lon="4.88119">
        <ele>282</ele>
        <time>2016-09-08T10:51:13Z</time>
      </trkpt>
      <trkpt lat="45.95183" lon="4.88112">
        <ele>282</ele>
        <time>2016-09-08T10:51:14Z</time>
      </trkpt>
      <trkpt lat="45.95185" lon="4.88104">
        <ele>282</ele>
        <time>2016-09-08T10:51:15Z</time>
      </trkpt>
      <trkpt lat="45.95186" lon="4.88095">
        <ele>282</ele>
        <time>2016-09-08T10:51:16Z</time>
      </trkpt>
      <trkpt lat="45.95188" lon="4.88087">
        <ele>282</ele>
        <time>2016-09-08T10:51:17Z</time>
      </trkpt>
      <trkpt lat="45.9519" lon="4.88079">
        <ele>281</ele>
        <time>2016-09-08T10:51:18Z</time>
      </trkpt>
      <trkpt lat="45.95192" lon="4.8807">
        <ele>281</ele>
        <time>2016-09-08T10:51:19Z</time>
      </trkpt>
      <trkpt lat="45.95195" lon="4.88062">
        <ele>281</ele>
        <time>2016-09-08T10:51:20Z</time>
      </trkpt>
      <trkpt lat="45.95198" lon="4.88053">
        <ele>281</ele>
        <time>2016-09-08T10:51:21Z</time>
      </trkpt>
      <trkpt lat="45.95201" lon="4.88045">
        <ele>281</ele>
        <time>2016-09-08T10:51:22Z</time>
      </trkpt>
      <trkpt lat="45.95205" lon="4.88037">
        <ele>281</ele>
        <time>2016-09-08T10:51:23Z</time>
      </trkpt>
      <trkpt lat="45.95209" lon="4.8803">
        <ele>281</ele>
        <time>2016-09-08T10:51:24Z</time>
      </trkpt>
      <trkpt lat="45.95214" lon="4.88024">
        <ele>281</ele>
        <time>2016-09-08T10:51:25Z</time>
      </trkpt>
      <trkpt lat="45.95218" lon="4.88017">
        <ele>281</ele>
        <time>2016-09-08T10:51:26Z</time>
      </trkpt>
      <trkpt lat="45.95222" lon="4.88012">
        <ele>281</ele>
        <time>2016-09-08T10:51:27Z</time>
      </trkpt>
      <trkpt lat="45.95227" lon="4.88005">
        <ele>281</ele>
        <time>2016-09-08T10:51:28Z</time>
      </trkpt>
      <trkpt lat="45.95231" lon="4.88">
        <ele>281</ele>
        <time>2016-09-08T10:51:29Z</time>
      </trkpt>
      <trkpt lat="45.95235" lon="4.87994">
        <ele>281</ele>
        <time>2016-09-08T10:51:30Z</time>
      </trkpt>
      <trkpt lat="45.9524" lon="4.87988">
        <ele>281</ele>
        <time>2016-09-08T10:51:31Z</time>
      </trkpt>
      <trkpt lat="45.95244" lon="4.87983">
        <ele>281</ele>
        <time>2016-09-08T10:51:32Z</time>
      </trkpt>
      <trkpt lat="45.95248" lon="4.87976">
        <ele>282</ele>
        <time>2016-09-08T10:51:33Z</time>
      </trkpt>
      <trkpt lat="45.95252" lon="4.87969">
        <ele>280</ele>
        <time>2016-09-08T10:51:34Z</time>
      </trkpt>
      <trkpt lat="45.95256" lon="4.87962">
        <ele>280</ele>
        <time>2016-09-08T10:51:35Z</time>
      </trkpt>
      <trkpt lat="45.9526" lon="4.87954">
        <ele>280</ele>
        <time>2016-09-08T10:51:36Z</time>
      </trkpt>
      <trkpt lat="45.95262" lon="4.87945">
        <ele>280</ele>
        <time>2016-09-08T10:51:37Z</time>
      </trkpt>
      <trkpt lat="45.95264" lon="4.87936">
        <ele>280</ele>
        <time>2016-09-08T10:51:38Z</time>
      </trkpt>
      <trkpt lat="45.95265" lon="4.87926">
        <ele>281</ele>
        <time>2016-09-08T10:51:39Z</time>
      </trkpt>
      <trkpt lat="45.95265" lon="4.87917">
        <ele>281</ele>
        <time>2016-09-08T10:51:40Z</time>
      </trkpt>
      <trkpt lat="45.95264" lon="4.87907">
        <ele>281</ele>
        <time>2016-09-08T10:51:41Z</time>
      </trkpt>
      <trkpt lat="45.95263" lon="4.87898">
        <ele>281</ele>
        <time>2016-09-08T10:51:42Z</time>
      </trkpt>
      <trkpt lat="45.95261" lon="4.87889">
        <ele>281</ele>
        <time>2016-09-08T10:51:43Z</time>
      </trkpt>
      <trkpt lat="45.95259" lon="4.8788">
        <ele>281</ele>
        <time>2016-09-08T10:51:44Z</time>
      </trkpt>
      <trkpt lat="45.95258" lon="4.87871">
        <ele>281</ele>
        <time>2016-09-08T10:51:45Z</time>
      </trkpt>
      <trkpt lat="45.95256" lon="4.87863">
        <ele>281</ele>
        <time>2016-09-08T10:51:46Z</time>
      </trkpt>
      <trkpt lat="45.95254" lon="4.87854">
        <ele>281</ele>
        <time>2016-09-08T10:51:47Z</time>
      </trkpt>
      <trkpt lat="45.95253" lon="4.87846">
        <ele>281</ele>
        <time>2016-09-08T10:51:48Z</time>
      </trkpt>
      <trkpt lat="45.95251" lon="4.87838">
        <ele>282</ele>
        <time>2016-09-08T10:51:49Z</time>
      </trkpt>
      <trkpt lat="45.9525" lon="4.87829">
        <ele>281</ele>
        <time>2016-09-08T10:51:50Z</time>
      </trkpt>
      <trkpt lat="45.95249" lon="4.87821">
        <ele>282</ele>
        <time>2016-09-08T10:51:51Z</time>
      </trkpt>
      <trkpt lat="45.95248" lon="4.87812">
        <ele>282</ele>
        <time>2016-09-08T10:51:52Z</time>
      </trkpt>
      <trkpt lat="45.95247" lon="4.87803">
        <ele>282</ele>
        <time>2016-09-08T10:51:53Z</time>
      </trkpt>
      <trkpt lat="45.95246" lon="4.87794">
        <ele>282</ele>
        <time>2016-09-08T10:51:54Z</time>
      </trkpt>
      <trkpt lat="45.95244" lon="4.87786">
        <ele>282</ele>
        <time>2016-09-08T10:51:55Z</time>
      </trkpt>
      <trkpt lat="45.95242" lon="4.87777">
        <ele>282</ele>
        <time>2016-09-08T10:51:56Z</time>
      </trkpt>
      <trkpt lat="45.9524" lon="4.87769">
        <ele>282</ele>
        <time>2016-09-08T10:51:57Z</time>
      </trkpt>
      <trkpt lat="45.95238" lon="4.8776">
        <ele>281</ele>
        <time>2016-09-08T10:51:58Z</time>
      </trkpt>
      <trkpt lat="45.95236" lon="4.87752">
        <ele>281</ele>
        <time>2016-09-08T10:51:59Z</time>
      </trkpt>
      <trkpt lat="45.95235" lon="4.87743">
        <ele>280</ele>
        <time>2016-09-08T10:52:00Z</time>
      </trkpt>
      <trkpt lat="45.95233" lon="4.87735">
        <ele>280</ele>
        <time>2016-09-08T10:52:01Z</time>
      </trkpt>
      <trkpt lat="45.95231" lon="4.87726">
        <ele>280</ele>
        <time>2016-09-08T10:52:02Z</time>
      </trkpt>
      <trkpt lat="45.9523" lon="4.87718">
        <ele>279</ele>
        <time>2016-09-08T10:52:03Z</time>
      </trkpt>
      <trkpt lat="45.95228" lon="4.8771">
        <ele>279</ele>
        <time>2016-09-08T10:52:04Z</time>
      </trkpt>
      <trkpt lat="45.95227" lon="4.87701">
        <ele>279</ele>
        <time>2016-09-08T10:52:05Z</time>
      </trkpt>
      <trkpt lat="45.95226" lon="4.87691">
        <ele>279</ele>
        <time>2016-09-08T10:52:06Z</time>
      </trkpt>
      <trkpt lat="45.95224" lon="4.87682">
        <ele>278</ele>
        <time>2016-09-08T10:52:07Z</time>
      </trkpt>
      <trkpt lat="45.95223" lon="4.87672">
        <ele>278</ele>
        <time>2016-09-08T10:52:08Z</time>
      </trkpt>
      <trkpt lat="45.95221" lon="4.87662">
        <ele>276</ele>
        <time>2016-09-08T10:52:09Z</time>
      </trkpt>
      <trkpt lat="45.95219" lon="4.87651">
        <ele>276</ele>
        <time>2016-09-08T10:52:10Z</time>
      </trkpt>
      <trkpt lat="45.95218" lon="4.87641">
        <ele>276</ele>
        <time>2016-09-08T10:52:11Z</time>
      </trkpt>
      <trkpt lat="45.95217" lon="4.8763">
        <ele>276</ele>
        <time>2016-09-08T10:52:12Z</time>
      </trkpt>
      <trkpt lat="45.95215" lon="4.87619">
        <ele>276</ele>
        <time>2016-09-08T10:52:13Z</time>
      </trkpt>
      <trkpt lat="45.95214" lon="4.87608">
        <ele>276</ele>
        <time>2016-09-08T10:52:14Z</time>
      </trkpt>
      <trkpt lat="45.95213" lon="4.87596">
        <ele>276</ele>
        <time>2016-09-08T10:52:15Z</time>
      </trkpt>
      <trkpt lat="45.95213" lon="4.87584">
        <ele>276</ele>
        <time>2016-09-08T10:52:16Z</time>
      </trkpt>
      <trkpt lat="45.95213" lon="4.87572">
        <ele>274</ele>
        <time>2016-09-08T10:52:17Z</time>
      </trkpt>
      <trkpt lat="45.95212" lon="4.8756">
        <ele>274</ele>
        <time>2016-09-08T10:52:18Z</time>
      </trkpt>
      <trkpt lat="45.95211" lon="4.87548">
        <ele>274</ele>
        <time>2016-09-08T10:52:19Z</time>
      </trkpt>
      <trkpt lat="45.9521" lon="4.87536">
        <ele>274</ele>
        <time>2016-09-08T10:52:20Z</time>
      </trkpt>
      <trkpt lat="45.95208" lon="4.87524">
        <ele>274</ele>
        <time>2016-09-08T10:52:21Z</time>
      </trkpt>
      <trkpt lat="45.95205" lon="4.87513">
        <ele>273</ele>
        <time>2016-09-08T10:52:22Z</time>
      </trkpt>
      <trkpt lat="45.95203" lon="4.87502">
        <ele>273</ele>
        <time>2016-09-08T10:52:23Z</time>
      </trkpt>
      <trkpt lat="45.95201" lon="4.87491">
        <ele>272</ele>
        <time>2016-09-08T10:52:24Z</time>
      </trkpt>
      <trkpt lat="45.95198" lon="4.8748">
        <ele>272</ele>
        <time>2016-09-08T10:52:25Z</time>
      </trkpt>
      <trkpt lat="45.95196" lon="4.8747">
        <ele>272</ele>
        <time>2016-09-08T10:52:26Z</time>
      </trkpt>
      <trkpt lat="45.95195" lon="4.8746">
        <ele>272</ele>
        <time>2016-09-08T10:52:27Z</time>
      </trkpt>
      <trkpt lat="45.95192" lon="4.8745">
        <ele>272</ele>
        <time>2016-09-08T10:52:28Z</time>
      </trkpt>
      <trkpt lat="45.9519" lon="4.8744">
        <ele>272</ele>
        <time>2016-09-08T10:52:29Z</time>
      </trkpt>
      <trkpt lat="45.95187" lon="4.87431">
        <ele>271</ele>
        <time>2016-09-08T10:52:30Z</time>
      </trkpt>
      <trkpt lat="45.95186" lon="4.87422">
        <ele>271</ele>
        <time>2016-09-08T10:52:31Z</time>
      </trkpt>
      <trkpt lat="45.95183" lon="4.87414">
        <ele>271</ele>
        <time>2016-09-08T10:52:32Z</time>
      </trkpt>
      <trkpt lat="45.95181" lon="4.87406">
        <ele>271</ele>
        <time>2016-09-08T10:52:33Z</time>
      </trkpt>
      <trkpt lat="45.95179" lon="4.87398">
        <ele>271</ele>
        <time>2016-09-08T10:52:34Z</time>
      </trkpt>
      <trkpt lat="45.95178" lon="4.87391">
        <ele>271</ele>
        <time>2016-09-08T10:52:35Z</time>
      </trkpt>
      <trkpt lat="45.95176" lon="4.87384">
        <ele>271</ele>
        <time>2016-09-08T10:52:36Z</time>
      </trkpt>
      <trkpt lat="45.95175" lon="4.87376">
        <ele>271</ele>
        <time>2016-09-08T10:52:37Z</time>
      </trkpt>
      <trkpt lat="45.95174" lon="4.87367">
        <ele>271</ele>
        <time>2016-09-08T10:52:38Z</time>
      </trkpt>
      <trkpt lat="45.95171" lon="4.87359">
        <ele>271</ele>
        <time>2016-09-08T10:52:39Z</time>
      </trkpt>
      <trkpt lat="45.95169" lon="4.87351">
        <ele>271</ele>
        <time>2016-09-08T10:52:40Z</time>
      </trkpt>
      <trkpt lat="45.95167" lon="4.87342">
        <ele>271</ele>
        <time>2016-09-08T10:52:41Z</time>
      </trkpt>
      <trkpt lat="45.95165" lon="4.87334">
        <ele>271</ele>
        <time>2016-09-08T10:52:42Z</time>
      </trkpt>
      <trkpt lat="45.95164" lon="4.87325">
        <ele>272</ele>
        <time>2016-09-08T10:52:43Z</time>
      </trkpt>
      <trkpt lat="45.95162" lon="4.87317">
        <ele>273</ele>
        <time>2016-09-08T10:52:44Z</time>
      </trkpt>
      <trkpt lat="45.9516" lon="4.87308">
        <ele>273</ele>
        <time>2016-09-08T10:52:45Z</time>
      </trkpt>
      <trkpt lat="45.95158" lon="4.873">
        <ele>274</ele>
        <time>2016-09-08T10:52:46Z</time>
      </trkpt>
      <trkpt lat="45.95156" lon="4.87292">
        <ele>274</ele>
        <time>2016-09-08T10:52:47Z</time>
      </trkpt>
      <trkpt lat="45.95154" lon="4.87284">
        <ele>274</ele>
        <time>2016-09-08T10:52:48Z</time>
      </trkpt>
      <trkpt lat="45.95152" lon="4.87276">
        <ele>274</ele>
        <time>2016-09-08T10:52:49Z</time>
      </trkpt>
      <trkpt lat="45.9515" lon="4.87268">
        <ele>274</ele>
        <time>2016-09-08T10:52:50Z</time>
      </trkpt>
      <trkpt lat="45.95148" lon="4.87259">
        <ele>274</ele>
        <time>2016-09-08T10:52:51Z</time>
      </trkpt>
      <trkpt lat="45.95147" lon="4.87251">
        <ele>274</ele>
        <time>2016-09-08T10:52:52Z</time>
      </trkpt>
      <trkpt lat="45.95146" lon="4.87243">
        <ele>275</ele>
        <time>2016-09-08T10:52:53Z</time>
      </trkpt>
      <trkpt lat="45.95145" lon="4.87235">
        <ele>275</ele>
        <time>2016-09-08T10:52:54Z</time>
      </trkpt>
      <trkpt lat="45.95144" lon="4.87227">
        <ele>275</ele>
        <time>2016-09-08T10:52:55Z</time>
      </trkpt>
      <trkpt lat="45.95142" lon="4.87219">
        <ele>276</ele>
        <time>2016-09-08T10:52:56Z</time>
      </trkpt>
      <trkpt lat="45.95141" lon="4.87212">
        <ele>276</ele>
        <time>2016-09-08T10:52:57Z</time>
      </trkpt>
      <trkpt lat="45.95139" lon="4.87204">
        <ele>276</ele>
        <time>2016-09-08T10:52:58Z</time>
      </trkpt>
      <trkpt lat="45.95138" lon="4.87196">
        <ele>276</ele>
        <time>2016-09-08T10:52:59Z</time>
      </trkpt>
      <trkpt lat="45.95137" lon="4.87188">
        <ele>276</ele>
        <time>2016-09-08T10:53:00Z</time>
      </trkpt>
      <trkpt lat="45.95135" lon="4.87181">
        <ele>276</ele>
        <time>2016-09-08T10:53:01Z</time>
      </trkpt>
      <trkpt lat="45.95134" lon="4.87174">
        <ele>276</ele>
        <time>2016-09-08T10:53:02Z</time>
      </trkpt>
      <trkpt lat="45.95132" lon="4.87167">
        <ele>276</ele>
        <time>2016-09-08T10:53:03Z</time>
      </trkpt>
      <trkpt lat="45.95131" lon="4.8716">
        <ele>276</ele>
        <time>2016-09-08T10:53:04Z</time>
      </trkpt>
      <trkpt lat="45.95129" lon="4.87153">
        <ele>276</ele>
        <time>2016-09-08T10:53:05Z</time>
      </trkpt>
      <trkpt lat="45.95128" lon="4.87145">
        <ele>276</ele>
        <time>2016-09-08T10:53:06Z</time>
      </trkpt>
      <trkpt lat="45.95126" lon="4.87138">
        <ele>276</ele>
        <time>2016-09-08T10:53:07Z</time>
      </trkpt>
      <trkpt lat="45.95125" lon="4.8713">
        <ele>276</ele>
        <time>2016-09-08T10:53:08Z</time>
      </trkpt>
      <trkpt lat="45.95123" lon="4.87123">
        <ele>276</ele>
        <time>2016-09-08T10:53:09Z</time>
      </trkpt>
      <trkpt lat="45.95121" lon="4.87115">
        <ele>276</ele>
        <time>2016-09-08T10:53:10Z</time>
      </trkpt>
      <trkpt lat="45.9512" lon="4.87107">
        <ele>276</ele>
        <time>2016-09-08T10:53:11Z</time>
      </trkpt>
      <trkpt lat="45.95117" lon="4.871">
        <ele>276</ele>
        <time>2016-09-08T10:53:12Z</time>
      </trkpt>
      <trkpt lat="45.95114" lon="4.87093">
        <ele>277</ele>
        <time>2016-09-08T10:53:13Z</time>
      </trkpt>
      <trkpt lat="45.95112" lon="4.87086">
        <ele>277</ele>
        <time>2016-09-08T10:53:14Z</time>
      </trkpt>
      <trkpt lat="45.95111" lon="4.8708">
        <ele>277</ele>
        <time>2016-09-08T10:53:15Z</time>
      </trkpt>
      <trkpt lat="45.95109" lon="4.87073">
        <ele>277</ele>
        <time>2016-09-08T10:53:16Z</time>
      </trkpt>
      <trkpt lat="45.95107" lon="4.87067">
        <ele>277</ele>
        <time>2016-09-08T10:53:17Z</time>
      </trkpt>
      <trkpt lat="45.95104" lon="4.87061">
        <ele>277</ele>
        <time>2016-09-08T10:53:18Z</time>
      </trkpt>
      <trkpt lat="45.95102" lon="4.87056">
        <ele>277</ele>
        <time>2016-09-08T10:53:19Z</time>
      </trkpt>
      <trkpt lat="45.95099" lon="4.8705">
        <ele>276</ele>
        <time>2016-09-08T10:53:20Z</time>
      </trkpt>
      <trkpt lat="45.95096" lon="4.87044">
        <ele>276</ele>
        <time>2016-09-08T10:53:21Z</time>
      </trkpt>
      <trkpt lat="45.95092" lon="4.87037">
        <ele>276</ele>
        <time>2016-09-08T10:53:22Z</time>
      </trkpt>
      <trkpt lat="45.95089" lon="4.87032">
        <ele>276</ele>
        <time>2016-09-08T10:53:23Z</time>
      </trkpt>
      <trkpt lat="45.95086" lon="4.87026">
        <ele>277</ele>
        <time>2016-09-08T10:53:24Z</time>
      </trkpt>
      <trkpt lat="45.95083" lon="4.8702">
        <ele>277</ele>
        <time>2016-09-08T10:53:25Z</time>
      </trkpt>
      <trkpt lat="45.9508" lon="4.87014">
        <ele>277</ele>
        <time>2016-09-08T10:53:26Z</time>
      </trkpt>
      <trkpt lat="45.95077" lon="4.87007">
        <ele>277</ele>
        <time>2016-09-08T10:53:27Z</time>
      </trkpt>
      <trkpt lat="45.95073" lon="4.87001">
        <ele>277</ele>
        <time>2016-09-08T10:53:28Z</time>
      </trkpt>
      <trkpt lat="45.9507" lon="4.86995">
        <ele>277</ele>
        <time>2016-09-08T10:53:29Z</time>
      </trkpt>
      <trkpt lat="45.95067" lon="4.86988">
        <ele>276</ele>
        <time>2016-09-08T10:53:30Z</time>
      </trkpt>
      <trkpt lat="45.95064" lon="4.86981">
        <ele>276</ele>
        <time>2016-09-08T10:53:31Z</time>
      </trkpt>
      <trkpt lat="45.95061" lon="4.86973">
        <ele>276</ele>
        <time>2016-09-08T10:53:32Z</time>
      </trkpt>
      <trkpt lat="45.95058" lon="4.86966">
        <ele>276</ele>
        <time>2016-09-08T10:53:33Z</time>
      </trkpt>
      <trkpt lat="45.95055" lon="4.86958">
        <ele>276</ele>
        <time>2016-09-08T10:53:34Z</time>
      </trkpt>
      <trkpt lat="45.95053" lon="4.8695">
        <ele>276</ele>
        <time>2016-09-08T10:53:35Z</time>
      </trkpt>
      <trkpt lat="45.9505" lon="4.86942">
        <ele>276</ele>
        <time>2016-09-08T10:53:36Z</time>
      </trkpt>
      <trkpt lat="45.95048" lon="4.86934">
        <ele>276</ele>
        <time>2016-09-08T10:53:37Z</time>
      </trkpt>
      <trkpt lat="45.95045" lon="4.86926">
        <ele>276</ele>
        <time>2016-09-08T10:53:38Z</time>
      </trkpt>
      <trkpt lat="45.95042" lon="4.86918">
        <ele>276</ele>
        <time>2016-09-08T10:53:39Z</time>
      </trkpt>
      <trkpt lat="45.9504" lon="4.86911">
        <ele>275</ele>
        <time>2016-09-08T10:53:40Z</time>
      </trkpt>
      <trkpt lat="45.95037" lon="4.86904">
        <ele>275</ele>
        <time>2016-09-08T10:53:41Z</time>
      </trkpt>
      <trkpt lat="45.95034" lon="4.86897">
        <ele>275</ele>
        <time>2016-09-08T10:53:42Z</time>
      </trkpt>
      <trkpt lat="45.95032" lon="4.86889">
        <ele>275</ele>
        <time>2016-09-08T10:53:43Z</time>
      </trkpt>
      <trkpt lat="45.95029" lon="4.86882">
        <ele>275</ele>
        <time>2016-09-08T10:53:44Z</time>
      </trkpt>
      <trkpt lat="45.95027" lon="4.86875">
        <ele>275</ele>
        <time>2016-09-08T10:53:45Z</time>
      </trkpt>
      <trkpt lat="45.95024" lon="4.86867">
        <ele>275</ele>
        <time>2016-09-08T10:53:46Z</time>
      </trkpt>
      <trkpt lat="45.95022" lon="4.8686">
        <ele>275</ele>
        <time>2016-09-08T10:53:47Z</time>
      </trkpt>
      <trkpt lat="45.95019" lon="4.86853">
        <ele>275</ele>
        <time>2016-09-08T10:53:48Z</time>
      </trkpt>
      <trkpt lat="45.95016" lon="4.86845">
        <ele>275</ele>
        <time>2016-09-08T10:53:49Z</time>
      </trkpt>
      <trkpt lat="45.95013" lon="4.86838">
        <ele>276</ele>
        <time>2016-09-08T10:53:50Z</time>
      </trkpt>
      <trkpt lat="45.9501" lon="4.86831">
        <ele>275</ele>
        <time>2016-09-08T10:53:51Z</time>
      </trkpt>
      <trkpt lat="45.95006" lon="4.86823">
        <ele>275</ele>
        <time>2016-09-08T10:53:52Z</time>
      </trkpt>
      <trkpt lat="45.95003" lon="4.86816">
        <ele>275</ele>
        <time>2016-09-08T10:53:53Z</time>
      </trkpt>
      <trkpt lat="45.94999" lon="4.86809">
        <ele>276</ele>
        <time>2016-09-08T10:53:54Z</time>
      </trkpt>
      <trkpt lat="45.94995" lon="4.86802">
        <ele>276</ele>
        <time>2016-09-08T10:53:55Z</time>
      </trkpt>
      <trkpt lat="45.94991" lon="4.86794">
        <ele>276</ele>
        <time>2016-09-08T10:53:56Z</time>
      </trkpt>
      <trkpt lat="45.94987" lon="4.86787">
        <ele>275</ele>
        <time>2016-09-08T10:53:57Z</time>
      </trkpt>
      <trkpt lat="45.94983" lon="4.86779">
        <ele>275</ele>
        <time>2016-09-08T10:53:58Z</time>
      </trkpt>
      <trkpt lat="45.94979" lon="4.86772">
        <ele>275</ele>
        <time>2016-09-08T10:53:59Z</time>
      </trkpt>
      <trkpt lat="45.94974" lon="4.86765">
        <ele>275</ele>
        <time>2016-09-08T10:54:00Z</time>
      </trkpt>
      <trkpt lat="45.9497" lon="4.86758">
        <ele>275</ele>
        <time>2016-09-08T10:54:01Z</time>
      </trkpt>
      <trkpt lat="45.94967" lon="4.86751">
        <ele>275</ele>
        <time>2016-09-08T10:54:02Z</time>
      </trkpt>
      <trkpt lat="45.94963" lon="4.86744">
        <ele>275</ele>
        <time>2016-09-08T10:54:03Z</time>
      </trkpt>
      <trkpt lat="45.9496" lon="4.86736">
        <ele>275</ele>
        <time>2016-09-08T10:54:04Z</time>
      </trkpt>
      <trkpt lat="45.94958" lon="4.86729">
        <ele>275</ele>
        <time>2016-09-08T10:54:05Z</time>
      </trkpt>
      <trkpt lat="45.94955" lon="4.86721">
        <ele>275</ele>
        <time>2016-09-08T10:54:06Z</time>
      </trkpt>
      <trkpt lat="45.94953" lon="4.86713">
        <ele>275</ele>
        <time>2016-09-08T10:54:07Z</time>
      </trkpt>
      <trkpt lat="45.94951" lon="4.86704">
        <ele>275</ele>
        <time>2016-09-08T10:54:08Z</time>
      </trkpt>
      <trkpt lat="45.9495" lon="4.86696">
        <ele>275</ele>
        <time>2016-09-08T10:54:09Z</time>
      </trkpt>
      <trkpt lat="45.94949" lon="4.86688">
        <ele>276</ele>
        <time>2016-09-08T10:54:10Z</time>
      </trkpt>
      <trkpt lat="45.94948" lon="4.86679">
        <ele>276</ele>
        <time>2016-09-08T10:54:11Z</time>
      </trkpt>
      <trkpt lat="45.94948" lon="4.86671">
        <ele>276</ele>
        <time>2016-09-08T10:54:12Z</time>
      </trkpt>
      <trkpt lat="45.94948" lon="4.86664">
        <ele>276</ele>
        <time>2016-09-08T10:54:13Z</time>
      </trkpt>
      <trkpt lat="45.94949" lon="4.86656">
        <ele>276</ele>
        <time>2016-09-08T10:54:14Z</time>
      </trkpt>
      <trkpt lat="45.94951" lon="4.86649">
        <ele>276</ele>
        <time>2016-09-08T10:54:15Z</time>
      </trkpt>
      <trkpt lat="45.94954" lon="4.86643">
        <ele>276</ele>
        <time>2016-09-08T10:54:16Z</time>
      </trkpt>
      <trkpt lat="45.94958" lon="4.86637">
        <ele>276</ele>
        <time>2016-09-08T10:54:17Z</time>
      </trkpt>
      <trkpt lat="45.94961" lon="4.86632">
        <ele>275</ele>
        <time>2016-09-08T10:54:18Z</time>
      </trkpt>
      <trkpt lat="45.94965" lon="4.86628">
        <ele>275</ele>
        <time>2016-09-08T10:54:19Z</time>
      </trkpt>
      <trkpt lat="45.9497" lon="4.86624">
        <ele>275</ele>
        <time>2016-09-08T10:54:20Z</time>
      </trkpt>
      <trkpt lat="45.94975" lon="4.86622">
        <ele>275</ele>
        <time>2016-09-08T10:54:21Z</time>
      </trkpt>
      <trkpt lat="45.94981" lon="4.8662">
        <ele>275</ele>
        <time>2016-09-08T10:54:22Z</time>
      </trkpt>
      <trkpt lat="45.94987" lon="4.86618">
        <ele>275</ele>
        <time>2016-09-08T10:54:23Z</time>
      </trkpt>
      <trkpt lat="45.94993" lon="4.86617">
        <ele>275</ele>
        <time>2016-09-08T10:54:24Z</time>
      </trkpt>
      <trkpt lat="45.94999" lon="4.86616">
        <ele>275</ele>
        <time>2016-09-08T10:54:25Z</time>
      </trkpt>
      <trkpt lat="45.95005" lon="4.86616">
        <ele>273</ele>
        <time>2016-09-08T10:54:26Z</time>
      </trkpt>
      <trkpt lat="45.95011" lon="4.86616">
        <ele>273</ele>
        <time>2016-09-08T10:54:27Z</time>
      </trkpt>
      <trkpt lat="45.95017" lon="4.86615">
        <ele>273</ele>
        <time>2016-09-08T10:54:28Z</time>
      </trkpt>
      <trkpt lat="45.95024" lon="4.86613">
        <ele>273</ele>
        <time>2016-09-08T10:54:29Z</time>
      </trkpt>
      <trkpt lat="45.9503" lon="4.86612">
        <ele>273</ele>
        <time>2016-09-08T10:54:30Z</time>
      </trkpt>
      <trkpt lat="45.95036" lon="4.8661">
        <ele>273</ele>
        <time>2016-09-08T10:54:31Z</time>
      </trkpt>
      <trkpt lat="45.95043" lon="4.86608">
        <ele>272</ele>
        <time>2016-09-08T10:54:32Z</time>
      </trkpt>
      <trkpt lat="45.95049" lon="4.86606">
        <ele>272</ele>
        <time>2016-09-08T10:54:33Z</time>
      </trkpt>
      <trkpt lat="45.95056" lon="4.86605">
        <ele>272</ele>
        <time>2016-09-08T10:54:34Z</time>
      </trkpt>
      <trkpt lat="45.95063" lon="4.86602">
        <ele>272</ele>
        <time>2016-09-08T10:54:35Z</time>
      </trkpt>
      <trkpt lat="45.95071" lon="4.866">
        <ele>272</ele>
        <time>2016-09-08T10:54:36Z</time>
      </trkpt>
      <trkpt lat="45.95078" lon="4.86598">
        <ele>272</ele>
        <time>2016-09-08T10:54:37Z</time>
      </trkpt>
      <trkpt lat="45.95084" lon="4.86595">
        <ele>271</ele>
        <time>2016-09-08T10:54:38Z</time>
      </trkpt>
      <trkpt lat="45.95091" lon="4.86592">
        <ele>271</ele>
        <time>2016-09-08T10:54:39Z</time>
      </trkpt>
      <trkpt lat="45.95099" lon="4.86591">
        <ele>271</ele>
        <time>2016-09-08T10:54:40Z</time>
      </trkpt>
      <trkpt lat="45.95106" lon="4.8659">
        <ele>271</ele>
        <time>2016-09-08T10:54:41Z</time>
      </trkpt>
      <trkpt lat="45.95113" lon="4.86589">
        <ele>271</ele>
        <time>2016-09-08T10:54:42Z</time>
      </trkpt>
      <trkpt lat="45.9512" lon="4.86588">
        <ele>270</ele>
        <time>2016-09-08T10:54:43Z</time>
      </trkpt>
      <trkpt lat="45.95127" lon="4.86587">
        <ele>270</ele>
        <time>2016-09-08T10:54:44Z</time>
      </trkpt>
      <trkpt lat="45.95134" lon="4.86586">
        <ele>270</ele>
        <time>2016-09-08T10:54:45Z</time>
      </trkpt>
      <trkpt lat="45.95141" lon="4.86584">
        <ele>270</ele>
        <time>2016-09-08T10:54:46Z</time>
      </trkpt>
      <trkpt lat="45.95148" lon="4.86583">
        <ele>270</ele>
        <time>2016-09-08T10:54:47Z</time>
      </trkpt>
      <trkpt lat="45.95155" lon="4.86583">
        <ele>269</ele>
        <time>2016-09-08T10:54:48Z</time>
      </trkpt>
      <trkpt lat="45.95162" lon="4.86582">
        <ele>269</ele>
        <time>2016-09-08T10:54:49Z</time>
      </trkpt>
      <trkpt lat="45.95168" lon="4.86582">
        <ele>269</ele>
        <time>2016-09-08T10:54:50Z</time>
      </trkpt>
      <trkpt lat="45.95175" lon="4.86582">
        <ele>269</ele>
        <time>2016-09-08T10:54:51Z</time>
      </trkpt>
      <trkpt lat="45.95182" lon="4.86581">
        <ele>269</ele>
        <time>2016-09-08T10:54:52Z</time>
      </trkpt>
      <trkpt lat="45.95189" lon="4.8658">
        <ele>269</ele>
        <time>2016-09-08T10:54:53Z</time>
      </trkpt>
      <trkpt lat="45.95197" lon="4.86579">
        <ele>268</ele>
        <time>2016-09-08T10:54:54Z</time>
      </trkpt>
      <trkpt lat="45.95204" lon="4.86579">
        <ele>268</ele>
        <time>2016-09-08T10:54:55Z</time>
      </trkpt>
      <trkpt lat="45.95212" lon="4.8658">
        <ele>268</ele>
        <time>2016-09-08T10:54:56Z</time>
      </trkpt>
      <trkpt lat="45.9522" lon="4.8658">
        <ele>268</ele>
        <time>2016-09-08T10:54:57Z</time>
      </trkpt>
      <trkpt lat="45.95227" lon="4.86582">
        <ele>268</ele>
        <time>2016-09-08T10:54:58Z</time>
      </trkpt>
      <trkpt lat="45.95235" lon="4.86583">
        <ele>268</ele>
        <time>2016-09-08T10:54:59Z</time>
      </trkpt>
      <trkpt lat="45.95242" lon="4.86585">
        <ele>268</ele>
        <time>2016-09-08T10:55:00Z</time>
      </trkpt>
      <trkpt lat="45.95249" lon="4.86586">
        <ele>268</ele>
        <time>2016-09-08T10:55:01Z</time>
      </trkpt>
      <trkpt lat="45.95256" lon="4.86585">
        <ele>268</ele>
        <time>2016-09-08T10:55:02Z</time>
      </trkpt>
      <trkpt lat="45.95261" lon="4.86584">
        <ele>268</ele>
        <time>2016-09-08T10:55:03Z</time>
      </trkpt>
      <trkpt lat="45.95265" lon="4.86583">
        <ele>267</ele>
        <time>2016-09-08T10:55:04Z</time>
      </trkpt>
      <trkpt lat="45.9527" lon="4.86578">
        <ele>267</ele>
        <time>2016-09-08T10:55:06Z</time>
      </trkpt>
      <trkpt lat="45.95271" lon="4.86573">
        <ele>267</ele>
        <time>2016-09-08T10:55:07Z</time>
      </trkpt>
      <trkpt lat="45.95268" lon="4.86562">
        <ele>267</ele>
        <time>2016-09-08T10:55:09Z</time>
      </trkpt>
      <trkpt lat="45.95265" lon="4.86558">
        <ele>267</ele>
        <time>2016-09-08T10:55:10Z</time>
      </trkpt>
      <trkpt lat="45.95258" lon="4.86551">
        <ele>267</ele>
        <time>2016-09-08T10:55:12Z</time>
      </trkpt>
      <trkpt lat="45.95254" lon="4.86547">
        <ele>267</ele>
        <time>2016-09-08T10:55:13Z</time>
      </trkpt>
      <trkpt lat="45.95249" lon="4.86542">
        <ele>268</ele>
        <time>2016-09-08T10:55:14Z</time>
      </trkpt>
      <trkpt lat="45.95245" lon="4.86537">
        <ele>268</ele>
        <time>2016-09-08T10:55:15Z</time>
      </trkpt>
      <trkpt lat="45.95241" lon="4.8653">
        <ele>268</ele>
        <time>2016-09-08T10:55:16Z</time>
      </trkpt>
      <trkpt lat="45.95237" lon="4.86525">
        <ele>268</ele>
        <time>2016-09-08T10:55:17Z</time>
      </trkpt>
      <trkpt lat="45.95232" lon="4.86519">
        <ele>268</ele>
        <time>2016-09-08T10:55:18Z</time>
      </trkpt>
      <trkpt lat="45.95228" lon="4.86513">
        <ele>268</ele>
        <time>2016-09-08T10:55:19Z</time>
      </trkpt>
      <trkpt lat="45.95224" lon="4.86507">
        <ele>268</ele>
        <time>2016-09-08T10:55:20Z</time>
      </trkpt>
      <trkpt lat="45.95219" lon="4.86502">
        <ele>268</ele>
        <time>2016-09-08T10:55:21Z</time>
      </trkpt>
      <trkpt lat="45.95215" lon="4.86497">
        <ele>268</ele>
        <time>2016-09-08T10:55:22Z</time>
      </trkpt>
      <trkpt lat="45.9521" lon="4.86491">
        <ele>268</ele>
        <time>2016-09-08T10:55:23Z</time>
      </trkpt>
      <trkpt lat="45.95206" lon="4.86486">
        <ele>268</ele>
        <time>2016-09-08T10:55:24Z</time>
      </trkpt>
      <trkpt lat="45.95201" lon="4.86481">
        <ele>268</ele>
        <time>2016-09-08T10:55:25Z</time>
      </trkpt>
      <trkpt lat="45.95197" lon="4.86476">
        <ele>268</ele>
        <time>2016-09-08T10:55:26Z</time>
      </trkpt>
      <trkpt lat="45.95193" lon="4.86471">
        <ele>268</ele>
        <time>2016-09-08T10:55:27Z</time>
      </trkpt>
      <trkpt lat="45.95189" lon="4.86465">
        <ele>268</ele>
        <time>2016-09-08T10:55:28Z</time>
      </trkpt>
      <trkpt lat="45.95184" lon="4.8646">
        <ele>268</ele>
        <time>2016-09-08T10:55:29Z</time>
      </trkpt>
      <trkpt lat="45.95179" lon="4.86455">
        <ele>268</ele>
        <time>2016-09-08T10:55:30Z</time>
      </trkpt>
      <trkpt lat="45.95175" lon="4.86451">
        <ele>268</ele>
        <time>2016-09-08T10:55:31Z</time>
      </trkpt>
      <trkpt lat="45.95171" lon="4.86446">
        <ele>267</ele>
        <time>2016-09-08T10:55:32Z</time>
      </trkpt>
      <trkpt lat="45.95166" lon="4.86441">
        <ele>268</ele>
        <time>2016-09-08T10:55:33Z</time>
      </trkpt>
      <trkpt lat="45.95161" lon="4.86436">
        <ele>268</ele>
        <time>2016-09-08T10:55:34Z</time>
      </trkpt>
      <trkpt lat="45.95157" lon="4.86431">
        <ele>268</ele>
        <time>2016-09-08T10:55:35Z</time>
      </trkpt>
      <trkpt lat="45.95152" lon="4.86425">
        <ele>268</ele>
        <time>2016-09-08T10:55:36Z</time>
      </trkpt>
      <trkpt lat="45.95148" lon="4.8642">
        <ele>268</ele>
        <time>2016-09-08T10:55:37Z</time>
      </trkpt>
      <trkpt lat="45.95143" lon="4.86415">
        <ele>268</ele>
        <time>2016-09-08T10:55:38Z</time>
      </trkpt>
      <trkpt lat="45.95139" lon="4.86409">
        <ele>268</ele>
        <time>2016-09-08T10:55:39Z</time>
      </trkpt>
      <trkpt lat="45.95134" lon="4.86405">
        <ele>268</ele>
        <time>2016-09-08T10:55:40Z</time>
      </trkpt>
      <trkpt lat="45.9513" lon="4.864">
        <ele>268</ele>
        <time>2016-09-08T10:55:41Z</time>
      </trkpt>
      <trkpt lat="45.95126" lon="4.86394">
        <ele>268</ele>
        <time>2016-09-08T10:55:42Z</time>
      </trkpt>
      <trkpt lat="45.95122" lon="4.86389">
        <ele>269</ele>
        <time>2016-09-08T10:55:43Z</time>
      </trkpt>
      <trkpt lat="45.95118" lon="4.86383">
        <ele>269</ele>
        <time>2016-09-08T10:55:44Z</time>
      </trkpt>
      <trkpt lat="45.95114" lon="4.86377">
        <ele>269</ele>
        <time>2016-09-08T10:55:45Z</time>
      </trkpt>
      <trkpt lat="45.95109" lon="4.86372">
        <ele>269</ele>
        <time>2016-09-08T10:55:46Z</time>
      </trkpt>
      <trkpt lat="45.95105" lon="4.86366">
        <ele>269</ele>
        <time>2016-09-08T10:55:47Z</time>
      </trkpt>
      <trkpt lat="45.95101" lon="4.86361">
        <ele>269</ele>
        <time>2016-09-08T10:55:48Z</time>
      </trkpt>
      <trkpt lat="45.95097" lon="4.86355">
        <ele>269</ele>
        <time>2016-09-08T10:55:49Z</time>
      </trkpt>
      <trkpt lat="45.95092" lon="4.8635">
        <ele>269</ele>
        <time>2016-09-08T10:55:50Z</time>
      </trkpt>
      <trkpt lat="45.95088" lon="4.86345">
        <ele>269</ele>
        <time>2016-09-08T10:55:51Z</time>
      </trkpt>
      <trkpt lat="45.95084" lon="4.8634">
        <ele>269</ele>
        <time>2016-09-08T10:55:52Z</time>
      </trkpt>
      <trkpt lat="45.9508" lon="4.86334">
        <ele>269</ele>
        <time>2016-09-08T10:55:53Z</time>
      </trkpt>
      <trkpt lat="45.95076" lon="4.86329">
        <ele>270</ele>
        <time>2016-09-08T10:55:54Z</time>
      </trkpt>
      <trkpt lat="45.95072" lon="4.86324">
        <ele>270</ele>
        <time>2016-09-08T10:55:55Z</time>
      </trkpt>
      <trkpt lat="45.95068" lon="4.86319">
        <ele>270</ele>
        <time>2016-09-08T10:55:56Z</time>
      </trkpt>
      <trkpt lat="45.95064" lon="4.86313">
        <ele>270</ele>
        <time>2016-09-08T10:55:57Z</time>
      </trkpt>
      <trkpt lat="45.9506" lon="4.86308">
        <ele>271</ele>
        <time>2016-09-08T10:55:58Z</time>
      </trkpt>
      <trkpt lat="45.95056" lon="4.86303">
        <ele>271</ele>
        <time>2016-09-08T10:55:59Z</time>
      </trkpt>
      <trkpt lat="45.95052" lon="4.86298">
        <ele>271</ele>
        <time>2016-09-08T10:56:00Z</time>
      </trkpt>
      <trkpt lat="45.95048" lon="4.86293">
        <ele>271</ele>
        <time>2016-09-08T10:56:01Z</time>
      </trkpt>
      <trkpt lat="45.95044" lon="4.86289">
        <ele>271</ele>
        <time>2016-09-08T10:56:02Z</time>
      </trkpt>
      <trkpt lat="45.9504" lon="4.86284">
        <ele>271</ele>
        <time>2016-09-08T10:56:03Z</time>
      </trkpt>
      <trkpt lat="45.95037" lon="4.8628">
        <ele>271</ele>
        <time>2016-09-08T10:56:04Z</time>
      </trkpt>
      <trkpt lat="45.95033" lon="4.86275">
        <ele>271</ele>
        <time>2016-09-08T10:56:05Z</time>
      </trkpt>
      <trkpt lat="45.9503" lon="4.86271">
        <ele>271</ele>
        <time>2016-09-08T10:56:06Z</time>
      </trkpt>
      <trkpt lat="45.95026" lon="4.86267">
        <ele>271</ele>
        <time>2016-09-08T10:56:07Z</time>
      </trkpt>
      <trkpt lat="45.95022" lon="4.86263">
        <ele>271</ele>
        <time>2016-09-08T10:56:08Z</time>
      </trkpt>
      <trkpt lat="45.95018" lon="4.86259">
        <ele>271</ele>
        <time>2016-09-08T10:56:09Z</time>
      </trkpt>
      <trkpt lat="45.95015" lon="4.86255">
        <ele>272</ele>
        <time>2016-09-08T10:56:10Z</time>
      </trkpt>
      <trkpt lat="45.95011" lon="4.86251">
        <ele>272</ele>
        <time>2016-09-08T10:56:11Z</time>
      </trkpt>
      <trkpt lat="45.95007" lon="4.86247">
        <ele>272</ele>
        <time>2016-09-08T10:56:12Z</time>
      </trkpt>
      <trkpt lat="45.95003" lon="4.86243">
        <ele>272</ele>
        <time>2016-09-08T10:56:13Z</time>
      </trkpt>
      <trkpt lat="45.94997" lon="4.86234">
        <ele>272</ele>
        <time>2016-09-08T10:56:15Z</time>
      </trkpt>
      <trkpt lat="45.94993" lon="4.8623">
        <ele>272</ele>
        <time>2016-09-08T10:56:16Z</time>
      </trkpt>
      <trkpt lat="45.94987" lon="4.86222">
        <ele>272</ele>
        <time>2016-09-08T10:56:18Z</time>
      </trkpt>
      <trkpt lat="45.94984" lon="4.86218">
        <ele>272</ele>
        <time>2016-09-08T10:56:19Z</time>
      </trkpt>
      <trkpt lat="45.94978" lon="4.86209">
        <ele>272</ele>
        <time>2016-09-08T10:56:21Z</time>
      </trkpt>
      <trkpt lat="45.94975" lon="4.86205">
        <ele>272</ele>
        <time>2016-09-08T10:56:22Z</time>
      </trkpt>
      <trkpt lat="45.94968" lon="4.86197">
        <ele>272</ele>
        <time>2016-09-08T10:56:24Z</time>
      </trkpt>
      <trkpt lat="45.94964" lon="4.86193">
        <ele>272</ele>
        <time>2016-09-08T10:56:25Z</time>
      </trkpt>
      <trkpt lat="45.94958" lon="4.86185">
        <ele>273</ele>
        <time>2016-09-08T10:56:27Z</time>
      </trkpt>
      <trkpt lat="45.94955" lon="4.8618">
        <ele>273</ele>
        <time>2016-09-08T10:56:28Z</time>
      </trkpt>
      <trkpt lat="45.94948" lon="4.86172">
        <ele>273</ele>
        <time>2016-09-08T10:56:30Z</time>
      </trkpt>
      <trkpt lat="45.94945" lon="4.86168">
        <ele>273</ele>
        <time>2016-09-08T10:56:31Z</time>
      </trkpt>
      <trkpt lat="45.94938" lon="4.86159">
        <ele>273</ele>
        <time>2016-09-08T10:56:33Z</time>
      </trkpt>
      <trkpt lat="45.94935" lon="4.86154">
        <ele>273</ele>
        <time>2016-09-08T10:56:34Z</time>
      </trkpt>
      <trkpt lat="45.94932" lon="4.86149">
        <ele>273</ele>
        <time>2016-09-08T10:56:35Z</time>
      </trkpt>
      <trkpt lat="45.94929" lon="4.86143">
        <ele>273</ele>
        <time>2016-09-08T10:56:36Z</time>
      </trkpt>
      <trkpt lat="45.94923" lon="4.86135">
        <ele>273</ele>
        <time>2016-09-08T10:56:38Z</time>
      </trkpt>
      <trkpt lat="45.9492" lon="4.86131">
        <ele>273</ele>
        <time>2016-09-08T10:56:39Z</time>
      </trkpt>
      <trkpt lat="45.94915" lon="4.86123">
        <ele>274</ele>
        <time>2016-09-08T10:56:41Z</time>
      </trkpt>
      <trkpt lat="45.94912" lon="4.86118">
        <ele>274</ele>
        <time>2016-09-08T10:56:42Z</time>
      </trkpt>
      <trkpt lat="45.94907" lon="4.86107">
        <ele>274</ele>
        <time>2016-09-08T10:56:44Z</time>
      </trkpt>
      <trkpt lat="45.94906" lon="4.86102">
        <ele>274</ele>
        <time>2016-09-08T10:56:45Z</time>
      </trkpt>
      <trkpt lat="45.94904" lon="4.86096">
        <ele>274</ele>
        <time>2016-09-08T10:56:46Z</time>
      </trkpt>
      <trkpt lat="45.94901" lon="4.8609">
        <ele>274</ele>
        <time>2016-09-08T10:56:47Z</time>
      </trkpt>
      <trkpt lat="45.94899" lon="4.86084">
        <ele>274</ele>
        <time>2016-09-08T10:56:48Z</time>
      </trkpt>
      <trkpt lat="45.94897" lon="4.86078">
        <ele>274</ele>
        <time>2016-09-08T10:56:49Z</time>
      </trkpt>
      <trkpt lat="45.94895" lon="4.86071">
        <ele>274</ele>
        <time>2016-09-08T10:56:50Z</time>
      </trkpt>
      <trkpt lat="45.94893" lon="4.86064">
        <ele>274</ele>
        <time>2016-09-08T10:56:51Z</time>
      </trkpt>
      <trkpt lat="45.94891" lon="4.86057">
        <ele>274</ele>
        <time>2016-09-08T10:56:52Z</time>
      </trkpt>
      <trkpt lat="45.94889" lon="4.8605">
        <ele>274</ele>
        <time>2016-09-08T10:56:53Z</time>
      </trkpt>
      <trkpt lat="45.94887" lon="4.86043">
        <ele>274</ele>
        <time>2016-09-08T10:56:54Z</time>
      </trkpt>
      <trkpt lat="45.94885" lon="4.86036">
        <ele>274</ele>
        <time>2016-09-08T10:56:55Z</time>
      </trkpt>
      <trkpt lat="45.94883" lon="4.86029">
        <ele>274</ele>
        <time>2016-09-08T10:56:56Z</time>
      </trkpt>
      <trkpt lat="45.94881" lon="4.86023">
        <ele>274</ele>
        <time>2016-09-08T10:56:57Z</time>
      </trkpt>
      <trkpt lat="45.9488" lon="4.86016">
        <ele>274</ele>
        <time>2016-09-08T10:56:58Z</time>
      </trkpt>
      <trkpt lat="45.94878" lon="4.8601">
        <ele>274</ele>
        <time>2016-09-08T10:56:59Z</time>
      </trkpt>
      <trkpt lat="45.94876" lon="4.86003">
        <ele>274</ele>
        <time>2016-09-08T10:57:00Z</time>
      </trkpt>
      <trkpt lat="45.94875" lon="4.85997">
        <ele>275</ele>
        <time>2016-09-08T10:57:01Z</time>
      </trkpt>
      <trkpt lat="45.94873" lon="4.85991">
        <ele>275</ele>
        <time>2016-09-08T10:57:02Z</time>
      </trkpt>
      <trkpt lat="45.94871" lon="4.85985">
        <ele>275</ele>
        <time>2016-09-08T10:57:03Z</time>
      </trkpt>
      <trkpt lat="45.94869" lon="4.85978">
        <ele>275</ele>
        <time>2016-09-08T10:57:04Z</time>
      </trkpt>
      <trkpt lat="45.94868" lon="4.85972">
        <ele>275</ele>
        <time>2016-09-08T10:57:05Z</time>
      </trkpt>
      <trkpt lat="45.94866" lon="4.85966">
        <ele>275</ele>
        <time>2016-09-08T10:57:06Z</time>
      </trkpt>
      <trkpt lat="45.94864" lon="4.85959">
        <ele>275</ele>
        <time>2016-09-08T10:57:07Z</time>
      </trkpt>
      <trkpt lat="45.94863" lon="4.85953">
        <ele>275</ele>
        <time>2016-09-08T10:57:08Z</time>
      </trkpt>
      <trkpt lat="45.94861" lon="4.85946">
        <ele>275</ele>
        <time>2016-09-08T10:57:09Z</time>
      </trkpt>
      <trkpt lat="45.94859" lon="4.8594">
        <ele>275</ele>
        <time>2016-09-08T10:57:10Z</time>
      </trkpt>
      <trkpt lat="45.94857" lon="4.85934">
        <ele>275</ele>
        <time>2016-09-08T10:57:11Z</time>
      </trkpt>
      <trkpt lat="45.94856" lon="4.85927">
        <ele>275</ele>
        <time>2016-09-08T10:57:12Z</time>
      </trkpt>
      <trkpt lat="45.94854" lon="4.85921">
        <ele>275</ele>
        <time>2016-09-08T10:57:13Z</time>
      </trkpt>
      <trkpt lat="45.94852" lon="4.85915">
        <ele>275</ele>
        <time>2016-09-08T10:57:14Z</time>
      </trkpt>
      <trkpt lat="45.94851" lon="4.85909">
        <ele>276</ele>
        <time>2016-09-08T10:57:15Z</time>
      </trkpt>
      <trkpt lat="45.94849" lon="4.85903">
        <ele>276</ele>
        <time>2016-09-08T10:57:16Z</time>
      </trkpt>
      <trkpt lat="45.94848" lon="4.85896">
        <ele>276</ele>
        <time>2016-09-08T10:57:17Z</time>
      </trkpt>
      <trkpt lat="45.94846" lon="4.85889">
        <ele>276</ele>
        <time>2016-09-08T10:57:18Z</time>
      </trkpt>
      <trkpt lat="45.94845" lon="4.85881">
        <ele>276</ele>
        <time>2016-09-08T10:57:19Z</time>
      </trkpt>
      <trkpt lat="45.94843" lon="4.85874">
        <ele>276</ele>
        <time>2016-09-08T10:57:20Z</time>
      </trkpt>
      <trkpt lat="45.94841" lon="4.85867">
        <ele>276</ele>
        <time>2016-09-08T10:57:21Z</time>
      </trkpt>
      <trkpt lat="45.94839" lon="4.8586">
        <ele>276</ele>
        <time>2016-09-08T10:57:22Z</time>
      </trkpt>
      <trkpt lat="45.94838" lon="4.85853">
        <ele>276</ele>
        <time>2016-09-08T10:57:23Z</time>
      </trkpt>
      <trkpt lat="45.94836" lon="4.85845">
        <ele>277</ele>
        <time>2016-09-08T10:57:24Z</time>
      </trkpt>
      <trkpt lat="45.94834" lon="4.85838">
        <ele>277</ele>
        <time>2016-09-08T10:57:25Z</time>
      </trkpt>
      <trkpt lat="45.94832" lon="4.85832">
        <ele>277</ele>
        <time>2016-09-08T10:57:26Z</time>
      </trkpt>
      <trkpt lat="45.9483" lon="4.85825">
        <ele>277</ele>
        <time>2016-09-08T10:57:27Z</time>
      </trkpt>
      <trkpt lat="45.94828" lon="4.85819">
        <ele>278</ele>
        <time>2016-09-08T10:57:28Z</time>
      </trkpt>
      <trkpt lat="45.94826" lon="4.85813">
        <ele>278</ele>
        <time>2016-09-08T10:57:29Z</time>
      </trkpt>
      <trkpt lat="45.94825" lon="4.85807">
        <ele>278</ele>
        <time>2016-09-08T10:57:30Z</time>
      </trkpt>
      <trkpt lat="45.94823" lon="4.858">
        <ele>278</ele>
        <time>2016-09-08T10:57:31Z</time>
      </trkpt>
      <trkpt lat="45.94822" lon="4.85792">
        <ele>278</ele>
        <time>2016-09-08T10:57:32Z</time>
      </trkpt>
      <trkpt lat="45.9482" lon="4.85785">
        <ele>278</ele>
        <time>2016-09-08T10:57:33Z</time>
      </trkpt>
      <trkpt lat="45.94818" lon="4.85778">
        <ele>278</ele>
        <time>2016-09-08T10:57:34Z</time>
      </trkpt>
      <trkpt lat="45.94816" lon="4.85771">
        <ele>278</ele>
        <time>2016-09-08T10:57:35Z</time>
      </trkpt>
      <trkpt lat="45.94815" lon="4.85764">
        <ele>278</ele>
        <time>2016-09-08T10:57:36Z</time>
      </trkpt>
      <trkpt lat="45.94812" lon="4.85758">
        <ele>278</ele>
        <time>2016-09-08T10:57:37Z</time>
      </trkpt>
      <trkpt lat="45.94808" lon="4.85747">
        <ele>279</ele>
        <time>2016-09-08T10:57:39Z</time>
      </trkpt>
      <trkpt lat="45.94806" lon="4.85741">
        <ele>279</ele>
        <time>2016-09-08T10:57:40Z</time>
      </trkpt>
      <trkpt lat="45.94804" lon="4.85729">
        <ele>280</ele>
        <time>2016-09-08T10:57:42Z</time>
      </trkpt>
      <trkpt lat="45.94802" lon="4.85723">
        <ele>280</ele>
        <time>2016-09-08T10:57:43Z</time>
      </trkpt>
      <trkpt lat="45.94799" lon="4.85712">
        <ele>280</ele>
        <time>2016-09-08T10:57:45Z</time>
      </trkpt>
      <trkpt lat="45.94797" lon="4.85706">
        <ele>280</ele>
        <time>2016-09-08T10:57:46Z</time>
      </trkpt>
      <trkpt lat="45.94795" lon="4.857">
        <ele>280</ele>
        <time>2016-09-08T10:57:47Z</time>
      </trkpt>
      <trkpt lat="45.94793" lon="4.85694">
        <ele>280</ele>
        <time>2016-09-08T10:57:48Z</time>
      </trkpt>
      <trkpt lat="45.9479" lon="4.85682">
        <ele>280</ele>
        <time>2016-09-08T10:57:50Z</time>
      </trkpt>
      <trkpt lat="45.94788" lon="4.85676">
        <ele>280</ele>
        <time>2016-09-08T10:57:51Z</time>
      </trkpt>
      <trkpt lat="45.94785" lon="4.85664">
        <ele>281</ele>
        <time>2016-09-08T10:57:53Z</time>
      </trkpt>
      <trkpt lat="45.94784" lon="4.85658">
        <ele>281</ele>
        <time>2016-09-08T10:57:54Z</time>
      </trkpt>
      <trkpt lat="45.94783" lon="4.85652">
        <ele>281</ele>
        <time>2016-09-08T10:57:55Z</time>
      </trkpt>
      <trkpt lat="45.94781" lon="4.85646">
        <ele>281</ele>
        <time>2016-09-08T10:57:56Z</time>
      </trkpt>
      <trkpt lat="45.9478" lon="4.85639">
        <ele>281</ele>
        <time>2016-09-08T10:57:57Z</time>
      </trkpt>
      <trkpt lat="45.94778" lon="4.85632">
        <ele>280</ele>
        <time>2016-09-08T10:57:58Z</time>
      </trkpt>
      <trkpt lat="45.94776" lon="4.85626">
        <ele>280</ele>
        <time>2016-09-08T10:57:59Z</time>
      </trkpt>
      <trkpt lat="45.94774" lon="4.85619">
        <ele>280</ele>
        <time>2016-09-08T10:58:00Z</time>
      </trkpt>
      <trkpt lat="45.94772" lon="4.85612">
        <ele>280</ele>
        <time>2016-09-08T10:58:01Z</time>
      </trkpt>
      <trkpt lat="45.94771" lon="4.85604">
        <ele>280</ele>
        <time>2016-09-08T10:58:02Z</time>
      </trkpt>
      <trkpt lat="45.9477" lon="4.85597">
        <ele>280</ele>
        <time>2016-09-08T10:58:03Z</time>
      </trkpt>
      <trkpt lat="45.94769" lon="4.85589">
        <ele>280</ele>
        <time>2016-09-08T10:58:04Z</time>
      </trkpt>
      <trkpt lat="45.94767" lon="4.85581">
        <ele>279</ele>
        <time>2016-09-08T10:58:05Z</time>
      </trkpt>
      <trkpt lat="45.94765" lon="4.85572">
        <ele>279</ele>
        <time>2016-09-08T10:58:06Z</time>
      </trkpt>
      <trkpt lat="45.94764" lon="4.85563">
        <ele>278</ele>
        <time>2016-09-08T10:58:07Z</time>
      </trkpt>
      <trkpt lat="45.94764" lon="4.85553">
        <ele>278</ele>
        <time>2016-09-08T10:58:08Z</time>
      </trkpt>
      <trkpt lat="45.94763" lon="4.85544">
        <ele>278</ele>
        <time>2016-09-08T10:58:09Z</time>
      </trkpt>
      <trkpt lat="45.94761" lon="4.85534">
        <ele>278</ele>
        <time>2016-09-08T10:58:10Z</time>
      </trkpt>
      <trkpt lat="45.94759" lon="4.85524">
        <ele>277</ele>
        <time>2016-09-08T10:58:11Z</time>
      </trkpt>
      <trkpt lat="45.94757" lon="4.85514">
        <ele>277</ele>
        <time>2016-09-08T10:58:12Z</time>
      </trkpt>
      <trkpt lat="45.94756" lon="4.85503">
        <ele>276</ele>
        <time>2016-09-08T10:58:13Z</time>
      </trkpt>
      <trkpt lat="45.94754" lon="4.85492">
        <ele>276</ele>
        <time>2016-09-08T10:58:14Z</time>
      </trkpt>
      <trkpt lat="45.94752" lon="4.85481">
        <ele>275</ele>
        <time>2016-09-08T10:58:15Z</time>
      </trkpt>
      <trkpt lat="45.94751" lon="4.8547">
        <ele>275</ele>
        <time>2016-09-08T10:58:16Z</time>
      </trkpt>
      <trkpt lat="45.9475" lon="4.85458">
        <ele>274</ele>
        <time>2016-09-08T10:58:17Z</time>
      </trkpt>
      <trkpt lat="45.94748" lon="4.85446">
        <ele>274</ele>
        <time>2016-09-08T10:58:18Z</time>
      </trkpt>
      <trkpt lat="45.94747" lon="4.85435">
        <ele>273</ele>
        <time>2016-09-08T10:58:19Z</time>
      </trkpt>
      <trkpt lat="45.94746" lon="4.85423">
        <ele>273</ele>
        <time>2016-09-08T10:58:20Z</time>
      </trkpt>
      <trkpt lat="45.94744" lon="4.85411">
        <ele>272</ele>
        <time>2016-09-08T10:58:21Z</time>
      </trkpt>
      <trkpt lat="45.94743" lon="4.85399">
        <ele>272</ele>
        <time>2016-09-08T10:58:22Z</time>
      </trkpt>
      <trkpt lat="45.94741" lon="4.85388">
        <ele>272</ele>
        <time>2016-09-08T10:58:23Z</time>
      </trkpt>
      <trkpt lat="45.9474" lon="4.85377">
        <ele>271</ele>
        <time>2016-09-08T10:58:24Z</time>
      </trkpt>
      <trkpt lat="45.94739" lon="4.85366">
        <ele>271</ele>
        <time>2016-09-08T10:58:25Z</time>
      </trkpt>
      <trkpt lat="45.94737" lon="4.85356">
        <ele>271</ele>
        <time>2016-09-08T10:58:26Z</time>
      </trkpt>
      <trkpt lat="45.94737" lon="4.85345">
        <ele>271</ele>
        <time>2016-09-08T10:58:27Z</time>
      </trkpt>
      <trkpt lat="45.94736" lon="4.85335">
        <ele>271</ele>
        <time>2016-09-08T10:58:28Z</time>
      </trkpt>
      <trkpt lat="45.94735" lon="4.85325">
        <ele>270</ele>
        <time>2016-09-08T10:58:29Z</time>
      </trkpt>
      <trkpt lat="45.94734" lon="4.85315">
        <ele>270</ele>
        <time>2016-09-08T10:58:30Z</time>
      </trkpt>
      <trkpt lat="45.94732" lon="4.85304">
        <ele>270</ele>
        <time>2016-09-08T10:58:31Z</time>
      </trkpt>
      <trkpt lat="45.94731" lon="4.85294">
        <ele>270</ele>
        <time>2016-09-08T10:58:32Z</time>
      </trkpt>
      <trkpt lat="45.94731" lon="4.85284">
        <ele>269</ele>
        <time>2016-09-08T10:58:33Z</time>
      </trkpt>
      <trkpt lat="45.9473" lon="4.85274">
        <ele>269</ele>
        <time>2016-09-08T10:58:34Z</time>
      </trkpt>
      <trkpt lat="45.94728" lon="4.85264">
        <ele>269</ele>
        <time>2016-09-08T10:58:35Z</time>
      </trkpt>
      <trkpt lat="45.94727" lon="4.85254">
        <ele>269</ele>
        <time>2016-09-08T10:58:36Z</time>
      </trkpt>
      <trkpt lat="45.94726" lon="4.85243">
        <ele>269</ele>
        <time>2016-09-08T10:58:37Z</time>
      </trkpt>
      <trkpt lat="45.94725" lon="4.85234">
        <ele>269</ele>
        <time>2016-09-08T10:58:38Z</time>
      </trkpt>
      <trkpt lat="45.94723" lon="4.85224">
        <ele>269</ele>
        <time>2016-09-08T10:58:39Z</time>
      </trkpt>
      <trkpt lat="45.94721" lon="4.85215">
        <ele>269</ele>
        <time>2016-09-08T10:58:40Z</time>
      </trkpt>
      <trkpt lat="45.9472" lon="4.85205">
        <ele>269</ele>
        <time>2016-09-08T10:58:41Z</time>
      </trkpt>
      <trkpt lat="45.9472" lon="4.85196">
        <ele>269</ele>
        <time>2016-09-08T10:58:42Z</time>
      </trkpt>
      <trkpt lat="45.94719" lon="4.85186">
        <ele>269</ele>
        <time>2016-09-08T10:58:43Z</time>
      </trkpt>
      <trkpt lat="45.94719" lon="4.85177">
        <ele>269</ele>
        <time>2016-09-08T10:58:44Z</time>
      </trkpt>
      <trkpt lat="45.94718" lon="4.85168">
        <ele>269</ele>
        <time>2016-09-08T10:58:45Z</time>
      </trkpt>
      <trkpt lat="45.94717" lon="4.85158">
        <ele>269</ele>
        <time>2016-09-08T10:58:46Z</time>
      </trkpt>
      <trkpt lat="45.94716" lon="4.85148">
        <ele>269</ele>
        <time>2016-09-08T10:58:47Z</time>
      </trkpt>
      <trkpt lat="45.94714" lon="4.85138">
        <ele>269</ele>
        <time>2016-09-08T10:58:48Z</time>
      </trkpt>
      <trkpt lat="45.94713" lon="4.85127">
        <ele>269</ele>
        <time>2016-09-08T10:58:49Z</time>
      </trkpt>
      <trkpt lat="45.94711" lon="4.85117">
        <ele>269</ele>
        <time>2016-09-08T10:58:50Z</time>
      </trkpt>
      <trkpt lat="45.94711" lon="4.85107">
        <ele>269</ele>
        <time>2016-09-08T10:58:51Z</time>
      </trkpt>
      <trkpt lat="45.94709" lon="4.85097">
        <ele>269</ele>
        <time>2016-09-08T10:58:52Z</time>
      </trkpt>
      <trkpt lat="45.94709" lon="4.85088">
        <ele>269</ele>
        <time>2016-09-08T10:58:53Z</time>
      </trkpt>
      <trkpt lat="45.94707" lon="4.85078">
        <ele>269</ele>
        <time>2016-09-08T10:58:54Z</time>
      </trkpt>
      <trkpt lat="45.94706" lon="4.85069">
        <ele>269</ele>
        <time>2016-09-08T10:58:55Z</time>
      </trkpt>
      <trkpt lat="45.94705" lon="4.85059">
        <ele>269</ele>
        <time>2016-09-08T10:58:56Z</time>
      </trkpt>
      <trkpt lat="45.94704" lon="4.85049">
        <ele>269</ele>
        <time>2016-09-08T10:58:57Z</time>
      </trkpt>
      <trkpt lat="45.94703" lon="4.8504">
        <ele>269</ele>
        <time>2016-09-08T10:58:58Z</time>
      </trkpt>
      <trkpt lat="45.94702" lon="4.8503">
        <ele>269</ele>
        <time>2016-09-08T10:58:59Z</time>
      </trkpt>
      <trkpt lat="45.94701" lon="4.8502">
        <ele>269</ele>
        <time>2016-09-08T10:59:00Z</time>
      </trkpt>
      <trkpt lat="45.94701" lon="4.8501">
        <ele>269</ele>
        <time>2016-09-08T10:59:01Z</time>
      </trkpt>
      <trkpt lat="45.947" lon="4.85001">
        <ele>269</ele>
        <time>2016-09-08T10:59:02Z</time>
      </trkpt>
      <trkpt lat="45.94699" lon="4.84991">
        <ele>269</ele>
        <time>2016-09-08T10:59:03Z</time>
      </trkpt>
      <trkpt lat="45.94698" lon="4.84982">
        <ele>269</ele>
        <time>2016-09-08T10:59:04Z</time>
      </trkpt>
      <trkpt lat="45.94697" lon="4.84973">
        <ele>269</ele>
        <time>2016-09-08T10:59:05Z</time>
      </trkpt>
      <trkpt lat="45.94696" lon="4.84964">
        <ele>269</ele>
        <time>2016-09-08T10:59:06Z</time>
      </trkpt>
      <trkpt lat="45.94696" lon="4.84956">
        <ele>269</ele>
        <time>2016-09-08T10:59:07Z</time>
      </trkpt>
      <trkpt lat="45.94695" lon="4.84947">
        <ele>269</ele>
        <time>2016-09-08T10:59:08Z</time>
      </trkpt>
      <trkpt lat="45.94694" lon="4.84938">
        <ele>269</ele>
        <time>2016-09-08T10:59:09Z</time>
      </trkpt>
      <trkpt lat="45.94693" lon="4.84929">
        <ele>269</ele>
        <time>2016-09-08T10:59:10Z</time>
      </trkpt>
      <trkpt lat="45.94693" lon="4.84919">
        <ele>269</ele>
        <time>2016-09-08T10:59:11Z</time>
      </trkpt>
      <trkpt lat="45.94691" lon="4.84911">
        <ele>268</ele>
        <time>2016-09-08T10:59:12Z</time>
      </trkpt>
      <trkpt lat="45.94691" lon="4.84901">
        <ele>268</ele>
        <time>2016-09-08T10:59:13Z</time>
      </trkpt>
      <trkpt lat="45.94689" lon="4.84891">
        <ele>268</ele>
        <time>2016-09-08T10:59:14Z</time>
      </trkpt>
      <trkpt lat="45.94689" lon="4.84882">
        <ele>268</ele>
        <time>2016-09-08T10:59:15Z</time>
      </trkpt>
      <trkpt lat="45.94688" lon="4.84871">
        <ele>268</ele>
        <time>2016-09-08T10:59:16Z</time>
      </trkpt>
      <trkpt lat="45.94687" lon="4.84862">
        <ele>268</ele>
        <time>2016-09-08T10:59:17Z</time>
      </trkpt>
      <trkpt lat="45.94686" lon="4.84852">
        <ele>268</ele>
        <time>2016-09-08T10:59:18Z</time>
      </trkpt>
      <trkpt lat="45.94685" lon="4.84842">
        <ele>268</ele>
        <time>2016-09-08T10:59:19Z</time>
      </trkpt>
      <trkpt lat="45.94685" lon="4.84833">
        <ele>268</ele>
        <time>2016-09-08T10:59:20Z</time>
      </trkpt>
      <trkpt lat="45.94684" lon="4.84824">
        <ele>268</ele>
        <time>2016-09-08T10:59:21Z</time>
      </trkpt>
      <trkpt lat="45.94684" lon="4.84815">
        <ele>268</ele>
        <time>2016-09-08T10:59:22Z</time>
      </trkpt>
      <trkpt lat="45.94683" lon="4.84807">
        <ele>268</ele>
        <time>2016-09-08T10:59:23Z</time>
      </trkpt>
      <trkpt lat="45.94682" lon="4.84798">
        <ele>268</ele>
        <time>2016-09-08T10:59:24Z</time>
      </trkpt>
      <trkpt lat="45.94682" lon="4.8479">
        <ele>269</ele>
        <time>2016-09-08T10:59:25Z</time>
      </trkpt>
      <trkpt lat="45.94682" lon="4.84781">
        <ele>269</ele>
        <time>2016-09-08T10:59:26Z</time>
      </trkpt>
      <trkpt lat="45.94682" lon="4.84772">
        <ele>269</ele>
        <time>2016-09-08T10:59:27Z</time>
      </trkpt>
      <trkpt lat="45.94682" lon="4.84763">
        <ele>269</ele>
        <time>2016-09-08T10:59:28Z</time>
      </trkpt>
      <trkpt lat="45.94682" lon="4.84754">
        <ele>269</ele>
        <time>2016-09-08T10:59:29Z</time>
      </trkpt>
      <trkpt lat="45.94681" lon="4.84745">
        <ele>269</ele>
        <time>2016-09-08T10:59:30Z</time>
      </trkpt>
      <trkpt lat="45.94681" lon="4.84736">
        <ele>269</ele>
        <time>2016-09-08T10:59:31Z</time>
      </trkpt>
      <trkpt lat="45.9468" lon="4.84726">
        <ele>269</ele>
        <time>2016-09-08T10:59:32Z</time>
      </trkpt>
      <trkpt lat="45.9468" lon="4.84717">
        <ele>269</ele>
        <time>2016-09-08T10:59:33Z</time>
      </trkpt>
      <trkpt lat="45.94679" lon="4.84707">
        <ele>268</ele>
        <time>2016-09-08T10:59:34Z</time>
      </trkpt>
      <trkpt lat="45.94679" lon="4.84698">
        <ele>268</ele>
        <time>2016-09-08T10:59:35Z</time>
      </trkpt>
      <trkpt lat="45.94678" lon="4.84689">
        <ele>268</ele>
        <time>2016-09-08T10:59:36Z</time>
      </trkpt>
      <trkpt lat="45.94678" lon="4.8468">
        <ele>269</ele>
        <time>2016-09-08T10:59:37Z</time>
      </trkpt>
      <trkpt lat="45.94677" lon="4.84672">
        <ele>269</ele>
        <time>2016-09-08T10:59:38Z</time>
      </trkpt>
      <trkpt lat="45.94677" lon="4.84664">
        <ele>268</ele>
        <time>2016-09-08T10:59:39Z</time>
      </trkpt>
      <trkpt lat="45.94676" lon="4.84656">
        <ele>268</ele>
        <time>2016-09-08T10:59:40Z</time>
      </trkpt>
      <trkpt lat="45.94676" lon="4.84648">
        <ele>268</ele>
        <time>2016-09-08T10:59:41Z</time>
      </trkpt>
      <trkpt lat="45.94675" lon="4.84641">
        <ele>268</ele>
        <time>2016-09-08T10:59:42Z</time>
      </trkpt>
      <trkpt lat="45.94676" lon="4.84633">
        <ele>268</ele>
        <time>2016-09-08T10:59:43Z</time>
      </trkpt>
      <trkpt lat="45.94675" lon="4.84626">
        <ele>268</ele>
        <time>2016-09-08T10:59:44Z</time>
      </trkpt>
      <trkpt lat="45.94675" lon="4.84617">
        <ele>268</ele>
        <time>2016-09-08T10:59:45Z</time>
      </trkpt>
      <trkpt lat="45.94675" lon="4.84609">
        <ele>268</ele>
        <time>2016-09-08T10:59:46Z</time>
      </trkpt>
      <trkpt lat="45.94674" lon="4.84601">
        <ele>268</ele>
        <time>2016-09-08T10:59:47Z</time>
      </trkpt>
      <trkpt lat="45.94673" lon="4.84593">
        <ele>268</ele>
        <time>2016-09-08T10:59:48Z</time>
      </trkpt>
      <trkpt lat="45.94673" lon="4.84584">
        <ele>268</ele>
        <time>2016-09-08T10:59:49Z</time>
      </trkpt>
      <trkpt lat="45.94672" lon="4.84576">
        <ele>268</ele>
        <time>2016-09-08T10:59:50Z</time>
      </trkpt>
      <trkpt lat="45.94672" lon="4.84567">
        <ele>268</ele>
        <time>2016-09-08T10:59:51Z</time>
      </trkpt>
      <trkpt lat="45.94671" lon="4.84559">
        <ele>268</ele>
        <time>2016-09-08T10:59:52Z</time>
      </trkpt>
      <trkpt lat="45.9467" lon="4.84551">
        <ele>268</ele>
        <time>2016-09-08T10:59:53Z</time>
      </trkpt>
      <trkpt lat="45.94669" lon="4.84544">
        <ele>268</ele>
        <time>2016-09-08T10:59:54Z</time>
      </trkpt>
      <trkpt lat="45.94669" lon="4.84536">
        <ele>268</ele>
        <time>2016-09-08T10:59:55Z</time>
      </trkpt>
      <trkpt lat="45.94669" lon="4.84529">
        <ele>268</ele>
        <time>2016-09-08T10:59:56Z</time>
      </trkpt>
      <trkpt lat="45.94668" lon="4.84522">
        <ele>268</ele>
        <time>2016-09-08T10:59:57Z</time>
      </trkpt>
      <trkpt lat="45.94667" lon="4.84514">
        <ele>268</ele>
        <time>2016-09-08T10:59:58Z</time>
      </trkpt>
      <trkpt lat="45.94666" lon="4.84507">
        <ele>268</ele>
        <time>2016-09-08T10:59:59Z</time>
      </trkpt>
      <trkpt lat="45.94665" lon="4.84499">
        <ele>268</ele>
        <time>2016-09-08T11:00:00Z</time>
      </trkpt>
      <trkpt lat="45.94665" lon="4.84491">
        <ele>268</ele>
        <time>2016-09-08T11:00:01Z</time>
      </trkpt>
      <trkpt lat="45.94664" lon="4.84483">
        <ele>268</ele>
        <time>2016-09-08T11:00:02Z</time>
      </trkpt>
      <trkpt lat="45.94663" lon="4.84475">
        <ele>268</ele>
        <time>2016-09-08T11:00:03Z</time>
      </trkpt>
      <trkpt lat="45.94661" lon="4.84466">
        <ele>268</ele>
        <time>2016-09-08T11:00:04Z</time>
      </trkpt>
      <trkpt lat="45.9466" lon="4.84458">
        <ele>268</ele>
        <time>2016-09-08T11:00:05Z</time>
      </trkpt>
      <trkpt lat="45.94659" lon="4.84449">
        <ele>268</ele>
        <time>2016-09-08T11:00:06Z</time>
      </trkpt>
      <trkpt lat="45.94658" lon="4.84441">
        <ele>268</ele>
        <time>2016-09-08T11:00:07Z</time>
      </trkpt>
      <trkpt lat="45.94657" lon="4.84433">
        <ele>268</ele>
        <time>2016-09-08T11:00:08Z</time>
      </trkpt>
      <trkpt lat="45.94657" lon="4.84425">
        <ele>268</ele>
        <time>2016-09-08T11:00:09Z</time>
      </trkpt>
      <trkpt lat="45.94656" lon="4.84417">
        <ele>268</ele>
        <time>2016-09-08T11:00:10Z</time>
      </trkpt>
      <trkpt lat="45.94655" lon="4.8441">
        <ele>268</ele>
        <time>2016-09-08T11:00:11Z</time>
      </trkpt>
      <trkpt lat="45.94654" lon="4.84402">
        <ele>268</ele>
        <time>2016-09-08T11:00:12Z</time>
      </trkpt>
      <trkpt lat="45.94654" lon="4.84395">
        <ele>268</ele>
        <time>2016-09-08T11:00:13Z</time>
      </trkpt>
      <trkpt lat="45.94653" lon="4.84388">
        <ele>268</ele>
        <time>2016-09-08T11:00:14Z</time>
      </trkpt>
      <trkpt lat="45.94652" lon="4.84381">
        <ele>268</ele>
        <time>2016-09-08T11:00:15Z</time>
      </trkpt>
      <trkpt lat="45.94651" lon="4.84373">
        <ele>268</ele>
        <time>2016-09-08T11:00:16Z</time>
      </trkpt>
      <trkpt lat="45.94651" lon="4.84365">
        <ele>268</ele>
        <time>2016-09-08T11:00:17Z</time>
      </trkpt>
      <trkpt lat="45.9465" lon="4.84357">
        <ele>268</ele>
        <time>2016-09-08T11:00:18Z</time>
      </trkpt>
      <trkpt lat="45.94649" lon="4.84349">
        <ele>268</ele>
        <time>2016-09-08T11:00:19Z</time>
      </trkpt>
      <trkpt lat="45.94648" lon="4.8434">
        <ele>268</ele>
        <time>2016-09-08T11:00:20Z</time>
      </trkpt>
      <trkpt lat="45.94646" lon="4.84331">
        <ele>268</ele>
        <time>2016-09-08T11:00:21Z</time>
      </trkpt>
      <trkpt lat="45.94645" lon="4.84322">
        <ele>268</ele>
        <time>2016-09-08T11:00:22Z</time>
      </trkpt>
      <trkpt lat="45.94644" lon="4.84313">
        <ele>269</ele>
        <time>2016-09-08T11:00:23Z</time>
      </trkpt>
      <trkpt lat="45.94643" lon="4.84305">
        <ele>269</ele>
        <time>2016-09-08T11:00:24Z</time>
      </trkpt>
      <trkpt lat="45.94642" lon="4.84296">
        <ele>269</ele>
        <time>2016-09-08T11:00:25Z</time>
      </trkpt>
      <trkpt lat="45.94641" lon="4.84287">
        <ele>269</ele>
        <time>2016-09-08T11:00:26Z</time>
      </trkpt>
      <trkpt lat="45.9464" lon="4.84279">
        <ele>269</ele>
        <time>2016-09-08T11:00:27Z</time>
      </trkpt>
      <trkpt lat="45.94639" lon="4.84271">
        <ele>269</ele>
        <time>2016-09-08T11:00:28Z</time>
      </trkpt>
      <trkpt lat="45.94638" lon="4.84262">
        <ele>269</ele>
        <time>2016-09-08T11:00:29Z</time>
      </trkpt>
      <trkpt lat="45.94637" lon="4.84254">
        <ele>269</ele>
        <time>2016-09-08T11:00:30Z</time>
      </trkpt>
      <trkpt lat="45.94635" lon="4.84245">
        <ele>269</ele>
        <time>2016-09-08T11:00:31Z</time>
      </trkpt>
      <trkpt lat="45.94634" lon="4.84236">
        <ele>269</ele>
        <time>2016-09-08T11:00:32Z</time>
      </trkpt>
      <trkpt lat="45.94632" lon="4.84228">
        <ele>269</ele>
        <time>2016-09-08T11:00:33Z</time>
      </trkpt>
      <trkpt lat="45.94631" lon="4.84219">
        <ele>269</ele>
        <time>2016-09-08T11:00:34Z</time>
      </trkpt>
      <trkpt lat="45.94629" lon="4.8421">
        <ele>269</ele>
        <time>2016-09-08T11:00:35Z</time>
      </trkpt>
      <trkpt lat="45.94628" lon="4.842">
        <ele>269</ele>
        <time>2016-09-08T11:00:36Z</time>
      </trkpt>
      <trkpt lat="45.94626" lon="4.84191">
        <ele>269</ele>
        <time>2016-09-08T11:00:37Z</time>
      </trkpt>
      <trkpt lat="45.94624" lon="4.84182">
        <ele>269</ele>
        <time>2016-09-08T11:00:38Z</time>
      </trkpt>
      <trkpt lat="45.94622" lon="4.84173">
        <ele>269</ele>
        <time>2016-09-08T11:00:39Z</time>
      </trkpt>
      <trkpt lat="45.9462" lon="4.84164">
        <ele>269</ele>
        <time>2016-09-08T11:00:40Z</time>
      </trkpt>
      <trkpt lat="45.94618" lon="4.84155">
        <ele>269</ele>
        <time>2016-09-08T11:00:41Z</time>
      </trkpt>
      <trkpt lat="45.94617" lon="4.84147">
        <ele>269</ele>
        <time>2016-09-08T11:00:42Z</time>
      </trkpt>
      <trkpt lat="45.94615" lon="4.84139">
        <ele>269</ele>
        <time>2016-09-08T11:00:43Z</time>
      </trkpt>
      <trkpt lat="45.94614" lon="4.84131">
        <ele>269</ele>
        <time>2016-09-08T11:00:44Z</time>
      </trkpt>
      <trkpt lat="45.94613" lon="4.84123">
        <ele>269</ele>
        <time>2016-09-08T11:00:45Z</time>
      </trkpt>
      <trkpt lat="45.94612" lon="4.84115">
        <ele>269</ele>
        <time>2016-09-08T11:00:46Z</time>
      </trkpt>
      <trkpt lat="45.94611" lon="4.84107">
        <ele>269</ele>
        <time>2016-09-08T11:00:47Z</time>
      </trkpt>
      <trkpt lat="45.9461" lon="4.84099">
        <ele>269</ele>
        <time>2016-09-08T11:00:48Z</time>
      </trkpt>
      <trkpt lat="45.94608" lon="4.8409">
        <ele>269</ele>
        <time>2016-09-08T11:00:49Z</time>
      </trkpt>
      <trkpt lat="45.94607" lon="4.84081">
        <ele>269</ele>
        <time>2016-09-08T11:00:50Z</time>
      </trkpt>
      <trkpt lat="45.94606" lon="4.84072">
        <ele>269</ele>
        <time>2016-09-08T11:00:51Z</time>
      </trkpt>
      <trkpt lat="45.94605" lon="4.84063">
        <ele>269</ele>
        <time>2016-09-08T11:00:52Z</time>
      </trkpt>
      <trkpt lat="45.94603" lon="4.84055">
        <ele>269</ele>
        <time>2016-09-08T11:00:53Z</time>
      </trkpt>
      <trkpt lat="45.94602" lon="4.84046">
        <ele>269</ele>
        <time>2016-09-08T11:00:54Z</time>
      </trkpt>
      <trkpt lat="45.94601" lon="4.84038">
        <ele>269</ele>
        <time>2016-09-08T11:00:55Z</time>
      </trkpt>
      <trkpt lat="45.946" lon="4.8403">
        <ele>269</ele>
        <time>2016-09-08T11:00:56Z</time>
      </trkpt>
      <trkpt lat="45.94599" lon="4.84022">
        <ele>269</ele>
        <time>2016-09-08T11:00:57Z</time>
      </trkpt>
      <trkpt lat="45.94598" lon="4.84014">
        <ele>269</ele>
        <time>2016-09-08T11:00:58Z</time>
      </trkpt>
      <trkpt lat="45.94597" lon="4.84007">
        <ele>269</ele>
        <time>2016-09-08T11:00:59Z</time>
      </trkpt>
      <trkpt lat="45.94596" lon="4.83999">
        <ele>269</ele>
        <time>2016-09-08T11:01:00Z</time>
      </trkpt>
      <trkpt lat="45.94594" lon="4.83991">
        <ele>269</ele>
        <time>2016-09-08T11:01:01Z</time>
      </trkpt>
      <trkpt lat="45.94593" lon="4.83982">
        <ele>268</ele>
        <time>2016-09-08T11:01:02Z</time>
      </trkpt>
      <trkpt lat="45.94591" lon="4.83974">
        <ele>268</ele>
        <time>2016-09-08T11:01:03Z</time>
      </trkpt>
      <trkpt lat="45.9459" lon="4.83965">
        <ele>268</ele>
        <time>2016-09-08T11:01:04Z</time>
      </trkpt>
      <trkpt lat="45.94588" lon="4.83956">
        <ele>268</ele>
        <time>2016-09-08T11:01:05Z</time>
      </trkpt>
      <trkpt lat="45.94587" lon="4.83947">
        <ele>268</ele>
        <time>2016-09-08T11:01:06Z</time>
      </trkpt>
      <trkpt lat="45.94586" lon="4.83937">
        <ele>268</ele>
        <time>2016-09-08T11:01:07Z</time>
      </trkpt>
      <trkpt lat="45.94585" lon="4.83927">
        <ele>268</ele>
        <time>2016-09-08T11:01:08Z</time>
      </trkpt>
      <trkpt lat="45.94583" lon="4.83917">
        <ele>268</ele>
        <time>2016-09-08T11:01:09Z</time>
      </trkpt>
      <trkpt lat="45.94582" lon="4.83907">
        <ele>268</ele>
        <time>2016-09-08T11:01:10Z</time>
      </trkpt>
      <trkpt lat="45.94581" lon="4.83896">
        <ele>267</ele>
        <time>2016-09-08T11:01:11Z</time>
      </trkpt>
      <trkpt lat="45.94579" lon="4.83885">
        <ele>267</ele>
        <time>2016-09-08T11:01:12Z</time>
      </trkpt>
      <trkpt lat="45.94577" lon="4.83874">
        <ele>267</ele>
        <time>2016-09-08T11:01:13Z</time>
      </trkpt>
      <trkpt lat="45.94575" lon="4.83864">
        <ele>267</ele>
        <time>2016-09-08T11:01:14Z</time>
      </trkpt>
      <trkpt lat="45.94574" lon="4.83853">
        <ele>266</ele>
        <time>2016-09-08T11:01:15Z</time>
      </trkpt>
      <trkpt lat="45.94573" lon="4.83841">
        <ele>266</ele>
        <time>2016-09-08T11:01:16Z</time>
      </trkpt>
      <trkpt lat="45.94571" lon="4.8383">
        <ele>265</ele>
        <time>2016-09-08T11:01:17Z</time>
      </trkpt>
      <trkpt lat="45.94568" lon="4.83818">
        <ele>264</ele>
        <time>2016-09-08T11:01:18Z</time>
      </trkpt>
      <trkpt lat="45.94566" lon="4.83806">
        <ele>264</ele>
        <time>2016-09-08T11:01:19Z</time>
      </trkpt>
      <trkpt lat="45.94564" lon="4.83794">
        <ele>264</ele>
        <time>2016-09-08T11:01:20Z</time>
      </trkpt>
      <trkpt lat="45.94562" lon="4.83782">
        <ele>264</ele>
        <time>2016-09-08T11:01:21Z</time>
      </trkpt>
      <trkpt lat="45.9456" lon="4.83771">
        <ele>263</ele>
        <time>2016-09-08T11:01:22Z</time>
      </trkpt>
      <trkpt lat="45.94558" lon="4.83759">
        <ele>263</ele>
        <time>2016-09-08T11:01:23Z</time>
      </trkpt>
      <trkpt lat="45.94556" lon="4.83749">
        <ele>262</ele>
        <time>2016-09-08T11:01:24Z</time>
      </trkpt>
      <trkpt lat="45.94554" lon="4.83738">
        <ele>262</ele>
        <time>2016-09-08T11:01:25Z</time>
      </trkpt>
      <trkpt lat="45.94553" lon="4.83728">
        <ele>262</ele>
        <time>2016-09-08T11:01:26Z</time>
      </trkpt>
      <trkpt lat="45.94551" lon="4.83717">
        <ele>262</ele>
        <time>2016-09-08T11:01:27Z</time>
      </trkpt>
      <trkpt lat="45.9455" lon="4.83707">
        <ele>262</ele>
        <time>2016-09-08T11:01:28Z</time>
      </trkpt>
      <trkpt lat="45.94548" lon="4.83697">
        <ele>262</ele>
        <time>2016-09-08T11:01:29Z</time>
      </trkpt>
      <trkpt lat="45.94547" lon="4.83687">
        <ele>262</ele>
        <time>2016-09-08T11:01:30Z</time>
      </trkpt>
      <trkpt lat="45.94545" lon="4.83677">
        <ele>262</ele>
        <time>2016-09-08T11:01:31Z</time>
      </trkpt>
      <trkpt lat="45.94544" lon="4.83668">
        <ele>262</ele>
        <time>2016-09-08T11:01:32Z</time>
      </trkpt>
      <trkpt lat="45.94543" lon="4.83659">
        <ele>261</ele>
        <time>2016-09-08T11:01:33Z</time>
      </trkpt>
      <trkpt lat="45.94541" lon="4.8365">
        <ele>261</ele>
        <time>2016-09-08T11:01:34Z</time>
      </trkpt>
      <trkpt lat="45.9454" lon="4.8364">
        <ele>261</ele>
        <time>2016-09-08T11:01:35Z</time>
      </trkpt>
      <trkpt lat="45.94538" lon="4.83631">
        <ele>261</ele>
        <time>2016-09-08T11:01:36Z</time>
      </trkpt>
      <trkpt lat="45.94537" lon="4.83623">
        <ele>261</ele>
        <time>2016-09-08T11:01:37Z</time>
      </trkpt>
      <trkpt lat="45.94535" lon="4.83614">
        <ele>261</ele>
        <time>2016-09-08T11:01:38Z</time>
      </trkpt>
      <trkpt lat="45.94533" lon="4.83605">
        <ele>261</ele>
        <time>2016-09-08T11:01:39Z</time>
      </trkpt>
      <trkpt lat="45.94531" lon="4.83596">
        <ele>261</ele>
        <time>2016-09-08T11:01:40Z</time>
      </trkpt>
      <trkpt lat="45.94528" lon="4.83587">
        <ele>261</ele>
        <time>2016-09-08T11:01:41Z</time>
      </trkpt>
      <trkpt lat="45.94525" lon="4.83578">
        <ele>261</ele>
        <time>2016-09-08T11:01:42Z</time>
      </trkpt>
      <trkpt lat="45.94522" lon="4.83569">
        <ele>261</ele>
        <time>2016-09-08T11:01:43Z</time>
      </trkpt>
      <trkpt lat="45.94518" lon="4.8356">
        <ele>261</ele>
        <time>2016-09-08T11:01:44Z</time>
      </trkpt>
      <trkpt lat="45.94515" lon="4.83552">
        <ele>261</ele>
        <time>2016-09-08T11:01:45Z</time>
      </trkpt>
      <trkpt lat="45.94511" lon="4.83544">
        <ele>261</ele>
        <time>2016-09-08T11:01:46Z</time>
      </trkpt>
      <trkpt lat="45.94506" lon="4.83537">
        <ele>262</ele>
        <time>2016-09-08T11:01:47Z</time>
      </trkpt>
      <trkpt lat="45.94502" lon="4.83529">
        <ele>262</ele>
        <time>2016-09-08T11:01:48Z</time>
      </trkpt>
      <trkpt lat="45.94498" lon="4.83522">
        <ele>262</ele>
        <time>2016-09-08T11:01:49Z</time>
      </trkpt>
      <trkpt lat="45.94493" lon="4.83515">
        <ele>262</ele>
        <time>2016-09-08T11:01:50Z</time>
      </trkpt>
      <trkpt lat="45.94489" lon="4.83508">
        <ele>262</ele>
        <time>2016-09-08T11:01:51Z</time>
      </trkpt>
      <trkpt lat="45.94484" lon="4.835">
        <ele>262</ele>
        <time>2016-09-08T11:01:52Z</time>
      </trkpt>
      <trkpt lat="45.9448" lon="4.83493">
        <ele>263</ele>
        <time>2016-09-08T11:01:53Z</time>
      </trkpt>
      <trkpt lat="45.94475" lon="4.83485">
        <ele>263</ele>
        <time>2016-09-08T11:01:54Z</time>
      </trkpt>
      <trkpt lat="45.94471" lon="4.83478">
        <ele>263</ele>
        <time>2016-09-08T11:01:55Z</time>
      </trkpt>
      <trkpt lat="45.94466" lon="4.8347">
        <ele>263</ele>
        <time>2016-09-08T11:01:56Z</time>
      </trkpt>
      <trkpt lat="45.94462" lon="4.83462">
        <ele>263</ele>
        <time>2016-09-08T11:01:57Z</time>
      </trkpt>
      <trkpt lat="45.94458" lon="4.83455">
        <ele>263</ele>
        <time>2016-09-08T11:01:58Z</time>
      </trkpt>
      <trkpt lat="45.94454" lon="4.83447">
        <ele>263</ele>
        <time>2016-09-08T11:01:59Z</time>
      </trkpt>
      <trkpt lat="45.9445" lon="4.8344">
        <ele>263</ele>
        <time>2016-09-08T11:02:00Z</time>
      </trkpt>
      <trkpt lat="45.94446" lon="4.83433">
        <ele>263</ele>
        <time>2016-09-08T11:02:01Z</time>
      </trkpt>
      <trkpt lat="45.94442" lon="4.83426">
        <ele>264</ele>
        <time>2016-09-08T11:02:02Z</time>
      </trkpt>
      <trkpt lat="45.94438" lon="4.83419">
        <ele>264</ele>
        <time>2016-09-08T11:02:03Z</time>
      </trkpt>
      <trkpt lat="45.94435" lon="4.83412">
        <ele>264</ele>
        <time>2016-09-08T11:02:04Z</time>
      </trkpt>
      <trkpt lat="45.94431" lon="4.83405">
        <ele>264</ele>
        <time>2016-09-08T11:02:05Z</time>
      </trkpt>
      <trkpt lat="45.94427" lon="4.83397">
        <ele>264</ele>
        <time>2016-09-08T11:02:06Z</time>
      </trkpt>
      <trkpt lat="45.94424" lon="4.83389">
        <ele>264</ele>
        <time>2016-09-08T11:02:07Z</time>
      </trkpt>
      <trkpt lat="45.9442" lon="4.83381">
        <ele>264</ele>
        <time>2016-09-08T11:02:08Z</time>
      </trkpt>
      <trkpt lat="45.94416" lon="4.83373">
        <ele>264</ele>
        <time>2016-09-08T11:02:09Z</time>
      </trkpt>
      <trkpt lat="45.94413" lon="4.83365">
        <ele>264</ele>
        <time>2016-09-08T11:02:10Z</time>
      </trkpt>
      <trkpt lat="45.94409" lon="4.83357">
        <ele>263</ele>
        <time>2016-09-08T11:02:11Z</time>
      </trkpt>
      <trkpt lat="45.94406" lon="4.83348">
        <ele>263</ele>
        <time>2016-09-08T11:02:12Z</time>
      </trkpt>
      <trkpt lat="45.94403" lon="4.8334">
        <ele>263</ele>
        <time>2016-09-08T11:02:13Z</time>
      </trkpt>
      <trkpt lat="45.944" lon="4.83333">
        <ele>264</ele>
        <time>2016-09-08T11:02:14Z</time>
      </trkpt>
      <trkpt lat="45.94398" lon="4.83325">
        <ele>264</ele>
        <time>2016-09-08T11:02:15Z</time>
      </trkpt>
      <trkpt lat="45.94395" lon="4.83318">
        <ele>264</ele>
        <time>2016-09-08T11:02:16Z</time>
      </trkpt>
      <trkpt lat="45.94392" lon="4.8331">
        <ele>264</ele>
        <time>2016-09-08T11:02:17Z</time>
      </trkpt>
      <trkpt lat="45.94389" lon="4.83303">
        <ele>264</ele>
        <time>2016-09-08T11:02:18Z</time>
      </trkpt>
      <trkpt lat="45.94387" lon="4.83297">
        <ele>264</ele>
        <time>2016-09-08T11:02:19Z</time>
      </trkpt>
      <trkpt lat="45.94384" lon="4.8329">
        <ele>264</ele>
        <time>2016-09-08T11:02:20Z</time>
      </trkpt>
      <trkpt lat="45.94382" lon="4.83283">
        <ele>264</ele>
        <time>2016-09-08T11:02:21Z</time>
      </trkpt>
      <trkpt lat="45.94379" lon="4.83276">
        <ele>264</ele>
        <time>2016-09-08T11:02:22Z</time>
      </trkpt>
      <trkpt lat="45.94377" lon="4.83269">
        <ele>264</ele>
        <time>2016-09-08T11:02:23Z</time>
      </trkpt>
      <trkpt lat="45.94374" lon="4.83262">
        <ele>264</ele>
        <time>2016-09-08T11:02:24Z</time>
      </trkpt>
      <trkpt lat="45.94372" lon="4.83255">
        <ele>265</ele>
        <time>2016-09-08T11:02:25Z</time>
      </trkpt>
      <trkpt lat="45.9437" lon="4.83248">
        <ele>265</ele>
        <time>2016-09-08T11:02:26Z</time>
      </trkpt>
      <trkpt lat="45.94367" lon="4.83241">
        <ele>265</ele>
        <time>2016-09-08T11:02:27Z</time>
      </trkpt>
      <trkpt lat="45.94365" lon="4.83233">
        <ele>266</ele>
        <time>2016-09-08T11:02:28Z</time>
      </trkpt>
      <trkpt lat="45.94362" lon="4.83225">
        <ele>266</ele>
        <time>2016-09-08T11:02:29Z</time>
      </trkpt>
      <trkpt lat="45.94359" lon="4.83217">
        <ele>266</ele>
        <time>2016-09-08T11:02:30Z</time>
      </trkpt>
      <trkpt lat="45.94356" lon="4.8321">
        <ele>266</ele>
        <time>2016-09-08T11:02:31Z</time>
      </trkpt>
      <trkpt lat="45.94353" lon="4.83202">
        <ele>266</ele>
        <time>2016-09-08T11:02:32Z</time>
      </trkpt>
      <trkpt lat="45.94351" lon="4.83195">
        <ele>266</ele>
        <time>2016-09-08T11:02:33Z</time>
      </trkpt>
      <trkpt lat="45.94348" lon="4.83187">
        <ele>266</ele>
        <time>2016-09-08T11:02:34Z</time>
      </trkpt>
      <trkpt lat="45.94346" lon="4.8318">
        <ele>266</ele>
        <time>2016-09-08T11:02:35Z</time>
      </trkpt>
      <trkpt lat="45.94344" lon="4.83174">
        <ele>266</ele>
        <time>2016-09-08T11:02:36Z</time>
      </trkpt>
      <trkpt lat="45.94342" lon="4.83167">
        <ele>266</ele>
        <time>2016-09-08T11:02:37Z</time>
      </trkpt>
      <trkpt lat="45.94339" lon="4.83161">
        <ele>266</ele>
        <time>2016-09-08T11:02:38Z</time>
      </trkpt>
      <trkpt lat="45.94337" lon="4.83154">
        <ele>266</ele>
        <time>2016-09-08T11:02:39Z</time>
      </trkpt>
      <trkpt lat="45.94335" lon="4.83148">
        <ele>266</ele>
        <time>2016-09-08T11:02:40Z</time>
      </trkpt>
      <trkpt lat="45.94333" lon="4.83141">
        <ele>266</ele>
        <time>2016-09-08T11:02:41Z</time>
      </trkpt>
      <trkpt lat="45.94331" lon="4.83135">
        <ele>266</ele>
        <time>2016-09-08T11:02:42Z</time>
      </trkpt>
      <trkpt lat="45.94329" lon="4.83128">
        <ele>266</ele>
        <time>2016-09-08T11:02:43Z</time>
      </trkpt>
      <trkpt lat="45.94327" lon="4.83121">
        <ele>266</ele>
        <time>2016-09-08T11:02:44Z</time>
      </trkpt>
      <trkpt lat="45.94325" lon="4.83115">
        <ele>266</ele>
        <time>2016-09-08T11:02:45Z</time>
      </trkpt>
      <trkpt lat="45.94323" lon="4.83108">
        <ele>266</ele>
        <time>2016-09-08T11:02:46Z</time>
      </trkpt>
      <trkpt lat="45.94321" lon="4.83101">
        <ele>266</ele>
        <time>2016-09-08T11:02:47Z</time>
      </trkpt>
      <trkpt lat="45.94319" lon="4.83094">
        <ele>266</ele>
        <time>2016-09-08T11:02:48Z</time>
      </trkpt>
      <trkpt lat="45.94317" lon="4.83087">
        <ele>266</ele>
        <time>2016-09-08T11:02:49Z</time>
      </trkpt>
      <trkpt lat="45.94315" lon="4.8308">
        <ele>266</ele>
        <time>2016-09-08T11:02:50Z</time>
      </trkpt>
      <trkpt lat="45.94313" lon="4.83074">
        <ele>266</ele>
        <time>2016-09-08T11:02:51Z</time>
      </trkpt>
      <trkpt lat="45.9431" lon="4.83068">
        <ele>266</ele>
        <time>2016-09-08T11:02:52Z</time>
      </trkpt>
      <trkpt lat="45.94309" lon="4.83062">
        <ele>266</ele>
        <time>2016-09-08T11:02:53Z</time>
      </trkpt>
      <trkpt lat="45.94307" lon="4.83055">
        <ele>266</ele>
        <time>2016-09-08T11:02:54Z</time>
      </trkpt>
      <trkpt lat="45.94306" lon="4.83047">
        <ele>266</ele>
        <time>2016-09-08T11:02:55Z</time>
      </trkpt>
      <trkpt lat="45.94304" lon="4.83039">
        <ele>266</ele>
        <time>2016-09-08T11:02:56Z</time>
      </trkpt>
      <trkpt lat="45.94302" lon="4.83031">
        <ele>266</ele>
        <time>2016-09-08T11:02:57Z</time>
      </trkpt>
      <trkpt lat="45.943" lon="4.83022">
        <ele>266</ele>
        <time>2016-09-08T11:02:58Z</time>
      </trkpt>
      <trkpt lat="45.94299" lon="4.83013">
        <ele>266</ele>
        <time>2016-09-08T11:02:59Z</time>
      </trkpt>
      <trkpt lat="45.94297" lon="4.83005">
        <ele>266</ele>
        <time>2016-09-08T11:03:00Z</time>
      </trkpt>
      <trkpt lat="45.94295" lon="4.82997">
        <ele>265</ele>
        <time>2016-09-08T11:03:01Z</time>
      </trkpt>
      <trkpt lat="45.94294" lon="4.82989">
        <ele>265</ele>
        <time>2016-09-08T11:03:02Z</time>
      </trkpt>
      <trkpt lat="45.94291" lon="4.82982">
        <ele>265</ele>
        <time>2016-09-08T11:03:03Z</time>
      </trkpt>
      <trkpt lat="45.94289" lon="4.82975">
        <ele>265</ele>
        <time>2016-09-08T11:03:04Z</time>
      </trkpt>
      <trkpt lat="45.94288" lon="4.82968">
        <ele>265</ele>
        <time>2016-09-08T11:03:05Z</time>
      </trkpt>
      <trkpt lat="45.94286" lon="4.82961">
        <ele>265</ele>
        <time>2016-09-08T11:03:06Z</time>
      </trkpt>
      <trkpt lat="45.94284" lon="4.82954">
        <ele>265</ele>
        <time>2016-09-08T11:03:07Z</time>
      </trkpt>
      <trkpt lat="45.94284" lon="4.82947">
        <ele>265</ele>
        <time>2016-09-08T11:03:08Z</time>
      </trkpt>
      <trkpt lat="45.94285" lon="4.82939">
        <ele>265</ele>
        <time>2016-09-08T11:03:09Z</time>
      </trkpt>
      <trkpt lat="45.94286" lon="4.82931">
        <ele>265</ele>
        <time>2016-09-08T11:03:10Z</time>
      </trkpt>
      <trkpt lat="45.94288" lon="4.82924">
        <ele>265</ele>
        <time>2016-09-08T11:03:11Z</time>
      </trkpt>
      <trkpt lat="45.94289" lon="4.82916">
        <ele>265</ele>
        <time>2016-09-08T11:03:12Z</time>
      </trkpt>
      <trkpt lat="45.9429" lon="4.82907">
        <ele>265</ele>
        <time>2016-09-08T11:03:13Z</time>
      </trkpt>
      <trkpt lat="45.94291" lon="4.82899">
        <ele>265</ele>
        <time>2016-09-08T11:03:14Z</time>
      </trkpt>
      <trkpt lat="45.94292" lon="4.82891">
        <ele>265</ele>
        <time>2016-09-08T11:03:15Z</time>
      </trkpt>
      <trkpt lat="45.94293" lon="4.82884">
        <ele>265</ele>
        <time>2016-09-08T11:03:16Z</time>
      </trkpt>
      <trkpt lat="45.94293" lon="4.82875">
        <ele>265</ele>
        <time>2016-09-08T11:03:17Z</time>
      </trkpt>
      <trkpt lat="45.94294" lon="4.82867">
        <ele>265</ele>
        <time>2016-09-08T11:03:18Z</time>
      </trkpt>
      <trkpt lat="45.94294" lon="4.82859">
        <ele>265</ele>
        <time>2016-09-08T11:03:19Z</time>
      </trkpt>
      <trkpt lat="45.94294" lon="4.8285">
        <ele>265</ele>
        <time>2016-09-08T11:03:20Z</time>
      </trkpt>
      <trkpt lat="45.94294" lon="4.8284">
        <ele>265</ele>
        <time>2016-09-08T11:03:21Z</time>
      </trkpt>
      <trkpt lat="45.94294" lon="4.82832">
        <ele>265</ele>
        <time>2016-09-08T11:03:22Z</time>
      </trkpt>
      <trkpt lat="45.94294" lon="4.82823">
        <ele>265</ele>
        <time>2016-09-08T11:03:23Z</time>
      </trkpt>
      <trkpt lat="45.94294" lon="4.82815">
        <ele>265</ele>
        <time>2016-09-08T11:03:24Z</time>
      </trkpt>
      <trkpt lat="45.94295" lon="4.82806">
        <ele>265</ele>
        <time>2016-09-08T11:03:25Z</time>
      </trkpt>
      <trkpt lat="45.94295" lon="4.82798">
        <ele>265</ele>
        <time>2016-09-08T11:03:26Z</time>
      </trkpt>
      <trkpt lat="45.94295" lon="4.8279">
        <ele>265</ele>
        <time>2016-09-08T11:03:27Z</time>
      </trkpt>
      <trkpt lat="45.94295" lon="4.82782">
        <ele>265</ele>
        <time>2016-09-08T11:03:28Z</time>
      </trkpt>
      <trkpt lat="45.94295" lon="4.82775">
        <ele>265</ele>
        <time>2016-09-08T11:03:29Z</time>
      </trkpt>
      <trkpt lat="45.94295" lon="4.82767">
        <ele>265</ele>
        <time>2016-09-08T11:03:30Z</time>
      </trkpt>
      <trkpt lat="45.94296" lon="4.82758">
        <ele>265</ele>
        <time>2016-09-08T11:03:31Z</time>
      </trkpt>
      <trkpt lat="45.94296" lon="4.82749">
        <ele>265</ele>
        <time>2016-09-08T11:03:32Z</time>
      </trkpt>
      <trkpt lat="45.94296" lon="4.8274">
        <ele>265</ele>
        <time>2016-09-08T11:03:33Z</time>
      </trkpt>
      <trkpt lat="45.94296" lon="4.82731">
        <ele>265</ele>
        <time>2016-09-08T11:03:34Z</time>
      </trkpt>
      <trkpt lat="45.94296" lon="4.82722">
        <ele>265</ele>
        <time>2016-09-08T11:03:35Z</time>
      </trkpt>
      <trkpt lat="45.94296" lon="4.82713">
        <ele>265</ele>
        <time>2016-09-08T11:03:36Z</time>
      </trkpt>
      <trkpt lat="45.94296" lon="4.82704">
        <ele>265</ele>
        <time>2016-09-08T11:03:37Z</time>
      </trkpt>
      <trkpt lat="45.94296" lon="4.82695">
        <ele>265</ele>
        <time>2016-09-08T11:03:38Z</time>
      </trkpt>
      <trkpt lat="45.94297" lon="4.82686">
        <ele>265</ele>
        <time>2016-09-08T11:03:39Z</time>
      </trkpt>
      <trkpt lat="45.94297" lon="4.82677">
        <ele>265</ele>
        <time>2016-09-08T11:03:40Z</time>
      </trkpt>
      <trkpt lat="45.94297" lon="4.82669">
        <ele>265</ele>
        <time>2016-09-08T11:03:41Z</time>
      </trkpt>
      <trkpt lat="45.94297" lon="4.8266">
        <ele>265</ele>
        <time>2016-09-08T11:03:42Z</time>
      </trkpt>
      <trkpt lat="45.94297" lon="4.82652">
        <ele>265</ele>
        <time>2016-09-08T11:03:43Z</time>
      </trkpt>
      <trkpt lat="45.94298" lon="4.82644">
        <ele>265</ele>
        <time>2016-09-08T11:03:44Z</time>
      </trkpt>
      <trkpt lat="45.94298" lon="4.82636">
        <ele>265</ele>
        <time>2016-09-08T11:03:45Z</time>
      </trkpt>
      <trkpt lat="45.94298" lon="4.82627">
        <ele>265</ele>
        <time>2016-09-08T11:03:46Z</time>
      </trkpt>
      <trkpt lat="45.94298" lon="4.82619">
        <ele>265</ele>
        <time>2016-09-08T11:03:47Z</time>
      </trkpt>
      <trkpt lat="45.94299" lon="4.8261">
        <ele>265</ele>
        <time>2016-09-08T11:03:48Z</time>
      </trkpt>
      <trkpt lat="45.94299" lon="4.82601">
        <ele>265</ele>
        <time>2016-09-08T11:03:49Z</time>
      </trkpt>
      <trkpt lat="45.943" lon="4.82592">
        <ele>265</ele>
        <time>2016-09-08T11:03:50Z</time>
      </trkpt>
      <trkpt lat="45.943" lon="4.82583">
        <ele>264</ele>
        <time>2016-09-08T11:03:51Z</time>
      </trkpt>
      <trkpt lat="45.943" lon="4.82573">
        <ele>264</ele>
        <time>2016-09-08T11:03:52Z</time>
      </trkpt>
      <trkpt lat="45.943" lon="4.82564">
        <ele>264</ele>
        <time>2016-09-08T11:03:53Z</time>
      </trkpt>
      <trkpt lat="45.943" lon="4.82555">
        <ele>264</ele>
        <time>2016-09-08T11:03:54Z</time>
      </trkpt>
      <trkpt lat="45.943" lon="4.82546">
        <ele>264</ele>
        <time>2016-09-08T11:03:55Z</time>
      </trkpt>
      <trkpt lat="45.943" lon="4.82537">
        <ele>264</ele>
        <time>2016-09-08T11:03:56Z</time>
      </trkpt>
      <trkpt lat="45.943" lon="4.82527">
        <ele>264</ele>
        <time>2016-09-08T11:03:57Z</time>
      </trkpt>
      <trkpt lat="45.943" lon="4.82518">
        <ele>264</ele>
        <time>2016-09-08T11:03:58Z</time>
      </trkpt>
      <trkpt lat="45.94299" lon="4.82509">
        <ele>264</ele>
        <time>2016-09-08T11:03:59Z</time>
      </trkpt>
      <trkpt lat="45.94299" lon="4.825">
        <ele>264</ele>
        <time>2016-09-08T11:04:00Z</time>
      </trkpt>
      <trkpt lat="45.94299" lon="4.82491">
        <ele>264</ele>
        <time>2016-09-08T11:04:01Z</time>
      </trkpt>
      <trkpt lat="45.94299" lon="4.82482">
        <ele>264</ele>
        <time>2016-09-08T11:04:02Z</time>
      </trkpt>
      <trkpt lat="45.94299" lon="4.82474">
        <ele>264</ele>
        <time>2016-09-08T11:04:03Z</time>
      </trkpt>
      <trkpt lat="45.94299" lon="4.82465">
        <ele>264</ele>
        <time>2016-09-08T11:04:04Z</time>
      </trkpt>
      <trkpt lat="45.94299" lon="4.82456">
        <ele>264</ele>
        <time>2016-09-08T11:04:05Z</time>
      </trkpt>
      <trkpt lat="45.94298" lon="4.82447">
        <ele>264</ele>
        <time>2016-09-08T11:04:06Z</time>
      </trkpt>
      <trkpt lat="45.94298" lon="4.82438">
        <ele>264</ele>
        <time>2016-09-08T11:04:07Z</time>
      </trkpt>
      <trkpt lat="45.94297" lon="4.82429">
        <ele>264</ele>
        <time>2016-09-08T11:04:08Z</time>
      </trkpt>
      <trkpt lat="45.94297" lon="4.8242">
        <ele>264</ele>
        <time>2016-09-08T11:04:09Z</time>
      </trkpt>
      <trkpt lat="45.94296" lon="4.82411">
        <ele>264</ele>
        <time>2016-09-08T11:04:10Z</time>
      </trkpt>
      <trkpt lat="45.94296" lon="4.82401">
        <ele>264</ele>
        <time>2016-09-08T11:04:11Z</time>
      </trkpt>
      <trkpt lat="45.94295" lon="4.82392">
        <ele>264</ele>
        <time>2016-09-08T11:04:12Z</time>
      </trkpt>
      <trkpt lat="45.94295" lon="4.82382">
        <ele>264</ele>
        <time>2016-09-08T11:04:13Z</time>
      </trkpt>
      <trkpt lat="45.94295" lon="4.82372">
        <ele>264</ele>
        <time>2016-09-08T11:04:14Z</time>
      </trkpt>
      <trkpt lat="45.94295" lon="4.82363">
        <ele>264</ele>
        <time>2016-09-08T11:04:15Z</time>
      </trkpt>
      <trkpt lat="45.94294" lon="4.82353">
        <ele>264</ele>
        <time>2016-09-08T11:04:16Z</time>
      </trkpt>
      <trkpt lat="45.94294" lon="4.82344">
        <ele>264</ele>
        <time>2016-09-08T11:04:17Z</time>
      </trkpt>
      <trkpt lat="45.94293" lon="4.82334">
        <ele>264</ele>
        <time>2016-09-08T11:04:18Z</time>
      </trkpt>
      <trkpt lat="45.94292" lon="4.82325">
        <ele>265</ele>
        <time>2016-09-08T11:04:19Z</time>
      </trkpt>
      <trkpt lat="45.94292" lon="4.82317">
        <ele>265</ele>
        <time>2016-09-08T11:04:20Z</time>
      </trkpt>
      <trkpt lat="45.94292" lon="4.82308">
        <ele>265</ele>
        <time>2016-09-08T11:04:21Z</time>
      </trkpt>
      <trkpt lat="45.94291" lon="4.82299">
        <ele>265</ele>
        <time>2016-09-08T11:04:22Z</time>
      </trkpt>
      <trkpt lat="45.94291" lon="4.8229">
        <ele>265</ele>
        <time>2016-09-08T11:04:23Z</time>
      </trkpt>
      <trkpt lat="45.9429" lon="4.82281">
        <ele>265</ele>
        <time>2016-09-08T11:04:24Z</time>
      </trkpt>
      <trkpt lat="45.9429" lon="4.82272">
        <ele>265</ele>
        <time>2016-09-08T11:04:25Z</time>
      </trkpt>
      <trkpt lat="45.94289" lon="4.82263">
        <ele>265</ele>
        <time>2016-09-08T11:04:26Z</time>
      </trkpt>
      <trkpt lat="45.94289" lon="4.82254">
        <ele>265</ele>
        <time>2016-09-08T11:04:27Z</time>
      </trkpt>
      <trkpt lat="45.94289" lon="4.82246">
        <ele>264</ele>
        <time>2016-09-08T11:04:28Z</time>
      </trkpt>
      <trkpt lat="45.94288" lon="4.82237">
        <ele>264</ele>
        <time>2016-09-08T11:04:29Z</time>
      </trkpt>
      <trkpt lat="45.94287" lon="4.82229">
        <ele>264</ele>
        <time>2016-09-08T11:04:30Z</time>
      </trkpt>
      <trkpt lat="45.94286" lon="4.8222">
        <ele>264</ele>
        <time>2016-09-08T11:04:31Z</time>
      </trkpt>
      <trkpt lat="45.94286" lon="4.82212">
        <ele>264</ele>
        <time>2016-09-08T11:04:32Z</time>
      </trkpt>
      <trkpt lat="45.94286" lon="4.82204">
        <ele>264</ele>
        <time>2016-09-08T11:04:33Z</time>
      </trkpt>
      <trkpt lat="45.94285" lon="4.82196">
        <ele>264</ele>
        <time>2016-09-08T11:04:34Z</time>
      </trkpt>
      <trkpt lat="45.94283" lon="4.82187">
        <ele>264</ele>
        <time>2016-09-08T11:04:35Z</time>
      </trkpt>
      <trkpt lat="45.94282" lon="4.82179">
        <ele>264</ele>
        <time>2016-09-08T11:04:36Z</time>
      </trkpt>
      <trkpt lat="45.9428" lon="4.82171">
        <ele>264</ele>
        <time>2016-09-08T11:04:37Z</time>
      </trkpt>
      <trkpt lat="45.94279" lon="4.82163">
        <ele>263</ele>
        <time>2016-09-08T11:04:38Z</time>
      </trkpt>
      <trkpt lat="45.94277" lon="4.82155">
        <ele>263</ele>
        <time>2016-09-08T11:04:39Z</time>
      </trkpt>
      <trkpt lat="45.94276" lon="4.82147">
        <ele>263</ele>
        <time>2016-09-08T11:04:40Z</time>
      </trkpt>
      <trkpt lat="45.94274" lon="4.82138">
        <ele>263</ele>
        <time>2016-09-08T11:04:41Z</time>
      </trkpt>
      <trkpt lat="45.94273" lon="4.8213">
        <ele>263</ele>
        <time>2016-09-08T11:04:42Z</time>
      </trkpt>
      <trkpt lat="45.94271" lon="4.82122">
        <ele>263</ele>
        <time>2016-09-08T11:04:43Z</time>
      </trkpt>
      <trkpt lat="45.9427" lon="4.82113">
        <ele>263</ele>
        <time>2016-09-08T11:04:44Z</time>
      </trkpt>
      <trkpt lat="45.94268" lon="4.82104">
        <ele>263</ele>
        <time>2016-09-08T11:04:45Z</time>
      </trkpt>
      <trkpt lat="45.94267" lon="4.82095">
        <ele>262</ele>
        <time>2016-09-08T11:04:46Z</time>
      </trkpt>
      <trkpt lat="45.94265" lon="4.82085">
        <ele>262</ele>
        <time>2016-09-08T11:04:47Z</time>
      </trkpt>
      <trkpt lat="45.94262" lon="4.82075">
        <ele>262</ele>
        <time>2016-09-08T11:04:48Z</time>
      </trkpt>
      <trkpt lat="45.9426" lon="4.82065">
        <ele>262</ele>
        <time>2016-09-08T11:04:49Z</time>
      </trkpt>
      <trkpt lat="45.94258" lon="4.82055">
        <ele>262</ele>
        <time>2016-09-08T11:04:50Z</time>
      </trkpt>
      <trkpt lat="45.94255" lon="4.82045">
        <ele>262</ele>
        <time>2016-09-08T11:04:51Z</time>
      </trkpt>
      <trkpt lat="45.94253" lon="4.82035">
        <ele>262</ele>
        <time>2016-09-08T11:04:52Z</time>
      </trkpt>
      <trkpt lat="45.9425" lon="4.82025">
        <ele>262</ele>
        <time>2016-09-08T11:04:53Z</time>
      </trkpt>
      <trkpt lat="45.94249" lon="4.82015">
        <ele>263</ele>
        <time>2016-09-08T11:04:54Z</time>
      </trkpt>
      <trkpt lat="45.94247" lon="4.82005">
        <ele>262</ele>
        <time>2016-09-08T11:04:55Z</time>
      </trkpt>
      <trkpt lat="45.94245" lon="4.81996">
        <ele>263</ele>
        <time>2016-09-08T11:04:56Z</time>
      </trkpt>
      <trkpt lat="45.94243" lon="4.81986">
        <ele>263</ele>
        <time>2016-09-08T11:04:57Z</time>
      </trkpt>
      <trkpt lat="45.94241" lon="4.81977">
        <ele>263</ele>
        <time>2016-09-08T11:04:58Z</time>
      </trkpt>
      <trkpt lat="45.94239" lon="4.81968">
        <ele>263</ele>
        <time>2016-09-08T11:04:59Z</time>
      </trkpt>
      <trkpt lat="45.94237" lon="4.81959">
        <ele>264</ele>
        <time>2016-09-08T11:05:00Z</time>
      </trkpt>
      <trkpt lat="45.94236" lon="4.8195">
        <ele>264</ele>
        <time>2016-09-08T11:05:01Z</time>
      </trkpt>
      <trkpt lat="45.94234" lon="4.81942">
        <ele>264</ele>
        <time>2016-09-08T11:05:02Z</time>
      </trkpt>
      <trkpt lat="45.94232" lon="4.81934">
        <ele>263</ele>
        <time>2016-09-08T11:05:03Z</time>
      </trkpt>
      <trkpt lat="45.94231" lon="4.81926">
        <ele>263</ele>
        <time>2016-09-08T11:05:04Z</time>
      </trkpt>
      <trkpt lat="45.94229" lon="4.81918">
        <ele>263</ele>
        <time>2016-09-08T11:05:05Z</time>
      </trkpt>
      <trkpt lat="45.94228" lon="4.81909">
        <ele>264</ele>
        <time>2016-09-08T11:05:06Z</time>
      </trkpt>
      <trkpt lat="45.94226" lon="4.81901">
        <ele>264</ele>
        <time>2016-09-08T11:05:07Z</time>
      </trkpt>
      <trkpt lat="45.94224" lon="4.81892">
        <ele>265</ele>
        <time>2016-09-08T11:05:08Z</time>
      </trkpt>
      <trkpt lat="45.94222" lon="4.81883">
        <ele>265</ele>
        <time>2016-09-08T11:05:09Z</time>
      </trkpt>
      <trkpt lat="45.9422" lon="4.81874">
        <ele>265</ele>
        <time>2016-09-08T11:05:10Z</time>
      </trkpt>
      <trkpt lat="45.94218" lon="4.81865">
        <ele>265</ele>
        <time>2016-09-08T11:05:11Z</time>
      </trkpt>
      <trkpt lat="45.94216" lon="4.81857">
        <ele>265</ele>
        <time>2016-09-08T11:05:12Z</time>
      </trkpt>
      <trkpt lat="45.94213" lon="4.81848">
        <ele>265</ele>
        <time>2016-09-08T11:05:13Z</time>
      </trkpt>
      <trkpt lat="45.94212" lon="4.8184">
        <ele>265</ele>
        <time>2016-09-08T11:05:14Z</time>
      </trkpt>
      <trkpt lat="45.9421" lon="4.81832">
        <ele>266</ele>
        <time>2016-09-08T11:05:15Z</time>
      </trkpt>
      <trkpt lat="45.9421" lon="4.81824">
        <ele>266</ele>
        <time>2016-09-08T11:05:16Z</time>
      </trkpt>
      <trkpt lat="45.94209" lon="4.81815">
        <ele>266</ele>
        <time>2016-09-08T11:05:17Z</time>
      </trkpt>
      <trkpt lat="45.9421" lon="4.81807">
        <ele>266</ele>
        <time>2016-09-08T11:05:18Z</time>
      </trkpt>
      <trkpt lat="45.9421" lon="4.81798">
        <ele>265</ele>
        <time>2016-09-08T11:05:19Z</time>
      </trkpt>
      <trkpt lat="45.94211" lon="4.8179">
        <ele>265</ele>
        <time>2016-09-08T11:05:20Z</time>
      </trkpt>
      <trkpt lat="45.94213" lon="4.81782">
        <ele>265</ele>
        <time>2016-09-08T11:05:21Z</time>
      </trkpt>
      <trkpt lat="45.94214" lon="4.81774">
        <ele>265</ele>
        <time>2016-09-08T11:05:22Z</time>
      </trkpt>
      <trkpt lat="45.94217" lon="4.81766">
        <ele>265</ele>
        <time>2016-09-08T11:05:23Z</time>
      </trkpt>
      <trkpt lat="45.9422" lon="4.81759">
        <ele>265</ele>
        <time>2016-09-08T11:05:24Z</time>
      </trkpt>
      <trkpt lat="45.94222" lon="4.81752">
        <ele>265</ele>
        <time>2016-09-08T11:05:25Z</time>
      </trkpt>
      <trkpt lat="45.94225" lon="4.81744">
        <ele>265</ele>
        <time>2016-09-08T11:05:26Z</time>
      </trkpt>
      <trkpt lat="45.94226" lon="4.81736">
        <ele>265</ele>
        <time>2016-09-08T11:05:27Z</time>
      </trkpt>
      <trkpt lat="45.94225" lon="4.81728">
        <ele>265</ele>
        <time>2016-09-08T11:05:28Z</time>
      </trkpt>
      <trkpt lat="45.94223" lon="4.8172">
        <ele>266</ele>
        <time>2016-09-08T11:05:29Z</time>
      </trkpt>
      <trkpt lat="45.9422" lon="4.81713">
        <ele>266</ele>
        <time>2016-09-08T11:05:30Z</time>
      </trkpt>
      <trkpt lat="45.94215" lon="4.81708">
        <ele>266</ele>
        <time>2016-09-08T11:05:31Z</time>
      </trkpt>
      <trkpt lat="45.9421" lon="4.81704">
        <ele>266</ele>
        <time>2016-09-08T11:05:32Z</time>
      </trkpt>
      <trkpt lat="45.94204" lon="4.81702">
        <ele>266</ele>
        <time>2016-09-08T11:05:33Z</time>
      </trkpt>
      <trkpt lat="45.94199" lon="4.81698">
        <ele>267</ele>
        <time>2016-09-08T11:05:34Z</time>
      </trkpt>
      <trkpt lat="45.94194" lon="4.81693">
        <ele>267</ele>
        <time>2016-09-08T11:05:35Z</time>
      </trkpt>
      <trkpt lat="45.9419" lon="4.81686">
        <ele>267</ele>
        <time>2016-09-08T11:05:36Z</time>
      </trkpt>
      <trkpt lat="45.94186" lon="4.81677">
        <ele>267</ele>
        <time>2016-09-08T11:05:37Z</time>
      </trkpt>
      <trkpt lat="45.94183" lon="4.81668">
        <ele>268</ele>
        <time>2016-09-08T11:05:38Z</time>
      </trkpt>
      <trkpt lat="45.9418" lon="4.81657">
        <ele>268</ele>
        <time>2016-09-08T11:05:39Z</time>
      </trkpt>
      <trkpt lat="45.94177" lon="4.81645">
        <ele>268</ele>
        <time>2016-09-08T11:05:40Z</time>
      </trkpt>
      <trkpt lat="45.94175" lon="4.81633">
        <ele>267</ele>
        <time>2016-09-08T11:05:41Z</time>
      </trkpt>
      <trkpt lat="45.94172" lon="4.81621">
        <ele>267</ele>
        <time>2016-09-08T11:05:42Z</time>
      </trkpt>
      <trkpt lat="45.9417" lon="4.81609">
        <ele>267</ele>
        <time>2016-09-08T11:05:43Z</time>
      </trkpt>
      <trkpt lat="45.94168" lon="4.81596">
        <ele>267</ele>
        <time>2016-09-08T11:05:44Z</time>
      </trkpt>
      <trkpt lat="45.94166" lon="4.81584">
        <ele>267</ele>
        <time>2016-09-08T11:05:45Z</time>
      </trkpt>
      <trkpt lat="45.94164" lon="4.81571">
        <ele>266</ele>
        <time>2016-09-08T11:05:46Z</time>
      </trkpt>
      <trkpt lat="45.94163" lon="4.81557">
        <ele>265</ele>
        <time>2016-09-08T11:05:47Z</time>
      </trkpt>
      <trkpt lat="45.94163" lon="4.81544">
        <ele>264</ele>
        <time>2016-09-08T11:05:48Z</time>
      </trkpt>
      <trkpt lat="45.94163" lon="4.81532">
        <ele>264</ele>
        <time>2016-09-08T11:05:49Z</time>
      </trkpt>
      <trkpt lat="45.94163" lon="4.81518">
        <ele>263</ele>
        <time>2016-09-08T11:05:50Z</time>
      </trkpt>
      <trkpt lat="45.94164" lon="4.81505">
        <ele>263</ele>
        <time>2016-09-08T11:05:51Z</time>
      </trkpt>
      <trkpt lat="45.94165" lon="4.81492">
        <ele>261</ele>
        <time>2016-09-08T11:05:52Z</time>
      </trkpt>
      <trkpt lat="45.94166" lon="4.81479">
        <ele>259</ele>
        <time>2016-09-08T11:05:53Z</time>
      </trkpt>
      <trkpt lat="45.94167" lon="4.81466">
        <ele>262</ele>
        <time>2016-09-08T11:05:54Z</time>
      </trkpt>
      <trkpt lat="45.94168" lon="4.81452">
        <ele>261</ele>
        <time>2016-09-08T11:05:55Z</time>
      </trkpt>
      <trkpt lat="45.94169" lon="4.81438">
        <ele>260</ele>
        <time>2016-09-08T11:05:56Z</time>
      </trkpt>
      <trkpt lat="45.94169" lon="4.81424">
        <ele>258</ele>
        <time>2016-09-08T11:05:57Z</time>
      </trkpt>
      <trkpt lat="45.94171" lon="4.81411">
        <ele>257</ele>
        <time>2016-09-08T11:05:58Z</time>
      </trkpt>
      <trkpt lat="45.94173" lon="4.81397">
        <ele>258</ele>
        <time>2016-09-08T11:05:59Z</time>
      </trkpt>
      <trkpt lat="45.94175" lon="4.81383">
        <ele>258</ele>
        <time>2016-09-08T11:06:00Z</time>
      </trkpt>
      <trkpt lat="45.94176" lon="4.81368">
        <ele>258</ele>
        <time>2016-09-08T11:06:01Z</time>
      </trkpt>
      <trkpt lat="45.94178" lon="4.81355">
        <ele>257</ele>
        <time>2016-09-08T11:06:02Z</time>
      </trkpt>
      <trkpt lat="45.94179" lon="4.81341">
        <ele>255</ele>
        <time>2016-09-08T11:06:03Z</time>
      </trkpt>
      <trkpt lat="45.94179" lon="4.81327">
        <ele>255</ele>
        <time>2016-09-08T11:06:04Z</time>
      </trkpt>
      <trkpt lat="45.94178" lon="4.81312">
        <ele>255</ele>
        <time>2016-09-08T11:06:05Z</time>
      </trkpt>
      <trkpt lat="45.94177" lon="4.81297">
        <ele>256</ele>
        <time>2016-09-08T11:06:06Z</time>
      </trkpt>
      <trkpt lat="45.94176" lon="4.81283">
        <ele>255</ele>
        <time>2016-09-08T11:06:07Z</time>
      </trkpt>
      <trkpt lat="45.94175" lon="4.81269">
        <ele>254</ele>
        <time>2016-09-08T11:06:08Z</time>
      </trkpt>
      <trkpt lat="45.94173" lon="4.81256">
        <ele>252</ele>
        <time>2016-09-08T11:06:09Z</time>
      </trkpt>
      <trkpt lat="45.94171" lon="4.81243">
        <ele>252</ele>
        <time>2016-09-08T11:06:10Z</time>
      </trkpt>
      <trkpt lat="45.94168" lon="4.81229">
        <ele>253</ele>
        <time>2016-09-08T11:06:11Z</time>
      </trkpt>
      <trkpt lat="45.94165" lon="4.81216">
        <ele>245</ele>
        <time>2016-09-08T11:06:12Z</time>
      </trkpt>
      <trkpt lat="45.94161" lon="4.81202">
        <ele>245</ele>
        <time>2016-09-08T11:06:13Z</time>
      </trkpt>
      <trkpt lat="45.94156" lon="4.81188">
        <ele>245</ele>
        <time>2016-09-08T11:06:14Z</time>
      </trkpt>
      <trkpt lat="45.94152" lon="4.81175">
        <ele>245</ele>
        <time>2016-09-08T11:06:15Z</time>
      </trkpt>
      <trkpt lat="45.94147" lon="4.81161">
        <ele>245</ele>
        <time>2016-09-08T11:06:16Z</time>
      </trkpt>
      <trkpt lat="45.94142" lon="4.81148">
        <ele>244</ele>
        <time>2016-09-08T11:06:17Z</time>
      </trkpt>
      <trkpt lat="45.94136" lon="4.81135">
        <ele>244</ele>
        <time>2016-09-08T11:06:18Z</time>
      </trkpt>
      <trkpt lat="45.9413" lon="4.81124">
        <ele>244</ele>
        <time>2016-09-08T11:06:19Z</time>
      </trkpt>
      <trkpt lat="45.94124" lon="4.81113">
        <ele>243</ele>
        <time>2016-09-08T11:06:20Z</time>
      </trkpt>
      <trkpt lat="45.94118" lon="4.81101">
        <ele>243</ele>
        <time>2016-09-08T11:06:21Z</time>
      </trkpt>
      <trkpt lat="45.94111" lon="4.8109">
        <ele>242</ele>
        <time>2016-09-08T11:06:22Z</time>
      </trkpt>
      <trkpt lat="45.94106" lon="4.81077">
        <ele>243</ele>
        <time>2016-09-08T11:06:23Z</time>
      </trkpt>
      <trkpt lat="45.941" lon="4.81065">
        <ele>243</ele>
        <time>2016-09-08T11:06:24Z</time>
      </trkpt>
      <trkpt lat="45.94095" lon="4.81052">
        <ele>244</ele>
        <time>2016-09-08T11:06:25Z</time>
      </trkpt>
      <trkpt lat="45.9409" lon="4.81039">
        <ele>244</ele>
        <time>2016-09-08T11:06:26Z</time>
      </trkpt>
      <trkpt lat="45.94086" lon="4.81025">
        <ele>243</ele>
        <time>2016-09-08T11:06:27Z</time>
      </trkpt>
      <trkpt lat="45.94083" lon="4.81011">
        <ele>237</ele>
        <time>2016-09-08T11:06:28Z</time>
      </trkpt>
      <trkpt lat="45.94081" lon="4.80996">
        <ele>238</ele>
        <time>2016-09-08T11:06:29Z</time>
      </trkpt>
      <trkpt lat="45.94078" lon="4.8098">
        <ele>235</ele>
        <time>2016-09-08T11:06:30Z</time>
      </trkpt>
      <trkpt lat="45.94076" lon="4.80964">
        <ele>233</ele>
        <time>2016-09-08T11:06:31Z</time>
      </trkpt>
      <trkpt lat="45.94073" lon="4.80947">
        <ele>233</ele>
        <time>2016-09-08T11:06:32Z</time>
      </trkpt>
      <trkpt lat="45.94071" lon="4.8093">
        <ele>234</ele>
        <time>2016-09-08T11:06:33Z</time>
      </trkpt>
      <trkpt lat="45.94069" lon="4.80914">
        <ele>234</ele>
        <time>2016-09-08T11:06:34Z</time>
      </trkpt>
      <trkpt lat="45.94066" lon="4.80897">
        <ele>232</ele>
        <time>2016-09-08T11:06:35Z</time>
      </trkpt>
      <trkpt lat="45.94064" lon="4.80879">
        <ele>231</ele>
        <time>2016-09-08T11:06:36Z</time>
      </trkpt>
      <trkpt lat="45.94062" lon="4.80862">
        <ele>231</ele>
        <time>2016-09-08T11:06:37Z</time>
      </trkpt>
      <trkpt lat="45.94059" lon="4.80844">
        <ele>232</ele>
        <time>2016-09-08T11:06:38Z</time>
      </trkpt>
      <trkpt lat="45.94057" lon="4.80828">
        <ele>231</ele>
        <time>2016-09-08T11:06:39Z</time>
      </trkpt>
      <trkpt lat="45.94056" lon="4.80811">
        <ele>230</ele>
        <time>2016-09-08T11:06:40Z</time>
      </trkpt>
      <trkpt lat="45.94054" lon="4.80793">
        <ele>229</ele>
        <time>2016-09-08T11:06:41Z</time>
      </trkpt>
      <trkpt lat="45.94051" lon="4.80776">
        <ele>229</ele>
        <time>2016-09-08T11:06:42Z</time>
      </trkpt>
      <trkpt lat="45.94049" lon="4.80759">
        <ele>229</ele>
        <time>2016-09-08T11:06:43Z</time>
      </trkpt>
      <trkpt lat="45.94047" lon="4.80743">
        <ele>228</ele>
        <time>2016-09-08T11:06:44Z</time>
      </trkpt>
      <trkpt lat="45.94046" lon="4.80727">
        <ele>227</ele>
        <time>2016-09-08T11:06:45Z</time>
      </trkpt>
      <trkpt lat="45.94043" lon="4.80711">
        <ele>227</ele>
        <time>2016-09-08T11:06:46Z</time>
      </trkpt>
      <trkpt lat="45.9404" lon="4.80696">
        <ele>226</ele>
        <time>2016-09-08T11:06:47Z</time>
      </trkpt>
      <trkpt lat="45.94038" lon="4.80679">
        <ele>226</ele>
        <time>2016-09-08T11:06:48Z</time>
      </trkpt>
      <trkpt lat="45.94036" lon="4.80662">
        <ele>225</ele>
        <time>2016-09-08T11:06:49Z</time>
      </trkpt>
      <trkpt lat="45.94033" lon="4.80646">
        <ele>225</ele>
        <time>2016-09-08T11:06:50Z</time>
      </trkpt>
      <trkpt lat="45.94032" lon="4.80629">
        <ele>225</ele>
        <time>2016-09-08T11:06:51Z</time>
      </trkpt>
      <trkpt lat="45.94031" lon="4.80613">
        <ele>225</ele>
        <time>2016-09-08T11:06:52Z</time>
      </trkpt>
      <trkpt lat="45.9403" lon="4.80597">
        <ele>225</ele>
        <time>2016-09-08T11:06:53Z</time>
      </trkpt>
      <trkpt lat="45.94029" lon="4.80582">
        <ele>225</ele>
        <time>2016-09-08T11:06:54Z</time>
      </trkpt>
      <trkpt lat="45.94028" lon="4.80566">
        <ele>225</ele>
        <time>2016-09-08T11:06:55Z</time>
      </trkpt>
      <trkpt lat="45.94027" lon="4.8055">
        <ele>225</ele>
        <time>2016-09-08T11:06:56Z</time>
      </trkpt>
      <trkpt lat="45.94026" lon="4.80534">
        <ele>225</ele>
        <time>2016-09-08T11:06:57Z</time>
      </trkpt>
      <trkpt lat="45.94027" lon="4.80519">
        <ele>225</ele>
        <time>2016-09-08T11:06:58Z</time>
      </trkpt>
      <trkpt lat="45.94027" lon="4.80503">
        <ele>224</ele>
        <time>2016-09-08T11:06:59Z</time>
      </trkpt>
      <trkpt lat="45.94027" lon="4.80488">
        <ele>224</ele>
        <time>2016-09-08T11:07:00Z</time>
      </trkpt>
      <trkpt lat="45.94026" lon="4.80473">
        <ele>224</ele>
        <time>2016-09-08T11:07:01Z</time>
      </trkpt>
      <trkpt lat="45.94024" lon="4.80458">
        <ele>224</ele>
        <time>2016-09-08T11:07:02Z</time>
      </trkpt>
      <trkpt lat="45.94023" lon="4.80444">
        <ele>223</ele>
        <time>2016-09-08T11:07:03Z</time>
      </trkpt>
      <trkpt lat="45.94021" lon="4.8043">
        <ele>222</ele>
        <time>2016-09-08T11:07:04Z</time>
      </trkpt>
      <trkpt lat="45.94018" lon="4.80416">
        <ele>218</ele>
        <time>2016-09-08T11:07:05Z</time>
      </trkpt>
      <trkpt lat="45.94014" lon="4.80402">
        <ele>218</ele>
        <time>2016-09-08T11:07:06Z</time>
      </trkpt>
      <trkpt lat="45.94012" lon="4.80386">
        <ele>217</ele>
        <time>2016-09-08T11:07:07Z</time>
      </trkpt>
      <trkpt lat="45.94009" lon="4.80368">
        <ele>215</ele>
        <time>2016-09-08T11:07:08Z</time>
      </trkpt>
      <trkpt lat="45.94005" lon="4.80354">
        <ele>213</ele>
        <time>2016-09-08T11:07:09Z</time>
      </trkpt>
      <trkpt lat="45.94004" lon="4.80333">
        <ele>207</ele>
        <time>2016-09-08T11:07:10Z</time>
      </trkpt>
      <trkpt lat="45.94" lon="4.80316">
        <ele>208</ele>
        <time>2016-09-08T11:07:11Z</time>
      </trkpt>
      <trkpt lat="45.93996" lon="4.803">
        <ele>203</ele>
        <time>2016-09-08T11:07:12Z</time>
      </trkpt>
      <trkpt lat="45.93992" lon="4.80285">
        <ele>203</ele>
        <time>2016-09-08T11:07:13Z</time>
      </trkpt>
      <trkpt lat="45.93987" lon="4.8027">
        <ele>203</ele>
        <time>2016-09-08T11:07:14Z</time>
      </trkpt>
      <trkpt lat="45.93983" lon="4.80256">
        <ele>203</ele>
        <time>2016-09-08T11:07:15Z</time>
      </trkpt>
      <trkpt lat="45.93979" lon="4.80242">
        <ele>205</ele>
        <time>2016-09-08T11:07:16Z</time>
      </trkpt>
      <trkpt lat="45.93975" lon="4.80228">
        <ele>205</ele>
        <time>2016-09-08T11:07:17Z</time>
      </trkpt>
      <trkpt lat="45.93972" lon="4.80216">
        <ele>205</ele>
        <time>2016-09-08T11:07:18Z</time>
      </trkpt>
      <trkpt lat="45.93968" lon="4.80204">
        <ele>206</ele>
        <time>2016-09-08T11:07:19Z</time>
      </trkpt>
      <trkpt lat="45.93965" lon="4.80191">
        <ele>206</ele>
        <time>2016-09-08T11:07:20Z</time>
      </trkpt>
      <trkpt lat="45.93962" lon="4.80179">
        <ele>207</ele>
        <time>2016-09-08T11:07:21Z</time>
      </trkpt>
      <trkpt lat="45.93959" lon="4.80168">
        <ele>207</ele>
        <time>2016-09-08T11:07:22Z</time>
      </trkpt>
      <trkpt lat="45.93957" lon="4.80157">
        <ele>209</ele>
        <time>2016-09-08T11:07:23Z</time>
      </trkpt>
      <trkpt lat="45.93955" lon="4.80146">
        <ele>209</ele>
        <time>2016-09-08T11:07:24Z</time>
      </trkpt>
      <trkpt lat="45.93953" lon="4.80135">
        <ele>209</ele>
        <time>2016-09-08T11:07:25Z</time>
      </trkpt>
      <trkpt lat="45.93951" lon="4.80126">
        <ele>209</ele>
        <time>2016-09-08T11:07:26Z</time>
      </trkpt>
      <trkpt lat="45.93949" lon="4.80117">
        <ele>209</ele>
        <time>2016-09-08T11:07:27Z</time>
      </trkpt>
      <trkpt lat="45.93948" lon="4.80107">
        <ele>209</ele>
        <time>2016-09-08T11:07:28Z</time>
      </trkpt>
      <trkpt lat="45.93948" lon="4.80097">
        <ele>209</ele>
        <time>2016-09-08T11:07:29Z</time>
      </trkpt>
      <trkpt lat="45.93948" lon="4.80087">
        <ele>209</ele>
        <time>2016-09-08T11:07:30Z</time>
      </trkpt>
      <trkpt lat="45.93948" lon="4.80076">
        <ele>208</ele>
        <time>2016-09-08T11:07:31Z</time>
      </trkpt>
      <trkpt lat="45.93949" lon="4.80065">
        <ele>208</ele>
        <time>2016-09-08T11:07:32Z</time>
      </trkpt>
      <trkpt lat="45.93949" lon="4.80054">
        <ele>208</ele>
        <time>2016-09-08T11:07:33Z</time>
      </trkpt>
      <trkpt lat="45.9395" lon="4.80043">
        <ele>208</ele>
        <time>2016-09-08T11:07:34Z</time>
      </trkpt>
      <trkpt lat="45.93951" lon="4.80033">
        <ele>208</ele>
        <time>2016-09-08T11:07:35Z</time>
      </trkpt>
      <trkpt lat="45.93951" lon="4.80022">
        <ele>207</ele>
        <time>2016-09-08T11:07:36Z</time>
      </trkpt>
      <trkpt lat="45.93953" lon="4.80011">
        <ele>207</ele>
        <time>2016-09-08T11:07:37Z</time>
      </trkpt>
      <trkpt lat="45.93954" lon="4.8">
        <ele>205</ele>
        <time>2016-09-08T11:07:38Z</time>
      </trkpt>
      <trkpt lat="45.93956" lon="4.79989">
        <ele>205</ele>
        <time>2016-09-08T11:07:39Z</time>
      </trkpt>
      <trkpt lat="45.93957" lon="4.79977">
        <ele>206</ele>
        <time>2016-09-08T11:07:40Z</time>
      </trkpt>
      <trkpt lat="45.93958" lon="4.79966">
        <ele>206</ele>
        <time>2016-09-08T11:07:41Z</time>
      </trkpt>
      <trkpt lat="45.9396" lon="4.79955">
        <ele>206</ele>
        <time>2016-09-08T11:07:42Z</time>
      </trkpt>
      <trkpt lat="45.93961" lon="4.79944">
        <ele>206</ele>
        <time>2016-09-08T11:07:43Z</time>
      </trkpt>
      <trkpt lat="45.93963" lon="4.79935">
        <ele>206</ele>
        <time>2016-09-08T11:07:44Z</time>
      </trkpt>
      <trkpt lat="45.93964" lon="4.79924">
        <ele>206</ele>
        <time>2016-09-08T11:07:45Z</time>
      </trkpt>
      <trkpt lat="45.93966" lon="4.79914">
        <ele>206</ele>
        <time>2016-09-08T11:07:46Z</time>
      </trkpt>
      <trkpt lat="45.93967" lon="4.79904">
        <ele>206</ele>
        <time>2016-09-08T11:07:47Z</time>
      </trkpt>
      <trkpt lat="45.93968" lon="4.79894">
        <ele>206</ele>
        <time>2016-09-08T11:07:48Z</time>
      </trkpt>
      <trkpt lat="45.93969" lon="4.79883">
        <ele>206</ele>
        <time>2016-09-08T11:07:49Z</time>
      </trkpt>
      <trkpt lat="45.93971" lon="4.79874">
        <ele>206</ele>
        <time>2016-09-08T11:07:50Z</time>
      </trkpt>
      <trkpt lat="45.93972" lon="4.79864">
        <ele>206</ele>
        <time>2016-09-08T11:07:51Z</time>
      </trkpt>
      <trkpt lat="45.93974" lon="4.79854">
        <ele>207</ele>
        <time>2016-09-08T11:07:52Z</time>
      </trkpt>
      <trkpt lat="45.93976" lon="4.79844">
        <ele>207</ele>
        <time>2016-09-08T11:07:53Z</time>
      </trkpt>
      <trkpt lat="45.93978" lon="4.79834">
        <ele>207</ele>
        <time>2016-09-08T11:07:54Z</time>
      </trkpt>
      <trkpt lat="45.9398" lon="4.79825">
        <ele>207</ele>
        <time>2016-09-08T11:07:55Z</time>
      </trkpt>
      <trkpt lat="45.93982" lon="4.79814">
        <ele>207</ele>
        <time>2016-09-08T11:07:56Z</time>
      </trkpt>
      <trkpt lat="45.93983" lon="4.79805">
        <ele>207</ele>
        <time>2016-09-08T11:07:57Z</time>
      </trkpt>
      <trkpt lat="45.93983" lon="4.79794">
        <ele>207</ele>
        <time>2016-09-08T11:07:58Z</time>
      </trkpt>
      <trkpt lat="45.93983" lon="4.79783">
        <ele>207</ele>
        <time>2016-09-08T11:07:59Z</time>
      </trkpt>
      <trkpt lat="45.93982" lon="4.79773">
        <ele>207</ele>
        <time>2016-09-08T11:08:00Z</time>
      </trkpt>
      <trkpt lat="45.93981" lon="4.79762">
        <ele>207</ele>
        <time>2016-09-08T11:08:01Z</time>
      </trkpt>
      <trkpt lat="45.93979" lon="4.79751">
        <ele>207</ele>
        <time>2016-09-08T11:08:02Z</time>
      </trkpt>
      <trkpt lat="45.93978" lon="4.79741">
        <ele>207</ele>
        <time>2016-09-08T11:08:03Z</time>
      </trkpt>
      <trkpt lat="45.93977" lon="4.79732">
        <ele>207</ele>
        <time>2016-09-08T11:08:04Z</time>
      </trkpt>
      <trkpt lat="45.93976" lon="4.79723">
        <ele>207</ele>
        <time>2016-09-08T11:08:05Z</time>
      </trkpt>
      <trkpt lat="45.93976" lon="4.79714">
        <ele>207</ele>
        <time>2016-09-08T11:08:06Z</time>
      </trkpt>
      <trkpt lat="45.93974" lon="4.79705">
        <ele>207</ele>
        <time>2016-09-08T11:08:07Z</time>
      </trkpt>
      <trkpt lat="45.93973" lon="4.79697">
        <ele>207</ele>
        <time>2016-09-08T11:08:08Z</time>
      </trkpt>
      <trkpt lat="45.93972" lon="4.79687">
        <ele>207</ele>
        <time>2016-09-08T11:08:09Z</time>
      </trkpt>
      <trkpt lat="45.93971" lon="4.79678">
        <ele>207</ele>
        <time>2016-09-08T11:08:10Z</time>
      </trkpt>
      <trkpt lat="45.9397" lon="4.79669">
        <ele>208</ele>
        <time>2016-09-08T11:08:11Z</time>
      </trkpt>
      <trkpt lat="45.93969" lon="4.7966">
        <ele>208</ele>
        <time>2016-09-08T11:08:12Z</time>
      </trkpt>
      <trkpt lat="45.93969" lon="4.79651">
        <ele>208</ele>
        <time>2016-09-08T11:08:13Z</time>
      </trkpt>
      <trkpt lat="45.93968" lon="4.79642">
        <ele>207</ele>
        <time>2016-09-08T11:08:14Z</time>
      </trkpt>
      <trkpt lat="45.93967" lon="4.79633">
        <ele>207</ele>
        <time>2016-09-08T11:08:15Z</time>
      </trkpt>
      <trkpt lat="45.93966" lon="4.79624">
        <ele>207</ele>
        <time>2016-09-08T11:08:16Z</time>
      </trkpt>
      <trkpt lat="45.93966" lon="4.79615">
        <ele>207</ele>
        <time>2016-09-08T11:08:17Z</time>
      </trkpt>
      <trkpt lat="45.93966" lon="4.79606">
        <ele>207</ele>
        <time>2016-09-08T11:08:18Z</time>
      </trkpt>
      <trkpt lat="45.93966" lon="4.79598">
        <ele>207</ele>
        <time>2016-09-08T11:08:19Z</time>
      </trkpt>
      <trkpt lat="45.93965" lon="4.79589">
        <ele>207</ele>
        <time>2016-09-08T11:08:20Z</time>
      </trkpt>
      <trkpt lat="45.93965" lon="4.79579">
        <ele>206</ele>
        <time>2016-09-08T11:08:21Z</time>
      </trkpt>
      <trkpt lat="45.93963" lon="4.79569">
        <ele>206</ele>
        <time>2016-09-08T11:08:22Z</time>
      </trkpt>
      <trkpt lat="45.93962" lon="4.79559">
        <ele>206</ele>
        <time>2016-09-08T11:08:23Z</time>
      </trkpt>
      <trkpt lat="45.93961" lon="4.79549">
        <ele>205</ele>
        <time>2016-09-08T11:08:24Z</time>
      </trkpt>
      <trkpt lat="45.93961" lon="4.79538">
        <ele>205</ele>
        <time>2016-09-08T11:08:25Z</time>
      </trkpt>
      <trkpt lat="45.9396" lon="4.79528">
        <ele>205</ele>
        <time>2016-09-08T11:08:26Z</time>
      </trkpt>
      <trkpt lat="45.93959" lon="4.79516">
        <ele>205</ele>
        <time>2016-09-08T11:08:27Z</time>
      </trkpt>
      <trkpt lat="45.93959" lon="4.79505">
        <ele>205</ele>
        <time>2016-09-08T11:08:28Z</time>
      </trkpt>
      <trkpt lat="45.93959" lon="4.79495">
        <ele>203</ele>
        <time>2016-09-08T11:08:29Z</time>
      </trkpt>
      <trkpt lat="45.93958" lon="4.79484">
        <ele>203</ele>
        <time>2016-09-08T11:08:30Z</time>
      </trkpt>
      <trkpt lat="45.93958" lon="4.79474">
        <ele>203</ele>
        <time>2016-09-08T11:08:31Z</time>
      </trkpt>
      <trkpt lat="45.93959" lon="4.79463">
        <ele>203</ele>
        <time>2016-09-08T11:08:32Z</time>
      </trkpt>
      <trkpt lat="45.93959" lon="4.79453">
        <ele>203</ele>
        <time>2016-09-08T11:08:33Z</time>
      </trkpt>
      <trkpt lat="45.93959" lon="4.79442">
        <ele>203</ele>
        <time>2016-09-08T11:08:34Z</time>
      </trkpt>
      <trkpt lat="45.93959" lon="4.79431">
        <ele>203</ele>
        <time>2016-09-08T11:08:35Z</time>
      </trkpt>
      <trkpt lat="45.93959" lon="4.7942">
        <ele>203</ele>
        <time>2016-09-08T11:08:36Z</time>
      </trkpt>
      <trkpt lat="45.9396" lon="4.79409">
        <ele>202</ele>
        <time>2016-09-08T11:08:37Z</time>
      </trkpt>
      <trkpt lat="45.9396" lon="4.79397">
        <ele>202</ele>
        <time>2016-09-08T11:08:38Z</time>
      </trkpt>
      <trkpt lat="45.93961" lon="4.79385">
        <ele>202</ele>
        <time>2016-09-08T11:08:39Z</time>
      </trkpt>
      <trkpt lat="45.93961" lon="4.79372">
        <ele>201</ele>
        <time>2016-09-08T11:08:40Z</time>
      </trkpt>
      <trkpt lat="45.93961" lon="4.7936">
        <ele>201</ele>
        <time>2016-09-08T11:08:41Z</time>
      </trkpt>
      <trkpt lat="45.93961" lon="4.79348">
        <ele>201</ele>
        <time>2016-09-08T11:08:42Z</time>
      </trkpt>
      <trkpt lat="45.9396" lon="4.79335">
        <ele>201</ele>
        <time>2016-09-08T11:08:43Z</time>
      </trkpt>
      <trkpt lat="45.93959" lon="4.79323">
        <ele>199</ele>
        <time>2016-09-08T11:08:44Z</time>
      </trkpt>
      <trkpt lat="45.93958" lon="4.79311">
        <ele>199</ele>
        <time>2016-09-08T11:08:45Z</time>
      </trkpt>
      <trkpt lat="45.93958" lon="4.79299">
        <ele>199</ele>
        <time>2016-09-08T11:08:46Z</time>
      </trkpt>
      <trkpt lat="45.93958" lon="4.79287">
        <ele>199</ele>
        <time>2016-09-08T11:08:47Z</time>
      </trkpt>
      <trkpt lat="45.93958" lon="4.79275">
        <ele>198</ele>
        <time>2016-09-08T11:08:48Z</time>
      </trkpt>
      <trkpt lat="45.93958" lon="4.79264">
        <ele>198</ele>
        <time>2016-09-08T11:08:49Z</time>
      </trkpt>
      <trkpt lat="45.93957" lon="4.79252">
        <ele>198</ele>
        <time>2016-09-08T11:08:50Z</time>
      </trkpt>
      <trkpt lat="45.93956" lon="4.79241">
        <ele>197</ele>
        <time>2016-09-08T11:08:51Z</time>
      </trkpt>
      <trkpt lat="45.93956" lon="4.79231">
        <ele>197</ele>
        <time>2016-09-08T11:08:52Z</time>
      </trkpt>
      <trkpt lat="45.93956" lon="4.7922">
        <ele>197</ele>
        <time>2016-09-08T11:08:53Z</time>
      </trkpt>
      <trkpt lat="45.93956" lon="4.79209">
        <ele>197</ele>
        <time>2016-09-08T11:08:54Z</time>
      </trkpt>
      <trkpt lat="45.93955" lon="4.79199">
        <ele>197</ele>
        <time>2016-09-08T11:08:55Z</time>
      </trkpt>
      <trkpt lat="45.93955" lon="4.79188">
        <ele>197</ele>
        <time>2016-09-08T11:08:56Z</time>
      </trkpt>
      <trkpt lat="45.93954" lon="4.79178">
        <ele>197</ele>
        <time>2016-09-08T11:08:57Z</time>
      </trkpt>
      <trkpt lat="45.93955" lon="4.79167">
        <ele>197</ele>
        <time>2016-09-08T11:08:58Z</time>
      </trkpt>
      <trkpt lat="45.93955" lon="4.79156">
        <ele>197</ele>
        <time>2016-09-08T11:08:59Z</time>
      </trkpt>
      <trkpt lat="45.93955" lon="4.79145">
        <ele>197</ele>
        <time>2016-09-08T11:09:00Z</time>
      </trkpt>
      <trkpt lat="45.93955" lon="4.79134">
        <ele>197</ele>
        <time>2016-09-08T11:09:01Z</time>
      </trkpt>
      <trkpt lat="45.93954" lon="4.79123">
        <ele>197</ele>
        <time>2016-09-08T11:09:02Z</time>
      </trkpt>
      <trkpt lat="45.93954" lon="4.79113">
        <ele>197</ele>
        <time>2016-09-08T11:09:03Z</time>
      </trkpt>
      <trkpt lat="45.93954" lon="4.79103">
        <ele>197</ele>
        <time>2016-09-08T11:09:04Z</time>
      </trkpt>
      <trkpt lat="45.93953" lon="4.79092">
        <ele>197</ele>
        <time>2016-09-08T11:09:05Z</time>
      </trkpt>
      <trkpt lat="45.93953" lon="4.79082">
        <ele>196</ele>
        <time>2016-09-08T11:09:06Z</time>
      </trkpt>
      <trkpt lat="45.93952" lon="4.79071">
        <ele>196</ele>
        <time>2016-09-08T11:09:07Z</time>
      </trkpt>
      <trkpt lat="45.93951" lon="4.79061">
        <ele>196</ele>
        <time>2016-09-08T11:09:08Z</time>
      </trkpt>
      <trkpt lat="45.93951" lon="4.79051">
        <ele>196</ele>
        <time>2016-09-08T11:09:09Z</time>
      </trkpt>
      <trkpt lat="45.93951" lon="4.79041">
        <ele>196</ele>
        <time>2016-09-08T11:09:10Z</time>
      </trkpt>
      <trkpt lat="45.9395" lon="4.7903">
        <ele>196</ele>
        <time>2016-09-08T11:09:11Z</time>
      </trkpt>
      <trkpt lat="45.9395" lon="4.79019">
        <ele>195</ele>
        <time>2016-09-08T11:09:12Z</time>
      </trkpt>
      <trkpt lat="45.93949" lon="4.79009">
        <ele>195</ele>
        <time>2016-09-08T11:09:13Z</time>
      </trkpt>
      <trkpt lat="45.93949" lon="4.78998">
        <ele>194</ele>
        <time>2016-09-08T11:09:14Z</time>
      </trkpt>
      <trkpt lat="45.93948" lon="4.78987">
        <ele>194</ele>
        <time>2016-09-08T11:09:15Z</time>
      </trkpt>
      <trkpt lat="45.93947" lon="4.78977">
        <ele>194</ele>
        <time>2016-09-08T11:09:16Z</time>
      </trkpt>
      <trkpt lat="45.93948" lon="4.78965">
        <ele>194</ele>
        <time>2016-09-08T11:09:17Z</time>
      </trkpt>
      <trkpt lat="45.93947" lon="4.78954">
        <ele>194</ele>
        <time>2016-09-08T11:09:18Z</time>
      </trkpt>
      <trkpt lat="45.93947" lon="4.78942">
        <ele>194</ele>
        <time>2016-09-08T11:09:19Z</time>
      </trkpt>
      <trkpt lat="45.93947" lon="4.7893">
        <ele>194</ele>
        <time>2016-09-08T11:09:20Z</time>
      </trkpt>
      <trkpt lat="45.93946" lon="4.78918">
        <ele>194</ele>
        <time>2016-09-08T11:09:21Z</time>
      </trkpt>
      <trkpt lat="45.93946" lon="4.78906">
        <ele>193</ele>
        <time>2016-09-08T11:09:22Z</time>
      </trkpt>
      <trkpt lat="45.93945" lon="4.78894">
        <ele>194</ele>
        <time>2016-09-08T11:09:23Z</time>
      </trkpt>
      <trkpt lat="45.93945" lon="4.78882">
        <ele>194</ele>
        <time>2016-09-08T11:09:24Z</time>
      </trkpt>
      <trkpt lat="45.93944" lon="4.78869">
        <ele>194</ele>
        <time>2016-09-08T11:09:25Z</time>
      </trkpt>
      <trkpt lat="45.93943" lon="4.78857">
        <ele>194</ele>
        <time>2016-09-08T11:09:26Z</time>
      </trkpt>
      <trkpt lat="45.93943" lon="4.78845">
        <ele>194</ele>
        <time>2016-09-08T11:09:27Z</time>
      </trkpt>
      <trkpt lat="45.93942" lon="4.78834">
        <ele>193</ele>
        <time>2016-09-08T11:09:28Z</time>
      </trkpt>
      <trkpt lat="45.93941" lon="4.78823">
        <ele>194</ele>
        <time>2016-09-08T11:09:29Z</time>
      </trkpt>
      <trkpt lat="45.93941" lon="4.78812">
        <ele>194</ele>
        <time>2016-09-08T11:09:30Z</time>
      </trkpt>
      <trkpt lat="45.93941" lon="4.78802">
        <ele>194</ele>
        <time>2016-09-08T11:09:31Z</time>
      </trkpt>
      <trkpt lat="45.9394" lon="4.78793">
        <ele>194</ele>
        <time>2016-09-08T11:09:32Z</time>
      </trkpt>
      <trkpt lat="45.9394" lon="4.78783">
        <ele>194</ele>
        <time>2016-09-08T11:09:33Z</time>
      </trkpt>
      <trkpt lat="45.9394" lon="4.78775">
        <ele>194</ele>
        <time>2016-09-08T11:09:34Z</time>
      </trkpt>
      <trkpt lat="45.93941" lon="4.78766">
        <ele>194</ele>
        <time>2016-09-08T11:09:35Z</time>
      </trkpt>
      <trkpt lat="45.9394" lon="4.78757">
        <ele>193</ele>
        <time>2016-09-08T11:09:36Z</time>
      </trkpt>
      <trkpt lat="45.93941" lon="4.78748">
        <ele>193</ele>
        <time>2016-09-08T11:09:37Z</time>
      </trkpt>
      <trkpt lat="45.93941" lon="4.7874">
        <ele>194</ele>
        <time>2016-09-08T11:09:38Z</time>
      </trkpt>
      <trkpt lat="45.93941" lon="4.78731">
        <ele>194</ele>
        <time>2016-09-08T11:09:39Z</time>
      </trkpt>
      <trkpt lat="45.93942" lon="4.78722">
        <ele>194</ele>
        <time>2016-09-08T11:09:40Z</time>
      </trkpt>
      <trkpt lat="45.93942" lon="4.78712">
        <ele>194</ele>
        <time>2016-09-08T11:09:41Z</time>
      </trkpt>
      <trkpt lat="45.93943" lon="4.78703">
        <ele>194</ele>
        <time>2016-09-08T11:09:42Z</time>
      </trkpt>
      <trkpt lat="45.93943" lon="4.78694">
        <ele>194</ele>
        <time>2016-09-08T11:09:43Z</time>
      </trkpt>
      <trkpt lat="45.93943" lon="4.78686">
        <ele>194</ele>
        <time>2016-09-08T11:09:44Z</time>
      </trkpt>
      <trkpt lat="45.93943" lon="4.78678">
        <ele>194</ele>
        <time>2016-09-08T11:09:45Z</time>
      </trkpt>
      <trkpt lat="45.93943" lon="4.7867">
        <ele>194</ele>
        <time>2016-09-08T11:09:46Z</time>
      </trkpt>
      <trkpt lat="45.93942" lon="4.78662">
        <ele>195</ele>
        <time>2016-09-08T11:09:47Z</time>
      </trkpt>
      <trkpt lat="45.93942" lon="4.78653">
        <ele>195</ele>
        <time>2016-09-08T11:09:48Z</time>
      </trkpt>
      <trkpt lat="45.93942" lon="4.78645">
        <ele>195</ele>
        <time>2016-09-08T11:09:49Z</time>
      </trkpt>
      <trkpt lat="45.93941" lon="4.78637">
        <ele>195</ele>
        <time>2016-09-08T11:09:50Z</time>
      </trkpt>
      <trkpt lat="45.93941" lon="4.78629">
        <ele>196</ele>
        <time>2016-09-08T11:09:51Z</time>
      </trkpt>
      <trkpt lat="45.93941" lon="4.78621">
        <ele>196</ele>
        <time>2016-09-08T11:09:52Z</time>
      </trkpt>
      <trkpt lat="45.9394" lon="4.78613">
        <ele>196</ele>
        <time>2016-09-08T11:09:53Z</time>
      </trkpt>
      <trkpt lat="45.9394" lon="4.78605">
        <ele>196</ele>
        <time>2016-09-08T11:09:54Z</time>
      </trkpt>
      <trkpt lat="45.9394" lon="4.78598">
        <ele>196</ele>
        <time>2016-09-08T11:09:55Z</time>
      </trkpt>
      <trkpt lat="45.9394" lon="4.7859">
        <ele>196</ele>
        <time>2016-09-08T11:09:56Z</time>
      </trkpt>
      <trkpt lat="45.9394" lon="4.78578">
        <ele>196</ele>
        <time>2016-09-08T11:09:58Z</time>
      </trkpt>
      <trkpt lat="45.93939" lon="4.78573">
        <ele>197</ele>
        <time>2016-09-08T11:09:59Z</time>
      </trkpt>
      <trkpt lat="45.93938" lon="4.78563">
        <ele>197</ele>
        <time>2016-09-08T11:10:01Z</time>
      </trkpt>
      <trkpt lat="45.93938" lon="4.78557">
        <ele>197</ele>
        <time>2016-09-08T11:10:02Z</time>
      </trkpt>
      <trkpt lat="45.93938" lon="4.78551">
        <ele>197</ele>
        <time>2016-09-08T11:10:03Z</time>
      </trkpt>
      <trkpt lat="45.93939" lon="4.78543">
        <ele>197</ele>
        <time>2016-09-08T11:10:04Z</time>
      </trkpt>
      <trkpt lat="45.93939" lon="4.78537">
        <ele>197</ele>
        <time>2016-09-08T11:10:05Z</time>
      </trkpt>
      <trkpt lat="45.93939" lon="4.7853">
        <ele>197</ele>
        <time>2016-09-08T11:10:06Z</time>
      </trkpt>
      <trkpt lat="45.9394" lon="4.78522">
        <ele>197</ele>
        <time>2016-09-08T11:10:07Z</time>
      </trkpt>
      <trkpt lat="45.9394" lon="4.78515">
        <ele>197</ele>
        <time>2016-09-08T11:10:08Z</time>
      </trkpt>
      <trkpt lat="45.93941" lon="4.78508">
        <ele>197</ele>
        <time>2016-09-08T11:10:09Z</time>
      </trkpt>
      <trkpt lat="45.93942" lon="4.78501">
        <ele>197</ele>
        <time>2016-09-08T11:10:10Z</time>
      </trkpt>
      <trkpt lat="45.93943" lon="4.78494">
        <ele>197</ele>
        <time>2016-09-08T11:10:11Z</time>
      </trkpt>
      <trkpt lat="45.93944" lon="4.78486">
        <ele>197</ele>
        <time>2016-09-08T11:10:12Z</time>
      </trkpt>
      <trkpt lat="45.93945" lon="4.78479">
        <ele>197</ele>
        <time>2016-09-08T11:10:13Z</time>
      </trkpt>
      <trkpt lat="45.93946" lon="4.78472">
        <ele>197</ele>
        <time>2016-09-08T11:10:14Z</time>
      </trkpt>
      <trkpt lat="45.93947" lon="4.78465">
        <ele>197</ele>
        <time>2016-09-08T11:10:15Z</time>
      </trkpt>
      <trkpt lat="45.93947" lon="4.78458">
        <ele>197</ele>
        <time>2016-09-08T11:10:16Z</time>
      </trkpt>
      <trkpt lat="45.93948" lon="4.78451">
        <ele>197</ele>
        <time>2016-09-08T11:10:17Z</time>
      </trkpt>
      <trkpt lat="45.93949" lon="4.78443">
        <ele>197</ele>
        <time>2016-09-08T11:10:18Z</time>
      </trkpt>
      <trkpt lat="45.9395" lon="4.78435">
        <ele>197</ele>
        <time>2016-09-08T11:10:19Z</time>
      </trkpt>
      <trkpt lat="45.93952" lon="4.78427">
        <ele>197</ele>
        <time>2016-09-08T11:10:20Z</time>
      </trkpt>
      <trkpt lat="45.93953" lon="4.78419">
        <ele>197</ele>
        <time>2016-09-08T11:10:21Z</time>
      </trkpt>
      <trkpt lat="45.93955" lon="4.78412">
        <ele>196</ele>
        <time>2016-09-08T11:10:22Z</time>
      </trkpt>
      <trkpt lat="45.93956" lon="4.78404">
        <ele>197</ele>
        <time>2016-09-08T11:10:23Z</time>
      </trkpt>
      <trkpt lat="45.93958" lon="4.78397">
        <ele>197</ele>
        <time>2016-09-08T11:10:24Z</time>
      </trkpt>
      <trkpt lat="45.93958" lon="4.7839">
        <ele>197</ele>
        <time>2016-09-08T11:10:25Z</time>
      </trkpt>
      <trkpt lat="45.93959" lon="4.78383">
        <ele>197</ele>
        <time>2016-09-08T11:10:26Z</time>
      </trkpt>
      <trkpt lat="45.9396" lon="4.78376">
        <ele>197</ele>
        <time>2016-09-08T11:10:27Z</time>
      </trkpt>
      <trkpt lat="45.93961" lon="4.78369">
        <ele>197</ele>
        <time>2016-09-08T11:10:28Z</time>
      </trkpt>
      <trkpt lat="45.93962" lon="4.78362">
        <ele>197</ele>
        <time>2016-09-08T11:10:29Z</time>
      </trkpt>
      <trkpt lat="45.93964" lon="4.78354">
        <ele>197</ele>
        <time>2016-09-08T11:10:30Z</time>
      </trkpt>
      <trkpt lat="45.93965" lon="4.78348">
        <ele>197</ele>
        <time>2016-09-08T11:10:31Z</time>
      </trkpt>
      <trkpt lat="45.93966" lon="4.7834">
        <ele>197</ele>
        <time>2016-09-08T11:10:32Z</time>
      </trkpt>
      <trkpt lat="45.93967" lon="4.78333">
        <ele>196</ele>
        <time>2016-09-08T11:10:33Z</time>
      </trkpt>
      <trkpt lat="45.93968" lon="4.78326">
        <ele>196</ele>
        <time>2016-09-08T11:10:34Z</time>
      </trkpt>
      <trkpt lat="45.9397" lon="4.78314">
        <ele>196</ele>
        <time>2016-09-08T11:10:36Z</time>
      </trkpt>
      <trkpt lat="45.9397" lon="4.78306">
        <ele>196</ele>
        <time>2016-09-08T11:10:37Z</time>
      </trkpt>
      <trkpt lat="45.93971" lon="4.783">
        <ele>196</ele>
        <time>2016-09-08T11:10:38Z</time>
      </trkpt>
      <trkpt lat="45.93971" lon="4.78293">
        <ele>196</ele>
        <time>2016-09-08T11:10:39Z</time>
      </trkpt>
      <trkpt lat="45.93972" lon="4.78285">
        <ele>196</ele>
        <time>2016-09-08T11:10:40Z</time>
      </trkpt>
      <trkpt lat="45.93973" lon="4.78278">
        <ele>196</ele>
        <time>2016-09-08T11:10:41Z</time>
      </trkpt>
      <trkpt lat="45.93974" lon="4.7827">
        <ele>196</ele>
        <time>2016-09-08T11:10:42Z</time>
      </trkpt>
      <trkpt lat="45.93975" lon="4.78263">
        <ele>196</ele>
        <time>2016-09-08T11:10:43Z</time>
      </trkpt>
      <trkpt lat="45.93977" lon="4.78255">
        <ele>196</ele>
        <time>2016-09-08T11:10:44Z</time>
      </trkpt>
      <trkpt lat="45.93978" lon="4.78248">
        <ele>197</ele>
        <time>2016-09-08T11:10:45Z</time>
      </trkpt>
      <trkpt lat="45.93979" lon="4.7824">
        <ele>197</ele>
        <time>2016-09-08T11:10:46Z</time>
      </trkpt>
      <trkpt lat="45.9398" lon="4.78233">
        <ele>197</ele>
        <time>2016-09-08T11:10:47Z</time>
      </trkpt>
      <trkpt lat="45.93981" lon="4.78225">
        <ele>197</ele>
        <time>2016-09-08T11:10:48Z</time>
      </trkpt>
      <trkpt lat="45.93982" lon="4.78218">
        <ele>197</ele>
        <time>2016-09-08T11:10:49Z</time>
      </trkpt>
      <trkpt lat="45.93983" lon="4.78211">
        <ele>197</ele>
        <time>2016-09-08T11:10:50Z</time>
      </trkpt>
      <trkpt lat="45.93984" lon="4.78205">
        <ele>197</ele>
        <time>2016-09-08T11:10:51Z</time>
      </trkpt>
      <trkpt lat="45.93986" lon="4.78198">
        <ele>197</ele>
        <time>2016-09-08T11:10:52Z</time>
      </trkpt>
      <trkpt lat="45.93987" lon="4.78192">
        <ele>198</ele>
        <time>2016-09-08T11:10:53Z</time>
      </trkpt>
      <trkpt lat="45.93991" lon="4.7818">
        <ele>199</ele>
        <time>2016-09-08T11:10:55Z</time>
      </trkpt>
      <trkpt lat="45.93993" lon="4.78175">
        <ele>199</ele>
        <time>2016-09-08T11:10:56Z</time>
      </trkpt>
      <trkpt lat="45.93996" lon="4.78163">
        <ele>200</ele>
        <time>2016-09-08T11:10:58Z</time>
      </trkpt>
      <trkpt lat="45.93996" lon="4.78158">
        <ele>199</ele>
        <time>2016-09-08T11:10:59Z</time>
      </trkpt>
      <trkpt lat="45.93998" lon="4.78145">
        <ele>198</ele>
        <time>2016-09-08T11:11:01Z</time>
      </trkpt>
      <trkpt lat="45.93999" lon="4.78138">
        <ele>198</ele>
        <time>2016-09-08T11:11:02Z</time>
      </trkpt>
      <trkpt lat="45.94001" lon="4.7813">
        <ele>203</ele>
        <time>2016-09-08T11:11:03Z</time>
      </trkpt>
      <trkpt lat="45.94001" lon="4.78123">
        <ele>203</ele>
        <time>2016-09-08T11:11:04Z</time>
      </trkpt>
      <trkpt lat="45.94002" lon="4.78116">
        <ele>203</ele>
        <time>2016-09-08T11:11:05Z</time>
      </trkpt>
      <trkpt lat="45.94003" lon="4.78108">
        <ele>202</ele>
        <time>2016-09-08T11:11:06Z</time>
      </trkpt>
      <trkpt lat="45.94004" lon="4.78101">
        <ele>202</ele>
        <time>2016-09-08T11:11:07Z</time>
      </trkpt>
      <trkpt lat="45.94005" lon="4.78094">
        <ele>201</ele>
        <time>2016-09-08T11:11:08Z</time>
      </trkpt>
      <trkpt lat="45.94006" lon="4.78087">
        <ele>200</ele>
        <time>2016-09-08T11:11:09Z</time>
      </trkpt>
      <trkpt lat="45.94007" lon="4.7808">
        <ele>200</ele>
        <time>2016-09-08T11:11:10Z</time>
      </trkpt>
      <trkpt lat="45.94008" lon="4.78073">
        <ele>201</ele>
        <time>2016-09-08T11:11:11Z</time>
      </trkpt>
      <trkpt lat="45.94008" lon="4.78066">
        <ele>201</ele>
        <time>2016-09-08T11:11:12Z</time>
      </trkpt>
      <trkpt lat="45.9401" lon="4.78059">
        <ele>201</ele>
        <time>2016-09-08T11:11:13Z</time>
      </trkpt>
      <trkpt lat="45.94011" lon="4.78053">
        <ele>201</ele>
        <time>2016-09-08T11:11:14Z</time>
      </trkpt>
      <trkpt lat="45.94012" lon="4.78047">
        <ele>201</ele>
        <time>2016-09-08T11:11:15Z</time>
      </trkpt>
      <trkpt lat="45.94014" lon="4.78041">
        <ele>201</ele>
        <time>2016-09-08T11:11:16Z</time>
      </trkpt>
      <trkpt lat="45.94016" lon="4.78034">
        <ele>201</ele>
        <time>2016-09-08T11:11:17Z</time>
      </trkpt>
      <trkpt lat="45.94017" lon="4.78028">
        <ele>201</ele>
        <time>2016-09-08T11:11:18Z</time>
      </trkpt>
      <trkpt lat="45.94018" lon="4.78021">
        <ele>201</ele>
        <time>2016-09-08T11:11:19Z</time>
      </trkpt>
      <trkpt lat="45.94019" lon="4.78014">
        <ele>200</ele>
        <time>2016-09-08T11:11:20Z</time>
      </trkpt>
      <trkpt lat="45.9402" lon="4.78007">
        <ele>200</ele>
        <time>2016-09-08T11:11:21Z</time>
      </trkpt>
      <trkpt lat="45.94021" lon="4.78">
        <ele>199</ele>
        <time>2016-09-08T11:11:22Z</time>
      </trkpt>
      <trkpt lat="45.94022" lon="4.77992">
        <ele>200</ele>
        <time>2016-09-08T11:11:23Z</time>
      </trkpt>
      <trkpt lat="45.94023" lon="4.77984">
        <ele>200</ele>
        <time>2016-09-08T11:11:24Z</time>
      </trkpt>
      <trkpt lat="45.94024" lon="4.77977">
        <ele>200</ele>
        <time>2016-09-08T11:11:25Z</time>
      </trkpt>
      <trkpt lat="45.94025" lon="4.77969">
        <ele>200</ele>
        <time>2016-09-08T11:11:26Z</time>
      </trkpt>
      <trkpt lat="45.94027" lon="4.77957">
        <ele>200</ele>
        <time>2016-09-08T11:11:28Z</time>
      </trkpt>
      <trkpt lat="45.94028" lon="4.77952">
        <ele>200</ele>
        <time>2016-09-08T11:11:29Z</time>
      </trkpt>
      <trkpt lat="45.94031" lon="4.77941">
        <ele>200</ele>
        <time>2016-09-08T11:11:31Z</time>
      </trkpt>
      <trkpt lat="45.9403" lon="4.77935">
        <ele>200</ele>
        <time>2016-09-08T11:11:32Z</time>
      </trkpt>
      <trkpt lat="45.94023" lon="4.77927">
        <ele>199</ele>
        <time>2016-09-08T11:11:34Z</time>
      </trkpt>
      <trkpt lat="45.94018" lon="4.77926">
        <ele>198</ele>
        <time>2016-09-08T11:11:35Z</time>
      </trkpt>
      <trkpt lat="45.94013" lon="4.77925">
        <ele>198</ele>
        <time>2016-09-08T11:11:36Z</time>
      </trkpt>
      <trkpt lat="45.94007" lon="4.77926">
        <ele>197</ele>
        <time>2016-09-08T11:11:37Z</time>
      </trkpt>
      <trkpt lat="45.94001" lon="4.77928">
        <ele>197</ele>
        <time>2016-09-08T11:11:38Z</time>
      </trkpt>
      <trkpt lat="45.93995" lon="4.77931">
        <ele>192</ele>
        <time>2016-09-08T11:11:39Z</time>
      </trkpt>
      <trkpt lat="45.93988" lon="4.77934">
        <ele>192</ele>
        <time>2016-09-08T11:11:40Z</time>
      </trkpt>
      <trkpt lat="45.93981" lon="4.77939">
        <ele>191</ele>
        <time>2016-09-08T11:11:41Z</time>
      </trkpt>
      <trkpt lat="45.93973" lon="4.77943">
        <ele>191</ele>
        <time>2016-09-08T11:11:42Z</time>
      </trkpt>
      <trkpt lat="45.93966" lon="4.77949">
        <ele>190</ele>
        <time>2016-09-08T11:11:43Z</time>
      </trkpt>
      <trkpt lat="45.93958" lon="4.77954">
        <ele>190</ele>
        <time>2016-09-08T11:11:44Z</time>
      </trkpt>
      <trkpt lat="45.93951" lon="4.77962">
        <ele>190</ele>
        <time>2016-09-08T11:11:45Z</time>
      </trkpt>
      <trkpt lat="45.93942" lon="4.77968">
        <ele>189</ele>
        <time>2016-09-08T11:11:46Z</time>
      </trkpt>
      <trkpt lat="45.93934" lon="4.77973">
        <ele>189</ele>
        <time>2016-09-08T11:11:47Z</time>
      </trkpt>
      <trkpt lat="45.93926" lon="4.77978">
        <ele>188</ele>
        <time>2016-09-08T11:11:48Z</time>
      </trkpt>
      <trkpt lat="45.93918" lon="4.77984">
        <ele>188</ele>
        <time>2016-09-08T11:11:49Z</time>
      </trkpt>
      <trkpt lat="45.93911" lon="4.77991">
        <ele>184</ele>
        <time>2016-09-08T11:11:50Z</time>
      </trkpt>
      <trkpt lat="45.93904" lon="4.77997">
        <ele>183</ele>
        <time>2016-09-08T11:11:51Z</time>
      </trkpt>
      <trkpt lat="45.93898" lon="4.78003">
        <ele>185</ele>
        <time>2016-09-08T11:11:52Z</time>
      </trkpt>
      <trkpt lat="45.93893" lon="4.78009">
        <ele>184</ele>
        <time>2016-09-08T11:11:53Z</time>
      </trkpt>
      <trkpt lat="45.93888" lon="4.78014">
        <ele>184</ele>
        <time>2016-09-08T11:11:54Z</time>
      </trkpt>
      <trkpt lat="45.93882" lon="4.78016">
        <ele>184</ele>
        <time>2016-09-08T11:11:55Z</time>
      </trkpt>
      <trkpt lat="45.93876" lon="4.78015">
        <ele>183</ele>
        <time>2016-09-08T11:11:56Z</time>
      </trkpt>
      <trkpt lat="45.9387" lon="4.78013">
        <ele>183</ele>
        <time>2016-09-08T11:11:57Z</time>
      </trkpt>
      <trkpt lat="45.93864" lon="4.78008">
        <ele>183</ele>
        <time>2016-09-08T11:11:58Z</time>
      </trkpt>
      <trkpt lat="45.93859" lon="4.78003">
        <ele>182</ele>
        <time>2016-09-08T11:11:59Z</time>
      </trkpt>
      <trkpt lat="45.93854" lon="4.77998">
        <ele>179</ele>
        <time>2016-09-08T11:12:00Z</time>
      </trkpt>
      <trkpt lat="45.93849" lon="4.77993">
        <ele>179</ele>
        <time>2016-09-08T11:12:01Z</time>
      </trkpt>
      <trkpt lat="45.93844" lon="4.77989">
        <ele>179</ele>
        <time>2016-09-08T11:12:02Z</time>
      </trkpt>
      <trkpt lat="45.9384" lon="4.77983">
        <ele>178</ele>
        <time>2016-09-08T11:12:03Z</time>
      </trkpt>
      <trkpt lat="45.93838" lon="4.77976">
        <ele>178</ele>
        <time>2016-09-08T11:12:04Z</time>
      </trkpt>
      <trkpt lat="45.93833" lon="4.77966">
        <ele>171</ele>
        <time>2016-09-08T11:12:06Z</time>
      </trkpt>
      <trkpt lat="45.9383" lon="4.77961">
        <ele>171</ele>
        <time>2016-09-08T11:12:07Z</time>
      </trkpt>
      <trkpt lat="45.93826" lon="4.77956">
        <ele>170</ele>
        <time>2016-09-08T11:12:08Z</time>
      </trkpt>
      <trkpt lat="45.93822" lon="4.77951">
        <ele>170</ele>
        <time>2016-09-08T11:12:09Z</time>
      </trkpt>
      <trkpt lat="45.93818" lon="4.77946">
        <ele>169</ele>
        <time>2016-09-08T11:12:10Z</time>
      </trkpt>
      <trkpt lat="45.93814" lon="4.77941">
        <ele>169</ele>
        <time>2016-09-08T11:12:11Z</time>
      </trkpt>
      <trkpt lat="45.93811" lon="4.77935">
        <ele>168</ele>
        <time>2016-09-08T11:12:12Z</time>
      </trkpt>
      <trkpt lat="45.93807" lon="4.7793">
        <ele>168</ele>
        <time>2016-09-08T11:12:13Z</time>
      </trkpt>
      <trkpt lat="45.93803" lon="4.77925">
        <ele>168</ele>
        <time>2016-09-08T11:12:14Z</time>
      </trkpt>
      <trkpt lat="45.93799" lon="4.77919">
        <ele>168</ele>
        <time>2016-09-08T11:12:15Z</time>
      </trkpt>
      <trkpt lat="45.93794" lon="4.77914">
        <ele>166</ele>
        <time>2016-09-08T11:12:16Z</time>
      </trkpt>
      <trkpt lat="45.9379" lon="4.77908">
        <ele>166</ele>
        <time>2016-09-08T11:12:17Z</time>
      </trkpt>
      <trkpt lat="45.93785" lon="4.77903">
        <ele>166</ele>
        <time>2016-09-08T11:12:18Z</time>
      </trkpt>
      <trkpt lat="45.93781" lon="4.77898">
        <ele>166</ele>
        <time>2016-09-08T11:12:19Z</time>
      </trkpt>
      <trkpt lat="45.93776" lon="4.77893">
        <ele>166</ele>
        <time>2016-09-08T11:12:20Z</time>
      </trkpt>
      <trkpt lat="45.93772" lon="4.77888">
        <ele>166</ele>
        <time>2016-09-08T11:12:21Z</time>
      </trkpt>
      <trkpt lat="45.93769" lon="4.77884">
        <ele>166</ele>
        <time>2016-09-08T11:12:22Z</time>
      </trkpt>
      <trkpt lat="45.93765" lon="4.77879">
        <ele>166</ele>
        <time>2016-09-08T11:12:23Z</time>
      </trkpt>
      <trkpt lat="45.93761" lon="4.77874">
        <ele>166</ele>
        <time>2016-09-08T11:12:24Z</time>
      </trkpt>
      <trkpt lat="45.93756" lon="4.77869">
        <ele>166</ele>
        <time>2016-09-08T11:12:25Z</time>
      </trkpt>
      <trkpt lat="45.93752" lon="4.77864">
        <ele>166</ele>
        <time>2016-09-08T11:12:26Z</time>
      </trkpt>
      <trkpt lat="45.93748" lon="4.77859">
        <ele>167</ele>
        <time>2016-09-08T11:12:27Z</time>
      </trkpt>
      <trkpt lat="45.93744" lon="4.77854">
        <ele>167</ele>
        <time>2016-09-08T11:12:28Z</time>
      </trkpt>
      <trkpt lat="45.93739" lon="4.77848">
        <ele>167</ele>
        <time>2016-09-08T11:12:29Z</time>
      </trkpt>
      <trkpt lat="45.93735" lon="4.77843">
        <ele>167</ele>
        <time>2016-09-08T11:12:30Z</time>
      </trkpt>
      <trkpt lat="45.93731" lon="4.77838">
        <ele>167</ele>
        <time>2016-09-08T11:12:31Z</time>
      </trkpt>
      <trkpt lat="45.93726" lon="4.77833">
        <ele>168</ele>
        <time>2016-09-08T11:12:32Z</time>
      </trkpt>
      <trkpt lat="45.93722" lon="4.77827">
        <ele>168</ele>
        <time>2016-09-08T11:12:33Z</time>
      </trkpt>
      <trkpt lat="45.93718" lon="4.77822">
        <ele>169</ele>
        <time>2016-09-08T11:12:34Z</time>
      </trkpt>
      <trkpt lat="45.93712" lon="4.77817">
        <ele>169</ele>
        <time>2016-09-08T11:12:35Z</time>
      </trkpt>
      <trkpt lat="45.93709" lon="4.7781">
        <ele>169</ele>
        <time>2016-09-08T11:12:36Z</time>
      </trkpt>
      <trkpt lat="45.93704" lon="4.77804">
        <ele>169</ele>
        <time>2016-09-08T11:12:37Z</time>
      </trkpt>
      <trkpt lat="45.937" lon="4.77798">
        <ele>169</ele>
        <time>2016-09-08T11:12:38Z</time>
      </trkpt>
      <trkpt lat="45.93696" lon="4.77792">
        <ele>169</ele>
        <time>2016-09-08T11:12:39Z</time>
      </trkpt>
      <trkpt lat="45.93691" lon="4.77786">
        <ele>170</ele>
        <time>2016-09-08T11:12:40Z</time>
      </trkpt>
      <trkpt lat="45.93686" lon="4.77779">
        <ele>170</ele>
        <time>2016-09-08T11:12:41Z</time>
      </trkpt>
      <trkpt lat="45.93681" lon="4.77772">
        <ele>170</ele>
        <time>2016-09-08T11:12:42Z</time>
      </trkpt>
      <trkpt lat="45.93677" lon="4.77765">
        <ele>170</ele>
        <time>2016-09-08T11:12:43Z</time>
      </trkpt>
      <trkpt lat="45.93672" lon="4.77757">
        <ele>171</ele>
        <time>2016-09-08T11:12:44Z</time>
      </trkpt>
      <trkpt lat="45.93667" lon="4.77749">
        <ele>171</ele>
        <time>2016-09-08T11:12:45Z</time>
      </trkpt>
      <trkpt lat="45.93662" lon="4.77741">
        <ele>170</ele>
        <time>2016-09-08T11:12:46Z</time>
      </trkpt>
      <trkpt lat="45.93656" lon="4.77732">
        <ele>170</ele>
        <time>2016-09-08T11:12:47Z</time>
      </trkpt>
      <trkpt lat="45.93651" lon="4.77723">
        <ele>170</ele>
        <time>2016-09-08T11:12:48Z</time>
      </trkpt>
      <trkpt lat="45.93646" lon="4.77714">
        <ele>170</ele>
        <time>2016-09-08T11:12:49Z</time>
      </trkpt>
      <trkpt lat="45.93641" lon="4.77704">
        <ele>170</ele>
        <time>2016-09-08T11:12:50Z</time>
      </trkpt>
      <trkpt lat="45.93636" lon="4.77694">
        <ele>169</ele>
        <time>2016-09-08T11:12:51Z</time>
      </trkpt>
      <trkpt lat="45.9363" lon="4.77684">
        <ele>169</ele>
        <time>2016-09-08T11:12:52Z</time>
      </trkpt>
      <trkpt lat="45.93626" lon="4.77673">
        <ele>169</ele>
        <time>2016-09-08T11:12:53Z</time>
      </trkpt>
      <trkpt lat="45.93621" lon="4.77663">
        <ele>169</ele>
        <time>2016-09-08T11:12:54Z</time>
      </trkpt>
      <trkpt lat="45.93617" lon="4.77653">
        <ele>169</ele>
        <time>2016-09-08T11:12:55Z</time>
      </trkpt>
      <trkpt lat="45.93612" lon="4.77643">
        <ele>169</ele>
        <time>2016-09-08T11:12:56Z</time>
      </trkpt>
      <trkpt lat="45.93609" lon="4.77633">
        <ele>169</ele>
        <time>2016-09-08T11:12:57Z</time>
      </trkpt>
      <trkpt lat="45.93605" lon="4.77623">
        <ele>170</ele>
        <time>2016-09-08T11:12:58Z</time>
      </trkpt>
      <trkpt lat="45.93602" lon="4.77614">
        <ele>170</ele>
        <time>2016-09-08T11:12:59Z</time>
      </trkpt>
      <trkpt lat="45.93599" lon="4.77604">
        <ele>170</ele>
        <time>2016-09-08T11:13:00Z</time>
      </trkpt>
      <trkpt lat="45.93595" lon="4.77595">
        <ele>170</ele>
        <time>2016-09-08T11:13:01Z</time>
      </trkpt>
      <trkpt lat="45.93592" lon="4.77585">
        <ele>170</ele>
        <time>2016-09-08T11:13:02Z</time>
      </trkpt>
      <trkpt lat="45.93589" lon="4.77576">
        <ele>170</ele>
        <time>2016-09-08T11:13:03Z</time>
      </trkpt>
      <trkpt lat="45.93586" lon="4.77567">
        <ele>170</ele>
        <time>2016-09-08T11:13:04Z</time>
      </trkpt>
      <trkpt lat="45.93583" lon="4.77558">
        <ele>169</ele>
        <time>2016-09-08T11:13:05Z</time>
      </trkpt>
      <trkpt lat="45.93581" lon="4.77549">
        <ele>169</ele>
        <time>2016-09-08T11:13:06Z</time>
      </trkpt>
      <trkpt lat="45.93579" lon="4.77541">
        <ele>169</ele>
        <time>2016-09-08T11:13:07Z</time>
      </trkpt>
      <trkpt lat="45.93577" lon="4.77532">
        <ele>169</ele>
        <time>2016-09-08T11:13:08Z</time>
      </trkpt>
      <trkpt lat="45.93575" lon="4.77523">
        <ele>169</ele>
        <time>2016-09-08T11:13:09Z</time>
      </trkpt>
      <trkpt lat="45.93573" lon="4.77515">
        <ele>169</ele>
        <time>2016-09-08T11:13:10Z</time>
      </trkpt>
      <trkpt lat="45.93571" lon="4.77506">
        <ele>169</ele>
        <time>2016-09-08T11:13:11Z</time>
      </trkpt>
      <trkpt lat="45.93569" lon="4.77497">
        <ele>169</ele>
        <time>2016-09-08T11:13:12Z</time>
      </trkpt>
      <trkpt lat="45.93567" lon="4.77488">
        <ele>169</ele>
        <time>2016-09-08T11:13:13Z</time>
      </trkpt>
      <trkpt lat="45.93565" lon="4.77479">
        <ele>169</ele>
        <time>2016-09-08T11:13:14Z</time>
      </trkpt>
      <trkpt lat="45.93563" lon="4.7747">
        <ele>169</ele>
        <time>2016-09-08T11:13:15Z</time>
      </trkpt>
      <trkpt lat="45.93561" lon="4.77462">
        <ele>169</ele>
        <time>2016-09-08T11:13:16Z</time>
      </trkpt>
      <trkpt lat="45.93559" lon="4.77453">
        <ele>169</ele>
        <time>2016-09-08T11:13:17Z</time>
      </trkpt>
      <trkpt lat="45.93556" lon="4.77445">
        <ele>169</ele>
        <time>2016-09-08T11:13:18Z</time>
      </trkpt>
      <trkpt lat="45.93554" lon="4.77438">
        <ele>169</ele>
        <time>2016-09-08T11:13:19Z</time>
      </trkpt>
      <trkpt lat="45.93552" lon="4.7743">
        <ele>170</ele>
        <time>2016-09-08T11:13:20Z</time>
      </trkpt>
      <trkpt lat="45.9355" lon="4.77423">
        <ele>170</ele>
        <time>2016-09-08T11:13:21Z</time>
      </trkpt>
      <trkpt lat="45.93549" lon="4.77415">
        <ele>170</ele>
        <time>2016-09-08T11:13:22Z</time>
      </trkpt>
      <trkpt lat="45.93548" lon="4.77407">
        <ele>170</ele>
        <time>2016-09-08T11:13:23Z</time>
      </trkpt>
      <trkpt lat="45.93546" lon="4.77399">
        <ele>170</ele>
        <time>2016-09-08T11:13:24Z</time>
      </trkpt>
      <trkpt lat="45.93544" lon="4.77391">
        <ele>170</ele>
        <time>2016-09-08T11:13:25Z</time>
      </trkpt>
      <trkpt lat="45.93542" lon="4.77382">
        <ele>170</ele>
        <time>2016-09-08T11:13:26Z</time>
      </trkpt>
      <trkpt lat="45.9354" lon="4.77374">
        <ele>170</ele>
        <time>2016-09-08T11:13:27Z</time>
      </trkpt>
      <trkpt lat="45.93538" lon="4.77365">
        <ele>170</ele>
        <time>2016-09-08T11:13:28Z</time>
      </trkpt>
      <trkpt lat="45.93536" lon="4.77356">
        <ele>170</ele>
        <time>2016-09-08T11:13:29Z</time>
      </trkpt>
      <trkpt lat="45.93535" lon="4.77347">
        <ele>170</ele>
        <time>2016-09-08T11:13:30Z</time>
      </trkpt>
      <trkpt lat="45.93533" lon="4.77338">
        <ele>170</ele>
        <time>2016-09-08T11:13:31Z</time>
      </trkpt>
      <trkpt lat="45.93531" lon="4.7733">
        <ele>170</ele>
        <time>2016-09-08T11:13:32Z</time>
      </trkpt>
      <trkpt lat="45.93529" lon="4.77322">
        <ele>170</ele>
        <time>2016-09-08T11:13:33Z</time>
      </trkpt>
      <trkpt lat="45.93528" lon="4.77314">
        <ele>170</ele>
        <time>2016-09-08T11:13:34Z</time>
      </trkpt>
      <trkpt lat="45.93527" lon="4.77307">
        <ele>170</ele>
        <time>2016-09-08T11:13:35Z</time>
      </trkpt>
      <trkpt lat="45.93525" lon="4.77299">
        <ele>170</ele>
        <time>2016-09-08T11:13:36Z</time>
      </trkpt>
      <trkpt lat="45.93524" lon="4.77291">
        <ele>170</ele>
        <time>2016-09-08T11:13:37Z</time>
      </trkpt>
      <trkpt lat="45.93522" lon="4.77283">
        <ele>170</ele>
        <time>2016-09-08T11:13:38Z</time>
      </trkpt>
      <trkpt lat="45.93521" lon="4.77275">
        <ele>170</ele>
        <time>2016-09-08T11:13:39Z</time>
      </trkpt>
      <trkpt lat="45.93519" lon="4.77268">
        <ele>170</ele>
        <time>2016-09-08T11:13:40Z</time>
      </trkpt>
      <trkpt lat="45.93517" lon="4.7726">
        <ele>170</ele>
        <time>2016-09-08T11:13:41Z</time>
      </trkpt>
      <trkpt lat="45.93516" lon="4.77252">
        <ele>170</ele>
        <time>2016-09-08T11:13:42Z</time>
      </trkpt>
      <trkpt lat="45.93514" lon="4.77245">
        <ele>169</ele>
        <time>2016-09-08T11:13:43Z</time>
      </trkpt>
      <trkpt lat="45.93513" lon="4.77238">
        <ele>169</ele>
        <time>2016-09-08T11:13:44Z</time>
      </trkpt>
      <trkpt lat="45.93511" lon="4.7723">
        <ele>169</ele>
        <time>2016-09-08T11:13:45Z</time>
      </trkpt>
      <trkpt lat="45.93509" lon="4.77222">
        <ele>169</ele>
        <time>2016-09-08T11:13:46Z</time>
      </trkpt>
      <trkpt lat="45.93507" lon="4.77214">
        <ele>169</ele>
        <time>2016-09-08T11:13:47Z</time>
      </trkpt>
      <trkpt lat="45.93505" lon="4.77206">
        <ele>169</ele>
        <time>2016-09-08T11:13:48Z</time>
      </trkpt>
      <trkpt lat="45.93503" lon="4.77197">
        <ele>169</ele>
        <time>2016-09-08T11:13:49Z</time>
      </trkpt>
      <trkpt lat="45.93502" lon="4.77189">
        <ele>169</ele>
        <time>2016-09-08T11:13:50Z</time>
      </trkpt>
      <trkpt lat="45.935" lon="4.77182">
        <ele>169</ele>
        <time>2016-09-08T11:13:51Z</time>
      </trkpt>
      <trkpt lat="45.93498" lon="4.77174">
        <ele>169</ele>
        <time>2016-09-08T11:13:52Z</time>
      </trkpt>
      <trkpt lat="45.93497" lon="4.77167">
        <ele>169</ele>
        <time>2016-09-08T11:13:53Z</time>
      </trkpt>
      <trkpt lat="45.93496" lon="4.7716">
        <ele>169</ele>
        <time>2016-09-08T11:13:54Z</time>
      </trkpt>
      <trkpt lat="45.93494" lon="4.77153">
        <ele>169</ele>
        <time>2016-09-08T11:13:55Z</time>
      </trkpt>
      <trkpt lat="45.93493" lon="4.77145">
        <ele>169</ele>
        <time>2016-09-08T11:13:56Z</time>
      </trkpt>
      <trkpt lat="45.93491" lon="4.77138">
        <ele>169</ele>
        <time>2016-09-08T11:13:57Z</time>
      </trkpt>
      <trkpt lat="45.9349" lon="4.7713">
        <ele>169</ele>
        <time>2016-09-08T11:13:58Z</time>
      </trkpt>
      <trkpt lat="45.93488" lon="4.77122">
        <ele>169</ele>
        <time>2016-09-08T11:13:59Z</time>
      </trkpt>
      <trkpt lat="45.93487" lon="4.77114">
        <ele>169</ele>
        <time>2016-09-08T11:14:00Z</time>
      </trkpt>
      <trkpt lat="45.93485" lon="4.77106">
        <ele>169</ele>
        <time>2016-09-08T11:14:01Z</time>
      </trkpt>
      <trkpt lat="45.93483" lon="4.77098">
        <ele>169</ele>
        <time>2016-09-08T11:14:02Z</time>
      </trkpt>
      <trkpt lat="45.93481" lon="4.7709">
        <ele>169</ele>
        <time>2016-09-08T11:14:03Z</time>
      </trkpt>
      <trkpt lat="45.9348" lon="4.77082">
        <ele>170</ele>
        <time>2016-09-08T11:14:04Z</time>
      </trkpt>
      <trkpt lat="45.93478" lon="4.77075">
        <ele>170</ele>
        <time>2016-09-08T11:14:05Z</time>
      </trkpt>
      <trkpt lat="45.93477" lon="4.77068">
        <ele>170</ele>
        <time>2016-09-08T11:14:06Z</time>
      </trkpt>
      <trkpt lat="45.93475" lon="4.77061">
        <ele>170</ele>
        <time>2016-09-08T11:14:07Z</time>
      </trkpt>
      <trkpt lat="45.93474" lon="4.77054">
        <ele>170</ele>
        <time>2016-09-08T11:14:08Z</time>
      </trkpt>
      <trkpt lat="45.93472" lon="4.77047">
        <ele>170</ele>
        <time>2016-09-08T11:14:09Z</time>
      </trkpt>
      <trkpt lat="45.93471" lon="4.77039">
        <ele>170</ele>
        <time>2016-09-08T11:14:10Z</time>
      </trkpt>
      <trkpt lat="45.9347" lon="4.77032">
        <ele>170</ele>
        <time>2016-09-08T11:14:11Z</time>
      </trkpt>
      <trkpt lat="45.93469" lon="4.77024">
        <ele>170</ele>
        <time>2016-09-08T11:14:12Z</time>
      </trkpt>
      <trkpt lat="45.93468" lon="4.77017">
        <ele>170</ele>
        <time>2016-09-08T11:14:13Z</time>
      </trkpt>
      <trkpt lat="45.93467" lon="4.77009">
        <ele>170</ele>
        <time>2016-09-08T11:14:14Z</time>
      </trkpt>
      <trkpt lat="45.93466" lon="4.77001">
        <ele>170</ele>
        <time>2016-09-08T11:14:15Z</time>
      </trkpt>
      <trkpt lat="45.93465" lon="4.76993">
        <ele>170</ele>
        <time>2016-09-08T11:14:16Z</time>
      </trkpt>
      <trkpt lat="45.93464" lon="4.76985">
        <ele>170</ele>
        <time>2016-09-08T11:14:17Z</time>
      </trkpt>
      <trkpt lat="45.93462" lon="4.76978">
        <ele>170</ele>
        <time>2016-09-08T11:14:18Z</time>
      </trkpt>
      <trkpt lat="45.93461" lon="4.7697">
        <ele>170</ele>
        <time>2016-09-08T11:14:19Z</time>
      </trkpt>
      <trkpt lat="45.93461" lon="4.76963">
        <ele>170</ele>
        <time>2016-09-08T11:14:20Z</time>
      </trkpt>
      <trkpt lat="45.93459" lon="4.76955">
        <ele>170</ele>
        <time>2016-09-08T11:14:21Z</time>
      </trkpt>
      <trkpt lat="45.93458" lon="4.76948">
        <ele>170</ele>
        <time>2016-09-08T11:14:22Z</time>
      </trkpt>
      <trkpt lat="45.93457" lon="4.76941">
        <ele>170</ele>
        <time>2016-09-08T11:14:23Z</time>
      </trkpt>
      <trkpt lat="45.93456" lon="4.76933">
        <ele>170</ele>
        <time>2016-09-08T11:14:24Z</time>
      </trkpt>
      <trkpt lat="45.93455" lon="4.76925">
        <ele>170</ele>
        <time>2016-09-08T11:14:25Z</time>
      </trkpt>
      <trkpt lat="45.93453" lon="4.76917">
        <ele>170</ele>
        <time>2016-09-08T11:14:26Z</time>
      </trkpt>
      <trkpt lat="45.93451" lon="4.76909">
        <ele>170</ele>
        <time>2016-09-08T11:14:27Z</time>
      </trkpt>
      <trkpt lat="45.93449" lon="4.76902">
        <ele>170</ele>
        <time>2016-09-08T11:14:28Z</time>
      </trkpt>
      <trkpt lat="45.93447" lon="4.76894">
        <ele>170</ele>
        <time>2016-09-08T11:14:29Z</time>
      </trkpt>
      <trkpt lat="45.93445" lon="4.76887">
        <ele>170</ele>
        <time>2016-09-08T11:14:30Z</time>
      </trkpt>
      <trkpt lat="45.93442" lon="4.7688">
        <ele>170</ele>
        <time>2016-09-08T11:14:31Z</time>
      </trkpt>
      <trkpt lat="45.9344" lon="4.76872">
        <ele>171</ele>
        <time>2016-09-08T11:14:32Z</time>
      </trkpt>
      <trkpt lat="45.93437" lon="4.76866">
        <ele>171</ele>
        <time>2016-09-08T11:14:33Z</time>
      </trkpt>
      <trkpt lat="45.93434" lon="4.76859">
        <ele>171</ele>
        <time>2016-09-08T11:14:34Z</time>
      </trkpt>
      <trkpt lat="45.93431" lon="4.76852">
        <ele>171</ele>
        <time>2016-09-08T11:14:35Z</time>
      </trkpt>
      <trkpt lat="45.93428" lon="4.76846">
        <ele>171</ele>
        <time>2016-09-08T11:14:36Z</time>
      </trkpt>
      <trkpt lat="45.93425" lon="4.76839">
        <ele>171</ele>
        <time>2016-09-08T11:14:37Z</time>
      </trkpt>
      <trkpt lat="45.93421" lon="4.76833">
        <ele>172</ele>
        <time>2016-09-08T11:14:38Z</time>
      </trkpt>
      <trkpt lat="45.93417" lon="4.76827">
        <ele>172</ele>
        <time>2016-09-08T11:14:39Z</time>
      </trkpt>
      <trkpt lat="45.93413" lon="4.7682">
        <ele>172</ele>
        <time>2016-09-08T11:14:40Z</time>
      </trkpt>
      <trkpt lat="45.93409" lon="4.76814">
        <ele>172</ele>
        <time>2016-09-08T11:14:41Z</time>
      </trkpt>
      <trkpt lat="45.93405" lon="4.76808">
        <ele>172</ele>
        <time>2016-09-08T11:14:42Z</time>
      </trkpt>
      <trkpt lat="45.93401" lon="4.76803">
        <ele>172</ele>
        <time>2016-09-08T11:14:43Z</time>
      </trkpt>
      <trkpt lat="45.93396" lon="4.76797">
        <ele>172</ele>
        <time>2016-09-08T11:14:44Z</time>
      </trkpt>
      <trkpt lat="45.93391" lon="4.76792">
        <ele>172</ele>
        <time>2016-09-08T11:14:45Z</time>
      </trkpt>
      <trkpt lat="45.93387" lon="4.76787">
        <ele>172</ele>
        <time>2016-09-08T11:14:46Z</time>
      </trkpt>
      <trkpt lat="45.93382" lon="4.76782">
        <ele>172</ele>
        <time>2016-09-08T11:14:47Z</time>
      </trkpt>
      <trkpt lat="45.93377" lon="4.76777">
        <ele>172</ele>
        <time>2016-09-08T11:14:48Z</time>
      </trkpt>
      <trkpt lat="45.93372" lon="4.76773">
        <ele>172</ele>
        <time>2016-09-08T11:14:49Z</time>
      </trkpt>
      <trkpt lat="45.93368" lon="4.76768">
        <ele>172</ele>
        <time>2016-09-08T11:14:50Z</time>
      </trkpt>
      <trkpt lat="45.93363" lon="4.76764">
        <ele>172</ele>
        <time>2016-09-08T11:14:51Z</time>
      </trkpt>
      <trkpt lat="45.93359" lon="4.7676">
        <ele>172</ele>
        <time>2016-09-08T11:14:52Z</time>
      </trkpt>
      <trkpt lat="45.93354" lon="4.76755">
        <ele>172</ele>
        <time>2016-09-08T11:14:53Z</time>
      </trkpt>
      <trkpt lat="45.9335" lon="4.76751">
        <ele>172</ele>
        <time>2016-09-08T11:14:54Z</time>
      </trkpt>
      <trkpt lat="45.93345" lon="4.76747">
        <ele>172</ele>
        <time>2016-09-08T11:14:55Z</time>
      </trkpt>
      <trkpt lat="45.9334" lon="4.76741">
        <ele>173</ele>
        <time>2016-09-08T11:14:56Z</time>
      </trkpt>
      <trkpt lat="45.93336" lon="4.76736">
        <ele>172</ele>
        <time>2016-09-08T11:14:57Z</time>
      </trkpt>
      <trkpt lat="45.9333" lon="4.76731">
        <ele>172</ele>
        <time>2016-09-08T11:14:58Z</time>
      </trkpt>
      <trkpt lat="45.93325" lon="4.76726">
        <ele>172</ele>
        <time>2016-09-08T11:14:59Z</time>
      </trkpt>
      <trkpt lat="45.9332" lon="4.76721">
        <ele>172</ele>
        <time>2016-09-08T11:15:00Z</time>
      </trkpt>
      <trkpt lat="45.93314" lon="4.76717">
        <ele>172</ele>
        <time>2016-09-08T11:15:01Z</time>
      </trkpt>
      <trkpt lat="45.9331" lon="4.76712">
        <ele>172</ele>
        <time>2016-09-08T11:15:02Z</time>
      </trkpt>
      <trkpt lat="45.93305" lon="4.76706">
        <ele>172</ele>
        <time>2016-09-08T11:15:03Z</time>
      </trkpt>
      <trkpt lat="45.933" lon="4.76701">
        <ele>172</ele>
        <time>2016-09-08T11:15:04Z</time>
      </trkpt>
      <trkpt lat="45.93296" lon="4.76697">
        <ele>172</ele>
        <time>2016-09-08T11:15:05Z</time>
      </trkpt>
      <trkpt lat="45.93291" lon="4.76692">
        <ele>172</ele>
        <time>2016-09-08T11:15:06Z</time>
      </trkpt>
      <trkpt lat="45.93287" lon="4.76688">
        <ele>172</ele>
        <time>2016-09-08T11:15:07Z</time>
      </trkpt>
      <trkpt lat="45.93282" lon="4.76684">
        <ele>172</ele>
        <time>2016-09-08T11:15:08Z</time>
      </trkpt>
      <trkpt lat="45.93278" lon="4.76679">
        <ele>172</ele>
        <time>2016-09-08T11:15:09Z</time>
      </trkpt>
      <trkpt lat="45.93274" lon="4.76675">
        <ele>172</ele>
        <time>2016-09-08T11:15:10Z</time>
      </trkpt>
      <trkpt lat="45.93269" lon="4.7667">
        <ele>172</ele>
        <time>2016-09-08T11:15:11Z</time>
      </trkpt>
      <trkpt lat="45.93265" lon="4.76666">
        <ele>171</ele>
        <time>2016-09-08T11:15:12Z</time>
      </trkpt>
      <trkpt lat="45.9326" lon="4.76662">
        <ele>171</ele>
        <time>2016-09-08T11:15:13Z</time>
      </trkpt>
      <trkpt lat="45.93256" lon="4.76658">
        <ele>171</ele>
        <time>2016-09-08T11:15:14Z</time>
      </trkpt>
      <trkpt lat="45.93252" lon="4.76653">
        <ele>171</ele>
        <time>2016-09-08T11:15:15Z</time>
      </trkpt>
      <trkpt lat="45.93247" lon="4.76648">
        <ele>171</ele>
        <time>2016-09-08T11:15:16Z</time>
      </trkpt>
      <trkpt lat="45.93243" lon="4.76643">
        <ele>171</ele>
        <time>2016-09-08T11:15:17Z</time>
      </trkpt>
      <trkpt lat="45.93238" lon="4.76638">
        <ele>171</ele>
        <time>2016-09-08T11:15:18Z</time>
      </trkpt>
      <trkpt lat="45.93234" lon="4.76633">
        <ele>170</ele>
        <time>2016-09-08T11:15:19Z</time>
      </trkpt>
      <trkpt lat="45.93229" lon="4.76629">
        <ele>170</ele>
        <time>2016-09-08T11:15:20Z</time>
      </trkpt>
      <trkpt lat="45.93225" lon="4.76624">
        <ele>170</ele>
        <time>2016-09-08T11:15:21Z</time>
      </trkpt>
      <trkpt lat="45.93221" lon="4.76621">
        <ele>170</ele>
        <time>2016-09-08T11:15:22Z</time>
      </trkpt>
      <trkpt lat="45.93217" lon="4.76617">
        <ele>170</ele>
        <time>2016-09-08T11:15:23Z</time>
      </trkpt>
      <trkpt lat="45.93214" lon="4.76613">
        <ele>170</ele>
        <time>2016-09-08T11:15:24Z</time>
      </trkpt>
      <trkpt lat="45.93209" lon="4.76608">
        <ele>170</ele>
        <time>2016-09-08T11:15:25Z</time>
      </trkpt>
      <trkpt lat="45.93205" lon="4.76604">
        <ele>170</ele>
        <time>2016-09-08T11:15:26Z</time>
      </trkpt>
      <trkpt lat="45.932" lon="4.76599">
        <ele>170</ele>
        <time>2016-09-08T11:15:27Z</time>
      </trkpt>
      <trkpt lat="45.93196" lon="4.76594">
        <ele>170</ele>
        <time>2016-09-08T11:15:28Z</time>
      </trkpt>
      <trkpt lat="45.93191" lon="4.76589">
        <ele>170</ele>
        <time>2016-09-08T11:15:29Z</time>
      </trkpt>
      <trkpt lat="45.93186" lon="4.76585">
        <ele>171</ele>
        <time>2016-09-08T11:15:30Z</time>
      </trkpt>
      <trkpt lat="45.9318" lon="4.76579">
        <ele>170</ele>
        <time>2016-09-08T11:15:31Z</time>
      </trkpt>
      <trkpt lat="45.93176" lon="4.76574">
        <ele>170</ele>
        <time>2016-09-08T11:15:32Z</time>
      </trkpt>
      <trkpt lat="45.93171" lon="4.7657">
        <ele>170</ele>
        <time>2016-09-08T11:15:33Z</time>
      </trkpt>
      <trkpt lat="45.93166" lon="4.76565">
        <ele>170</ele>
        <time>2016-09-08T11:15:34Z</time>
      </trkpt>
      <trkpt lat="45.93161" lon="4.76559">
        <ele>170</ele>
        <time>2016-09-08T11:15:35Z</time>
      </trkpt>
      <trkpt lat="45.93156" lon="4.76555">
        <ele>170</ele>
        <time>2016-09-08T11:15:36Z</time>
      </trkpt>
      <trkpt lat="45.93152" lon="4.7655">
        <ele>170</ele>
        <time>2016-09-08T11:15:37Z</time>
      </trkpt>
      <trkpt lat="45.93147" lon="4.76545">
        <ele>170</ele>
        <time>2016-09-08T11:15:38Z</time>
      </trkpt>
      <trkpt lat="45.93142" lon="4.76541">
        <ele>170</ele>
        <time>2016-09-08T11:15:39Z</time>
      </trkpt>
      <trkpt lat="45.93137" lon="4.76537">
        <ele>170</ele>
        <time>2016-09-08T11:15:40Z</time>
      </trkpt>
      <trkpt lat="45.93133" lon="4.76532">
        <ele>170</ele>
        <time>2016-09-08T11:15:41Z</time>
      </trkpt>
      <trkpt lat="45.93128" lon="4.76527">
        <ele>170</ele>
        <time>2016-09-08T11:15:42Z</time>
      </trkpt>
      <trkpt lat="45.93123" lon="4.76523">
        <ele>170</ele>
        <time>2016-09-08T11:15:43Z</time>
      </trkpt>
      <trkpt lat="45.93118" lon="4.76518">
        <ele>170</ele>
        <time>2016-09-08T11:15:44Z</time>
      </trkpt>
      <trkpt lat="45.93113" lon="4.76513">
        <ele>170</ele>
        <time>2016-09-08T11:15:45Z</time>
      </trkpt>
      <trkpt lat="45.93108" lon="4.76509">
        <ele>170</ele>
        <time>2016-09-08T11:15:46Z</time>
      </trkpt>
      <trkpt lat="45.93103" lon="4.76504">
        <ele>170</ele>
        <time>2016-09-08T11:15:47Z</time>
      </trkpt>
      <trkpt lat="45.93098" lon="4.76498">
        <ele>170</ele>
        <time>2016-09-08T11:15:48Z</time>
      </trkpt>
      <trkpt lat="45.93093" lon="4.76493">
        <ele>170</ele>
        <time>2016-09-08T11:15:49Z</time>
      </trkpt>
      <trkpt lat="45.93087" lon="4.76487">
        <ele>170</ele>
        <time>2016-09-08T11:15:50Z</time>
      </trkpt>
      <trkpt lat="45.93082" lon="4.76482">
        <ele>169</ele>
        <time>2016-09-08T11:15:51Z</time>
      </trkpt>
      <trkpt lat="45.93077" lon="4.76477">
        <ele>169</ele>
        <time>2016-09-08T11:15:52Z</time>
      </trkpt>
      <trkpt lat="45.93071" lon="4.76472">
        <ele>169</ele>
        <time>2016-09-08T11:15:53Z</time>
      </trkpt>
      <trkpt lat="45.93066" lon="4.76467">
        <ele>169</ele>
        <time>2016-09-08T11:15:54Z</time>
      </trkpt>
      <trkpt lat="45.93061" lon="4.76462">
        <ele>169</ele>
        <time>2016-09-08T11:15:55Z</time>
      </trkpt>
      <trkpt lat="45.93056" lon="4.76456">
        <ele>169</ele>
        <time>2016-09-08T11:15:56Z</time>
      </trkpt>
      <trkpt lat="45.9305" lon="4.7645">
        <ele>169</ele>
        <time>2016-09-08T11:15:57Z</time>
      </trkpt>
      <trkpt lat="45.93044" lon="4.76444">
        <ele>169</ele>
        <time>2016-09-08T11:15:58Z</time>
      </trkpt>
      <trkpt lat="45.93039" lon="4.76439">
        <ele>169</ele>
        <time>2016-09-08T11:15:59Z</time>
      </trkpt>
      <trkpt lat="45.93034" lon="4.76433">
        <ele>169</ele>
        <time>2016-09-08T11:16:00Z</time>
      </trkpt>
      <trkpt lat="45.93028" lon="4.76427">
        <ele>169</ele>
        <time>2016-09-08T11:16:01Z</time>
      </trkpt>
      <trkpt lat="45.93023" lon="4.76421">
        <ele>169</ele>
        <time>2016-09-08T11:16:02Z</time>
      </trkpt>
      <trkpt lat="45.93018" lon="4.76416">
        <ele>169</ele>
        <time>2016-09-08T11:16:03Z</time>
      </trkpt>
      <trkpt lat="45.93012" lon="4.7641">
        <ele>169</ele>
        <time>2016-09-08T11:16:04Z</time>
      </trkpt>
      <trkpt lat="45.93006" lon="4.76404">
        <ele>169</ele>
        <time>2016-09-08T11:16:05Z</time>
      </trkpt>
      <trkpt lat="45.93001" lon="4.76399">
        <ele>169</ele>
        <time>2016-09-08T11:16:06Z</time>
      </trkpt>
      <trkpt lat="45.92995" lon="4.76394">
        <ele>169</ele>
        <time>2016-09-08T11:16:07Z</time>
      </trkpt>
      <trkpt lat="45.9299" lon="4.76388">
        <ele>169</ele>
        <time>2016-09-08T11:16:08Z</time>
      </trkpt>
      <trkpt lat="45.92985" lon="4.76383">
        <ele>169</ele>
        <time>2016-09-08T11:16:09Z</time>
      </trkpt>
      <trkpt lat="45.9298" lon="4.76378">
        <ele>169</ele>
        <time>2016-09-08T11:16:10Z</time>
      </trkpt>
      <trkpt lat="45.92975" lon="4.76373">
        <ele>169</ele>
        <time>2016-09-08T11:16:11Z</time>
      </trkpt>
      <trkpt lat="45.9297" lon="4.76367">
        <ele>169</ele>
        <time>2016-09-08T11:16:12Z</time>
      </trkpt>
      <trkpt lat="45.92965" lon="4.76362">
        <ele>169</ele>
        <time>2016-09-08T11:16:13Z</time>
      </trkpt>
      <trkpt lat="45.92959" lon="4.76357">
        <ele>169</ele>
        <time>2016-09-08T11:16:14Z</time>
      </trkpt>
      <trkpt lat="45.92954" lon="4.76351">
        <ele>169</ele>
        <time>2016-09-08T11:16:15Z</time>
      </trkpt>
      <trkpt lat="45.92949" lon="4.76345">
        <ele>169</ele>
        <time>2016-09-08T11:16:16Z</time>
      </trkpt>
      <trkpt lat="45.92943" lon="4.7634">
        <ele>169</ele>
        <time>2016-09-08T11:16:17Z</time>
      </trkpt>
      <trkpt lat="45.92937" lon="4.76334">
        <ele>169</ele>
        <time>2016-09-08T11:16:18Z</time>
      </trkpt>
      <trkpt lat="45.92931" lon="4.76329">
        <ele>169</ele>
        <time>2016-09-08T11:16:19Z</time>
      </trkpt>
      <trkpt lat="45.92926" lon="4.76324">
        <ele>169</ele>
        <time>2016-09-08T11:16:20Z</time>
      </trkpt>
      <trkpt lat="45.9292" lon="4.76319">
        <ele>169</ele>
        <time>2016-09-08T11:16:21Z</time>
      </trkpt>
      <trkpt lat="45.92915" lon="4.76313">
        <ele>169</ele>
        <time>2016-09-08T11:16:22Z</time>
      </trkpt>
      <trkpt lat="45.9291" lon="4.76308">
        <ele>169</ele>
        <time>2016-09-08T11:16:23Z</time>
      </trkpt>
      <trkpt lat="45.92905" lon="4.76302">
        <ele>169</ele>
        <time>2016-09-08T11:16:24Z</time>
      </trkpt>
      <trkpt lat="45.92899" lon="4.76297">
        <ele>169</ele>
        <time>2016-09-08T11:16:25Z</time>
      </trkpt>
      <trkpt lat="45.92895" lon="4.76292">
        <ele>169</ele>
        <time>2016-09-08T11:16:26Z</time>
      </trkpt>
      <trkpt lat="45.9289" lon="4.76288">
        <ele>169</ele>
        <time>2016-09-08T11:16:27Z</time>
      </trkpt>
      <trkpt lat="45.92884" lon="4.76283">
        <ele>169</ele>
        <time>2016-09-08T11:16:28Z</time>
      </trkpt>
      <trkpt lat="45.92879" lon="4.76278">
        <ele>169</ele>
        <time>2016-09-08T11:16:29Z</time>
      </trkpt>
      <trkpt lat="45.92875" lon="4.76273">
        <ele>169</ele>
        <time>2016-09-08T11:16:30Z</time>
      </trkpt>
      <trkpt lat="45.9287" lon="4.76268">
        <ele>169</ele>
        <time>2016-09-08T11:16:31Z</time>
      </trkpt>
      <trkpt lat="45.92865" lon="4.76263">
        <ele>169</ele>
        <time>2016-09-08T11:16:32Z</time>
      </trkpt>
      <trkpt lat="45.9286" lon="4.76258">
        <ele>169</ele>
        <time>2016-09-08T11:16:33Z</time>
      </trkpt>
      <trkpt lat="45.92855" lon="4.76253">
        <ele>169</ele>
        <time>2016-09-08T11:16:34Z</time>
      </trkpt>
      <trkpt lat="45.9285" lon="4.76248">
        <ele>169</ele>
        <time>2016-09-08T11:16:35Z</time>
      </trkpt>
      <trkpt lat="45.92843" lon="4.76241">
        <ele>169</ele>
        <time>2016-09-08T11:16:37Z</time>
      </trkpt>
      <trkpt lat="45.92841" lon="4.76239">
        <ele>169</ele>
        <time>2016-09-08T11:16:38Z</time>
      </trkpt>
      <trkpt lat="45.92841" lon="4.76239">
        <ele>169</ele>
        <time>2016-09-08T11:16:39Z</time>
      </trkpt>
      <trkpt lat="45.9284" lon="4.76241">
        <ele>169</ele>
        <time>2016-09-08T11:16:48Z</time>
      </trkpt>
      <trkpt lat="45.92841" lon="4.76241">
        <ele>169</ele>
        <time>2016-09-08T11:16:49Z</time>
      </trkpt>
      <trkpt lat="45.92847" lon="4.76247">
        <ele>169</ele>
        <time>2016-09-08T11:16:57Z</time>
      </trkpt>
      <trkpt lat="45.92848" lon="4.76249">
        <ele>169</ele>
        <time>2016-09-08T11:16:58Z</time>
      </trkpt>
      <trkpt lat="45.92842" lon="4.7624">
        <ele>169</ele>
        <time>2016-09-08T11:17:23Z</time>
      </trkpt>
      <trkpt lat="45.9284" lon="4.76238">
        <ele>169</ele>
        <time>2016-09-08T11:17:24Z</time>
      </trkpt>
      <trkpt lat="45.92834" lon="4.76233">
        <ele>169</ele>
        <time>2016-09-08T11:17:26Z</time>
      </trkpt>
      <trkpt lat="45.92831" lon="4.7623">
        <ele>168</ele>
        <time>2016-09-08T11:17:27Z</time>
      </trkpt>
      <trkpt lat="45.92824" lon="4.76224">
        <ele>168</ele>
        <time>2016-09-08T11:17:29Z</time>
      </trkpt>
      <trkpt lat="45.9282" lon="4.7622">
        <ele>168</ele>
        <time>2016-09-08T11:17:30Z</time>
      </trkpt>
      <trkpt lat="45.92816" lon="4.76215">
        <ele>168</ele>
        <time>2016-09-08T11:17:31Z</time>
      </trkpt>
      <trkpt lat="45.92811" lon="4.76211">
        <ele>168</ele>
        <time>2016-09-08T11:17:32Z</time>
      </trkpt>
      <trkpt lat="45.92806" lon="4.76206">
        <ele>168</ele>
        <time>2016-09-08T11:17:33Z</time>
      </trkpt>
      <trkpt lat="45.92802" lon="4.76201">
        <ele>168</ele>
        <time>2016-09-08T11:17:34Z</time>
      </trkpt>
      <trkpt lat="45.92797" lon="4.76196">
        <ele>168</ele>
        <time>2016-09-08T11:17:35Z</time>
      </trkpt>
      <trkpt lat="45.92792" lon="4.76192">
        <ele>168</ele>
        <time>2016-09-08T11:17:36Z</time>
      </trkpt>
      <trkpt lat="45.92787" lon="4.76187">
        <ele>168</ele>
        <time>2016-09-08T11:17:37Z</time>
      </trkpt>
      <trkpt lat="45.92782" lon="4.76183">
        <ele>168</ele>
        <time>2016-09-08T11:17:38Z</time>
      </trkpt>
      <trkpt lat="45.92777" lon="4.76179">
        <ele>167</ele>
        <time>2016-09-08T11:17:39Z</time>
      </trkpt>
      <trkpt lat="45.92773" lon="4.76175">
        <ele>167</ele>
        <time>2016-09-08T11:17:40Z</time>
      </trkpt>
      <trkpt lat="45.92768" lon="4.76171">
        <ele>167</ele>
        <time>2016-09-08T11:17:41Z</time>
      </trkpt>
      <trkpt lat="45.92763" lon="4.76167">
        <ele>167</ele>
        <time>2016-09-08T11:17:42Z</time>
      </trkpt>
      <trkpt lat="45.92758" lon="4.76163">
        <ele>167</ele>
        <time>2016-09-08T11:17:43Z</time>
      </trkpt>
      <trkpt lat="45.92753" lon="4.76159">
        <ele>167</ele>
        <time>2016-09-08T11:17:44Z</time>
      </trkpt>
      <trkpt lat="45.92748" lon="4.76155">
        <ele>168</ele>
        <time>2016-09-08T11:17:45Z</time>
      </trkpt>
      <trkpt lat="45.92743" lon="4.7615">
        <ele>168</ele>
        <time>2016-09-08T11:17:46Z</time>
      </trkpt>
      <trkpt lat="45.92737" lon="4.76146">
        <ele>168</ele>
        <time>2016-09-08T11:17:47Z</time>
      </trkpt>
      <trkpt lat="45.92732" lon="4.76142">
        <ele>168</ele>
        <time>2016-09-08T11:17:48Z</time>
      </trkpt>
      <trkpt lat="45.92726" lon="4.76138">
        <ele>168</ele>
        <time>2016-09-08T11:17:49Z</time>
      </trkpt>
      <trkpt lat="45.92721" lon="4.76134">
        <ele>168</ele>
        <time>2016-09-08T11:17:50Z</time>
      </trkpt>
      <trkpt lat="45.92716" lon="4.76131">
        <ele>168</ele>
        <time>2016-09-08T11:17:51Z</time>
      </trkpt>
      <trkpt lat="45.92711" lon="4.76128">
        <ele>168</ele>
        <time>2016-09-08T11:17:52Z</time>
      </trkpt>
      <trkpt lat="45.92706" lon="4.76124">
        <ele>169</ele>
        <time>2016-09-08T11:17:53Z</time>
      </trkpt>
      <trkpt lat="45.92701" lon="4.76121">
        <ele>169</ele>
        <time>2016-09-08T11:17:54Z</time>
      </trkpt>
      <trkpt lat="45.92696" lon="4.76118">
        <ele>169</ele>
        <time>2016-09-08T11:17:55Z</time>
      </trkpt>
      <trkpt lat="45.92691" lon="4.76114">
        <ele>169</ele>
        <time>2016-09-08T11:17:56Z</time>
      </trkpt>
      <trkpt lat="45.92686" lon="4.76111">
        <ele>169</ele>
        <time>2016-09-08T11:17:57Z</time>
      </trkpt>
      <trkpt lat="45.92681" lon="4.76107">
        <ele>169</ele>
        <time>2016-09-08T11:17:58Z</time>
      </trkpt>
      <trkpt lat="45.92675" lon="4.76104">
        <ele>169</ele>
        <time>2016-09-08T11:17:59Z</time>
      </trkpt>
      <trkpt lat="45.92671" lon="4.76099">
        <ele>169</ele>
        <time>2016-09-08T11:18:00Z</time>
      </trkpt>
      <trkpt lat="45.92666" lon="4.76095">
        <ele>170</ele>
        <time>2016-09-08T11:18:01Z</time>
      </trkpt>
      <trkpt lat="45.92662" lon="4.76091">
        <ele>170</ele>
        <time>2016-09-08T11:18:02Z</time>
      </trkpt>
      <trkpt lat="45.92657" lon="4.76087">
        <ele>170</ele>
        <time>2016-09-08T11:18:03Z</time>
      </trkpt>
      <trkpt lat="45.92652" lon="4.76083">
        <ele>170</ele>
        <time>2016-09-08T11:18:04Z</time>
      </trkpt>
      <trkpt lat="45.92648" lon="4.7608">
        <ele>170</ele>
        <time>2016-09-08T11:18:05Z</time>
      </trkpt>
      <trkpt lat="45.92643" lon="4.76077">
        <ele>170</ele>
        <time>2016-09-08T11:18:06Z</time>
      </trkpt>
      <trkpt lat="45.92639" lon="4.76073">
        <ele>170</ele>
        <time>2016-09-08T11:18:07Z</time>
      </trkpt>
      <trkpt lat="45.92635" lon="4.7607">
        <ele>170</ele>
        <time>2016-09-08T11:18:08Z</time>
      </trkpt>
      <trkpt lat="45.9263" lon="4.76066">
        <ele>170</ele>
        <time>2016-09-08T11:18:09Z</time>
      </trkpt>
      <trkpt lat="45.92625" lon="4.76063">
        <ele>170</ele>
        <time>2016-09-08T11:18:10Z</time>
      </trkpt>
      <trkpt lat="45.92621" lon="4.7606">
        <ele>171</ele>
        <time>2016-09-08T11:18:11Z</time>
      </trkpt>
      <trkpt lat="45.92616" lon="4.76056">
        <ele>171</ele>
        <time>2016-09-08T11:18:12Z</time>
      </trkpt>
      <trkpt lat="45.92611" lon="4.76052">
        <ele>171</ele>
        <time>2016-09-08T11:18:13Z</time>
      </trkpt>
      <trkpt lat="45.92606" lon="4.76049">
        <ele>171</ele>
        <time>2016-09-08T11:18:14Z</time>
      </trkpt>
      <trkpt lat="45.92601" lon="4.76045">
        <ele>171</ele>
        <time>2016-09-08T11:18:15Z</time>
      </trkpt>
      <trkpt lat="45.92596" lon="4.76042">
        <ele>171</ele>
        <time>2016-09-08T11:18:16Z</time>
      </trkpt>
      <trkpt lat="45.92591" lon="4.76038">
        <ele>171</ele>
        <time>2016-09-08T11:18:17Z</time>
      </trkpt>
      <trkpt lat="45.92586" lon="4.76035">
        <ele>171</ele>
        <time>2016-09-08T11:18:18Z</time>
      </trkpt>
      <trkpt lat="45.92582" lon="4.76031">
        <ele>172</ele>
        <time>2016-09-08T11:18:19Z</time>
      </trkpt>
      <trkpt lat="45.92577" lon="4.76028">
        <ele>172</ele>
        <time>2016-09-08T11:18:20Z</time>
      </trkpt>
      <trkpt lat="45.92573" lon="4.76025">
        <ele>172</ele>
        <time>2016-09-08T11:18:21Z</time>
      </trkpt>
      <trkpt lat="45.92569" lon="4.76022">
        <ele>172</ele>
        <time>2016-09-08T11:18:22Z</time>
      </trkpt>
      <trkpt lat="45.92565" lon="4.76019">
        <ele>172</ele>
        <time>2016-09-08T11:18:23Z</time>
      </trkpt>
      <trkpt lat="45.92561" lon="4.76017">
        <ele>172</ele>
        <time>2016-09-08T11:18:24Z</time>
      </trkpt>
      <trkpt lat="45.92553" lon="4.76011">
        <ele>172</ele>
        <time>2016-09-08T11:18:26Z</time>
      </trkpt>
      <trkpt lat="45.92549" lon="4.76008">
        <ele>172</ele>
        <time>2016-09-08T11:18:27Z</time>
      </trkpt>
      <trkpt lat="45.92541" lon="4.76003">
        <ele>172</ele>
        <time>2016-09-08T11:18:29Z</time>
      </trkpt>
      <trkpt lat="45.92538" lon="4.76">
        <ele>172</ele>
        <time>2016-09-08T11:18:30Z</time>
      </trkpt>
      <trkpt lat="45.9253" lon="4.75994">
        <ele>172</ele>
        <time>2016-09-08T11:18:32Z</time>
      </trkpt>
      <trkpt lat="45.92526" lon="4.75991">
        <ele>172</ele>
        <time>2016-09-08T11:18:33Z</time>
      </trkpt>
      <trkpt lat="45.92522" lon="4.75987">
        <ele>172</ele>
        <time>2016-09-08T11:18:34Z</time>
      </trkpt>
      <trkpt lat="45.92518" lon="4.75984">
        <ele>172</ele>
        <time>2016-09-08T11:18:35Z</time>
      </trkpt>
      <trkpt lat="45.92513" lon="4.75981">
        <ele>172</ele>
        <time>2016-09-08T11:18:36Z</time>
      </trkpt>
      <trkpt lat="45.92508" lon="4.75978">
        <ele>172</ele>
        <time>2016-09-08T11:18:37Z</time>
      </trkpt>
      <trkpt lat="45.92503" lon="4.75975">
        <ele>172</ele>
        <time>2016-09-08T11:18:38Z</time>
      </trkpt>
      <trkpt lat="45.92498" lon="4.75971">
        <ele>172</ele>
        <time>2016-09-08T11:18:39Z</time>
      </trkpt>
      <trkpt lat="45.92493" lon="4.75968">
        <ele>172</ele>
        <time>2016-09-08T11:18:40Z</time>
      </trkpt>
      <trkpt lat="45.92487" lon="4.75965">
        <ele>172</ele>
        <time>2016-09-08T11:18:41Z</time>
      </trkpt>
      <trkpt lat="45.92482" lon="4.75962">
        <ele>172</ele>
        <time>2016-09-08T11:18:42Z</time>
      </trkpt>
      <trkpt lat="45.92476" lon="4.75959">
        <ele>172</ele>
        <time>2016-09-08T11:18:43Z</time>
      </trkpt>
      <trkpt lat="45.92471" lon="4.75955">
        <ele>172</ele>
        <time>2016-09-08T11:18:44Z</time>
      </trkpt>
      <trkpt lat="45.92465" lon="4.75952">
        <ele>172</ele>
        <time>2016-09-08T11:18:45Z</time>
      </trkpt>
      <trkpt lat="45.92459" lon="4.75948">
        <ele>172</ele>
        <time>2016-09-08T11:18:46Z</time>
      </trkpt>
      <trkpt lat="45.92452" lon="4.75944">
        <ele>172</ele>
        <time>2016-09-08T11:18:47Z</time>
      </trkpt>
      <trkpt lat="45.92447" lon="4.7594">
        <ele>172</ele>
        <time>2016-09-08T11:18:48Z</time>
      </trkpt>
      <trkpt lat="45.9244" lon="4.75936">
        <ele>172</ele>
        <time>2016-09-08T11:18:49Z</time>
      </trkpt>
      <trkpt lat="45.92434" lon="4.75931">
        <ele>172</ele>
        <time>2016-09-08T11:18:50Z</time>
      </trkpt>
      <trkpt lat="45.92427" lon="4.75927">
        <ele>172</ele>
        <time>2016-09-08T11:18:51Z</time>
      </trkpt>
      <trkpt lat="45.92421" lon="4.75923">
        <ele>172</ele>
        <time>2016-09-08T11:18:52Z</time>
      </trkpt>
      <trkpt lat="45.92415" lon="4.75918">
        <ele>172</ele>
        <time>2016-09-08T11:18:53Z</time>
      </trkpt>
      <trkpt lat="45.92408" lon="4.75913">
        <ele>172</ele>
        <time>2016-09-08T11:18:54Z</time>
      </trkpt>
      <trkpt lat="45.92402" lon="4.75908">
        <ele>172</ele>
        <time>2016-09-08T11:18:55Z</time>
      </trkpt>
      <trkpt lat="45.92396" lon="4.75904">
        <ele>173</ele>
        <time>2016-09-08T11:18:56Z</time>
      </trkpt>
      <trkpt lat="45.92389" lon="4.75899">
        <ele>173</ele>
        <time>2016-09-08T11:18:57Z</time>
      </trkpt>
      <trkpt lat="45.92383" lon="4.75895">
        <ele>173</ele>
        <time>2016-09-08T11:18:58Z</time>
      </trkpt>
      <trkpt lat="45.92377" lon="4.75891">
        <ele>173</ele>
        <time>2016-09-08T11:18:59Z</time>
      </trkpt>
      <trkpt lat="45.9237" lon="4.75887">
        <ele>173</ele>
        <time>2016-09-08T11:19:00Z</time>
      </trkpt>
      <trkpt lat="45.92365" lon="4.75883">
        <ele>173</ele>
        <time>2016-09-08T11:19:01Z</time>
      </trkpt>
      <trkpt lat="45.92359" lon="4.75879">
        <ele>173</ele>
        <time>2016-09-08T11:19:02Z</time>
      </trkpt>
      <trkpt lat="45.92354" lon="4.75876">
        <ele>173</ele>
        <time>2016-09-08T11:19:03Z</time>
      </trkpt>
      <trkpt lat="45.92348" lon="4.75873">
        <ele>173</ele>
        <time>2016-09-08T11:19:04Z</time>
      </trkpt>
      <trkpt lat="45.92342" lon="4.7587">
        <ele>173</ele>
        <time>2016-09-08T11:19:05Z</time>
      </trkpt>
      <trkpt lat="45.92337" lon="4.75866">
        <ele>173</ele>
        <time>2016-09-08T11:19:06Z</time>
      </trkpt>
      <trkpt lat="45.92332" lon="4.75862">
        <ele>173</ele>
        <time>2016-09-08T11:19:07Z</time>
      </trkpt>
      <trkpt lat="45.92327" lon="4.75859">
        <ele>173</ele>
        <time>2016-09-08T11:19:08Z</time>
      </trkpt>
      <trkpt lat="45.92322" lon="4.75855">
        <ele>174</ele>
        <time>2016-09-08T11:19:09Z</time>
      </trkpt>
      <trkpt lat="45.92316" lon="4.75851">
        <ele>174</ele>
        <time>2016-09-08T11:19:10Z</time>
      </trkpt>
      <trkpt lat="45.92311" lon="4.75848">
        <ele>173</ele>
        <time>2016-09-08T11:19:11Z</time>
      </trkpt>
      <trkpt lat="45.92306" lon="4.75845">
        <ele>173</ele>
        <time>2016-09-08T11:19:12Z</time>
      </trkpt>
      <trkpt lat="45.923" lon="4.75841">
        <ele>173</ele>
        <time>2016-09-08T11:19:13Z</time>
      </trkpt>
      <trkpt lat="45.92295" lon="4.75838">
        <ele>173</ele>
        <time>2016-09-08T11:19:14Z</time>
      </trkpt>
      <trkpt lat="45.92289" lon="4.75834">
        <ele>173</ele>
        <time>2016-09-08T11:19:15Z</time>
      </trkpt>
      <trkpt lat="45.92283" lon="4.7583">
        <ele>174</ele>
        <time>2016-09-08T11:19:16Z</time>
      </trkpt>
      <trkpt lat="45.92278" lon="4.75825">
        <ele>174</ele>
        <time>2016-09-08T11:19:17Z</time>
      </trkpt>
      <trkpt lat="45.92273" lon="4.7582">
        <ele>174</ele>
        <time>2016-09-08T11:19:18Z</time>
      </trkpt>
      <trkpt lat="45.92269" lon="4.75814">
        <ele>174</ele>
        <time>2016-09-08T11:19:19Z</time>
      </trkpt>
      <trkpt lat="45.92265" lon="4.75807">
        <ele>174</ele>
        <time>2016-09-08T11:19:20Z</time>
      </trkpt>
      <trkpt lat="45.92262" lon="4.758">
        <ele>174</ele>
        <time>2016-09-08T11:19:21Z</time>
      </trkpt>
      <trkpt lat="45.9226" lon="4.75793">
        <ele>174</ele>
        <time>2016-09-08T11:19:22Z</time>
      </trkpt>
      <trkpt lat="45.92258" lon="4.75786">
        <ele>174</ele>
        <time>2016-09-08T11:19:23Z</time>
      </trkpt>
      <trkpt lat="45.92257" lon="4.75778">
        <ele>174</ele>
        <time>2016-09-08T11:19:24Z</time>
      </trkpt>
      <trkpt lat="45.92255" lon="4.75771">
        <ele>174</ele>
        <time>2016-09-08T11:19:25Z</time>
      </trkpt>
      <trkpt lat="45.92254" lon="4.75762">
        <ele>174</ele>
        <time>2016-09-08T11:19:26Z</time>
      </trkpt>
      <trkpt lat="45.92253" lon="4.75753">
        <ele>174</ele>
        <time>2016-09-08T11:19:27Z</time>
      </trkpt>
      <trkpt lat="45.92252" lon="4.75745">
        <ele>174</ele>
        <time>2016-09-08T11:19:28Z</time>
      </trkpt>
      <trkpt lat="45.9225" lon="4.75736">
        <ele>174</ele>
        <time>2016-09-08T11:19:29Z</time>
      </trkpt>
      <trkpt lat="45.92248" lon="4.75727">
        <ele>174</ele>
        <time>2016-09-08T11:19:30Z</time>
      </trkpt>
      <trkpt lat="45.92245" lon="4.75719">
        <ele>174</ele>
        <time>2016-09-08T11:19:31Z</time>
      </trkpt>
      <trkpt lat="45.9224" lon="4.75712">
        <ele>174</ele>
        <time>2016-09-08T11:19:32Z</time>
      </trkpt>
      <trkpt lat="45.92235" lon="4.75704">
        <ele>174</ele>
        <time>2016-09-08T11:19:33Z</time>
      </trkpt>
      <trkpt lat="45.9223" lon="4.75698">
        <ele>174</ele>
        <time>2016-09-08T11:19:34Z</time>
      </trkpt>
      <trkpt lat="45.92225" lon="4.75692">
        <ele>174</ele>
        <time>2016-09-08T11:19:35Z</time>
      </trkpt>
      <trkpt lat="45.92221" lon="4.75687">
        <ele>174</ele>
        <time>2016-09-08T11:19:36Z</time>
      </trkpt>
      <trkpt lat="45.92215" lon="4.75682">
        <ele>174</ele>
        <time>2016-09-08T11:19:37Z</time>
      </trkpt>
      <trkpt lat="45.9221" lon="4.75677">
        <ele>174</ele>
        <time>2016-09-08T11:19:38Z</time>
      </trkpt>
      <trkpt lat="45.92205" lon="4.75672">
        <ele>174</ele>
        <time>2016-09-08T11:19:39Z</time>
      </trkpt>
      <trkpt lat="45.922" lon="4.75667">
        <ele>174</ele>
        <time>2016-09-08T11:19:40Z</time>
      </trkpt>
      <trkpt lat="45.92195" lon="4.75662">
        <ele>174</ele>
        <time>2016-09-08T11:19:41Z</time>
      </trkpt>
      <trkpt lat="45.9219" lon="4.75658">
        <ele>174</ele>
        <time>2016-09-08T11:19:42Z</time>
      </trkpt>
      <trkpt lat="45.92185" lon="4.75653">
        <ele>174</ele>
        <time>2016-09-08T11:19:43Z</time>
      </trkpt>
      <trkpt lat="45.92181" lon="4.75648">
        <ele>174</ele>
        <time>2016-09-08T11:19:44Z</time>
      </trkpt>
      <trkpt lat="45.92176" lon="4.75643">
        <ele>174</ele>
        <time>2016-09-08T11:19:45Z</time>
      </trkpt>
      <trkpt lat="45.92171" lon="4.75638">
        <ele>174</ele>
        <time>2016-09-08T11:19:46Z</time>
      </trkpt>
      <trkpt lat="45.92166" lon="4.75634">
        <ele>174</ele>
        <time>2016-09-08T11:19:47Z</time>
      </trkpt>
      <trkpt lat="45.9216" lon="4.75628">
        <ele>174</ele>
        <time>2016-09-08T11:19:48Z</time>
      </trkpt>
      <trkpt lat="45.92155" lon="4.75623">
        <ele>174</ele>
        <time>2016-09-08T11:19:49Z</time>
      </trkpt>
      <trkpt lat="45.92149" lon="4.75618">
        <ele>174</ele>
        <time>2016-09-08T11:19:50Z</time>
      </trkpt>
      <trkpt lat="45.92145" lon="4.75613">
        <ele>174</ele>
        <time>2016-09-08T11:19:51Z</time>
      </trkpt>
      <trkpt lat="45.9214" lon="4.75608">
        <ele>174</ele>
        <time>2016-09-08T11:19:52Z</time>
      </trkpt>
      <trkpt lat="45.92135" lon="4.75603">
        <ele>174</ele>
        <time>2016-09-08T11:19:53Z</time>
      </trkpt>
      <trkpt lat="45.92131" lon="4.75598">
        <ele>174</ele>
        <time>2016-09-08T11:19:54Z</time>
      </trkpt>
      <trkpt lat="45.92126" lon="4.75593">
        <ele>174</ele>
        <time>2016-09-08T11:19:55Z</time>
      </trkpt>
      <trkpt lat="45.92122" lon="4.75589">
        <ele>174</ele>
        <time>2016-09-08T11:19:56Z</time>
      </trkpt>
      <trkpt lat="45.92119" lon="4.75584">
        <ele>174</ele>
        <time>2016-09-08T11:19:57Z</time>
      </trkpt>
      <trkpt lat="45.92118" lon="4.75572">
        <ele>174</ele>
        <time>2016-09-08T11:20:00Z</time>
      </trkpt>
      <trkpt lat="45.92119" lon="4.75568">
        <ele>174</ele>
        <time>2016-09-08T11:20:01Z</time>
      </trkpt>
      <trkpt lat="45.92122" lon="4.75559">
        <ele>174</ele>
        <time>2016-09-08T11:20:03Z</time>
      </trkpt>
      <trkpt lat="45.92124" lon="4.75555">
        <ele>174</ele>
        <time>2016-09-08T11:20:04Z</time>
      </trkpt>
      <trkpt lat="45.9213" lon="4.75545">
        <ele>174</ele>
        <time>2016-09-08T11:20:06Z</time>
      </trkpt>
      <trkpt lat="45.92132" lon="4.7554">
        <ele>174</ele>
        <time>2016-09-08T11:20:07Z</time>
      </trkpt>
      <trkpt lat="45.92135" lon="4.75534">
        <ele>174</ele>
        <time>2016-09-08T11:20:08Z</time>
      </trkpt>
      <trkpt lat="45.92139" lon="4.75529">
        <ele>174</ele>
        <time>2016-09-08T11:20:09Z</time>
      </trkpt>
      <trkpt lat="45.92143" lon="4.75523">
        <ele>174</ele>
        <time>2016-09-08T11:20:10Z</time>
      </trkpt>
      <trkpt lat="45.92146" lon="4.75517">
        <ele>174</ele>
        <time>2016-09-08T11:20:11Z</time>
      </trkpt>
      <trkpt lat="45.92149" lon="4.7551">
        <ele>175</ele>
        <time>2016-09-08T11:20:12Z</time>
      </trkpt>
      <trkpt lat="45.92152" lon="4.75502">
        <ele>175</ele>
        <time>2016-09-08T11:20:13Z</time>
      </trkpt>
      <trkpt lat="45.92155" lon="4.75494">
        <ele>175</ele>
        <time>2016-09-08T11:20:14Z</time>
      </trkpt>
      <trkpt lat="45.92158" lon="4.75487">
        <ele>175</ele>
        <time>2016-09-08T11:20:15Z</time>
      </trkpt>
      <trkpt lat="45.92161" lon="4.75479">
        <ele>176</ele>
        <time>2016-09-08T11:20:16Z</time>
      </trkpt>
      <trkpt lat="45.92164" lon="4.75471">
        <ele>176</ele>
        <time>2016-09-08T11:20:17Z</time>
      </trkpt>
      <trkpt lat="45.92167" lon="4.75463">
        <ele>176</ele>
        <time>2016-09-08T11:20:18Z</time>
      </trkpt>
      <trkpt lat="45.92169" lon="4.75456">
        <ele>176</ele>
        <time>2016-09-08T11:20:19Z</time>
      </trkpt>
      <trkpt lat="45.92172" lon="4.75448">
        <ele>176</ele>
        <time>2016-09-08T11:20:20Z</time>
      </trkpt>
      <trkpt lat="45.92175" lon="4.75441">
        <ele>177</ele>
        <time>2016-09-08T11:20:21Z</time>
      </trkpt>
      <trkpt lat="45.92178" lon="4.75434">
        <ele>177</ele>
        <time>2016-09-08T11:20:22Z</time>
      </trkpt>
      <trkpt lat="45.9218" lon="4.75427">
        <ele>177</ele>
        <time>2016-09-08T11:20:23Z</time>
      </trkpt>
      <trkpt lat="45.92183" lon="4.7542">
        <ele>177</ele>
        <time>2016-09-08T11:20:24Z</time>
      </trkpt>
      <trkpt lat="45.92185" lon="4.75413">
        <ele>177</ele>
        <time>2016-09-08T11:20:25Z</time>
      </trkpt>
      <trkpt lat="45.92188" lon="4.75405">
        <ele>177</ele>
        <time>2016-09-08T11:20:26Z</time>
      </trkpt>
      <trkpt lat="45.9219" lon="4.75398">
        <ele>177</ele>
        <time>2016-09-08T11:20:27Z</time>
      </trkpt>
      <trkpt lat="45.92192" lon="4.75391">
        <ele>177</ele>
        <time>2016-09-08T11:20:28Z</time>
      </trkpt>
      <trkpt lat="45.92195" lon="4.75384">
        <ele>177</ele>
        <time>2016-09-08T11:20:29Z</time>
      </trkpt>
      <trkpt lat="45.92197" lon="4.75377">
        <ele>177</ele>
        <time>2016-09-08T11:20:30Z</time>
      </trkpt>
      <trkpt lat="45.922" lon="4.7537">
        <ele>177</ele>
        <time>2016-09-08T11:20:31Z</time>
      </trkpt>
      <trkpt lat="45.92203" lon="4.75363">
        <ele>177</ele>
        <time>2016-09-08T11:20:32Z</time>
      </trkpt>
      <trkpt lat="45.92205" lon="4.75355">
        <ele>177</ele>
        <time>2016-09-08T11:20:33Z</time>
      </trkpt>
      <trkpt lat="45.92207" lon="4.75348">
        <ele>177</ele>
        <time>2016-09-08T11:20:34Z</time>
      </trkpt>
      <trkpt lat="45.92209" lon="4.75339">
        <ele>177</ele>
        <time>2016-09-08T11:20:35Z</time>
      </trkpt>
      <trkpt lat="45.9221" lon="4.75331">
        <ele>176</ele>
        <time>2016-09-08T11:20:36Z</time>
      </trkpt>
      <trkpt lat="45.92211" lon="4.75321">
        <ele>176</ele>
        <time>2016-09-08T11:20:37Z</time>
      </trkpt>
      <trkpt lat="45.92211" lon="4.75312">
        <ele>176</ele>
        <time>2016-09-08T11:20:38Z</time>
      </trkpt>
      <trkpt lat="45.92212" lon="4.75303">
        <ele>176</ele>
        <time>2016-09-08T11:20:39Z</time>
      </trkpt>
      <trkpt lat="45.92213" lon="4.75293">
        <ele>176</ele>
        <time>2016-09-08T11:20:40Z</time>
      </trkpt>
      <trkpt lat="45.92214" lon="4.75284">
        <ele>176</ele>
        <time>2016-09-08T11:20:41Z</time>
      </trkpt>
      <trkpt lat="45.92214" lon="4.75274">
        <ele>176</ele>
        <time>2016-09-08T11:20:42Z</time>
      </trkpt>
      <trkpt lat="45.92215" lon="4.75265">
        <ele>176</ele>
        <time>2016-09-08T11:20:43Z</time>
      </trkpt>
      <trkpt lat="45.92215" lon="4.75256">
        <ele>175</ele>
        <time>2016-09-08T11:20:44Z</time>
      </trkpt>
      <trkpt lat="45.92215" lon="4.75246">
        <ele>175</ele>
        <time>2016-09-08T11:20:45Z</time>
      </trkpt>
      <trkpt lat="45.92216" lon="4.75237">
        <ele>175</ele>
        <time>2016-09-08T11:20:46Z</time>
      </trkpt>
      <trkpt lat="45.92217" lon="4.75228">
        <ele>175</ele>
        <time>2016-09-08T11:20:47Z</time>
      </trkpt>
      <trkpt lat="45.92219" lon="4.75218">
        <ele>175</ele>
        <time>2016-09-08T11:20:48Z</time>
      </trkpt>
      <trkpt lat="45.9222" lon="4.75208">
        <ele>175</ele>
        <time>2016-09-08T11:20:49Z</time>
      </trkpt>
      <trkpt lat="45.92222" lon="4.75198">
        <ele>175</ele>
        <time>2016-09-08T11:20:50Z</time>
      </trkpt>
      <trkpt lat="45.92225" lon="4.75189">
        <ele>175</ele>
        <time>2016-09-08T11:20:51Z</time>
      </trkpt>
      <trkpt lat="45.92227" lon="4.7518">
        <ele>175</ele>
        <time>2016-09-08T11:20:52Z</time>
      </trkpt>
      <trkpt lat="45.92231" lon="4.75171">
        <ele>175</ele>
        <time>2016-09-08T11:20:53Z</time>
      </trkpt>
      <trkpt lat="45.92234" lon="4.75163">
        <ele>174</ele>
        <time>2016-09-08T11:20:54Z</time>
      </trkpt>
      <trkpt lat="45.92238" lon="4.75155">
        <ele>174</ele>
        <time>2016-09-08T11:20:55Z</time>
      </trkpt>
      <trkpt lat="45.92242" lon="4.75148">
        <ele>174</ele>
        <time>2016-09-08T11:20:56Z</time>
      </trkpt>
      <trkpt lat="45.92246" lon="4.75141">
        <ele>174</ele>
        <time>2016-09-08T11:20:57Z</time>
      </trkpt>
      <trkpt lat="45.92251" lon="4.75135">
        <ele>174</ele>
        <time>2016-09-08T11:20:58Z</time>
      </trkpt>
      <trkpt lat="45.92256" lon="4.7513">
        <ele>174</ele>
        <time>2016-09-08T11:20:59Z</time>
      </trkpt>
      <trkpt lat="45.9226" lon="4.75125">
        <ele>174</ele>
        <time>2016-09-08T11:21:00Z</time>
      </trkpt>
      <trkpt lat="45.92265" lon="4.75119">
        <ele>174</ele>
        <time>2016-09-08T11:21:01Z</time>
      </trkpt>
      <trkpt lat="45.92269" lon="4.75114">
        <ele>174</ele>
        <time>2016-09-08T11:21:02Z</time>
      </trkpt>
      <trkpt lat="45.92274" lon="4.7511">
        <ele>174</ele>
        <time>2016-09-08T11:21:03Z</time>
      </trkpt>
      <trkpt lat="45.92278" lon="4.75105">
        <ele>174</ele>
        <time>2016-09-08T11:21:04Z</time>
      </trkpt>
      <trkpt lat="45.92283" lon="4.75101">
        <ele>173</ele>
        <time>2016-09-08T11:21:05Z</time>
      </trkpt>
      <trkpt lat="45.92288" lon="4.75096">
        <ele>173</ele>
        <time>2016-09-08T11:21:06Z</time>
      </trkpt>
      <trkpt lat="45.92293" lon="4.75092">
        <ele>173</ele>
        <time>2016-09-08T11:21:07Z</time>
      </trkpt>
      <trkpt lat="45.92297" lon="4.75087">
        <ele>173</ele>
        <time>2016-09-08T11:21:08Z</time>
      </trkpt>
      <trkpt lat="45.92302" lon="4.75081">
        <ele>172</ele>
        <time>2016-09-08T11:21:09Z</time>
      </trkpt>
      <trkpt lat="45.92307" lon="4.75076">
        <ele>172</ele>
        <time>2016-09-08T11:21:10Z</time>
      </trkpt>
      <trkpt lat="45.92311" lon="4.7507">
        <ele>172</ele>
        <time>2016-09-08T11:21:11Z</time>
      </trkpt>
      <trkpt lat="45.92316" lon="4.75063">
        <ele>172</ele>
        <time>2016-09-08T11:21:12Z</time>
      </trkpt>
      <trkpt lat="45.92321" lon="4.75058">
        <ele>172</ele>
        <time>2016-09-08T11:21:13Z</time>
      </trkpt>
      <trkpt lat="45.92325" lon="4.75051">
        <ele>172</ele>
        <time>2016-09-08T11:21:14Z</time>
      </trkpt>
      <trkpt lat="45.92329" lon="4.75045">
        <ele>172</ele>
        <time>2016-09-08T11:21:15Z</time>
      </trkpt>
      <trkpt lat="45.92332" lon="4.75037">
        <ele>171</ele>
        <time>2016-09-08T11:21:16Z</time>
      </trkpt>
      <trkpt lat="45.92336" lon="4.7503">
        <ele>170</ele>
        <time>2016-09-08T11:21:17Z</time>
      </trkpt>
      <trkpt lat="45.92339" lon="4.75022">
        <ele>170</ele>
        <time>2016-09-08T11:21:18Z</time>
      </trkpt>
      <trkpt lat="45.92343" lon="4.75014">
        <ele>170</ele>
        <time>2016-09-08T11:21:19Z</time>
      </trkpt>
      <trkpt lat="45.92346" lon="4.75007">
        <ele>170</ele>
        <time>2016-09-08T11:21:20Z</time>
      </trkpt>
      <trkpt lat="45.92349" lon="4.74999">
        <ele>170</ele>
        <time>2016-09-08T11:21:21Z</time>
      </trkpt>
      <trkpt lat="45.92352" lon="4.74991">
        <ele>170</ele>
        <time>2016-09-08T11:21:22Z</time>
      </trkpt>
      <trkpt lat="45.92355" lon="4.74983">
        <ele>170</ele>
        <time>2016-09-08T11:21:23Z</time>
      </trkpt>
      <trkpt lat="45.92358" lon="4.74976">
        <ele>170</ele>
        <time>2016-09-08T11:21:24Z</time>
      </trkpt>
      <trkpt lat="45.92361" lon="4.74969">
        <ele>170</ele>
        <time>2016-09-08T11:21:25Z</time>
      </trkpt>
      <trkpt lat="45.92364" lon="4.74961">
        <ele>170</ele>
        <time>2016-09-08T11:21:26Z</time>
      </trkpt>
      <trkpt lat="45.92367" lon="4.74953">
        <ele>170</ele>
        <time>2016-09-08T11:21:27Z</time>
      </trkpt>
      <trkpt lat="45.9237" lon="4.74946">
        <ele>170</ele>
        <time>2016-09-08T11:21:28Z</time>
      </trkpt>
      <trkpt lat="45.92373" lon="4.74938">
        <ele>170</ele>
        <time>2016-09-08T11:21:29Z</time>
      </trkpt>
      <trkpt lat="45.92376" lon="4.74931">
        <ele>170</ele>
        <time>2016-09-08T11:21:30Z</time>
      </trkpt>
      <trkpt lat="45.92378" lon="4.74923">
        <ele>170</ele>
        <time>2016-09-08T11:21:31Z</time>
      </trkpt>
      <trkpt lat="45.92381" lon="4.74916">
        <ele>171</ele>
        <time>2016-09-08T11:21:32Z</time>
      </trkpt>
      <trkpt lat="45.92384" lon="4.74909">
        <ele>171</ele>
        <time>2016-09-08T11:21:33Z</time>
      </trkpt>
      <trkpt lat="45.92386" lon="4.74901">
        <ele>171</ele>
        <time>2016-09-08T11:21:34Z</time>
      </trkpt>
      <trkpt lat="45.92389" lon="4.74893">
        <ele>171</ele>
        <time>2016-09-08T11:21:35Z</time>
      </trkpt>
      <trkpt lat="45.92393" lon="4.74884">
        <ele>171</ele>
        <time>2016-09-08T11:21:36Z</time>
      </trkpt>
      <trkpt lat="45.92396" lon="4.74876">
        <ele>171</ele>
        <time>2016-09-08T11:21:37Z</time>
      </trkpt>
      <trkpt lat="45.92399" lon="4.74868">
        <ele>171</ele>
        <time>2016-09-08T11:21:38Z</time>
      </trkpt>
      <trkpt lat="45.92401" lon="4.7486">
        <ele>171</ele>
        <time>2016-09-08T11:21:39Z</time>
      </trkpt>
      <trkpt lat="45.92403" lon="4.74852">
        <ele>171</ele>
        <time>2016-09-08T11:21:40Z</time>
      </trkpt>
      <trkpt lat="45.92406" lon="4.74844">
        <ele>171</ele>
        <time>2016-09-08T11:21:41Z</time>
      </trkpt>
      <trkpt lat="45.92407" lon="4.74837">
        <ele>171</ele>
        <time>2016-09-08T11:21:42Z</time>
      </trkpt>
      <trkpt lat="45.92409" lon="4.74829">
        <ele>171</ele>
        <time>2016-09-08T11:21:43Z</time>
      </trkpt>
      <trkpt lat="45.92411" lon="4.74822">
        <ele>171</ele>
        <time>2016-09-08T11:21:44Z</time>
      </trkpt>
      <trkpt lat="45.92413" lon="4.74814">
        <ele>171</ele>
        <time>2016-09-08T11:21:45Z</time>
      </trkpt>
      <trkpt lat="45.92414" lon="4.74807">
        <ele>171</ele>
        <time>2016-09-08T11:21:46Z</time>
      </trkpt>
      <trkpt lat="45.92416" lon="4.74799">
        <ele>171</ele>
        <time>2016-09-08T11:21:47Z</time>
      </trkpt>
      <trkpt lat="45.92418" lon="4.74792">
        <ele>171</ele>
        <time>2016-09-08T11:21:48Z</time>
      </trkpt>
      <trkpt lat="45.92419" lon="4.74784">
        <ele>171</ele>
        <time>2016-09-08T11:21:49Z</time>
      </trkpt>
      <trkpt lat="45.92421" lon="4.74776">
        <ele>171</ele>
        <time>2016-09-08T11:21:50Z</time>
      </trkpt>
      <trkpt lat="45.92422" lon="4.74769">
        <ele>171</ele>
        <time>2016-09-08T11:21:51Z</time>
      </trkpt>
      <trkpt lat="45.92424" lon="4.74761">
        <ele>171</ele>
        <time>2016-09-08T11:21:52Z</time>
      </trkpt>
      <trkpt lat="45.92426" lon="4.74754">
        <ele>171</ele>
        <time>2016-09-08T11:21:53Z</time>
      </trkpt>
      <trkpt lat="45.92428" lon="4.74746">
        <ele>171</ele>
        <time>2016-09-08T11:21:54Z</time>
      </trkpt>
      <trkpt lat="45.92431" lon="4.74738">
        <ele>171</ele>
        <time>2016-09-08T11:21:55Z</time>
      </trkpt>
      <trkpt lat="45.92433" lon="4.74731">
        <ele>171</ele>
        <time>2016-09-08T11:21:56Z</time>
      </trkpt>
      <trkpt lat="45.92436" lon="4.74724">
        <ele>171</ele>
        <time>2016-09-08T11:21:57Z</time>
      </trkpt>
      <trkpt lat="45.92439" lon="4.74717">
        <ele>171</ele>
        <time>2016-09-08T11:21:58Z</time>
      </trkpt>
      <trkpt lat="45.92441" lon="4.7471">
        <ele>171</ele>
        <time>2016-09-08T11:21:59Z</time>
      </trkpt>
      <trkpt lat="45.92445" lon="4.74703">
        <ele>171</ele>
        <time>2016-09-08T11:22:00Z</time>
      </trkpt>
      <trkpt lat="45.92448" lon="4.74696">
        <ele>171</ele>
        <time>2016-09-08T11:22:01Z</time>
      </trkpt>
      <trkpt lat="45.92451" lon="4.74689">
        <ele>171</ele>
        <time>2016-09-08T11:22:02Z</time>
      </trkpt>
      <trkpt lat="45.92454" lon="4.74682">
        <ele>171</ele>
        <time>2016-09-08T11:22:03Z</time>
      </trkpt>
      <trkpt lat="45.92457" lon="4.74676">
        <ele>171</ele>
        <time>2016-09-08T11:22:04Z</time>
      </trkpt>
      <trkpt lat="45.9246" lon="4.74669">
        <ele>171</ele>
        <time>2016-09-08T11:22:05Z</time>
      </trkpt>
      <trkpt lat="45.92463" lon="4.74662">
        <ele>171</ele>
        <time>2016-09-08T11:22:06Z</time>
      </trkpt>
      <trkpt lat="45.92466" lon="4.74655">
        <ele>171</ele>
        <time>2016-09-08T11:22:07Z</time>
      </trkpt>
      <trkpt lat="45.92469" lon="4.74647">
        <ele>171</ele>
        <time>2016-09-08T11:22:08Z</time>
      </trkpt>
      <trkpt lat="45.92472" lon="4.74639">
        <ele>171</ele>
        <time>2016-09-08T11:22:09Z</time>
      </trkpt>
      <trkpt lat="45.92478" lon="4.74634">
        <ele>171</ele>
        <time>2016-09-08T11:22:10Z</time>
      </trkpt>
      <trkpt lat="45.92484" lon="4.74629">
        <ele>171</ele>
        <time>2016-09-08T11:22:11Z</time>
      </trkpt>
      <trkpt lat="45.92489" lon="4.74623">
        <ele>171</ele>
        <time>2016-09-08T11:22:12Z</time>
      </trkpt>
      <trkpt lat="45.92494" lon="4.74617">
        <ele>171</ele>
        <time>2016-09-08T11:22:13Z</time>
      </trkpt>
      <trkpt lat="45.92499" lon="4.74611">
        <ele>171</ele>
        <time>2016-09-08T11:22:14Z</time>
      </trkpt>
      <trkpt lat="45.92504" lon="4.74606">
        <ele>171</ele>
        <time>2016-09-08T11:22:15Z</time>
      </trkpt>
      <trkpt lat="45.92509" lon="4.74601">
        <ele>171</ele>
        <time>2016-09-08T11:22:16Z</time>
      </trkpt>
      <trkpt lat="45.92513" lon="4.74596">
        <ele>171</ele>
        <time>2016-09-08T11:22:17Z</time>
      </trkpt>
      <trkpt lat="45.92518" lon="4.74592">
        <ele>171</ele>
        <time>2016-09-08T11:22:18Z</time>
      </trkpt>
      <trkpt lat="45.92522" lon="4.74587">
        <ele>171</ele>
        <time>2016-09-08T11:22:19Z</time>
      </trkpt>
      <trkpt lat="45.92526" lon="4.74582">
        <ele>171</ele>
        <time>2016-09-08T11:22:20Z</time>
      </trkpt>
      <trkpt lat="45.9253" lon="4.74577">
        <ele>171</ele>
        <time>2016-09-08T11:22:21Z</time>
      </trkpt>
      <trkpt lat="45.92535" lon="4.74572">
        <ele>171</ele>
        <time>2016-09-08T11:22:22Z</time>
      </trkpt>
      <trkpt lat="45.92538" lon="4.74567">
        <ele>171</ele>
        <time>2016-09-08T11:22:23Z</time>
      </trkpt>
      <trkpt lat="45.92542" lon="4.74561">
        <ele>170</ele>
        <time>2016-09-08T11:22:24Z</time>
      </trkpt>
      <trkpt lat="45.92546" lon="4.74554">
        <ele>170</ele>
        <time>2016-09-08T11:22:25Z</time>
      </trkpt>
      <trkpt lat="45.9255" lon="4.74548">
        <ele>170</ele>
        <time>2016-09-08T11:22:26Z</time>
      </trkpt>
      <trkpt lat="45.92554" lon="4.7454">
        <ele>170</ele>
        <time>2016-09-08T11:22:27Z</time>
      </trkpt>
      <trkpt lat="45.92558" lon="4.74533">
        <ele>170</ele>
        <time>2016-09-08T11:22:28Z</time>
      </trkpt>
      <trkpt lat="45.92562" lon="4.74526">
        <ele>170</ele>
        <time>2016-09-08T11:22:29Z</time>
      </trkpt>
      <trkpt lat="45.92566" lon="4.74519">
        <ele>170</ele>
        <time>2016-09-08T11:22:30Z</time>
      </trkpt>
      <trkpt lat="45.9257" lon="4.74512">
        <ele>170</ele>
        <time>2016-09-08T11:22:31Z</time>
      </trkpt>
      <trkpt lat="45.92574" lon="4.74505">
        <ele>170</ele>
        <time>2016-09-08T11:22:32Z</time>
      </trkpt>
      <trkpt lat="45.92577" lon="4.74498">
        <ele>170</ele>
        <time>2016-09-08T11:22:33Z</time>
      </trkpt>
      <trkpt lat="45.92581" lon="4.74492">
        <ele>170</ele>
        <time>2016-09-08T11:22:34Z</time>
      </trkpt>
      <trkpt lat="45.92584" lon="4.74486">
        <ele>170</ele>
        <time>2016-09-08T11:22:35Z</time>
      </trkpt>
      <trkpt lat="45.92587" lon="4.7448">
        <ele>170</ele>
        <time>2016-09-08T11:22:36Z</time>
      </trkpt>
      <trkpt lat="45.9259" lon="4.74474">
        <ele>170</ele>
        <time>2016-09-08T11:22:37Z</time>
      </trkpt>
      <trkpt lat="45.92593" lon="4.74469">
        <ele>170</ele>
        <time>2016-09-08T11:22:38Z</time>
      </trkpt>
      <trkpt lat="45.92597" lon="4.74463">
        <ele>170</ele>
        <time>2016-09-08T11:22:39Z</time>
      </trkpt>
      <trkpt lat="45.926" lon="4.74456">
        <ele>170</ele>
        <time>2016-09-08T11:22:40Z</time>
      </trkpt>
      <trkpt lat="45.92603" lon="4.7445">
        <ele>170</ele>
        <time>2016-09-08T11:22:41Z</time>
      </trkpt>
      <trkpt lat="45.92607" lon="4.74443">
        <ele>170</ele>
        <time>2016-09-08T11:22:42Z</time>
      </trkpt>
      <trkpt lat="45.92611" lon="4.74436">
        <ele>170</ele>
        <time>2016-09-08T11:22:43Z</time>
      </trkpt>
      <trkpt lat="45.92615" lon="4.74429">
        <ele>170</ele>
        <time>2016-09-08T11:22:44Z</time>
      </trkpt>
      <trkpt lat="45.92619" lon="4.74422">
        <ele>170</ele>
        <time>2016-09-08T11:22:45Z</time>
      </trkpt>
      <trkpt lat="45.92623" lon="4.74415">
        <ele>170</ele>
        <time>2016-09-08T11:22:46Z</time>
      </trkpt>
      <trkpt lat="45.92627" lon="4.74408">
        <ele>170</ele>
        <time>2016-09-08T11:22:47Z</time>
      </trkpt>
      <trkpt lat="45.9263" lon="4.744">
        <ele>170</ele>
        <time>2016-09-08T11:22:48Z</time>
      </trkpt>
      <trkpt lat="45.92634" lon="4.74393">
        <ele>170</ele>
        <time>2016-09-08T11:22:49Z</time>
      </trkpt>
      <trkpt lat="45.92638" lon="4.74386">
        <ele>170</ele>
        <time>2016-09-08T11:22:50Z</time>
      </trkpt>
      <trkpt lat="45.92642" lon="4.74379">
        <ele>170</ele>
        <time>2016-09-08T11:22:51Z</time>
      </trkpt>
      <trkpt lat="45.92645" lon="4.74373">
        <ele>171</ele>
        <time>2016-09-08T11:22:52Z</time>
      </trkpt>
      <trkpt lat="45.92649" lon="4.74367">
        <ele>171</ele>
        <time>2016-09-08T11:22:53Z</time>
      </trkpt>
      <trkpt lat="45.92652" lon="4.74361">
        <ele>171</ele>
        <time>2016-09-08T11:22:54Z</time>
      </trkpt>
      <trkpt lat="45.92655" lon="4.74355">
        <ele>171</ele>
        <time>2016-09-08T11:22:55Z</time>
      </trkpt>
      <trkpt lat="45.92658" lon="4.7435">
        <ele>171</ele>
        <time>2016-09-08T11:22:56Z</time>
      </trkpt>
      <trkpt lat="45.92661" lon="4.74344">
        <ele>171</ele>
        <time>2016-09-08T11:22:57Z</time>
      </trkpt>
      <trkpt lat="45.92664" lon="4.74338">
        <ele>171</ele>
        <time>2016-09-08T11:22:58Z</time>
      </trkpt>
      <trkpt lat="45.92667" lon="4.74332">
        <ele>171</ele>
        <time>2016-09-08T11:22:59Z</time>
      </trkpt>
      <trkpt lat="45.92671" lon="4.74327">
        <ele>171</ele>
        <time>2016-09-08T11:23:00Z</time>
      </trkpt>
      <trkpt lat="45.92674" lon="4.74321">
        <ele>171</ele>
        <time>2016-09-08T11:23:01Z</time>
      </trkpt>
      <trkpt lat="45.92677" lon="4.74314">
        <ele>171</ele>
        <time>2016-09-08T11:23:02Z</time>
      </trkpt>
      <trkpt lat="45.9268" lon="4.74308">
        <ele>171</ele>
        <time>2016-09-08T11:23:03Z</time>
      </trkpt>
      <trkpt lat="45.92684" lon="4.74302">
        <ele>171</ele>
        <time>2016-09-08T11:23:04Z</time>
      </trkpt>
      <trkpt lat="45.92687" lon="4.74295">
        <ele>171</ele>
        <time>2016-09-08T11:23:05Z</time>
      </trkpt>
      <trkpt lat="45.9269" lon="4.74289">
        <ele>171</ele>
        <time>2016-09-08T11:23:06Z</time>
      </trkpt>
      <trkpt lat="45.92694" lon="4.74283">
        <ele>171</ele>
        <time>2016-09-08T11:23:07Z</time>
      </trkpt>
      <trkpt lat="45.92697" lon="4.74277">
        <ele>171</ele>
        <time>2016-09-08T11:23:08Z</time>
      </trkpt>
      <trkpt lat="45.92701" lon="4.74272">
        <ele>171</ele>
        <time>2016-09-08T11:23:09Z</time>
      </trkpt>
      <trkpt lat="45.92704" lon="4.74266">
        <ele>171</ele>
        <time>2016-09-08T11:23:10Z</time>
      </trkpt>
      <trkpt lat="45.92708" lon="4.7426">
        <ele>171</ele>
        <time>2016-09-08T11:23:11Z</time>
      </trkpt>
      <trkpt lat="45.92711" lon="4.74254">
        <ele>171</ele>
        <time>2016-09-08T11:23:12Z</time>
      </trkpt>
      <trkpt lat="45.92715" lon="4.74248">
        <ele>171</ele>
        <time>2016-09-08T11:23:13Z</time>
      </trkpt>
      <trkpt lat="45.9272" lon="4.74241">
        <ele>171</ele>
        <time>2016-09-08T11:23:14Z</time>
      </trkpt>
      <trkpt lat="45.92724" lon="4.74234">
        <ele>171</ele>
        <time>2016-09-08T11:23:15Z</time>
      </trkpt>
      <trkpt lat="45.92728" lon="4.74227">
        <ele>171</ele>
        <time>2016-09-08T11:23:16Z</time>
      </trkpt>
      <trkpt lat="45.92732" lon="4.74221">
        <ele>171</ele>
        <time>2016-09-08T11:23:17Z</time>
      </trkpt>
      <trkpt lat="45.92736" lon="4.74215">
        <ele>171</ele>
        <time>2016-09-08T11:23:18Z</time>
      </trkpt>
      <trkpt lat="45.92741" lon="4.7421">
        <ele>171</ele>
        <time>2016-09-08T11:23:19Z</time>
      </trkpt>
      <trkpt lat="45.92745" lon="4.74204">
        <ele>171</ele>
        <time>2016-09-08T11:23:20Z</time>
      </trkpt>
      <trkpt lat="45.9275" lon="4.74199">
        <ele>171</ele>
        <time>2016-09-08T11:23:21Z</time>
      </trkpt>
      <trkpt lat="45.92754" lon="4.74193">
        <ele>172</ele>
        <time>2016-09-08T11:23:22Z</time>
      </trkpt>
      <trkpt lat="45.92759" lon="4.74188">
        <ele>172</ele>
        <time>2016-09-08T11:23:23Z</time>
      </trkpt>
      <trkpt lat="45.92763" lon="4.74182">
        <ele>172</ele>
        <time>2016-09-08T11:23:24Z</time>
      </trkpt>
      <trkpt lat="45.92768" lon="4.74177">
        <ele>172</ele>
        <time>2016-09-08T11:23:25Z</time>
      </trkpt>
      <trkpt lat="45.92773" lon="4.74172">
        <ele>172</ele>
        <time>2016-09-08T11:23:26Z</time>
      </trkpt>
      <trkpt lat="45.92778" lon="4.74167">
        <ele>172</ele>
        <time>2016-09-08T11:23:27Z</time>
      </trkpt>
      <trkpt lat="45.92782" lon="4.74162">
        <ele>172</ele>
        <time>2016-09-08T11:23:28Z</time>
      </trkpt>
      <trkpt lat="45.92787" lon="4.74156">
        <ele>172</ele>
        <time>2016-09-08T11:23:29Z</time>
      </trkpt>
      <trkpt lat="45.92792" lon="4.7415">
        <ele>172</ele>
        <time>2016-09-08T11:23:30Z</time>
      </trkpt>
      <trkpt lat="45.92797" lon="4.74145">
        <ele>172</ele>
        <time>2016-09-08T11:23:31Z</time>
      </trkpt>
      <trkpt lat="45.92803" lon="4.7414">
        <ele>172</ele>
        <time>2016-09-08T11:23:32Z</time>
      </trkpt>
      <trkpt lat="45.92808" lon="4.74135">
        <ele>172</ele>
        <time>2016-09-08T11:23:33Z</time>
      </trkpt>
      <trkpt lat="45.92813" lon="4.7413">
        <ele>172</ele>
        <time>2016-09-08T11:23:34Z</time>
      </trkpt>
      <trkpt lat="45.92818" lon="4.74125">
        <ele>172</ele>
        <time>2016-09-08T11:23:35Z</time>
      </trkpt>
      <trkpt lat="45.92822" lon="4.7412">
        <ele>172</ele>
        <time>2016-09-08T11:23:36Z</time>
      </trkpt>
      <trkpt lat="45.92826" lon="4.74115">
        <ele>171</ele>
        <time>2016-09-08T11:23:37Z</time>
      </trkpt>
      <trkpt lat="45.9283" lon="4.7411">
        <ele>171</ele>
        <time>2016-09-08T11:23:38Z</time>
      </trkpt>
      <trkpt lat="45.92835" lon="4.74105">
        <ele>171</ele>
        <time>2016-09-08T11:23:39Z</time>
      </trkpt>
      <trkpt lat="45.92839" lon="4.74099">
        <ele>171</ele>
        <time>2016-09-08T11:23:40Z</time>
      </trkpt>
      <trkpt lat="45.92844" lon="4.74095">
        <ele>171</ele>
        <time>2016-09-08T11:23:41Z</time>
      </trkpt>
      <trkpt lat="45.92849" lon="4.74091">
        <ele>171</ele>
        <time>2016-09-08T11:23:42Z</time>
      </trkpt>
      <trkpt lat="45.92854" lon="4.74085">
        <ele>171</ele>
        <time>2016-09-08T11:23:43Z</time>
      </trkpt>
      <trkpt lat="45.92858" lon="4.74079">
        <ele>172</ele>
        <time>2016-09-08T11:23:44Z</time>
      </trkpt>
      <trkpt lat="45.92863" lon="4.74073">
        <ele>172</ele>
        <time>2016-09-08T11:23:45Z</time>
      </trkpt>
      <trkpt lat="45.92867" lon="4.74068">
        <ele>172</ele>
        <time>2016-09-08T11:23:46Z</time>
      </trkpt>
      <trkpt lat="45.92872" lon="4.74062">
        <ele>172</ele>
        <time>2016-09-08T11:23:47Z</time>
      </trkpt>
      <trkpt lat="45.92876" lon="4.74058">
        <ele>172</ele>
        <time>2016-09-08T11:23:48Z</time>
      </trkpt>
      <trkpt lat="45.92881" lon="4.74054">
        <ele>172</ele>
        <time>2016-09-08T11:23:49Z</time>
      </trkpt>
      <trkpt lat="45.92886" lon="4.74052">
        <ele>172</ele>
        <time>2016-09-08T11:23:50Z</time>
      </trkpt>
      <trkpt lat="45.92892" lon="4.74051">
        <ele>172</ele>
        <time>2016-09-08T11:23:51Z</time>
      </trkpt>
      <trkpt lat="45.92897" lon="4.74051">
        <ele>172</ele>
        <time>2016-09-08T11:23:52Z</time>
      </trkpt>
      <trkpt lat="45.92903" lon="4.7405">
        <ele>172</ele>
        <time>2016-09-08T11:23:53Z</time>
      </trkpt>
      <trkpt lat="45.92908" lon="4.74047">
        <ele>172</ele>
        <time>2016-09-08T11:23:54Z</time>
      </trkpt>
      <trkpt lat="45.92913" lon="4.74043">
        <ele>172</ele>
        <time>2016-09-08T11:23:55Z</time>
      </trkpt>
      <trkpt lat="45.92917" lon="4.74036">
        <ele>172</ele>
        <time>2016-09-08T11:23:56Z</time>
      </trkpt>
      <trkpt lat="45.92919" lon="4.74028">
        <ele>172</ele>
        <time>2016-09-08T11:23:57Z</time>
      </trkpt>
      <trkpt lat="45.9292" lon="4.74019">
        <ele>172</ele>
        <time>2016-09-08T11:23:58Z</time>
      </trkpt>
      <trkpt lat="45.92919" lon="4.7401">
        <ele>172</ele>
        <time>2016-09-08T11:23:59Z</time>
      </trkpt>
      <trkpt lat="45.92916" lon="4.74002">
        <ele>172</ele>
        <time>2016-09-08T11:24:00Z</time>
      </trkpt>
      <trkpt lat="45.92913" lon="4.73996">
        <ele>172</ele>
        <time>2016-09-08T11:24:01Z</time>
      </trkpt>
      <trkpt lat="45.92908" lon="4.73991">
        <ele>172</ele>
        <time>2016-09-08T11:24:02Z</time>
      </trkpt>
      <trkpt lat="45.92903" lon="4.73986">
        <ele>172</ele>
        <time>2016-09-08T11:24:03Z</time>
      </trkpt>
      <trkpt lat="45.92898" lon="4.73981">
        <ele>172</ele>
        <time>2016-09-08T11:24:04Z</time>
      </trkpt>
      <trkpt lat="45.92893" lon="4.73974">
        <ele>172</ele>
        <time>2016-09-08T11:24:05Z</time>
      </trkpt>
      <trkpt lat="45.9289" lon="4.73966">
        <ele>172</ele>
        <time>2016-09-08T11:24:06Z</time>
      </trkpt>
      <trkpt lat="45.92888" lon="4.73957">
        <ele>172</ele>
        <time>2016-09-08T11:24:07Z</time>
      </trkpt>
      <trkpt lat="45.92887" lon="4.73946">
        <ele>172</ele>
        <time>2016-09-08T11:24:08Z</time>
      </trkpt>
      <trkpt lat="45.92886" lon="4.73936">
        <ele>172</ele>
        <time>2016-09-08T11:24:09Z</time>
      </trkpt>
      <trkpt lat="45.92885" lon="4.73926">
        <ele>172</ele>
        <time>2016-09-08T11:24:10Z</time>
      </trkpt>
      <trkpt lat="45.92884" lon="4.73915">
        <ele>173</ele>
        <time>2016-09-08T11:24:11Z</time>
      </trkpt>
      <trkpt lat="45.92882" lon="4.73904">
        <ele>173</ele>
        <time>2016-09-08T11:24:12Z</time>
      </trkpt>
      <trkpt lat="45.92881" lon="4.73894">
        <ele>173</ele>
        <time>2016-09-08T11:24:13Z</time>
      </trkpt>
      <trkpt lat="45.92879" lon="4.73884">
        <ele>173</ele>
        <time>2016-09-08T11:24:14Z</time>
      </trkpt>
      <trkpt lat="45.92877" lon="4.73874">
        <ele>173</ele>
        <time>2016-09-08T11:24:15Z</time>
      </trkpt>
      <trkpt lat="45.92875" lon="4.73864">
        <ele>173</ele>
        <time>2016-09-08T11:24:16Z</time>
      </trkpt>
      <trkpt lat="45.92873" lon="4.73855">
        <ele>173</ele>
        <time>2016-09-08T11:24:17Z</time>
      </trkpt>
      <trkpt lat="45.92872" lon="4.73846">
        <ele>173</ele>
        <time>2016-09-08T11:24:18Z</time>
      </trkpt>
      <trkpt lat="45.92869" lon="4.73838">
        <ele>173</ele>
        <time>2016-09-08T11:24:19Z</time>
      </trkpt>
      <trkpt lat="45.92866" lon="4.73829">
        <ele>173</ele>
        <time>2016-09-08T11:24:20Z</time>
      </trkpt>
      <trkpt lat="45.92863" lon="4.73821">
        <ele>173</ele>
        <time>2016-09-08T11:24:21Z</time>
      </trkpt>
      <trkpt lat="45.9286" lon="4.73813">
        <ele>173</ele>
        <time>2016-09-08T11:24:22Z</time>
      </trkpt>
      <trkpt lat="45.92857" lon="4.73806">
        <ele>173</ele>
        <time>2016-09-08T11:24:23Z</time>
      </trkpt>
      <trkpt lat="45.92854" lon="4.73799">
        <ele>173</ele>
        <time>2016-09-08T11:24:24Z</time>
      </trkpt>
      <trkpt lat="45.92849" lon="4.73793">
        <ele>173</ele>
        <time>2016-09-08T11:24:25Z</time>
      </trkpt>
      <trkpt lat="45.92844" lon="4.73788">
        <ele>173</ele>
        <time>2016-09-08T11:24:26Z</time>
      </trkpt>
      <trkpt lat="45.92839" lon="4.73783">
        <ele>173</ele>
        <time>2016-09-08T11:24:27Z</time>
      </trkpt>
      <trkpt lat="45.92833" lon="4.73779">
        <ele>173</ele>
        <time>2016-09-08T11:24:28Z</time>
      </trkpt>
      <trkpt lat="45.92827" lon="4.73775">
        <ele>173</ele>
        <time>2016-09-08T11:24:29Z</time>
      </trkpt>
      <trkpt lat="45.92822" lon="4.73772">
        <ele>173</ele>
        <time>2016-09-08T11:24:30Z</time>
      </trkpt>
      <trkpt lat="45.92817" lon="4.73769">
        <ele>173</ele>
        <time>2016-09-08T11:24:31Z</time>
      </trkpt>
      <trkpt lat="45.92811" lon="4.73766">
        <ele>173</ele>
        <time>2016-09-08T11:24:32Z</time>
      </trkpt>
      <trkpt lat="45.92806" lon="4.73763">
        <ele>173</ele>
        <time>2016-09-08T11:24:33Z</time>
      </trkpt>
      <trkpt lat="45.92801" lon="4.73761">
        <ele>173</ele>
        <time>2016-09-08T11:24:34Z</time>
      </trkpt>
      <trkpt lat="45.92796" lon="4.73759">
        <ele>173</ele>
        <time>2016-09-08T11:24:35Z</time>
      </trkpt>
      <trkpt lat="45.92792" lon="4.73756">
        <ele>173</ele>
        <time>2016-09-08T11:24:36Z</time>
      </trkpt>
      <trkpt lat="45.92788" lon="4.73753">
        <ele>173</ele>
        <time>2016-09-08T11:24:37Z</time>
      </trkpt>
      <trkpt lat="45.92783" lon="4.73744">
        <ele>172</ele>
        <time>2016-09-08T11:24:39Z</time>
      </trkpt>
      <trkpt lat="45.9278" lon="4.7374">
        <ele>172</ele>
        <time>2016-09-08T11:24:40Z</time>
      </trkpt>
      <trkpt lat="45.92776" lon="4.73736">
        <ele>172</ele>
        <time>2016-09-08T11:24:41Z</time>
      </trkpt>
      <trkpt lat="45.92772" lon="4.73733">
        <ele>172</ele>
        <time>2016-09-08T11:24:42Z</time>
      </trkpt>
      <trkpt lat="45.92768" lon="4.73732">
        <ele>172</ele>
        <time>2016-09-08T11:24:43Z</time>
      </trkpt>
      <trkpt lat="45.92762" lon="4.73729">
        <ele>172</ele>
        <time>2016-09-08T11:24:44Z</time>
      </trkpt>
      <trkpt lat="45.92757" lon="4.73728">
        <ele>172</ele>
        <time>2016-09-08T11:24:45Z</time>
      </trkpt>
      <trkpt lat="45.92752" lon="4.73726">
        <ele>172</ele>
        <time>2016-09-08T11:24:46Z</time>
      </trkpt>
      <trkpt lat="45.92747" lon="4.73724">
        <ele>173</ele>
        <time>2016-09-08T11:24:47Z</time>
      </trkpt>
      <trkpt lat="45.92741" lon="4.73723">
        <ele>173</ele>
        <time>2016-09-08T11:24:48Z</time>
      </trkpt>
      <trkpt lat="45.92736" lon="4.73723">
        <ele>173</ele>
        <time>2016-09-08T11:24:49Z</time>
      </trkpt>
      <trkpt lat="45.9273" lon="4.73722">
        <ele>173</ele>
        <time>2016-09-08T11:24:50Z</time>
      </trkpt>
      <trkpt lat="45.92725" lon="4.73721">
        <ele>173</ele>
        <time>2016-09-08T11:24:51Z</time>
      </trkpt>
      <trkpt lat="45.92719" lon="4.7372">
        <ele>173</ele>
        <time>2016-09-08T11:24:52Z</time>
      </trkpt>
      <trkpt lat="45.92714" lon="4.73718">
        <ele>173</ele>
        <time>2016-09-08T11:24:53Z</time>
      </trkpt>
      <trkpt lat="45.92709" lon="4.73717">
        <ele>173</ele>
        <time>2016-09-08T11:24:54Z</time>
      </trkpt>
      <trkpt lat="45.92704" lon="4.73715">
        <ele>173</ele>
        <time>2016-09-08T11:24:55Z</time>
      </trkpt>
      <trkpt lat="45.92699" lon="4.73714">
        <ele>173</ele>
        <time>2016-09-08T11:24:56Z</time>
      </trkpt>
      <trkpt lat="45.92694" lon="4.73713">
        <ele>173</ele>
        <time>2016-09-08T11:24:57Z</time>
      </trkpt>
      <trkpt lat="45.92688" lon="4.73711">
        <ele>173</ele>
        <time>2016-09-08T11:24:58Z</time>
      </trkpt>
      <trkpt lat="45.92683" lon="4.7371">
        <ele>173</ele>
        <time>2016-09-08T11:24:59Z</time>
      </trkpt>
      <trkpt lat="45.92677" lon="4.73708">
        <ele>173</ele>
        <time>2016-09-08T11:25:00Z</time>
      </trkpt>
      <trkpt lat="45.92672" lon="4.73706">
        <ele>174</ele>
        <time>2016-09-08T11:25:01Z</time>
      </trkpt>
      <trkpt lat="45.92666" lon="4.73704">
        <ele>173</ele>
        <time>2016-09-08T11:25:02Z</time>
      </trkpt>
      <trkpt lat="45.9266" lon="4.73699">
        <ele>173</ele>
        <time>2016-09-08T11:25:03Z</time>
      </trkpt>
      <trkpt lat="45.92655" lon="4.73693">
        <ele>173</ele>
        <time>2016-09-08T11:25:04Z</time>
      </trkpt>
      <trkpt lat="45.92649" lon="4.73687">
        <ele>173</ele>
        <time>2016-09-08T11:25:05Z</time>
      </trkpt>
      <trkpt lat="45.92645" lon="4.73681">
        <ele>173</ele>
        <time>2016-09-08T11:25:06Z</time>
      </trkpt>
      <trkpt lat="45.92642" lon="4.73675">
        <ele>173</ele>
        <time>2016-09-08T11:25:07Z</time>
      </trkpt>
      <trkpt lat="45.92638" lon="4.73669">
        <ele>173</ele>
        <time>2016-09-08T11:25:08Z</time>
      </trkpt>
      <trkpt lat="45.92635" lon="4.73663">
        <ele>173</ele>
        <time>2016-09-08T11:25:09Z</time>
      </trkpt>
      <trkpt lat="45.92632" lon="4.73656">
        <ele>173</ele>
        <time>2016-09-08T11:25:10Z</time>
      </trkpt>
      <trkpt lat="45.92629" lon="4.73649">
        <ele>173</ele>
        <time>2016-09-08T11:25:11Z</time>
      </trkpt>
      <trkpt lat="45.92626" lon="4.73642">
        <ele>173</ele>
        <time>2016-09-08T11:25:12Z</time>
      </trkpt>
      <trkpt lat="45.92621" lon="4.73636">
        <ele>173</ele>
        <time>2016-09-08T11:25:13Z</time>
      </trkpt>
      <trkpt lat="45.92616" lon="4.73631">
        <ele>173</ele>
        <time>2016-09-08T11:25:14Z</time>
      </trkpt>
      <trkpt lat="45.9261" lon="4.73628">
        <ele>173</ele>
        <time>2016-09-08T11:25:15Z</time>
      </trkpt>
      <trkpt lat="45.92605" lon="4.73625">
        <ele>173</ele>
        <time>2016-09-08T11:25:16Z</time>
      </trkpt>
      <trkpt lat="45.926" lon="4.73624">
        <ele>173</ele>
        <time>2016-09-08T11:25:17Z</time>
      </trkpt>
      <trkpt lat="45.92594" lon="4.73623">
        <ele>173</ele>
        <time>2016-09-08T11:25:18Z</time>
      </trkpt>
      <trkpt lat="45.92589" lon="4.73623">
        <ele>173</ele>
        <time>2016-09-08T11:25:19Z</time>
      </trkpt>
      <trkpt lat="45.92584" lon="4.73624">
        <ele>172</ele>
        <time>2016-09-08T11:25:20Z</time>
      </trkpt>
      <trkpt lat="45.92579" lon="4.73625">
        <ele>173</ele>
        <time>2016-09-08T11:25:21Z</time>
      </trkpt>
      <trkpt lat="45.92574" lon="4.73626">
        <ele>173</ele>
        <time>2016-09-08T11:25:22Z</time>
      </trkpt>
      <trkpt lat="45.92569" lon="4.73627">
        <ele>173</ele>
        <time>2016-09-08T11:25:23Z</time>
      </trkpt>
      <trkpt lat="45.92564" lon="4.73627">
        <ele>173</ele>
        <time>2016-09-08T11:25:24Z</time>
      </trkpt>
      <trkpt lat="45.92558" lon="4.73628">
        <ele>173</ele>
        <time>2016-09-08T11:25:25Z</time>
      </trkpt>
      <trkpt lat="45.92553" lon="4.73628">
        <ele>173</ele>
        <time>2016-09-08T11:25:26Z</time>
      </trkpt>
      <trkpt lat="45.92547" lon="4.73631">
        <ele>173</ele>
        <time>2016-09-08T11:25:27Z</time>
      </trkpt>
      <trkpt lat="45.92541" lon="4.73633">
        <ele>173</ele>
        <time>2016-09-08T11:25:28Z</time>
      </trkpt>
      <trkpt lat="45.92536" lon="4.73634">
        <ele>173</ele>
        <time>2016-09-08T11:25:29Z</time>
      </trkpt>
      <trkpt lat="45.92529" lon="4.73635">
        <ele>173</ele>
        <time>2016-09-08T11:25:30Z</time>
      </trkpt>
      <trkpt lat="45.92524" lon="4.73635">
        <ele>173</ele>
        <time>2016-09-08T11:25:31Z</time>
      </trkpt>
      <trkpt lat="45.92518" lon="4.73636">
        <ele>173</ele>
        <time>2016-09-08T11:25:32Z</time>
      </trkpt>
      <trkpt lat="45.92513" lon="4.73636">
        <ele>173</ele>
        <time>2016-09-08T11:25:33Z</time>
      </trkpt>
      <trkpt lat="45.92508" lon="4.73637">
        <ele>174</ele>
        <time>2016-09-08T11:25:34Z</time>
      </trkpt>
      <trkpt lat="45.92503" lon="4.73637">
        <ele>174</ele>
        <time>2016-09-08T11:25:35Z</time>
      </trkpt>
      <trkpt lat="45.92498" lon="4.73636">
        <ele>174</ele>
        <time>2016-09-08T11:25:36Z</time>
      </trkpt>
      <trkpt lat="45.92493" lon="4.73637">
        <ele>174</ele>
        <time>2016-09-08T11:25:37Z</time>
      </trkpt>
      <trkpt lat="45.92489" lon="4.73637">
        <ele>174</ele>
        <time>2016-09-08T11:25:38Z</time>
      </trkpt>
      <trkpt lat="45.92481" lon="4.73638">
        <ele>174</ele>
        <time>2016-09-08T11:25:40Z</time>
      </trkpt>
      <trkpt lat="45.92477" lon="4.7364">
        <ele>174</ele>
        <time>2016-09-08T11:25:41Z</time>
      </trkpt>
      <trkpt lat="45.92471" lon="4.73648">
        <ele>174</ele>
        <time>2016-09-08T11:25:43Z</time>
      </trkpt>
      <trkpt lat="45.92471" lon="4.73652">
        <ele>174</ele>
        <time>2016-09-08T11:25:44Z</time>
      </trkpt>
      <trkpt lat="45.92469" lon="4.73664">
        <ele>174</ele>
        <time>2016-09-08T11:25:46Z</time>
      </trkpt>
      <trkpt lat="45.92468" lon="4.73669">
        <ele>174</ele>
        <time>2016-09-08T11:25:47Z</time>
      </trkpt>
      <trkpt lat="45.92467" lon="4.73681">
        <ele>174</ele>
        <time>2016-09-08T11:25:49Z</time>
      </trkpt>
      <trkpt lat="45.92467" lon="4.73686">
        <ele>174</ele>
        <time>2016-09-08T11:25:50Z</time>
      </trkpt>
      <trkpt lat="45.92467" lon="4.73697">
        <ele>174</ele>
        <time>2016-09-08T11:25:52Z</time>
      </trkpt>
      <trkpt lat="45.92467" lon="4.73701">
        <ele>174</ele>
        <time>2016-09-08T11:25:53Z</time>
      </trkpt>
      <trkpt lat="45.92465" lon="4.73708">
        <ele>174</ele>
        <time>2016-09-08T11:25:56Z</time>
      </trkpt>
      <trkpt lat="45.92465" lon="4.73709">
        <ele>174</ele>
        <time>2016-09-08T11:25:57Z</time>
      </trkpt>
      <trkpt lat="45.92465" lon="4.7371">
        <ele>174</ele>
        <time>2016-09-08T11:26:34.408Z</time>
      </trkpt>
    </trkseg>
  </trk>
</gpx>